<?xml version="1.0"?>
<gpx
 version="1.1"
 creator="Satmap Active 20"
 xmlns:xsi="http://www.w3.org/2001/XMLSchema-instance"
 xmlns="http://www.topografix.com/GPX/1/1"
 xmlns:satmap="http://www.satmap.com/updates/xmlschemas/GpxExtensions/v2/GpxExtensions_v2.xsd"
 xsi:schemaLocation="http://www.topografix.com/GPX/1/1 http://www.topografix.com/GPX/1/1/gpx.xsd">
<metadata>
<time>2020-08-19T08:47:50Z</time>
<extensions>
<satmap:platform>43</satmap:platform>
<satmap:software version="3.12.831">SM15.exe</satmap:software>
<satmap:username>Jim Grant</satmap:username>
<satmap:network_ids>
<satmap:network_id type="wifi">00-23-A7-EC-D5-78</satmap:network_id>
<satmap:network_id type="bluetooth">80-BB-EB-D7-5B-7C</satmap:network_id>
</satmap:network_ids>
<satmap:snap_type>simple</satmap:snap_type>
</extensions>
</metadata>
<trk>
<name>2020-08-19_0847</name>
<desc>Track 1</desc>
<number>1</number>
<trkseg>
<trkpt lat="53.208876" lon="-2.041914"><ele>263</ele><time>2020-08-19T08:47:50Z</time><name>PT1</name></trkpt>
<trkpt lat="53.208876" lon="-2.041914"><ele>260</ele><time>2020-08-19T08:48:02Z</time><name>PT2</name></trkpt>
<trkpt lat="53.208878" lon="-2.041911"><ele>259</ele><time>2020-08-19T08:48:03Z</time><name>PT3</name></trkpt>
<trkpt lat="53.208882" lon="-2.041907"><ele>259</ele><time>2020-08-19T08:48:04Z</time><name>PT4</name></trkpt>
<trkpt lat="53.208885" lon="-2.041904"><ele>259</ele><time>2020-08-19T08:48:05Z</time><name>PT5</name></trkpt>
<trkpt lat="53.208882" lon="-2.041912"><ele>258</ele><time>2020-08-19T08:48:06Z</time><name>PT6</name></trkpt>
<trkpt lat="53.208879" lon="-2.041916"><ele>258</ele><time>2020-08-19T08:48:07Z</time><name>PT7</name></trkpt>
<trkpt lat="53.208880" lon="-2.041917"><ele>258</ele><time>2020-08-19T08:48:08Z</time><name>PT8</name></trkpt>
<trkpt lat="53.208880" lon="-2.041914"><ele>258</ele><time>2020-08-19T08:48:09Z</time><name>PT9</name></trkpt>
<trkpt lat="53.208880" lon="-2.041912"><ele>258</ele><time>2020-08-19T08:48:10Z</time><name>PT10</name></trkpt>
<trkpt lat="53.208879" lon="-2.041900"><ele>257</ele><time>2020-08-19T08:48:11Z</time><name>PT11</name></trkpt>
<trkpt lat="53.208880" lon="-2.041896"><ele>256</ele><time>2020-08-19T08:48:12Z</time><name>PT12</name></trkpt>
<trkpt lat="53.208879" lon="-2.041894"><ele>257</ele><time>2020-08-19T08:48:32Z</time><name>PT13</name></trkpt>
<trkpt lat="53.208879" lon="-2.041878"><ele>257</ele><time>2020-08-19T08:48:33Z</time><name>PT14</name></trkpt>
<trkpt lat="53.208879" lon="-2.041867"><ele>257</ele><time>2020-08-19T08:48:34Z</time><name>PT15</name></trkpt>
<trkpt lat="53.208879" lon="-2.041873"><ele>257</ele><time>2020-08-19T08:48:35Z</time><name>PT16</name></trkpt>
<trkpt lat="53.208879" lon="-2.041871"><ele>257</ele><time>2020-08-19T08:48:36Z</time><name>PT17</name></trkpt>
<trkpt lat="53.208881" lon="-2.041865"><ele>257</ele><time>2020-08-19T08:48:37Z</time><name>PT18</name></trkpt>
<trkpt lat="53.208883" lon="-2.041857"><ele>258</ele><time>2020-08-19T08:48:38Z</time><name>PT19</name></trkpt>
<trkpt lat="53.208889" lon="-2.041882"><ele>254</ele><time>2020-08-19T08:48:39Z</time><name>PT20</name></trkpt>
<trkpt lat="53.208888" lon="-2.041886"><ele>254</ele><time>2020-08-19T08:48:40Z</time><name>PT21</name></trkpt>
<trkpt lat="53.208889" lon="-2.041883"><ele>254</ele><time>2020-08-19T08:48:41Z</time><name>PT22</name></trkpt>
<trkpt lat="53.208891" lon="-2.041880"><ele>254</ele><time>2020-08-19T08:48:42Z</time><name>PT23</name></trkpt>
<trkpt lat="53.208894" lon="-2.041881"><ele>253</ele><time>2020-08-19T08:48:43Z</time><name>PT24</name></trkpt>
<trkpt lat="53.208895" lon="-2.041873"><ele>252</ele><time>2020-08-19T08:48:44Z</time><name>PT25</name></trkpt>
<trkpt lat="53.208894" lon="-2.041872"><ele>253</ele><time>2020-08-19T08:48:45Z</time><name>PT26</name></trkpt>
<trkpt lat="53.208889" lon="-2.041850"><ele>252</ele><time>2020-08-19T08:49:17Z</time><name>PT27</name></trkpt>
<trkpt lat="53.208888" lon="-2.041839"><ele>252</ele><time>2020-08-19T08:49:18Z</time><name>PT28</name></trkpt>
<trkpt lat="53.208887" lon="-2.041819"><ele>251</ele><time>2020-08-19T08:49:19Z</time><name>PT29</name></trkpt>
<trkpt lat="53.208873" lon="-2.041813"><ele>250</ele><time>2020-08-19T08:49:20Z</time><name>PT30</name></trkpt>
<trkpt lat="53.208869" lon="-2.041811"><ele>249</ele><time>2020-08-19T08:49:21Z</time><name>PT31</name></trkpt>
<trkpt lat="53.208867" lon="-2.041814"><ele>249</ele><time>2020-08-19T08:49:22Z</time><name>PT32</name></trkpt>
<trkpt lat="53.208865" lon="-2.041815"><ele>249</ele><time>2020-08-19T08:49:23Z</time><name>PT33</name></trkpt>
<trkpt lat="53.208867" lon="-2.041815"><ele>249</ele><time>2020-08-19T08:49:24Z</time><name>PT34</name></trkpt>
<trkpt lat="53.208867" lon="-2.041814"><ele>248</ele><time>2020-08-19T08:49:25Z</time><name>PT35</name></trkpt>
<trkpt lat="53.208870" lon="-2.041811"><ele>249</ele><time>2020-08-19T08:49:46Z</time><name>PT36</name></trkpt>
<trkpt lat="53.208867" lon="-2.041812"><ele>249</ele><time>2020-08-19T08:49:47Z</time><name>PT37</name></trkpt>
<trkpt lat="53.208867" lon="-2.041811"><ele>250</ele><time>2020-08-19T08:49:48Z</time><name>PT38</name></trkpt>
<trkpt lat="53.208875" lon="-2.041803"><ele>250</ele><time>2020-08-19T08:49:54Z</time><name>PT39</name></trkpt>
<trkpt lat="53.208876" lon="-2.041801"><ele>250</ele><time>2020-08-19T08:49:55Z</time><name>PT40</name></trkpt>
<trkpt lat="53.208881" lon="-2.041805"><ele>250</ele><time>2020-08-19T08:49:57Z</time><name>PT41</name></trkpt>
<trkpt lat="53.208883" lon="-2.041808"><ele>250</ele><time>2020-08-19T08:49:58Z</time><name>PT42</name></trkpt>
<trkpt lat="53.208885" lon="-2.041811"><ele>250</ele><time>2020-08-19T08:49:59Z</time><name>PT43</name></trkpt>
<trkpt lat="53.208881" lon="-2.041811"><ele>250</ele><time>2020-08-19T08:50:24Z</time><name>PT44</name></trkpt>
<trkpt lat="53.208877" lon="-2.041816"><ele>250</ele><time>2020-08-19T08:50:25Z</time><name>PT45</name></trkpt>
<trkpt lat="53.208875" lon="-2.041819"><ele>250</ele><time>2020-08-19T08:50:26Z</time><name>PT46</name></trkpt>
<trkpt lat="53.208875" lon="-2.041814"><ele>250</ele><time>2020-08-19T08:50:27Z</time><name>PT47</name></trkpt>
<trkpt lat="53.208874" lon="-2.041809"><ele>251</ele><time>2020-08-19T08:50:41Z</time><name>PT48</name></trkpt>
<trkpt lat="53.208876" lon="-2.041807"><ele>251</ele><time>2020-08-19T08:50:42Z</time><name>PT49</name></trkpt>
<trkpt lat="53.208876" lon="-2.041802"><ele>251</ele><time>2020-08-19T08:50:43Z</time><name>PT50</name></trkpt>
<trkpt lat="53.208874" lon="-2.041802"><ele>251</ele><time>2020-08-19T08:50:44Z</time><name>PT51</name></trkpt>
<trkpt lat="53.208873" lon="-2.041802"><ele>252</ele><time>2020-08-19T08:50:45Z</time><name>PT52</name></trkpt>
<trkpt lat="53.208866" lon="-2.041815"><ele>251</ele><time>2020-08-19T08:51:01Z</time><name>PT53</name></trkpt>
<trkpt lat="53.208864" lon="-2.041814"><ele>252</ele><time>2020-08-19T08:51:04Z</time><name>PT54</name></trkpt>
<trkpt lat="53.208865" lon="-2.041812"><ele>251</ele><time>2020-08-19T08:51:07Z</time><name>PT55</name></trkpt>
<trkpt lat="53.208857" lon="-2.041782"><ele>250</ele><time>2020-08-19T08:51:11Z</time><name>PT56</name></trkpt>
<trkpt lat="53.208847" lon="-2.041747"><ele>250</ele><time>2020-08-19T08:51:14Z</time><name>PT57</name></trkpt>
<trkpt lat="53.208828" lon="-2.041724"><ele>249</ele><time>2020-08-19T08:51:17Z</time><name>PT58</name></trkpt>
<trkpt lat="53.208806" lon="-2.041705"><ele>249</ele><time>2020-08-19T08:51:21Z</time><name>PT59</name></trkpt>
<trkpt lat="53.208779" lon="-2.041663"><ele>249</ele><time>2020-08-19T08:51:25Z</time><name>PT60</name></trkpt>
<trkpt lat="53.208761" lon="-2.041636"><ele>248</ele><time>2020-08-19T08:51:28Z</time><name>PT61</name></trkpt>
<trkpt lat="53.208763" lon="-2.041600"><ele>248</ele><time>2020-08-19T08:51:31Z</time><name>PT62</name></trkpt>
<trkpt lat="53.208758" lon="-2.041542"><ele>249</ele><time>2020-08-19T08:51:35Z</time><name>PT63</name></trkpt>
<trkpt lat="53.208760" lon="-2.041507"><ele>245</ele><time>2020-08-19T08:51:39Z</time><name>PT64</name></trkpt>
<trkpt lat="53.208767" lon="-2.041465"><ele>246</ele><time>2020-08-19T08:51:42Z</time><name>PT65</name></trkpt>
<trkpt lat="53.208767" lon="-2.041404"><ele>246</ele><time>2020-08-19T08:51:45Z</time><name>PT66</name></trkpt>
<trkpt lat="53.208774" lon="-2.041339"><ele>246</ele><time>2020-08-19T08:51:49Z</time><name>PT67</name></trkpt>
<trkpt lat="53.208789" lon="-2.041280"><ele>248</ele><time>2020-08-19T08:51:53Z</time><name>PT68</name></trkpt>
<trkpt lat="53.208789" lon="-2.041238"><ele>247</ele><time>2020-08-19T08:51:56Z</time><name>PT69</name></trkpt>
<trkpt lat="53.208796" lon="-2.041191"><ele>246</ele><time>2020-08-19T08:51:59Z</time><name>PT70</name></trkpt>
<trkpt lat="53.208810" lon="-2.041103"><ele>246</ele><time>2020-08-19T08:52:03Z</time><name>PT71</name></trkpt>
<trkpt lat="53.208819" lon="-2.041051"><ele>245</ele><time>2020-08-19T08:52:06Z</time><name>PT72</name></trkpt>
<trkpt lat="53.208822" lon="-2.040925"><ele>247</ele><time>2020-08-19T08:52:10Z</time><name>PT73</name></trkpt>
<trkpt lat="53.208835" lon="-2.040848"><ele>249</ele><time>2020-08-19T08:52:13Z</time><name>PT74</name></trkpt>
<trkpt lat="53.208843" lon="-2.040826"><ele>248</ele><time>2020-08-19T08:52:14Z</time><name>PT75</name></trkpt>
<trkpt lat="53.208849" lon="-2.040812"><ele>248</ele><time>2020-08-19T08:52:15Z</time><name>PT76</name></trkpt>
<trkpt lat="53.208861" lon="-2.040792"><ele>249</ele><time>2020-08-19T08:52:16Z</time><name>PT77</name></trkpt>
<trkpt lat="53.208867" lon="-2.040776"><ele>249</ele><time>2020-08-19T08:52:17Z</time><name>PT78</name></trkpt>
<trkpt lat="53.208870" lon="-2.040757"><ele>249</ele><time>2020-08-19T08:52:18Z</time><name>PT79</name></trkpt>
<trkpt lat="53.208875" lon="-2.040736"><ele>250</ele><time>2020-08-19T08:52:19Z</time><name>PT80</name></trkpt>
<trkpt lat="53.208878" lon="-2.040722"><ele>249</ele><time>2020-08-19T08:52:20Z</time><name>PT81</name></trkpt>
<trkpt lat="53.208880" lon="-2.040703"><ele>250</ele><time>2020-08-19T08:52:21Z</time><name>PT82</name></trkpt>
<trkpt lat="53.208884" lon="-2.040685"><ele>250</ele><time>2020-08-19T08:52:22Z</time><name>PT83</name></trkpt>
<trkpt lat="53.208891" lon="-2.040670"><ele>250</ele><time>2020-08-19T08:52:23Z</time><name>PT84</name></trkpt>
<trkpt lat="53.208898" lon="-2.040661"><ele>250</ele><time>2020-08-19T08:52:24Z</time><name>PT85</name></trkpt>
<trkpt lat="53.208899" lon="-2.040653"><ele>250</ele><time>2020-08-19T08:52:25Z</time><name>PT86</name></trkpt>
<trkpt lat="53.208899" lon="-2.040636"><ele>251</ele><time>2020-08-19T08:52:26Z</time><name>PT87</name></trkpt>
<trkpt lat="53.208903" lon="-2.040611"><ele>251</ele><time>2020-08-19T08:52:27Z</time><name>PT88</name></trkpt>
<trkpt lat="53.208904" lon="-2.040593"><ele>250</ele><time>2020-08-19T08:52:28Z</time><name>PT89</name></trkpt>
<trkpt lat="53.208905" lon="-2.040573"><ele>250</ele><time>2020-08-19T08:52:29Z</time><name>PT90</name></trkpt>
<trkpt lat="53.208905" lon="-2.040562"><ele>251</ele><time>2020-08-19T08:52:30Z</time><name>PT91</name></trkpt>
<trkpt lat="53.208907" lon="-2.040545"><ele>251</ele><time>2020-08-19T08:52:31Z</time><name>PT92</name></trkpt>
<trkpt lat="53.208911" lon="-2.040530"><ele>251</ele><time>2020-08-19T08:52:32Z</time><name>PT93</name></trkpt>
<trkpt lat="53.208913" lon="-2.040516"><ele>252</ele><time>2020-08-19T08:52:33Z</time><name>PT94</name></trkpt>
<trkpt lat="53.208915" lon="-2.040499"><ele>252</ele><time>2020-08-19T08:52:34Z</time><name>PT95</name></trkpt>
<trkpt lat="53.208918" lon="-2.040479"><ele>253</ele><time>2020-08-19T08:52:35Z</time><name>PT96</name></trkpt>
<trkpt lat="53.208922" lon="-2.040457"><ele>253</ele><time>2020-08-19T08:52:36Z</time><name>PT97</name></trkpt>
<trkpt lat="53.208928" lon="-2.040441"><ele>253</ele><time>2020-08-19T08:52:37Z</time><name>PT98</name></trkpt>
<trkpt lat="53.208930" lon="-2.040438"><ele>253</ele><time>2020-08-19T08:52:38Z</time><name>PT99</name></trkpt>
<trkpt lat="53.208932" lon="-2.040436"><ele>253</ele><time>2020-08-19T08:52:39Z</time><name>PT100</name></trkpt>
<trkpt lat="53.208934" lon="-2.040422"><ele>252</ele><time>2020-08-19T08:52:40Z</time><name>PT101</name></trkpt>
<trkpt lat="53.208934" lon="-2.040409"><ele>252</ele><time>2020-08-19T08:52:41Z</time><name>PT102</name></trkpt>
<trkpt lat="53.208937" lon="-2.040392"><ele>252</ele><time>2020-08-19T08:52:42Z</time><name>PT103</name></trkpt>
<trkpt lat="53.208938" lon="-2.040376"><ele>252</ele><time>2020-08-19T08:52:43Z</time><name>PT104</name></trkpt>
<trkpt lat="53.208941" lon="-2.040360"><ele>251</ele><time>2020-08-19T08:52:44Z</time><name>PT105</name></trkpt>
<trkpt lat="53.208943" lon="-2.040341"><ele>250</ele><time>2020-08-19T08:52:45Z</time><name>PT106</name></trkpt>
<trkpt lat="53.208943" lon="-2.040318"><ele>250</ele><time>2020-08-19T08:52:46Z</time><name>PT107</name></trkpt>
<trkpt lat="53.208943" lon="-2.040303"><ele>250</ele><time>2020-08-19T08:52:47Z</time><name>PT108</name></trkpt>
<trkpt lat="53.208949" lon="-2.040291"><ele>251</ele><time>2020-08-19T08:52:48Z</time><name>PT109</name></trkpt>
<trkpt lat="53.208953" lon="-2.040267"><ele>252</ele><time>2020-08-19T08:52:49Z</time><name>PT110</name></trkpt>
<trkpt lat="53.208959" lon="-2.040260"><ele>250</ele><time>2020-08-19T08:52:50Z</time><name>PT111</name></trkpt>
<trkpt lat="53.208965" lon="-2.040251"><ele>250</ele><time>2020-08-19T08:52:51Z</time><name>PT112</name></trkpt>
<trkpt lat="53.208967" lon="-2.040230"><ele>250</ele><time>2020-08-19T08:52:52Z</time><name>PT113</name></trkpt>
<trkpt lat="53.208970" lon="-2.040204"><ele>250</ele><time>2020-08-19T08:52:53Z</time><name>PT114</name></trkpt>
<trkpt lat="53.208970" lon="-2.040175"><ele>250</ele><time>2020-08-19T08:52:54Z</time><name>PT115</name></trkpt>
<trkpt lat="53.208973" lon="-2.040151"><ele>251</ele><time>2020-08-19T08:52:55Z</time><name>PT116</name></trkpt>
<trkpt lat="53.208974" lon="-2.040124"><ele>252</ele><time>2020-08-19T08:52:56Z</time><name>PT117</name></trkpt>
<trkpt lat="53.208975" lon="-2.040103"><ele>253</ele><time>2020-08-19T08:52:57Z</time><name>PT118</name></trkpt>
<trkpt lat="53.208976" lon="-2.040087"><ele>252</ele><time>2020-08-19T08:52:58Z</time><name>PT119</name></trkpt>
<trkpt lat="53.208978" lon="-2.040074"><ele>252</ele><time>2020-08-19T08:52:59Z</time><name>PT120</name></trkpt>
<trkpt lat="53.208983" lon="-2.040056"><ele>253</ele><time>2020-08-19T08:53:00Z</time><name>PT121</name></trkpt>
<trkpt lat="53.208989" lon="-2.040054"><ele>252</ele><time>2020-08-19T08:53:01Z</time><name>PT122</name></trkpt>
<trkpt lat="53.208992" lon="-2.040038"><ele>252</ele><time>2020-08-19T08:53:02Z</time><name>PT123</name></trkpt>
<trkpt lat="53.208994" lon="-2.040020"><ele>253</ele><time>2020-08-19T08:53:03Z</time><name>PT124</name></trkpt>
<trkpt lat="53.208996" lon="-2.040007"><ele>253</ele><time>2020-08-19T08:53:04Z</time><name>PT125</name></trkpt>
<trkpt lat="53.209000" lon="-2.039990"><ele>254</ele><time>2020-08-19T08:53:05Z</time><name>PT126</name></trkpt>
<trkpt lat="53.209004" lon="-2.039972"><ele>255</ele><time>2020-08-19T08:53:06Z</time><name>PT127</name></trkpt>
<trkpt lat="53.209009" lon="-2.039970"><ele>255</ele><time>2020-08-19T08:53:07Z</time><name>PT128</name></trkpt>
<trkpt lat="53.209013" lon="-2.039960"><ele>255</ele><time>2020-08-19T08:53:08Z</time><name>PT129</name></trkpt>
<trkpt lat="53.209017" lon="-2.039951"><ele>255</ele><time>2020-08-19T08:53:09Z</time><name>PT130</name></trkpt>
<trkpt lat="53.209019" lon="-2.039934"><ele>255</ele><time>2020-08-19T08:53:10Z</time><name>PT131</name></trkpt>
<trkpt lat="53.209022" lon="-2.039926"><ele>254</ele><time>2020-08-19T08:53:11Z</time><name>PT132</name></trkpt>
<trkpt lat="53.209023" lon="-2.039904"><ele>254</ele><time>2020-08-19T08:53:12Z</time><name>PT133</name></trkpt>
<trkpt lat="53.209024" lon="-2.039877"><ele>254</ele><time>2020-08-19T08:53:13Z</time><name>PT134</name></trkpt>
<trkpt lat="53.209026" lon="-2.039859"><ele>254</ele><time>2020-08-19T08:53:14Z</time><name>PT135</name></trkpt>
<trkpt lat="53.209029" lon="-2.039840"><ele>254</ele><time>2020-08-19T08:53:15Z</time><name>PT136</name></trkpt>
<trkpt lat="53.209037" lon="-2.039809"><ele>256</ele><time>2020-08-19T08:53:16Z</time><name>PT137</name></trkpt>
<trkpt lat="53.209043" lon="-2.039787"><ele>255</ele><time>2020-08-19T08:53:17Z</time><name>PT138</name></trkpt>
<trkpt lat="53.209044" lon="-2.039768"><ele>255</ele><time>2020-08-19T08:53:18Z</time><name>PT139</name></trkpt>
<trkpt lat="53.209050" lon="-2.039744"><ele>255</ele><time>2020-08-19T08:53:19Z</time><name>PT140</name></trkpt>
<trkpt lat="53.209055" lon="-2.039726"><ele>256</ele><time>2020-08-19T08:53:20Z</time><name>PT141</name></trkpt>
<trkpt lat="53.209058" lon="-2.039703"><ele>257</ele><time>2020-08-19T08:53:21Z</time><name>PT142</name></trkpt>
<trkpt lat="53.209064" lon="-2.039688"><ele>256</ele><time>2020-08-19T08:53:22Z</time><name>PT143</name></trkpt>
<trkpt lat="53.209070" lon="-2.039673"><ele>257</ele><time>2020-08-19T08:53:23Z</time><name>PT144</name></trkpt>
<trkpt lat="53.209073" lon="-2.039642"><ele>257</ele><time>2020-08-19T08:53:24Z</time><name>PT145</name></trkpt>
<trkpt lat="53.209078" lon="-2.039611"><ele>258</ele><time>2020-08-19T08:53:25Z</time><name>PT146</name></trkpt>
<trkpt lat="53.209085" lon="-2.039587"><ele>257</ele><time>2020-08-19T08:53:26Z</time><name>PT147</name></trkpt>
<trkpt lat="53.209087" lon="-2.039566"><ele>257</ele><time>2020-08-19T08:53:27Z</time><name>PT148</name></trkpt>
<trkpt lat="53.209086" lon="-2.039539"><ele>258</ele><time>2020-08-19T08:53:28Z</time><name>PT149</name></trkpt>
<trkpt lat="53.209086" lon="-2.039500"><ele>259</ele><time>2020-08-19T08:53:29Z</time><name>PT150</name></trkpt>
<trkpt lat="53.209093" lon="-2.039470"><ele>259</ele><time>2020-08-19T08:53:30Z</time><name>PT151</name></trkpt>
<trkpt lat="53.209100" lon="-2.039440"><ele>259</ele><time>2020-08-19T08:53:31Z</time><name>PT152</name></trkpt>
<trkpt lat="53.209106" lon="-2.039414"><ele>259</ele><time>2020-08-19T08:53:32Z</time><name>PT153</name></trkpt>
<trkpt lat="53.209108" lon="-2.039388"><ele>259</ele><time>2020-08-19T08:53:33Z</time><name>PT154</name></trkpt>
<trkpt lat="53.209107" lon="-2.039371"><ele>258</ele><time>2020-08-19T08:53:34Z</time><name>PT155</name></trkpt>
<trkpt lat="53.209108" lon="-2.039354"><ele>258</ele><time>2020-08-19T08:53:35Z</time><name>PT156</name></trkpt>
<trkpt lat="53.209110" lon="-2.039335"><ele>257</ele><time>2020-08-19T08:53:36Z</time><name>PT157</name></trkpt>
<trkpt lat="53.209114" lon="-2.039317"><ele>256</ele><time>2020-08-19T08:53:37Z</time><name>PT158</name></trkpt>
<trkpt lat="53.209120" lon="-2.039295"><ele>255</ele><time>2020-08-19T08:53:38Z</time><name>PT159</name></trkpt>
<trkpt lat="53.209127" lon="-2.039283"><ele>254</ele><time>2020-08-19T08:53:39Z</time><name>PT160</name></trkpt>
<trkpt lat="53.209132" lon="-2.039257"><ele>254</ele><time>2020-08-19T08:53:40Z</time><name>PT161</name></trkpt>
<trkpt lat="53.209139" lon="-2.039232"><ele>255</ele><time>2020-08-19T08:53:41Z</time><name>PT162</name></trkpt>
<trkpt lat="53.209147" lon="-2.039213"><ele>254</ele><time>2020-08-19T08:53:42Z</time><name>PT163</name></trkpt>
<trkpt lat="53.209155" lon="-2.039195"><ele>254</ele><time>2020-08-19T08:53:43Z</time><name>PT164</name></trkpt>
<trkpt lat="53.209161" lon="-2.039178"><ele>253</ele><time>2020-08-19T08:53:44Z</time><name>PT165</name></trkpt>
<trkpt lat="53.209169" lon="-2.039159"><ele>254</ele><time>2020-08-19T08:53:45Z</time><name>PT166</name></trkpt>
<trkpt lat="53.209173" lon="-2.039138"><ele>255</ele><time>2020-08-19T08:53:46Z</time><name>PT167</name></trkpt>
<trkpt lat="53.209177" lon="-2.039113"><ele>255</ele><time>2020-08-19T08:53:47Z</time><name>PT168</name></trkpt>
<trkpt lat="53.209182" lon="-2.039089"><ele>254</ele><time>2020-08-19T08:53:48Z</time><name>PT169</name></trkpt>
<trkpt lat="53.209188" lon="-2.039060"><ele>255</ele><time>2020-08-19T08:53:49Z</time><name>PT170</name></trkpt>
<trkpt lat="53.209194" lon="-2.039040"><ele>254</ele><time>2020-08-19T08:53:50Z</time><name>PT171</name></trkpt>
<trkpt lat="53.209196" lon="-2.039020"><ele>254</ele><time>2020-08-19T08:53:51Z</time><name>PT172</name></trkpt>
<trkpt lat="53.209200" lon="-2.039006"><ele>254</ele><time>2020-08-19T08:53:52Z</time><name>PT173</name></trkpt>
<trkpt lat="53.209205" lon="-2.038986"><ele>253</ele><time>2020-08-19T08:53:53Z</time><name>PT174</name></trkpt>
<trkpt lat="53.209209" lon="-2.038966"><ele>253</ele><time>2020-08-19T08:53:54Z</time><name>PT175</name></trkpt>
<trkpt lat="53.209214" lon="-2.038943"><ele>254</ele><time>2020-08-19T08:53:55Z</time><name>PT176</name></trkpt>
<trkpt lat="53.209225" lon="-2.038934"><ele>254</ele><time>2020-08-19T08:53:56Z</time><name>PT177</name></trkpt>
<trkpt lat="53.209229" lon="-2.038917"><ele>253</ele><time>2020-08-19T08:53:57Z</time><name>PT178</name></trkpt>
<trkpt lat="53.209233" lon="-2.038910"><ele>253</ele><time>2020-08-19T08:53:58Z</time><name>PT179</name></trkpt>
<trkpt lat="53.209237" lon="-2.038896"><ele>253</ele><time>2020-08-19T08:53:59Z</time><name>PT180</name></trkpt>
<trkpt lat="53.209241" lon="-2.038879"><ele>253</ele><time>2020-08-19T08:54:00Z</time><name>PT181</name></trkpt>
<trkpt lat="53.209247" lon="-2.038861"><ele>253</ele><time>2020-08-19T08:54:01Z</time><name>PT182</name></trkpt>
<trkpt lat="53.209251" lon="-2.038840"><ele>252</ele><time>2020-08-19T08:54:02Z</time><name>PT183</name></trkpt>
<trkpt lat="53.209257" lon="-2.038813"><ele>253</ele><time>2020-08-19T08:54:03Z</time><name>PT184</name></trkpt>
<trkpt lat="53.209269" lon="-2.038792"><ele>254</ele><time>2020-08-19T08:54:04Z</time><name>PT185</name></trkpt>
<trkpt lat="53.209271" lon="-2.038773"><ele>253</ele><time>2020-08-19T08:54:05Z</time><name>PT186</name></trkpt>
<trkpt lat="53.209275" lon="-2.038746"><ele>254</ele><time>2020-08-19T08:54:06Z</time><name>PT187</name></trkpt>
<trkpt lat="53.209279" lon="-2.038722"><ele>254</ele><time>2020-08-19T08:54:07Z</time><name>PT188</name></trkpt>
<trkpt lat="53.209284" lon="-2.038699"><ele>255</ele><time>2020-08-19T08:54:08Z</time><name>PT189</name></trkpt>
<trkpt lat="53.209287" lon="-2.038682"><ele>255</ele><time>2020-08-19T08:54:09Z</time><name>PT190</name></trkpt>
<trkpt lat="53.209290" lon="-2.038661"><ele>255</ele><time>2020-08-19T08:54:10Z</time><name>PT191</name></trkpt>
<trkpt lat="53.209292" lon="-2.038640"><ele>254</ele><time>2020-08-19T08:54:11Z</time><name>PT192</name></trkpt>
<trkpt lat="53.209300" lon="-2.038617"><ele>254</ele><time>2020-08-19T08:54:12Z</time><name>PT193</name></trkpt>
<trkpt lat="53.209305" lon="-2.038591"><ele>255</ele><time>2020-08-19T08:54:13Z</time><name>PT194</name></trkpt>
<trkpt lat="53.209308" lon="-2.038564"><ele>256</ele><time>2020-08-19T08:54:14Z</time><name>PT195</name></trkpt>
<trkpt lat="53.209316" lon="-2.038543"><ele>256</ele><time>2020-08-19T08:54:15Z</time><name>PT196</name></trkpt>
<trkpt lat="53.209326" lon="-2.038523"><ele>256</ele><time>2020-08-19T08:54:16Z</time><name>PT197</name></trkpt>
<trkpt lat="53.209326" lon="-2.038500"><ele>254</ele><time>2020-08-19T08:54:17Z</time><name>PT198</name></trkpt>
<trkpt lat="53.209331" lon="-2.038482"><ele>255</ele><time>2020-08-19T08:54:18Z</time><name>PT199</name></trkpt>
<trkpt lat="53.209339" lon="-2.038459"><ele>255</ele><time>2020-08-19T08:54:19Z</time><name>PT200</name></trkpt>
<trkpt lat="53.209343" lon="-2.038436"><ele>254</ele><time>2020-08-19T08:54:20Z</time><name>PT201</name></trkpt>
<trkpt lat="53.209351" lon="-2.038415"><ele>254</ele><time>2020-08-19T08:54:21Z</time><name>PT202</name></trkpt>
<trkpt lat="53.209356" lon="-2.038396"><ele>254</ele><time>2020-08-19T08:54:22Z</time><name>PT203</name></trkpt>
<trkpt lat="53.209363" lon="-2.038375"><ele>254</ele><time>2020-08-19T08:54:23Z</time><name>PT204</name></trkpt>
<trkpt lat="53.209370" lon="-2.038351"><ele>254</ele><time>2020-08-19T08:54:24Z</time><name>PT205</name></trkpt>
<trkpt lat="53.209377" lon="-2.038333"><ele>254</ele><time>2020-08-19T08:54:25Z</time><name>PT206</name></trkpt>
<trkpt lat="53.209381" lon="-2.038312"><ele>255</ele><time>2020-08-19T08:54:26Z</time><name>PT207</name></trkpt>
<trkpt lat="53.209392" lon="-2.038296"><ele>255</ele><time>2020-08-19T08:54:27Z</time><name>PT208</name></trkpt>
<trkpt lat="53.209398" lon="-2.038282"><ele>254</ele><time>2020-08-19T08:54:28Z</time><name>PT209</name></trkpt>
<trkpt lat="53.209403" lon="-2.038261"><ele>255</ele><time>2020-08-19T08:54:29Z</time><name>PT210</name></trkpt>
<trkpt lat="53.209404" lon="-2.038244"><ele>254</ele><time>2020-08-19T08:54:30Z</time><name>PT211</name></trkpt>
<trkpt lat="53.209411" lon="-2.038231"><ele>254</ele><time>2020-08-19T08:54:31Z</time><name>PT212</name></trkpt>
<trkpt lat="53.209416" lon="-2.038207"><ele>255</ele><time>2020-08-19T08:54:32Z</time><name>PT213</name></trkpt>
<trkpt lat="53.209419" lon="-2.038183"><ele>255</ele><time>2020-08-19T08:54:33Z</time><name>PT214</name></trkpt>
<trkpt lat="53.209425" lon="-2.038165"><ele>255</ele><time>2020-08-19T08:54:34Z</time><name>PT215</name></trkpt>
<trkpt lat="53.209431" lon="-2.038144"><ele>256</ele><time>2020-08-19T08:54:35Z</time><name>PT216</name></trkpt>
<trkpt lat="53.209436" lon="-2.038126"><ele>256</ele><time>2020-08-19T08:54:36Z</time><name>PT217</name></trkpt>
<trkpt lat="53.209444" lon="-2.038106"><ele>256</ele><time>2020-08-19T08:54:37Z</time><name>PT218</name></trkpt>
<trkpt lat="53.209449" lon="-2.038090"><ele>256</ele><time>2020-08-19T08:54:38Z</time><name>PT219</name></trkpt>
<trkpt lat="53.209449" lon="-2.038068"><ele>256</ele><time>2020-08-19T08:54:39Z</time><name>PT220</name></trkpt>
<trkpt lat="53.209454" lon="-2.038056"><ele>256</ele><time>2020-08-19T08:54:40Z</time><name>PT221</name></trkpt>
<trkpt lat="53.209457" lon="-2.038031"><ele>256</ele><time>2020-08-19T08:54:41Z</time><name>PT222</name></trkpt>
<trkpt lat="53.209459" lon="-2.038009"><ele>256</ele><time>2020-08-19T08:54:42Z</time><name>PT223</name></trkpt>
<trkpt lat="53.209464" lon="-2.037989"><ele>256</ele><time>2020-08-19T08:54:43Z</time><name>PT224</name></trkpt>
<trkpt lat="53.209466" lon="-2.037967"><ele>256</ele><time>2020-08-19T08:54:44Z</time><name>PT225</name></trkpt>
<trkpt lat="53.209470" lon="-2.037948"><ele>257</ele><time>2020-08-19T08:54:45Z</time><name>PT226</name></trkpt>
<trkpt lat="53.209474" lon="-2.037924"><ele>257</ele><time>2020-08-19T08:54:46Z</time><name>PT227</name></trkpt>
<trkpt lat="53.209478" lon="-2.037904"><ele>257</ele><time>2020-08-19T08:54:47Z</time><name>PT228</name></trkpt>
<trkpt lat="53.209479" lon="-2.037882"><ele>257</ele><time>2020-08-19T08:54:48Z</time><name>PT229</name></trkpt>
<trkpt lat="53.209482" lon="-2.037864"><ele>257</ele><time>2020-08-19T08:54:49Z</time><name>PT230</name></trkpt>
<trkpt lat="53.209486" lon="-2.037844"><ele>257</ele><time>2020-08-19T08:54:50Z</time><name>PT231</name></trkpt>
<trkpt lat="53.209488" lon="-2.037822"><ele>257</ele><time>2020-08-19T08:54:51Z</time><name>PT232</name></trkpt>
<trkpt lat="53.209492" lon="-2.037802"><ele>257</ele><time>2020-08-19T08:54:52Z</time><name>PT233</name></trkpt>
<trkpt lat="53.209497" lon="-2.037784"><ele>257</ele><time>2020-08-19T08:54:53Z</time><name>PT234</name></trkpt>
<trkpt lat="53.209500" lon="-2.037765"><ele>258</ele><time>2020-08-19T08:54:54Z</time><name>PT235</name></trkpt>
<trkpt lat="53.209505" lon="-2.037752"><ele>257</ele><time>2020-08-19T08:54:55Z</time><name>PT236</name></trkpt>
<trkpt lat="53.209507" lon="-2.037733"><ele>257</ele><time>2020-08-19T08:54:56Z</time><name>PT237</name></trkpt>
<trkpt lat="53.209508" lon="-2.037722"><ele>256</ele><time>2020-08-19T08:54:57Z</time><name>PT238</name></trkpt>
<trkpt lat="53.209510" lon="-2.037705"><ele>257</ele><time>2020-08-19T08:54:58Z</time><name>PT239</name></trkpt>
<trkpt lat="53.209514" lon="-2.037679"><ele>258</ele><time>2020-08-19T08:54:59Z</time><name>PT240</name></trkpt>
<trkpt lat="53.209517" lon="-2.037654"><ele>258</ele><time>2020-08-19T08:55:00Z</time><name>PT241</name></trkpt>
<trkpt lat="53.209521" lon="-2.037629"><ele>258</ele><time>2020-08-19T08:55:01Z</time><name>PT242</name></trkpt>
<trkpt lat="53.209524" lon="-2.037609"><ele>258</ele><time>2020-08-19T08:55:02Z</time><name>PT243</name></trkpt>
<trkpt lat="53.209527" lon="-2.037589"><ele>258</ele><time>2020-08-19T08:55:03Z</time><name>PT244</name></trkpt>
<trkpt lat="53.209528" lon="-2.037568"><ele>259</ele><time>2020-08-19T08:55:04Z</time><name>PT245</name></trkpt>
<trkpt lat="53.209533" lon="-2.037545"><ele>259</ele><time>2020-08-19T08:55:05Z</time><name>PT246</name></trkpt>
<trkpt lat="53.209537" lon="-2.037529"><ele>258</ele><time>2020-08-19T08:55:06Z</time><name>PT247</name></trkpt>
<trkpt lat="53.209545" lon="-2.037506"><ele>258</ele><time>2020-08-19T08:55:07Z</time><name>PT248</name></trkpt>
<trkpt lat="53.209552" lon="-2.037490"><ele>259</ele><time>2020-08-19T08:55:08Z</time><name>PT249</name></trkpt>
<trkpt lat="53.209551" lon="-2.037471"><ele>259</ele><time>2020-08-19T08:55:09Z</time><name>PT250</name></trkpt>
<trkpt lat="53.209551" lon="-2.037432"><ele>260</ele><time>2020-08-19T08:55:10Z</time><name>PT251</name></trkpt>
<trkpt lat="53.209554" lon="-2.037409"><ele>260</ele><time>2020-08-19T08:55:11Z</time><name>PT252</name></trkpt>
<trkpt lat="53.209560" lon="-2.037393"><ele>259</ele><time>2020-08-19T08:55:12Z</time><name>PT253</name></trkpt>
<trkpt lat="53.209565" lon="-2.037377"><ele>258</ele><time>2020-08-19T08:55:13Z</time><name>PT254</name></trkpt>
<trkpt lat="53.209586" lon="-2.037311"><ele>258</ele><time>2020-08-19T08:55:17Z</time><name>PT255</name></trkpt>
<trkpt lat="53.209604" lon="-2.037224"><ele>258</ele><time>2020-08-19T08:55:21Z</time><name>PT256</name></trkpt>
<trkpt lat="53.209621" lon="-2.037142"><ele>259</ele><time>2020-08-19T08:55:25Z</time><name>PT257</name></trkpt>
<trkpt lat="53.209639" lon="-2.037058"><ele>262</ele><time>2020-08-19T08:55:29Z</time><name>PT258</name></trkpt>
<trkpt lat="53.209650" lon="-2.037008"><ele>259</ele><time>2020-08-19T08:55:33Z</time><name>PT259</name></trkpt>
<trkpt lat="53.209663" lon="-2.036920"><ele>261</ele><time>2020-08-19T08:55:37Z</time><name>PT260</name></trkpt>
<trkpt lat="53.209673" lon="-2.036843"><ele>262</ele><time>2020-08-19T08:55:41Z</time><name>PT261</name></trkpt>
<trkpt lat="53.209686" lon="-2.036783"><ele>262</ele><time>2020-08-19T08:55:44Z</time><name>PT262</name></trkpt>
<trkpt lat="53.209697" lon="-2.036714"><ele>263</ele><time>2020-08-19T08:55:47Z</time><name>PT263</name></trkpt>
<trkpt lat="53.209714" lon="-2.036632"><ele>264</ele><time>2020-08-19T08:55:51Z</time><name>PT264</name></trkpt>
<trkpt lat="53.209733" lon="-2.036575"><ele>263</ele><time>2020-08-19T08:55:54Z</time><name>PT265</name></trkpt>
<trkpt lat="53.209741" lon="-2.036491"><ele>263</ele><time>2020-08-19T08:55:58Z</time><name>PT266</name></trkpt>
<trkpt lat="53.209756" lon="-2.036425"><ele>263</ele><time>2020-08-19T08:56:01Z</time><name>PT267</name></trkpt>
<trkpt lat="53.209763" lon="-2.036349"><ele>263</ele><time>2020-08-19T08:56:05Z</time><name>PT268</name></trkpt>
<trkpt lat="53.209766" lon="-2.036279"><ele>265</ele><time>2020-08-19T08:56:08Z</time><name>PT269</name></trkpt>
<trkpt lat="53.209772" lon="-2.036204"><ele>266</ele><time>2020-08-19T08:56:11Z</time><name>PT270</name></trkpt>
<trkpt lat="53.209773" lon="-2.036109"><ele>266</ele><time>2020-08-19T08:56:15Z</time><name>PT271</name></trkpt>
<trkpt lat="53.209780" lon="-2.036041"><ele>266</ele><time>2020-08-19T08:56:18Z</time><name>PT272</name></trkpt>
<trkpt lat="53.209780" lon="-2.035953"><ele>266</ele><time>2020-08-19T08:56:22Z</time><name>PT273</name></trkpt>
<trkpt lat="53.209785" lon="-2.035895"><ele>264</ele><time>2020-08-19T08:56:25Z</time><name>PT274</name></trkpt>
<trkpt lat="53.209792" lon="-2.035802"><ele>264</ele><time>2020-08-19T08:56:29Z</time><name>PT275</name></trkpt>
<trkpt lat="53.209805" lon="-2.035739"><ele>264</ele><time>2020-08-19T08:56:32Z</time><name>PT276</name></trkpt>
<trkpt lat="53.209822" lon="-2.035661"><ele>265</ele><time>2020-08-19T08:56:36Z</time><name>PT277</name></trkpt>
<trkpt lat="53.209836" lon="-2.035602"><ele>265</ele><time>2020-08-19T08:56:39Z</time><name>PT278</name></trkpt>
<trkpt lat="53.209844" lon="-2.035504"><ele>266</ele><time>2020-08-19T08:56:43Z</time><name>PT279</name></trkpt>
<trkpt lat="53.209846" lon="-2.035462"><ele>265</ele><time>2020-08-19T08:56:46Z</time><name>PT280</name></trkpt>
<trkpt lat="53.209851" lon="-2.035410"><ele>262</ele><time>2020-08-19T08:56:49Z</time><name>PT281</name></trkpt>
<trkpt lat="53.209859" lon="-2.035317"><ele>263</ele><time>2020-08-19T08:56:53Z</time><name>PT282</name></trkpt>
<trkpt lat="53.209868" lon="-2.035234"><ele>266</ele><time>2020-08-19T08:56:56Z</time><name>PT283</name></trkpt>
<trkpt lat="53.209874" lon="-2.035148"><ele>266</ele><time>2020-08-19T08:57:00Z</time><name>PT284</name></trkpt>
<trkpt lat="53.209889" lon="-2.035090"><ele>265</ele><time>2020-08-19T08:57:04Z</time><name>PT285</name></trkpt>
<trkpt lat="53.209898" lon="-2.035058"><ele>265</ele><time>2020-08-19T08:57:07Z</time><name>PT286</name></trkpt>
<trkpt lat="53.209899" lon="-2.035046"><ele>265</ele><time>2020-08-19T08:57:11Z</time><name>PT287</name></trkpt>
<trkpt lat="53.209915" lon="-2.035026"><ele>266</ele><time>2020-08-19T08:57:21Z</time><name>PT288</name></trkpt>
<trkpt lat="53.209920" lon="-2.034998"><ele>266</ele><time>2020-08-19T08:57:24Z</time><name>PT289</name></trkpt>
<trkpt lat="53.209924" lon="-2.034948"><ele>264</ele><time>2020-08-19T08:57:27Z</time><name>PT290</name></trkpt>
<trkpt lat="53.209940" lon="-2.034867"><ele>263</ele><time>2020-08-19T08:57:31Z</time><name>PT291</name></trkpt>
<trkpt lat="53.209950" lon="-2.034796"><ele>263</ele><time>2020-08-19T08:57:34Z</time><name>PT292</name></trkpt>
<trkpt lat="53.209973" lon="-2.034715"><ele>263</ele><time>2020-08-19T08:57:38Z</time><name>PT293</name></trkpt>
<trkpt lat="53.209983" lon="-2.034641"><ele>264</ele><time>2020-08-19T08:57:41Z</time><name>PT294</name></trkpt>
<trkpt lat="53.210003" lon="-2.034554"><ele>266</ele><time>2020-08-19T08:57:45Z</time><name>PT295</name></trkpt>
<trkpt lat="53.210021" lon="-2.034477"><ele>266</ele><time>2020-08-19T08:57:49Z</time><name>PT296</name></trkpt>
<trkpt lat="53.210040" lon="-2.034418"><ele>267</ele><time>2020-08-19T08:57:52Z</time><name>PT297</name></trkpt>
<trkpt lat="53.210066" lon="-2.034347"><ele>265</ele><time>2020-08-19T08:57:56Z</time><name>PT298</name></trkpt>
<trkpt lat="53.210082" lon="-2.034285"><ele>265</ele><time>2020-08-19T08:57:59Z</time><name>PT299</name></trkpt>
<trkpt lat="53.210105" lon="-2.034216"><ele>265</ele><time>2020-08-19T08:58:03Z</time><name>PT300</name></trkpt>
<trkpt lat="53.210133" lon="-2.034159"><ele>268</ele><time>2020-08-19T08:58:07Z</time><name>PT301</name></trkpt>
<trkpt lat="53.210155" lon="-2.034103"><ele>268</ele><time>2020-08-19T08:58:10Z</time><name>PT302</name></trkpt>
<trkpt lat="53.210174" lon="-2.034055"><ele>269</ele><time>2020-08-19T08:58:13Z</time><name>PT303</name></trkpt>
<trkpt lat="53.210205" lon="-2.033985"><ele>269</ele><time>2020-08-19T08:58:17Z</time><name>PT304</name></trkpt>
<trkpt lat="53.210232" lon="-2.033911"><ele>269</ele><time>2020-08-19T08:58:21Z</time><name>PT305</name></trkpt>
<trkpt lat="53.210259" lon="-2.033840"><ele>269</ele><time>2020-08-19T08:58:25Z</time><name>PT306</name></trkpt>
<trkpt lat="53.210284" lon="-2.033801"><ele>269</ele><time>2020-08-19T08:58:28Z</time><name>PT307</name></trkpt>
<trkpt lat="53.210305" lon="-2.033745"><ele>270</ele><time>2020-08-19T08:58:31Z</time><name>PT308</name></trkpt>
<trkpt lat="53.210333" lon="-2.033700"><ele>269</ele><time>2020-08-19T08:58:34Z</time><name>PT309</name></trkpt>
<trkpt lat="53.210364" lon="-2.033635"><ele>270</ele><time>2020-08-19T08:58:38Z</time><name>PT310</name></trkpt>
<trkpt lat="53.210399" lon="-2.033579"><ele>269</ele><time>2020-08-19T08:58:42Z</time><name>PT311</name></trkpt>
<trkpt lat="53.210422" lon="-2.033529"><ele>269</ele><time>2020-08-19T08:58:45Z</time><name>PT312</name></trkpt>
<trkpt lat="53.210460" lon="-2.033466"><ele>269</ele><time>2020-08-19T08:58:49Z</time><name>PT313</name></trkpt>
<trkpt lat="53.210488" lon="-2.033426"><ele>268</ele><time>2020-08-19T08:58:52Z</time><name>PT314</name></trkpt>
<trkpt lat="53.210511" lon="-2.033380"><ele>267</ele><time>2020-08-19T08:58:55Z</time><name>PT315</name></trkpt>
<trkpt lat="53.210552" lon="-2.033325"><ele>267</ele><time>2020-08-19T08:58:59Z</time><name>PT316</name></trkpt>
<trkpt lat="53.210595" lon="-2.033250"><ele>271</ele><time>2020-08-19T08:59:02Z</time><name>PT317</name></trkpt>
<trkpt lat="53.210607" lon="-2.033243"><ele>271</ele><time>2020-08-19T08:59:03Z</time><name>PT318</name></trkpt>
<trkpt lat="53.210615" lon="-2.033233"><ele>273</ele><time>2020-08-19T08:59:04Z</time><name>PT319</name></trkpt>
<trkpt lat="53.210623" lon="-2.033229"><ele>273</ele><time>2020-08-19T08:59:05Z</time><name>PT320</name></trkpt>
<trkpt lat="53.210632" lon="-2.033227"><ele>273</ele><time>2020-08-19T08:59:06Z</time><name>PT321</name></trkpt>
<trkpt lat="53.210645" lon="-2.033226"><ele>273</ele><time>2020-08-19T08:59:07Z</time><name>PT322</name></trkpt>
<trkpt lat="53.210654" lon="-2.033215"><ele>274</ele><time>2020-08-19T08:59:08Z</time><name>PT323</name></trkpt>
<trkpt lat="53.210663" lon="-2.033206"><ele>274</ele><time>2020-08-19T08:59:09Z</time><name>PT324</name></trkpt>
<trkpt lat="53.210674" lon="-2.033200"><ele>274</ele><time>2020-08-19T08:59:10Z</time><name>PT325</name></trkpt>
<trkpt lat="53.210690" lon="-2.033198"><ele>275</ele><time>2020-08-19T08:59:11Z</time><name>PT326</name></trkpt>
<trkpt lat="53.210700" lon="-2.033201"><ele>275</ele><time>2020-08-19T08:59:12Z</time><name>PT327</name></trkpt>
<trkpt lat="53.210710" lon="-2.033192"><ele>275</ele><time>2020-08-19T08:59:13Z</time><name>PT328</name></trkpt>
<trkpt lat="53.210721" lon="-2.033195"><ele>275</ele><time>2020-08-19T08:59:14Z</time><name>PT329</name></trkpt>
<trkpt lat="53.210732" lon="-2.033194"><ele>275</ele><time>2020-08-19T08:59:15Z</time><name>PT330</name></trkpt>
<trkpt lat="53.210744" lon="-2.033194"><ele>275</ele><time>2020-08-19T08:59:16Z</time><name>PT331</name></trkpt>
<trkpt lat="53.210754" lon="-2.033202"><ele>275</ele><time>2020-08-19T08:59:17Z</time><name>PT332</name></trkpt>
<trkpt lat="53.210765" lon="-2.033208"><ele>275</ele><time>2020-08-19T08:59:18Z</time><name>PT333</name></trkpt>
<trkpt lat="53.210776" lon="-2.033213"><ele>276</ele><time>2020-08-19T08:59:19Z</time><name>PT334</name></trkpt>
<trkpt lat="53.210784" lon="-2.033221"><ele>276</ele><time>2020-08-19T08:59:20Z</time><name>PT335</name></trkpt>
<trkpt lat="53.210791" lon="-2.033221"><ele>276</ele><time>2020-08-19T08:59:21Z</time><name>PT336</name></trkpt>
<trkpt lat="53.210800" lon="-2.033231"><ele>276</ele><time>2020-08-19T08:59:22Z</time><name>PT337</name></trkpt>
<trkpt lat="53.210810" lon="-2.033236"><ele>276</ele><time>2020-08-19T08:59:23Z</time><name>PT338</name></trkpt>
<trkpt lat="53.210820" lon="-2.033247"><ele>276</ele><time>2020-08-19T08:59:24Z</time><name>PT339</name></trkpt>
<trkpt lat="53.210827" lon="-2.033249"><ele>277</ele><time>2020-08-19T08:59:25Z</time><name>PT340</name></trkpt>
<trkpt lat="53.210834" lon="-2.033256"><ele>278</ele><time>2020-08-19T08:59:26Z</time><name>PT341</name></trkpt>
<trkpt lat="53.210844" lon="-2.033266"><ele>276</ele><time>2020-08-19T08:59:27Z</time><name>PT342</name></trkpt>
<trkpt lat="53.210858" lon="-2.033276"><ele>277</ele><time>2020-08-19T08:59:28Z</time><name>PT343</name></trkpt>
<trkpt lat="53.210868" lon="-2.033289"><ele>277</ele><time>2020-08-19T08:59:29Z</time><name>PT344</name></trkpt>
<trkpt lat="53.210879" lon="-2.033303"><ele>277</ele><time>2020-08-19T08:59:30Z</time><name>PT345</name></trkpt>
<trkpt lat="53.210889" lon="-2.033318"><ele>277</ele><time>2020-08-19T08:59:31Z</time><name>PT346</name></trkpt>
<trkpt lat="53.210898" lon="-2.033329"><ele>278</ele><time>2020-08-19T08:59:32Z</time><name>PT347</name></trkpt>
<trkpt lat="53.210904" lon="-2.033327"><ele>279</ele><time>2020-08-19T08:59:33Z</time><name>PT348</name></trkpt>
<trkpt lat="53.210912" lon="-2.033330"><ele>279</ele><time>2020-08-19T08:59:34Z</time><name>PT349</name></trkpt>
<trkpt lat="53.210925" lon="-2.033341"><ele>278</ele><time>2020-08-19T08:59:35Z</time><name>PT350</name></trkpt>
<trkpt lat="53.210934" lon="-2.033350"><ele>278</ele><time>2020-08-19T08:59:36Z</time><name>PT351</name></trkpt>
<trkpt lat="53.210943" lon="-2.033358"><ele>279</ele><time>2020-08-19T08:59:37Z</time><name>PT352</name></trkpt>
<trkpt lat="53.210952" lon="-2.033370"><ele>279</ele><time>2020-08-19T08:59:38Z</time><name>PT353</name></trkpt>
<trkpt lat="53.210960" lon="-2.033386"><ele>279</ele><time>2020-08-19T08:59:39Z</time><name>PT354</name></trkpt>
<trkpt lat="53.210968" lon="-2.033402"><ele>279</ele><time>2020-08-19T08:59:40Z</time><name>PT355</name></trkpt>
<trkpt lat="53.210974" lon="-2.033411"><ele>279</ele><time>2020-08-19T08:59:41Z</time><name>PT356</name></trkpt>
<trkpt lat="53.210984" lon="-2.033424"><ele>279</ele><time>2020-08-19T08:59:42Z</time><name>PT357</name></trkpt>
<trkpt lat="53.210991" lon="-2.033433"><ele>278</ele><time>2020-08-19T08:59:43Z</time><name>PT358</name></trkpt>
<trkpt lat="53.210998" lon="-2.033443"><ele>279</ele><time>2020-08-19T08:59:44Z</time><name>PT359</name></trkpt>
<trkpt lat="53.211006" lon="-2.033449"><ele>279</ele><time>2020-08-19T08:59:45Z</time><name>PT360</name></trkpt>
<trkpt lat="53.211012" lon="-2.033459"><ele>279</ele><time>2020-08-19T08:59:46Z</time><name>PT361</name></trkpt>
<trkpt lat="53.211021" lon="-2.033466"><ele>279</ele><time>2020-08-19T08:59:47Z</time><name>PT362</name></trkpt>
<trkpt lat="53.211030" lon="-2.033473"><ele>279</ele><time>2020-08-19T08:59:48Z</time><name>PT363</name></trkpt>
<trkpt lat="53.211038" lon="-2.033481"><ele>280</ele><time>2020-08-19T08:59:49Z</time><name>PT364</name></trkpt>
<trkpt lat="53.211048" lon="-2.033494"><ele>281</ele><time>2020-08-19T08:59:50Z</time><name>PT365</name></trkpt>
<trkpt lat="53.211056" lon="-2.033504"><ele>281</ele><time>2020-08-19T08:59:51Z</time><name>PT366</name></trkpt>
<trkpt lat="53.211066" lon="-2.033514"><ele>281</ele><time>2020-08-19T08:59:52Z</time><name>PT367</name></trkpt>
<trkpt lat="53.211081" lon="-2.033517"><ele>283</ele><time>2020-08-19T08:59:53Z</time><name>PT368</name></trkpt>
<trkpt lat="53.211091" lon="-2.033529"><ele>283</ele><time>2020-08-19T08:59:54Z</time><name>PT369</name></trkpt>
<trkpt lat="53.211104" lon="-2.033533"><ele>285</ele><time>2020-08-19T08:59:55Z</time><name>PT370</name></trkpt>
<trkpt lat="53.211115" lon="-2.033537"><ele>285</ele><time>2020-08-19T08:59:56Z</time><name>PT371</name></trkpt>
<trkpt lat="53.211125" lon="-2.033540"><ele>286</ele><time>2020-08-19T08:59:57Z</time><name>PT372</name></trkpt>
<trkpt lat="53.211132" lon="-2.033550"><ele>286</ele><time>2020-08-19T08:59:58Z</time><name>PT373</name></trkpt>
<trkpt lat="53.211143" lon="-2.033561"><ele>286</ele><time>2020-08-19T08:59:59Z</time><name>PT374</name></trkpt>
<trkpt lat="53.211154" lon="-2.033573"><ele>286</ele><time>2020-08-19T09:00:00Z</time><name>PT375</name></trkpt>
<trkpt lat="53.211165" lon="-2.033587"><ele>287</ele><time>2020-08-19T09:00:01Z</time><name>PT376</name></trkpt>
<trkpt lat="53.211177" lon="-2.033598"><ele>287</ele><time>2020-08-19T09:00:02Z</time><name>PT377</name></trkpt>
<trkpt lat="53.211185" lon="-2.033602"><ele>289</ele><time>2020-08-19T09:00:03Z</time><name>PT378</name></trkpt>
<trkpt lat="53.211194" lon="-2.033614"><ele>289</ele><time>2020-08-19T09:00:04Z</time><name>PT379</name></trkpt>
<trkpt lat="53.211201" lon="-2.033624"><ele>290</ele><time>2020-08-19T09:00:05Z</time><name>PT380</name></trkpt>
<trkpt lat="53.211210" lon="-2.033634"><ele>290</ele><time>2020-08-19T09:00:06Z</time><name>PT381</name></trkpt>
<trkpt lat="53.211220" lon="-2.033642"><ele>290</ele><time>2020-08-19T09:00:07Z</time><name>PT382</name></trkpt>
<trkpt lat="53.211229" lon="-2.033654"><ele>291</ele><time>2020-08-19T09:00:08Z</time><name>PT383</name></trkpt>
<trkpt lat="53.211236" lon="-2.033664"><ele>291</ele><time>2020-08-19T09:00:09Z</time><name>PT384</name></trkpt>
<trkpt lat="53.211246" lon="-2.033676"><ele>292</ele><time>2020-08-19T09:00:10Z</time><name>PT385</name></trkpt>
<trkpt lat="53.211254" lon="-2.033687"><ele>292</ele><time>2020-08-19T09:00:11Z</time><name>PT386</name></trkpt>
<trkpt lat="53.211261" lon="-2.033699"><ele>291</ele><time>2020-08-19T09:00:12Z</time><name>PT387</name></trkpt>
<trkpt lat="53.211264" lon="-2.033703"><ele>292</ele><time>2020-08-19T09:00:13Z</time><name>PT388</name></trkpt>
<trkpt lat="53.211264" lon="-2.033700"><ele>292</ele><time>2020-08-19T09:00:14Z</time><name>PT389</name></trkpt>
<trkpt lat="53.211265" lon="-2.033695"><ele>292</ele><time>2020-08-19T09:00:15Z</time><name>PT390</name></trkpt>
<trkpt lat="53.211265" lon="-2.033697"><ele>292</ele><time>2020-08-19T09:00:16Z</time><name>PT391</name></trkpt>
<trkpt lat="53.211264" lon="-2.033696"><ele>292</ele><time>2020-08-19T09:00:17Z</time><name>PT392</name></trkpt>
<trkpt lat="53.211265" lon="-2.033694"><ele>292</ele><time>2020-08-19T09:00:18Z</time><name>PT393</name></trkpt>
<trkpt lat="53.211266" lon="-2.033692"><ele>292</ele><time>2020-08-19T09:00:21Z</time><name>PT394</name></trkpt>
<trkpt lat="53.211270" lon="-2.033682"><ele>293</ele><time>2020-08-19T09:00:22Z</time><name>PT395</name></trkpt>
<trkpt lat="53.211274" lon="-2.033676"><ele>293</ele><time>2020-08-19T09:00:23Z</time><name>PT396</name></trkpt>
<trkpt lat="53.211277" lon="-2.033678"><ele>292</ele><time>2020-08-19T09:00:24Z</time><name>PT397</name></trkpt>
<trkpt lat="53.211279" lon="-2.033676"><ele>291</ele><time>2020-08-19T09:00:25Z</time><name>PT398</name></trkpt>
<trkpt lat="53.211281" lon="-2.033673"><ele>291</ele><time>2020-08-19T09:00:26Z</time><name>PT399</name></trkpt>
<trkpt lat="53.211285" lon="-2.033667"><ele>291</ele><time>2020-08-19T09:00:27Z</time><name>PT400</name></trkpt>
<trkpt lat="53.211288" lon="-2.033666"><ele>291</ele><time>2020-08-19T09:00:28Z</time><name>PT401</name></trkpt>
<trkpt lat="53.211296" lon="-2.033661"><ele>291</ele><time>2020-08-19T09:00:30Z</time><name>PT402</name></trkpt>
<trkpt lat="53.211300" lon="-2.033640"><ele>291</ele><time>2020-08-19T09:00:31Z</time><name>PT403</name></trkpt>
<trkpt lat="53.211320" lon="-2.033622"><ele>290</ele><time>2020-08-19T09:00:32Z</time><name>PT404</name></trkpt>
<trkpt lat="53.211327" lon="-2.033603"><ele>290</ele><time>2020-08-19T09:00:33Z</time><name>PT405</name></trkpt>
<trkpt lat="53.211334" lon="-2.033582"><ele>290</ele><time>2020-08-19T09:00:34Z</time><name>PT406</name></trkpt>
<trkpt lat="53.211335" lon="-2.033557"><ele>288</ele><time>2020-08-19T09:00:35Z</time><name>PT407</name></trkpt>
<trkpt lat="53.211341" lon="-2.033540"><ele>288</ele><time>2020-08-19T09:00:36Z</time><name>PT408</name></trkpt>
<trkpt lat="53.211348" lon="-2.033523"><ele>288</ele><time>2020-08-19T09:00:37Z</time><name>PT409</name></trkpt>
<trkpt lat="53.211354" lon="-2.033507"><ele>288</ele><time>2020-08-19T09:00:38Z</time><name>PT410</name></trkpt>
<trkpt lat="53.211359" lon="-2.033497"><ele>288</ele><time>2020-08-19T09:00:39Z</time><name>PT411</name></trkpt>
<trkpt lat="53.211365" lon="-2.033486"><ele>288</ele><time>2020-08-19T09:00:40Z</time><name>PT412</name></trkpt>
<trkpt lat="53.211373" lon="-2.033473"><ele>288</ele><time>2020-08-19T09:00:41Z</time><name>PT413</name></trkpt>
<trkpt lat="53.211383" lon="-2.033462"><ele>288</ele><time>2020-08-19T09:00:42Z</time><name>PT414</name></trkpt>
<trkpt lat="53.211385" lon="-2.033445"><ele>287</ele><time>2020-08-19T09:00:43Z</time><name>PT415</name></trkpt>
<trkpt lat="53.211393" lon="-2.033430"><ele>288</ele><time>2020-08-19T09:00:44Z</time><name>PT416</name></trkpt>
<trkpt lat="53.211397" lon="-2.033417"><ele>288</ele><time>2020-08-19T09:00:45Z</time><name>PT417</name></trkpt>
<trkpt lat="53.211399" lon="-2.033401"><ele>288</ele><time>2020-08-19T09:00:46Z</time><name>PT418</name></trkpt>
<trkpt lat="53.211404" lon="-2.033380"><ele>288</ele><time>2020-08-19T09:00:47Z</time><name>PT419</name></trkpt>
<trkpt lat="53.211404" lon="-2.033363"><ele>288</ele><time>2020-08-19T09:00:48Z</time><name>PT420</name></trkpt>
<trkpt lat="53.211409" lon="-2.033345"><ele>288</ele><time>2020-08-19T09:00:49Z</time><name>PT421</name></trkpt>
<trkpt lat="53.211414" lon="-2.033328"><ele>289</ele><time>2020-08-19T09:00:50Z</time><name>PT422</name></trkpt>
<trkpt lat="53.211420" lon="-2.033313"><ele>288</ele><time>2020-08-19T09:00:51Z</time><name>PT423</name></trkpt>
<trkpt lat="53.211423" lon="-2.033300"><ele>287</ele><time>2020-08-19T09:00:52Z</time><name>PT424</name></trkpt>
<trkpt lat="53.211429" lon="-2.033284"><ele>287</ele><time>2020-08-19T09:00:53Z</time><name>PT425</name></trkpt>
<trkpt lat="53.211436" lon="-2.033265"><ele>288</ele><time>2020-08-19T09:00:54Z</time><name>PT426</name></trkpt>
<trkpt lat="53.211441" lon="-2.033247"><ele>288</ele><time>2020-08-19T09:00:55Z</time><name>PT427</name></trkpt>
<trkpt lat="53.211447" lon="-2.033228"><ele>288</ele><time>2020-08-19T09:00:56Z</time><name>PT428</name></trkpt>
<trkpt lat="53.211450" lon="-2.033209"><ele>288</ele><time>2020-08-19T09:00:57Z</time><name>PT429</name></trkpt>
<trkpt lat="53.211457" lon="-2.033191"><ele>288</ele><time>2020-08-19T09:00:58Z</time><name>PT430</name></trkpt>
<trkpt lat="53.211466" lon="-2.033173"><ele>288</ele><time>2020-08-19T09:00:59Z</time><name>PT431</name></trkpt>
<trkpt lat="53.211473" lon="-2.033155"><ele>289</ele><time>2020-08-19T09:01:00Z</time><name>PT432</name></trkpt>
<trkpt lat="53.211479" lon="-2.033137"><ele>289</ele><time>2020-08-19T09:01:01Z</time><name>PT433</name></trkpt>
<trkpt lat="53.211485" lon="-2.033117"><ele>289</ele><time>2020-08-19T09:01:02Z</time><name>PT434</name></trkpt>
<trkpt lat="53.211487" lon="-2.033102"><ele>288</ele><time>2020-08-19T09:01:03Z</time><name>PT435</name></trkpt>
<trkpt lat="53.211492" lon="-2.033083"><ele>288</ele><time>2020-08-19T09:01:04Z</time><name>PT436</name></trkpt>
<trkpt lat="53.211497" lon="-2.033065"><ele>288</ele><time>2020-08-19T09:01:05Z</time><name>PT437</name></trkpt>
<trkpt lat="53.211504" lon="-2.033052"><ele>289</ele><time>2020-08-19T09:01:06Z</time><name>PT438</name></trkpt>
<trkpt lat="53.211512" lon="-2.033034"><ele>289</ele><time>2020-08-19T09:01:07Z</time><name>PT439</name></trkpt>
<trkpt lat="53.211520" lon="-2.033015"><ele>289</ele><time>2020-08-19T09:01:08Z</time><name>PT440</name></trkpt>
<trkpt lat="53.211525" lon="-2.032996"><ele>289</ele><time>2020-08-19T09:01:09Z</time><name>PT441</name></trkpt>
<trkpt lat="53.211532" lon="-2.032979"><ele>289</ele><time>2020-08-19T09:01:10Z</time><name>PT442</name></trkpt>
<trkpt lat="53.211537" lon="-2.032961"><ele>289</ele><time>2020-08-19T09:01:11Z</time><name>PT443</name></trkpt>
<trkpt lat="53.211542" lon="-2.032944"><ele>290</ele><time>2020-08-19T09:01:12Z</time><name>PT444</name></trkpt>
<trkpt lat="53.211548" lon="-2.032930"><ele>289</ele><time>2020-08-19T09:01:13Z</time><name>PT445</name></trkpt>
<trkpt lat="53.211556" lon="-2.032911"><ele>290</ele><time>2020-08-19T09:01:14Z</time><name>PT446</name></trkpt>
<trkpt lat="53.211562" lon="-2.032895"><ele>289</ele><time>2020-08-19T09:01:15Z</time><name>PT447</name></trkpt>
<trkpt lat="53.211568" lon="-2.032877"><ele>290</ele><time>2020-08-19T09:01:16Z</time><name>PT448</name></trkpt>
<trkpt lat="53.211574" lon="-2.032858"><ele>289</ele><time>2020-08-19T09:01:17Z</time><name>PT449</name></trkpt>
<trkpt lat="53.211579" lon="-2.032842"><ele>289</ele><time>2020-08-19T09:01:18Z</time><name>PT450</name></trkpt>
<trkpt lat="53.211587" lon="-2.032825"><ele>289</ele><time>2020-08-19T09:01:19Z</time><name>PT451</name></trkpt>
<trkpt lat="53.211593" lon="-2.032804"><ele>289</ele><time>2020-08-19T09:01:20Z</time><name>PT452</name></trkpt>
<trkpt lat="53.211601" lon="-2.032786"><ele>290</ele><time>2020-08-19T09:01:21Z</time><name>PT453</name></trkpt>
<trkpt lat="53.211608" lon="-2.032770"><ele>290</ele><time>2020-08-19T09:01:22Z</time><name>PT454</name></trkpt>
<trkpt lat="53.211614" lon="-2.032752"><ele>290</ele><time>2020-08-19T09:01:23Z</time><name>PT455</name></trkpt>
<trkpt lat="53.211621" lon="-2.032731"><ele>290</ele><time>2020-08-19T09:01:24Z</time><name>PT456</name></trkpt>
<trkpt lat="53.211624" lon="-2.032715"><ele>289</ele><time>2020-08-19T09:01:25Z</time><name>PT457</name></trkpt>
<trkpt lat="53.211632" lon="-2.032699"><ele>289</ele><time>2020-08-19T09:01:26Z</time><name>PT458</name></trkpt>
<trkpt lat="53.211640" lon="-2.032684"><ele>290</ele><time>2020-08-19T09:01:27Z</time><name>PT459</name></trkpt>
<trkpt lat="53.211646" lon="-2.032664"><ele>290</ele><time>2020-08-19T09:01:28Z</time><name>PT460</name></trkpt>
<trkpt lat="53.211651" lon="-2.032646"><ele>290</ele><time>2020-08-19T09:01:29Z</time><name>PT461</name></trkpt>
<trkpt lat="53.211656" lon="-2.032629"><ele>290</ele><time>2020-08-19T09:01:30Z</time><name>PT462</name></trkpt>
<trkpt lat="53.211660" lon="-2.032610"><ele>290</ele><time>2020-08-19T09:01:31Z</time><name>PT463</name></trkpt>
<trkpt lat="53.211667" lon="-2.032593"><ele>289</ele><time>2020-08-19T09:01:32Z</time><name>PT464</name></trkpt>
<trkpt lat="53.211673" lon="-2.032575"><ele>289</ele><time>2020-08-19T09:01:33Z</time><name>PT465</name></trkpt>
<trkpt lat="53.211679" lon="-2.032557"><ele>290</ele><time>2020-08-19T09:01:34Z</time><name>PT466</name></trkpt>
<trkpt lat="53.211686" lon="-2.032539"><ele>290</ele><time>2020-08-19T09:01:35Z</time><name>PT467</name></trkpt>
<trkpt lat="53.211695" lon="-2.032521"><ele>290</ele><time>2020-08-19T09:01:36Z</time><name>PT468</name></trkpt>
<trkpt lat="53.211701" lon="-2.032502"><ele>290</ele><time>2020-08-19T09:01:37Z</time><name>PT469</name></trkpt>
<trkpt lat="53.211706" lon="-2.032485"><ele>290</ele><time>2020-08-19T09:01:38Z</time><name>PT470</name></trkpt>
<trkpt lat="53.211710" lon="-2.032469"><ele>290</ele><time>2020-08-19T09:01:39Z</time><name>PT471</name></trkpt>
<trkpt lat="53.211714" lon="-2.032452"><ele>289</ele><time>2020-08-19T09:01:40Z</time><name>PT472</name></trkpt>
<trkpt lat="53.211719" lon="-2.032437"><ele>289</ele><time>2020-08-19T09:01:41Z</time><name>PT473</name></trkpt>
<trkpt lat="53.211726" lon="-2.032422"><ele>289</ele><time>2020-08-19T09:01:42Z</time><name>PT474</name></trkpt>
<trkpt lat="53.211732" lon="-2.032405"><ele>288</ele><time>2020-08-19T09:01:43Z</time><name>PT475</name></trkpt>
<trkpt lat="53.211741" lon="-2.032389"><ele>288</ele><time>2020-08-19T09:01:44Z</time><name>PT476</name></trkpt>
<trkpt lat="53.211748" lon="-2.032373"><ele>287</ele><time>2020-08-19T09:01:45Z</time><name>PT477</name></trkpt>
<trkpt lat="53.211754" lon="-2.032358"><ele>287</ele><time>2020-08-19T09:01:46Z</time><name>PT478</name></trkpt>
<trkpt lat="53.211763" lon="-2.032341"><ele>288</ele><time>2020-08-19T09:01:47Z</time><name>PT479</name></trkpt>
<trkpt lat="53.211772" lon="-2.032324"><ele>288</ele><time>2020-08-19T09:01:48Z</time><name>PT480</name></trkpt>
<trkpt lat="53.211780" lon="-2.032306"><ele>288</ele><time>2020-08-19T09:01:49Z</time><name>PT481</name></trkpt>
<trkpt lat="53.211786" lon="-2.032290"><ele>287</ele><time>2020-08-19T09:01:50Z</time><name>PT482</name></trkpt>
<trkpt lat="53.211792" lon="-2.032270"><ele>288</ele><time>2020-08-19T09:01:51Z</time><name>PT483</name></trkpt>
<trkpt lat="53.211800" lon="-2.032253"><ele>288</ele><time>2020-08-19T09:01:52Z</time><name>PT484</name></trkpt>
<trkpt lat="53.211808" lon="-2.032239"><ele>288</ele><time>2020-08-19T09:01:53Z</time><name>PT485</name></trkpt>
<trkpt lat="53.211816" lon="-2.032218"><ele>288</ele><time>2020-08-19T09:01:54Z</time><name>PT486</name></trkpt>
<trkpt lat="53.211821" lon="-2.032199"><ele>288</ele><time>2020-08-19T09:01:55Z</time><name>PT487</name></trkpt>
<trkpt lat="53.211826" lon="-2.032178"><ele>289</ele><time>2020-08-19T09:01:56Z</time><name>PT488</name></trkpt>
<trkpt lat="53.211835" lon="-2.032160"><ele>289</ele><time>2020-08-19T09:01:57Z</time><name>PT489</name></trkpt>
<trkpt lat="53.211842" lon="-2.032147"><ele>289</ele><time>2020-08-19T09:01:58Z</time><name>PT490</name></trkpt>
<trkpt lat="53.211850" lon="-2.032132"><ele>289</ele><time>2020-08-19T09:01:59Z</time><name>PT491</name></trkpt>
<trkpt lat="53.211857" lon="-2.032115"><ele>289</ele><time>2020-08-19T09:02:00Z</time><name>PT492</name></trkpt>
<trkpt lat="53.211863" lon="-2.032098"><ele>289</ele><time>2020-08-19T09:02:01Z</time><name>PT493</name></trkpt>
<trkpt lat="53.211889" lon="-2.032049"><ele>290</ele><time>2020-08-19T09:02:04Z</time><name>PT494</name></trkpt>
<trkpt lat="53.211921" lon="-2.031977"><ele>291</ele><time>2020-08-19T09:02:08Z</time><name>PT495</name></trkpt>
<trkpt lat="53.211944" lon="-2.031913"><ele>290</ele><time>2020-08-19T09:02:12Z</time><name>PT496</name></trkpt>
<trkpt lat="53.211975" lon="-2.031847"><ele>290</ele><time>2020-08-19T09:02:16Z</time><name>PT497</name></trkpt>
<trkpt lat="53.211999" lon="-2.031799"><ele>290</ele><time>2020-08-19T09:02:19Z</time><name>PT498</name></trkpt>
<trkpt lat="53.212029" lon="-2.031734"><ele>291</ele><time>2020-08-19T09:02:23Z</time><name>PT499</name></trkpt>
<trkpt lat="53.212064" lon="-2.031656"><ele>292</ele><time>2020-08-19T09:02:27Z</time><name>PT500</name></trkpt>
<trkpt lat="53.212093" lon="-2.031605"><ele>292</ele><time>2020-08-19T09:02:30Z</time><name>PT501</name></trkpt>
<trkpt lat="53.212123" lon="-2.031534"><ele>292</ele><time>2020-08-19T09:02:34Z</time><name>PT502</name></trkpt>
<trkpt lat="53.212146" lon="-2.031487"><ele>291</ele><time>2020-08-19T09:02:37Z</time><name>PT503</name></trkpt>
<trkpt lat="53.212172" lon="-2.031433"><ele>291</ele><time>2020-08-19T09:02:40Z</time><name>PT504</name></trkpt>
<trkpt lat="53.212199" lon="-2.031367"><ele>292</ele><time>2020-08-19T09:02:44Z</time><name>PT505</name></trkpt>
<trkpt lat="53.212223" lon="-2.031300"><ele>291</ele><time>2020-08-19T09:02:48Z</time><name>PT506</name></trkpt>
<trkpt lat="53.212245" lon="-2.031256"><ele>291</ele><time>2020-08-19T09:02:51Z</time><name>PT507</name></trkpt>
<trkpt lat="53.212272" lon="-2.031189"><ele>292</ele><time>2020-08-19T09:02:55Z</time><name>PT508</name></trkpt>
<trkpt lat="53.212295" lon="-2.031122"><ele>291</ele><time>2020-08-19T09:02:59Z</time><name>PT509</name></trkpt>
<trkpt lat="53.212327" lon="-2.031055"><ele>291</ele><time>2020-08-19T09:03:03Z</time><name>PT510</name></trkpt>
<trkpt lat="53.212349" lon="-2.031005"><ele>291</ele><time>2020-08-19T09:03:06Z</time><name>PT511</name></trkpt>
<trkpt lat="53.212376" lon="-2.030947"><ele>289</ele><time>2020-08-19T09:03:10Z</time><name>PT512</name></trkpt>
<trkpt lat="53.212407" lon="-2.030903"><ele>291</ele><time>2020-08-19T09:03:13Z</time><name>PT513</name></trkpt>
<trkpt lat="53.212423" lon="-2.030880"><ele>290</ele><time>2020-08-19T09:03:16Z</time><name>PT514</name></trkpt>
<trkpt lat="53.212431" lon="-2.030868"><ele>289</ele><time>2020-08-19T09:03:19Z</time><name>PT515</name></trkpt>
<trkpt lat="53.212461" lon="-2.030819"><ele>289</ele><time>2020-08-19T09:03:23Z</time><name>PT516</name></trkpt>
<trkpt lat="53.212490" lon="-2.030762"><ele>288</ele><time>2020-08-19T09:03:27Z</time><name>PT517</name></trkpt>
<trkpt lat="53.212517" lon="-2.030727"><ele>289</ele><time>2020-08-19T09:03:30Z</time><name>PT518</name></trkpt>
<trkpt lat="53.212552" lon="-2.030684"><ele>291</ele><time>2020-08-19T09:03:33Z</time><name>PT519</name></trkpt>
<trkpt lat="53.212565" lon="-2.030666"><ele>292</ele><time>2020-08-19T09:03:34Z</time><name>PT520</name></trkpt>
<trkpt lat="53.212571" lon="-2.030648"><ele>292</ele><time>2020-08-19T09:03:35Z</time><name>PT521</name></trkpt>
<trkpt lat="53.212578" lon="-2.030632"><ele>291</ele><time>2020-08-19T09:03:36Z</time><name>PT522</name></trkpt>
<trkpt lat="53.212580" lon="-2.030615"><ele>291</ele><time>2020-08-19T09:03:37Z</time><name>PT523</name></trkpt>
<trkpt lat="53.212585" lon="-2.030600"><ele>291</ele><time>2020-08-19T09:03:38Z</time><name>PT524</name></trkpt>
<trkpt lat="53.212590" lon="-2.030587"><ele>291</ele><time>2020-08-19T09:03:39Z</time><name>PT525</name></trkpt>
<trkpt lat="53.212597" lon="-2.030571"><ele>290</ele><time>2020-08-19T09:03:40Z</time><name>PT526</name></trkpt>
<trkpt lat="53.212605" lon="-2.030556"><ele>290</ele><time>2020-08-19T09:03:41Z</time><name>PT527</name></trkpt>
<trkpt lat="53.212614" lon="-2.030542"><ele>290</ele><time>2020-08-19T09:03:42Z</time><name>PT528</name></trkpt>
<trkpt lat="53.212620" lon="-2.030530"><ele>290</ele><time>2020-08-19T09:03:43Z</time><name>PT529</name></trkpt>
<trkpt lat="53.212621" lon="-2.030518"><ele>290</ele><time>2020-08-19T09:03:44Z</time><name>PT530</name></trkpt>
<trkpt lat="53.212617" lon="-2.030508"><ele>290</ele><time>2020-08-19T09:03:45Z</time><name>PT531</name></trkpt>
<trkpt lat="53.212612" lon="-2.030497"><ele>290</ele><time>2020-08-19T09:03:46Z</time><name>PT532</name></trkpt>
<trkpt lat="53.212606" lon="-2.030491"><ele>290</ele><time>2020-08-19T09:03:47Z</time><name>PT533</name></trkpt>
<trkpt lat="53.212599" lon="-2.030479"><ele>290</ele><time>2020-08-19T09:03:48Z</time><name>PT534</name></trkpt>
<trkpt lat="53.212589" lon="-2.030475"><ele>290</ele><time>2020-08-19T09:03:49Z</time><name>PT535</name></trkpt>
<trkpt lat="53.212578" lon="-2.030471"><ele>289</ele><time>2020-08-19T09:03:50Z</time><name>PT536</name></trkpt>
<trkpt lat="53.212570" lon="-2.030474"><ele>289</ele><time>2020-08-19T09:03:51Z</time><name>PT537</name></trkpt>
<trkpt lat="53.212564" lon="-2.030466"><ele>288</ele><time>2020-08-19T09:03:52Z</time><name>PT538</name></trkpt>
<trkpt lat="53.212562" lon="-2.030475"><ele>287</ele><time>2020-08-19T09:03:53Z</time><name>PT539</name></trkpt>
<trkpt lat="53.212554" lon="-2.030458"><ele>288</ele><time>2020-08-19T09:03:54Z</time><name>PT540</name></trkpt>
<trkpt lat="53.212549" lon="-2.030443"><ele>287</ele><time>2020-08-19T09:03:55Z</time><name>PT541</name></trkpt>
<trkpt lat="53.212542" lon="-2.030432"><ele>287</ele><time>2020-08-19T09:03:56Z</time><name>PT542</name></trkpt>
<trkpt lat="53.212534" lon="-2.030423"><ele>287</ele><time>2020-08-19T09:03:57Z</time><name>PT543</name></trkpt>
<trkpt lat="53.212525" lon="-2.030417"><ele>286</ele><time>2020-08-19T09:03:58Z</time><name>PT544</name></trkpt>
<trkpt lat="53.212519" lon="-2.030411"><ele>286</ele><time>2020-08-19T09:03:59Z</time><name>PT545</name></trkpt>
<trkpt lat="53.212515" lon="-2.030405"><ele>286</ele><time>2020-08-19T09:04:00Z</time><name>PT546</name></trkpt>
<trkpt lat="53.212515" lon="-2.030393"><ele>285</ele><time>2020-08-19T09:04:01Z</time><name>PT547</name></trkpt>
<trkpt lat="53.212517" lon="-2.030382"><ele>285</ele><time>2020-08-19T09:04:02Z</time><name>PT548</name></trkpt>
<trkpt lat="53.212518" lon="-2.030371"><ele>285</ele><time>2020-08-19T09:04:03Z</time><name>PT549</name></trkpt>
<trkpt lat="53.212521" lon="-2.030360"><ele>284</ele><time>2020-08-19T09:04:04Z</time><name>PT550</name></trkpt>
<trkpt lat="53.212524" lon="-2.030349"><ele>284</ele><time>2020-08-19T09:04:05Z</time><name>PT551</name></trkpt>
<trkpt lat="53.212527" lon="-2.030341"><ele>284</ele><time>2020-08-19T09:04:06Z</time><name>PT552</name></trkpt>
<trkpt lat="53.212530" lon="-2.030333"><ele>284</ele><time>2020-08-19T09:04:07Z</time><name>PT553</name></trkpt>
<trkpt lat="53.212535" lon="-2.030325"><ele>284</ele><time>2020-08-19T09:04:08Z</time><name>PT554</name></trkpt>
<trkpt lat="53.212538" lon="-2.030318"><ele>284</ele><time>2020-08-19T09:04:09Z</time><name>PT555</name></trkpt>
<trkpt lat="53.212544" lon="-2.030308"><ele>284</ele><time>2020-08-19T09:04:10Z</time><name>PT556</name></trkpt>
<trkpt lat="53.212551" lon="-2.030300"><ele>284</ele><time>2020-08-19T09:04:11Z</time><name>PT557</name></trkpt>
<trkpt lat="53.212555" lon="-2.030292"><ele>283</ele><time>2020-08-19T09:04:12Z</time><name>PT558</name></trkpt>
<trkpt lat="53.212558" lon="-2.030283"><ele>283</ele><time>2020-08-19T09:04:13Z</time><name>PT559</name></trkpt>
<trkpt lat="53.212559" lon="-2.030281"><ele>282</ele><time>2020-08-19T09:04:14Z</time><name>PT560</name></trkpt>
<trkpt lat="53.212563" lon="-2.030278"><ele>282</ele><time>2020-08-19T09:04:15Z</time><name>PT561</name></trkpt>
<trkpt lat="53.212568" lon="-2.030271"><ele>282</ele><time>2020-08-19T09:04:16Z</time><name>PT562</name></trkpt>
<trkpt lat="53.212573" lon="-2.030260"><ele>282</ele><time>2020-08-19T09:04:17Z</time><name>PT563</name></trkpt>
<trkpt lat="53.212578" lon="-2.030253"><ele>281</ele><time>2020-08-19T09:04:18Z</time><name>PT564</name></trkpt>
<trkpt lat="53.212582" lon="-2.030242"><ele>281</ele><time>2020-08-19T09:04:19Z</time><name>PT565</name></trkpt>
<trkpt lat="53.212590" lon="-2.030230"><ele>281</ele><time>2020-08-19T09:04:20Z</time><name>PT566</name></trkpt>
<trkpt lat="53.212597" lon="-2.030224"><ele>280</ele><time>2020-08-19T09:04:21Z</time><name>PT567</name></trkpt>
<trkpt lat="53.212605" lon="-2.030220"><ele>280</ele><time>2020-08-19T09:04:22Z</time><name>PT568</name></trkpt>
<trkpt lat="53.212613" lon="-2.030215"><ele>280</ele><time>2020-08-19T09:04:23Z</time><name>PT569</name></trkpt>
<trkpt lat="53.212621" lon="-2.030207"><ele>279</ele><time>2020-08-19T09:04:24Z</time><name>PT570</name></trkpt>
<trkpt lat="53.212627" lon="-2.030191"><ele>281</ele><time>2020-08-19T09:04:25Z</time><name>PT571</name></trkpt>
<trkpt lat="53.212634" lon="-2.030177"><ele>281</ele><time>2020-08-19T09:04:26Z</time><name>PT572</name></trkpt>
<trkpt lat="53.212641" lon="-2.030169"><ele>280</ele><time>2020-08-19T09:04:27Z</time><name>PT573</name></trkpt>
<trkpt lat="53.212648" lon="-2.030164"><ele>280</ele><time>2020-08-19T09:04:28Z</time><name>PT574</name></trkpt>
<trkpt lat="53.212657" lon="-2.030156"><ele>279</ele><time>2020-08-19T09:04:29Z</time><name>PT575</name></trkpt>
<trkpt lat="53.212666" lon="-2.030148"><ele>279</ele><time>2020-08-19T09:04:30Z</time><name>PT576</name></trkpt>
<trkpt lat="53.212672" lon="-2.030138"><ele>279</ele><time>2020-08-19T09:04:31Z</time><name>PT577</name></trkpt>
<trkpt lat="53.212681" lon="-2.030127"><ele>280</ele><time>2020-08-19T09:04:32Z</time><name>PT578</name></trkpt>
<trkpt lat="53.212689" lon="-2.030117"><ele>280</ele><time>2020-08-19T09:04:33Z</time><name>PT579</name></trkpt>
<trkpt lat="53.212696" lon="-2.030112"><ele>280</ele><time>2020-08-19T09:04:34Z</time><name>PT580</name></trkpt>
<trkpt lat="53.212709" lon="-2.030107"><ele>280</ele><time>2020-08-19T09:04:35Z</time><name>PT581</name></trkpt>
<trkpt lat="53.212717" lon="-2.030103"><ele>280</ele><time>2020-08-19T09:04:36Z</time><name>PT582</name></trkpt>
<trkpt lat="53.212726" lon="-2.030096"><ele>280</ele><time>2020-08-19T09:04:37Z</time><name>PT583</name></trkpt>
<trkpt lat="53.212733" lon="-2.030091"><ele>280</ele><time>2020-08-19T09:04:38Z</time><name>PT584</name></trkpt>
<trkpt lat="53.212737" lon="-2.030085"><ele>279</ele><time>2020-08-19T09:04:39Z</time><name>PT585</name></trkpt>
<trkpt lat="53.212745" lon="-2.030077"><ele>279</ele><time>2020-08-19T09:04:40Z</time><name>PT586</name></trkpt>
<trkpt lat="53.212754" lon="-2.030069"><ele>279</ele><time>2020-08-19T09:04:41Z</time><name>PT587</name></trkpt>
<trkpt lat="53.212760" lon="-2.030061"><ele>279</ele><time>2020-08-19T09:04:42Z</time><name>PT588</name></trkpt>
<trkpt lat="53.212766" lon="-2.030053"><ele>278</ele><time>2020-08-19T09:04:43Z</time><name>PT589</name></trkpt>
<trkpt lat="53.212771" lon="-2.030045"><ele>277</ele><time>2020-08-19T09:04:44Z</time><name>PT590</name></trkpt>
<trkpt lat="53.212777" lon="-2.030034"><ele>277</ele><time>2020-08-19T09:04:45Z</time><name>PT591</name></trkpt>
<trkpt lat="53.212785" lon="-2.030027"><ele>277</ele><time>2020-08-19T09:04:46Z</time><name>PT592</name></trkpt>
<trkpt lat="53.212791" lon="-2.030014"><ele>277</ele><time>2020-08-19T09:04:47Z</time><name>PT593</name></trkpt>
<trkpt lat="53.212797" lon="-2.030004"><ele>277</ele><time>2020-08-19T09:04:48Z</time><name>PT594</name></trkpt>
<trkpt lat="53.212807" lon="-2.030001"><ele>275</ele><time>2020-08-19T09:04:49Z</time><name>PT595</name></trkpt>
<trkpt lat="53.212814" lon="-2.029996"><ele>274</ele><time>2020-08-19T09:04:50Z</time><name>PT596</name></trkpt>
<trkpt lat="53.212825" lon="-2.029984"><ele>274</ele><time>2020-08-19T09:04:51Z</time><name>PT597</name></trkpt>
<trkpt lat="53.212832" lon="-2.029977"><ele>274</ele><time>2020-08-19T09:04:52Z</time><name>PT598</name></trkpt>
<trkpt lat="53.212840" lon="-2.029967"><ele>273</ele><time>2020-08-19T09:04:53Z</time><name>PT599</name></trkpt>
<trkpt lat="53.212846" lon="-2.029955"><ele>273</ele><time>2020-08-19T09:04:54Z</time><name>PT600</name></trkpt>
<trkpt lat="53.212852" lon="-2.029944"><ele>272</ele><time>2020-08-19T09:04:55Z</time><name>PT601</name></trkpt>
<trkpt lat="53.212861" lon="-2.029931"><ele>272</ele><time>2020-08-19T09:04:56Z</time><name>PT602</name></trkpt>
<trkpt lat="53.212872" lon="-2.029922"><ele>272</ele><time>2020-08-19T09:04:57Z</time><name>PT603</name></trkpt>
<trkpt lat="53.212880" lon="-2.029915"><ele>271</ele><time>2020-08-19T09:04:58Z</time><name>PT604</name></trkpt>
<trkpt lat="53.212886" lon="-2.029908"><ele>270</ele><time>2020-08-19T09:04:59Z</time><name>PT605</name></trkpt>
<trkpt lat="53.212895" lon="-2.029901"><ele>270</ele><time>2020-08-19T09:05:00Z</time><name>PT606</name></trkpt>
<trkpt lat="53.212907" lon="-2.029894"><ele>270</ele><time>2020-08-19T09:05:01Z</time><name>PT607</name></trkpt>
<trkpt lat="53.212918" lon="-2.029884"><ele>270</ele><time>2020-08-19T09:05:02Z</time><name>PT608</name></trkpt>
<trkpt lat="53.212928" lon="-2.029877"><ele>269</ele><time>2020-08-19T09:05:03Z</time><name>PT609</name></trkpt>
<trkpt lat="53.212939" lon="-2.029871"><ele>268</ele><time>2020-08-19T09:05:04Z</time><name>PT610</name></trkpt>
<trkpt lat="53.212947" lon="-2.029860"><ele>268</ele><time>2020-08-19T09:05:05Z</time><name>PT611</name></trkpt>
<trkpt lat="53.212953" lon="-2.029847"><ele>267</ele><time>2020-08-19T09:05:06Z</time><name>PT612</name></trkpt>
<trkpt lat="53.212961" lon="-2.029834"><ele>267</ele><time>2020-08-19T09:05:07Z</time><name>PT613</name></trkpt>
<trkpt lat="53.212969" lon="-2.029823"><ele>267</ele><time>2020-08-19T09:05:08Z</time><name>PT614</name></trkpt>
<trkpt lat="53.212977" lon="-2.029811"><ele>267</ele><time>2020-08-19T09:05:09Z</time><name>PT615</name></trkpt>
<trkpt lat="53.212984" lon="-2.029797"><ele>267</ele><time>2020-08-19T09:05:10Z</time><name>PT616</name></trkpt>
<trkpt lat="53.212991" lon="-2.029784"><ele>267</ele><time>2020-08-19T09:05:11Z</time><name>PT617</name></trkpt>
<trkpt lat="53.213000" lon="-2.029771"><ele>267</ele><time>2020-08-19T09:05:12Z</time><name>PT618</name></trkpt>
<trkpt lat="53.213009" lon="-2.029760"><ele>268</ele><time>2020-08-19T09:05:13Z</time><name>PT619</name></trkpt>
<trkpt lat="53.213016" lon="-2.029744"><ele>268</ele><time>2020-08-19T09:05:14Z</time><name>PT620</name></trkpt>
<trkpt lat="53.213020" lon="-2.029730"><ele>268</ele><time>2020-08-19T09:05:15Z</time><name>PT621</name></trkpt>
<trkpt lat="53.213027" lon="-2.029715"><ele>268</ele><time>2020-08-19T09:05:16Z</time><name>PT622</name></trkpt>
<trkpt lat="53.213035" lon="-2.029701"><ele>268</ele><time>2020-08-19T09:05:17Z</time><name>PT623</name></trkpt>
<trkpt lat="53.213045" lon="-2.029689"><ele>268</ele><time>2020-08-19T09:05:18Z</time><name>PT624</name></trkpt>
<trkpt lat="53.213053" lon="-2.029677"><ele>268</ele><time>2020-08-19T09:05:19Z</time><name>PT625</name></trkpt>
<trkpt lat="53.213059" lon="-2.029666"><ele>267</ele><time>2020-08-19T09:05:20Z</time><name>PT626</name></trkpt>
<trkpt lat="53.213065" lon="-2.029655"><ele>267</ele><time>2020-08-19T09:05:21Z</time><name>PT627</name></trkpt>
<trkpt lat="53.213073" lon="-2.029643"><ele>267</ele><time>2020-08-19T09:05:22Z</time><name>PT628</name></trkpt>
<trkpt lat="53.213082" lon="-2.029630"><ele>266</ele><time>2020-08-19T09:05:23Z</time><name>PT629</name></trkpt>
<trkpt lat="53.213092" lon="-2.029621"><ele>266</ele><time>2020-08-19T09:05:24Z</time><name>PT630</name></trkpt>
<trkpt lat="53.213104" lon="-2.029610"><ele>266</ele><time>2020-08-19T09:05:25Z</time><name>PT631</name></trkpt>
<trkpt lat="53.213117" lon="-2.029595"><ele>267</ele><time>2020-08-19T09:05:26Z</time><name>PT632</name></trkpt>
<trkpt lat="53.213128" lon="-2.029580"><ele>267</ele><time>2020-08-19T09:05:27Z</time><name>PT633</name></trkpt>
<trkpt lat="53.213139" lon="-2.029564"><ele>267</ele><time>2020-08-19T09:05:28Z</time><name>PT634</name></trkpt>
<trkpt lat="53.213151" lon="-2.029548"><ele>268</ele><time>2020-08-19T09:05:29Z</time><name>PT635</name></trkpt>
<trkpt lat="53.213160" lon="-2.029533"><ele>268</ele><time>2020-08-19T09:05:30Z</time><name>PT636</name></trkpt>
<trkpt lat="53.213170" lon="-2.029522"><ele>267</ele><time>2020-08-19T09:05:31Z</time><name>PT637</name></trkpt>
<trkpt lat="53.213183" lon="-2.029508"><ele>267</ele><time>2020-08-19T09:05:32Z</time><name>PT638</name></trkpt>
<trkpt lat="53.213198" lon="-2.029491"><ele>267</ele><time>2020-08-19T09:05:33Z</time><name>PT639</name></trkpt>
<trkpt lat="53.213205" lon="-2.029474"><ele>267</ele><time>2020-08-19T09:05:34Z</time><name>PT640</name></trkpt>
<trkpt lat="53.213214" lon="-2.029459"><ele>267</ele><time>2020-08-19T09:05:35Z</time><name>PT641</name></trkpt>
<trkpt lat="53.213223" lon="-2.029442"><ele>267</ele><time>2020-08-19T09:05:36Z</time><name>PT642</name></trkpt>
<trkpt lat="53.213232" lon="-2.029426"><ele>267</ele><time>2020-08-19T09:05:37Z</time><name>PT643</name></trkpt>
<trkpt lat="53.213243" lon="-2.029409"><ele>268</ele><time>2020-08-19T09:05:38Z</time><name>PT644</name></trkpt>
<trkpt lat="53.213253" lon="-2.029395"><ele>268</ele><time>2020-08-19T09:05:39Z</time><name>PT645</name></trkpt>
<trkpt lat="53.213263" lon="-2.029380"><ele>268</ele><time>2020-08-19T09:05:40Z</time><name>PT646</name></trkpt>
<trkpt lat="53.213269" lon="-2.029362"><ele>269</ele><time>2020-08-19T09:05:41Z</time><name>PT647</name></trkpt>
<trkpt lat="53.213276" lon="-2.029344"><ele>269</ele><time>2020-08-19T09:05:42Z</time><name>PT648</name></trkpt>
<trkpt lat="53.213282" lon="-2.029321"><ele>268</ele><time>2020-08-19T09:05:43Z</time><name>PT649</name></trkpt>
<trkpt lat="53.213286" lon="-2.029303"><ele>267</ele><time>2020-08-19T09:05:44Z</time><name>PT650</name></trkpt>
<trkpt lat="53.213290" lon="-2.029287"><ele>266</ele><time>2020-08-19T09:05:45Z</time><name>PT651</name></trkpt>
<trkpt lat="53.213293" lon="-2.029270"><ele>266</ele><time>2020-08-19T09:05:46Z</time><name>PT652</name></trkpt>
<trkpt lat="53.213290" lon="-2.029254"><ele>266</ele><time>2020-08-19T09:05:47Z</time><name>PT653</name></trkpt>
<trkpt lat="53.213292" lon="-2.029238"><ele>266</ele><time>2020-08-19T09:05:48Z</time><name>PT654</name></trkpt>
<trkpt lat="53.213297" lon="-2.029219"><ele>266</ele><time>2020-08-19T09:05:49Z</time><name>PT655</name></trkpt>
<trkpt lat="53.213312" lon="-2.029202"><ele>267</ele><time>2020-08-19T09:05:50Z</time><name>PT656</name></trkpt>
<trkpt lat="53.213314" lon="-2.029187"><ele>267</ele><time>2020-08-19T09:05:51Z</time><name>PT657</name></trkpt>
<trkpt lat="53.213317" lon="-2.029171"><ele>267</ele><time>2020-08-19T09:05:52Z</time><name>PT658</name></trkpt>
<trkpt lat="53.213319" lon="-2.029156"><ele>268</ele><time>2020-08-19T09:05:53Z</time><name>PT659</name></trkpt>
<trkpt lat="53.213322" lon="-2.029144"><ele>267</ele><time>2020-08-19T09:05:54Z</time><name>PT660</name></trkpt>
<trkpt lat="53.213327" lon="-2.029136"><ele>267</ele><time>2020-08-19T09:05:55Z</time><name>PT661</name></trkpt>
<trkpt lat="53.213330" lon="-2.029125"><ele>267</ele><time>2020-08-19T09:05:56Z</time><name>PT662</name></trkpt>
<trkpt lat="53.213334" lon="-2.029109"><ele>267</ele><time>2020-08-19T09:05:57Z</time><name>PT663</name></trkpt>
<trkpt lat="53.213336" lon="-2.029094"><ele>267</ele><time>2020-08-19T09:05:58Z</time><name>PT664</name></trkpt>
<trkpt lat="53.213339" lon="-2.029085"><ele>267</ele><time>2020-08-19T09:05:59Z</time><name>PT665</name></trkpt>
<trkpt lat="53.213343" lon="-2.029079"><ele>266</ele><time>2020-08-19T09:06:00Z</time><name>PT666</name></trkpt>
<trkpt lat="53.213345" lon="-2.029073"><ele>266</ele><time>2020-08-19T09:06:01Z</time><name>PT667</name></trkpt>
<trkpt lat="53.213347" lon="-2.029067"><ele>266</ele><time>2020-08-19T09:06:02Z</time><name>PT668</name></trkpt>
<trkpt lat="53.213354" lon="-2.029063"><ele>267</ele><time>2020-08-19T09:06:03Z</time><name>PT669</name></trkpt>
<trkpt lat="53.213358" lon="-2.029059"><ele>268</ele><time>2020-08-19T09:06:04Z</time><name>PT670</name></trkpt>
<trkpt lat="53.213360" lon="-2.029054"><ele>268</ele><time>2020-08-19T09:06:05Z</time><name>PT671</name></trkpt>
<trkpt lat="53.213366" lon="-2.029052"><ele>269</ele><time>2020-08-19T09:06:06Z</time><name>PT672</name></trkpt>
<trkpt lat="53.213371" lon="-2.029041"><ele>268</ele><time>2020-08-19T09:06:11Z</time><name>PT673</name></trkpt>
<trkpt lat="53.213383" lon="-2.029026"><ele>267</ele><time>2020-08-19T09:06:12Z</time><name>PT674</name></trkpt>
<trkpt lat="53.213391" lon="-2.029007"><ele>267</ele><time>2020-08-19T09:06:13Z</time><name>PT675</name></trkpt>
<trkpt lat="53.213401" lon="-2.028988"><ele>266</ele><time>2020-08-19T09:06:14Z</time><name>PT676</name></trkpt>
<trkpt lat="53.213405" lon="-2.028975"><ele>266</ele><time>2020-08-19T09:06:15Z</time><name>PT677</name></trkpt>
<trkpt lat="53.213413" lon="-2.028952"><ele>266</ele><time>2020-08-19T09:06:16Z</time><name>PT678</name></trkpt>
<trkpt lat="53.213428" lon="-2.028930"><ele>264</ele><time>2020-08-19T09:06:17Z</time><name>PT679</name></trkpt>
<trkpt lat="53.213439" lon="-2.028917"><ele>264</ele><time>2020-08-19T09:06:18Z</time><name>PT680</name></trkpt>
<trkpt lat="53.213448" lon="-2.028900"><ele>265</ele><time>2020-08-19T09:06:19Z</time><name>PT681</name></trkpt>
<trkpt lat="53.213456" lon="-2.028881"><ele>265</ele><time>2020-08-19T09:06:20Z</time><name>PT682</name></trkpt>
<trkpt lat="53.213460" lon="-2.028866"><ele>265</ele><time>2020-08-19T09:06:21Z</time><name>PT683</name></trkpt>
<trkpt lat="53.213468" lon="-2.028858"><ele>265</ele><time>2020-08-19T09:06:22Z</time><name>PT684</name></trkpt>
<trkpt lat="53.213476" lon="-2.028844"><ele>265</ele><time>2020-08-19T09:06:23Z</time><name>PT685</name></trkpt>
<trkpt lat="53.213486" lon="-2.028831"><ele>265</ele><time>2020-08-19T09:06:24Z</time><name>PT686</name></trkpt>
<trkpt lat="53.213492" lon="-2.028817"><ele>264</ele><time>2020-08-19T09:06:25Z</time><name>PT687</name></trkpt>
<trkpt lat="53.213495" lon="-2.028806"><ele>264</ele><time>2020-08-19T09:06:26Z</time><name>PT688</name></trkpt>
<trkpt lat="53.213500" lon="-2.028791"><ele>263</ele><time>2020-08-19T09:06:27Z</time><name>PT689</name></trkpt>
<trkpt lat="53.213513" lon="-2.028779"><ele>263</ele><time>2020-08-19T09:06:28Z</time><name>PT690</name></trkpt>
<trkpt lat="53.213526" lon="-2.028762"><ele>264</ele><time>2020-08-19T09:06:29Z</time><name>PT691</name></trkpt>
<trkpt lat="53.213531" lon="-2.028749"><ele>263</ele><time>2020-08-19T09:06:30Z</time><name>PT692</name></trkpt>
<trkpt lat="53.213538" lon="-2.028734"><ele>263</ele><time>2020-08-19T09:06:31Z</time><name>PT693</name></trkpt>
<trkpt lat="53.213549" lon="-2.028723"><ele>264</ele><time>2020-08-19T09:06:32Z</time><name>PT694</name></trkpt>
<trkpt lat="53.213558" lon="-2.028714"><ele>264</ele><time>2020-08-19T09:06:33Z</time><name>PT695</name></trkpt>
<trkpt lat="53.213594" lon="-2.028653"><ele>264</ele><time>2020-08-19T09:06:37Z</time><name>PT696</name></trkpt>
<trkpt lat="53.213611" lon="-2.028603"><ele>264</ele><time>2020-08-19T09:06:40Z</time><name>PT697</name></trkpt>
<trkpt lat="53.213641" lon="-2.028556"><ele>263</ele><time>2020-08-19T09:06:44Z</time><name>PT698</name></trkpt>
<trkpt lat="53.213677" lon="-2.028520"><ele>263</ele><time>2020-08-19T09:06:48Z</time><name>PT699</name></trkpt>
<trkpt lat="53.213711" lon="-2.028458"><ele>263</ele><time>2020-08-19T09:06:52Z</time><name>PT700</name></trkpt>
<trkpt lat="53.213757" lon="-2.028409"><ele>264</ele><time>2020-08-19T09:06:56Z</time><name>PT701</name></trkpt>
<trkpt lat="53.213790" lon="-2.028373"><ele>264</ele><time>2020-08-19T09:06:59Z</time><name>PT702</name></trkpt>
<trkpt lat="53.213810" lon="-2.028293"><ele>266</ele><time>2020-08-19T09:07:03Z</time><name>PT703</name></trkpt>
<trkpt lat="53.213851" lon="-2.028221"><ele>268</ele><time>2020-08-19T09:07:07Z</time><name>PT704</name></trkpt>
<trkpt lat="53.213869" lon="-2.028158"><ele>266</ele><time>2020-08-19T09:07:11Z</time><name>PT705</name></trkpt>
<trkpt lat="53.213892" lon="-2.028107"><ele>263</ele><time>2020-08-19T09:07:15Z</time><name>PT706</name></trkpt>
<trkpt lat="53.213928" lon="-2.028063"><ele>262</ele><time>2020-08-19T09:07:19Z</time><name>PT707</name></trkpt>
<trkpt lat="53.213957" lon="-2.028014"><ele>262</ele><time>2020-08-19T09:07:23Z</time><name>PT708</name></trkpt>
<trkpt lat="53.213975" lon="-2.027978"><ele>262</ele><time>2020-08-19T09:07:26Z</time><name>PT709</name></trkpt>
<trkpt lat="53.214001" lon="-2.027916"><ele>262</ele><time>2020-08-19T09:07:30Z</time><name>PT710</name></trkpt>
<trkpt lat="53.214038" lon="-2.027857"><ele>262</ele><time>2020-08-19T09:07:34Z</time><name>PT711</name></trkpt>
<trkpt lat="53.214068" lon="-2.027802"><ele>263</ele><time>2020-08-19T09:07:38Z</time><name>PT712</name></trkpt>
<trkpt lat="53.214099" lon="-2.027765"><ele>263</ele><time>2020-08-19T09:07:41Z</time><name>PT713</name></trkpt>
<trkpt lat="53.214128" lon="-2.027729"><ele>261</ele><time>2020-08-19T09:07:44Z</time><name>PT714</name></trkpt>
<trkpt lat="53.214173" lon="-2.027662"><ele>260</ele><time>2020-08-19T09:07:48Z</time><name>PT715</name></trkpt>
<trkpt lat="53.214213" lon="-2.027603"><ele>260</ele><time>2020-08-19T09:07:52Z</time><name>PT716</name></trkpt>
<trkpt lat="53.214261" lon="-2.027569"><ele>260</ele><time>2020-08-19T09:07:56Z</time><name>PT717</name></trkpt>
<trkpt lat="53.214328" lon="-2.027549"><ele>261</ele><time>2020-08-19T09:08:00Z</time><name>PT718</name></trkpt>
<trkpt lat="53.214397" lon="-2.027548"><ele>267</ele><time>2020-08-19T09:08:03Z</time><name>PT719</name></trkpt>
<trkpt lat="53.214442" lon="-2.027576"><ele>269</ele><time>2020-08-19T09:08:07Z</time><name>PT720</name></trkpt>
<trkpt lat="53.214486" lon="-2.027578"><ele>269</ele><time>2020-08-19T09:08:10Z</time><name>PT721</name></trkpt>
<trkpt lat="53.214526" lon="-2.027578"><ele>270</ele><time>2020-08-19T09:08:14Z</time><name>PT722</name></trkpt>
<trkpt lat="53.214560" lon="-2.027567"><ele>271</ele><time>2020-08-19T09:08:17Z</time><name>PT723</name></trkpt>
<trkpt lat="53.214600" lon="-2.027574"><ele>274</ele><time>2020-08-19T09:08:21Z</time><name>PT724</name></trkpt>
<trkpt lat="53.214645" lon="-2.027595"><ele>277</ele><time>2020-08-19T09:08:25Z</time><name>PT725</name></trkpt>
<trkpt lat="53.214685" lon="-2.027608"><ele>279</ele><time>2020-08-19T09:08:29Z</time><name>PT726</name></trkpt>
<trkpt lat="53.214713" lon="-2.027630"><ele>278</ele><time>2020-08-19T09:08:32Z</time><name>PT727</name></trkpt>
<trkpt lat="53.214748" lon="-2.027625"><ele>279</ele><time>2020-08-19T09:08:35Z</time><name>PT728</name></trkpt>
<trkpt lat="53.214796" lon="-2.027643"><ele>279</ele><time>2020-08-19T09:08:39Z</time><name>PT729</name></trkpt>
<trkpt lat="53.214822" lon="-2.027662"><ele>279</ele><time>2020-08-19T09:08:42Z</time><name>PT730</name></trkpt>
<trkpt lat="53.214847" lon="-2.027669"><ele>278</ele><time>2020-08-19T09:08:45Z</time><name>PT731</name></trkpt>
<trkpt lat="53.214881" lon="-2.027686"><ele>278</ele><time>2020-08-19T09:08:49Z</time><name>PT732</name></trkpt>
<trkpt lat="53.214908" lon="-2.027711"><ele>277</ele><time>2020-08-19T09:08:53Z</time><name>PT733</name></trkpt>
<trkpt lat="53.214925" lon="-2.027735"><ele>276</ele><time>2020-08-19T09:08:56Z</time><name>PT734</name></trkpt>
<trkpt lat="53.214954" lon="-2.027738"><ele>276</ele><time>2020-08-19T09:09:00Z</time><name>PT735</name></trkpt>
<trkpt lat="53.214996" lon="-2.027749"><ele>279</ele><time>2020-08-19T09:09:04Z</time><name>PT736</name></trkpt>
<trkpt lat="53.215048" lon="-2.027750"><ele>278</ele><time>2020-08-19T09:09:08Z</time><name>PT737</name></trkpt>
<trkpt lat="53.215101" lon="-2.027763"><ele>280</ele><time>2020-08-19T09:09:12Z</time><name>PT738</name></trkpt>
<trkpt lat="53.215149" lon="-2.027775"><ele>283</ele><time>2020-08-19T09:09:16Z</time><name>PT739</name></trkpt>
<trkpt lat="53.215181" lon="-2.027784"><ele>281</ele><time>2020-08-19T09:09:19Z</time><name>PT740</name></trkpt>
<trkpt lat="53.215217" lon="-2.027805"><ele>281</ele><time>2020-08-19T09:09:22Z</time><name>PT741</name></trkpt>
<trkpt lat="53.215247" lon="-2.027819"><ele>281</ele><time>2020-08-19T09:09:25Z</time><name>PT742</name></trkpt>
<trkpt lat="53.215288" lon="-2.027853"><ele>282</ele><time>2020-08-19T09:09:29Z</time><name>PT743</name></trkpt>
<trkpt lat="53.215320" lon="-2.027863"><ele>283</ele><time>2020-08-19T09:09:33Z</time><name>PT744</name></trkpt>
<trkpt lat="53.215350" lon="-2.027872"><ele>282</ele><time>2020-08-19T09:09:36Z</time><name>PT745</name></trkpt>
<trkpt lat="53.215368" lon="-2.027886"><ele>283</ele><time>2020-08-19T09:09:39Z</time><name>PT746</name></trkpt>
<trkpt lat="53.215388" lon="-2.027895"><ele>285</ele><time>2020-08-19T09:09:42Z</time><name>PT747</name></trkpt>
<trkpt lat="53.215419" lon="-2.027916"><ele>284</ele><time>2020-08-19T09:09:46Z</time><name>PT748</name></trkpt>
<trkpt lat="53.215437" lon="-2.027938"><ele>285</ele><time>2020-08-19T09:09:49Z</time><name>PT749</name></trkpt>
<trkpt lat="53.215469" lon="-2.027963"><ele>285</ele><time>2020-08-19T09:09:53Z</time><name>PT750</name></trkpt>
<trkpt lat="53.215492" lon="-2.027967"><ele>286</ele><time>2020-08-19T09:09:56Z</time><name>PT751</name></trkpt>
<trkpt lat="53.215526" lon="-2.027982"><ele>285</ele><time>2020-08-19T09:09:59Z</time><name>PT752</name></trkpt>
<trkpt lat="53.215565" lon="-2.027995"><ele>285</ele><time>2020-08-19T09:10:02Z</time><name>PT753</name></trkpt>
<trkpt lat="53.215605" lon="-2.028011"><ele>283</ele><time>2020-08-19T09:10:06Z</time><name>PT754</name></trkpt>
<trkpt lat="53.215642" lon="-2.028026"><ele>287</ele><time>2020-08-19T09:10:10Z</time><name>PT755</name></trkpt>
<trkpt lat="53.215692" lon="-2.028023"><ele>287</ele><time>2020-08-19T09:10:13Z</time><name>PT756</name></trkpt>
<trkpt lat="53.215734" lon="-2.028038"><ele>288</ele><time>2020-08-19T09:10:17Z</time><name>PT757</name></trkpt>
<trkpt lat="53.215750" lon="-2.028020"><ele>289</ele><time>2020-08-19T09:10:21Z</time><name>PT758</name></trkpt>
<trkpt lat="53.215756" lon="-2.028008"><ele>291</ele><time>2020-08-19T09:10:24Z</time><name>PT759</name></trkpt>
<trkpt lat="53.215763" lon="-2.028010"><ele>291</ele><time>2020-08-19T09:10:28Z</time><name>PT760</name></trkpt>
<trkpt lat="53.215791" lon="-2.028045"><ele>289</ele><time>2020-08-19T09:10:32Z</time><name>PT761</name></trkpt>
<trkpt lat="53.215817" lon="-2.028039"><ele>289</ele><time>2020-08-19T09:10:35Z</time><name>PT762</name></trkpt>
<trkpt lat="53.215856" lon="-2.028028"><ele>291</ele><time>2020-08-19T09:10:39Z</time><name>PT763</name></trkpt>
<trkpt lat="53.215876" lon="-2.028028"><ele>293</ele><time>2020-08-19T09:10:42Z</time><name>PT764</name></trkpt>
<trkpt lat="53.215915" lon="-2.028015"><ele>292</ele><time>2020-08-19T09:10:46Z</time><name>PT765</name></trkpt>
<trkpt lat="53.215941" lon="-2.028014"><ele>293</ele><time>2020-08-19T09:10:49Z</time><name>PT766</name></trkpt>
<trkpt lat="53.215968" lon="-2.028017"><ele>294</ele><time>2020-08-19T09:10:52Z</time><name>PT767</name></trkpt>
<trkpt lat="53.215988" lon="-2.028026"><ele>295</ele><time>2020-08-19T09:10:55Z</time><name>PT768</name></trkpt>
<trkpt lat="53.216015" lon="-2.028026"><ele>294</ele><time>2020-08-19T09:10:58Z</time><name>PT769</name></trkpt>
<trkpt lat="53.216050" lon="-2.028024"><ele>297</ele><time>2020-08-19T09:11:02Z</time><name>PT770</name></trkpt>
<trkpt lat="53.216083" lon="-2.028033"><ele>298</ele><time>2020-08-19T09:11:05Z</time><name>PT771</name></trkpt>
<trkpt lat="53.216131" lon="-2.028032"><ele>300</ele><time>2020-08-19T09:11:09Z</time><name>PT772</name></trkpt>
<trkpt lat="53.216178" lon="-2.028029"><ele>302</ele><time>2020-08-19T09:11:13Z</time><name>PT773</name></trkpt>
<trkpt lat="53.216216" lon="-2.028024"><ele>303</ele><time>2020-08-19T09:11:17Z</time><name>PT774</name></trkpt>
<trkpt lat="53.216245" lon="-2.028028"><ele>304</ele><time>2020-08-19T09:11:21Z</time><name>PT775</name></trkpt>
<trkpt lat="53.216281" lon="-2.028032"><ele>303</ele><time>2020-08-19T09:11:25Z</time><name>PT776</name></trkpt>
<trkpt lat="53.216309" lon="-2.028036"><ele>303</ele><time>2020-08-19T09:11:28Z</time><name>PT777</name></trkpt>
<trkpt lat="53.216330" lon="-2.028036"><ele>302</ele><time>2020-08-19T09:11:31Z</time><name>PT778</name></trkpt>
<trkpt lat="53.216375" lon="-2.028030"><ele>302</ele><time>2020-08-19T09:11:35Z</time><name>PT779</name></trkpt>
<trkpt lat="53.216411" lon="-2.028013"><ele>303</ele><time>2020-08-19T09:11:38Z</time><name>PT780</name></trkpt>
<trkpt lat="53.216458" lon="-2.027995"><ele>304</ele><time>2020-08-19T09:11:42Z</time><name>PT781</name></trkpt>
<trkpt lat="53.216491" lon="-2.027970"><ele>304</ele><time>2020-08-19T09:11:46Z</time><name>PT782</name></trkpt>
<trkpt lat="53.216521" lon="-2.027962"><ele>302</ele><time>2020-08-19T09:11:49Z</time><name>PT783</name></trkpt>
<trkpt lat="53.216555" lon="-2.027947"><ele>302</ele><time>2020-08-19T09:11:53Z</time><name>PT784</name></trkpt>
<trkpt lat="53.216585" lon="-2.027948"><ele>300</ele><time>2020-08-19T09:11:56Z</time><name>PT785</name></trkpt>
<trkpt lat="53.216611" lon="-2.027935"><ele>300</ele><time>2020-08-19T09:12:00Z</time><name>PT786</name></trkpt>
<trkpt lat="53.216651" lon="-2.027924"><ele>302</ele><time>2020-08-19T09:12:03Z</time><name>PT787</name></trkpt>
<trkpt lat="53.216683" lon="-2.027900"><ele>301</ele><time>2020-08-19T09:12:06Z</time><name>PT788</name></trkpt>
<trkpt lat="53.216729" lon="-2.027883"><ele>303</ele><time>2020-08-19T09:12:10Z</time><name>PT789</name></trkpt>
<trkpt lat="53.216755" lon="-2.027873"><ele>303</ele><time>2020-08-19T09:12:13Z</time><name>PT790</name></trkpt>
<trkpt lat="53.216824" lon="-2.027838"><ele>308</ele><time>2020-08-19T09:12:17Z</time><name>PT791</name></trkpt>
<trkpt lat="53.216871" lon="-2.027822"><ele>311</ele><time>2020-08-19T09:12:20Z</time><name>PT792</name></trkpt>
<trkpt lat="53.216920" lon="-2.027799"><ele>313</ele><time>2020-08-19T09:12:23Z</time><name>PT793</name></trkpt>
<trkpt lat="53.216964" lon="-2.027786"><ele>316</ele><time>2020-08-19T09:12:27Z</time><name>PT794</name></trkpt>
<trkpt lat="53.217018" lon="-2.027755"><ele>317</ele><time>2020-08-19T09:12:31Z</time><name>PT795</name></trkpt>
<trkpt lat="53.217041" lon="-2.027743"><ele>316</ele><time>2020-08-19T09:12:34Z</time><name>PT796</name></trkpt>
<trkpt lat="53.217071" lon="-2.027748"><ele>315</ele><time>2020-08-19T09:12:38Z</time><name>PT797</name></trkpt>
<trkpt lat="53.217093" lon="-2.027734"><ele>315</ele><time>2020-08-19T09:12:41Z</time><name>PT798</name></trkpt>
<trkpt lat="53.217120" lon="-2.027731"><ele>313</ele><time>2020-08-19T09:12:44Z</time><name>PT799</name></trkpt>
<trkpt lat="53.217146" lon="-2.027718"><ele>311</ele><time>2020-08-19T09:12:47Z</time><name>PT800</name></trkpt>
<trkpt lat="53.217208" lon="-2.027667"><ele>315</ele><time>2020-08-19T09:12:51Z</time><name>PT801</name></trkpt>
<trkpt lat="53.217242" lon="-2.027641"><ele>313</ele><time>2020-08-19T09:12:54Z</time><name>PT802</name></trkpt>
<trkpt lat="53.217292" lon="-2.027603"><ele>314</ele><time>2020-08-19T09:12:58Z</time><name>PT803</name></trkpt>
<trkpt lat="53.217337" lon="-2.027579"><ele>312</ele><time>2020-08-19T09:13:01Z</time><name>PT804</name></trkpt>
<trkpt lat="53.217374" lon="-2.027576"><ele>311</ele><time>2020-08-19T09:13:04Z</time><name>PT805</name></trkpt>
<trkpt lat="53.217409" lon="-2.027552"><ele>311</ele><time>2020-08-19T09:13:07Z</time><name>PT806</name></trkpt>
<trkpt lat="53.217457" lon="-2.027525"><ele>313</ele><time>2020-08-19T09:13:11Z</time><name>PT807</name></trkpt>
<trkpt lat="53.217521" lon="-2.027478"><ele>316</ele><time>2020-08-19T09:13:15Z</time><name>PT808</name></trkpt>
<trkpt lat="53.217564" lon="-2.027448"><ele>318</ele><time>2020-08-19T09:13:18Z</time><name>PT809</name></trkpt>
<trkpt lat="53.217616" lon="-2.027425"><ele>318</ele><time>2020-08-19T09:13:22Z</time><name>PT810</name></trkpt>
<trkpt lat="53.217644" lon="-2.027414"><ele>319</ele><time>2020-08-19T09:13:25Z</time><name>PT811</name></trkpt>
<trkpt lat="53.217678" lon="-2.027415"><ele>318</ele><time>2020-08-19T09:13:29Z</time><name>PT812</name></trkpt>
<trkpt lat="53.217708" lon="-2.027420"><ele>317</ele><time>2020-08-19T09:13:32Z</time><name>PT813</name></trkpt>
<trkpt lat="53.217770" lon="-2.027415"><ele>317</ele><time>2020-08-19T09:13:36Z</time><name>PT814</name></trkpt>
<trkpt lat="53.217830" lon="-2.027408"><ele>313</ele><time>2020-08-19T09:13:40Z</time><name>PT815</name></trkpt>
<trkpt lat="53.217885" lon="-2.027401"><ele>314</ele><time>2020-08-19T09:13:44Z</time><name>PT816</name></trkpt>
<trkpt lat="53.217927" lon="-2.027404"><ele>315</ele><time>2020-08-19T09:13:47Z</time><name>PT817</name></trkpt>
<trkpt lat="53.217955" lon="-2.027391"><ele>315</ele><time>2020-08-19T09:13:50Z</time><name>PT818</name></trkpt>
<trkpt lat="53.217999" lon="-2.027392"><ele>314</ele><time>2020-08-19T09:13:54Z</time><name>PT819</name></trkpt>
<trkpt lat="53.218061" lon="-2.027384"><ele>316</ele><time>2020-08-19T09:13:58Z</time><name>PT820</name></trkpt>
<trkpt lat="53.218101" lon="-2.027389"><ele>318</ele><time>2020-08-19T09:14:01Z</time><name>PT821</name></trkpt>
<trkpt lat="53.218130" lon="-2.027399"><ele>318</ele><time>2020-08-19T09:14:04Z</time><name>PT822</name></trkpt>
<trkpt lat="53.218175" lon="-2.027407"><ele>316</ele><time>2020-08-19T09:14:08Z</time><name>PT823</name></trkpt>
<trkpt lat="53.218252" lon="-2.027413"><ele>320</ele><time>2020-08-19T09:14:12Z</time><name>PT824</name></trkpt>
<trkpt lat="53.218313" lon="-2.027414"><ele>321</ele><time>2020-08-19T09:14:15Z</time><name>PT825</name></trkpt>
<trkpt lat="53.218351" lon="-2.027398"><ele>322</ele><time>2020-08-19T09:14:18Z</time><name>PT826</name></trkpt>
<trkpt lat="53.218412" lon="-2.027415"><ele>322</ele><time>2020-08-19T09:14:22Z</time><name>PT827</name></trkpt>
<trkpt lat="53.218443" lon="-2.027424"><ele>320</ele><time>2020-08-19T09:14:25Z</time><name>PT828</name></trkpt>
<trkpt lat="53.218472" lon="-2.027452"><ele>318</ele><time>2020-08-19T09:14:28Z</time><name>PT829</name></trkpt>
<trkpt lat="53.218523" lon="-2.027481"><ele>318</ele><time>2020-08-19T09:14:32Z</time><name>PT830</name></trkpt>
<trkpt lat="53.218562" lon="-2.027489"><ele>319</ele><time>2020-08-19T09:14:35Z</time><name>PT831</name></trkpt>
<trkpt lat="53.218600" lon="-2.027508"><ele>320</ele><time>2020-08-19T09:14:38Z</time><name>PT832</name></trkpt>
<trkpt lat="53.218644" lon="-2.027529"><ele>322</ele><time>2020-08-19T09:14:41Z</time><name>PT833</name></trkpt>
<trkpt lat="53.218679" lon="-2.027571"><ele>322</ele><time>2020-08-19T09:14:45Z</time><name>PT834</name></trkpt>
<trkpt lat="53.218710" lon="-2.027611"><ele>320</ele><time>2020-08-19T09:14:48Z</time><name>PT835</name></trkpt>
<trkpt lat="53.218745" lon="-2.027633"><ele>321</ele><time>2020-08-19T09:14:51Z</time><name>PT836</name></trkpt>
<trkpt lat="53.218792" lon="-2.027660"><ele>322</ele><time>2020-08-19T09:14:55Z</time><name>PT837</name></trkpt>
<trkpt lat="53.218843" lon="-2.027681"><ele>324</ele><time>2020-08-19T09:14:59Z</time><name>PT838</name></trkpt>
<trkpt lat="53.218876" lon="-2.027702"><ele>324</ele><time>2020-08-19T09:15:02Z</time><name>PT839</name></trkpt>
<trkpt lat="53.218916" lon="-2.027716"><ele>327</ele><time>2020-08-19T09:15:05Z</time><name>PT840</name></trkpt>
<trkpt lat="53.218964" lon="-2.027739"><ele>330</ele><time>2020-08-19T09:15:09Z</time><name>PT841</name></trkpt>
<trkpt lat="53.218999" lon="-2.027759"><ele>331</ele><time>2020-08-19T09:15:12Z</time><name>PT842</name></trkpt>
<trkpt lat="53.219043" lon="-2.027796"><ele>331</ele><time>2020-08-19T09:15:16Z</time><name>PT843</name></trkpt>
<trkpt lat="53.219083" lon="-2.027805"><ele>332</ele><time>2020-08-19T09:15:20Z</time><name>PT844</name></trkpt>
<trkpt lat="53.219112" lon="-2.027825"><ele>333</ele><time>2020-08-19T09:15:23Z</time><name>PT845</name></trkpt>
<trkpt lat="53.219147" lon="-2.027850"><ele>336</ele><time>2020-08-19T09:15:26Z</time><name>PT846</name></trkpt>
<trkpt lat="53.219185" lon="-2.027875"><ele>337</ele><time>2020-08-19T09:15:30Z</time><name>PT847</name></trkpt>
<trkpt lat="53.219227" lon="-2.027913"><ele>337</ele><time>2020-08-19T09:15:34Z</time><name>PT848</name></trkpt>
<trkpt lat="53.219258" lon="-2.027945"><ele>337</ele><time>2020-08-19T09:15:37Z</time><name>PT849</name></trkpt>
<trkpt lat="53.219285" lon="-2.027981"><ele>337</ele><time>2020-08-19T09:15:40Z</time><name>PT850</name></trkpt>
<trkpt lat="53.219309" lon="-2.028002"><ele>339</ele><time>2020-08-19T09:15:43Z</time><name>PT851</name></trkpt>
<trkpt lat="53.219352" lon="-2.028046"><ele>341</ele><time>2020-08-19T09:15:47Z</time><name>PT852</name></trkpt>
<trkpt lat="53.219389" lon="-2.028090"><ele>340</ele><time>2020-08-19T09:15:51Z</time><name>PT853</name></trkpt>
<trkpt lat="53.219429" lon="-2.028132"><ele>341</ele><time>2020-08-19T09:15:55Z</time><name>PT854</name></trkpt>
<trkpt lat="53.219467" lon="-2.028166"><ele>342</ele><time>2020-08-19T09:15:59Z</time><name>PT855</name></trkpt>
<trkpt lat="53.219498" lon="-2.028202"><ele>343</ele><time>2020-08-19T09:16:02Z</time><name>PT856</name></trkpt>
<trkpt lat="53.219532" lon="-2.028260"><ele>344</ele><time>2020-08-19T09:16:06Z</time><name>PT857</name></trkpt>
<trkpt lat="53.219563" lon="-2.028286"><ele>343</ele><time>2020-08-19T09:16:09Z</time><name>PT858</name></trkpt>
<trkpt lat="53.219604" lon="-2.028339"><ele>345</ele><time>2020-08-19T09:16:13Z</time><name>PT859</name></trkpt>
<trkpt lat="53.219638" lon="-2.028389"><ele>345</ele><time>2020-08-19T09:16:17Z</time><name>PT860</name></trkpt>
<trkpt lat="53.219662" lon="-2.028429"><ele>345</ele><time>2020-08-19T09:16:20Z</time><name>PT861</name></trkpt>
<trkpt lat="53.219692" lon="-2.028456"><ele>346</ele><time>2020-08-19T09:16:23Z</time><name>PT862</name></trkpt>
<trkpt lat="53.219730" lon="-2.028495"><ele>346</ele><time>2020-08-19T09:16:27Z</time><name>PT863</name></trkpt>
<trkpt lat="53.219767" lon="-2.028536"><ele>347</ele><time>2020-08-19T09:16:31Z</time><name>PT864</name></trkpt>
<trkpt lat="53.219796" lon="-2.028568"><ele>347</ele><time>2020-08-19T09:16:34Z</time><name>PT865</name></trkpt>
<trkpt lat="53.219828" lon="-2.028619"><ele>346</ele><time>2020-08-19T09:16:38Z</time><name>PT866</name></trkpt>
<trkpt lat="53.219867" lon="-2.028667"><ele>346</ele><time>2020-08-19T09:16:42Z</time><name>PT867</name></trkpt>
<trkpt lat="53.219901" lon="-2.028695"><ele>346</ele><time>2020-08-19T09:16:45Z</time><name>PT868</name></trkpt>
<trkpt lat="53.219931" lon="-2.028730"><ele>345</ele><time>2020-08-19T09:16:48Z</time><name>PT869</name></trkpt>
<trkpt lat="53.219978" lon="-2.028761"><ele>347</ele><time>2020-08-19T09:16:52Z</time><name>PT870</name></trkpt>
<trkpt lat="53.220011" lon="-2.028784"><ele>346</ele><time>2020-08-19T09:16:55Z</time><name>PT871</name></trkpt>
<trkpt lat="53.220052" lon="-2.028814"><ele>346</ele><time>2020-08-19T09:16:59Z</time><name>PT872</name></trkpt>
<trkpt lat="53.220094" lon="-2.028840"><ele>348</ele><time>2020-08-19T09:17:03Z</time><name>PT873</name></trkpt>
<trkpt lat="53.220123" lon="-2.028866"><ele>347</ele><time>2020-08-19T09:17:06Z</time><name>PT874</name></trkpt>
<trkpt lat="53.220168" lon="-2.028902"><ele>347</ele><time>2020-08-19T09:17:10Z</time><name>PT875</name></trkpt>
<trkpt lat="53.220213" lon="-2.028928"><ele>349</ele><time>2020-08-19T09:17:14Z</time><name>PT876</name></trkpt>
<trkpt lat="53.220243" lon="-2.028950"><ele>350</ele><time>2020-08-19T09:17:17Z</time><name>PT877</name></trkpt>
<trkpt lat="53.220283" lon="-2.028988"><ele>349</ele><time>2020-08-19T09:17:21Z</time><name>PT878</name></trkpt>
<trkpt lat="53.220321" lon="-2.029008"><ele>349</ele><time>2020-08-19T09:17:24Z</time><name>PT879</name></trkpt>
<trkpt lat="53.220361" lon="-2.029049"><ele>349</ele><time>2020-08-19T09:17:28Z</time><name>PT880</name></trkpt>
<trkpt lat="53.220388" lon="-2.029086"><ele>348</ele><time>2020-08-19T09:17:31Z</time><name>PT881</name></trkpt>
<trkpt lat="53.220428" lon="-2.029133"><ele>349</ele><time>2020-08-19T09:17:35Z</time><name>PT882</name></trkpt>
<trkpt lat="53.220461" lon="-2.029160"><ele>351</ele><time>2020-08-19T09:17:38Z</time><name>PT883</name></trkpt>
<trkpt lat="53.220497" lon="-2.029212"><ele>351</ele><time>2020-08-19T09:17:42Z</time><name>PT884</name></trkpt>
<trkpt lat="53.220532" lon="-2.029258"><ele>352</ele><time>2020-08-19T09:17:46Z</time><name>PT885</name></trkpt>
<trkpt lat="53.220560" lon="-2.029304"><ele>353</ele><time>2020-08-19T09:17:49Z</time><name>PT886</name></trkpt>
<trkpt lat="53.220567" lon="-2.029368"><ele>352</ele><time>2020-08-19T09:17:53Z</time><name>PT887</name></trkpt>
<trkpt lat="53.220575" lon="-2.029427"><ele>352</ele><time>2020-08-19T09:17:57Z</time><name>PT888</name></trkpt>
<trkpt lat="53.220577" lon="-2.029483"><ele>352</ele><time>2020-08-19T09:18:01Z</time><name>PT889</name></trkpt>
<trkpt lat="53.220585" lon="-2.029528"><ele>352</ele><time>2020-08-19T09:18:04Z</time><name>PT890</name></trkpt>
<trkpt lat="53.220599" lon="-2.029586"><ele>353</ele><time>2020-08-19T09:18:08Z</time><name>PT891</name></trkpt>
<trkpt lat="53.220610" lon="-2.029623"><ele>352</ele><time>2020-08-19T09:18:11Z</time><name>PT892</name></trkpt>
<trkpt lat="53.220627" lon="-2.029659"><ele>352</ele><time>2020-08-19T09:18:14Z</time><name>PT893</name></trkpt>
<trkpt lat="53.220643" lon="-2.029707"><ele>353</ele><time>2020-08-19T09:18:18Z</time><name>PT894</name></trkpt>
<trkpt lat="53.220652" lon="-2.029752"><ele>353</ele><time>2020-08-19T09:18:22Z</time><name>PT895</name></trkpt>
<trkpt lat="53.220662" lon="-2.029803"><ele>353</ele><time>2020-08-19T09:18:25Z</time><name>PT896</name></trkpt>
<trkpt lat="53.220675" lon="-2.029861"><ele>354</ele><time>2020-08-19T09:18:29Z</time><name>PT897</name></trkpt>
<trkpt lat="53.220687" lon="-2.029905"><ele>355</ele><time>2020-08-19T09:18:32Z</time><name>PT898</name></trkpt>
<trkpt lat="53.220695" lon="-2.029950"><ele>355</ele><time>2020-08-19T09:18:35Z</time><name>PT899</name></trkpt>
<trkpt lat="53.220718" lon="-2.029983"><ele>357</ele><time>2020-08-19T09:18:39Z</time><name>PT900</name></trkpt>
<trkpt lat="53.220733" lon="-2.030031"><ele>357</ele><time>2020-08-19T09:18:42Z</time><name>PT901</name></trkpt>
<trkpt lat="53.220746" lon="-2.030075"><ele>358</ele><time>2020-08-19T09:18:45Z</time><name>PT902</name></trkpt>
<trkpt lat="53.220762" lon="-2.030126"><ele>360</ele><time>2020-08-19T09:18:49Z</time><name>PT903</name></trkpt>
<trkpt lat="53.220767" lon="-2.030168"><ele>361</ele><time>2020-08-19T09:18:52Z</time><name>PT904</name></trkpt>
<trkpt lat="53.220784" lon="-2.030225"><ele>362</ele><time>2020-08-19T09:18:56Z</time><name>PT905</name></trkpt>
<trkpt lat="53.220799" lon="-2.030278"><ele>363</ele><time>2020-08-19T09:19:00Z</time><name>PT906</name></trkpt>
<trkpt lat="53.220811" lon="-2.030337"><ele>364</ele><time>2020-08-19T09:19:04Z</time><name>PT907</name></trkpt>
<trkpt lat="53.220820" lon="-2.030382"><ele>365</ele><time>2020-08-19T09:19:07Z</time><name>PT908</name></trkpt>
<trkpt lat="53.220833" lon="-2.030434"><ele>365</ele><time>2020-08-19T09:19:11Z</time><name>PT909</name></trkpt>
<trkpt lat="53.220841" lon="-2.030482"><ele>365</ele><time>2020-08-19T09:19:14Z</time><name>PT910</name></trkpt>
<trkpt lat="53.220857" lon="-2.030524"><ele>365</ele><time>2020-08-19T09:19:17Z</time><name>PT911</name></trkpt>
<trkpt lat="53.220873" lon="-2.030573"><ele>366</ele><time>2020-08-19T09:19:21Z</time><name>PT912</name></trkpt>
<trkpt lat="53.220880" lon="-2.030594"><ele>366</ele><time>2020-08-19T09:19:24Z</time><name>PT913</name></trkpt>
<trkpt lat="53.220892" lon="-2.030622"><ele>367</ele><time>2020-08-19T09:19:28Z</time><name>PT914</name></trkpt>
<trkpt lat="53.220909" lon="-2.030669"><ele>367</ele><time>2020-08-19T09:19:32Z</time><name>PT915</name></trkpt>
<trkpt lat="53.220921" lon="-2.030690"><ele>368</ele><time>2020-08-19T09:19:35Z</time><name>PT916</name></trkpt>
<trkpt lat="53.220936" lon="-2.030716"><ele>369</ele><time>2020-08-19T09:19:39Z</time><name>PT917</name></trkpt>
<trkpt lat="53.220947" lon="-2.030744"><ele>370</ele><time>2020-08-19T09:19:42Z</time><name>PT918</name></trkpt>
<trkpt lat="53.220953" lon="-2.030774"><ele>371</ele><time>2020-08-19T09:19:45Z</time><name>PT919</name></trkpt>
<trkpt lat="53.220968" lon="-2.030828"><ele>371</ele><time>2020-08-19T09:19:49Z</time><name>PT920</name></trkpt>
<trkpt lat="53.220989" lon="-2.030869"><ele>372</ele><time>2020-08-19T09:19:53Z</time><name>PT921</name></trkpt>
<trkpt lat="53.221007" lon="-2.030907"><ele>373</ele><time>2020-08-19T09:19:56Z</time><name>PT922</name></trkpt>
<trkpt lat="53.221032" lon="-2.030961"><ele>374</ele><time>2020-08-19T09:20:00Z</time><name>PT923</name></trkpt>
<trkpt lat="53.221051" lon="-2.031003"><ele>375</ele><time>2020-08-19T09:20:04Z</time><name>PT924</name></trkpt>
<trkpt lat="53.221068" lon="-2.031043"><ele>376</ele><time>2020-08-19T09:20:07Z</time><name>PT925</name></trkpt>
<trkpt lat="53.221085" lon="-2.031079"><ele>376</ele><time>2020-08-19T09:20:10Z</time><name>PT926</name></trkpt>
<trkpt lat="53.221102" lon="-2.031111"><ele>377</ele><time>2020-08-19T09:20:13Z</time><name>PT927</name></trkpt>
<trkpt lat="53.221121" lon="-2.031169"><ele>378</ele><time>2020-08-19T09:20:17Z</time><name>PT928</name></trkpt>
<trkpt lat="53.221138" lon="-2.031213"><ele>379</ele><time>2020-08-19T09:20:20Z</time><name>PT929</name></trkpt>
<trkpt lat="53.221153" lon="-2.031274"><ele>380</ele><time>2020-08-19T09:20:24Z</time><name>PT930</name></trkpt>
<trkpt lat="53.221164" lon="-2.031347"><ele>379</ele><time>2020-08-19T09:20:28Z</time><name>PT931</name></trkpt>
<trkpt lat="53.221172" lon="-2.031393"><ele>379</ele><time>2020-08-19T09:20:31Z</time><name>PT932</name></trkpt>
<trkpt lat="53.221178" lon="-2.031463"><ele>379</ele><time>2020-08-19T09:20:35Z</time><name>PT933</name></trkpt>
<trkpt lat="53.221183" lon="-2.031528"><ele>380</ele><time>2020-08-19T09:20:39Z</time><name>PT934</name></trkpt>
<trkpt lat="53.221200" lon="-2.031598"><ele>380</ele><time>2020-08-19T09:20:43Z</time><name>PT935</name></trkpt>
<trkpt lat="53.221211" lon="-2.031637"><ele>381</ele><time>2020-08-19T09:20:46Z</time><name>PT936</name></trkpt>
<trkpt lat="53.221227" lon="-2.031685"><ele>382</ele><time>2020-08-19T09:20:50Z</time><name>PT937</name></trkpt>
<trkpt lat="53.221240" lon="-2.031746"><ele>382</ele><time>2020-08-19T09:20:54Z</time><name>PT938</name></trkpt>
<trkpt lat="53.221254" lon="-2.031789"><ele>382</ele><time>2020-08-19T09:20:57Z</time><name>PT939</name></trkpt>
<trkpt lat="53.221273" lon="-2.031839"><ele>383</ele><time>2020-08-19T09:21:01Z</time><name>PT940</name></trkpt>
<trkpt lat="53.221299" lon="-2.031897"><ele>383</ele><time>2020-08-19T09:21:05Z</time><name>PT941</name></trkpt>
<trkpt lat="53.221313" lon="-2.031937"><ele>384</ele><time>2020-08-19T09:21:08Z</time><name>PT942</name></trkpt>
<trkpt lat="53.221329" lon="-2.031979"><ele>384</ele><time>2020-08-19T09:21:11Z</time><name>PT943</name></trkpt>
<trkpt lat="53.221346" lon="-2.032040"><ele>384</ele><time>2020-08-19T09:21:15Z</time><name>PT944</name></trkpt>
<trkpt lat="53.221362" lon="-2.032083"><ele>384</ele><time>2020-08-19T09:21:18Z</time><name>PT945</name></trkpt>
<trkpt lat="53.221379" lon="-2.032118"><ele>385</ele><time>2020-08-19T09:21:21Z</time><name>PT946</name></trkpt>
<trkpt lat="53.221402" lon="-2.032167"><ele>386</ele><time>2020-08-19T09:21:25Z</time><name>PT947</name></trkpt>
<trkpt lat="53.221434" lon="-2.032198"><ele>387</ele><time>2020-08-19T09:21:29Z</time><name>PT948</name></trkpt>
<trkpt lat="53.221454" lon="-2.032225"><ele>389</ele><time>2020-08-19T09:21:32Z</time><name>PT949</name></trkpt>
<trkpt lat="53.221476" lon="-2.032249"><ele>389</ele><time>2020-08-19T09:21:35Z</time><name>PT950</name></trkpt>
<trkpt lat="53.221507" lon="-2.032260"><ele>390</ele><time>2020-08-19T09:21:39Z</time><name>PT951</name></trkpt>
<trkpt lat="53.221526" lon="-2.032275"><ele>391</ele><time>2020-08-19T09:21:42Z</time><name>PT952</name></trkpt>
<trkpt lat="53.221548" lon="-2.032294"><ele>391</ele><time>2020-08-19T09:21:45Z</time><name>PT953</name></trkpt>
<trkpt lat="53.221577" lon="-2.032326"><ele>392</ele><time>2020-08-19T09:21:49Z</time><name>PT954</name></trkpt>
<trkpt lat="53.221605" lon="-2.032362"><ele>393</ele><time>2020-08-19T09:21:53Z</time><name>PT955</name></trkpt>
<trkpt lat="53.221639" lon="-2.032388"><ele>394</ele><time>2020-08-19T09:21:57Z</time><name>PT956</name></trkpt>
<trkpt lat="53.221663" lon="-2.032411"><ele>395</ele><time>2020-08-19T09:22:00Z</time><name>PT957</name></trkpt>
<trkpt lat="53.221690" lon="-2.032443"><ele>397</ele><time>2020-08-19T09:22:04Z</time><name>PT958</name></trkpt>
<trkpt lat="53.221709" lon="-2.032466"><ele>397</ele><time>2020-08-19T09:22:07Z</time><name>PT959</name></trkpt>
<trkpt lat="53.221743" lon="-2.032492"><ele>399</ele><time>2020-08-19T09:22:11Z</time><name>PT960</name></trkpt>
<trkpt lat="53.221767" lon="-2.032498"><ele>399</ele><time>2020-08-19T09:22:14Z</time><name>PT961</name></trkpt>
<trkpt lat="53.221796" lon="-2.032504"><ele>399</ele><time>2020-08-19T09:22:18Z</time><name>PT962</name></trkpt>
<trkpt lat="53.221804" lon="-2.032517"><ele>400</ele><time>2020-08-19T09:22:22Z</time><name>PT963</name></trkpt>
<trkpt lat="53.221816" lon="-2.032532"><ele>401</ele><time>2020-08-19T09:22:26Z</time><name>PT964</name></trkpt>
<trkpt lat="53.221815" lon="-2.032544"><ele>401</ele><time>2020-08-19T09:22:30Z</time><name>PT965</name></trkpt>
<trkpt lat="53.221816" lon="-2.032577"><ele>401</ele><time>2020-08-19T09:22:34Z</time><name>PT966</name></trkpt>
<trkpt lat="53.221817" lon="-2.032600"><ele>402</ele><time>2020-08-19T09:22:37Z</time><name>PT967</name></trkpt>
<trkpt lat="53.221817" lon="-2.032602"><ele>402</ele><time>2020-08-19T09:22:41Z</time><name>PT968</name></trkpt>
<trkpt lat="53.221814" lon="-2.032644"><ele>402</ele><time>2020-08-19T09:23:00Z</time><name>PT969</name></trkpt>
<trkpt lat="53.221816" lon="-2.032698"><ele>403</ele><time>2020-08-19T09:23:03Z</time><name>PT970</name></trkpt>
<trkpt lat="53.221810" lon="-2.032741"><ele>403</ele><time>2020-08-19T09:23:06Z</time><name>PT971</name></trkpt>
<trkpt lat="53.221810" lon="-2.032776"><ele>404</ele><time>2020-08-19T09:23:09Z</time><name>PT972</name></trkpt>
<trkpt lat="53.221800" lon="-2.032836"><ele>404</ele><time>2020-08-19T09:23:13Z</time><name>PT973</name></trkpt>
<trkpt lat="53.221800" lon="-2.032876"><ele>405</ele><time>2020-08-19T09:23:16Z</time><name>PT974</name></trkpt>
<trkpt lat="53.221803" lon="-2.032915"><ele>405</ele><time>2020-08-19T09:23:19Z</time><name>PT975</name></trkpt>
<trkpt lat="53.221801" lon="-2.032976"><ele>405</ele><time>2020-08-19T09:23:23Z</time><name>PT976</name></trkpt>
<trkpt lat="53.221802" lon="-2.033022"><ele>406</ele><time>2020-08-19T09:23:26Z</time><name>PT977</name></trkpt>
<trkpt lat="53.221802" lon="-2.033064"><ele>406</ele><time>2020-08-19T09:23:29Z</time><name>PT978</name></trkpt>
<trkpt lat="53.221806" lon="-2.033108"><ele>407</ele><time>2020-08-19T09:23:33Z</time><name>PT979</name></trkpt>
<trkpt lat="53.221813" lon="-2.033138"><ele>408</ele><time>2020-08-19T09:23:36Z</time><name>PT980</name></trkpt>
<trkpt lat="53.221825" lon="-2.033184"><ele>408</ele><time>2020-08-19T09:23:40Z</time><name>PT981</name></trkpt>
<trkpt lat="53.221835" lon="-2.033223"><ele>409</ele><time>2020-08-19T09:23:43Z</time><name>PT982</name></trkpt>
<trkpt lat="53.221841" lon="-2.033261"><ele>409</ele><time>2020-08-19T09:23:46Z</time><name>PT983</name></trkpt>
<trkpt lat="53.221849" lon="-2.033295"><ele>410</ele><time>2020-08-19T09:23:49Z</time><name>PT984</name></trkpt>
<trkpt lat="53.221856" lon="-2.033331"><ele>410</ele><time>2020-08-19T09:23:53Z</time><name>PT985</name></trkpt>
<trkpt lat="53.221857" lon="-2.033362"><ele>411</ele><time>2020-08-19T09:23:56Z</time><name>PT986</name></trkpt>
<trkpt lat="53.221872" lon="-2.033404"><ele>412</ele><time>2020-08-19T09:24:00Z</time><name>PT987</name></trkpt>
<trkpt lat="53.221889" lon="-2.033429"><ele>412</ele><time>2020-08-19T09:24:03Z</time><name>PT988</name></trkpt>
<trkpt lat="53.221901" lon="-2.033470"><ele>413</ele><time>2020-08-19T09:24:07Z</time><name>PT989</name></trkpt>
<trkpt lat="53.221902" lon="-2.033524"><ele>414</ele><time>2020-08-19T09:24:11Z</time><name>PT990</name></trkpt>
<trkpt lat="53.221907" lon="-2.033575"><ele>415</ele><time>2020-08-19T09:24:15Z</time><name>PT991</name></trkpt>
<trkpt lat="53.221917" lon="-2.033627"><ele>416</ele><time>2020-08-19T09:24:19Z</time><name>PT992</name></trkpt>
<trkpt lat="53.221920" lon="-2.033664"><ele>416</ele><time>2020-08-19T09:24:22Z</time><name>PT993</name></trkpt>
<trkpt lat="53.221928" lon="-2.033699"><ele>417</ele><time>2020-08-19T09:24:25Z</time><name>PT994</name></trkpt>
<trkpt lat="53.221930" lon="-2.033731"><ele>417</ele><time>2020-08-19T09:24:28Z</time><name>PT995</name></trkpt>
<trkpt lat="53.221936" lon="-2.033780"><ele>418</ele><time>2020-08-19T09:24:32Z</time><name>PT996</name></trkpt>
<trkpt lat="53.221946" lon="-2.033808"><ele>418</ele><time>2020-08-19T09:24:35Z</time><name>PT997</name></trkpt>
<trkpt lat="53.221955" lon="-2.033854"><ele>417</ele><time>2020-08-19T09:24:39Z</time><name>PT998</name></trkpt>
<trkpt lat="53.221966" lon="-2.033900"><ele>418</ele><time>2020-08-19T09:24:43Z</time><name>PT999</name></trkpt>
<trkpt lat="53.221973" lon="-2.033930"><ele>419</ele><time>2020-08-19T09:24:46Z</time><name>PT1000</name></trkpt>
<trkpt lat="53.221977" lon="-2.033942"><ele>420</ele><time>2020-08-19T09:24:49Z</time><name>PT1001</name></trkpt>
<trkpt lat="53.221986" lon="-2.033983"><ele>420</ele><time>2020-08-19T09:24:53Z</time><name>PT1002</name></trkpt>
<trkpt lat="53.221993" lon="-2.034020"><ele>420</ele><time>2020-08-19T09:24:56Z</time><name>PT1003</name></trkpt>
<trkpt lat="53.221999" lon="-2.034055"><ele>421</ele><time>2020-08-19T09:24:59Z</time><name>PT1004</name></trkpt>
<trkpt lat="53.222009" lon="-2.034091"><ele>422</ele><time>2020-08-19T09:25:03Z</time><name>PT1005</name></trkpt>
<trkpt lat="53.222023" lon="-2.034135"><ele>423</ele><time>2020-08-19T09:25:07Z</time><name>PT1006</name></trkpt>
<trkpt lat="53.222029" lon="-2.034166"><ele>425</ele><time>2020-08-19T09:25:10Z</time><name>PT1007</name></trkpt>
<trkpt lat="53.222034" lon="-2.034208"><ele>425</ele><time>2020-08-19T09:25:14Z</time><name>PT1008</name></trkpt>
<trkpt lat="53.222029" lon="-2.034241"><ele>426</ele><time>2020-08-19T09:25:17Z</time><name>PT1009</name></trkpt>
<trkpt lat="53.222025" lon="-2.034290"><ele>426</ele><time>2020-08-19T09:25:21Z</time><name>PT1010</name></trkpt>
<trkpt lat="53.222026" lon="-2.034335"><ele>427</ele><time>2020-08-19T09:25:25Z</time><name>PT1011</name></trkpt>
<trkpt lat="53.222025" lon="-2.034384"><ele>428</ele><time>2020-08-19T09:25:29Z</time><name>PT1012</name></trkpt>
<trkpt lat="53.222027" lon="-2.034431"><ele>429</ele><time>2020-08-19T09:25:33Z</time><name>PT1013</name></trkpt>
<trkpt lat="53.222029" lon="-2.034479"><ele>430</ele><time>2020-08-19T09:25:37Z</time><name>PT1014</name></trkpt>
<trkpt lat="53.222036" lon="-2.034519"><ele>431</ele><time>2020-08-19T09:25:41Z</time><name>PT1015</name></trkpt>
<trkpt lat="53.222035" lon="-2.034547"><ele>431</ele><time>2020-08-19T09:25:44Z</time><name>PT1016</name></trkpt>
<trkpt lat="53.222035" lon="-2.034582"><ele>432</ele><time>2020-08-19T09:25:47Z</time><name>PT1017</name></trkpt>
<trkpt lat="53.222031" lon="-2.034628"><ele>433</ele><time>2020-08-19T09:25:51Z</time><name>PT1018</name></trkpt>
<trkpt lat="53.222031" lon="-2.034663"><ele>434</ele><time>2020-08-19T09:25:55Z</time><name>PT1019</name></trkpt>
<trkpt lat="53.222032" lon="-2.034700"><ele>434</ele><time>2020-08-19T09:25:59Z</time><name>PT1020</name></trkpt>
<trkpt lat="53.222034" lon="-2.034732"><ele>436</ele><time>2020-08-19T09:26:02Z</time><name>PT1021</name></trkpt>
<trkpt lat="53.222042" lon="-2.034766"><ele>437</ele><time>2020-08-19T09:26:06Z</time><name>PT1022</name></trkpt>
<trkpt lat="53.222049" lon="-2.034802"><ele>437</ele><time>2020-08-19T09:26:10Z</time><name>PT1023</name></trkpt>
<trkpt lat="53.222050" lon="-2.034829"><ele>439</ele><time>2020-08-19T09:26:13Z</time><name>PT1024</name></trkpt>
<trkpt lat="53.222054" lon="-2.034855"><ele>439</ele><time>2020-08-19T09:26:17Z</time><name>PT1025</name></trkpt>
<trkpt lat="53.222057" lon="-2.034889"><ele>440</ele><time>2020-08-19T09:26:21Z</time><name>PT1026</name></trkpt>
<trkpt lat="53.222056" lon="-2.034928"><ele>441</ele><time>2020-08-19T09:26:25Z</time><name>PT1027</name></trkpt>
<trkpt lat="53.222048" lon="-2.034970"><ele>441</ele><time>2020-08-19T09:26:29Z</time><name>PT1028</name></trkpt>
<trkpt lat="53.222054" lon="-2.035003"><ele>442</ele><time>2020-08-19T09:26:32Z</time><name>PT1029</name></trkpt>
<trkpt lat="53.222056" lon="-2.035037"><ele>442</ele><time>2020-08-19T09:26:35Z</time><name>PT1030</name></trkpt>
<trkpt lat="53.222053" lon="-2.035072"><ele>443</ele><time>2020-08-19T09:26:38Z</time><name>PT1031</name></trkpt>
<trkpt lat="53.222053" lon="-2.035116"><ele>444</ele><time>2020-08-19T09:26:42Z</time><name>PT1032</name></trkpt>
<trkpt lat="53.222057" lon="-2.035152"><ele>446</ele><time>2020-08-19T09:26:46Z</time><name>PT1033</name></trkpt>
<trkpt lat="53.222053" lon="-2.035160"><ele>446</ele><time>2020-08-19T09:26:52Z</time><name>PT1034</name></trkpt>
<trkpt lat="53.222063" lon="-2.035206"><ele>448</ele><time>2020-08-19T09:26:56Z</time><name>PT1035</name></trkpt>
<trkpt lat="53.222063" lon="-2.035243"><ele>449</ele><time>2020-08-19T09:27:00Z</time><name>PT1036</name></trkpt>
<trkpt lat="53.222067" lon="-2.035259"><ele>449</ele><time>2020-08-19T09:27:03Z</time><name>PT1037</name></trkpt>
<trkpt lat="53.222076" lon="-2.035288"><ele>449</ele><time>2020-08-19T09:27:06Z</time><name>PT1038</name></trkpt>
<trkpt lat="53.222083" lon="-2.035322"><ele>451</ele><time>2020-08-19T09:27:10Z</time><name>PT1039</name></trkpt>
<trkpt lat="53.222093" lon="-2.035368"><ele>451</ele><time>2020-08-19T09:27:14Z</time><name>PT1040</name></trkpt>
<trkpt lat="53.222103" lon="-2.035397"><ele>452</ele><time>2020-08-19T09:27:17Z</time><name>PT1041</name></trkpt>
<trkpt lat="53.222108" lon="-2.035447"><ele>453</ele><time>2020-08-19T09:27:21Z</time><name>PT1042</name></trkpt>
<trkpt lat="53.222116" lon="-2.035491"><ele>454</ele><time>2020-08-19T09:27:25Z</time><name>PT1043</name></trkpt>
<trkpt lat="53.222120" lon="-2.035518"><ele>455</ele><time>2020-08-19T09:27:28Z</time><name>PT1044</name></trkpt>
<trkpt lat="53.222128" lon="-2.035562"><ele>456</ele><time>2020-08-19T09:27:32Z</time><name>PT1045</name></trkpt>
<trkpt lat="53.222135" lon="-2.035585"><ele>457</ele><time>2020-08-19T09:27:35Z</time><name>PT1046</name></trkpt>
<trkpt lat="53.222137" lon="-2.035615"><ele>457</ele><time>2020-08-19T09:27:38Z</time><name>PT1047</name></trkpt>
<trkpt lat="53.222142" lon="-2.035640"><ele>457</ele><time>2020-08-19T09:27:41Z</time><name>PT1048</name></trkpt>
<trkpt lat="53.222142" lon="-2.035647"><ele>458</ele><time>2020-08-19T09:27:45Z</time><name>PT1049</name></trkpt>
<trkpt lat="53.222149" lon="-2.035686"><ele>459</ele><time>2020-08-19T09:27:48Z</time><name>PT1050</name></trkpt>
<trkpt lat="53.222149" lon="-2.035691"><ele>459</ele><time>2020-08-19T09:27:52Z</time><name>PT1051</name></trkpt>
<trkpt lat="53.222144" lon="-2.035712"><ele>459</ele><time>2020-08-19T09:27:55Z</time><name>PT1052</name></trkpt>
<trkpt lat="53.222149" lon="-2.035757"><ele>460</ele><time>2020-08-19T09:27:59Z</time><name>PT1053</name></trkpt>
<trkpt lat="53.222148" lon="-2.035781"><ele>461</ele><time>2020-08-19T09:28:02Z</time><name>PT1054</name></trkpt>
<trkpt lat="53.222155" lon="-2.035811"><ele>460</ele><time>2020-08-19T09:28:06Z</time><name>PT1055</name></trkpt>
<trkpt lat="53.222155" lon="-2.035831"><ele>461</ele><time>2020-08-19T09:28:09Z</time><name>PT1056</name></trkpt>
<trkpt lat="53.222151" lon="-2.035855"><ele>463</ele><time>2020-08-19T09:28:13Z</time><name>PT1057</name></trkpt>
<trkpt lat="53.222150" lon="-2.035878"><ele>464</ele><time>2020-08-19T09:28:16Z</time><name>PT1058</name></trkpt>
<trkpt lat="53.222156" lon="-2.035884"><ele>464</ele><time>2020-08-19T09:28:19Z</time><name>PT1059</name></trkpt>
<trkpt lat="53.222159" lon="-2.035907"><ele>465</ele><time>2020-08-19T09:28:23Z</time><name>PT1060</name></trkpt>
<trkpt lat="53.222156" lon="-2.035932"><ele>466</ele><time>2020-08-19T09:28:26Z</time><name>PT1061</name></trkpt>
<trkpt lat="53.222160" lon="-2.035954"><ele>467</ele><time>2020-08-19T09:28:30Z</time><name>PT1062</name></trkpt>
<trkpt lat="53.222163" lon="-2.035975"><ele>468</ele><time>2020-08-19T09:28:34Z</time><name>PT1063</name></trkpt>
<trkpt lat="53.222163" lon="-2.036000"><ele>469</ele><time>2020-08-19T09:28:37Z</time><name>PT1064</name></trkpt>
<trkpt lat="53.222163" lon="-2.036027"><ele>471</ele><time>2020-08-19T09:28:41Z</time><name>PT1065</name></trkpt>
<trkpt lat="53.222157" lon="-2.036069"><ele>472</ele><time>2020-08-19T09:28:45Z</time><name>PT1066</name></trkpt>
<trkpt lat="53.222151" lon="-2.036090"><ele>472</ele><time>2020-08-19T09:28:48Z</time><name>PT1067</name></trkpt>
<trkpt lat="53.222144" lon="-2.036116"><ele>472</ele><time>2020-08-19T09:28:52Z</time><name>PT1068</name></trkpt>
<trkpt lat="53.222140" lon="-2.036142"><ele>473</ele><time>2020-08-19T09:28:55Z</time><name>PT1069</name></trkpt>
<trkpt lat="53.222139" lon="-2.036176"><ele>474</ele><time>2020-08-19T09:28:59Z</time><name>PT1070</name></trkpt>
<trkpt lat="53.222139" lon="-2.036207"><ele>475</ele><time>2020-08-19T09:29:02Z</time><name>PT1071</name></trkpt>
<trkpt lat="53.222145" lon="-2.036243"><ele>476</ele><time>2020-08-19T09:29:06Z</time><name>PT1072</name></trkpt>
<trkpt lat="53.222143" lon="-2.036271"><ele>477</ele><time>2020-08-19T09:29:10Z</time><name>PT1073</name></trkpt>
<trkpt lat="53.222137" lon="-2.036314"><ele>478</ele><time>2020-08-19T09:29:14Z</time><name>PT1074</name></trkpt>
<trkpt lat="53.222137" lon="-2.036352"><ele>479</ele><time>2020-08-19T09:29:17Z</time><name>PT1075</name></trkpt>
<trkpt lat="53.222141" lon="-2.036379"><ele>480</ele><time>2020-08-19T09:29:20Z</time><name>PT1076</name></trkpt>
<trkpt lat="53.222135" lon="-2.036412"><ele>481</ele><time>2020-08-19T09:29:23Z</time><name>PT1077</name></trkpt>
<trkpt lat="53.222131" lon="-2.036460"><ele>482</ele><time>2020-08-19T09:29:27Z</time><name>PT1078</name></trkpt>
<trkpt lat="53.222138" lon="-2.036509"><ele>482</ele><time>2020-08-19T09:29:31Z</time><name>PT1079</name></trkpt>
<trkpt lat="53.222140" lon="-2.036555"><ele>483</ele><time>2020-08-19T09:29:35Z</time><name>PT1080</name></trkpt>
<trkpt lat="53.222144" lon="-2.036591"><ele>484</ele><time>2020-08-19T09:29:39Z</time><name>PT1081</name></trkpt>
<trkpt lat="53.222148" lon="-2.036633"><ele>485</ele><time>2020-08-19T09:29:43Z</time><name>PT1082</name></trkpt>
<trkpt lat="53.222149" lon="-2.036668"><ele>486</ele><time>2020-08-19T09:29:46Z</time><name>PT1083</name></trkpt>
<trkpt lat="53.222153" lon="-2.036691"><ele>487</ele><time>2020-08-19T09:29:49Z</time><name>PT1084</name></trkpt>
<trkpt lat="53.222160" lon="-2.036718"><ele>487</ele><time>2020-08-19T09:29:52Z</time><name>PT1085</name></trkpt>
<trkpt lat="53.222161" lon="-2.036725"><ele>487</ele><time>2020-08-19T09:29:55Z</time><name>PT1086</name></trkpt>
<trkpt lat="53.222171" lon="-2.036745"><ele>490</ele><time>2020-08-19T09:29:58Z</time><name>PT1087</name></trkpt>
<trkpt lat="53.222176" lon="-2.036810"><ele>492</ele><time>2020-08-19T09:30:02Z</time><name>PT1088</name></trkpt>
<trkpt lat="53.222181" lon="-2.036854"><ele>492</ele><time>2020-08-19T09:30:06Z</time><name>PT1089</name></trkpt>
<trkpt lat="53.222204" lon="-2.036830"><ele>493</ele><time>2020-08-19T09:30:09Z</time><name>PT1090</name></trkpt>
<trkpt lat="53.222221" lon="-2.036833"><ele>495</ele><time>2020-08-19T09:30:12Z</time><name>PT1091</name></trkpt>
<trkpt lat="53.222235" lon="-2.036837"><ele>494</ele><time>2020-08-19T09:30:16Z</time><name>PT1092</name></trkpt>
<trkpt lat="53.222249" lon="-2.036838"><ele>495</ele><time>2020-08-19T09:30:19Z</time><name>PT1093</name></trkpt>
<trkpt lat="53.222262" lon="-2.036859"><ele>494</ele><time>2020-08-19T09:30:23Z</time><name>PT1094</name></trkpt>
<trkpt lat="53.222270" lon="-2.036878"><ele>494</ele><time>2020-08-19T09:30:26Z</time><name>PT1095</name></trkpt>
<trkpt lat="53.222288" lon="-2.036887"><ele>496</ele><time>2020-08-19T09:30:30Z</time><name>PT1096</name></trkpt>
<trkpt lat="53.222308" lon="-2.036878"><ele>497</ele><time>2020-08-19T09:30:33Z</time><name>PT1097</name></trkpt>
<trkpt lat="53.222338" lon="-2.036861"><ele>498</ele><time>2020-08-19T09:30:37Z</time><name>PT1098</name></trkpt>
<trkpt lat="53.222369" lon="-2.036856"><ele>498</ele><time>2020-08-19T09:30:41Z</time><name>PT1099</name></trkpt>
<trkpt lat="53.222400" lon="-2.036844"><ele>499</ele><time>2020-08-19T09:30:45Z</time><name>PT1100</name></trkpt>
<trkpt lat="53.222426" lon="-2.036825"><ele>499</ele><time>2020-08-19T09:30:48Z</time><name>PT1101</name></trkpt>
<trkpt lat="53.222463" lon="-2.036814"><ele>499</ele><time>2020-08-19T09:30:52Z</time><name>PT1102</name></trkpt>
<trkpt lat="53.222489" lon="-2.036805"><ele>500</ele><time>2020-08-19T09:30:56Z</time><name>PT1103</name></trkpt>
<trkpt lat="53.222522" lon="-2.036791"><ele>500</ele><time>2020-08-19T09:31:00Z</time><name>PT1104</name></trkpt>
<trkpt lat="53.222566" lon="-2.036778"><ele>501</ele><time>2020-08-19T09:31:04Z</time><name>PT1105</name></trkpt>
<trkpt lat="53.222609" lon="-2.036785"><ele>502</ele><time>2020-08-19T09:31:08Z</time><name>PT1106</name></trkpt>
<trkpt lat="53.222641" lon="-2.036791"><ele>503</ele><time>2020-08-19T09:31:11Z</time><name>PT1107</name></trkpt>
<trkpt lat="53.222690" lon="-2.036787"><ele>505</ele><time>2020-08-19T09:31:15Z</time><name>PT1108</name></trkpt>
<trkpt lat="53.222730" lon="-2.036787"><ele>505</ele><time>2020-08-19T09:31:19Z</time><name>PT1109</name></trkpt>
<trkpt lat="53.222769" lon="-2.036787"><ele>506</ele><time>2020-08-19T09:31:22Z</time><name>PT1110</name></trkpt>
<trkpt lat="53.222805" lon="-2.036781"><ele>506</ele><time>2020-08-19T09:31:26Z</time><name>PT1111</name></trkpt>
<trkpt lat="53.222830" lon="-2.036783"><ele>506</ele><time>2020-08-19T09:31:29Z</time><name>PT1112</name></trkpt>
<trkpt lat="53.222876" lon="-2.036778"><ele>508</ele><time>2020-08-19T09:31:33Z</time><name>PT1113</name></trkpt>
<trkpt lat="53.222908" lon="-2.036777"><ele>508</ele><time>2020-08-19T09:31:36Z</time><name>PT1114</name></trkpt>
<trkpt lat="53.222933" lon="-2.036779"><ele>507</ele><time>2020-08-19T09:31:39Z</time><name>PT1115</name></trkpt>
<trkpt lat="53.222985" lon="-2.036771"><ele>508</ele><time>2020-08-19T09:31:43Z</time><name>PT1116</name></trkpt>
<trkpt lat="53.223043" lon="-2.036765"><ele>510</ele><time>2020-08-19T09:31:47Z</time><name>PT1117</name></trkpt>
<trkpt lat="53.223082" lon="-2.036758"><ele>511</ele><time>2020-08-19T09:31:50Z</time><name>PT1118</name></trkpt>
<trkpt lat="53.223117" lon="-2.036752"><ele>511</ele><time>2020-08-19T09:31:53Z</time><name>PT1119</name></trkpt>
<trkpt lat="53.223152" lon="-2.036730"><ele>511</ele><time>2020-08-19T09:31:57Z</time><name>PT1120</name></trkpt>
<trkpt lat="53.223192" lon="-2.036710"><ele>511</ele><time>2020-08-19T09:32:01Z</time><name>PT1121</name></trkpt>
<trkpt lat="53.223213" lon="-2.036700"><ele>511</ele><time>2020-08-19T09:32:05Z</time><name>PT1122</name></trkpt>
<trkpt lat="53.223225" lon="-2.036696"><ele>510</ele><time>2020-08-19T09:32:08Z</time><name>PT1123</name></trkpt>
<trkpt lat="53.223223" lon="-2.036701"><ele>509</ele><time>2020-08-19T09:32:11Z</time><name>PT1124</name></trkpt>
<trkpt lat="53.223226" lon="-2.036693"><ele>509</ele><time>2020-08-19T09:32:36Z</time><name>PT1125</name></trkpt>
<trkpt lat="53.223229" lon="-2.036695"><ele>510</ele><time>2020-08-19T09:32:40Z</time><name>PT1126</name></trkpt>
<trkpt lat="53.223222" lon="-2.036695"><ele>510</ele><time>2020-08-19T09:34:15Z</time><name>PT1127</name></trkpt>
<trkpt lat="53.223226" lon="-2.036730"><ele>512</ele><time>2020-08-19T09:34:19Z</time><name>PT1128</name></trkpt>
<trkpt lat="53.223228" lon="-2.036728"><ele>511</ele><time>2020-08-19T09:34:22Z</time><name>PT1129</name></trkpt>
<trkpt lat="53.223229" lon="-2.036728"><ele>511</ele><time>2020-08-19T09:34:25Z</time><name>PT1130</name></trkpt>
<trkpt lat="53.223231" lon="-2.036721"><ele>512</ele><time>2020-08-19T09:34:29Z</time><name>PT1131</name></trkpt>
<trkpt lat="53.223231" lon="-2.036727"><ele>511</ele><time>2020-08-19T09:34:32Z</time><name>PT1132</name></trkpt>
<trkpt lat="53.223233" lon="-2.036728"><ele>511</ele><time>2020-08-19T09:34:40Z</time><name>PT1133</name></trkpt>
<trkpt lat="53.223232" lon="-2.036727"><ele>511</ele><time>2020-08-19T09:35:10Z</time><name>PT1134</name></trkpt>
<trkpt lat="53.223233" lon="-2.036729"><ele>511</ele><time>2020-08-19T09:35:13Z</time><name>PT1135</name></trkpt>
<trkpt lat="53.223239" lon="-2.036725"><ele>512</ele><time>2020-08-19T09:35:17Z</time><name>PT1136</name></trkpt>
<trkpt lat="53.223240" lon="-2.036719"><ele>511</ele><time>2020-08-19T09:35:21Z</time><name>PT1137</name></trkpt>
<trkpt lat="53.223248" lon="-2.036724"><ele>511</ele><time>2020-08-19T09:35:24Z</time><name>PT1138</name></trkpt>
<trkpt lat="53.223248" lon="-2.036720"><ele>511</ele><time>2020-08-19T09:35:27Z</time><name>PT1139</name></trkpt>
<trkpt lat="53.223250" lon="-2.036717"><ele>510</ele><time>2020-08-19T09:35:31Z</time><name>PT1140</name></trkpt>
<trkpt lat="53.223262" lon="-2.036723"><ele>510</ele><time>2020-08-19T09:35:34Z</time><name>PT1141</name></trkpt>
<trkpt lat="53.223271" lon="-2.036732"><ele>510</ele><time>2020-08-19T09:35:37Z</time><name>PT1142</name></trkpt>
<trkpt lat="53.223280" lon="-2.036737"><ele>510</ele><time>2020-08-19T09:35:40Z</time><name>PT1143</name></trkpt>
<trkpt lat="53.223296" lon="-2.036734"><ele>509</ele><time>2020-08-19T09:35:44Z</time><name>PT1144</name></trkpt>
<trkpt lat="53.223305" lon="-2.036727"><ele>509</ele><time>2020-08-19T09:35:47Z</time><name>PT1145</name></trkpt>
<trkpt lat="53.223331" lon="-2.036727"><ele>508</ele><time>2020-08-19T09:35:51Z</time><name>PT1146</name></trkpt>
<trkpt lat="53.223353" lon="-2.036744"><ele>508</ele><time>2020-08-19T09:35:54Z</time><name>PT1147</name></trkpt>
<trkpt lat="53.223381" lon="-2.036748"><ele>507</ele><time>2020-08-19T09:35:58Z</time><name>PT1148</name></trkpt>
<trkpt lat="53.223396" lon="-2.036761"><ele>506</ele><time>2020-08-19T09:36:02Z</time><name>PT1149</name></trkpt>
<trkpt lat="53.223401" lon="-2.036778"><ele>507</ele><time>2020-08-19T09:36:05Z</time><name>PT1150</name></trkpt>
<trkpt lat="53.223414" lon="-2.036786"><ele>507</ele><time>2020-08-19T09:36:09Z</time><name>PT1151</name></trkpt>
<trkpt lat="53.223425" lon="-2.036795"><ele>506</ele><time>2020-08-19T09:36:13Z</time><name>PT1152</name></trkpt>
<trkpt lat="53.223447" lon="-2.036798"><ele>506</ele><time>2020-08-19T09:36:16Z</time><name>PT1153</name></trkpt>
<trkpt lat="53.223474" lon="-2.036820"><ele>506</ele><time>2020-08-19T09:36:20Z</time><name>PT1154</name></trkpt>
<trkpt lat="53.223494" lon="-2.036839"><ele>506</ele><time>2020-08-19T09:36:23Z</time><name>PT1155</name></trkpt>
<trkpt lat="53.223502" lon="-2.036875"><ele>506</ele><time>2020-08-19T09:36:26Z</time><name>PT1156</name></trkpt>
<trkpt lat="53.223505" lon="-2.036873"><ele>505</ele><time>2020-08-19T09:36:29Z</time><name>PT1157</name></trkpt>
<trkpt lat="53.223517" lon="-2.036874"><ele>505</ele><time>2020-08-19T09:36:33Z</time><name>PT1158</name></trkpt>
<trkpt lat="53.223534" lon="-2.036908"><ele>504</ele><time>2020-08-19T09:36:36Z</time><name>PT1159</name></trkpt>
<trkpt lat="53.223551" lon="-2.036936"><ele>502</ele><time>2020-08-19T09:36:39Z</time><name>PT1160</name></trkpt>
<trkpt lat="53.223564" lon="-2.036966"><ele>501</ele><time>2020-08-19T09:36:42Z</time><name>PT1161</name></trkpt>
<trkpt lat="53.223578" lon="-2.036994"><ele>501</ele><time>2020-08-19T09:36:45Z</time><name>PT1162</name></trkpt>
<trkpt lat="53.223588" lon="-2.037047"><ele>500</ele><time>2020-08-19T09:36:49Z</time><name>PT1163</name></trkpt>
<trkpt lat="53.223586" lon="-2.037083"><ele>500</ele><time>2020-08-19T09:36:52Z</time><name>PT1164</name></trkpt>
<trkpt lat="53.223595" lon="-2.037100"><ele>498</ele><time>2020-08-19T09:36:55Z</time><name>PT1165</name></trkpt>
<trkpt lat="53.223599" lon="-2.037129"><ele>495</ele><time>2020-08-19T09:36:59Z</time><name>PT1166</name></trkpt>
<trkpt lat="53.223608" lon="-2.037175"><ele>496</ele><time>2020-08-19T09:37:03Z</time><name>PT1167</name></trkpt>
<trkpt lat="53.223617" lon="-2.037200"><ele>496</ele><time>2020-08-19T09:37:06Z</time><name>PT1168</name></trkpt>
<trkpt lat="53.223639" lon="-2.037213"><ele>495</ele><time>2020-08-19T09:37:09Z</time><name>PT1169</name></trkpt>
<trkpt lat="53.223653" lon="-2.037219"><ele>494</ele><time>2020-08-19T09:37:13Z</time><name>PT1170</name></trkpt>
<trkpt lat="53.223659" lon="-2.037229"><ele>493</ele><time>2020-08-19T09:37:16Z</time><name>PT1171</name></trkpt>
<trkpt lat="53.223667" lon="-2.037232"><ele>492</ele><time>2020-08-19T09:37:19Z</time><name>PT1172</name></trkpt>
<trkpt lat="53.223684" lon="-2.037235"><ele>490</ele><time>2020-08-19T09:37:23Z</time><name>PT1173</name></trkpt>
<trkpt lat="53.223695" lon="-2.037250"><ele>489</ele><time>2020-08-19T09:37:27Z</time><name>PT1174</name></trkpt>
<trkpt lat="53.223701" lon="-2.037256"><ele>489</ele><time>2020-08-19T09:37:31Z</time><name>PT1175</name></trkpt>
<trkpt lat="53.223717" lon="-2.037260"><ele>488</ele><time>2020-08-19T09:37:34Z</time><name>PT1176</name></trkpt>
<trkpt lat="53.223741" lon="-2.037273"><ele>487</ele><time>2020-08-19T09:37:38Z</time><name>PT1177</name></trkpt>
<trkpt lat="53.223758" lon="-2.037272"><ele>484</ele><time>2020-08-19T09:37:42Z</time><name>PT1178</name></trkpt>
<trkpt lat="53.223770" lon="-2.037283"><ele>482</ele><time>2020-08-19T09:37:46Z</time><name>PT1179</name></trkpt>
<trkpt lat="53.223782" lon="-2.037305"><ele>481</ele><time>2020-08-19T09:37:50Z</time><name>PT1180</name></trkpt>
<trkpt lat="53.223819" lon="-2.037320"><ele>478</ele><time>2020-08-19T09:37:54Z</time><name>PT1181</name></trkpt>
<trkpt lat="53.223848" lon="-2.037329"><ele>477</ele><time>2020-08-19T09:37:58Z</time><name>PT1182</name></trkpt>
<trkpt lat="53.223869" lon="-2.037342"><ele>475</ele><time>2020-08-19T09:38:01Z</time><name>PT1183</name></trkpt>
<trkpt lat="53.223884" lon="-2.037361"><ele>473</ele><time>2020-08-19T09:38:04Z</time><name>PT1184</name></trkpt>
<trkpt lat="53.223907" lon="-2.037411"><ele>472</ele><time>2020-08-19T09:38:08Z</time><name>PT1185</name></trkpt>
<trkpt lat="53.223926" lon="-2.037433"><ele>472</ele><time>2020-08-19T09:38:11Z</time><name>PT1186</name></trkpt>
<trkpt lat="53.223954" lon="-2.037453"><ele>470</ele><time>2020-08-19T09:38:15Z</time><name>PT1187</name></trkpt>
<trkpt lat="53.223970" lon="-2.037477"><ele>468</ele><time>2020-08-19T09:38:18Z</time><name>PT1188</name></trkpt>
<trkpt lat="53.223988" lon="-2.037502"><ele>466</ele><time>2020-08-19T09:38:21Z</time><name>PT1189</name></trkpt>
<trkpt lat="53.224023" lon="-2.037530"><ele>466</ele><time>2020-08-19T09:38:25Z</time><name>PT1190</name></trkpt>
<trkpt lat="53.224063" lon="-2.037552"><ele>466</ele><time>2020-08-19T09:38:29Z</time><name>PT1191</name></trkpt>
<trkpt lat="53.224095" lon="-2.037568"><ele>466</ele><time>2020-08-19T09:38:32Z</time><name>PT1192</name></trkpt>
<trkpt lat="53.224119" lon="-2.037586"><ele>464</ele><time>2020-08-19T09:38:36Z</time><name>PT1193</name></trkpt>
<trkpt lat="53.224133" lon="-2.037602"><ele>464</ele><time>2020-08-19T09:38:40Z</time><name>PT1194</name></trkpt>
<trkpt lat="53.224147" lon="-2.037602"><ele>465</ele><time>2020-08-19T09:38:43Z</time><name>PT1195</name></trkpt>
<trkpt lat="53.224166" lon="-2.037614"><ele>464</ele><time>2020-08-19T09:38:46Z</time><name>PT1196</name></trkpt>
<trkpt lat="53.224190" lon="-2.037634"><ele>463</ele><time>2020-08-19T09:38:49Z</time><name>PT1197</name></trkpt>
<trkpt lat="53.224229" lon="-2.037649"><ele>462</ele><time>2020-08-19T09:38:53Z</time><name>PT1198</name></trkpt>
<trkpt lat="53.224262" lon="-2.037669"><ele>463</ele><time>2020-08-19T09:38:57Z</time><name>PT1199</name></trkpt>
<trkpt lat="53.224298" lon="-2.037686"><ele>462</ele><time>2020-08-19T09:39:01Z</time><name>PT1200</name></trkpt>
<trkpt lat="53.224323" lon="-2.037705"><ele>464</ele><time>2020-08-19T09:39:04Z</time><name>PT1201</name></trkpt>
<trkpt lat="53.224364" lon="-2.037730"><ele>462</ele><time>2020-08-19T09:39:08Z</time><name>PT1202</name></trkpt>
<trkpt lat="53.224393" lon="-2.037748"><ele>460</ele><time>2020-08-19T09:39:11Z</time><name>PT1203</name></trkpt>
<trkpt lat="53.224419" lon="-2.037745"><ele>459</ele><time>2020-08-19T09:39:14Z</time><name>PT1204</name></trkpt>
<trkpt lat="53.224464" lon="-2.037762"><ele>458</ele><time>2020-08-19T09:39:18Z</time><name>PT1205</name></trkpt>
<trkpt lat="53.224510" lon="-2.037777"><ele>458</ele><time>2020-08-19T09:39:22Z</time><name>PT1206</name></trkpt>
<trkpt lat="53.224552" lon="-2.037798"><ele>457</ele><time>2020-08-19T09:39:26Z</time><name>PT1207</name></trkpt>
<trkpt lat="53.224600" lon="-2.037825"><ele>456</ele><time>2020-08-19T09:39:30Z</time><name>PT1208</name></trkpt>
<trkpt lat="53.224639" lon="-2.037837"><ele>456</ele><time>2020-08-19T09:39:33Z</time><name>PT1209</name></trkpt>
<trkpt lat="53.224678" lon="-2.037848"><ele>456</ele><time>2020-08-19T09:39:36Z</time><name>PT1210</name></trkpt>
<trkpt lat="53.224725" lon="-2.037866"><ele>456</ele><time>2020-08-19T09:39:40Z</time><name>PT1211</name></trkpt>
<trkpt lat="53.224774" lon="-2.037884"><ele>455</ele><time>2020-08-19T09:39:44Z</time><name>PT1212</name></trkpt>
<trkpt lat="53.224808" lon="-2.037896"><ele>454</ele><time>2020-08-19T09:39:47Z</time><name>PT1213</name></trkpt>
<trkpt lat="53.224855" lon="-2.037904"><ele>452</ele><time>2020-08-19T09:39:51Z</time><name>PT1214</name></trkpt>
<trkpt lat="53.224889" lon="-2.037912"><ele>452</ele><time>2020-08-19T09:39:54Z</time><name>PT1215</name></trkpt>
<trkpt lat="53.224933" lon="-2.037932"><ele>451</ele><time>2020-08-19T09:39:57Z</time><name>PT1216</name></trkpt>
<trkpt lat="53.224991" lon="-2.037953"><ele>452</ele><time>2020-08-19T09:40:01Z</time><name>PT1217</name></trkpt>
<trkpt lat="53.225033" lon="-2.037966"><ele>451</ele><time>2020-08-19T09:40:04Z</time><name>PT1218</name></trkpt>
<trkpt lat="53.225082" lon="-2.037990"><ele>450</ele><time>2020-08-19T09:40:08Z</time><name>PT1219</name></trkpt>
<trkpt lat="53.225118" lon="-2.038001"><ele>449</ele><time>2020-08-19T09:40:11Z</time><name>PT1220</name></trkpt>
<trkpt lat="53.225172" lon="-2.038016"><ele>448</ele><time>2020-08-19T09:40:15Z</time><name>PT1221</name></trkpt>
<trkpt lat="53.225208" lon="-2.038027"><ele>448</ele><time>2020-08-19T09:40:18Z</time><name>PT1222</name></trkpt>
<trkpt lat="53.225264" lon="-2.038054"><ele>448</ele><time>2020-08-19T09:40:22Z</time><name>PT1223</name></trkpt>
<trkpt lat="53.225295" lon="-2.038068"><ele>448</ele><time>2020-08-19T09:40:25Z</time><name>PT1224</name></trkpt>
<trkpt lat="53.225337" lon="-2.038084"><ele>447</ele><time>2020-08-19T09:40:28Z</time><name>PT1225</name></trkpt>
<trkpt lat="53.225388" lon="-2.038106"><ele>447</ele><time>2020-08-19T09:40:32Z</time><name>PT1226</name></trkpt>
<trkpt lat="53.225427" lon="-2.038118"><ele>446</ele><time>2020-08-19T09:40:35Z</time><name>PT1227</name></trkpt>
<trkpt lat="53.225474" lon="-2.038127"><ele>447</ele><time>2020-08-19T09:40:39Z</time><name>PT1228</name></trkpt>
<trkpt lat="53.225515" lon="-2.038150"><ele>446</ele><time>2020-08-19T09:40:43Z</time><name>PT1229</name></trkpt>
<trkpt lat="53.225565" lon="-2.038164"><ele>447</ele><time>2020-08-19T09:40:47Z</time><name>PT1230</name></trkpt>
<trkpt lat="53.225602" lon="-2.038178"><ele>445</ele><time>2020-08-19T09:40:50Z</time><name>PT1231</name></trkpt>
<trkpt lat="53.225651" lon="-2.038192"><ele>444</ele><time>2020-08-19T09:40:54Z</time><name>PT1232</name></trkpt>
<trkpt lat="53.225700" lon="-2.038202"><ele>445</ele><time>2020-08-19T09:40:58Z</time><name>PT1233</name></trkpt>
<trkpt lat="53.225739" lon="-2.038208"><ele>445</ele><time>2020-08-19T09:41:01Z</time><name>PT1234</name></trkpt>
<trkpt lat="53.225790" lon="-2.038227"><ele>445</ele><time>2020-08-19T09:41:05Z</time><name>PT1235</name></trkpt>
<trkpt lat="53.225826" lon="-2.038240"><ele>446</ele><time>2020-08-19T09:41:08Z</time><name>PT1236</name></trkpt>
<trkpt lat="53.225871" lon="-2.038252"><ele>446</ele><time>2020-08-19T09:41:12Z</time><name>PT1237</name></trkpt>
<trkpt lat="53.225908" lon="-2.038257"><ele>447</ele><time>2020-08-19T09:41:15Z</time><name>PT1238</name></trkpt>
<trkpt lat="53.225945" lon="-2.038268"><ele>446</ele><time>2020-08-19T09:41:18Z</time><name>PT1239</name></trkpt>
<trkpt lat="53.225990" lon="-2.038281"><ele>446</ele><time>2020-08-19T09:41:22Z</time><name>PT1240</name></trkpt>
<trkpt lat="53.226039" lon="-2.038299"><ele>446</ele><time>2020-08-19T09:41:26Z</time><name>PT1241</name></trkpt>
<trkpt lat="53.226078" lon="-2.038315"><ele>446</ele><time>2020-08-19T09:41:29Z</time><name>PT1242</name></trkpt>
<trkpt lat="53.226124" lon="-2.038330"><ele>446</ele><time>2020-08-19T09:41:33Z</time><name>PT1243</name></trkpt>
<trkpt lat="53.226163" lon="-2.038345"><ele>446</ele><time>2020-08-19T09:41:36Z</time><name>PT1244</name></trkpt>
<trkpt lat="53.226218" lon="-2.038351"><ele>446</ele><time>2020-08-19T09:41:40Z</time><name>PT1245</name></trkpt>
<trkpt lat="53.226267" lon="-2.038371"><ele>445</ele><time>2020-08-19T09:41:44Z</time><name>PT1246</name></trkpt>
<trkpt lat="53.226303" lon="-2.038378"><ele>445</ele><time>2020-08-19T09:41:47Z</time><name>PT1247</name></trkpt>
<trkpt lat="53.226349" lon="-2.038396"><ele>444</ele><time>2020-08-19T09:41:51Z</time><name>PT1248</name></trkpt>
<trkpt lat="53.226399" lon="-2.038407"><ele>444</ele><time>2020-08-19T09:41:55Z</time><name>PT1249</name></trkpt>
<trkpt lat="53.226438" lon="-2.038423"><ele>444</ele><time>2020-08-19T09:41:58Z</time><name>PT1250</name></trkpt>
<trkpt lat="53.226483" lon="-2.038431"><ele>445</ele><time>2020-08-19T09:42:02Z</time><name>PT1251</name></trkpt>
<trkpt lat="53.226499" lon="-2.038431"><ele>446</ele><time>2020-08-19T09:42:06Z</time><name>PT1252</name></trkpt>
<trkpt lat="53.226504" lon="-2.038441"><ele>446</ele><time>2020-08-19T09:42:09Z</time><name>PT1253</name></trkpt>
<trkpt lat="53.226547" lon="-2.038467"><ele>446</ele><time>2020-08-19T09:42:12Z</time><name>PT1254</name></trkpt>
<trkpt lat="53.226598" lon="-2.038478"><ele>445</ele><time>2020-08-19T09:42:16Z</time><name>PT1255</name></trkpt>
<trkpt lat="53.226633" lon="-2.038483"><ele>444</ele><time>2020-08-19T09:42:19Z</time><name>PT1256</name></trkpt>
<trkpt lat="53.226673" lon="-2.038483"><ele>443</ele><time>2020-08-19T09:42:22Z</time><name>PT1257</name></trkpt>
<trkpt lat="53.226706" lon="-2.038480"><ele>442</ele><time>2020-08-19T09:42:25Z</time><name>PT1258</name></trkpt>
<trkpt lat="53.226749" lon="-2.038488"><ele>441</ele><time>2020-08-19T09:42:29Z</time><name>PT1259</name></trkpt>
<trkpt lat="53.226777" lon="-2.038485"><ele>441</ele><time>2020-08-19T09:42:32Z</time><name>PT1260</name></trkpt>
<trkpt lat="53.226796" lon="-2.038458"><ele>443</ele><time>2020-08-19T09:42:36Z</time><name>PT1261</name></trkpt>
<trkpt lat="53.226823" lon="-2.038443"><ele>443</ele><time>2020-08-19T09:42:40Z</time><name>PT1262</name></trkpt>
<trkpt lat="53.226902" lon="-2.038452"><ele>449</ele><time>2020-08-19T09:42:44Z</time><name>PT1263</name></trkpt>
<trkpt lat="53.226895" lon="-2.038453"><ele>449</ele><time>2020-08-19T09:42:47Z</time><name>PT1264</name></trkpt>
<trkpt lat="53.226893" lon="-2.038452"><ele>450</ele><time>2020-08-19T09:42:48Z</time><name>PT1265</name></trkpt>
<trkpt lat="53.226888" lon="-2.038448"><ele>450</ele><time>2020-08-19T09:42:49Z</time><name>PT1266</name></trkpt>
<trkpt lat="53.226885" lon="-2.038441"><ele>451</ele><time>2020-08-19T09:42:50Z</time><name>PT1267</name></trkpt>
<trkpt lat="53.226880" lon="-2.038441"><ele>451</ele><time>2020-08-19T09:42:51Z</time><name>PT1268</name></trkpt>
<trkpt lat="53.226874" lon="-2.038444"><ele>451</ele><time>2020-08-19T09:42:52Z</time><name>PT1269</name></trkpt>
<trkpt lat="53.226867" lon="-2.038450"><ele>451</ele><time>2020-08-19T09:42:53Z</time><name>PT1270</name></trkpt>
<trkpt lat="53.226864" lon="-2.038461"><ele>452</ele><time>2020-08-19T09:42:54Z</time><name>PT1271</name></trkpt>
<trkpt lat="53.226863" lon="-2.038469"><ele>451</ele><time>2020-08-19T09:42:55Z</time><name>PT1272</name></trkpt>
<trkpt lat="53.226863" lon="-2.038469"><ele>451</ele><time>2020-08-19T09:42:56Z</time><name>PT1273</name></trkpt>
<trkpt lat="53.226863" lon="-2.038470"><ele>451</ele><time>2020-08-19T09:42:58Z</time><name>PT1274</name></trkpt>
<trkpt lat="53.226860" lon="-2.038459"><ele>451</ele><time>2020-08-19T09:43:05Z</time><name>PT1275</name></trkpt>
<trkpt lat="53.226862" lon="-2.038450"><ele>451</ele><time>2020-08-19T09:43:06Z</time><name>PT1276</name></trkpt>
<trkpt lat="53.226869" lon="-2.038444"><ele>451</ele><time>2020-08-19T09:43:07Z</time><name>PT1277</name></trkpt>
<trkpt lat="53.226879" lon="-2.038442"><ele>451</ele><time>2020-08-19T09:43:08Z</time><name>PT1278</name></trkpt>
<trkpt lat="53.226888" lon="-2.038444"><ele>451</ele><time>2020-08-19T09:43:09Z</time><name>PT1279</name></trkpt>
<trkpt lat="53.226896" lon="-2.038446"><ele>452</ele><time>2020-08-19T09:43:10Z</time><name>PT1280</name></trkpt>
<trkpt lat="53.226905" lon="-2.038446"><ele>452</ele><time>2020-08-19T09:43:11Z</time><name>PT1281</name></trkpt>
<trkpt lat="53.226915" lon="-2.038448"><ele>452</ele><time>2020-08-19T09:43:12Z</time><name>PT1282</name></trkpt>
<trkpt lat="53.226927" lon="-2.038449"><ele>451</ele><time>2020-08-19T09:43:13Z</time><name>PT1283</name></trkpt>
<trkpt lat="53.226937" lon="-2.038451"><ele>451</ele><time>2020-08-19T09:43:14Z</time><name>PT1284</name></trkpt>
<trkpt lat="53.226943" lon="-2.038452"><ele>451</ele><time>2020-08-19T09:43:15Z</time><name>PT1285</name></trkpt>
<trkpt lat="53.226945" lon="-2.038452"><ele>451</ele><time>2020-08-19T09:43:16Z</time><name>PT1286</name></trkpt>
<trkpt lat="53.226945" lon="-2.038453"><ele>451</ele><time>2020-08-19T09:43:17Z</time><name>PT1287</name></trkpt>
<trkpt lat="53.226945" lon="-2.038453"><ele>451</ele><time>2020-08-19T09:43:18Z</time><name>PT1288</name></trkpt>
<trkpt lat="53.226948" lon="-2.038449"><ele>451</ele><time>2020-08-19T09:43:26Z</time><name>PT1289</name></trkpt>
<trkpt lat="53.226945" lon="-2.038450"><ele>451</ele><time>2020-08-19T09:43:27Z</time><name>PT1290</name></trkpt>
<trkpt lat="53.226943" lon="-2.038450"><ele>451</ele><time>2020-08-19T09:43:28Z</time><name>PT1291</name></trkpt>
<trkpt lat="53.226941" lon="-2.038452"><ele>451</ele><time>2020-08-19T09:43:29Z</time><name>PT1292</name></trkpt>
<trkpt lat="53.226935" lon="-2.038450"><ele>451</ele><time>2020-08-19T09:43:30Z</time><name>PT1293</name></trkpt>
<trkpt lat="53.226926" lon="-2.038448"><ele>451</ele><time>2020-08-19T09:43:31Z</time><name>PT1294</name></trkpt>
<trkpt lat="53.226916" lon="-2.038449"><ele>452</ele><time>2020-08-19T09:43:32Z</time><name>PT1295</name></trkpt>
<trkpt lat="53.226905" lon="-2.038446"><ele>452</ele><time>2020-08-19T09:43:33Z</time><name>PT1296</name></trkpt>
<trkpt lat="53.226894" lon="-2.038443"><ele>452</ele><time>2020-08-19T09:43:34Z</time><name>PT1297</name></trkpt>
<trkpt lat="53.226882" lon="-2.038441"><ele>451</ele><time>2020-08-19T09:43:35Z</time><name>PT1298</name></trkpt>
<trkpt lat="53.226871" lon="-2.038446"><ele>451</ele><time>2020-08-19T09:43:36Z</time><name>PT1299</name></trkpt>
<trkpt lat="53.226866" lon="-2.038456"><ele>451</ele><time>2020-08-19T09:43:37Z</time><name>PT1300</name></trkpt>
<trkpt lat="53.226865" lon="-2.038473"><ele>451</ele><time>2020-08-19T09:43:38Z</time><name>PT1301</name></trkpt>
<trkpt lat="53.226866" lon="-2.038486"><ele>451</ele><time>2020-08-19T09:43:39Z</time><name>PT1302</name></trkpt>
<trkpt lat="53.226868" lon="-2.038491"><ele>451</ele><time>2020-08-19T09:43:40Z</time><name>PT1303</name></trkpt>
<trkpt lat="53.226870" lon="-2.038492"><ele>451</ele><time>2020-08-19T09:43:41Z</time><name>PT1304</name></trkpt>
<trkpt lat="53.226871" lon="-2.038493"><ele>451</ele><time>2020-08-19T09:43:42Z</time><name>PT1305</name></trkpt>
<trkpt lat="53.226877" lon="-2.038487"><ele>451</ele><time>2020-08-19T09:43:43Z</time><name>PT1306</name></trkpt>
<trkpt lat="53.226875" lon="-2.038487"><ele>451</ele><time>2020-08-19T09:43:44Z</time><name>PT1307</name></trkpt>
<trkpt lat="53.226872" lon="-2.038492"><ele>451</ele><time>2020-08-19T09:43:45Z</time><name>PT1308</name></trkpt>
<trkpt lat="53.226872" lon="-2.038498"><ele>451</ele><time>2020-08-19T09:43:46Z</time><name>PT1309</name></trkpt>
<trkpt lat="53.226873" lon="-2.038510"><ele>451</ele><time>2020-08-19T09:43:47Z</time><name>PT1310</name></trkpt>
<trkpt lat="53.226877" lon="-2.038524"><ele>451</ele><time>2020-08-19T09:43:48Z</time><name>PT1311</name></trkpt>
<trkpt lat="53.226882" lon="-2.038538"><ele>450</ele><time>2020-08-19T09:43:49Z</time><name>PT1312</name></trkpt>
<trkpt lat="53.226889" lon="-2.038551"><ele>451</ele><time>2020-08-19T09:43:50Z</time><name>PT1313</name></trkpt>
<trkpt lat="53.226895" lon="-2.038562"><ele>450</ele><time>2020-08-19T09:43:51Z</time><name>PT1314</name></trkpt>
<trkpt lat="53.226903" lon="-2.038574"><ele>451</ele><time>2020-08-19T09:43:52Z</time><name>PT1315</name></trkpt>
<trkpt lat="53.226912" lon="-2.038587"><ele>451</ele><time>2020-08-19T09:43:53Z</time><name>PT1316</name></trkpt>
<trkpt lat="53.226922" lon="-2.038600"><ele>451</ele><time>2020-08-19T09:43:54Z</time><name>PT1317</name></trkpt>
<trkpt lat="53.226931" lon="-2.038612"><ele>451</ele><time>2020-08-19T09:43:55Z</time><name>PT1318</name></trkpt>
<trkpt lat="53.226937" lon="-2.038620"><ele>451</ele><time>2020-08-19T09:43:56Z</time><name>PT1319</name></trkpt>
<trkpt lat="53.226939" lon="-2.038624"><ele>451</ele><time>2020-08-19T09:43:57Z</time><name>PT1320</name></trkpt>
<trkpt lat="53.226940" lon="-2.038626"><ele>451</ele><time>2020-08-19T09:43:58Z</time><name>PT1321</name></trkpt>
<trkpt lat="53.226940" lon="-2.038626"><ele>451</ele><time>2020-08-19T09:43:59Z</time><name>PT1322</name></trkpt>
<trkpt lat="53.226944" lon="-2.038631"><ele>451</ele><time>2020-08-19T09:44:00Z</time><name>PT1323</name></trkpt>
<trkpt lat="53.226951" lon="-2.038644"><ele>451</ele><time>2020-08-19T09:44:01Z</time><name>PT1324</name></trkpt>
<trkpt lat="53.226959" lon="-2.038654"><ele>452</ele><time>2020-08-19T09:44:02Z</time><name>PT1325</name></trkpt>
<trkpt lat="53.226966" lon="-2.038661"><ele>452</ele><time>2020-08-19T09:44:03Z</time><name>PT1326</name></trkpt>
<trkpt lat="53.226973" lon="-2.038673"><ele>452</ele><time>2020-08-19T09:44:04Z</time><name>PT1327</name></trkpt>
<trkpt lat="53.226982" lon="-2.038679"><ele>452</ele><time>2020-08-19T09:44:05Z</time><name>PT1328</name></trkpt>
<trkpt lat="53.226991" lon="-2.038684"><ele>452</ele><time>2020-08-19T09:44:06Z</time><name>PT1329</name></trkpt>
<trkpt lat="53.227001" lon="-2.038691"><ele>452</ele><time>2020-08-19T09:44:07Z</time><name>PT1330</name></trkpt>
<trkpt lat="53.227011" lon="-2.038697"><ele>453</ele><time>2020-08-19T09:44:08Z</time><name>PT1331</name></trkpt>
<trkpt lat="53.227020" lon="-2.038702"><ele>452</ele><time>2020-08-19T09:44:09Z</time><name>PT1332</name></trkpt>
<trkpt lat="53.227028" lon="-2.038707"><ele>452</ele><time>2020-08-19T09:44:10Z</time><name>PT1333</name></trkpt>
<trkpt lat="53.227037" lon="-2.038710"><ele>452</ele><time>2020-08-19T09:44:11Z</time><name>PT1334</name></trkpt>
<trkpt lat="53.227053" lon="-2.038719"><ele>453</ele><time>2020-08-19T09:44:12Z</time><name>PT1335</name></trkpt>
<trkpt lat="53.227066" lon="-2.038724"><ele>453</ele><time>2020-08-19T09:44:13Z</time><name>PT1336</name></trkpt>
<trkpt lat="53.227076" lon="-2.038726"><ele>453</ele><time>2020-08-19T09:44:14Z</time><name>PT1337</name></trkpt>
<trkpt lat="53.227087" lon="-2.038727"><ele>452</ele><time>2020-08-19T09:44:15Z</time><name>PT1338</name></trkpt>
<trkpt lat="53.227099" lon="-2.038728"><ele>452</ele><time>2020-08-19T09:44:16Z</time><name>PT1339</name></trkpt>
<trkpt lat="53.227110" lon="-2.038730"><ele>452</ele><time>2020-08-19T09:44:17Z</time><name>PT1340</name></trkpt>
<trkpt lat="53.227121" lon="-2.038729"><ele>452</ele><time>2020-08-19T09:44:18Z</time><name>PT1341</name></trkpt>
<trkpt lat="53.227132" lon="-2.038729"><ele>451</ele><time>2020-08-19T09:44:19Z</time><name>PT1342</name></trkpt>
<trkpt lat="53.227146" lon="-2.038730"><ele>451</ele><time>2020-08-19T09:44:20Z</time><name>PT1343</name></trkpt>
<trkpt lat="53.227159" lon="-2.038731"><ele>451</ele><time>2020-08-19T09:44:21Z</time><name>PT1344</name></trkpt>
<trkpt lat="53.227167" lon="-2.038728"><ele>451</ele><time>2020-08-19T09:44:22Z</time><name>PT1345</name></trkpt>
<trkpt lat="53.227178" lon="-2.038725"><ele>451</ele><time>2020-08-19T09:44:23Z</time><name>PT1346</name></trkpt>
<trkpt lat="53.227188" lon="-2.038725"><ele>451</ele><time>2020-08-19T09:44:24Z</time><name>PT1347</name></trkpt>
<trkpt lat="53.227197" lon="-2.038723"><ele>450</ele><time>2020-08-19T09:44:25Z</time><name>PT1348</name></trkpt>
<trkpt lat="53.227209" lon="-2.038721"><ele>450</ele><time>2020-08-19T09:44:26Z</time><name>PT1349</name></trkpt>
<trkpt lat="53.227217" lon="-2.038724"><ele>450</ele><time>2020-08-19T09:44:27Z</time><name>PT1350</name></trkpt>
<trkpt lat="53.227226" lon="-2.038732"><ele>449</ele><time>2020-08-19T09:44:28Z</time><name>PT1351</name></trkpt>
<trkpt lat="53.227236" lon="-2.038736"><ele>449</ele><time>2020-08-19T09:44:29Z</time><name>PT1352</name></trkpt>
<trkpt lat="53.227247" lon="-2.038737"><ele>449</ele><time>2020-08-19T09:44:30Z</time><name>PT1353</name></trkpt>
<trkpt lat="53.227258" lon="-2.038742"><ele>449</ele><time>2020-08-19T09:44:31Z</time><name>PT1354</name></trkpt>
<trkpt lat="53.227270" lon="-2.038746"><ele>449</ele><time>2020-08-19T09:44:32Z</time><name>PT1355</name></trkpt>
<trkpt lat="53.227279" lon="-2.038748"><ele>448</ele><time>2020-08-19T09:44:33Z</time><name>PT1356</name></trkpt>
<trkpt lat="53.227290" lon="-2.038747"><ele>448</ele><time>2020-08-19T09:44:34Z</time><name>PT1357</name></trkpt>
<trkpt lat="53.227299" lon="-2.038747"><ele>448</ele><time>2020-08-19T09:44:35Z</time><name>PT1358</name></trkpt>
<trkpt lat="53.227307" lon="-2.038751"><ele>448</ele><time>2020-08-19T09:44:36Z</time><name>PT1359</name></trkpt>
<trkpt lat="53.227317" lon="-2.038760"><ele>448</ele><time>2020-08-19T09:44:37Z</time><name>PT1360</name></trkpt>
<trkpt lat="53.227328" lon="-2.038764"><ele>448</ele><time>2020-08-19T09:44:38Z</time><name>PT1361</name></trkpt>
<trkpt lat="53.227341" lon="-2.038762"><ele>449</ele><time>2020-08-19T09:44:39Z</time><name>PT1362</name></trkpt>
<trkpt lat="53.227354" lon="-2.038766"><ele>449</ele><time>2020-08-19T09:44:40Z</time><name>PT1363</name></trkpt>
<trkpt lat="53.227364" lon="-2.038769"><ele>449</ele><time>2020-08-19T09:44:41Z</time><name>PT1364</name></trkpt>
<trkpt lat="53.227376" lon="-2.038773"><ele>449</ele><time>2020-08-19T09:44:42Z</time><name>PT1365</name></trkpt>
<trkpt lat="53.227387" lon="-2.038776"><ele>449</ele><time>2020-08-19T09:44:43Z</time><name>PT1366</name></trkpt>
<trkpt lat="53.227398" lon="-2.038778"><ele>449</ele><time>2020-08-19T09:44:44Z</time><name>PT1367</name></trkpt>
<trkpt lat="53.227411" lon="-2.038780"><ele>449</ele><time>2020-08-19T09:44:45Z</time><name>PT1368</name></trkpt>
<trkpt lat="53.227421" lon="-2.038780"><ele>449</ele><time>2020-08-19T09:44:46Z</time><name>PT1369</name></trkpt>
<trkpt lat="53.227432" lon="-2.038783"><ele>449</ele><time>2020-08-19T09:44:47Z</time><name>PT1370</name></trkpt>
<trkpt lat="53.227443" lon="-2.038782"><ele>449</ele><time>2020-08-19T09:44:48Z</time><name>PT1371</name></trkpt>
<trkpt lat="53.227453" lon="-2.038779"><ele>449</ele><time>2020-08-19T09:44:49Z</time><name>PT1372</name></trkpt>
<trkpt lat="53.227462" lon="-2.038778"><ele>448</ele><time>2020-08-19T09:44:50Z</time><name>PT1373</name></trkpt>
<trkpt lat="53.227471" lon="-2.038782"><ele>448</ele><time>2020-08-19T09:44:51Z</time><name>PT1374</name></trkpt>
<trkpt lat="53.227479" lon="-2.038789"><ele>448</ele><time>2020-08-19T09:44:52Z</time><name>PT1375</name></trkpt>
<trkpt lat="53.227488" lon="-2.038796"><ele>448</ele><time>2020-08-19T09:44:53Z</time><name>PT1376</name></trkpt>
<trkpt lat="53.227497" lon="-2.038802"><ele>448</ele><time>2020-08-19T09:44:54Z</time><name>PT1377</name></trkpt>
<trkpt lat="53.227503" lon="-2.038803"><ele>448</ele><time>2020-08-19T09:44:55Z</time><name>PT1378</name></trkpt>
<trkpt lat="53.227514" lon="-2.038809"><ele>448</ele><time>2020-08-19T09:44:56Z</time><name>PT1379</name></trkpt>
<trkpt lat="53.227526" lon="-2.038815"><ele>448</ele><time>2020-08-19T09:44:57Z</time><name>PT1380</name></trkpt>
<trkpt lat="53.227537" lon="-2.038818"><ele>448</ele><time>2020-08-19T09:44:58Z</time><name>PT1381</name></trkpt>
<trkpt lat="53.227551" lon="-2.038825"><ele>448</ele><time>2020-08-19T09:44:59Z</time><name>PT1382</name></trkpt>
<trkpt lat="53.227564" lon="-2.038824"><ele>448</ele><time>2020-08-19T09:45:00Z</time><name>PT1383</name></trkpt>
<trkpt lat="53.227575" lon="-2.038832"><ele>449</ele><time>2020-08-19T09:45:01Z</time><name>PT1384</name></trkpt>
<trkpt lat="53.227587" lon="-2.038833"><ele>449</ele><time>2020-08-19T09:45:02Z</time><name>PT1385</name></trkpt>
<trkpt lat="53.227601" lon="-2.038833"><ele>449</ele><time>2020-08-19T09:45:03Z</time><name>PT1386</name></trkpt>
<trkpt lat="53.227612" lon="-2.038828"><ele>448</ele><time>2020-08-19T09:45:04Z</time><name>PT1387</name></trkpt>
<trkpt lat="53.227624" lon="-2.038826"><ele>448</ele><time>2020-08-19T09:45:05Z</time><name>PT1388</name></trkpt>
<trkpt lat="53.227635" lon="-2.038827"><ele>448</ele><time>2020-08-19T09:45:06Z</time><name>PT1389</name></trkpt>
<trkpt lat="53.227647" lon="-2.038830"><ele>448</ele><time>2020-08-19T09:45:07Z</time><name>PT1390</name></trkpt>
<trkpt lat="53.227660" lon="-2.038834"><ele>448</ele><time>2020-08-19T09:45:08Z</time><name>PT1391</name></trkpt>
<trkpt lat="53.227671" lon="-2.038839"><ele>448</ele><time>2020-08-19T09:45:09Z</time><name>PT1392</name></trkpt>
<trkpt lat="53.227682" lon="-2.038841"><ele>448</ele><time>2020-08-19T09:45:10Z</time><name>PT1393</name></trkpt>
<trkpt lat="53.227694" lon="-2.038840"><ele>448</ele><time>2020-08-19T09:45:11Z</time><name>PT1394</name></trkpt>
<trkpt lat="53.227707" lon="-2.038843"><ele>448</ele><time>2020-08-19T09:45:12Z</time><name>PT1395</name></trkpt>
<trkpt lat="53.227720" lon="-2.038846"><ele>449</ele><time>2020-08-19T09:45:13Z</time><name>PT1396</name></trkpt>
<trkpt lat="53.227730" lon="-2.038847"><ele>448</ele><time>2020-08-19T09:45:14Z</time><name>PT1397</name></trkpt>
<trkpt lat="53.227740" lon="-2.038849"><ele>448</ele><time>2020-08-19T09:45:15Z</time><name>PT1398</name></trkpt>
<trkpt lat="53.227750" lon="-2.038855"><ele>448</ele><time>2020-08-19T09:45:16Z</time><name>PT1399</name></trkpt>
<trkpt lat="53.227761" lon="-2.038856"><ele>448</ele><time>2020-08-19T09:45:17Z</time><name>PT1400</name></trkpt>
<trkpt lat="53.227773" lon="-2.038862"><ele>448</ele><time>2020-08-19T09:45:18Z</time><name>PT1401</name></trkpt>
<trkpt lat="53.227787" lon="-2.038866"><ele>448</ele><time>2020-08-19T09:45:19Z</time><name>PT1402</name></trkpt>
<trkpt lat="53.227798" lon="-2.038866"><ele>447</ele><time>2020-08-19T09:45:20Z</time><name>PT1403</name></trkpt>
<trkpt lat="53.227809" lon="-2.038869"><ele>447</ele><time>2020-08-19T09:45:21Z</time><name>PT1404</name></trkpt>
<trkpt lat="53.227818" lon="-2.038868"><ele>447</ele><time>2020-08-19T09:45:22Z</time><name>PT1405</name></trkpt>
<trkpt lat="53.227828" lon="-2.038873"><ele>446</ele><time>2020-08-19T09:45:23Z</time><name>PT1406</name></trkpt>
<trkpt lat="53.227840" lon="-2.038878"><ele>446</ele><time>2020-08-19T09:45:24Z</time><name>PT1407</name></trkpt>
<trkpt lat="53.227848" lon="-2.038877"><ele>446</ele><time>2020-08-19T09:45:25Z</time><name>PT1408</name></trkpt>
<trkpt lat="53.227857" lon="-2.038877"><ele>446</ele><time>2020-08-19T09:45:26Z</time><name>PT1409</name></trkpt>
<trkpt lat="53.227867" lon="-2.038883"><ele>446</ele><time>2020-08-19T09:45:27Z</time><name>PT1410</name></trkpt>
<trkpt lat="53.227879" lon="-2.038889"><ele>446</ele><time>2020-08-19T09:45:28Z</time><name>PT1411</name></trkpt>
<trkpt lat="53.227889" lon="-2.038892"><ele>445</ele><time>2020-08-19T09:45:29Z</time><name>PT1412</name></trkpt>
<trkpt lat="53.227899" lon="-2.038893"><ele>445</ele><time>2020-08-19T09:45:30Z</time><name>PT1413</name></trkpt>
<trkpt lat="53.227909" lon="-2.038895"><ele>445</ele><time>2020-08-19T09:45:31Z</time><name>PT1414</name></trkpt>
<trkpt lat="53.227920" lon="-2.038898"><ele>446</ele><time>2020-08-19T09:45:32Z</time><name>PT1415</name></trkpt>
<trkpt lat="53.227927" lon="-2.038902"><ele>446</ele><time>2020-08-19T09:45:33Z</time><name>PT1416</name></trkpt>
<trkpt lat="53.227933" lon="-2.038903"><ele>446</ele><time>2020-08-19T09:45:34Z</time><name>PT1417</name></trkpt>
<trkpt lat="53.227936" lon="-2.038903"><ele>446</ele><time>2020-08-19T09:45:35Z</time><name>PT1418</name></trkpt>
<trkpt lat="53.227948" lon="-2.038908"><ele>446</ele><time>2020-08-19T09:45:36Z</time><name>PT1419</name></trkpt>
<trkpt lat="53.227963" lon="-2.038911"><ele>446</ele><time>2020-08-19T09:45:37Z</time><name>PT1420</name></trkpt>
<trkpt lat="53.227983" lon="-2.038918"><ele>447</ele><time>2020-08-19T09:45:38Z</time><name>PT1421</name></trkpt>
<trkpt lat="53.227995" lon="-2.038922"><ele>447</ele><time>2020-08-19T09:45:39Z</time><name>PT1422</name></trkpt>
<trkpt lat="53.228007" lon="-2.038928"><ele>447</ele><time>2020-08-19T09:45:40Z</time><name>PT1423</name></trkpt>
<trkpt lat="53.228019" lon="-2.038932"><ele>447</ele><time>2020-08-19T09:45:41Z</time><name>PT1424</name></trkpt>
<trkpt lat="53.228035" lon="-2.038931"><ele>447</ele><time>2020-08-19T09:45:42Z</time><name>PT1425</name></trkpt>
<trkpt lat="53.228048" lon="-2.038929"><ele>447</ele><time>2020-08-19T09:45:43Z</time><name>PT1426</name></trkpt>
<trkpt lat="53.228059" lon="-2.038931"><ele>447</ele><time>2020-08-19T09:45:44Z</time><name>PT1427</name></trkpt>
<trkpt lat="53.228069" lon="-2.038931"><ele>447</ele><time>2020-08-19T09:45:45Z</time><name>PT1428</name></trkpt>
<trkpt lat="53.228081" lon="-2.038930"><ele>447</ele><time>2020-08-19T09:45:46Z</time><name>PT1429</name></trkpt>
<trkpt lat="53.228134" lon="-2.038943"><ele>448</ele><time>2020-08-19T09:45:50Z</time><name>PT1430</name></trkpt>
<trkpt lat="53.228175" lon="-2.038956"><ele>447</ele><time>2020-08-19T09:45:54Z</time><name>PT1431</name></trkpt>
<trkpt lat="53.228224" lon="-2.038951"><ele>448</ele><time>2020-08-19T09:45:58Z</time><name>PT1432</name></trkpt>
<trkpt lat="53.228270" lon="-2.038954"><ele>448</ele><time>2020-08-19T09:46:02Z</time><name>PT1433</name></trkpt>
<trkpt lat="53.228315" lon="-2.038975"><ele>448</ele><time>2020-08-19T09:46:06Z</time><name>PT1434</name></trkpt>
<trkpt lat="53.228368" lon="-2.038968"><ele>449</ele><time>2020-08-19T09:46:10Z</time><name>PT1435</name></trkpt>
<trkpt lat="53.228414" lon="-2.038977"><ele>448</ele><time>2020-08-19T09:46:14Z</time><name>PT1436</name></trkpt>
<trkpt lat="53.228450" lon="-2.038991"><ele>448</ele><time>2020-08-19T09:46:18Z</time><name>PT1437</name></trkpt>
<trkpt lat="53.228486" lon="-2.038992"><ele>448</ele><time>2020-08-19T09:46:21Z</time><name>PT1438</name></trkpt>
<trkpt lat="53.228544" lon="-2.038986"><ele>447</ele><time>2020-08-19T09:46:25Z</time><name>PT1439</name></trkpt>
<trkpt lat="53.228586" lon="-2.038979"><ele>448</ele><time>2020-08-19T09:46:28Z</time><name>PT1440</name></trkpt>
<trkpt lat="53.228627" lon="-2.038986"><ele>448</ele><time>2020-08-19T09:46:31Z</time><name>PT1441</name></trkpt>
<trkpt lat="53.228682" lon="-2.038980"><ele>448</ele><time>2020-08-19T09:46:35Z</time><name>PT1442</name></trkpt>
<trkpt lat="53.228721" lon="-2.038985"><ele>448</ele><time>2020-08-19T09:46:38Z</time><name>PT1443</name></trkpt>
<trkpt lat="53.228776" lon="-2.038997"><ele>448</ele><time>2020-08-19T09:46:42Z</time><name>PT1444</name></trkpt>
<trkpt lat="53.228812" lon="-2.039014"><ele>448</ele><time>2020-08-19T09:46:45Z</time><name>PT1445</name></trkpt>
<trkpt lat="53.228855" lon="-2.039022"><ele>448</ele><time>2020-08-19T09:46:48Z</time><name>PT1446</name></trkpt>
<trkpt lat="53.228909" lon="-2.039036"><ele>448</ele><time>2020-08-19T09:46:52Z</time><name>PT1447</name></trkpt>
<trkpt lat="53.228949" lon="-2.039058"><ele>448</ele><time>2020-08-19T09:46:55Z</time><name>PT1448</name></trkpt>
<trkpt lat="53.229003" lon="-2.039071"><ele>449</ele><time>2020-08-19T09:46:59Z</time><name>PT1449</name></trkpt>
<trkpt lat="53.229044" lon="-2.039086"><ele>448</ele><time>2020-08-19T09:47:02Z</time><name>PT1450</name></trkpt>
<trkpt lat="53.229085" lon="-2.039095"><ele>449</ele><time>2020-08-19T09:47:05Z</time><name>PT1451</name></trkpt>
<trkpt lat="53.229137" lon="-2.039113"><ele>449</ele><time>2020-08-19T09:47:09Z</time><name>PT1452</name></trkpt>
<trkpt lat="53.229190" lon="-2.039123"><ele>450</ele><time>2020-08-19T09:47:13Z</time><name>PT1453</name></trkpt>
<trkpt lat="53.229241" lon="-2.039144"><ele>450</ele><time>2020-08-19T09:47:17Z</time><name>PT1454</name></trkpt>
<trkpt lat="53.229281" lon="-2.039140"><ele>450</ele><time>2020-08-19T09:47:21Z</time><name>PT1455</name></trkpt>
<trkpt lat="53.229316" lon="-2.039142"><ele>450</ele><time>2020-08-19T09:47:24Z</time><name>PT1456</name></trkpt>
<trkpt lat="53.229348" lon="-2.039156"><ele>450</ele><time>2020-08-19T09:47:28Z</time><name>PT1457</name></trkpt>
<trkpt lat="53.229367" lon="-2.039161"><ele>450</ele><time>2020-08-19T09:47:32Z</time><name>PT1458</name></trkpt>
<trkpt lat="53.229366" lon="-2.039156"><ele>450</ele><time>2020-08-19T09:47:36Z</time><name>PT1459</name></trkpt>
<trkpt lat="53.229371" lon="-2.039160"><ele>450</ele><time>2020-08-19T09:47:39Z</time><name>PT1460</name></trkpt>
<trkpt lat="53.229449" lon="-2.039191"><ele>451</ele><time>2020-08-19T09:47:43Z</time><name>PT1461</name></trkpt>
<trkpt lat="53.229487" lon="-2.039207"><ele>450</ele><time>2020-08-19T09:47:46Z</time><name>PT1462</name></trkpt>
<trkpt lat="53.229552" lon="-2.039239"><ele>449</ele><time>2020-08-19T09:47:50Z</time><name>PT1463</name></trkpt>
<trkpt lat="53.229616" lon="-2.039260"><ele>450</ele><time>2020-08-19T09:47:54Z</time><name>PT1464</name></trkpt>
<trkpt lat="53.229661" lon="-2.039272"><ele>449</ele><time>2020-08-19T09:47:57Z</time><name>PT1465</name></trkpt>
<trkpt lat="53.229709" lon="-2.039303"><ele>449</ele><time>2020-08-19T09:48:01Z</time><name>PT1466</name></trkpt>
<trkpt lat="53.229754" lon="-2.039308"><ele>449</ele><time>2020-08-19T09:48:04Z</time><name>PT1467</name></trkpt>
<trkpt lat="53.229806" lon="-2.039330"><ele>448</ele><time>2020-08-19T09:48:08Z</time><name>PT1468</name></trkpt>
<trkpt lat="53.229857" lon="-2.039343"><ele>448</ele><time>2020-08-19T09:48:12Z</time><name>PT1469</name></trkpt>
<trkpt lat="53.229891" lon="-2.039368"><ele>448</ele><time>2020-08-19T09:48:15Z</time><name>PT1470</name></trkpt>
<trkpt lat="53.229927" lon="-2.039384"><ele>448</ele><time>2020-08-19T09:48:18Z</time><name>PT1471</name></trkpt>
<trkpt lat="53.229977" lon="-2.039411"><ele>448</ele><time>2020-08-19T09:48:22Z</time><name>PT1472</name></trkpt>
<trkpt lat="53.230017" lon="-2.039429"><ele>448</ele><time>2020-08-19T09:48:25Z</time><name>PT1473</name></trkpt>
<trkpt lat="53.230059" lon="-2.039456"><ele>448</ele><time>2020-08-19T09:48:29Z</time><name>PT1474</name></trkpt>
<trkpt lat="53.230110" lon="-2.039484"><ele>449</ele><time>2020-08-19T09:48:33Z</time><name>PT1475</name></trkpt>
<trkpt lat="53.230142" lon="-2.039500"><ele>449</ele><time>2020-08-19T09:48:36Z</time><name>PT1476</name></trkpt>
<trkpt lat="53.230186" lon="-2.039510"><ele>449</ele><time>2020-08-19T09:48:39Z</time><name>PT1477</name></trkpt>
<trkpt lat="53.230225" lon="-2.039521"><ele>448</ele><time>2020-08-19T09:48:42Z</time><name>PT1478</name></trkpt>
<trkpt lat="53.230269" lon="-2.039531"><ele>448</ele><time>2020-08-19T09:48:46Z</time><name>PT1479</name></trkpt>
<trkpt lat="53.230301" lon="-2.039562"><ele>447</ele><time>2020-08-19T09:48:49Z</time><name>PT1480</name></trkpt>
<trkpt lat="53.230345" lon="-2.039569"><ele>447</ele><time>2020-08-19T09:48:53Z</time><name>PT1481</name></trkpt>
<trkpt lat="53.230381" lon="-2.039572"><ele>447</ele><time>2020-08-19T09:48:56Z</time><name>PT1482</name></trkpt>
<trkpt lat="53.230416" lon="-2.039578"><ele>447</ele><time>2020-08-19T09:48:59Z</time><name>PT1483</name></trkpt>
<trkpt lat="53.230462" lon="-2.039569"><ele>447</ele><time>2020-08-19T09:49:03Z</time><name>PT1484</name></trkpt>
<trkpt lat="53.230497" lon="-2.039565"><ele>448</ele><time>2020-08-19T09:49:06Z</time><name>PT1485</name></trkpt>
<trkpt lat="53.230533" lon="-2.039567"><ele>448</ele><time>2020-08-19T09:49:09Z</time><name>PT1486</name></trkpt>
<trkpt lat="53.230593" lon="-2.039567"><ele>449</ele><time>2020-08-19T09:49:13Z</time><name>PT1487</name></trkpt>
<trkpt lat="53.230634" lon="-2.039566"><ele>450</ele><time>2020-08-19T09:49:16Z</time><name>PT1488</name></trkpt>
<trkpt lat="53.230672" lon="-2.039571"><ele>449</ele><time>2020-08-19T09:49:19Z</time><name>PT1489</name></trkpt>
<trkpt lat="53.230725" lon="-2.039576"><ele>448</ele><time>2020-08-19T09:49:23Z</time><name>PT1490</name></trkpt>
<trkpt lat="53.230780" lon="-2.039597"><ele>448</ele><time>2020-08-19T09:49:27Z</time><name>PT1491</name></trkpt>
<trkpt lat="53.230827" lon="-2.039603"><ele>450</ele><time>2020-08-19T09:49:30Z</time><name>PT1492</name></trkpt>
<trkpt lat="53.230879" lon="-2.039612"><ele>450</ele><time>2020-08-19T09:49:34Z</time><name>PT1493</name></trkpt>
<trkpt lat="53.230916" lon="-2.039611"><ele>449</ele><time>2020-08-19T09:49:37Z</time><name>PT1494</name></trkpt>
<trkpt lat="53.230962" lon="-2.039623"><ele>448</ele><time>2020-08-19T09:49:41Z</time><name>PT1495</name></trkpt>
<trkpt lat="53.231001" lon="-2.039644"><ele>447</ele><time>2020-08-19T09:49:45Z</time><name>PT1496</name></trkpt>
<trkpt lat="53.231047" lon="-2.039665"><ele>447</ele><time>2020-08-19T09:49:49Z</time><name>PT1497</name></trkpt>
<trkpt lat="53.231089" lon="-2.039692"><ele>445</ele><time>2020-08-19T09:49:53Z</time><name>PT1498</name></trkpt>
<trkpt lat="53.231135" lon="-2.039714"><ele>444</ele><time>2020-08-19T09:49:57Z</time><name>PT1499</name></trkpt>
<trkpt lat="53.231182" lon="-2.039740"><ele>444</ele><time>2020-08-19T09:50:01Z</time><name>PT1500</name></trkpt>
<trkpt lat="53.231214" lon="-2.039764"><ele>444</ele><time>2020-08-19T09:50:04Z</time><name>PT1501</name></trkpt>
<trkpt lat="53.231262" lon="-2.039795"><ele>443</ele><time>2020-08-19T09:50:08Z</time><name>PT1502</name></trkpt>
<trkpt lat="53.231315" lon="-2.039813"><ele>443</ele><time>2020-08-19T09:50:12Z</time><name>PT1503</name></trkpt>
<trkpt lat="53.231355" lon="-2.039819"><ele>443</ele><time>2020-08-19T09:50:15Z</time><name>PT1504</name></trkpt>
<trkpt lat="53.231395" lon="-2.039830"><ele>443</ele><time>2020-08-19T09:50:18Z</time><name>PT1505</name></trkpt>
<trkpt lat="53.231445" lon="-2.039841"><ele>443</ele><time>2020-08-19T09:50:22Z</time><name>PT1506</name></trkpt>
<trkpt lat="53.231498" lon="-2.039847"><ele>443</ele><time>2020-08-19T09:50:26Z</time><name>PT1507</name></trkpt>
<trkpt lat="53.231553" lon="-2.039851"><ele>443</ele><time>2020-08-19T09:50:30Z</time><name>PT1508</name></trkpt>
<trkpt lat="53.231588" lon="-2.039848"><ele>443</ele><time>2020-08-19T09:50:33Z</time><name>PT1509</name></trkpt>
<trkpt lat="53.231630" lon="-2.039838"><ele>443</ele><time>2020-08-19T09:50:36Z</time><name>PT1510</name></trkpt>
<trkpt lat="53.231668" lon="-2.039827"><ele>442</ele><time>2020-08-19T09:50:39Z</time><name>PT1511</name></trkpt>
<trkpt lat="53.231708" lon="-2.039820"><ele>442</ele><time>2020-08-19T09:50:42Z</time><name>PT1512</name></trkpt>
<trkpt lat="53.231763" lon="-2.039810"><ele>441</ele><time>2020-08-19T09:50:46Z</time><name>PT1513</name></trkpt>
<trkpt lat="53.231807" lon="-2.039810"><ele>440</ele><time>2020-08-19T09:50:49Z</time><name>PT1514</name></trkpt>
<trkpt lat="53.231860" lon="-2.039807"><ele>441</ele><time>2020-08-19T09:50:53Z</time><name>PT1515</name></trkpt>
<trkpt lat="53.231902" lon="-2.039798"><ele>441</ele><time>2020-08-19T09:50:56Z</time><name>PT1516</name></trkpt>
<trkpt lat="53.231949" lon="-2.039788"><ele>440</ele><time>2020-08-19T09:51:00Z</time><name>PT1517</name></trkpt>
<trkpt lat="53.231980" lon="-2.039788"><ele>440</ele><time>2020-08-19T09:51:04Z</time><name>PT1518</name></trkpt>
<trkpt lat="53.231985" lon="-2.039785"><ele>440</ele><time>2020-08-19T09:51:07Z</time><name>PT1519</name></trkpt>
<trkpt lat="53.232035" lon="-2.039743"><ele>441</ele><time>2020-08-19T09:51:11Z</time><name>PT1520</name></trkpt>
<trkpt lat="53.232059" lon="-2.039707"><ele>442</ele><time>2020-08-19T09:51:14Z</time><name>PT1521</name></trkpt>
<trkpt lat="53.232087" lon="-2.039662"><ele>441</ele><time>2020-08-19T09:51:17Z</time><name>PT1522</name></trkpt>
<trkpt lat="53.232129" lon="-2.039593"><ele>441</ele><time>2020-08-19T09:51:21Z</time><name>PT1523</name></trkpt>
<trkpt lat="53.232169" lon="-2.039554"><ele>441</ele><time>2020-08-19T09:51:24Z</time><name>PT1524</name></trkpt>
<trkpt lat="53.232209" lon="-2.039494"><ele>442</ele><time>2020-08-19T09:51:28Z</time><name>PT1525</name></trkpt>
<trkpt lat="53.232243" lon="-2.039464"><ele>442</ele><time>2020-08-19T09:51:31Z</time><name>PT1526</name></trkpt>
<trkpt lat="53.232273" lon="-2.039431"><ele>442</ele><time>2020-08-19T09:51:34Z</time><name>PT1527</name></trkpt>
<trkpt lat="53.232311" lon="-2.039384"><ele>443</ele><time>2020-08-19T09:51:38Z</time><name>PT1528</name></trkpt>
<trkpt lat="53.232337" lon="-2.039348"><ele>444</ele><time>2020-08-19T09:51:41Z</time><name>PT1529</name></trkpt>
<trkpt lat="53.232362" lon="-2.039304"><ele>444</ele><time>2020-08-19T09:51:44Z</time><name>PT1530</name></trkpt>
<trkpt lat="53.232397" lon="-2.039268"><ele>445</ele><time>2020-08-19T09:51:48Z</time><name>PT1531</name></trkpt>
<trkpt lat="53.232420" lon="-2.039235"><ele>445</ele><time>2020-08-19T09:51:51Z</time><name>PT1532</name></trkpt>
<trkpt lat="53.232456" lon="-2.039200"><ele>446</ele><time>2020-08-19T09:51:55Z</time><name>PT1533</name></trkpt>
<trkpt lat="53.232491" lon="-2.039172"><ele>447</ele><time>2020-08-19T09:51:59Z</time><name>PT1534</name></trkpt>
<trkpt lat="53.232523" lon="-2.039138"><ele>448</ele><time>2020-08-19T09:52:03Z</time><name>PT1535</name></trkpt>
<trkpt lat="53.232553" lon="-2.039100"><ele>449</ele><time>2020-08-19T09:52:07Z</time><name>PT1536</name></trkpt>
<trkpt lat="53.232576" lon="-2.039072"><ele>450</ele><time>2020-08-19T09:52:11Z</time><name>PT1537</name></trkpt>
<trkpt lat="53.232586" lon="-2.039072"><ele>450</ele><time>2020-08-19T09:52:15Z</time><name>PT1538</name></trkpt>
<trkpt lat="53.232601" lon="-2.039066"><ele>450</ele><time>2020-08-19T09:52:19Z</time><name>PT1539</name></trkpt>
<trkpt lat="53.232636" lon="-2.039080"><ele>450</ele><time>2020-08-19T09:52:22Z</time><name>PT1540</name></trkpt>
<trkpt lat="53.232669" lon="-2.039079"><ele>449</ele><time>2020-08-19T09:52:25Z</time><name>PT1541</name></trkpt>
<trkpt lat="53.232712" lon="-2.039064"><ele>449</ele><time>2020-08-19T09:52:28Z</time><name>PT1542</name></trkpt>
<trkpt lat="53.232768" lon="-2.039051"><ele>449</ele><time>2020-08-19T09:52:32Z</time><name>PT1543</name></trkpt>
<trkpt lat="53.232822" lon="-2.039027"><ele>450</ele><time>2020-08-19T09:52:36Z</time><name>PT1544</name></trkpt>
<trkpt lat="53.232859" lon="-2.039024"><ele>449</ele><time>2020-08-19T09:52:39Z</time><name>PT1545</name></trkpt>
<trkpt lat="53.232918" lon="-2.039010"><ele>450</ele><time>2020-08-19T09:52:43Z</time><name>PT1546</name></trkpt>
<trkpt lat="53.232976" lon="-2.039005"><ele>452</ele><time>2020-08-19T09:52:47Z</time><name>PT1547</name></trkpt>
<trkpt lat="53.233031" lon="-2.038991"><ele>452</ele><time>2020-08-19T09:52:51Z</time><name>PT1548</name></trkpt>
<trkpt lat="53.233071" lon="-2.038977"><ele>453</ele><time>2020-08-19T09:52:54Z</time><name>PT1549</name></trkpt>
<trkpt lat="53.233120" lon="-2.038955"><ele>452</ele><time>2020-08-19T09:52:58Z</time><name>PT1550</name></trkpt>
<trkpt lat="53.233162" lon="-2.038943"><ele>452</ele><time>2020-08-19T09:53:01Z</time><name>PT1551</name></trkpt>
<trkpt lat="53.233208" lon="-2.038928"><ele>452</ele><time>2020-08-19T09:53:04Z</time><name>PT1552</name></trkpt>
<trkpt lat="53.233251" lon="-2.038899"><ele>451</ele><time>2020-08-19T09:53:07Z</time><name>PT1553</name></trkpt>
<trkpt lat="53.233265" lon="-2.038889"><ele>450</ele><time>2020-08-19T09:53:08Z</time><name>PT1554</name></trkpt>
<trkpt lat="53.233279" lon="-2.038881"><ele>450</ele><time>2020-08-19T09:53:09Z</time><name>PT1555</name></trkpt>
<trkpt lat="53.233291" lon="-2.038875"><ele>450</ele><time>2020-08-19T09:53:10Z</time><name>PT1556</name></trkpt>
<trkpt lat="53.233304" lon="-2.038870"><ele>450</ele><time>2020-08-19T09:53:11Z</time><name>PT1557</name></trkpt>
<trkpt lat="53.233334" lon="-2.038869"><ele>450</ele><time>2020-08-19T09:53:13Z</time><name>PT1558</name></trkpt>
<trkpt lat="53.233345" lon="-2.038863"><ele>451</ele><time>2020-08-19T09:53:14Z</time><name>PT1559</name></trkpt>
<trkpt lat="53.233356" lon="-2.038855"><ele>451</ele><time>2020-08-19T09:53:15Z</time><name>PT1560</name></trkpt>
<trkpt lat="53.233365" lon="-2.038850"><ele>451</ele><time>2020-08-19T09:53:16Z</time><name>PT1561</name></trkpt>
<trkpt lat="53.233377" lon="-2.038841"><ele>452</ele><time>2020-08-19T09:53:17Z</time><name>PT1562</name></trkpt>
<trkpt lat="53.233390" lon="-2.038835"><ele>452</ele><time>2020-08-19T09:53:18Z</time><name>PT1563</name></trkpt>
<trkpt lat="53.233404" lon="-2.038831"><ele>452</ele><time>2020-08-19T09:53:19Z</time><name>PT1564</name></trkpt>
<trkpt lat="53.233418" lon="-2.038822"><ele>452</ele><time>2020-08-19T09:53:20Z</time><name>PT1565</name></trkpt>
<trkpt lat="53.233431" lon="-2.038818"><ele>453</ele><time>2020-08-19T09:53:21Z</time><name>PT1566</name></trkpt>
<trkpt lat="53.233446" lon="-2.038818"><ele>453</ele><time>2020-08-19T09:53:22Z</time><name>PT1567</name></trkpt>
<trkpt lat="53.233461" lon="-2.038813"><ele>453</ele><time>2020-08-19T09:53:23Z</time><name>PT1568</name></trkpt>
<trkpt lat="53.233473" lon="-2.038807"><ele>454</ele><time>2020-08-19T09:53:24Z</time><name>PT1569</name></trkpt>
<trkpt lat="53.233487" lon="-2.038802"><ele>454</ele><time>2020-08-19T09:53:25Z</time><name>PT1570</name></trkpt>
<trkpt lat="53.233501" lon="-2.038794"><ele>454</ele><time>2020-08-19T09:53:26Z</time><name>PT1571</name></trkpt>
<trkpt lat="53.233513" lon="-2.038789"><ele>454</ele><time>2020-08-19T09:53:27Z</time><name>PT1572</name></trkpt>
<trkpt lat="53.233524" lon="-2.038784"><ele>454</ele><time>2020-08-19T09:53:28Z</time><name>PT1573</name></trkpt>
<trkpt lat="53.233534" lon="-2.038780"><ele>454</ele><time>2020-08-19T09:53:29Z</time><name>PT1574</name></trkpt>
<trkpt lat="53.233547" lon="-2.038774"><ele>454</ele><time>2020-08-19T09:53:30Z</time><name>PT1575</name></trkpt>
<trkpt lat="53.233557" lon="-2.038769"><ele>454</ele><time>2020-08-19T09:53:31Z</time><name>PT1576</name></trkpt>
<trkpt lat="53.233570" lon="-2.038760"><ele>454</ele><time>2020-08-19T09:53:32Z</time><name>PT1577</name></trkpt>
<trkpt lat="53.233583" lon="-2.038756"><ele>454</ele><time>2020-08-19T09:53:33Z</time><name>PT1578</name></trkpt>
<trkpt lat="53.233596" lon="-2.038752"><ele>454</ele><time>2020-08-19T09:53:34Z</time><name>PT1579</name></trkpt>
<trkpt lat="53.233607" lon="-2.038751"><ele>455</ele><time>2020-08-19T09:53:35Z</time><name>PT1580</name></trkpt>
<trkpt lat="53.233622" lon="-2.038750"><ele>455</ele><time>2020-08-19T09:53:36Z</time><name>PT1581</name></trkpt>
<trkpt lat="53.233635" lon="-2.038746"><ele>455</ele><time>2020-08-19T09:53:37Z</time><name>PT1582</name></trkpt>
<trkpt lat="53.233648" lon="-2.038742"><ele>455</ele><time>2020-08-19T09:53:38Z</time><name>PT1583</name></trkpt>
<trkpt lat="53.233662" lon="-2.038737"><ele>455</ele><time>2020-08-19T09:53:39Z</time><name>PT1584</name></trkpt>
<trkpt lat="53.233675" lon="-2.038735"><ele>455</ele><time>2020-08-19T09:53:40Z</time><name>PT1585</name></trkpt>
<trkpt lat="53.233686" lon="-2.038731"><ele>455</ele><time>2020-08-19T09:53:41Z</time><name>PT1586</name></trkpt>
<trkpt lat="53.233699" lon="-2.038730"><ele>455</ele><time>2020-08-19T09:53:42Z</time><name>PT1587</name></trkpt>
<trkpt lat="53.233715" lon="-2.038730"><ele>455</ele><time>2020-08-19T09:53:43Z</time><name>PT1588</name></trkpt>
<trkpt lat="53.233730" lon="-2.038727"><ele>455</ele><time>2020-08-19T09:53:44Z</time><name>PT1589</name></trkpt>
<trkpt lat="53.233743" lon="-2.038725"><ele>456</ele><time>2020-08-19T09:53:45Z</time><name>PT1590</name></trkpt>
<trkpt lat="53.233756" lon="-2.038721"><ele>456</ele><time>2020-08-19T09:53:46Z</time><name>PT1591</name></trkpt>
<trkpt lat="53.233770" lon="-2.038719"><ele>456</ele><time>2020-08-19T09:53:47Z</time><name>PT1592</name></trkpt>
<trkpt lat="53.233784" lon="-2.038716"><ele>456</ele><time>2020-08-19T09:53:48Z</time><name>PT1593</name></trkpt>
<trkpt lat="53.233797" lon="-2.038709"><ele>456</ele><time>2020-08-19T09:53:49Z</time><name>PT1594</name></trkpt>
<trkpt lat="53.233808" lon="-2.038702"><ele>456</ele><time>2020-08-19T09:53:50Z</time><name>PT1595</name></trkpt>
<trkpt lat="53.233820" lon="-2.038697"><ele>457</ele><time>2020-08-19T09:53:51Z</time><name>PT1596</name></trkpt>
<trkpt lat="53.233833" lon="-2.038690"><ele>457</ele><time>2020-08-19T09:53:52Z</time><name>PT1597</name></trkpt>
<trkpt lat="53.233845" lon="-2.038688"><ele>457</ele><time>2020-08-19T09:53:53Z</time><name>PT1598</name></trkpt>
<trkpt lat="53.233855" lon="-2.038688"><ele>457</ele><time>2020-08-19T09:53:54Z</time><name>PT1599</name></trkpt>
<trkpt lat="53.233863" lon="-2.038689"><ele>456</ele><time>2020-08-19T09:53:55Z</time><name>PT1600</name></trkpt>
<trkpt lat="53.233871" lon="-2.038688"><ele>457</ele><time>2020-08-19T09:53:56Z</time><name>PT1601</name></trkpt>
<trkpt lat="53.233882" lon="-2.038688"><ele>457</ele><time>2020-08-19T09:53:57Z</time><name>PT1602</name></trkpt>
<trkpt lat="53.233892" lon="-2.038688"><ele>456</ele><time>2020-08-19T09:53:58Z</time><name>PT1603</name></trkpt>
<trkpt lat="53.233907" lon="-2.038689"><ele>457</ele><time>2020-08-19T09:53:59Z</time><name>PT1604</name></trkpt>
<trkpt lat="53.233921" lon="-2.038686"><ele>457</ele><time>2020-08-19T09:54:00Z</time><name>PT1605</name></trkpt>
<trkpt lat="53.233935" lon="-2.038682"><ele>457</ele><time>2020-08-19T09:54:01Z</time><name>PT1606</name></trkpt>
<trkpt lat="53.233949" lon="-2.038673"><ele>457</ele><time>2020-08-19T09:54:02Z</time><name>PT1607</name></trkpt>
<trkpt lat="53.233964" lon="-2.038663"><ele>457</ele><time>2020-08-19T09:54:03Z</time><name>PT1608</name></trkpt>
<trkpt lat="53.233976" lon="-2.038649"><ele>457</ele><time>2020-08-19T09:54:04Z</time><name>PT1609</name></trkpt>
<trkpt lat="53.233988" lon="-2.038635"><ele>457</ele><time>2020-08-19T09:54:05Z</time><name>PT1610</name></trkpt>
<trkpt lat="53.233997" lon="-2.038630"><ele>457</ele><time>2020-08-19T09:54:06Z</time><name>PT1611</name></trkpt>
<trkpt lat="53.234012" lon="-2.038629"><ele>457</ele><time>2020-08-19T09:54:07Z</time><name>PT1612</name></trkpt>
<trkpt lat="53.234020" lon="-2.038626"><ele>457</ele><time>2020-08-19T09:54:08Z</time><name>PT1613</name></trkpt>
<trkpt lat="53.234029" lon="-2.038622"><ele>456</ele><time>2020-08-19T09:54:09Z</time><name>PT1614</name></trkpt>
<trkpt lat="53.234038" lon="-2.038612"><ele>456</ele><time>2020-08-19T09:54:10Z</time><name>PT1615</name></trkpt>
<trkpt lat="53.234048" lon="-2.038610"><ele>456</ele><time>2020-08-19T09:54:11Z</time><name>PT1616</name></trkpt>
<trkpt lat="53.234058" lon="-2.038610"><ele>456</ele><time>2020-08-19T09:54:12Z</time><name>PT1617</name></trkpt>
<trkpt lat="53.234066" lon="-2.038615"><ele>456</ele><time>2020-08-19T09:54:13Z</time><name>PT1618</name></trkpt>
<trkpt lat="53.234075" lon="-2.038620"><ele>455</ele><time>2020-08-19T09:54:14Z</time><name>PT1619</name></trkpt>
<trkpt lat="53.234085" lon="-2.038627"><ele>455</ele><time>2020-08-19T09:54:15Z</time><name>PT1620</name></trkpt>
<trkpt lat="53.234096" lon="-2.038634"><ele>454</ele><time>2020-08-19T09:54:16Z</time><name>PT1621</name></trkpt>
<trkpt lat="53.234110" lon="-2.038641"><ele>454</ele><time>2020-08-19T09:54:17Z</time><name>PT1622</name></trkpt>
<trkpt lat="53.234127" lon="-2.038653"><ele>455</ele><time>2020-08-19T09:54:18Z</time><name>PT1623</name></trkpt>
<trkpt lat="53.234141" lon="-2.038651"><ele>454</ele><time>2020-08-19T09:54:19Z</time><name>PT1624</name></trkpt>
<trkpt lat="53.234154" lon="-2.038651"><ele>454</ele><time>2020-08-19T09:54:20Z</time><name>PT1625</name></trkpt>
<trkpt lat="53.234163" lon="-2.038643"><ele>454</ele><time>2020-08-19T09:54:21Z</time><name>PT1626</name></trkpt>
<trkpt lat="53.234173" lon="-2.038638"><ele>454</ele><time>2020-08-19T09:54:22Z</time><name>PT1627</name></trkpt>
<trkpt lat="53.234185" lon="-2.038634"><ele>453</ele><time>2020-08-19T09:54:23Z</time><name>PT1628</name></trkpt>
<trkpt lat="53.234201" lon="-2.038633"><ele>453</ele><time>2020-08-19T09:54:24Z</time><name>PT1629</name></trkpt>
<trkpt lat="53.234213" lon="-2.038633"><ele>453</ele><time>2020-08-19T09:54:25Z</time><name>PT1630</name></trkpt>
<trkpt lat="53.234224" lon="-2.038636"><ele>453</ele><time>2020-08-19T09:54:26Z</time><name>PT1631</name></trkpt>
<trkpt lat="53.234233" lon="-2.038641"><ele>453</ele><time>2020-08-19T09:54:27Z</time><name>PT1632</name></trkpt>
<trkpt lat="53.234246" lon="-2.038643"><ele>452</ele><time>2020-08-19T09:54:28Z</time><name>PT1633</name></trkpt>
<trkpt lat="53.234256" lon="-2.038649"><ele>452</ele><time>2020-08-19T09:54:29Z</time><name>PT1634</name></trkpt>
<trkpt lat="53.234267" lon="-2.038652"><ele>452</ele><time>2020-08-19T09:54:30Z</time><name>PT1635</name></trkpt>
<trkpt lat="53.234279" lon="-2.038654"><ele>451</ele><time>2020-08-19T09:54:31Z</time><name>PT1636</name></trkpt>
<trkpt lat="53.234292" lon="-2.038660"><ele>451</ele><time>2020-08-19T09:54:32Z</time><name>PT1637</name></trkpt>
<trkpt lat="53.234303" lon="-2.038666"><ele>451</ele><time>2020-08-19T09:54:33Z</time><name>PT1638</name></trkpt>
<trkpt lat="53.234313" lon="-2.038666"><ele>451</ele><time>2020-08-19T09:54:34Z</time><name>PT1639</name></trkpt>
<trkpt lat="53.234325" lon="-2.038667"><ele>450</ele><time>2020-08-19T09:54:35Z</time><name>PT1640</name></trkpt>
<trkpt lat="53.234337" lon="-2.038670"><ele>450</ele><time>2020-08-19T09:54:36Z</time><name>PT1641</name></trkpt>
<trkpt lat="53.234349" lon="-2.038674"><ele>450</ele><time>2020-08-19T09:54:37Z</time><name>PT1642</name></trkpt>
<trkpt lat="53.234362" lon="-2.038681"><ele>450</ele><time>2020-08-19T09:54:38Z</time><name>PT1643</name></trkpt>
<trkpt lat="53.234378" lon="-2.038690"><ele>450</ele><time>2020-08-19T09:54:39Z</time><name>PT1644</name></trkpt>
<trkpt lat="53.234389" lon="-2.038691"><ele>450</ele><time>2020-08-19T09:54:40Z</time><name>PT1645</name></trkpt>
<trkpt lat="53.234400" lon="-2.038687"><ele>449</ele><time>2020-08-19T09:54:41Z</time><name>PT1646</name></trkpt>
<trkpt lat="53.234412" lon="-2.038684"><ele>450</ele><time>2020-08-19T09:54:42Z</time><name>PT1647</name></trkpt>
<trkpt lat="53.234422" lon="-2.038684"><ele>449</ele><time>2020-08-19T09:54:43Z</time><name>PT1648</name></trkpt>
<trkpt lat="53.234434" lon="-2.038687"><ele>450</ele><time>2020-08-19T09:54:44Z</time><name>PT1649</name></trkpt>
<trkpt lat="53.234446" lon="-2.038689"><ele>450</ele><time>2020-08-19T09:54:45Z</time><name>PT1650</name></trkpt>
<trkpt lat="53.234459" lon="-2.038692"><ele>450</ele><time>2020-08-19T09:54:46Z</time><name>PT1651</name></trkpt>
<trkpt lat="53.234471" lon="-2.038692"><ele>450</ele><time>2020-08-19T09:54:47Z</time><name>PT1652</name></trkpt>
<trkpt lat="53.234484" lon="-2.038692"><ele>450</ele><time>2020-08-19T09:54:48Z</time><name>PT1653</name></trkpt>
<trkpt lat="53.234496" lon="-2.038691"><ele>449</ele><time>2020-08-19T09:54:49Z</time><name>PT1654</name></trkpt>
<trkpt lat="53.234510" lon="-2.038693"><ele>450</ele><time>2020-08-19T09:54:50Z</time><name>PT1655</name></trkpt>
<trkpt lat="53.234522" lon="-2.038695"><ele>450</ele><time>2020-08-19T09:54:51Z</time><name>PT1656</name></trkpt>
<trkpt lat="53.234531" lon="-2.038695"><ele>450</ele><time>2020-08-19T09:54:52Z</time><name>PT1657</name></trkpt>
<trkpt lat="53.234536" lon="-2.038698"><ele>450</ele><time>2020-08-19T09:54:53Z</time><name>PT1658</name></trkpt>
<trkpt lat="53.234545" lon="-2.038697"><ele>449</ele><time>2020-08-19T09:54:54Z</time><name>PT1659</name></trkpt>
<trkpt lat="53.234560" lon="-2.038697"><ele>449</ele><time>2020-08-19T09:54:55Z</time><name>PT1660</name></trkpt>
<trkpt lat="53.234574" lon="-2.038699"><ele>449</ele><time>2020-08-19T09:54:56Z</time><name>PT1661</name></trkpt>
<trkpt lat="53.234584" lon="-2.038698"><ele>448</ele><time>2020-08-19T09:54:57Z</time><name>PT1662</name></trkpt>
<trkpt lat="53.234593" lon="-2.038693"><ele>448</ele><time>2020-08-19T09:54:58Z</time><name>PT1663</name></trkpt>
<trkpt lat="53.234603" lon="-2.038685"><ele>448</ele><time>2020-08-19T09:54:59Z</time><name>PT1664</name></trkpt>
<trkpt lat="53.234612" lon="-2.038674"><ele>448</ele><time>2020-08-19T09:55:00Z</time><name>PT1665</name></trkpt>
<trkpt lat="53.234620" lon="-2.038664"><ele>448</ele><time>2020-08-19T09:55:01Z</time><name>PT1666</name></trkpt>
<trkpt lat="53.234627" lon="-2.038657"><ele>447</ele><time>2020-08-19T09:55:02Z</time><name>PT1667</name></trkpt>
<trkpt lat="53.234638" lon="-2.038651"><ele>447</ele><time>2020-08-19T09:55:03Z</time><name>PT1668</name></trkpt>
<trkpt lat="53.234649" lon="-2.038644"><ele>447</ele><time>2020-08-19T09:55:04Z</time><name>PT1669</name></trkpt>
<trkpt lat="53.234659" lon="-2.038639"><ele>446</ele><time>2020-08-19T09:55:05Z</time><name>PT1670</name></trkpt>
<trkpt lat="53.234669" lon="-2.038633"><ele>446</ele><time>2020-08-19T09:55:06Z</time><name>PT1671</name></trkpt>
<trkpt lat="53.234678" lon="-2.038628"><ele>446</ele><time>2020-08-19T09:55:07Z</time><name>PT1672</name></trkpt>
<trkpt lat="53.234687" lon="-2.038617"><ele>446</ele><time>2020-08-19T09:55:08Z</time><name>PT1673</name></trkpt>
<trkpt lat="53.234692" lon="-2.038604"><ele>445</ele><time>2020-08-19T09:55:09Z</time><name>PT1674</name></trkpt>
<trkpt lat="53.234699" lon="-2.038593"><ele>445</ele><time>2020-08-19T09:55:10Z</time><name>PT1675</name></trkpt>
<trkpt lat="53.234706" lon="-2.038586"><ele>445</ele><time>2020-08-19T09:55:11Z</time><name>PT1676</name></trkpt>
<trkpt lat="53.234715" lon="-2.038577"><ele>445</ele><time>2020-08-19T09:55:12Z</time><name>PT1677</name></trkpt>
<trkpt lat="53.234722" lon="-2.038569"><ele>445</ele><time>2020-08-19T09:55:13Z</time><name>PT1678</name></trkpt>
<trkpt lat="53.234732" lon="-2.038558"><ele>445</ele><time>2020-08-19T09:55:14Z</time><name>PT1679</name></trkpt>
<trkpt lat="53.234740" lon="-2.038545"><ele>445</ele><time>2020-08-19T09:55:15Z</time><name>PT1680</name></trkpt>
<trkpt lat="53.234749" lon="-2.038538"><ele>445</ele><time>2020-08-19T09:55:16Z</time><name>PT1681</name></trkpt>
<trkpt lat="53.234758" lon="-2.038530"><ele>444</ele><time>2020-08-19T09:55:17Z</time><name>PT1682</name></trkpt>
<trkpt lat="53.234773" lon="-2.038526"><ele>444</ele><time>2020-08-19T09:55:18Z</time><name>PT1683</name></trkpt>
<trkpt lat="53.234786" lon="-2.038524"><ele>444</ele><time>2020-08-19T09:55:19Z</time><name>PT1684</name></trkpt>
<trkpt lat="53.234796" lon="-2.038513"><ele>444</ele><time>2020-08-19T09:55:20Z</time><name>PT1685</name></trkpt>
<trkpt lat="53.234799" lon="-2.038499"><ele>444</ele><time>2020-08-19T09:55:21Z</time><name>PT1686</name></trkpt>
<trkpt lat="53.234803" lon="-2.038481"><ele>444</ele><time>2020-08-19T09:55:22Z</time><name>PT1687</name></trkpt>
<trkpt lat="53.234805" lon="-2.038467"><ele>444</ele><time>2020-08-19T09:55:23Z</time><name>PT1688</name></trkpt>
<trkpt lat="53.234810" lon="-2.038456"><ele>444</ele><time>2020-08-19T09:55:24Z</time><name>PT1689</name></trkpt>
<trkpt lat="53.234814" lon="-2.038442"><ele>444</ele><time>2020-08-19T09:55:25Z</time><name>PT1690</name></trkpt>
<trkpt lat="53.234820" lon="-2.038428"><ele>444</ele><time>2020-08-19T09:55:26Z</time><name>PT1691</name></trkpt>
<trkpt lat="53.234823" lon="-2.038417"><ele>444</ele><time>2020-08-19T09:55:27Z</time><name>PT1692</name></trkpt>
<trkpt lat="53.234828" lon="-2.038406"><ele>444</ele><time>2020-08-19T09:55:28Z</time><name>PT1693</name></trkpt>
<trkpt lat="53.234833" lon="-2.038394"><ele>445</ele><time>2020-08-19T09:55:29Z</time><name>PT1694</name></trkpt>
<trkpt lat="53.234843" lon="-2.038386"><ele>444</ele><time>2020-08-19T09:55:30Z</time><name>PT1695</name></trkpt>
<trkpt lat="53.234851" lon="-2.038371"><ele>445</ele><time>2020-08-19T09:55:31Z</time><name>PT1696</name></trkpt>
<trkpt lat="53.234855" lon="-2.038354"><ele>445</ele><time>2020-08-19T09:55:32Z</time><name>PT1697</name></trkpt>
<trkpt lat="53.234859" lon="-2.038341"><ele>444</ele><time>2020-08-19T09:55:33Z</time><name>PT1698</name></trkpt>
<trkpt lat="53.234865" lon="-2.038324"><ele>444</ele><time>2020-08-19T09:55:34Z</time><name>PT1699</name></trkpt>
<trkpt lat="53.234873" lon="-2.038311"><ele>443</ele><time>2020-08-19T09:55:35Z</time><name>PT1700</name></trkpt>
<trkpt lat="53.234881" lon="-2.038296"><ele>443</ele><time>2020-08-19T09:55:36Z</time><name>PT1701</name></trkpt>
<trkpt lat="53.234889" lon="-2.038282"><ele>443</ele><time>2020-08-19T09:55:37Z</time><name>PT1702</name></trkpt>
<trkpt lat="53.234895" lon="-2.038270"><ele>442</ele><time>2020-08-19T09:55:38Z</time><name>PT1703</name></trkpt>
<trkpt lat="53.234899" lon="-2.038259"><ele>442</ele><time>2020-08-19T09:55:39Z</time><name>PT1704</name></trkpt>
<trkpt lat="53.234905" lon="-2.038244"><ele>442</ele><time>2020-08-19T09:55:40Z</time><name>PT1705</name></trkpt>
<trkpt lat="53.234908" lon="-2.038232"><ele>442</ele><time>2020-08-19T09:55:41Z</time><name>PT1706</name></trkpt>
<trkpt lat="53.234915" lon="-2.038222"><ele>442</ele><time>2020-08-19T09:55:42Z</time><name>PT1707</name></trkpt>
<trkpt lat="53.234922" lon="-2.038214"><ele>442</ele><time>2020-08-19T09:55:43Z</time><name>PT1708</name></trkpt>
<trkpt lat="53.234928" lon="-2.038206"><ele>441</ele><time>2020-08-19T09:55:44Z</time><name>PT1709</name></trkpt>
<trkpt lat="53.234933" lon="-2.038198"><ele>440</ele><time>2020-08-19T09:55:45Z</time><name>PT1710</name></trkpt>
<trkpt lat="53.234940" lon="-2.038189"><ele>440</ele><time>2020-08-19T09:55:46Z</time><name>PT1711</name></trkpt>
<trkpt lat="53.234944" lon="-2.038180"><ele>440</ele><time>2020-08-19T09:55:47Z</time><name>PT1712</name></trkpt>
<trkpt lat="53.234950" lon="-2.038174"><ele>439</ele><time>2020-08-19T09:55:48Z</time><name>PT1713</name></trkpt>
<trkpt lat="53.234960" lon="-2.038166"><ele>439</ele><time>2020-08-19T09:55:49Z</time><name>PT1714</name></trkpt>
<trkpt lat="53.234973" lon="-2.038152"><ele>439</ele><time>2020-08-19T09:55:50Z</time><name>PT1715</name></trkpt>
<trkpt lat="53.234982" lon="-2.038142"><ele>439</ele><time>2020-08-19T09:55:51Z</time><name>PT1716</name></trkpt>
<trkpt lat="53.234991" lon="-2.038137"><ele>439</ele><time>2020-08-19T09:55:52Z</time><name>PT1717</name></trkpt>
<trkpt lat="53.234997" lon="-2.038131"><ele>439</ele><time>2020-08-19T09:55:53Z</time><name>PT1718</name></trkpt>
<trkpt lat="53.235001" lon="-2.038124"><ele>439</ele><time>2020-08-19T09:55:54Z</time><name>PT1719</name></trkpt>
<trkpt lat="53.235009" lon="-2.038117"><ele>439</ele><time>2020-08-19T09:55:55Z</time><name>PT1720</name></trkpt>
<trkpt lat="53.235014" lon="-2.038110"><ele>438</ele><time>2020-08-19T09:55:56Z</time><name>PT1721</name></trkpt>
<trkpt lat="53.235028" lon="-2.038103"><ele>439</ele><time>2020-08-19T09:55:57Z</time><name>PT1722</name></trkpt>
<trkpt lat="53.235037" lon="-2.038094"><ele>439</ele><time>2020-08-19T09:55:58Z</time><name>PT1723</name></trkpt>
<trkpt lat="53.235047" lon="-2.038083"><ele>438</ele><time>2020-08-19T09:55:59Z</time><name>PT1724</name></trkpt>
<trkpt lat="53.235055" lon="-2.038076"><ele>436</ele><time>2020-08-19T09:56:00Z</time><name>PT1725</name></trkpt>
<trkpt lat="53.235070" lon="-2.038074"><ele>436</ele><time>2020-08-19T09:56:01Z</time><name>PT1726</name></trkpt>
<trkpt lat="53.235083" lon="-2.038061"><ele>436</ele><time>2020-08-19T09:56:02Z</time><name>PT1727</name></trkpt>
<trkpt lat="53.235100" lon="-2.038047"><ele>437</ele><time>2020-08-19T09:56:03Z</time><name>PT1728</name></trkpt>
<trkpt lat="53.235109" lon="-2.038034"><ele>436</ele><time>2020-08-19T09:56:04Z</time><name>PT1729</name></trkpt>
<trkpt lat="53.235120" lon="-2.038025"><ele>436</ele><time>2020-08-19T09:56:05Z</time><name>PT1730</name></trkpt>
<trkpt lat="53.235131" lon="-2.038015"><ele>436</ele><time>2020-08-19T09:56:06Z</time><name>PT1731</name></trkpt>
<trkpt lat="53.235138" lon="-2.038005"><ele>436</ele><time>2020-08-19T09:56:07Z</time><name>PT1732</name></trkpt>
<trkpt lat="53.235158" lon="-2.037987"><ele>436</ele><time>2020-08-19T09:56:10Z</time><name>PT1733</name></trkpt>
<trkpt lat="53.235189" lon="-2.037978"><ele>436</ele><time>2020-08-19T09:56:14Z</time><name>PT1734</name></trkpt>
<trkpt lat="53.235212" lon="-2.037987"><ele>435</ele><time>2020-08-19T09:56:18Z</time><name>PT1735</name></trkpt>
<trkpt lat="53.235236" lon="-2.038010"><ele>432</ele><time>2020-08-19T09:56:25Z</time><name>PT1736</name></trkpt>
<trkpt lat="53.235269" lon="-2.038030"><ele>430</ele><time>2020-08-19T09:56:28Z</time><name>PT1737</name></trkpt>
<trkpt lat="53.235302" lon="-2.038047"><ele>428</ele><time>2020-08-19T09:56:32Z</time><name>PT1738</name></trkpt>
<trkpt lat="53.235348" lon="-2.038044"><ele>426</ele><time>2020-08-19T09:56:36Z</time><name>PT1739</name></trkpt>
<trkpt lat="53.235380" lon="-2.038049"><ele>426</ele><time>2020-08-19T09:56:39Z</time><name>PT1740</name></trkpt>
<trkpt lat="53.235418" lon="-2.038089"><ele>425</ele><time>2020-08-19T09:56:42Z</time><name>PT1741</name></trkpt>
<trkpt lat="53.235459" lon="-2.038121"><ele>425</ele><time>2020-08-19T09:56:46Z</time><name>PT1742</name></trkpt>
<trkpt lat="53.235487" lon="-2.038144"><ele>425</ele><time>2020-08-19T09:56:49Z</time><name>PT1743</name></trkpt>
<trkpt lat="53.235522" lon="-2.038161"><ele>423</ele><time>2020-08-19T09:56:53Z</time><name>PT1744</name></trkpt>
<trkpt lat="53.235549" lon="-2.038160"><ele>423</ele><time>2020-08-19T09:56:56Z</time><name>PT1745</name></trkpt>
<trkpt lat="53.235580" lon="-2.038195"><ele>420</ele><time>2020-08-19T09:57:00Z</time><name>PT1746</name></trkpt>
<trkpt lat="53.235600" lon="-2.038200"><ele>419</ele><time>2020-08-19T09:57:03Z</time><name>PT1747</name></trkpt>
<trkpt lat="53.235618" lon="-2.038213"><ele>417</ele><time>2020-08-19T09:57:06Z</time><name>PT1748</name></trkpt>
<trkpt lat="53.235652" lon="-2.038212"><ele>415</ele><time>2020-08-19T09:57:10Z</time><name>PT1749</name></trkpt>
<trkpt lat="53.235684" lon="-2.038203"><ele>415</ele><time>2020-08-19T09:57:13Z</time><name>PT1750</name></trkpt>
<trkpt lat="53.235723" lon="-2.038190"><ele>414</ele><time>2020-08-19T09:57:17Z</time><name>PT1751</name></trkpt>
<trkpt lat="53.235745" lon="-2.038187"><ele>412</ele><time>2020-08-19T09:57:21Z</time><name>PT1752</name></trkpt>
<trkpt lat="53.235783" lon="-2.038183"><ele>412</ele><time>2020-08-19T09:57:24Z</time><name>PT1753</name></trkpt>
<trkpt lat="53.235812" lon="-2.038179"><ele>411</ele><time>2020-08-19T09:57:27Z</time><name>PT1754</name></trkpt>
<trkpt lat="53.235839" lon="-2.038170"><ele>410</ele><time>2020-08-19T09:57:30Z</time><name>PT1755</name></trkpt>
<trkpt lat="53.235869" lon="-2.038150"><ele>408</ele><time>2020-08-19T09:57:34Z</time><name>PT1756</name></trkpt>
<trkpt lat="53.235906" lon="-2.038165"><ele>408</ele><time>2020-08-19T09:57:38Z</time><name>PT1757</name></trkpt>
<trkpt lat="53.235931" lon="-2.038189"><ele>407</ele><time>2020-08-19T09:57:41Z</time><name>PT1758</name></trkpt>
<trkpt lat="53.235951" lon="-2.038213"><ele>405</ele><time>2020-08-19T09:57:44Z</time><name>PT1759</name></trkpt>
<trkpt lat="53.235971" lon="-2.038251"><ele>403</ele><time>2020-08-19T09:57:47Z</time><name>PT1760</name></trkpt>
<trkpt lat="53.235997" lon="-2.038295"><ele>401</ele><time>2020-08-19T09:57:51Z</time><name>PT1761</name></trkpt>
<trkpt lat="53.236050" lon="-2.038332"><ele>401</ele><time>2020-08-19T09:57:55Z</time><name>PT1762</name></trkpt>
<trkpt lat="53.236067" lon="-2.038359"><ele>400</ele><time>2020-08-19T09:57:58Z</time><name>PT1763</name></trkpt>
<trkpt lat="53.236102" lon="-2.038395"><ele>400</ele><time>2020-08-19T09:58:02Z</time><name>PT1764</name></trkpt>
<trkpt lat="53.236139" lon="-2.038411"><ele>399</ele><time>2020-08-19T09:58:05Z</time><name>PT1765</name></trkpt>
<trkpt lat="53.236168" lon="-2.038410"><ele>398</ele><time>2020-08-19T09:58:08Z</time><name>PT1766</name></trkpt>
<trkpt lat="53.236220" lon="-2.038381"><ele>400</ele><time>2020-08-19T09:58:12Z</time><name>PT1767</name></trkpt>
<trkpt lat="53.236262" lon="-2.038370"><ele>400</ele><time>2020-08-19T09:58:15Z</time><name>PT1768</name></trkpt>
<trkpt lat="53.236311" lon="-2.038351"><ele>399</ele><time>2020-08-19T09:58:19Z</time><name>PT1769</name></trkpt>
<trkpt lat="53.236351" lon="-2.038345"><ele>398</ele><time>2020-08-19T09:58:22Z</time><name>PT1770</name></trkpt>
<trkpt lat="53.236400" lon="-2.038327"><ele>397</ele><time>2020-08-19T09:58:26Z</time><name>PT1771</name></trkpt>
<trkpt lat="53.236447" lon="-2.038288"><ele>397</ele><time>2020-08-19T09:58:30Z</time><name>PT1772</name></trkpt>
<trkpt lat="53.236485" lon="-2.038258"><ele>397</ele><time>2020-08-19T09:58:33Z</time><name>PT1773</name></trkpt>
<trkpt lat="53.236542" lon="-2.038230"><ele>397</ele><time>2020-08-19T09:58:37Z</time><name>PT1774</name></trkpt>
<trkpt lat="53.236585" lon="-2.038219"><ele>397</ele><time>2020-08-19T09:58:40Z</time><name>PT1775</name></trkpt>
<trkpt lat="53.236637" lon="-2.038193"><ele>396</ele><time>2020-08-19T09:58:44Z</time><name>PT1776</name></trkpt>
<trkpt lat="53.236680" lon="-2.038182"><ele>396</ele><time>2020-08-19T09:58:47Z</time><name>PT1777</name></trkpt>
<trkpt lat="53.236735" lon="-2.038165"><ele>395</ele><time>2020-08-19T09:58:51Z</time><name>PT1778</name></trkpt>
<trkpt lat="53.236782" lon="-2.038143"><ele>395</ele><time>2020-08-19T09:58:55Z</time><name>PT1779</name></trkpt>
<trkpt lat="53.236830" lon="-2.038118"><ele>394</ele><time>2020-08-19T09:58:59Z</time><name>PT1780</name></trkpt>
<trkpt lat="53.236880" lon="-2.038088"><ele>393</ele><time>2020-08-19T09:59:03Z</time><name>PT1781</name></trkpt>
<trkpt lat="53.236933" lon="-2.038061"><ele>393</ele><time>2020-08-19T09:59:07Z</time><name>PT1782</name></trkpt>
<trkpt lat="53.236976" lon="-2.038050"><ele>392</ele><time>2020-08-19T09:59:10Z</time><name>PT1783</name></trkpt>
<trkpt lat="53.237012" lon="-2.038037"><ele>392</ele><time>2020-08-19T09:59:13Z</time><name>PT1784</name></trkpt>
<trkpt lat="53.237051" lon="-2.038027"><ele>391</ele><time>2020-08-19T09:59:16Z</time><name>PT1785</name></trkpt>
<trkpt lat="53.237099" lon="-2.038005"><ele>391</ele><time>2020-08-19T09:59:20Z</time><name>PT1786</name></trkpt>
<trkpt lat="53.237148" lon="-2.037988"><ele>392</ele><time>2020-08-19T09:59:24Z</time><name>PT1787</name></trkpt>
<trkpt lat="53.237191" lon="-2.037959"><ele>390</ele><time>2020-08-19T09:59:28Z</time><name>PT1788</name></trkpt>
<trkpt lat="53.237234" lon="-2.037908"><ele>390</ele><time>2020-08-19T09:59:32Z</time><name>PT1789</name></trkpt>
<trkpt lat="53.237274" lon="-2.037861"><ele>389</ele><time>2020-08-19T09:59:36Z</time><name>PT1790</name></trkpt>
<trkpt lat="53.237319" lon="-2.037835"><ele>385</ele><time>2020-08-19T09:59:40Z</time><name>PT1791</name></trkpt>
<trkpt lat="53.237358" lon="-2.037805"><ele>385</ele><time>2020-08-19T09:59:43Z</time><name>PT1792</name></trkpt>
<trkpt lat="53.237407" lon="-2.037741"><ele>385</ele><time>2020-08-19T09:59:47Z</time><name>PT1793</name></trkpt>
<trkpt lat="53.237434" lon="-2.037680"><ele>386</ele><time>2020-08-19T09:59:50Z</time><name>PT1794</name></trkpt>
<trkpt lat="53.237456" lon="-2.037604"><ele>386</ele><time>2020-08-19T09:59:54Z</time><name>PT1795</name></trkpt>
<trkpt lat="53.237482" lon="-2.037551"><ele>385</ele><time>2020-08-19T09:59:57Z</time><name>PT1796</name></trkpt>
<trkpt lat="53.237520" lon="-2.037485"><ele>387</ele><time>2020-08-19T10:00:01Z</time><name>PT1797</name></trkpt>
<trkpt lat="53.237561" lon="-2.037429"><ele>387</ele><time>2020-08-19T10:00:05Z</time><name>PT1798</name></trkpt>
<trkpt lat="53.237594" lon="-2.037383"><ele>387</ele><time>2020-08-19T10:00:08Z</time><name>PT1799</name></trkpt>
<trkpt lat="53.237627" lon="-2.037343"><ele>386</ele><time>2020-08-19T10:00:11Z</time><name>PT1800</name></trkpt>
<trkpt lat="53.237659" lon="-2.037299"><ele>385</ele><time>2020-08-19T10:00:14Z</time><name>PT1801</name></trkpt>
<trkpt lat="53.237690" lon="-2.037261"><ele>385</ele><time>2020-08-19T10:00:17Z</time><name>PT1802</name></trkpt>
<trkpt lat="53.237728" lon="-2.037197"><ele>386</ele><time>2020-08-19T10:00:21Z</time><name>PT1803</name></trkpt>
<trkpt lat="53.237764" lon="-2.037153"><ele>385</ele><time>2020-08-19T10:00:24Z</time><name>PT1804</name></trkpt>
<trkpt lat="53.237787" lon="-2.037104"><ele>385</ele><time>2020-08-19T10:00:27Z</time><name>PT1805</name></trkpt>
<trkpt lat="53.237825" lon="-2.037035"><ele>386</ele><time>2020-08-19T10:00:31Z</time><name>PT1806</name></trkpt>
<trkpt lat="53.237863" lon="-2.036964"><ele>386</ele><time>2020-08-19T10:00:35Z</time><name>PT1807</name></trkpt>
<trkpt lat="53.237908" lon="-2.036884"><ele>388</ele><time>2020-08-19T10:00:39Z</time><name>PT1808</name></trkpt>
<trkpt lat="53.237945" lon="-2.036807"><ele>389</ele><time>2020-08-19T10:00:43Z</time><name>PT1809</name></trkpt>
<trkpt lat="53.237977" lon="-2.036733"><ele>391</ele><time>2020-08-19T10:00:47Z</time><name>PT1810</name></trkpt>
<trkpt lat="53.237998" lon="-2.036684"><ele>390</ele><time>2020-08-19T10:00:50Z</time><name>PT1811</name></trkpt>
<trkpt lat="53.238026" lon="-2.036639"><ele>390</ele><time>2020-08-19T10:00:53Z</time><name>PT1812</name></trkpt>
<trkpt lat="53.238059" lon="-2.036575"><ele>389</ele><time>2020-08-19T10:00:57Z</time><name>PT1813</name></trkpt>
<trkpt lat="53.238086" lon="-2.036512"><ele>388</ele><time>2020-08-19T10:01:01Z</time><name>PT1814</name></trkpt>
<trkpt lat="53.238125" lon="-2.036442"><ele>388</ele><time>2020-08-19T10:01:05Z</time><name>PT1815</name></trkpt>
<trkpt lat="53.238169" lon="-2.036371"><ele>388</ele><time>2020-08-19T10:01:09Z</time><name>PT1816</name></trkpt>
<trkpt lat="53.238201" lon="-2.036321"><ele>390</ele><time>2020-08-19T10:01:12Z</time><name>PT1817</name></trkpt>
<trkpt lat="53.238236" lon="-2.036257"><ele>390</ele><time>2020-08-19T10:01:16Z</time><name>PT1818</name></trkpt>
<trkpt lat="53.238272" lon="-2.036203"><ele>388</ele><time>2020-08-19T10:01:20Z</time><name>PT1819</name></trkpt>
<trkpt lat="53.238306" lon="-2.036155"><ele>388</ele><time>2020-08-19T10:01:23Z</time><name>PT1820</name></trkpt>
<trkpt lat="53.238352" lon="-2.036101"><ele>389</ele><time>2020-08-19T10:01:27Z</time><name>PT1821</name></trkpt>
<trkpt lat="53.238381" lon="-2.036053"><ele>388</ele><time>2020-08-19T10:01:30Z</time><name>PT1822</name></trkpt>
<trkpt lat="53.238425" lon="-2.035987"><ele>389</ele><time>2020-08-19T10:01:34Z</time><name>PT1823</name></trkpt>
<trkpt lat="53.238462" lon="-2.035945"><ele>389</ele><time>2020-08-19T10:01:37Z</time><name>PT1824</name></trkpt>
<trkpt lat="53.238500" lon="-2.035884"><ele>389</ele><time>2020-08-19T10:01:41Z</time><name>PT1825</name></trkpt>
<trkpt lat="53.238545" lon="-2.035837"><ele>389</ele><time>2020-08-19T10:01:45Z</time><name>PT1826</name></trkpt>
<trkpt lat="53.238580" lon="-2.035798"><ele>390</ele><time>2020-08-19T10:01:48Z</time><name>PT1827</name></trkpt>
<trkpt lat="53.238616" lon="-2.035762"><ele>389</ele><time>2020-08-19T10:01:51Z</time><name>PT1828</name></trkpt>
<trkpt lat="53.238658" lon="-2.035711"><ele>390</ele><time>2020-08-19T10:01:55Z</time><name>PT1829</name></trkpt>
<trkpt lat="53.238708" lon="-2.035669"><ele>390</ele><time>2020-08-19T10:01:59Z</time><name>PT1830</name></trkpt>
<trkpt lat="53.238739" lon="-2.035626"><ele>389</ele><time>2020-08-19T10:02:02Z</time><name>PT1831</name></trkpt>
<trkpt lat="53.238780" lon="-2.035575"><ele>388</ele><time>2020-08-19T10:02:06Z</time><name>PT1832</name></trkpt>
<trkpt lat="53.238812" lon="-2.035540"><ele>387</ele><time>2020-08-19T10:02:09Z</time><name>PT1833</name></trkpt>
<trkpt lat="53.238863" lon="-2.035499"><ele>387</ele><time>2020-08-19T10:02:13Z</time><name>PT1834</name></trkpt>
<trkpt lat="53.238890" lon="-2.035467"><ele>387</ele><time>2020-08-19T10:02:16Z</time><name>PT1835</name></trkpt>
<trkpt lat="53.238936" lon="-2.035420"><ele>386</ele><time>2020-08-19T10:02:20Z</time><name>PT1836</name></trkpt>
<trkpt lat="53.238972" lon="-2.035383"><ele>386</ele><time>2020-08-19T10:02:23Z</time><name>PT1837</name></trkpt>
<trkpt lat="53.239025" lon="-2.035346"><ele>386</ele><time>2020-08-19T10:02:27Z</time><name>PT1838</name></trkpt>
<trkpt lat="53.239059" lon="-2.035307"><ele>385</ele><time>2020-08-19T10:02:30Z</time><name>PT1839</name></trkpt>
<trkpt lat="53.239091" lon="-2.035282"><ele>384</ele><time>2020-08-19T10:02:33Z</time><name>PT1840</name></trkpt>
<trkpt lat="53.239141" lon="-2.035248"><ele>384</ele><time>2020-08-19T10:02:37Z</time><name>PT1841</name></trkpt>
<trkpt lat="53.239192" lon="-2.035199"><ele>384</ele><time>2020-08-19T10:02:41Z</time><name>PT1842</name></trkpt>
<trkpt lat="53.239233" lon="-2.035178"><ele>384</ele><time>2020-08-19T10:02:44Z</time><name>PT1843</name></trkpt>
<trkpt lat="53.239282" lon="-2.035131"><ele>384</ele><time>2020-08-19T10:02:48Z</time><name>PT1844</name></trkpt>
<trkpt lat="53.239331" lon="-2.035093"><ele>385</ele><time>2020-08-19T10:02:52Z</time><name>PT1845</name></trkpt>
<trkpt lat="53.239379" lon="-2.035056"><ele>385</ele><time>2020-08-19T10:02:56Z</time><name>PT1846</name></trkpt>
<trkpt lat="53.239415" lon="-2.035030"><ele>385</ele><time>2020-08-19T10:02:59Z</time><name>PT1847</name></trkpt>
<trkpt lat="53.239466" lon="-2.035005"><ele>385</ele><time>2020-08-19T10:03:03Z</time><name>PT1848</name></trkpt>
<trkpt lat="53.239510" lon="-2.034974"><ele>384</ele><time>2020-08-19T10:03:07Z</time><name>PT1849</name></trkpt>
<trkpt lat="53.239569" lon="-2.034944"><ele>384</ele><time>2020-08-19T10:03:11Z</time><name>PT1850</name></trkpt>
<trkpt lat="53.239627" lon="-2.034912"><ele>384</ele><time>2020-08-19T10:03:15Z</time><name>PT1851</name></trkpt>
<trkpt lat="53.239683" lon="-2.034883"><ele>383</ele><time>2020-08-19T10:03:19Z</time><name>PT1852</name></trkpt>
<trkpt lat="53.239724" lon="-2.034864"><ele>384</ele><time>2020-08-19T10:03:22Z</time><name>PT1853</name></trkpt>
<trkpt lat="53.239774" lon="-2.034833"><ele>383</ele><time>2020-08-19T10:03:26Z</time><name>PT1854</name></trkpt>
<trkpt lat="53.239819" lon="-2.034804"><ele>382</ele><time>2020-08-19T10:03:30Z</time><name>PT1855</name></trkpt>
<trkpt lat="53.239861" lon="-2.034786"><ele>380</ele><time>2020-08-19T10:03:34Z</time><name>PT1856</name></trkpt>
<trkpt lat="53.239892" lon="-2.034786"><ele>380</ele><time>2020-08-19T10:03:37Z</time><name>PT1857</name></trkpt>
<trkpt lat="53.239917" lon="-2.034786"><ele>380</ele><time>2020-08-19T10:03:41Z</time><name>PT1858</name></trkpt>
<trkpt lat="53.239936" lon="-2.034781"><ele>380</ele><time>2020-08-19T10:03:45Z</time><name>PT1859</name></trkpt>
<trkpt lat="53.239969" lon="-2.034762"><ele>380</ele><time>2020-08-19T10:03:48Z</time><name>PT1860</name></trkpt>
<trkpt lat="53.240011" lon="-2.034743"><ele>381</ele><time>2020-08-19T10:03:52Z</time><name>PT1861</name></trkpt>
<trkpt lat="53.240063" lon="-2.034720"><ele>382</ele><time>2020-08-19T10:03:55Z</time><name>PT1862</name></trkpt>
<trkpt lat="53.240070" lon="-2.034721"><ele>382</ele><time>2020-08-19T10:03:56Z</time><name>PT1863</name></trkpt>
<trkpt lat="53.240058" lon="-2.034719"><ele>381</ele><time>2020-08-19T10:03:57Z</time><name>PT1864</name></trkpt>
<trkpt lat="53.240047" lon="-2.034715"><ele>381</ele><time>2020-08-19T10:03:58Z</time><name>PT1865</name></trkpt>
<trkpt lat="53.240038" lon="-2.034710"><ele>381</ele><time>2020-08-19T10:03:59Z</time><name>PT1866</name></trkpt>
<trkpt lat="53.240029" lon="-2.034700"><ele>380</ele><time>2020-08-19T10:04:00Z</time><name>PT1867</name></trkpt>
<trkpt lat="53.240021" lon="-2.034693"><ele>380</ele><time>2020-08-19T10:04:01Z</time><name>PT1868</name></trkpt>
<trkpt lat="53.240018" lon="-2.034689"><ele>380</ele><time>2020-08-19T10:04:02Z</time><name>PT1869</name></trkpt>
<trkpt lat="53.240018" lon="-2.034687"><ele>380</ele><time>2020-08-19T10:04:03Z</time><name>PT1870</name></trkpt>
<trkpt lat="53.240018" lon="-2.034686"><ele>380</ele><time>2020-08-19T10:04:04Z</time><name>PT1871</name></trkpt>
<trkpt lat="53.240018" lon="-2.034686"><ele>380</ele><time>2020-08-19T10:04:05Z</time><name>PT1872</name></trkpt>
<trkpt lat="53.240018" lon="-2.034687"><ele>380</ele><time>2020-08-19T10:04:20Z</time><name>PT1873</name></trkpt>
<trkpt lat="53.240017" lon="-2.034690"><ele>380</ele><time>2020-08-19T10:04:21Z</time><name>PT1874</name></trkpt>
<trkpt lat="53.240017" lon="-2.034692"><ele>380</ele><time>2020-08-19T10:04:22Z</time><name>PT1875</name></trkpt>
<trkpt lat="53.240014" lon="-2.034690"><ele>380</ele><time>2020-08-19T10:04:23Z</time><name>PT1876</name></trkpt>
<trkpt lat="53.240011" lon="-2.034695"><ele>380</ele><time>2020-08-19T10:04:24Z</time><name>PT1877</name></trkpt>
<trkpt lat="53.240010" lon="-2.034697"><ele>380</ele><time>2020-08-19T10:04:25Z</time><name>PT1878</name></trkpt>
<trkpt lat="53.240011" lon="-2.034692"><ele>380</ele><time>2020-08-19T10:04:29Z</time><name>PT1879</name></trkpt>
<trkpt lat="53.240010" lon="-2.034696"><ele>380</ele><time>2020-08-19T10:04:30Z</time><name>PT1880</name></trkpt>
<trkpt lat="53.240008" lon="-2.034697"><ele>380</ele><time>2020-08-19T10:04:31Z</time><name>PT1881</name></trkpt>
<trkpt lat="53.240011" lon="-2.034704"><ele>379</ele><time>2020-08-19T10:04:34Z</time><name>PT1882</name></trkpt>
<trkpt lat="53.240018" lon="-2.034701"><ele>379</ele><time>2020-08-19T10:04:35Z</time><name>PT1883</name></trkpt>
<trkpt lat="53.240028" lon="-2.034704"><ele>379</ele><time>2020-08-19T10:04:36Z</time><name>PT1884</name></trkpt>
<trkpt lat="53.240036" lon="-2.034715"><ele>380</ele><time>2020-08-19T10:04:37Z</time><name>PT1885</name></trkpt>
<trkpt lat="53.240047" lon="-2.034725"><ele>380</ele><time>2020-08-19T10:04:38Z</time><name>PT1886</name></trkpt>
<trkpt lat="53.240058" lon="-2.034727"><ele>380</ele><time>2020-08-19T10:04:39Z</time><name>PT1887</name></trkpt>
<trkpt lat="53.240068" lon="-2.034727"><ele>380</ele><time>2020-08-19T10:04:40Z</time><name>PT1888</name></trkpt>
<trkpt lat="53.240078" lon="-2.034731"><ele>380</ele><time>2020-08-19T10:04:41Z</time><name>PT1889</name></trkpt>
<trkpt lat="53.240087" lon="-2.034731"><ele>380</ele><time>2020-08-19T10:04:42Z</time><name>PT1890</name></trkpt>
<trkpt lat="53.240097" lon="-2.034736"><ele>381</ele><time>2020-08-19T10:04:43Z</time><name>PT1891</name></trkpt>
<trkpt lat="53.240108" lon="-2.034739"><ele>380</ele><time>2020-08-19T10:04:44Z</time><name>PT1892</name></trkpt>
<trkpt lat="53.240118" lon="-2.034739"><ele>380</ele><time>2020-08-19T10:04:45Z</time><name>PT1893</name></trkpt>
<trkpt lat="53.240126" lon="-2.034744"><ele>380</ele><time>2020-08-19T10:04:46Z</time><name>PT1894</name></trkpt>
<trkpt lat="53.240135" lon="-2.034746"><ele>380</ele><time>2020-08-19T10:04:47Z</time><name>PT1895</name></trkpt>
<trkpt lat="53.240147" lon="-2.034750"><ele>381</ele><time>2020-08-19T10:04:48Z</time><name>PT1896</name></trkpt>
<trkpt lat="53.240162" lon="-2.034754"><ele>382</ele><time>2020-08-19T10:04:49Z</time><name>PT1897</name></trkpt>
<trkpt lat="53.240177" lon="-2.034755"><ele>382</ele><time>2020-08-19T10:04:50Z</time><name>PT1898</name></trkpt>
<trkpt lat="53.240190" lon="-2.034757"><ele>382</ele><time>2020-08-19T10:04:51Z</time><name>PT1899</name></trkpt>
<trkpt lat="53.240204" lon="-2.034769"><ele>382</ele><time>2020-08-19T10:04:52Z</time><name>PT1900</name></trkpt>
<trkpt lat="53.240218" lon="-2.034781"><ele>381</ele><time>2020-08-19T10:04:53Z</time><name>PT1901</name></trkpt>
<trkpt lat="53.240230" lon="-2.034785"><ele>381</ele><time>2020-08-19T10:04:54Z</time><name>PT1902</name></trkpt>
<trkpt lat="53.240243" lon="-2.034791"><ele>382</ele><time>2020-08-19T10:04:55Z</time><name>PT1903</name></trkpt>
<trkpt lat="53.240253" lon="-2.034799"><ele>381</ele><time>2020-08-19T10:04:56Z</time><name>PT1904</name></trkpt>
<trkpt lat="53.240254" lon="-2.034812"><ele>381</ele><time>2020-08-19T10:04:57Z</time><name>PT1905</name></trkpt>
<trkpt lat="53.240261" lon="-2.034819"><ele>380</ele><time>2020-08-19T10:04:58Z</time><name>PT1906</name></trkpt>
<trkpt lat="53.240270" lon="-2.034820"><ele>380</ele><time>2020-08-19T10:04:59Z</time><name>PT1907</name></trkpt>
<trkpt lat="53.240279" lon="-2.034824"><ele>380</ele><time>2020-08-19T10:05:00Z</time><name>PT1908</name></trkpt>
<trkpt lat="53.240290" lon="-2.034827"><ele>379</ele><time>2020-08-19T10:05:01Z</time><name>PT1909</name></trkpt>
<trkpt lat="53.240304" lon="-2.034832"><ele>379</ele><time>2020-08-19T10:05:02Z</time><name>PT1910</name></trkpt>
<trkpt lat="53.240316" lon="-2.034836"><ele>379</ele><time>2020-08-19T10:05:03Z</time><name>PT1911</name></trkpt>
<trkpt lat="53.240331" lon="-2.034841"><ele>379</ele><time>2020-08-19T10:05:04Z</time><name>PT1912</name></trkpt>
<trkpt lat="53.240344" lon="-2.034845"><ele>379</ele><time>2020-08-19T10:05:05Z</time><name>PT1913</name></trkpt>
<trkpt lat="53.240360" lon="-2.034849"><ele>379</ele><time>2020-08-19T10:05:06Z</time><name>PT1914</name></trkpt>
<trkpt lat="53.240369" lon="-2.034852"><ele>379</ele><time>2020-08-19T10:05:07Z</time><name>PT1915</name></trkpt>
<trkpt lat="53.240384" lon="-2.034856"><ele>379</ele><time>2020-08-19T10:05:08Z</time><name>PT1916</name></trkpt>
<trkpt lat="53.240396" lon="-2.034866"><ele>379</ele><time>2020-08-19T10:05:09Z</time><name>PT1917</name></trkpt>
<trkpt lat="53.240409" lon="-2.034870"><ele>379</ele><time>2020-08-19T10:05:10Z</time><name>PT1918</name></trkpt>
<trkpt lat="53.240425" lon="-2.034875"><ele>380</ele><time>2020-08-19T10:05:11Z</time><name>PT1919</name></trkpt>
<trkpt lat="53.240442" lon="-2.034881"><ele>380</ele><time>2020-08-19T10:05:12Z</time><name>PT1920</name></trkpt>
<trkpt lat="53.240460" lon="-2.034884"><ele>380</ele><time>2020-08-19T10:05:13Z</time><name>PT1921</name></trkpt>
<trkpt lat="53.240475" lon="-2.034888"><ele>381</ele><time>2020-08-19T10:05:14Z</time><name>PT1922</name></trkpt>
<trkpt lat="53.240490" lon="-2.034893"><ele>381</ele><time>2020-08-19T10:05:15Z</time><name>PT1923</name></trkpt>
<trkpt lat="53.240505" lon="-2.034895"><ele>381</ele><time>2020-08-19T10:05:16Z</time><name>PT1924</name></trkpt>
<trkpt lat="53.240518" lon="-2.034896"><ele>381</ele><time>2020-08-19T10:05:17Z</time><name>PT1925</name></trkpt>
<trkpt lat="53.240532" lon="-2.034898"><ele>382</ele><time>2020-08-19T10:05:18Z</time><name>PT1926</name></trkpt>
<trkpt lat="53.240545" lon="-2.034904"><ele>382</ele><time>2020-08-19T10:05:19Z</time><name>PT1927</name></trkpt>
<trkpt lat="53.240561" lon="-2.034911"><ele>382</ele><time>2020-08-19T10:05:20Z</time><name>PT1928</name></trkpt>
<trkpt lat="53.240574" lon="-2.034921"><ele>382</ele><time>2020-08-19T10:05:21Z</time><name>PT1929</name></trkpt>
<trkpt lat="53.240584" lon="-2.034933"><ele>382</ele><time>2020-08-19T10:05:22Z</time><name>PT1930</name></trkpt>
<trkpt lat="53.240595" lon="-2.034936"><ele>382</ele><time>2020-08-19T10:05:23Z</time><name>PT1931</name></trkpt>
<trkpt lat="53.240611" lon="-2.034938"><ele>382</ele><time>2020-08-19T10:05:24Z</time><name>PT1932</name></trkpt>
<trkpt lat="53.240625" lon="-2.034944"><ele>382</ele><time>2020-08-19T10:05:25Z</time><name>PT1933</name></trkpt>
<trkpt lat="53.240640" lon="-2.034947"><ele>382</ele><time>2020-08-19T10:05:26Z</time><name>PT1934</name></trkpt>
<trkpt lat="53.240650" lon="-2.034956"><ele>382</ele><time>2020-08-19T10:05:27Z</time><name>PT1935</name></trkpt>
<trkpt lat="53.240660" lon="-2.034964"><ele>382</ele><time>2020-08-19T10:05:28Z</time><name>PT1936</name></trkpt>
<trkpt lat="53.240673" lon="-2.034968"><ele>381</ele><time>2020-08-19T10:05:29Z</time><name>PT1937</name></trkpt>
<trkpt lat="53.240686" lon="-2.034976"><ele>382</ele><time>2020-08-19T10:05:30Z</time><name>PT1938</name></trkpt>
<trkpt lat="53.240700" lon="-2.034985"><ele>382</ele><time>2020-08-19T10:05:31Z</time><name>PT1939</name></trkpt>
<trkpt lat="53.240714" lon="-2.034993"><ele>381</ele><time>2020-08-19T10:05:32Z</time><name>PT1940</name></trkpt>
<trkpt lat="53.240730" lon="-2.034992"><ele>381</ele><time>2020-08-19T10:05:33Z</time><name>PT1941</name></trkpt>
<trkpt lat="53.240744" lon="-2.034997"><ele>381</ele><time>2020-08-19T10:05:34Z</time><name>PT1942</name></trkpt>
<trkpt lat="53.240755" lon="-2.035003"><ele>381</ele><time>2020-08-19T10:05:35Z</time><name>PT1943</name></trkpt>
<trkpt lat="53.240764" lon="-2.035003"><ele>380</ele><time>2020-08-19T10:05:36Z</time><name>PT1944</name></trkpt>
<trkpt lat="53.240775" lon="-2.035005"><ele>381</ele><time>2020-08-19T10:05:37Z</time><name>PT1945</name></trkpt>
<trkpt lat="53.240785" lon="-2.035014"><ele>380</ele><time>2020-08-19T10:05:38Z</time><name>PT1946</name></trkpt>
<trkpt lat="53.240794" lon="-2.035019"><ele>380</ele><time>2020-08-19T10:05:39Z</time><name>PT1947</name></trkpt>
<trkpt lat="53.240806" lon="-2.035023"><ele>380</ele><time>2020-08-19T10:05:40Z</time><name>PT1948</name></trkpt>
<trkpt lat="53.240820" lon="-2.035028"><ele>380</ele><time>2020-08-19T10:05:41Z</time><name>PT1949</name></trkpt>
<trkpt lat="53.240832" lon="-2.035031"><ele>380</ele><time>2020-08-19T10:05:42Z</time><name>PT1950</name></trkpt>
<trkpt lat="53.240847" lon="-2.035034"><ele>380</ele><time>2020-08-19T10:05:43Z</time><name>PT1951</name></trkpt>
<trkpt lat="53.240852" lon="-2.035039"><ele>380</ele><time>2020-08-19T10:05:44Z</time><name>PT1952</name></trkpt>
<trkpt lat="53.240855" lon="-2.035042"><ele>380</ele><time>2020-08-19T10:05:45Z</time><name>PT1953</name></trkpt>
<trkpt lat="53.240858" lon="-2.035042"><ele>381</ele><time>2020-08-19T10:05:46Z</time><name>PT1954</name></trkpt>
<trkpt lat="53.240859" lon="-2.035045"><ele>381</ele><time>2020-08-19T10:05:47Z</time><name>PT1955</name></trkpt>
<trkpt lat="53.240861" lon="-2.035048"><ele>381</ele><time>2020-08-19T10:05:48Z</time><name>PT1956</name></trkpt>
<trkpt lat="53.240864" lon="-2.035057"><ele>380</ele><time>2020-08-19T10:05:51Z</time><name>PT1957</name></trkpt>
<trkpt lat="53.240866" lon="-2.035063"><ele>380</ele><time>2020-08-19T10:05:52Z</time><name>PT1958</name></trkpt>
<trkpt lat="53.240867" lon="-2.035070"><ele>380</ele><time>2020-08-19T10:05:53Z</time><name>PT1959</name></trkpt>
<trkpt lat="53.240873" lon="-2.035077"><ele>380</ele><time>2020-08-19T10:06:08Z</time><name>PT1960</name></trkpt>
<trkpt lat="53.240880" lon="-2.035080"><ele>380</ele><time>2020-08-19T10:06:09Z</time><name>PT1961</name></trkpt>
<trkpt lat="53.240889" lon="-2.035084"><ele>380</ele><time>2020-08-19T10:06:10Z</time><name>PT1962</name></trkpt>
<trkpt lat="53.240903" lon="-2.035093"><ele>380</ele><time>2020-08-19T10:06:11Z</time><name>PT1963</name></trkpt>
<trkpt lat="53.240918" lon="-2.035090"><ele>380</ele><time>2020-08-19T10:06:12Z</time><name>PT1964</name></trkpt>
<trkpt lat="53.240935" lon="-2.035093"><ele>380</ele><time>2020-08-19T10:06:13Z</time><name>PT1965</name></trkpt>
<trkpt lat="53.240949" lon="-2.035090"><ele>379</ele><time>2020-08-19T10:06:14Z</time><name>PT1966</name></trkpt>
<trkpt lat="53.240960" lon="-2.035095"><ele>379</ele><time>2020-08-19T10:06:15Z</time><name>PT1967</name></trkpt>
<trkpt lat="53.240972" lon="-2.035102"><ele>378</ele><time>2020-08-19T10:06:16Z</time><name>PT1968</name></trkpt>
<trkpt lat="53.240983" lon="-2.035103"><ele>378</ele><time>2020-08-19T10:06:17Z</time><name>PT1969</name></trkpt>
<trkpt lat="53.240993" lon="-2.035109"><ele>378</ele><time>2020-08-19T10:06:18Z</time><name>PT1970</name></trkpt>
<trkpt lat="53.241007" lon="-2.035111"><ele>378</ele><time>2020-08-19T10:06:19Z</time><name>PT1971</name></trkpt>
<trkpt lat="53.241020" lon="-2.035118"><ele>378</ele><time>2020-08-19T10:06:20Z</time><name>PT1972</name></trkpt>
<trkpt lat="53.241033" lon="-2.035123"><ele>377</ele><time>2020-08-19T10:06:21Z</time><name>PT1973</name></trkpt>
<trkpt lat="53.241051" lon="-2.035124"><ele>377</ele><time>2020-08-19T10:06:22Z</time><name>PT1974</name></trkpt>
<trkpt lat="53.241065" lon="-2.035126"><ele>378</ele><time>2020-08-19T10:06:23Z</time><name>PT1975</name></trkpt>
<trkpt lat="53.241080" lon="-2.035132"><ele>378</ele><time>2020-08-19T10:06:24Z</time><name>PT1976</name></trkpt>
<trkpt lat="53.241097" lon="-2.035141"><ele>377</ele><time>2020-08-19T10:06:25Z</time><name>PT1977</name></trkpt>
<trkpt lat="53.241108" lon="-2.035149"><ele>377</ele><time>2020-08-19T10:06:26Z</time><name>PT1978</name></trkpt>
<trkpt lat="53.241125" lon="-2.035158"><ele>377</ele><time>2020-08-19T10:06:27Z</time><name>PT1979</name></trkpt>
<trkpt lat="53.241141" lon="-2.035163"><ele>378</ele><time>2020-08-19T10:06:28Z</time><name>PT1980</name></trkpt>
<trkpt lat="53.241156" lon="-2.035166"><ele>378</ele><time>2020-08-19T10:06:29Z</time><name>PT1981</name></trkpt>
<trkpt lat="53.241170" lon="-2.035170"><ele>378</ele><time>2020-08-19T10:06:30Z</time><name>PT1982</name></trkpt>
<trkpt lat="53.241183" lon="-2.035175"><ele>378</ele><time>2020-08-19T10:06:31Z</time><name>PT1983</name></trkpt>
<trkpt lat="53.241197" lon="-2.035181"><ele>378</ele><time>2020-08-19T10:06:32Z</time><name>PT1984</name></trkpt>
<trkpt lat="53.241211" lon="-2.035188"><ele>378</ele><time>2020-08-19T10:06:33Z</time><name>PT1985</name></trkpt>
<trkpt lat="53.241224" lon="-2.035197"><ele>377</ele><time>2020-08-19T10:06:34Z</time><name>PT1986</name></trkpt>
<trkpt lat="53.241238" lon="-2.035206"><ele>377</ele><time>2020-08-19T10:06:35Z</time><name>PT1987</name></trkpt>
<trkpt lat="53.241250" lon="-2.035211"><ele>377</ele><time>2020-08-19T10:06:36Z</time><name>PT1988</name></trkpt>
<trkpt lat="53.241264" lon="-2.035217"><ele>377</ele><time>2020-08-19T10:06:37Z</time><name>PT1989</name></trkpt>
<trkpt lat="53.241277" lon="-2.035220"><ele>377</ele><time>2020-08-19T10:06:38Z</time><name>PT1990</name></trkpt>
<trkpt lat="53.241290" lon="-2.035225"><ele>377</ele><time>2020-08-19T10:06:39Z</time><name>PT1991</name></trkpt>
<trkpt lat="53.241304" lon="-2.035235"><ele>377</ele><time>2020-08-19T10:06:40Z</time><name>PT1992</name></trkpt>
<trkpt lat="53.241319" lon="-2.035242"><ele>378</ele><time>2020-08-19T10:06:41Z</time><name>PT1993</name></trkpt>
<trkpt lat="53.241333" lon="-2.035249"><ele>378</ele><time>2020-08-19T10:06:42Z</time><name>PT1994</name></trkpt>
<trkpt lat="53.241350" lon="-2.035258"><ele>378</ele><time>2020-08-19T10:06:43Z</time><name>PT1995</name></trkpt>
<trkpt lat="53.241361" lon="-2.035260"><ele>377</ele><time>2020-08-19T10:06:44Z</time><name>PT1996</name></trkpt>
<trkpt lat="53.241374" lon="-2.035263"><ele>378</ele><time>2020-08-19T10:06:45Z</time><name>PT1997</name></trkpt>
<trkpt lat="53.241390" lon="-2.035267"><ele>379</ele><time>2020-08-19T10:06:46Z</time><name>PT1998</name></trkpt>
<trkpt lat="53.241405" lon="-2.035272"><ele>379</ele><time>2020-08-19T10:06:47Z</time><name>PT1999</name></trkpt>
<trkpt lat="53.241419" lon="-2.035278"><ele>379</ele><time>2020-08-19T10:06:48Z</time><name>PT2000</name></trkpt>
<trkpt lat="53.241432" lon="-2.035281"><ele>379</ele><time>2020-08-19T10:06:49Z</time><name>PT2001</name></trkpt>
<trkpt lat="53.241446" lon="-2.035286"><ele>380</ele><time>2020-08-19T10:06:50Z</time><name>PT2002</name></trkpt>
<trkpt lat="53.241460" lon="-2.035294"><ele>379</ele><time>2020-08-19T10:06:51Z</time><name>PT2003</name></trkpt>
<trkpt lat="53.241474" lon="-2.035301"><ele>379</ele><time>2020-08-19T10:06:52Z</time><name>PT2004</name></trkpt>
<trkpt lat="53.241487" lon="-2.035309"><ele>379</ele><time>2020-08-19T10:06:53Z</time><name>PT2005</name></trkpt>
<trkpt lat="53.241498" lon="-2.035313"><ele>379</ele><time>2020-08-19T10:06:54Z</time><name>PT2006</name></trkpt>
<trkpt lat="53.241549" lon="-2.035341"><ele>378</ele><time>2020-08-19T10:06:58Z</time><name>PT2007</name></trkpt>
<trkpt lat="53.241600" lon="-2.035369"><ele>377</ele><time>2020-08-19T10:07:02Z</time><name>PT2008</name></trkpt>
<trkpt lat="53.241646" lon="-2.035394"><ele>375</ele><time>2020-08-19T10:07:06Z</time><name>PT2009</name></trkpt>
<trkpt lat="53.241685" lon="-2.035408"><ele>375</ele><time>2020-08-19T10:07:09Z</time><name>PT2010</name></trkpt>
<trkpt lat="53.241740" lon="-2.035436"><ele>374</ele><time>2020-08-19T10:07:13Z</time><name>PT2011</name></trkpt>
<trkpt lat="53.241796" lon="-2.035437"><ele>373</ele><time>2020-08-19T10:07:17Z</time><name>PT2012</name></trkpt>
<trkpt lat="53.241840" lon="-2.035444"><ele>373</ele><time>2020-08-19T10:07:20Z</time><name>PT2013</name></trkpt>
<trkpt lat="53.241882" lon="-2.035443"><ele>374</ele><time>2020-08-19T10:07:23Z</time><name>PT2014</name></trkpt>
<trkpt lat="53.241947" lon="-2.035456"><ele>374</ele><time>2020-08-19T10:07:27Z</time><name>PT2015</name></trkpt>
<trkpt lat="53.242001" lon="-2.035454"><ele>374</ele><time>2020-08-19T10:07:31Z</time><name>PT2016</name></trkpt>
<trkpt lat="53.242066" lon="-2.035441"><ele>374</ele><time>2020-08-19T10:07:35Z</time><name>PT2017</name></trkpt>
<trkpt lat="53.242121" lon="-2.035434"><ele>374</ele><time>2020-08-19T10:07:39Z</time><name>PT2018</name></trkpt>
<trkpt lat="53.242160" lon="-2.035429"><ele>374</ele><time>2020-08-19T10:07:42Z</time><name>PT2019</name></trkpt>
<trkpt lat="53.242202" lon="-2.035424"><ele>373</ele><time>2020-08-19T10:07:45Z</time><name>PT2020</name></trkpt>
<trkpt lat="53.242246" lon="-2.035421"><ele>373</ele><time>2020-08-19T10:07:48Z</time><name>PT2021</name></trkpt>
<trkpt lat="53.242302" lon="-2.035424"><ele>374</ele><time>2020-08-19T10:07:52Z</time><name>PT2022</name></trkpt>
<trkpt lat="53.242354" lon="-2.035423"><ele>374</ele><time>2020-08-19T10:07:56Z</time><name>PT2023</name></trkpt>
<trkpt lat="53.242402" lon="-2.035435"><ele>374</ele><time>2020-08-19T10:07:59Z</time><name>PT2024</name></trkpt>
<trkpt lat="53.242447" lon="-2.035447"><ele>373</ele><time>2020-08-19T10:08:02Z</time><name>PT2025</name></trkpt>
<trkpt lat="53.242510" lon="-2.035455"><ele>373</ele><time>2020-08-19T10:08:06Z</time><name>PT2026</name></trkpt>
<trkpt lat="53.242570" lon="-2.035473"><ele>373</ele><time>2020-08-19T10:08:10Z</time><name>PT2027</name></trkpt>
<trkpt lat="53.242611" lon="-2.035493"><ele>373</ele><time>2020-08-19T10:08:13Z</time><name>PT2028</name></trkpt>
<trkpt lat="53.242643" lon="-2.035520"><ele>374</ele><time>2020-08-19T10:08:16Z</time><name>PT2029</name></trkpt>
<trkpt lat="53.242685" lon="-2.035562"><ele>374</ele><time>2020-08-19T10:08:19Z</time><name>PT2030</name></trkpt>
<trkpt lat="53.242738" lon="-2.035599"><ele>375</ele><time>2020-08-19T10:08:23Z</time><name>PT2031</name></trkpt>
<trkpt lat="53.242776" lon="-2.035621"><ele>375</ele><time>2020-08-19T10:08:26Z</time><name>PT2032</name></trkpt>
<trkpt lat="53.242833" lon="-2.035640"><ele>376</ele><time>2020-08-19T10:08:30Z</time><name>PT2033</name></trkpt>
<trkpt lat="53.242892" lon="-2.035653"><ele>376</ele><time>2020-08-19T10:08:34Z</time><name>PT2034</name></trkpt>
<trkpt lat="53.242950" lon="-2.035643"><ele>377</ele><time>2020-08-19T10:08:38Z</time><name>PT2035</name></trkpt>
<trkpt lat="53.242990" lon="-2.035630"><ele>377</ele><time>2020-08-19T10:08:41Z</time><name>PT2036</name></trkpt>
<trkpt lat="53.243028" lon="-2.035603"><ele>378</ele><time>2020-08-19T10:08:44Z</time><name>PT2037</name></trkpt>
<trkpt lat="53.243084" lon="-2.035556"><ele>379</ele><time>2020-08-19T10:08:48Z</time><name>PT2038</name></trkpt>
<trkpt lat="53.243127" lon="-2.035515"><ele>380</ele><time>2020-08-19T10:08:51Z</time><name>PT2039</name></trkpt>
<trkpt lat="53.243172" lon="-2.035456"><ele>381</ele><time>2020-08-19T10:08:55Z</time><name>PT2040</name></trkpt>
<trkpt lat="53.243215" lon="-2.035402"><ele>380</ele><time>2020-08-19T10:08:59Z</time><name>PT2041</name></trkpt>
<trkpt lat="53.243254" lon="-2.035354"><ele>381</ele><time>2020-08-19T10:09:02Z</time><name>PT2042</name></trkpt>
<trkpt lat="53.243307" lon="-2.035287"><ele>381</ele><time>2020-08-19T10:09:06Z</time><name>PT2043</name></trkpt>
<trkpt lat="53.243350" lon="-2.035233"><ele>382</ele><time>2020-08-19T10:09:10Z</time><name>PT2044</name></trkpt>
<trkpt lat="53.243381" lon="-2.035195"><ele>382</ele><time>2020-08-19T10:09:13Z</time><name>PT2045</name></trkpt>
<trkpt lat="53.243411" lon="-2.035155"><ele>381</ele><time>2020-08-19T10:09:16Z</time><name>PT2046</name></trkpt>
<trkpt lat="53.243451" lon="-2.035104"><ele>379</ele><time>2020-08-19T10:09:20Z</time><name>PT2047</name></trkpt>
<trkpt lat="53.243493" lon="-2.035057"><ele>378</ele><time>2020-08-19T10:09:24Z</time><name>PT2048</name></trkpt>
<trkpt lat="53.243542" lon="-2.035019"><ele>378</ele><time>2020-08-19T10:09:28Z</time><name>PT2049</name></trkpt>
<trkpt lat="53.243581" lon="-2.034994"><ele>378</ele><time>2020-08-19T10:09:31Z</time><name>PT2050</name></trkpt>
<trkpt lat="53.243634" lon="-2.034961"><ele>378</ele><time>2020-08-19T10:09:35Z</time><name>PT2051</name></trkpt>
<trkpt lat="53.243676" lon="-2.034938"><ele>378</ele><time>2020-08-19T10:09:38Z</time><name>PT2052</name></trkpt>
<trkpt lat="53.243731" lon="-2.034909"><ele>378</ele><time>2020-08-19T10:09:42Z</time><name>PT2053</name></trkpt>
<trkpt lat="53.243790" lon="-2.034880"><ele>378</ele><time>2020-08-19T10:09:46Z</time><name>PT2054</name></trkpt>
<trkpt lat="53.243828" lon="-2.034860"><ele>378</ele><time>2020-08-19T10:09:49Z</time><name>PT2055</name></trkpt>
<trkpt lat="53.243883" lon="-2.034835"><ele>377</ele><time>2020-08-19T10:09:53Z</time><name>PT2056</name></trkpt>
<trkpt lat="53.243938" lon="-2.034816"><ele>377</ele><time>2020-08-19T10:09:57Z</time><name>PT2057</name></trkpt>
<trkpt lat="53.243986" lon="-2.034804"><ele>377</ele><time>2020-08-19T10:10:01Z</time><name>PT2058</name></trkpt>
<trkpt lat="53.244032" lon="-2.034781"><ele>376</ele><time>2020-08-19T10:10:05Z</time><name>PT2059</name></trkpt>
<trkpt lat="53.244066" lon="-2.034757"><ele>375</ele><time>2020-08-19T10:10:08Z</time><name>PT2060</name></trkpt>
<trkpt lat="53.244119" lon="-2.034726"><ele>376</ele><time>2020-08-19T10:10:12Z</time><name>PT2061</name></trkpt>
<trkpt lat="53.244140" lon="-2.034719"><ele>376</ele><time>2020-08-19T10:10:15Z</time><name>PT2062</name></trkpt>
<trkpt lat="53.244167" lon="-2.034690"><ele>375</ele><time>2020-08-19T10:10:18Z</time><name>PT2063</name></trkpt>
<trkpt lat="53.244203" lon="-2.034663"><ele>374</ele><time>2020-08-19T10:10:21Z</time><name>PT2064</name></trkpt>
<trkpt lat="53.244249" lon="-2.034636"><ele>373</ele><time>2020-08-19T10:10:25Z</time><name>PT2065</name></trkpt>
<trkpt lat="53.244294" lon="-2.034604"><ele>372</ele><time>2020-08-19T10:10:29Z</time><name>PT2066</name></trkpt>
<trkpt lat="53.244331" lon="-2.034584"><ele>372</ele><time>2020-08-19T10:10:32Z</time><name>PT2067</name></trkpt>
<trkpt lat="53.244374" lon="-2.034567"><ele>372</ele><time>2020-08-19T10:10:36Z</time><name>PT2068</name></trkpt>
<trkpt lat="53.244402" lon="-2.034555"><ele>371</ele><time>2020-08-19T10:10:39Z</time><name>PT2069</name></trkpt>
<trkpt lat="53.244431" lon="-2.034533"><ele>370</ele><time>2020-08-19T10:10:42Z</time><name>PT2070</name></trkpt>
<trkpt lat="53.244463" lon="-2.034498"><ele>370</ele><time>2020-08-19T10:10:45Z</time><name>PT2071</name></trkpt>
<trkpt lat="53.244512" lon="-2.034475"><ele>369</ele><time>2020-08-19T10:10:49Z</time><name>PT2072</name></trkpt>
<trkpt lat="53.244542" lon="-2.034459"><ele>369</ele><time>2020-08-19T10:10:53Z</time><name>PT2073</name></trkpt>
<trkpt lat="53.244559" lon="-2.034447"><ele>369</ele><time>2020-08-19T10:10:56Z</time><name>PT2074</name></trkpt>
<trkpt lat="53.244596" lon="-2.034433"><ele>368</ele><time>2020-08-19T10:11:00Z</time><name>PT2075</name></trkpt>
<trkpt lat="53.244620" lon="-2.034420"><ele>368</ele><time>2020-08-19T10:11:03Z</time><name>PT2076</name></trkpt>
<trkpt lat="53.244665" lon="-2.034394"><ele>367</ele><time>2020-08-19T10:11:07Z</time><name>PT2077</name></trkpt>
<trkpt lat="53.244706" lon="-2.034379"><ele>366</ele><time>2020-08-19T10:11:11Z</time><name>PT2078</name></trkpt>
<trkpt lat="53.244739" lon="-2.034355"><ele>366</ele><time>2020-08-19T10:11:14Z</time><name>PT2079</name></trkpt>
<trkpt lat="53.244780" lon="-2.034320"><ele>365</ele><time>2020-08-19T10:11:18Z</time><name>PT2080</name></trkpt>
<trkpt lat="53.244832" lon="-2.034278"><ele>365</ele><time>2020-08-19T10:11:22Z</time><name>PT2081</name></trkpt>
<trkpt lat="53.244862" lon="-2.034261"><ele>365</ele><time>2020-08-19T10:11:25Z</time><name>PT2082</name></trkpt>
<trkpt lat="53.244905" lon="-2.034226"><ele>362</ele><time>2020-08-19T10:11:29Z</time><name>PT2083</name></trkpt>
<trkpt lat="53.244940" lon="-2.034188"><ele>362</ele><time>2020-08-19T10:11:33Z</time><name>PT2084</name></trkpt>
<trkpt lat="53.244963" lon="-2.034160"><ele>360</ele><time>2020-08-19T10:11:36Z</time><name>PT2085</name></trkpt>
<trkpt lat="53.244998" lon="-2.034127"><ele>358</ele><time>2020-08-19T10:11:40Z</time><name>PT2086</name></trkpt>
<trkpt lat="53.245030" lon="-2.034104"><ele>357</ele><time>2020-08-19T10:11:43Z</time><name>PT2087</name></trkpt>
<trkpt lat="53.245070" lon="-2.034052"><ele>357</ele><time>2020-08-19T10:11:47Z</time><name>PT2088</name></trkpt>
<trkpt lat="53.245103" lon="-2.034022"><ele>356</ele><time>2020-08-19T10:11:50Z</time><name>PT2089</name></trkpt>
<trkpt lat="53.245146" lon="-2.033992"><ele>354</ele><time>2020-08-19T10:11:54Z</time><name>PT2090</name></trkpt>
<trkpt lat="53.245195" lon="-2.033954"><ele>354</ele><time>2020-08-19T10:11:58Z</time><name>PT2091</name></trkpt>
<trkpt lat="53.245226" lon="-2.033926"><ele>353</ele><time>2020-08-19T10:12:01Z</time><name>PT2092</name></trkpt>
<trkpt lat="53.245259" lon="-2.033904"><ele>353</ele><time>2020-08-19T10:12:04Z</time><name>PT2093</name></trkpt>
<trkpt lat="53.245296" lon="-2.033855"><ele>352</ele><time>2020-08-19T10:12:08Z</time><name>PT2094</name></trkpt>
<trkpt lat="53.245350" lon="-2.033822"><ele>350</ele><time>2020-08-19T10:12:12Z</time><name>PT2095</name></trkpt>
<trkpt lat="53.245384" lon="-2.033788"><ele>351</ele><time>2020-08-19T10:12:15Z</time><name>PT2096</name></trkpt>
<trkpt lat="53.245412" lon="-2.033730"><ele>350</ele><time>2020-08-19T10:12:18Z</time><name>PT2097</name></trkpt>
<trkpt lat="53.245437" lon="-2.033677"><ele>348</ele><time>2020-08-19T10:12:21Z</time><name>PT2098</name></trkpt>
<trkpt lat="53.245463" lon="-2.033634"><ele>347</ele><time>2020-08-19T10:12:24Z</time><name>PT2099</name></trkpt>
<trkpt lat="53.245487" lon="-2.033610"><ele>346</ele><time>2020-08-19T10:12:27Z</time><name>PT2100</name></trkpt>
<trkpt lat="53.245530" lon="-2.033574"><ele>346</ele><time>2020-08-19T10:12:31Z</time><name>PT2101</name></trkpt>
<trkpt lat="53.245585" lon="-2.033552"><ele>348</ele><time>2020-08-19T10:12:35Z</time><name>PT2102</name></trkpt>
<trkpt lat="53.245617" lon="-2.033529"><ele>346</ele><time>2020-08-19T10:12:38Z</time><name>PT2103</name></trkpt>
<trkpt lat="53.245696" lon="-2.033510"><ele>348</ele><time>2020-08-19T10:12:42Z</time><name>PT2104</name></trkpt>
<trkpt lat="53.245750" lon="-2.033506"><ele>349</ele><time>2020-08-19T10:12:45Z</time><name>PT2105</name></trkpt>
<trkpt lat="53.245811" lon="-2.033513"><ele>348</ele><time>2020-08-19T10:12:49Z</time><name>PT2106</name></trkpt>
<trkpt lat="53.245853" lon="-2.033514"><ele>348</ele><time>2020-08-19T10:12:52Z</time><name>PT2107</name></trkpt>
<trkpt lat="53.245906" lon="-2.033526"><ele>348</ele><time>2020-08-19T10:12:56Z</time><name>PT2108</name></trkpt>
<trkpt lat="53.245950" lon="-2.033529"><ele>347</ele><time>2020-08-19T10:13:00Z</time><name>PT2109</name></trkpt>
<trkpt lat="53.245998" lon="-2.033533"><ele>347</ele><time>2020-08-19T10:13:03Z</time><name>PT2110</name></trkpt>
<trkpt lat="53.246067" lon="-2.033536"><ele>349</ele><time>2020-08-19T10:13:07Z</time><name>PT2111</name></trkpt>
<trkpt lat="53.246119" lon="-2.033497"><ele>347</ele><time>2020-08-19T10:13:11Z</time><name>PT2112</name></trkpt>
<trkpt lat="53.246153" lon="-2.033473"><ele>347</ele><time>2020-08-19T10:13:14Z</time><name>PT2113</name></trkpt>
<trkpt lat="53.246202" lon="-2.033436"><ele>346</ele><time>2020-08-19T10:13:18Z</time><name>PT2114</name></trkpt>
<trkpt lat="53.246239" lon="-2.033400"><ele>346</ele><time>2020-08-19T10:13:21Z</time><name>PT2115</name></trkpt>
<trkpt lat="53.246257" lon="-2.033335"><ele>344</ele><time>2020-08-19T10:13:25Z</time><name>PT2116</name></trkpt>
<trkpt lat="53.246287" lon="-2.033273"><ele>343</ele><time>2020-08-19T10:13:29Z</time><name>PT2117</name></trkpt>
<trkpt lat="53.246324" lon="-2.033218"><ele>342</ele><time>2020-08-19T10:13:33Z</time><name>PT2118</name></trkpt>
<trkpt lat="53.246373" lon="-2.033173"><ele>341</ele><time>2020-08-19T10:13:37Z</time><name>PT2119</name></trkpt>
<trkpt lat="53.246408" lon="-2.033136"><ele>340</ele><time>2020-08-19T10:13:40Z</time><name>PT2120</name></trkpt>
<trkpt lat="53.246451" lon="-2.033101"><ele>339</ele><time>2020-08-19T10:13:44Z</time><name>PT2121</name></trkpt>
<trkpt lat="53.246500" lon="-2.033065"><ele>338</ele><time>2020-08-19T10:13:48Z</time><name>PT2122</name></trkpt>
<trkpt lat="53.246539" lon="-2.033038"><ele>338</ele><time>2020-08-19T10:13:51Z</time><name>PT2123</name></trkpt>
<trkpt lat="53.246566" lon="-2.033002"><ele>337</ele><time>2020-08-19T10:13:54Z</time><name>PT2124</name></trkpt>
<trkpt lat="53.246613" lon="-2.032964"><ele>338</ele><time>2020-08-19T10:13:58Z</time><name>PT2125</name></trkpt>
<trkpt lat="53.246631" lon="-2.032922"><ele>336</ele><time>2020-08-19T10:14:01Z</time><name>PT2126</name></trkpt>
<trkpt lat="53.246691" lon="-2.032875"><ele>338</ele><time>2020-08-19T10:14:05Z</time><name>PT2127</name></trkpt>
<trkpt lat="53.246765" lon="-2.032831"><ele>341</ele><time>2020-08-19T10:14:09Z</time><name>PT2128</name></trkpt>
<trkpt lat="53.246807" lon="-2.032805"><ele>343</ele><time>2020-08-19T10:14:12Z</time><name>PT2129</name></trkpt>
<trkpt lat="53.246853" lon="-2.032755"><ele>344</ele><time>2020-08-19T10:14:16Z</time><name>PT2130</name></trkpt>
<trkpt lat="53.246886" lon="-2.032732"><ele>344</ele><time>2020-08-19T10:14:19Z</time><name>PT2131</name></trkpt>
<trkpt lat="53.246929" lon="-2.032714"><ele>345</ele><time>2020-08-19T10:14:23Z</time><name>PT2132</name></trkpt>
<trkpt lat="53.246968" lon="-2.032683"><ele>345</ele><time>2020-08-19T10:14:27Z</time><name>PT2133</name></trkpt>
<trkpt lat="53.246999" lon="-2.032661"><ele>345</ele><time>2020-08-19T10:14:30Z</time><name>PT2134</name></trkpt>
<trkpt lat="53.247035" lon="-2.032640"><ele>345</ele><time>2020-08-19T10:14:33Z</time><name>PT2135</name></trkpt>
<trkpt lat="53.247072" lon="-2.032592"><ele>346</ele><time>2020-08-19T10:14:37Z</time><name>PT2136</name></trkpt>
<trkpt lat="53.247106" lon="-2.032577"><ele>349</ele><time>2020-08-19T10:14:41Z</time><name>PT2137</name></trkpt>
<trkpt lat="53.247117" lon="-2.032566"><ele>349</ele><time>2020-08-19T10:14:44Z</time><name>PT2138</name></trkpt>
<trkpt lat="53.247130" lon="-2.032563"><ele>351</ele><time>2020-08-19T10:14:48Z</time><name>PT2139</name></trkpt>
<trkpt lat="53.247125" lon="-2.032556"><ele>351</ele><time>2020-08-19T10:14:51Z</time><name>PT2140</name></trkpt>
<trkpt lat="53.247119" lon="-2.032537"><ele>351</ele><time>2020-08-19T10:14:55Z</time><name>PT2141</name></trkpt>
<trkpt lat="53.247115" lon="-2.032517"><ele>350</ele><time>2020-08-19T10:14:59Z</time><name>PT2142</name></trkpt>
<trkpt lat="53.247119" lon="-2.032498"><ele>351</ele><time>2020-08-19T10:15:02Z</time><name>PT2143</name></trkpt>
<trkpt lat="53.247140" lon="-2.032441"><ele>350</ele><time>2020-08-19T10:15:06Z</time><name>PT2144</name></trkpt>
<trkpt lat="53.247154" lon="-2.032434"><ele>350</ele><time>2020-08-19T10:15:09Z</time><name>PT2145</name></trkpt>
<trkpt lat="53.247157" lon="-2.032433"><ele>349</ele><time>2020-08-19T10:15:13Z</time><name>PT2146</name></trkpt>
<trkpt lat="53.247169" lon="-2.032430"><ele>350</ele><time>2020-08-19T10:15:17Z</time><name>PT2147</name></trkpt>
<trkpt lat="53.247166" lon="-2.032422"><ele>349</ele><time>2020-08-19T10:15:20Z</time><name>PT2148</name></trkpt>
<trkpt lat="53.247179" lon="-2.032412"><ele>348</ele><time>2020-08-19T10:15:24Z</time><name>PT2149</name></trkpt>
<trkpt lat="53.247180" lon="-2.032449"><ele>348</ele><time>2020-08-19T10:15:28Z</time><name>PT2150</name></trkpt>
<trkpt lat="53.247206" lon="-2.032426"><ele>348</ele><time>2020-08-19T10:15:32Z</time><name>PT2151</name></trkpt>
<trkpt lat="53.247237" lon="-2.032400"><ele>349</ele><time>2020-08-19T10:15:35Z</time><name>PT2152</name></trkpt>
<trkpt lat="53.247273" lon="-2.032348"><ele>349</ele><time>2020-08-19T10:15:39Z</time><name>PT2153</name></trkpt>
<trkpt lat="53.247312" lon="-2.032286"><ele>349</ele><time>2020-08-19T10:15:43Z</time><name>PT2154</name></trkpt>
<trkpt lat="53.247334" lon="-2.032236"><ele>349</ele><time>2020-08-19T10:15:46Z</time><name>PT2155</name></trkpt>
<trkpt lat="53.247362" lon="-2.032175"><ele>350</ele><time>2020-08-19T10:15:50Z</time><name>PT2156</name></trkpt>
<trkpt lat="53.247390" lon="-2.032137"><ele>350</ele><time>2020-08-19T10:15:53Z</time><name>PT2157</name></trkpt>
<trkpt lat="53.247399" lon="-2.032079"><ele>350</ele><time>2020-08-19T10:15:57Z</time><name>PT2158</name></trkpt>
<trkpt lat="53.247405" lon="-2.032033"><ele>349</ele><time>2020-08-19T10:16:00Z</time><name>PT2159</name></trkpt>
<trkpt lat="53.247432" lon="-2.031981"><ele>349</ele><time>2020-08-19T10:16:04Z</time><name>PT2160</name></trkpt>
<trkpt lat="53.247439" lon="-2.031974"><ele>348</ele><time>2020-08-19T10:16:08Z</time><name>PT2161</name></trkpt>
<trkpt lat="53.247421" lon="-2.031945"><ele>346</ele><time>2020-08-19T10:16:12Z</time><name>PT2162</name></trkpt>
<trkpt lat="53.247425" lon="-2.031906"><ele>346</ele><time>2020-08-19T10:16:16Z</time><name>PT2163</name></trkpt>
<trkpt lat="53.247447" lon="-2.031846"><ele>348</ele><time>2020-08-19T10:16:20Z</time><name>PT2164</name></trkpt>
<trkpt lat="53.247453" lon="-2.031800"><ele>348</ele><time>2020-08-19T10:16:23Z</time><name>PT2165</name></trkpt>
<trkpt lat="53.247456" lon="-2.031763"><ele>348</ele><time>2020-08-19T10:16:26Z</time><name>PT2166</name></trkpt>
<trkpt lat="53.247474" lon="-2.031707"><ele>350</ele><time>2020-08-19T10:16:30Z</time><name>PT2167</name></trkpt>
<trkpt lat="53.247486" lon="-2.031633"><ele>351</ele><time>2020-08-19T10:16:34Z</time><name>PT2168</name></trkpt>
<trkpt lat="53.247490" lon="-2.031582"><ele>352</ele><time>2020-08-19T10:16:37Z</time><name>PT2169</name></trkpt>
<trkpt lat="53.247496" lon="-2.031526"><ele>352</ele><time>2020-08-19T10:16:40Z</time><name>PT2170</name></trkpt>
<trkpt lat="53.247503" lon="-2.031465"><ele>352</ele><time>2020-08-19T10:16:44Z</time><name>PT2171</name></trkpt>
<trkpt lat="53.247506" lon="-2.031424"><ele>355</ele><time>2020-08-19T10:16:47Z</time><name>PT2172</name></trkpt>
<trkpt lat="53.247506" lon="-2.031377"><ele>355</ele><time>2020-08-19T10:16:50Z</time><name>PT2173</name></trkpt>
<trkpt lat="53.247504" lon="-2.031313"><ele>355</ele><time>2020-08-19T10:16:54Z</time><name>PT2174</name></trkpt>
<trkpt lat="53.247509" lon="-2.031265"><ele>356</ele><time>2020-08-19T10:16:58Z</time><name>PT2175</name></trkpt>
<trkpt lat="53.247507" lon="-2.031225"><ele>356</ele><time>2020-08-19T10:17:01Z</time><name>PT2176</name></trkpt>
<trkpt lat="53.247502" lon="-2.031183"><ele>356</ele><time>2020-08-19T10:17:05Z</time><name>PT2177</name></trkpt>
<trkpt lat="53.247495" lon="-2.031172"><ele>356</ele><time>2020-08-19T10:17:08Z</time><name>PT2178</name></trkpt>
<trkpt lat="53.247486" lon="-2.031151"><ele>356</ele><time>2020-08-19T10:17:12Z</time><name>PT2179</name></trkpt>
<trkpt lat="53.247483" lon="-2.031110"><ele>356</ele><time>2020-08-19T10:17:15Z</time><name>PT2180</name></trkpt>
<trkpt lat="53.247461" lon="-2.031065"><ele>356</ele><time>2020-08-19T10:17:19Z</time><name>PT2181</name></trkpt>
<trkpt lat="53.247438" lon="-2.031012"><ele>355</ele><time>2020-08-19T10:17:23Z</time><name>PT2182</name></trkpt>
<trkpt lat="53.247411" lon="-2.030967"><ele>354</ele><time>2020-08-19T10:17:27Z</time><name>PT2183</name></trkpt>
<trkpt lat="53.247394" lon="-2.030925"><ele>353</ele><time>2020-08-19T10:17:30Z</time><name>PT2184</name></trkpt>
<trkpt lat="53.247375" lon="-2.030867"><ele>353</ele><time>2020-08-19T10:17:34Z</time><name>PT2185</name></trkpt>
<trkpt lat="53.247354" lon="-2.030816"><ele>353</ele><time>2020-08-19T10:17:38Z</time><name>PT2186</name></trkpt>
<trkpt lat="53.247338" lon="-2.030781"><ele>354</ele><time>2020-08-19T10:17:41Z</time><name>PT2187</name></trkpt>
<trkpt lat="53.247316" lon="-2.030739"><ele>354</ele><time>2020-08-19T10:17:45Z</time><name>PT2188</name></trkpt>
<trkpt lat="53.247299" lon="-2.030696"><ele>355</ele><time>2020-08-19T10:17:48Z</time><name>PT2189</name></trkpt>
<trkpt lat="53.247281" lon="-2.030643"><ele>356</ele><time>2020-08-19T10:17:52Z</time><name>PT2190</name></trkpt>
<trkpt lat="53.247266" lon="-2.030599"><ele>357</ele><time>2020-08-19T10:17:55Z</time><name>PT2191</name></trkpt>
<trkpt lat="53.247249" lon="-2.030546"><ele>358</ele><time>2020-08-19T10:17:59Z</time><name>PT2192</name></trkpt>
<trkpt lat="53.247235" lon="-2.030506"><ele>358</ele><time>2020-08-19T10:18:02Z</time><name>PT2193</name></trkpt>
<trkpt lat="53.247214" lon="-2.030454"><ele>359</ele><time>2020-08-19T10:18:06Z</time><name>PT2194</name></trkpt>
<trkpt lat="53.247190" lon="-2.030411"><ele>359</ele><time>2020-08-19T10:18:10Z</time><name>PT2195</name></trkpt>
<trkpt lat="53.247167" lon="-2.030362"><ele>360</ele><time>2020-08-19T10:18:14Z</time><name>PT2196</name></trkpt>
<trkpt lat="53.247150" lon="-2.030317"><ele>360</ele><time>2020-08-19T10:18:17Z</time><name>PT2197</name></trkpt>
<trkpt lat="53.247140" lon="-2.030280"><ele>361</ele><time>2020-08-19T10:18:20Z</time><name>PT2198</name></trkpt>
<trkpt lat="53.247121" lon="-2.030225"><ele>362</ele><time>2020-08-19T10:18:24Z</time><name>PT2199</name></trkpt>
<trkpt lat="53.247096" lon="-2.030171"><ele>362</ele><time>2020-08-19T10:18:28Z</time><name>PT2200</name></trkpt>
<trkpt lat="53.247081" lon="-2.030141"><ele>363</ele><time>2020-08-19T10:18:31Z</time><name>PT2201</name></trkpt>
<trkpt lat="53.247072" lon="-2.030117"><ele>363</ele><time>2020-08-19T10:18:34Z</time><name>PT2202</name></trkpt>
<trkpt lat="53.247056" lon="-2.030070"><ele>363</ele><time>2020-08-19T10:18:38Z</time><name>PT2203</name></trkpt>
<trkpt lat="53.247050" lon="-2.030028"><ele>364</ele><time>2020-08-19T10:18:41Z</time><name>PT2204</name></trkpt>
<trkpt lat="53.247045" lon="-2.029988"><ele>364</ele><time>2020-08-19T10:18:44Z</time><name>PT2205</name></trkpt>
<trkpt lat="53.247028" lon="-2.029948"><ele>365</ele><time>2020-08-19T10:18:48Z</time><name>PT2206</name></trkpt>
<trkpt lat="53.247009" lon="-2.029912"><ele>365</ele><time>2020-08-19T10:18:52Z</time><name>PT2207</name></trkpt>
<trkpt lat="53.246997" lon="-2.029878"><ele>365</ele><time>2020-08-19T10:18:55Z</time><name>PT2208</name></trkpt>
<trkpt lat="53.246981" lon="-2.029838"><ele>364</ele><time>2020-08-19T10:18:59Z</time><name>PT2209</name></trkpt>
<trkpt lat="53.246970" lon="-2.029806"><ele>365</ele><time>2020-08-19T10:19:02Z</time><name>PT2210</name></trkpt>
<trkpt lat="53.246955" lon="-2.029787"><ele>365</ele><time>2020-08-19T10:19:06Z</time><name>PT2211</name></trkpt>
<trkpt lat="53.246951" lon="-2.029782"><ele>365</ele><time>2020-08-19T10:19:09Z</time><name>PT2212</name></trkpt>
<trkpt lat="53.246952" lon="-2.029780"><ele>365</ele><time>2020-08-19T10:19:13Z</time><name>PT2213</name></trkpt>
<trkpt lat="53.246943" lon="-2.029763"><ele>364</ele><time>2020-08-19T10:19:30Z</time><name>PT2214</name></trkpt>
<trkpt lat="53.246945" lon="-2.029762"><ele>364</ele><time>2020-08-19T10:19:34Z</time><name>PT2215</name></trkpt>
<trkpt lat="53.246940" lon="-2.029751"><ele>364</ele><time>2020-08-19T10:19:41Z</time><name>PT2216</name></trkpt>
<trkpt lat="53.246920" lon="-2.029755"><ele>365</ele><time>2020-08-19T10:19:55Z</time><name>PT2217</name></trkpt>
<trkpt lat="53.246919" lon="-2.029750"><ele>365</ele><time>2020-08-19T10:19:58Z</time><name>PT2218</name></trkpt>
<trkpt lat="53.246923" lon="-2.029750"><ele>365</ele><time>2020-08-19T10:20:05Z</time><name>PT2219</name></trkpt>
<trkpt lat="53.246925" lon="-2.029734"><ele>365</ele><time>2020-08-19T10:20:09Z</time><name>PT2220</name></trkpt>
<trkpt lat="53.246928" lon="-2.029727"><ele>365</ele><time>2020-08-19T10:20:12Z</time><name>PT2221</name></trkpt>
<trkpt lat="53.246928" lon="-2.029727"><ele>365</ele><time>2020-08-19T10:20:16Z</time><name>PT2222</name></trkpt>
<trkpt lat="53.246931" lon="-2.029727"><ele>365</ele><time>2020-08-19T10:20:41Z</time><name>PT2223</name></trkpt>
<trkpt lat="53.246933" lon="-2.029729"><ele>364</ele><time>2020-08-19T10:20:45Z</time><name>PT2224</name></trkpt>
<trkpt lat="53.246928" lon="-2.029722"><ele>364</ele><time>2020-08-19T10:21:02Z</time><name>PT2225</name></trkpt>
<trkpt lat="53.246917" lon="-2.029718"><ele>365</ele><time>2020-08-19T10:21:10Z</time><name>PT2226</name></trkpt>
<trkpt lat="53.246917" lon="-2.029724"><ele>365</ele><time>2020-08-19T10:22:02Z</time><name>PT2227</name></trkpt>
<trkpt lat="53.246919" lon="-2.029717"><ele>365</ele><time>2020-08-19T10:22:28Z</time><name>PT2228</name></trkpt>
<trkpt lat="53.246920" lon="-2.029715"><ele>365</ele><time>2020-08-19T10:22:32Z</time><name>PT2229</name></trkpt>
<trkpt lat="53.246934" lon="-2.029720"><ele>363</ele><time>2020-08-19T10:24:40Z</time><name>PT2230</name></trkpt>
<trkpt lat="53.246936" lon="-2.029733"><ele>364</ele><time>2020-08-19T10:24:48Z</time><name>PT2231</name></trkpt>
<trkpt lat="53.246928" lon="-2.029751"><ele>364</ele><time>2020-08-19T10:24:51Z</time><name>PT2232</name></trkpt>
<trkpt lat="53.246931" lon="-2.029757"><ele>364</ele><time>2020-08-19T10:24:55Z</time><name>PT2233</name></trkpt>
<trkpt lat="53.246929" lon="-2.029759"><ele>364</ele><time>2020-08-19T10:25:31Z</time><name>PT2234</name></trkpt>
<trkpt lat="53.246925" lon="-2.029755"><ele>365</ele><time>2020-08-19T10:25:35Z</time><name>PT2235</name></trkpt>
<trkpt lat="53.246932" lon="-2.029751"><ele>364</ele><time>2020-08-19T10:25:38Z</time><name>PT2236</name></trkpt>
<trkpt lat="53.246929" lon="-2.029737"><ele>364</ele><time>2020-08-19T10:25:42Z</time><name>PT2237</name></trkpt>
<trkpt lat="53.246927" lon="-2.029732"><ele>364</ele><time>2020-08-19T10:25:49Z</time><name>PT2238</name></trkpt>
<trkpt lat="53.246930" lon="-2.029739"><ele>363</ele><time>2020-08-19T10:25:52Z</time><name>PT2239</name></trkpt>
<trkpt lat="53.246926" lon="-2.029730"><ele>364</ele><time>2020-08-19T10:25:55Z</time><name>PT2240</name></trkpt>
<trkpt lat="53.246928" lon="-2.029727"><ele>364</ele><time>2020-08-19T10:25:59Z</time><name>PT2241</name></trkpt>
<trkpt lat="53.246928" lon="-2.029730"><ele>364</ele><time>2020-08-19T10:26:02Z</time><name>PT2242</name></trkpt>
<trkpt lat="53.246937" lon="-2.029737"><ele>363</ele><time>2020-08-19T10:26:05Z</time><name>PT2243</name></trkpt>
<trkpt lat="53.246924" lon="-2.029730"><ele>362</ele><time>2020-08-19T10:26:09Z</time><name>PT2244</name></trkpt>
<trkpt lat="53.246928" lon="-2.029731"><ele>361</ele><time>2020-08-19T10:26:12Z</time><name>PT2245</name></trkpt>
<trkpt lat="53.246928" lon="-2.029733"><ele>362</ele><time>2020-08-19T10:26:16Z</time><name>PT2246</name></trkpt>
<trkpt lat="53.246933" lon="-2.029738"><ele>363</ele><time>2020-08-19T10:26:19Z</time><name>PT2247</name></trkpt>
<trkpt lat="53.246944" lon="-2.029736"><ele>364</ele><time>2020-08-19T10:26:30Z</time><name>PT2248</name></trkpt>
<trkpt lat="53.246936" lon="-2.029686"><ele>365</ele><time>2020-08-19T10:26:34Z</time><name>PT2249</name></trkpt>
<trkpt lat="53.246925" lon="-2.029648"><ele>366</ele><time>2020-08-19T10:26:38Z</time><name>PT2250</name></trkpt>
<trkpt lat="53.246905" lon="-2.029610"><ele>367</ele><time>2020-08-19T10:26:41Z</time><name>PT2251</name></trkpt>
<trkpt lat="53.246885" lon="-2.029571"><ele>368</ele><time>2020-08-19T10:26:45Z</time><name>PT2252</name></trkpt>
<trkpt lat="53.246868" lon="-2.029543"><ele>368</ele><time>2020-08-19T10:26:48Z</time><name>PT2253</name></trkpt>
<trkpt lat="53.246854" lon="-2.029512"><ele>369</ele><time>2020-08-19T10:26:51Z</time><name>PT2254</name></trkpt>
<trkpt lat="53.246842" lon="-2.029473"><ele>369</ele><time>2020-08-19T10:26:55Z</time><name>PT2255</name></trkpt>
<trkpt lat="53.246827" lon="-2.029437"><ele>369</ele><time>2020-08-19T10:26:59Z</time><name>PT2256</name></trkpt>
<trkpt lat="53.246810" lon="-2.029400"><ele>370</ele><time>2020-08-19T10:27:02Z</time><name>PT2257</name></trkpt>
<trkpt lat="53.246785" lon="-2.029349"><ele>370</ele><time>2020-08-19T10:27:06Z</time><name>PT2258</name></trkpt>
<trkpt lat="53.246773" lon="-2.029321"><ele>370</ele><time>2020-08-19T10:27:09Z</time><name>PT2259</name></trkpt>
<trkpt lat="53.246751" lon="-2.029256"><ele>371</ele><time>2020-08-19T10:27:13Z</time><name>PT2260</name></trkpt>
<trkpt lat="53.246738" lon="-2.029199"><ele>372</ele><time>2020-08-19T10:27:17Z</time><name>PT2261</name></trkpt>
<trkpt lat="53.246725" lon="-2.029150"><ele>373</ele><time>2020-08-19T10:27:20Z</time><name>PT2262</name></trkpt>
<trkpt lat="53.246720" lon="-2.029077"><ele>374</ele><time>2020-08-19T10:27:24Z</time><name>PT2263</name></trkpt>
<trkpt lat="53.246717" lon="-2.029027"><ele>375</ele><time>2020-08-19T10:27:27Z</time><name>PT2264</name></trkpt>
<trkpt lat="53.246708" lon="-2.028957"><ele>375</ele><time>2020-08-19T10:27:31Z</time><name>PT2265</name></trkpt>
<trkpt lat="53.246705" lon="-2.028907"><ele>376</ele><time>2020-08-19T10:27:34Z</time><name>PT2266</name></trkpt>
<trkpt lat="53.246698" lon="-2.028839"><ele>376</ele><time>2020-08-19T10:27:38Z</time><name>PT2267</name></trkpt>
<trkpt lat="53.246684" lon="-2.028761"><ele>377</ele><time>2020-08-19T10:27:42Z</time><name>PT2268</name></trkpt>
<trkpt lat="53.246683" lon="-2.028714"><ele>378</ele><time>2020-08-19T10:27:45Z</time><name>PT2269</name></trkpt>
<trkpt lat="53.246680" lon="-2.028642"><ele>378</ele><time>2020-08-19T10:27:49Z</time><name>PT2270</name></trkpt>
<trkpt lat="53.246676" lon="-2.028583"><ele>378</ele><time>2020-08-19T10:27:52Z</time><name>PT2271</name></trkpt>
<trkpt lat="53.246670" lon="-2.028514"><ele>378</ele><time>2020-08-19T10:27:56Z</time><name>PT2272</name></trkpt>
<trkpt lat="53.246665" lon="-2.028458"><ele>379</ele><time>2020-08-19T10:27:59Z</time><name>PT2273</name></trkpt>
<trkpt lat="53.246661" lon="-2.028406"><ele>379</ele><time>2020-08-19T10:28:02Z</time><name>PT2274</name></trkpt>
<trkpt lat="53.246650" lon="-2.028340"><ele>379</ele><time>2020-08-19T10:28:06Z</time><name>PT2275</name></trkpt>
<trkpt lat="53.246655" lon="-2.028271"><ele>381</ele><time>2020-08-19T10:28:10Z</time><name>PT2276</name></trkpt>
<trkpt lat="53.246622" lon="-2.028203"><ele>375</ele><time>2020-08-19T10:28:14Z</time><name>PT2277</name></trkpt>
<trkpt lat="53.246618" lon="-2.028182"><ele>375</ele><time>2020-08-19T10:28:15Z</time><name>PT2278</name></trkpt>
<trkpt lat="53.246614" lon="-2.028170"><ele>375</ele><time>2020-08-19T10:28:16Z</time><name>PT2279</name></trkpt>
<trkpt lat="53.246611" lon="-2.028155"><ele>375</ele><time>2020-08-19T10:28:17Z</time><name>PT2280</name></trkpt>
<trkpt lat="53.246608" lon="-2.028141"><ele>375</ele><time>2020-08-19T10:28:18Z</time><name>PT2281</name></trkpt>
<trkpt lat="53.246606" lon="-2.028131"><ele>375</ele><time>2020-08-19T10:28:19Z</time><name>PT2282</name></trkpt>
<trkpt lat="53.246607" lon="-2.028129"><ele>376</ele><time>2020-08-19T10:28:20Z</time><name>PT2283</name></trkpt>
<trkpt lat="53.246607" lon="-2.028125"><ele>376</ele><time>2020-08-19T10:28:21Z</time><name>PT2284</name></trkpt>
<trkpt lat="53.246604" lon="-2.028118"><ele>376</ele><time>2020-08-19T10:28:22Z</time><name>PT2285</name></trkpt>
<trkpt lat="53.246603" lon="-2.028109"><ele>376</ele><time>2020-08-19T10:28:23Z</time><name>PT2286</name></trkpt>
<trkpt lat="53.246603" lon="-2.028098"><ele>376</ele><time>2020-08-19T10:28:24Z</time><name>PT2287</name></trkpt>
<trkpt lat="53.246600" lon="-2.028085"><ele>377</ele><time>2020-08-19T10:28:25Z</time><name>PT2288</name></trkpt>
<trkpt lat="53.246599" lon="-2.028072"><ele>377</ele><time>2020-08-19T10:28:26Z</time><name>PT2289</name></trkpt>
<trkpt lat="53.246595" lon="-2.028057"><ele>377</ele><time>2020-08-19T10:28:27Z</time><name>PT2290</name></trkpt>
<trkpt lat="53.246593" lon="-2.028048"><ele>377</ele><time>2020-08-19T10:28:28Z</time><name>PT2291</name></trkpt>
<trkpt lat="53.246591" lon="-2.028046"><ele>377</ele><time>2020-08-19T10:28:29Z</time><name>PT2292</name></trkpt>
<trkpt lat="53.246589" lon="-2.028045"><ele>377</ele><time>2020-08-19T10:28:30Z</time><name>PT2293</name></trkpt>
<trkpt lat="53.246587" lon="-2.028042"><ele>377</ele><time>2020-08-19T10:28:31Z</time><name>PT2294</name></trkpt>
<trkpt lat="53.246594" lon="-2.028036"><ele>377</ele><time>2020-08-19T10:28:41Z</time><name>PT2295</name></trkpt>
<trkpt lat="53.246591" lon="-2.028020"><ele>377</ele><time>2020-08-19T10:28:42Z</time><name>PT2296</name></trkpt>
<trkpt lat="53.246589" lon="-2.028004"><ele>377</ele><time>2020-08-19T10:28:43Z</time><name>PT2297</name></trkpt>
<trkpt lat="53.246586" lon="-2.027988"><ele>377</ele><time>2020-08-19T10:28:44Z</time><name>PT2298</name></trkpt>
<trkpt lat="53.246585" lon="-2.027971"><ele>377</ele><time>2020-08-19T10:28:45Z</time><name>PT2299</name></trkpt>
<trkpt lat="53.246584" lon="-2.027954"><ele>377</ele><time>2020-08-19T10:28:46Z</time><name>PT2300</name></trkpt>
<trkpt lat="53.246584" lon="-2.027936"><ele>377</ele><time>2020-08-19T10:28:47Z</time><name>PT2301</name></trkpt>
<trkpt lat="53.246584" lon="-2.027920"><ele>377</ele><time>2020-08-19T10:28:48Z</time><name>PT2302</name></trkpt>
<trkpt lat="53.246582" lon="-2.027903"><ele>377</ele><time>2020-08-19T10:28:49Z</time><name>PT2303</name></trkpt>
<trkpt lat="53.246581" lon="-2.027887"><ele>377</ele><time>2020-08-19T10:28:50Z</time><name>PT2304</name></trkpt>
<trkpt lat="53.246579" lon="-2.027868"><ele>377</ele><time>2020-08-19T10:28:51Z</time><name>PT2305</name></trkpt>
<trkpt lat="53.246577" lon="-2.027851"><ele>377</ele><time>2020-08-19T10:28:52Z</time><name>PT2306</name></trkpt>
<trkpt lat="53.246574" lon="-2.027833"><ele>378</ele><time>2020-08-19T10:28:53Z</time><name>PT2307</name></trkpt>
<trkpt lat="53.246572" lon="-2.027815"><ele>378</ele><time>2020-08-19T10:28:54Z</time><name>PT2308</name></trkpt>
<trkpt lat="53.246570" lon="-2.027797"><ele>378</ele><time>2020-08-19T10:28:55Z</time><name>PT2309</name></trkpt>
<trkpt lat="53.246569" lon="-2.027777"><ele>378</ele><time>2020-08-19T10:28:56Z</time><name>PT2310</name></trkpt>
<trkpt lat="53.246568" lon="-2.027759"><ele>378</ele><time>2020-08-19T10:28:57Z</time><name>PT2311</name></trkpt>
<trkpt lat="53.246564" lon="-2.027742"><ele>378</ele><time>2020-08-19T10:28:58Z</time><name>PT2312</name></trkpt>
<trkpt lat="53.246560" lon="-2.027725"><ele>378</ele><time>2020-08-19T10:28:59Z</time><name>PT2313</name></trkpt>
<trkpt lat="53.246555" lon="-2.027707"><ele>378</ele><time>2020-08-19T10:29:00Z</time><name>PT2314</name></trkpt>
<trkpt lat="53.246550" lon="-2.027689"><ele>378</ele><time>2020-08-19T10:29:01Z</time><name>PT2315</name></trkpt>
<trkpt lat="53.246546" lon="-2.027670"><ele>378</ele><time>2020-08-19T10:29:02Z</time><name>PT2316</name></trkpt>
<trkpt lat="53.246541" lon="-2.027654"><ele>378</ele><time>2020-08-19T10:29:03Z</time><name>PT2317</name></trkpt>
<trkpt lat="53.246537" lon="-2.027639"><ele>378</ele><time>2020-08-19T10:29:04Z</time><name>PT2318</name></trkpt>
<trkpt lat="53.246534" lon="-2.027622"><ele>379</ele><time>2020-08-19T10:29:05Z</time><name>PT2319</name></trkpt>
<trkpt lat="53.246528" lon="-2.027606"><ele>379</ele><time>2020-08-19T10:29:06Z</time><name>PT2320</name></trkpt>
<trkpt lat="53.246522" lon="-2.027592"><ele>379</ele><time>2020-08-19T10:29:07Z</time><name>PT2321</name></trkpt>
<trkpt lat="53.246516" lon="-2.027576"><ele>379</ele><time>2020-08-19T10:29:08Z</time><name>PT2322</name></trkpt>
<trkpt lat="53.246511" lon="-2.027564"><ele>379</ele><time>2020-08-19T10:29:09Z</time><name>PT2323</name></trkpt>
<trkpt lat="53.246506" lon="-2.027547"><ele>379</ele><time>2020-08-19T10:29:10Z</time><name>PT2324</name></trkpt>
<trkpt lat="53.246501" lon="-2.027528"><ele>379</ele><time>2020-08-19T10:29:11Z</time><name>PT2325</name></trkpt>
<trkpt lat="53.246498" lon="-2.027514"><ele>379</ele><time>2020-08-19T10:29:12Z</time><name>PT2326</name></trkpt>
<trkpt lat="53.246493" lon="-2.027499"><ele>380</ele><time>2020-08-19T10:29:13Z</time><name>PT2327</name></trkpt>
<trkpt lat="53.246489" lon="-2.027482"><ele>380</ele><time>2020-08-19T10:29:14Z</time><name>PT2328</name></trkpt>
<trkpt lat="53.246484" lon="-2.027466"><ele>380</ele><time>2020-08-19T10:29:15Z</time><name>PT2329</name></trkpt>
<trkpt lat="53.246480" lon="-2.027449"><ele>380</ele><time>2020-08-19T10:29:16Z</time><name>PT2330</name></trkpt>
<trkpt lat="53.246475" lon="-2.027429"><ele>380</ele><time>2020-08-19T10:29:17Z</time><name>PT2331</name></trkpt>
<trkpt lat="53.246472" lon="-2.027415"><ele>380</ele><time>2020-08-19T10:29:18Z</time><name>PT2332</name></trkpt>
<trkpt lat="53.246466" lon="-2.027403"><ele>380</ele><time>2020-08-19T10:29:19Z</time><name>PT2333</name></trkpt>
<trkpt lat="53.246460" lon="-2.027389"><ele>381</ele><time>2020-08-19T10:29:20Z</time><name>PT2334</name></trkpt>
<trkpt lat="53.246455" lon="-2.027369"><ele>381</ele><time>2020-08-19T10:29:21Z</time><name>PT2335</name></trkpt>
<trkpt lat="53.246451" lon="-2.027354"><ele>382</ele><time>2020-08-19T10:29:22Z</time><name>PT2336</name></trkpt>
<trkpt lat="53.246445" lon="-2.027339"><ele>382</ele><time>2020-08-19T10:29:23Z</time><name>PT2337</name></trkpt>
<trkpt lat="53.246439" lon="-2.027327"><ele>381</ele><time>2020-08-19T10:29:24Z</time><name>PT2338</name></trkpt>
<trkpt lat="53.246436" lon="-2.027308"><ele>382</ele><time>2020-08-19T10:29:25Z</time><name>PT2339</name></trkpt>
<trkpt lat="53.246430" lon="-2.027296"><ele>382</ele><time>2020-08-19T10:29:26Z</time><name>PT2340</name></trkpt>
<trkpt lat="53.246424" lon="-2.027280"><ele>382</ele><time>2020-08-19T10:29:27Z</time><name>PT2341</name></trkpt>
<trkpt lat="53.246420" lon="-2.027266"><ele>382</ele><time>2020-08-19T10:29:28Z</time><name>PT2342</name></trkpt>
<trkpt lat="53.246415" lon="-2.027251"><ele>382</ele><time>2020-08-19T10:29:29Z</time><name>PT2343</name></trkpt>
<trkpt lat="53.246409" lon="-2.027236"><ele>383</ele><time>2020-08-19T10:29:30Z</time><name>PT2344</name></trkpt>
<trkpt lat="53.246406" lon="-2.027214"><ele>383</ele><time>2020-08-19T10:29:31Z</time><name>PT2345</name></trkpt>
<trkpt lat="53.246404" lon="-2.027202"><ele>383</ele><time>2020-08-19T10:29:32Z</time><name>PT2346</name></trkpt>
<trkpt lat="53.246399" lon="-2.027189"><ele>383</ele><time>2020-08-19T10:29:33Z</time><name>PT2347</name></trkpt>
<trkpt lat="53.246394" lon="-2.027174"><ele>384</ele><time>2020-08-19T10:29:34Z</time><name>PT2348</name></trkpt>
<trkpt lat="53.246387" lon="-2.027157"><ele>384</ele><time>2020-08-19T10:29:35Z</time><name>PT2349</name></trkpt>
<trkpt lat="53.246385" lon="-2.027143"><ele>384</ele><time>2020-08-19T10:29:36Z</time><name>PT2350</name></trkpt>
<trkpt lat="53.246385" lon="-2.027134"><ele>384</ele><time>2020-08-19T10:29:37Z</time><name>PT2351</name></trkpt>
<trkpt lat="53.246382" lon="-2.027120"><ele>384</ele><time>2020-08-19T10:29:38Z</time><name>PT2352</name></trkpt>
<trkpt lat="53.246384" lon="-2.027106"><ele>384</ele><time>2020-08-19T10:29:39Z</time><name>PT2353</name></trkpt>
<trkpt lat="53.246383" lon="-2.027097"><ele>384</ele><time>2020-08-19T10:29:40Z</time><name>PT2354</name></trkpt>
<trkpt lat="53.246383" lon="-2.027093"><ele>384</ele><time>2020-08-19T10:29:41Z</time><name>PT2355</name></trkpt>
<trkpt lat="53.246384" lon="-2.027088"><ele>385</ele><time>2020-08-19T10:29:42Z</time><name>PT2356</name></trkpt>
<trkpt lat="53.246385" lon="-2.027085"><ele>385</ele><time>2020-08-19T10:29:43Z</time><name>PT2357</name></trkpt>
<trkpt lat="53.246384" lon="-2.027082"><ele>385</ele><time>2020-08-19T10:29:44Z</time><name>PT2358</name></trkpt>
<trkpt lat="53.246384" lon="-2.027080"><ele>385</ele><time>2020-08-19T10:29:45Z</time><name>PT2359</name></trkpt>
<trkpt lat="53.246385" lon="-2.027077"><ele>385</ele><time>2020-08-19T10:29:46Z</time><name>PT2360</name></trkpt>
<trkpt lat="53.246388" lon="-2.027081"><ele>385</ele><time>2020-08-19T10:29:47Z</time><name>PT2361</name></trkpt>
<trkpt lat="53.246379" lon="-2.027079"><ele>386</ele><time>2020-08-19T10:29:53Z</time><name>PT2362</name></trkpt>
<trkpt lat="53.246382" lon="-2.027082"><ele>386</ele><time>2020-08-19T10:29:54Z</time><name>PT2363</name></trkpt>
<trkpt lat="53.246386" lon="-2.027074"><ele>386</ele><time>2020-08-19T10:29:55Z</time><name>PT2364</name></trkpt>
<trkpt lat="53.246389" lon="-2.027053"><ele>386</ele><time>2020-08-19T10:29:56Z</time><name>PT2365</name></trkpt>
<trkpt lat="53.246386" lon="-2.027036"><ele>386</ele><time>2020-08-19T10:29:57Z</time><name>PT2366</name></trkpt>
<trkpt lat="53.246381" lon="-2.027017"><ele>386</ele><time>2020-08-19T10:29:58Z</time><name>PT2367</name></trkpt>
<trkpt lat="53.246375" lon="-2.026996"><ele>387</ele><time>2020-08-19T10:29:59Z</time><name>PT2368</name></trkpt>
<trkpt lat="53.246369" lon="-2.026981"><ele>387</ele><time>2020-08-19T10:30:00Z</time><name>PT2369</name></trkpt>
<trkpt lat="53.246364" lon="-2.026962"><ele>387</ele><time>2020-08-19T10:30:01Z</time><name>PT2370</name></trkpt>
<trkpt lat="53.246360" lon="-2.026943"><ele>387</ele><time>2020-08-19T10:30:02Z</time><name>PT2371</name></trkpt>
<trkpt lat="53.246355" lon="-2.026925"><ele>387</ele><time>2020-08-19T10:30:03Z</time><name>PT2372</name></trkpt>
<trkpt lat="53.246347" lon="-2.026908"><ele>387</ele><time>2020-08-19T10:30:04Z</time><name>PT2373</name></trkpt>
<trkpt lat="53.246340" lon="-2.026890"><ele>387</ele><time>2020-08-19T10:30:05Z</time><name>PT2374</name></trkpt>
<trkpt lat="53.246334" lon="-2.026875"><ele>388</ele><time>2020-08-19T10:30:06Z</time><name>PT2375</name></trkpt>
<trkpt lat="53.246331" lon="-2.026858"><ele>388</ele><time>2020-08-19T10:30:07Z</time><name>PT2376</name></trkpt>
<trkpt lat="53.246329" lon="-2.026845"><ele>388</ele><time>2020-08-19T10:30:08Z</time><name>PT2377</name></trkpt>
<trkpt lat="53.246331" lon="-2.026827"><ele>389</ele><time>2020-08-19T10:30:09Z</time><name>PT2378</name></trkpt>
<trkpt lat="53.246337" lon="-2.026819"><ele>389</ele><time>2020-08-19T10:30:10Z</time><name>PT2379</name></trkpt>
<trkpt lat="53.246334" lon="-2.026800"><ele>389</ele><time>2020-08-19T10:30:11Z</time><name>PT2380</name></trkpt>
<trkpt lat="53.246330" lon="-2.026784"><ele>389</ele><time>2020-08-19T10:30:12Z</time><name>PT2381</name></trkpt>
<trkpt lat="53.246325" lon="-2.026771"><ele>390</ele><time>2020-08-19T10:30:13Z</time><name>PT2382</name></trkpt>
<trkpt lat="53.246320" lon="-2.026756"><ele>390</ele><time>2020-08-19T10:30:14Z</time><name>PT2383</name></trkpt>
<trkpt lat="53.246317" lon="-2.026744"><ele>390</ele><time>2020-08-19T10:30:15Z</time><name>PT2384</name></trkpt>
<trkpt lat="53.246312" lon="-2.026733"><ele>390</ele><time>2020-08-19T10:30:16Z</time><name>PT2385</name></trkpt>
<trkpt lat="53.246307" lon="-2.026718"><ele>390</ele><time>2020-08-19T10:30:17Z</time><name>PT2386</name></trkpt>
<trkpt lat="53.246308" lon="-2.026707"><ele>389</ele><time>2020-08-19T10:30:18Z</time><name>PT2387</name></trkpt>
<trkpt lat="53.246304" lon="-2.026689"><ele>389</ele><time>2020-08-19T10:30:19Z</time><name>PT2388</name></trkpt>
<trkpt lat="53.246296" lon="-2.026670"><ele>390</ele><time>2020-08-19T10:30:20Z</time><name>PT2389</name></trkpt>
<trkpt lat="53.246287" lon="-2.026655"><ele>390</ele><time>2020-08-19T10:30:21Z</time><name>PT2390</name></trkpt>
<trkpt lat="53.246279" lon="-2.026637"><ele>390</ele><time>2020-08-19T10:30:22Z</time><name>PT2391</name></trkpt>
<trkpt lat="53.246273" lon="-2.026623"><ele>390</ele><time>2020-08-19T10:30:23Z</time><name>PT2392</name></trkpt>
<trkpt lat="53.246268" lon="-2.026608"><ele>390</ele><time>2020-08-19T10:30:24Z</time><name>PT2393</name></trkpt>
<trkpt lat="53.246264" lon="-2.026588"><ele>390</ele><time>2020-08-19T10:30:25Z</time><name>PT2394</name></trkpt>
<trkpt lat="53.246259" lon="-2.026562"><ele>390</ele><time>2020-08-19T10:30:26Z</time><name>PT2395</name></trkpt>
<trkpt lat="53.246254" lon="-2.026541"><ele>390</ele><time>2020-08-19T10:30:27Z</time><name>PT2396</name></trkpt>
<trkpt lat="53.246247" lon="-2.026521"><ele>391</ele><time>2020-08-19T10:30:28Z</time><name>PT2397</name></trkpt>
<trkpt lat="53.246239" lon="-2.026505"><ele>391</ele><time>2020-08-19T10:30:29Z</time><name>PT2398</name></trkpt>
<trkpt lat="53.246233" lon="-2.026494"><ele>391</ele><time>2020-08-19T10:30:30Z</time><name>PT2399</name></trkpt>
<trkpt lat="53.246228" lon="-2.026484"><ele>391</ele><time>2020-08-19T10:30:31Z</time><name>PT2400</name></trkpt>
<trkpt lat="53.246221" lon="-2.026472"><ele>391</ele><time>2020-08-19T10:30:32Z</time><name>PT2401</name></trkpt>
<trkpt lat="53.246216" lon="-2.026456"><ele>391</ele><time>2020-08-19T10:30:33Z</time><name>PT2402</name></trkpt>
<trkpt lat="53.246209" lon="-2.026438"><ele>390</ele><time>2020-08-19T10:30:34Z</time><name>PT2403</name></trkpt>
<trkpt lat="53.246204" lon="-2.026421"><ele>390</ele><time>2020-08-19T10:30:35Z</time><name>PT2404</name></trkpt>
<trkpt lat="53.246200" lon="-2.026406"><ele>390</ele><time>2020-08-19T10:30:36Z</time><name>PT2405</name></trkpt>
<trkpt lat="53.246194" lon="-2.026387"><ele>390</ele><time>2020-08-19T10:30:37Z</time><name>PT2406</name></trkpt>
<trkpt lat="53.246187" lon="-2.026368"><ele>390</ele><time>2020-08-19T10:30:38Z</time><name>PT2407</name></trkpt>
<trkpt lat="53.246182" lon="-2.026348"><ele>391</ele><time>2020-08-19T10:30:39Z</time><name>PT2408</name></trkpt>
<trkpt lat="53.246173" lon="-2.026328"><ele>391</ele><time>2020-08-19T10:30:40Z</time><name>PT2409</name></trkpt>
<trkpt lat="53.246165" lon="-2.026311"><ele>391</ele><time>2020-08-19T10:30:41Z</time><name>PT2410</name></trkpt>
<trkpt lat="53.246157" lon="-2.026295"><ele>391</ele><time>2020-08-19T10:30:42Z</time><name>PT2411</name></trkpt>
<trkpt lat="53.246153" lon="-2.026280"><ele>391</ele><time>2020-08-19T10:30:43Z</time><name>PT2412</name></trkpt>
<trkpt lat="53.246145" lon="-2.026257"><ele>392</ele><time>2020-08-19T10:30:44Z</time><name>PT2413</name></trkpt>
<trkpt lat="53.246139" lon="-2.026242"><ele>392</ele><time>2020-08-19T10:30:45Z</time><name>PT2414</name></trkpt>
<trkpt lat="53.246132" lon="-2.026225"><ele>392</ele><time>2020-08-19T10:30:46Z</time><name>PT2415</name></trkpt>
<trkpt lat="53.246125" lon="-2.026213"><ele>392</ele><time>2020-08-19T10:30:47Z</time><name>PT2416</name></trkpt>
<trkpt lat="53.246118" lon="-2.026195"><ele>393</ele><time>2020-08-19T10:30:48Z</time><name>PT2417</name></trkpt>
<trkpt lat="53.246109" lon="-2.026172"><ele>393</ele><time>2020-08-19T10:30:49Z</time><name>PT2418</name></trkpt>
<trkpt lat="53.246102" lon="-2.026152"><ele>393</ele><time>2020-08-19T10:30:50Z</time><name>PT2419</name></trkpt>
<trkpt lat="53.246095" lon="-2.026136"><ele>393</ele><time>2020-08-19T10:30:51Z</time><name>PT2420</name></trkpt>
<trkpt lat="53.246090" lon="-2.026119"><ele>393</ele><time>2020-08-19T10:30:52Z</time><name>PT2421</name></trkpt>
<trkpt lat="53.246083" lon="-2.026099"><ele>393</ele><time>2020-08-19T10:30:53Z</time><name>PT2422</name></trkpt>
<trkpt lat="53.246076" lon="-2.026076"><ele>394</ele><time>2020-08-19T10:30:54Z</time><name>PT2423</name></trkpt>
<trkpt lat="53.246068" lon="-2.026058"><ele>394</ele><time>2020-08-19T10:30:55Z</time><name>PT2424</name></trkpt>
<trkpt lat="53.246059" lon="-2.026042"><ele>394</ele><time>2020-08-19T10:30:56Z</time><name>PT2425</name></trkpt>
<trkpt lat="53.246052" lon="-2.026026"><ele>394</ele><time>2020-08-19T10:30:57Z</time><name>PT2426</name></trkpt>
<trkpt lat="53.246045" lon="-2.026010"><ele>394</ele><time>2020-08-19T10:30:58Z</time><name>PT2427</name></trkpt>
<trkpt lat="53.246039" lon="-2.025994"><ele>395</ele><time>2020-08-19T10:30:59Z</time><name>PT2428</name></trkpt>
<trkpt lat="53.246034" lon="-2.025979"><ele>395</ele><time>2020-08-19T10:31:00Z</time><name>PT2429</name></trkpt>
<trkpt lat="53.246027" lon="-2.025962"><ele>395</ele><time>2020-08-19T10:31:01Z</time><name>PT2430</name></trkpt>
<trkpt lat="53.246019" lon="-2.025941"><ele>394</ele><time>2020-08-19T10:31:02Z</time><name>PT2431</name></trkpt>
<trkpt lat="53.246012" lon="-2.025923"><ele>394</ele><time>2020-08-19T10:31:03Z</time><name>PT2432</name></trkpt>
<trkpt lat="53.246005" lon="-2.025905"><ele>394</ele><time>2020-08-19T10:31:04Z</time><name>PT2433</name></trkpt>
<trkpt lat="53.246000" lon="-2.025889"><ele>394</ele><time>2020-08-19T10:31:05Z</time><name>PT2434</name></trkpt>
<trkpt lat="53.245995" lon="-2.025873"><ele>394</ele><time>2020-08-19T10:31:06Z</time><name>PT2435</name></trkpt>
<trkpt lat="53.245987" lon="-2.025855"><ele>394</ele><time>2020-08-19T10:31:07Z</time><name>PT2436</name></trkpt>
<trkpt lat="53.245980" lon="-2.025837"><ele>394</ele><time>2020-08-19T10:31:08Z</time><name>PT2437</name></trkpt>
<trkpt lat="53.245973" lon="-2.025821"><ele>393</ele><time>2020-08-19T10:31:09Z</time><name>PT2438</name></trkpt>
<trkpt lat="53.245970" lon="-2.025806"><ele>393</ele><time>2020-08-19T10:31:10Z</time><name>PT2439</name></trkpt>
<trkpt lat="53.245965" lon="-2.025791"><ele>393</ele><time>2020-08-19T10:31:11Z</time><name>PT2440</name></trkpt>
<trkpt lat="53.245959" lon="-2.025771"><ele>393</ele><time>2020-08-19T10:31:12Z</time><name>PT2441</name></trkpt>
<trkpt lat="53.245953" lon="-2.025756"><ele>393</ele><time>2020-08-19T10:31:13Z</time><name>PT2442</name></trkpt>
<trkpt lat="53.245946" lon="-2.025736"><ele>393</ele><time>2020-08-19T10:31:14Z</time><name>PT2443</name></trkpt>
<trkpt lat="53.245940" lon="-2.025715"><ele>393</ele><time>2020-08-19T10:31:15Z</time><name>PT2444</name></trkpt>
<trkpt lat="53.245932" lon="-2.025699"><ele>393</ele><time>2020-08-19T10:31:16Z</time><name>PT2445</name></trkpt>
<trkpt lat="53.245925" lon="-2.025681"><ele>394</ele><time>2020-08-19T10:31:17Z</time><name>PT2446</name></trkpt>
<trkpt lat="53.245919" lon="-2.025669"><ele>393</ele><time>2020-08-19T10:31:18Z</time><name>PT2447</name></trkpt>
<trkpt lat="53.245914" lon="-2.025656"><ele>393</ele><time>2020-08-19T10:31:19Z</time><name>PT2448</name></trkpt>
<trkpt lat="53.245908" lon="-2.025634"><ele>393</ele><time>2020-08-19T10:31:20Z</time><name>PT2449</name></trkpt>
<trkpt lat="53.245901" lon="-2.025611"><ele>393</ele><time>2020-08-19T10:31:21Z</time><name>PT2450</name></trkpt>
<trkpt lat="53.245893" lon="-2.025590"><ele>394</ele><time>2020-08-19T10:31:22Z</time><name>PT2451</name></trkpt>
<trkpt lat="53.245886" lon="-2.025573"><ele>394</ele><time>2020-08-19T10:31:23Z</time><name>PT2452</name></trkpt>
<trkpt lat="53.245880" lon="-2.025559"><ele>394</ele><time>2020-08-19T10:31:24Z</time><name>PT2453</name></trkpt>
<trkpt lat="53.245873" lon="-2.025541"><ele>394</ele><time>2020-08-19T10:31:25Z</time><name>PT2454</name></trkpt>
<trkpt lat="53.245866" lon="-2.025523"><ele>395</ele><time>2020-08-19T10:31:26Z</time><name>PT2455</name></trkpt>
<trkpt lat="53.245858" lon="-2.025503"><ele>395</ele><time>2020-08-19T10:31:27Z</time><name>PT2456</name></trkpt>
<trkpt lat="53.245852" lon="-2.025487"><ele>394</ele><time>2020-08-19T10:31:28Z</time><name>PT2457</name></trkpt>
<trkpt lat="53.245843" lon="-2.025468"><ele>394</ele><time>2020-08-19T10:31:29Z</time><name>PT2458</name></trkpt>
<trkpt lat="53.245836" lon="-2.025452"><ele>394</ele><time>2020-08-19T10:31:30Z</time><name>PT2459</name></trkpt>
<trkpt lat="53.245828" lon="-2.025436"><ele>394</ele><time>2020-08-19T10:31:31Z</time><name>PT2460</name></trkpt>
<trkpt lat="53.245819" lon="-2.025422"><ele>394</ele><time>2020-08-19T10:31:32Z</time><name>PT2461</name></trkpt>
<trkpt lat="53.245810" lon="-2.025407"><ele>395</ele><time>2020-08-19T10:31:33Z</time><name>PT2462</name></trkpt>
<trkpt lat="53.245805" lon="-2.025398"><ele>394</ele><time>2020-08-19T10:31:34Z</time><name>PT2463</name></trkpt>
<trkpt lat="53.245800" lon="-2.025382"><ele>394</ele><time>2020-08-19T10:31:35Z</time><name>PT2464</name></trkpt>
<trkpt lat="53.245793" lon="-2.025370"><ele>393</ele><time>2020-08-19T10:31:36Z</time><name>PT2465</name></trkpt>
<trkpt lat="53.245785" lon="-2.025352"><ele>393</ele><time>2020-08-19T10:31:37Z</time><name>PT2466</name></trkpt>
<trkpt lat="53.245778" lon="-2.025336"><ele>393</ele><time>2020-08-19T10:31:38Z</time><name>PT2467</name></trkpt>
<trkpt lat="53.245772" lon="-2.025323"><ele>393</ele><time>2020-08-19T10:31:39Z</time><name>PT2468</name></trkpt>
<trkpt lat="53.245764" lon="-2.025307"><ele>393</ele><time>2020-08-19T10:31:40Z</time><name>PT2469</name></trkpt>
<trkpt lat="53.245755" lon="-2.025300"><ele>393</ele><time>2020-08-19T10:31:41Z</time><name>PT2470</name></trkpt>
<trkpt lat="53.245748" lon="-2.025292"><ele>393</ele><time>2020-08-19T10:31:42Z</time><name>PT2471</name></trkpt>
<trkpt lat="53.245739" lon="-2.025285"><ele>393</ele><time>2020-08-19T10:31:43Z</time><name>PT2472</name></trkpt>
<trkpt lat="53.245733" lon="-2.025284"><ele>393</ele><time>2020-08-19T10:31:44Z</time><name>PT2473</name></trkpt>
<trkpt lat="53.245727" lon="-2.025287"><ele>393</ele><time>2020-08-19T10:31:45Z</time><name>PT2474</name></trkpt>
<trkpt lat="53.245720" lon="-2.025283"><ele>393</ele><time>2020-08-19T10:31:46Z</time><name>PT2475</name></trkpt>
<trkpt lat="53.245713" lon="-2.025278"><ele>393</ele><time>2020-08-19T10:31:47Z</time><name>PT2476</name></trkpt>
<trkpt lat="53.245705" lon="-2.025274"><ele>393</ele><time>2020-08-19T10:31:48Z</time><name>PT2477</name></trkpt>
<trkpt lat="53.245699" lon="-2.025272"><ele>393</ele><time>2020-08-19T10:31:49Z</time><name>PT2478</name></trkpt>
<trkpt lat="53.245696" lon="-2.025268"><ele>393</ele><time>2020-08-19T10:31:50Z</time><name>PT2479</name></trkpt>
<trkpt lat="53.245692" lon="-2.025263"><ele>393</ele><time>2020-08-19T10:31:51Z</time><name>PT2480</name></trkpt>
<trkpt lat="53.245691" lon="-2.025258"><ele>393</ele><time>2020-08-19T10:31:52Z</time><name>PT2481</name></trkpt>
<trkpt lat="53.245690" lon="-2.025254"><ele>393</ele><time>2020-08-19T10:31:53Z</time><name>PT2482</name></trkpt>
<trkpt lat="53.245683" lon="-2.025250"><ele>393</ele><time>2020-08-19T10:31:58Z</time><name>PT2483</name></trkpt>
<trkpt lat="53.245652" lon="-2.025213"><ele>393</ele><time>2020-08-19T10:32:02Z</time><name>PT2484</name></trkpt>
<trkpt lat="53.245639" lon="-2.025148"><ele>393</ele><time>2020-08-19T10:32:05Z</time><name>PT2485</name></trkpt>
<trkpt lat="53.245605" lon="-2.025090"><ele>391</ele><time>2020-08-19T10:32:07Z</time><name>PT2486</name></trkpt>
<trkpt lat="53.245598" lon="-2.025061"><ele>390</ele><time>2020-08-19T10:32:08Z</time><name>PT2487</name></trkpt>
<trkpt lat="53.245593" lon="-2.025032"><ele>389</ele><time>2020-08-19T10:32:09Z</time><name>PT2488</name></trkpt>
<trkpt lat="53.245586" lon="-2.025008"><ele>389</ele><time>2020-08-19T10:32:10Z</time><name>PT2489</name></trkpt>
<trkpt lat="53.245579" lon="-2.024982"><ele>389</ele><time>2020-08-19T10:32:11Z</time><name>PT2490</name></trkpt>
<trkpt lat="53.245576" lon="-2.024958"><ele>389</ele><time>2020-08-19T10:32:12Z</time><name>PT2491</name></trkpt>
<trkpt lat="53.245571" lon="-2.024934"><ele>389</ele><time>2020-08-19T10:32:13Z</time><name>PT2492</name></trkpt>
<trkpt lat="53.245567" lon="-2.024914"><ele>389</ele><time>2020-08-19T10:32:14Z</time><name>PT2493</name></trkpt>
<trkpt lat="53.245563" lon="-2.024891"><ele>388</ele><time>2020-08-19T10:32:15Z</time><name>PT2494</name></trkpt>
<trkpt lat="53.245560" lon="-2.024870"><ele>388</ele><time>2020-08-19T10:32:16Z</time><name>PT2495</name></trkpt>
<trkpt lat="53.245555" lon="-2.024851"><ele>388</ele><time>2020-08-19T10:32:17Z</time><name>PT2496</name></trkpt>
<trkpt lat="53.245548" lon="-2.024830"><ele>388</ele><time>2020-08-19T10:32:18Z</time><name>PT2497</name></trkpt>
<trkpt lat="53.245543" lon="-2.024811"><ele>388</ele><time>2020-08-19T10:32:19Z</time><name>PT2498</name></trkpt>
<trkpt lat="53.245538" lon="-2.024794"><ele>388</ele><time>2020-08-19T10:32:20Z</time><name>PT2499</name></trkpt>
<trkpt lat="53.245532" lon="-2.024772"><ele>388</ele><time>2020-08-19T10:32:21Z</time><name>PT2500</name></trkpt>
<trkpt lat="53.245523" lon="-2.024754"><ele>388</ele><time>2020-08-19T10:32:22Z</time><name>PT2501</name></trkpt>
<trkpt lat="53.245514" lon="-2.024736"><ele>388</ele><time>2020-08-19T10:32:23Z</time><name>PT2502</name></trkpt>
<trkpt lat="53.245510" lon="-2.024724"><ele>387</ele><time>2020-08-19T10:32:24Z</time><name>PT2503</name></trkpt>
<trkpt lat="53.245505" lon="-2.024710"><ele>387</ele><time>2020-08-19T10:32:25Z</time><name>PT2504</name></trkpt>
<trkpt lat="53.245500" lon="-2.024691"><ele>387</ele><time>2020-08-19T10:32:26Z</time><name>PT2505</name></trkpt>
<trkpt lat="53.245494" lon="-2.024673"><ele>387</ele><time>2020-08-19T10:32:27Z</time><name>PT2506</name></trkpt>
<trkpt lat="53.245488" lon="-2.024657"><ele>387</ele><time>2020-08-19T10:32:28Z</time><name>PT2507</name></trkpt>
<trkpt lat="53.245482" lon="-2.024643"><ele>387</ele><time>2020-08-19T10:32:29Z</time><name>PT2508</name></trkpt>
<trkpt lat="53.245478" lon="-2.024626"><ele>386</ele><time>2020-08-19T10:32:30Z</time><name>PT2509</name></trkpt>
<trkpt lat="53.245474" lon="-2.024607"><ele>386</ele><time>2020-08-19T10:32:31Z</time><name>PT2510</name></trkpt>
<trkpt lat="53.245471" lon="-2.024587"><ele>386</ele><time>2020-08-19T10:32:32Z</time><name>PT2511</name></trkpt>
<trkpt lat="53.245466" lon="-2.024570"><ele>386</ele><time>2020-08-19T10:32:33Z</time><name>PT2512</name></trkpt>
<trkpt lat="53.245459" lon="-2.024555"><ele>386</ele><time>2020-08-19T10:32:34Z</time><name>PT2513</name></trkpt>
<trkpt lat="53.245452" lon="-2.024542"><ele>386</ele><time>2020-08-19T10:32:35Z</time><name>PT2514</name></trkpt>
<trkpt lat="53.245445" lon="-2.024523"><ele>386</ele><time>2020-08-19T10:32:36Z</time><name>PT2515</name></trkpt>
<trkpt lat="53.245440" lon="-2.024507"><ele>386</ele><time>2020-08-19T10:32:37Z</time><name>PT2516</name></trkpt>
<trkpt lat="53.245435" lon="-2.024496"><ele>385</ele><time>2020-08-19T10:32:38Z</time><name>PT2517</name></trkpt>
<trkpt lat="53.245430" lon="-2.024485"><ele>385</ele><time>2020-08-19T10:32:39Z</time><name>PT2518</name></trkpt>
<trkpt lat="53.245422" lon="-2.024473"><ele>385</ele><time>2020-08-19T10:32:40Z</time><name>PT2519</name></trkpt>
<trkpt lat="53.245416" lon="-2.024460"><ele>385</ele><time>2020-08-19T10:32:41Z</time><name>PT2520</name></trkpt>
<trkpt lat="53.245410" lon="-2.024443"><ele>385</ele><time>2020-08-19T10:32:42Z</time><name>PT2521</name></trkpt>
<trkpt lat="53.245405" lon="-2.024427"><ele>385</ele><time>2020-08-19T10:32:43Z</time><name>PT2522</name></trkpt>
<trkpt lat="53.245398" lon="-2.024405"><ele>384</ele><time>2020-08-19T10:32:44Z</time><name>PT2523</name></trkpt>
<trkpt lat="53.245394" lon="-2.024381"><ele>384</ele><time>2020-08-19T10:32:45Z</time><name>PT2524</name></trkpt>
<trkpt lat="53.245391" lon="-2.024363"><ele>384</ele><time>2020-08-19T10:32:46Z</time><name>PT2525</name></trkpt>
<trkpt lat="53.245387" lon="-2.024346"><ele>384</ele><time>2020-08-19T10:32:47Z</time><name>PT2526</name></trkpt>
<trkpt lat="53.245381" lon="-2.024330"><ele>384</ele><time>2020-08-19T10:32:48Z</time><name>PT2527</name></trkpt>
<trkpt lat="53.245376" lon="-2.024311"><ele>384</ele><time>2020-08-19T10:32:49Z</time><name>PT2528</name></trkpt>
<trkpt lat="53.245369" lon="-2.024293"><ele>384</ele><time>2020-08-19T10:32:50Z</time><name>PT2529</name></trkpt>
<trkpt lat="53.245364" lon="-2.024279"><ele>384</ele><time>2020-08-19T10:32:51Z</time><name>PT2530</name></trkpt>
<trkpt lat="53.245360" lon="-2.024271"><ele>384</ele><time>2020-08-19T10:32:52Z</time><name>PT2531</name></trkpt>
<trkpt lat="53.245355" lon="-2.024258"><ele>384</ele><time>2020-08-19T10:32:53Z</time><name>PT2532</name></trkpt>
<trkpt lat="53.245350" lon="-2.024245"><ele>383</ele><time>2020-08-19T10:32:54Z</time><name>PT2533</name></trkpt>
<trkpt lat="53.245344" lon="-2.024232"><ele>383</ele><time>2020-08-19T10:32:55Z</time><name>PT2534</name></trkpt>
<trkpt lat="53.245338" lon="-2.024217"><ele>383</ele><time>2020-08-19T10:32:56Z</time><name>PT2535</name></trkpt>
<trkpt lat="53.245332" lon="-2.024205"><ele>383</ele><time>2020-08-19T10:32:57Z</time><name>PT2536</name></trkpt>
<trkpt lat="53.245325" lon="-2.024192"><ele>383</ele><time>2020-08-19T10:32:58Z</time><name>PT2537</name></trkpt>
<trkpt lat="53.245319" lon="-2.024179"><ele>383</ele><time>2020-08-19T10:32:59Z</time><name>PT2538</name></trkpt>
<trkpt lat="53.245312" lon="-2.024157"><ele>383</ele><time>2020-08-19T10:33:00Z</time><name>PT2539</name></trkpt>
<trkpt lat="53.245306" lon="-2.024134"><ele>383</ele><time>2020-08-19T10:33:01Z</time><name>PT2540</name></trkpt>
<trkpt lat="53.245299" lon="-2.024120"><ele>382</ele><time>2020-08-19T10:33:02Z</time><name>PT2541</name></trkpt>
<trkpt lat="53.245293" lon="-2.024107"><ele>382</ele><time>2020-08-19T10:33:03Z</time><name>PT2542</name></trkpt>
<trkpt lat="53.245287" lon="-2.024093"><ele>382</ele><time>2020-08-19T10:33:04Z</time><name>PT2543</name></trkpt>
<trkpt lat="53.245282" lon="-2.024076"><ele>382</ele><time>2020-08-19T10:33:05Z</time><name>PT2544</name></trkpt>
<trkpt lat="53.245275" lon="-2.024060"><ele>382</ele><time>2020-08-19T10:33:06Z</time><name>PT2545</name></trkpt>
<trkpt lat="53.245269" lon="-2.024044"><ele>382</ele><time>2020-08-19T10:33:07Z</time><name>PT2546</name></trkpt>
<trkpt lat="53.245266" lon="-2.024026"><ele>382</ele><time>2020-08-19T10:33:08Z</time><name>PT2547</name></trkpt>
<trkpt lat="53.245260" lon="-2.024008"><ele>381</ele><time>2020-08-19T10:33:09Z</time><name>PT2548</name></trkpt>
<trkpt lat="53.245254" lon="-2.023993"><ele>381</ele><time>2020-08-19T10:33:10Z</time><name>PT2549</name></trkpt>
<trkpt lat="53.245247" lon="-2.023979"><ele>381</ele><time>2020-08-19T10:33:11Z</time><name>PT2550</name></trkpt>
<trkpt lat="53.245240" lon="-2.023966"><ele>381</ele><time>2020-08-19T10:33:12Z</time><name>PT2551</name></trkpt>
<trkpt lat="53.245233" lon="-2.023953"><ele>381</ele><time>2020-08-19T10:33:13Z</time><name>PT2552</name></trkpt>
<trkpt lat="53.245231" lon="-2.023939"><ele>381</ele><time>2020-08-19T10:33:14Z</time><name>PT2553</name></trkpt>
<trkpt lat="53.245228" lon="-2.023933"><ele>381</ele><time>2020-08-19T10:33:15Z</time><name>PT2554</name></trkpt>
<trkpt lat="53.245221" lon="-2.023927"><ele>381</ele><time>2020-08-19T10:33:16Z</time><name>PT2555</name></trkpt>
<trkpt lat="53.245215" lon="-2.023914"><ele>380</ele><time>2020-08-19T10:33:17Z</time><name>PT2556</name></trkpt>
<trkpt lat="53.245214" lon="-2.023897"><ele>380</ele><time>2020-08-19T10:33:18Z</time><name>PT2557</name></trkpt>
<trkpt lat="53.245216" lon="-2.023881"><ele>380</ele><time>2020-08-19T10:33:19Z</time><name>PT2558</name></trkpt>
<trkpt lat="53.245221" lon="-2.023862"><ele>380</ele><time>2020-08-19T10:33:20Z</time><name>PT2559</name></trkpt>
<trkpt lat="53.245226" lon="-2.023844"><ele>380</ele><time>2020-08-19T10:33:21Z</time><name>PT2560</name></trkpt>
<trkpt lat="53.245232" lon="-2.023834"><ele>380</ele><time>2020-08-19T10:33:22Z</time><name>PT2561</name></trkpt>
<trkpt lat="53.245239" lon="-2.023812"><ele>380</ele><time>2020-08-19T10:33:23Z</time><name>PT2562</name></trkpt>
<trkpt lat="53.245245" lon="-2.023793"><ele>379</ele><time>2020-08-19T10:33:24Z</time><name>PT2563</name></trkpt>
<trkpt lat="53.245254" lon="-2.023779"><ele>379</ele><time>2020-08-19T10:33:25Z</time><name>PT2564</name></trkpt>
<trkpt lat="53.245261" lon="-2.023762"><ele>379</ele><time>2020-08-19T10:33:26Z</time><name>PT2565</name></trkpt>
<trkpt lat="53.245269" lon="-2.023750"><ele>378</ele><time>2020-08-19T10:33:27Z</time><name>PT2566</name></trkpt>
<trkpt lat="53.245277" lon="-2.023736"><ele>378</ele><time>2020-08-19T10:33:28Z</time><name>PT2567</name></trkpt>
<trkpt lat="53.245287" lon="-2.023721"><ele>379</ele><time>2020-08-19T10:33:29Z</time><name>PT2568</name></trkpt>
<trkpt lat="53.245297" lon="-2.023700"><ele>379</ele><time>2020-08-19T10:33:30Z</time><name>PT2569</name></trkpt>
<trkpt lat="53.245308" lon="-2.023684"><ele>378</ele><time>2020-08-19T10:33:31Z</time><name>PT2570</name></trkpt>
<trkpt lat="53.245316" lon="-2.023670"><ele>378</ele><time>2020-08-19T10:33:32Z</time><name>PT2571</name></trkpt>
<trkpt lat="53.245326" lon="-2.023661"><ele>378</ele><time>2020-08-19T10:33:33Z</time><name>PT2572</name></trkpt>
<trkpt lat="53.245335" lon="-2.023652"><ele>378</ele><time>2020-08-19T10:33:34Z</time><name>PT2573</name></trkpt>
<trkpt lat="53.245343" lon="-2.023644"><ele>378</ele><time>2020-08-19T10:33:35Z</time><name>PT2574</name></trkpt>
<trkpt lat="53.245353" lon="-2.023636"><ele>378</ele><time>2020-08-19T10:33:36Z</time><name>PT2575</name></trkpt>
<trkpt lat="53.245361" lon="-2.023628"><ele>378</ele><time>2020-08-19T10:33:37Z</time><name>PT2576</name></trkpt>
<trkpt lat="53.245371" lon="-2.023618"><ele>378</ele><time>2020-08-19T10:33:38Z</time><name>PT2577</name></trkpt>
<trkpt lat="53.245379" lon="-2.023607"><ele>378</ele><time>2020-08-19T10:33:39Z</time><name>PT2578</name></trkpt>
<trkpt lat="53.245388" lon="-2.023598"><ele>378</ele><time>2020-08-19T10:33:40Z</time><name>PT2579</name></trkpt>
<trkpt lat="53.245399" lon="-2.023592"><ele>378</ele><time>2020-08-19T10:33:41Z</time><name>PT2580</name></trkpt>
<trkpt lat="53.245412" lon="-2.023586"><ele>378</ele><time>2020-08-19T10:33:42Z</time><name>PT2581</name></trkpt>
<trkpt lat="53.245423" lon="-2.023577"><ele>378</ele><time>2020-08-19T10:33:43Z</time><name>PT2582</name></trkpt>
<trkpt lat="53.245433" lon="-2.023567"><ele>378</ele><time>2020-08-19T10:33:44Z</time><name>PT2583</name></trkpt>
<trkpt lat="53.245442" lon="-2.023557"><ele>377</ele><time>2020-08-19T10:33:45Z</time><name>PT2584</name></trkpt>
<trkpt lat="53.245453" lon="-2.023551"><ele>377</ele><time>2020-08-19T10:33:46Z</time><name>PT2585</name></trkpt>
<trkpt lat="53.245461" lon="-2.023547"><ele>377</ele><time>2020-08-19T10:33:47Z</time><name>PT2586</name></trkpt>
<trkpt lat="53.245471" lon="-2.023542"><ele>377</ele><time>2020-08-19T10:33:48Z</time><name>PT2587</name></trkpt>
<trkpt lat="53.245481" lon="-2.023535"><ele>377</ele><time>2020-08-19T10:33:49Z</time><name>PT2588</name></trkpt>
<trkpt lat="53.245490" lon="-2.023528"><ele>377</ele><time>2020-08-19T10:33:50Z</time><name>PT2589</name></trkpt>
<trkpt lat="53.245497" lon="-2.023516"><ele>376</ele><time>2020-08-19T10:33:51Z</time><name>PT2590</name></trkpt>
<trkpt lat="53.245506" lon="-2.023506"><ele>376</ele><time>2020-08-19T10:33:52Z</time><name>PT2591</name></trkpt>
<trkpt lat="53.245511" lon="-2.023496"><ele>375</ele><time>2020-08-19T10:33:53Z</time><name>PT2592</name></trkpt>
<trkpt lat="53.245520" lon="-2.023487"><ele>375</ele><time>2020-08-19T10:33:54Z</time><name>PT2593</name></trkpt>
<trkpt lat="53.245530" lon="-2.023482"><ele>375</ele><time>2020-08-19T10:33:55Z</time><name>PT2594</name></trkpt>
<trkpt lat="53.245541" lon="-2.023477"><ele>375</ele><time>2020-08-19T10:33:56Z</time><name>PT2595</name></trkpt>
<trkpt lat="53.245551" lon="-2.023465"><ele>375</ele><time>2020-08-19T10:33:57Z</time><name>PT2596</name></trkpt>
<trkpt lat="53.245560" lon="-2.023457"><ele>375</ele><time>2020-08-19T10:33:58Z</time><name>PT2597</name></trkpt>
<trkpt lat="53.245570" lon="-2.023449"><ele>375</ele><time>2020-08-19T10:33:59Z</time><name>PT2598</name></trkpt>
<trkpt lat="53.245582" lon="-2.023439"><ele>376</ele><time>2020-08-19T10:34:00Z</time><name>PT2599</name></trkpt>
<trkpt lat="53.245590" lon="-2.023428"><ele>376</ele><time>2020-08-19T10:34:01Z</time><name>PT2600</name></trkpt>
<trkpt lat="53.245601" lon="-2.023415"><ele>376</ele><time>2020-08-19T10:34:02Z</time><name>PT2601</name></trkpt>
<trkpt lat="53.245611" lon="-2.023404"><ele>376</ele><time>2020-08-19T10:34:03Z</time><name>PT2602</name></trkpt>
<trkpt lat="53.245620" lon="-2.023396"><ele>376</ele><time>2020-08-19T10:34:04Z</time><name>PT2603</name></trkpt>
<trkpt lat="53.245631" lon="-2.023388"><ele>376</ele><time>2020-08-19T10:34:05Z</time><name>PT2604</name></trkpt>
<trkpt lat="53.245646" lon="-2.023379"><ele>377</ele><time>2020-08-19T10:34:06Z</time><name>PT2605</name></trkpt>
<trkpt lat="53.245654" lon="-2.023372"><ele>377</ele><time>2020-08-19T10:34:07Z</time><name>PT2606</name></trkpt>
<trkpt lat="53.245665" lon="-2.023364"><ele>378</ele><time>2020-08-19T10:34:08Z</time><name>PT2607</name></trkpt>
<trkpt lat="53.245675" lon="-2.023354"><ele>378</ele><time>2020-08-19T10:34:09Z</time><name>PT2608</name></trkpt>
<trkpt lat="53.245688" lon="-2.023345"><ele>378</ele><time>2020-08-19T10:34:10Z</time><name>PT2609</name></trkpt>
<trkpt lat="53.245698" lon="-2.023333"><ele>378</ele><time>2020-08-19T10:34:11Z</time><name>PT2610</name></trkpt>
<trkpt lat="53.245710" lon="-2.023323"><ele>378</ele><time>2020-08-19T10:34:12Z</time><name>PT2611</name></trkpt>
<trkpt lat="53.245720" lon="-2.023314"><ele>378</ele><time>2020-08-19T10:34:13Z</time><name>PT2612</name></trkpt>
<trkpt lat="53.245729" lon="-2.023302"><ele>378</ele><time>2020-08-19T10:34:14Z</time><name>PT2613</name></trkpt>
<trkpt lat="53.245740" lon="-2.023294"><ele>378</ele><time>2020-08-19T10:34:15Z</time><name>PT2614</name></trkpt>
<trkpt lat="53.245752" lon="-2.023288"><ele>378</ele><time>2020-08-19T10:34:16Z</time><name>PT2615</name></trkpt>
<trkpt lat="53.245763" lon="-2.023280"><ele>378</ele><time>2020-08-19T10:34:17Z</time><name>PT2616</name></trkpt>
<trkpt lat="53.245775" lon="-2.023272"><ele>378</ele><time>2020-08-19T10:34:18Z</time><name>PT2617</name></trkpt>
<trkpt lat="53.245788" lon="-2.023263"><ele>378</ele><time>2020-08-19T10:34:19Z</time><name>PT2618</name></trkpt>
<trkpt lat="53.245799" lon="-2.023253"><ele>378</ele><time>2020-08-19T10:34:20Z</time><name>PT2619</name></trkpt>
<trkpt lat="53.245813" lon="-2.023247"><ele>379</ele><time>2020-08-19T10:34:21Z</time><name>PT2620</name></trkpt>
<trkpt lat="53.245827" lon="-2.023235"><ele>379</ele><time>2020-08-19T10:34:22Z</time><name>PT2621</name></trkpt>
<trkpt lat="53.245839" lon="-2.023224"><ele>379</ele><time>2020-08-19T10:34:23Z</time><name>PT2622</name></trkpt>
<trkpt lat="53.245848" lon="-2.023211"><ele>379</ele><time>2020-08-19T10:34:24Z</time><name>PT2623</name></trkpt>
<trkpt lat="53.245858" lon="-2.023198"><ele>380</ele><time>2020-08-19T10:34:25Z</time><name>PT2624</name></trkpt>
<trkpt lat="53.245870" lon="-2.023186"><ele>380</ele><time>2020-08-19T10:34:26Z</time><name>PT2625</name></trkpt>
<trkpt lat="53.245881" lon="-2.023177"><ele>380</ele><time>2020-08-19T10:34:27Z</time><name>PT2626</name></trkpt>
<trkpt lat="53.245890" lon="-2.023167"><ele>380</ele><time>2020-08-19T10:34:28Z</time><name>PT2627</name></trkpt>
<trkpt lat="53.245902" lon="-2.023157"><ele>380</ele><time>2020-08-19T10:34:29Z</time><name>PT2628</name></trkpt>
<trkpt lat="53.245916" lon="-2.023146"><ele>381</ele><time>2020-08-19T10:34:30Z</time><name>PT2629</name></trkpt>
<trkpt lat="53.245928" lon="-2.023141"><ele>381</ele><time>2020-08-19T10:34:31Z</time><name>PT2630</name></trkpt>
<trkpt lat="53.245940" lon="-2.023138"><ele>381</ele><time>2020-08-19T10:34:32Z</time><name>PT2631</name></trkpt>
<trkpt lat="53.245954" lon="-2.023132"><ele>381</ele><time>2020-08-19T10:34:33Z</time><name>PT2632</name></trkpt>
<trkpt lat="53.245962" lon="-2.023126"><ele>382</ele><time>2020-08-19T10:34:34Z</time><name>PT2633</name></trkpt>
<trkpt lat="53.245972" lon="-2.023125"><ele>382</ele><time>2020-08-19T10:34:35Z</time><name>PT2634</name></trkpt>
<trkpt lat="53.245983" lon="-2.023128"><ele>382</ele><time>2020-08-19T10:34:36Z</time><name>PT2635</name></trkpt>
<trkpt lat="53.245992" lon="-2.023130"><ele>382</ele><time>2020-08-19T10:34:37Z</time><name>PT2636</name></trkpt>
<trkpt lat="53.246004" lon="-2.023130"><ele>382</ele><time>2020-08-19T10:34:38Z</time><name>PT2637</name></trkpt>
<trkpt lat="53.246015" lon="-2.023127"><ele>382</ele><time>2020-08-19T10:34:39Z</time><name>PT2638</name></trkpt>
<trkpt lat="53.246028" lon="-2.023120"><ele>382</ele><time>2020-08-19T10:34:40Z</time><name>PT2639</name></trkpt>
<trkpt lat="53.246038" lon="-2.023113"><ele>383</ele><time>2020-08-19T10:34:41Z</time><name>PT2640</name></trkpt>
<trkpt lat="53.246047" lon="-2.023106"><ele>382</ele><time>2020-08-19T10:34:42Z</time><name>PT2641</name></trkpt>
<trkpt lat="53.246059" lon="-2.023100"><ele>383</ele><time>2020-08-19T10:34:43Z</time><name>PT2642</name></trkpt>
<trkpt lat="53.246068" lon="-2.023096"><ele>382</ele><time>2020-08-19T10:34:44Z</time><name>PT2643</name></trkpt>
<trkpt lat="53.246081" lon="-2.023089"><ele>382</ele><time>2020-08-19T10:34:45Z</time><name>PT2644</name></trkpt>
<trkpt lat="53.246094" lon="-2.023082"><ele>382</ele><time>2020-08-19T10:34:46Z</time><name>PT2645</name></trkpt>
<trkpt lat="53.246106" lon="-2.023077"><ele>383</ele><time>2020-08-19T10:34:47Z</time><name>PT2646</name></trkpt>
<trkpt lat="53.246115" lon="-2.023073"><ele>383</ele><time>2020-08-19T10:34:48Z</time><name>PT2647</name></trkpt>
<trkpt lat="53.246125" lon="-2.023070"><ele>383</ele><time>2020-08-19T10:34:49Z</time><name>PT2648</name></trkpt>
<trkpt lat="53.246138" lon="-2.023063"><ele>383</ele><time>2020-08-19T10:34:50Z</time><name>PT2649</name></trkpt>
<trkpt lat="53.246147" lon="-2.023058"><ele>383</ele><time>2020-08-19T10:34:51Z</time><name>PT2650</name></trkpt>
<trkpt lat="53.246161" lon="-2.023048"><ele>384</ele><time>2020-08-19T10:34:52Z</time><name>PT2651</name></trkpt>
<trkpt lat="53.246172" lon="-2.023043"><ele>384</ele><time>2020-08-19T10:34:53Z</time><name>PT2652</name></trkpt>
<trkpt lat="53.246185" lon="-2.023038"><ele>384</ele><time>2020-08-19T10:34:54Z</time><name>PT2653</name></trkpt>
<trkpt lat="53.246196" lon="-2.023032"><ele>384</ele><time>2020-08-19T10:34:55Z</time><name>PT2654</name></trkpt>
<trkpt lat="53.246208" lon="-2.023025"><ele>385</ele><time>2020-08-19T10:34:56Z</time><name>PT2655</name></trkpt>
<trkpt lat="53.246218" lon="-2.023012"><ele>385</ele><time>2020-08-19T10:34:57Z</time><name>PT2656</name></trkpt>
<trkpt lat="53.246222" lon="-2.023006"><ele>385</ele><time>2020-08-19T10:34:58Z</time><name>PT2657</name></trkpt>
<trkpt lat="53.246234" lon="-2.023004"><ele>385</ele><time>2020-08-19T10:34:59Z</time><name>PT2658</name></trkpt>
<trkpt lat="53.246244" lon="-2.022999"><ele>384</ele><time>2020-08-19T10:35:00Z</time><name>PT2659</name></trkpt>
<trkpt lat="53.246253" lon="-2.022993"><ele>384</ele><time>2020-08-19T10:35:01Z</time><name>PT2660</name></trkpt>
<trkpt lat="53.246264" lon="-2.022985"><ele>385</ele><time>2020-08-19T10:35:02Z</time><name>PT2661</name></trkpt>
<trkpt lat="53.246274" lon="-2.022983"><ele>384</ele><time>2020-08-19T10:35:03Z</time><name>PT2662</name></trkpt>
<trkpt lat="53.246283" lon="-2.022977"><ele>384</ele><time>2020-08-19T10:35:04Z</time><name>PT2663</name></trkpt>
<trkpt lat="53.246295" lon="-2.022971"><ele>384</ele><time>2020-08-19T10:35:05Z</time><name>PT2664</name></trkpt>
<trkpt lat="53.246307" lon="-2.022965"><ele>384</ele><time>2020-08-19T10:35:06Z</time><name>PT2665</name></trkpt>
<trkpt lat="53.246346" lon="-2.022937"><ele>384</ele><time>2020-08-19T10:35:09Z</time><name>PT2666</name></trkpt>
<trkpt lat="53.246389" lon="-2.022913"><ele>385</ele><time>2020-08-19T10:35:13Z</time><name>PT2667</name></trkpt>
<trkpt lat="53.246429" lon="-2.022887"><ele>385</ele><time>2020-08-19T10:35:16Z</time><name>PT2668</name></trkpt>
<trkpt lat="53.246462" lon="-2.022859"><ele>385</ele><time>2020-08-19T10:35:19Z</time><name>PT2669</name></trkpt>
<trkpt lat="53.246503" lon="-2.022827"><ele>387</ele><time>2020-08-19T10:35:22Z</time><name>PT2670</name></trkpt>
<trkpt lat="53.246533" lon="-2.022804"><ele>386</ele><time>2020-08-19T10:35:25Z</time><name>PT2671</name></trkpt>
<trkpt lat="53.246568" lon="-2.022776"><ele>387</ele><time>2020-08-19T10:35:28Z</time><name>PT2672</name></trkpt>
<trkpt lat="53.246618" lon="-2.022734"><ele>387</ele><time>2020-08-19T10:35:32Z</time><name>PT2673</name></trkpt>
<trkpt lat="53.246678" lon="-2.022693"><ele>388</ele><time>2020-08-19T10:35:36Z</time><name>PT2674</name></trkpt>
<trkpt lat="53.246729" lon="-2.022653"><ele>388</ele><time>2020-08-19T10:35:40Z</time><name>PT2675</name></trkpt>
<trkpt lat="53.246780" lon="-2.022614"><ele>388</ele><time>2020-08-19T10:35:44Z</time><name>PT2676</name></trkpt>
<trkpt lat="53.246818" lon="-2.022586"><ele>386</ele><time>2020-08-19T10:35:47Z</time><name>PT2677</name></trkpt>
<trkpt lat="53.246848" lon="-2.022556"><ele>385</ele><time>2020-08-19T10:35:50Z</time><name>PT2678</name></trkpt>
<trkpt lat="53.246895" lon="-2.022521"><ele>385</ele><time>2020-08-19T10:35:54Z</time><name>PT2679</name></trkpt>
<trkpt lat="53.246923" lon="-2.022489"><ele>385</ele><time>2020-08-19T10:35:57Z</time><name>PT2680</name></trkpt>
<trkpt lat="53.246956" lon="-2.022459"><ele>386</ele><time>2020-08-19T10:36:00Z</time><name>PT2681</name></trkpt>
<trkpt lat="53.247002" lon="-2.022410"><ele>386</ele><time>2020-08-19T10:36:04Z</time><name>PT2682</name></trkpt>
<trkpt lat="53.247061" lon="-2.022361"><ele>388</ele><time>2020-08-19T10:36:08Z</time><name>PT2683</name></trkpt>
<trkpt lat="53.247101" lon="-2.022315"><ele>388</ele><time>2020-08-19T10:36:12Z</time><name>PT2684</name></trkpt>
<trkpt lat="53.247125" lon="-2.022281"><ele>387</ele><time>2020-08-19T10:36:15Z</time><name>PT2685</name></trkpt>
<trkpt lat="53.247149" lon="-2.022232"><ele>387</ele><time>2020-08-19T10:36:18Z</time><name>PT2686</name></trkpt>
<trkpt lat="53.247175" lon="-2.022191"><ele>388</ele><time>2020-08-19T10:36:21Z</time><name>PT2687</name></trkpt>
<trkpt lat="53.247200" lon="-2.022144"><ele>388</ele><time>2020-08-19T10:36:24Z</time><name>PT2688</name></trkpt>
<trkpt lat="53.247231" lon="-2.022081"><ele>387</ele><time>2020-08-19T10:36:28Z</time><name>PT2689</name></trkpt>
<trkpt lat="53.247265" lon="-2.022018"><ele>387</ele><time>2020-08-19T10:36:32Z</time><name>PT2690</name></trkpt>
<trkpt lat="53.247302" lon="-2.021948"><ele>387</ele><time>2020-08-19T10:36:36Z</time><name>PT2691</name></trkpt>
<trkpt lat="53.247333" lon="-2.021894"><ele>386</ele><time>2020-08-19T10:36:40Z</time><name>PT2692</name></trkpt>
<trkpt lat="53.247368" lon="-2.021854"><ele>386</ele><time>2020-08-19T10:36:42Z</time><name>PT2693</name></trkpt>
<trkpt lat="53.247392" lon="-2.021836"><ele>387</ele><time>2020-08-19T10:36:43Z</time><name>PT2694</name></trkpt>
<trkpt lat="53.247406" lon="-2.021825"><ele>387</ele><time>2020-08-19T10:36:44Z</time><name>PT2695</name></trkpt>
<trkpt lat="53.247417" lon="-2.021815"><ele>388</ele><time>2020-08-19T10:36:45Z</time><name>PT2696</name></trkpt>
<trkpt lat="53.247428" lon="-2.021808"><ele>388</ele><time>2020-08-19T10:36:46Z</time><name>PT2697</name></trkpt>
<trkpt lat="53.247437" lon="-2.021796"><ele>388</ele><time>2020-08-19T10:36:47Z</time><name>PT2698</name></trkpt>
<trkpt lat="53.247443" lon="-2.021783"><ele>388</ele><time>2020-08-19T10:36:48Z</time><name>PT2699</name></trkpt>
<trkpt lat="53.247447" lon="-2.021771"><ele>388</ele><time>2020-08-19T10:36:49Z</time><name>PT2700</name></trkpt>
<trkpt lat="53.247451" lon="-2.021768"><ele>389</ele><time>2020-08-19T10:36:50Z</time><name>PT2701</name></trkpt>
<trkpt lat="53.247450" lon="-2.021769"><ele>389</ele><time>2020-08-19T10:36:51Z</time><name>PT2702</name></trkpt>
<trkpt lat="53.247451" lon="-2.021768"><ele>389</ele><time>2020-08-19T10:36:52Z</time><name>PT2703</name></trkpt>
<trkpt lat="53.247453" lon="-2.021764"><ele>389</ele><time>2020-08-19T10:36:53Z</time><name>PT2704</name></trkpt>
<trkpt lat="53.247458" lon="-2.021759"><ele>389</ele><time>2020-08-19T10:36:54Z</time><name>PT2705</name></trkpt>
<trkpt lat="53.247468" lon="-2.021754"><ele>389</ele><time>2020-08-19T10:36:55Z</time><name>PT2706</name></trkpt>
<trkpt lat="53.247473" lon="-2.021746"><ele>389</ele><time>2020-08-19T10:36:56Z</time><name>PT2707</name></trkpt>
<trkpt lat="53.247479" lon="-2.021736"><ele>389</ele><time>2020-08-19T10:36:57Z</time><name>PT2708</name></trkpt>
<trkpt lat="53.247482" lon="-2.021728"><ele>389</ele><time>2020-08-19T10:36:58Z</time><name>PT2709</name></trkpt>
<trkpt lat="53.247486" lon="-2.021721"><ele>389</ele><time>2020-08-19T10:36:59Z</time><name>PT2710</name></trkpt>
<trkpt lat="53.247486" lon="-2.021719"><ele>389</ele><time>2020-08-19T10:37:00Z</time><name>PT2711</name></trkpt>
<trkpt lat="53.247482" lon="-2.021715"><ele>389</ele><time>2020-08-19T10:37:01Z</time><name>PT2712</name></trkpt>
<trkpt lat="53.247477" lon="-2.021711"><ele>389</ele><time>2020-08-19T10:37:02Z</time><name>PT2713</name></trkpt>
<trkpt lat="53.247479" lon="-2.021709"><ele>389</ele><time>2020-08-19T10:37:09Z</time><name>PT2714</name></trkpt>
<trkpt lat="53.247484" lon="-2.021695"><ele>389</ele><time>2020-08-19T10:37:10Z</time><name>PT2715</name></trkpt>
<trkpt lat="53.247488" lon="-2.021679"><ele>388</ele><time>2020-08-19T10:37:11Z</time><name>PT2716</name></trkpt>
<trkpt lat="53.247493" lon="-2.021665"><ele>388</ele><time>2020-08-19T10:37:12Z</time><name>PT2717</name></trkpt>
<trkpt lat="53.247493" lon="-2.021656"><ele>388</ele><time>2020-08-19T10:37:13Z</time><name>PT2718</name></trkpt>
<trkpt lat="53.247495" lon="-2.021643"><ele>388</ele><time>2020-08-19T10:37:14Z</time><name>PT2719</name></trkpt>
<trkpt lat="53.247498" lon="-2.021628"><ele>388</ele><time>2020-08-19T10:37:15Z</time><name>PT2720</name></trkpt>
<trkpt lat="53.247503" lon="-2.021614"><ele>388</ele><time>2020-08-19T10:37:16Z</time><name>PT2721</name></trkpt>
<trkpt lat="53.247510" lon="-2.021602"><ele>388</ele><time>2020-08-19T10:37:17Z</time><name>PT2722</name></trkpt>
<trkpt lat="53.247509" lon="-2.021584"><ele>388</ele><time>2020-08-19T10:37:18Z</time><name>PT2723</name></trkpt>
<trkpt lat="53.247509" lon="-2.021567"><ele>389</ele><time>2020-08-19T10:37:19Z</time><name>PT2724</name></trkpt>
<trkpt lat="53.247511" lon="-2.021550"><ele>389</ele><time>2020-08-19T10:37:20Z</time><name>PT2725</name></trkpt>
<trkpt lat="53.247514" lon="-2.021527"><ele>388</ele><time>2020-08-19T10:37:21Z</time><name>PT2726</name></trkpt>
<trkpt lat="53.247517" lon="-2.021509"><ele>388</ele><time>2020-08-19T10:37:22Z</time><name>PT2727</name></trkpt>
<trkpt lat="53.247513" lon="-2.021493"><ele>388</ele><time>2020-08-19T10:37:23Z</time><name>PT2728</name></trkpt>
<trkpt lat="53.247515" lon="-2.021474"><ele>388</ele><time>2020-08-19T10:37:24Z</time><name>PT2729</name></trkpt>
<trkpt lat="53.247518" lon="-2.021456"><ele>388</ele><time>2020-08-19T10:37:25Z</time><name>PT2730</name></trkpt>
<trkpt lat="53.247519" lon="-2.021436"><ele>388</ele><time>2020-08-19T10:37:26Z</time><name>PT2731</name></trkpt>
<trkpt lat="53.247523" lon="-2.021414"><ele>388</ele><time>2020-08-19T10:37:27Z</time><name>PT2732</name></trkpt>
<trkpt lat="53.247524" lon="-2.021394"><ele>388</ele><time>2020-08-19T10:37:28Z</time><name>PT2733</name></trkpt>
<trkpt lat="53.247533" lon="-2.021377"><ele>388</ele><time>2020-08-19T10:37:29Z</time><name>PT2734</name></trkpt>
<trkpt lat="53.247537" lon="-2.021360"><ele>388</ele><time>2020-08-19T10:37:30Z</time><name>PT2735</name></trkpt>
<trkpt lat="53.247542" lon="-2.021345"><ele>388</ele><time>2020-08-19T10:37:31Z</time><name>PT2736</name></trkpt>
<trkpt lat="53.247548" lon="-2.021327"><ele>389</ele><time>2020-08-19T10:37:32Z</time><name>PT2737</name></trkpt>
<trkpt lat="53.247549" lon="-2.021310"><ele>389</ele><time>2020-08-19T10:37:33Z</time><name>PT2738</name></trkpt>
<trkpt lat="53.247552" lon="-2.021295"><ele>389</ele><time>2020-08-19T10:37:34Z</time><name>PT2739</name></trkpt>
<trkpt lat="53.247550" lon="-2.021282"><ele>389</ele><time>2020-08-19T10:37:35Z</time><name>PT2740</name></trkpt>
<trkpt lat="53.247550" lon="-2.021268"><ele>390</ele><time>2020-08-19T10:37:36Z</time><name>PT2741</name></trkpt>
<trkpt lat="53.247551" lon="-2.021250"><ele>390</ele><time>2020-08-19T10:37:37Z</time><name>PT2742</name></trkpt>
<trkpt lat="53.247551" lon="-2.021236"><ele>390</ele><time>2020-08-19T10:37:38Z</time><name>PT2743</name></trkpt>
<trkpt lat="53.247550" lon="-2.021223"><ele>390</ele><time>2020-08-19T10:37:39Z</time><name>PT2744</name></trkpt>
<trkpt lat="53.247549" lon="-2.021207"><ele>391</ele><time>2020-08-19T10:37:40Z</time><name>PT2745</name></trkpt>
<trkpt lat="53.247548" lon="-2.021193"><ele>391</ele><time>2020-08-19T10:37:41Z</time><name>PT2746</name></trkpt>
<trkpt lat="53.247547" lon="-2.021178"><ele>391</ele><time>2020-08-19T10:37:42Z</time><name>PT2747</name></trkpt>
<trkpt lat="53.247546" lon="-2.021164"><ele>392</ele><time>2020-08-19T10:37:43Z</time><name>PT2748</name></trkpt>
<trkpt lat="53.247545" lon="-2.021146"><ele>391</ele><time>2020-08-19T10:37:44Z</time><name>PT2749</name></trkpt>
<trkpt lat="53.247544" lon="-2.021131"><ele>392</ele><time>2020-08-19T10:37:45Z</time><name>PT2750</name></trkpt>
<trkpt lat="53.247543" lon="-2.021111"><ele>392</ele><time>2020-08-19T10:37:46Z</time><name>PT2751</name></trkpt>
<trkpt lat="53.247543" lon="-2.021093"><ele>392</ele><time>2020-08-19T10:37:47Z</time><name>PT2752</name></trkpt>
<trkpt lat="53.247543" lon="-2.021072"><ele>392</ele><time>2020-08-19T10:37:48Z</time><name>PT2753</name></trkpt>
<trkpt lat="53.247542" lon="-2.021052"><ele>392</ele><time>2020-08-19T10:37:49Z</time><name>PT2754</name></trkpt>
<trkpt lat="53.247539" lon="-2.021034"><ele>392</ele><time>2020-08-19T10:37:50Z</time><name>PT2755</name></trkpt>
<trkpt lat="53.247536" lon="-2.021013"><ele>391</ele><time>2020-08-19T10:37:51Z</time><name>PT2756</name></trkpt>
<trkpt lat="53.247533" lon="-2.020994"><ele>391</ele><time>2020-08-19T10:37:52Z</time><name>PT2757</name></trkpt>
<trkpt lat="53.247531" lon="-2.020973"><ele>391</ele><time>2020-08-19T10:37:53Z</time><name>PT2758</name></trkpt>
<trkpt lat="53.247527" lon="-2.020954"><ele>390</ele><time>2020-08-19T10:37:54Z</time><name>PT2759</name></trkpt>
<trkpt lat="53.247525" lon="-2.020937"><ele>390</ele><time>2020-08-19T10:37:55Z</time><name>PT2760</name></trkpt>
<trkpt lat="53.247524" lon="-2.020919"><ele>390</ele><time>2020-08-19T10:37:56Z</time><name>PT2761</name></trkpt>
<trkpt lat="53.247523" lon="-2.020902"><ele>390</ele><time>2020-08-19T10:37:57Z</time><name>PT2762</name></trkpt>
<trkpt lat="53.247521" lon="-2.020879"><ele>390</ele><time>2020-08-19T10:37:58Z</time><name>PT2763</name></trkpt>
<trkpt lat="53.247517" lon="-2.020859"><ele>390</ele><time>2020-08-19T10:37:59Z</time><name>PT2764</name></trkpt>
<trkpt lat="53.247515" lon="-2.020842"><ele>390</ele><time>2020-08-19T10:38:00Z</time><name>PT2765</name></trkpt>
<trkpt lat="53.247510" lon="-2.020824"><ele>390</ele><time>2020-08-19T10:38:01Z</time><name>PT2766</name></trkpt>
<trkpt lat="53.247506" lon="-2.020807"><ele>389</ele><time>2020-08-19T10:38:02Z</time><name>PT2767</name></trkpt>
<trkpt lat="53.247503" lon="-2.020786"><ele>389</ele><time>2020-08-19T10:38:03Z</time><name>PT2768</name></trkpt>
<trkpt lat="53.247500" lon="-2.020764"><ele>389</ele><time>2020-08-19T10:38:04Z</time><name>PT2769</name></trkpt>
<trkpt lat="53.247497" lon="-2.020745"><ele>389</ele><time>2020-08-19T10:38:05Z</time><name>PT2770</name></trkpt>
<trkpt lat="53.247496" lon="-2.020727"><ele>389</ele><time>2020-08-19T10:38:06Z</time><name>PT2771</name></trkpt>
<trkpt lat="53.247493" lon="-2.020706"><ele>389</ele><time>2020-08-19T10:38:07Z</time><name>PT2772</name></trkpt>
<trkpt lat="53.247492" lon="-2.020686"><ele>389</ele><time>2020-08-19T10:38:08Z</time><name>PT2773</name></trkpt>
<trkpt lat="53.247494" lon="-2.020664"><ele>389</ele><time>2020-08-19T10:38:09Z</time><name>PT2774</name></trkpt>
<trkpt lat="53.247492" lon="-2.020646"><ele>389</ele><time>2020-08-19T10:38:10Z</time><name>PT2775</name></trkpt>
<trkpt lat="53.247487" lon="-2.020632"><ele>389</ele><time>2020-08-19T10:38:11Z</time><name>PT2776</name></trkpt>
<trkpt lat="53.247480" lon="-2.020618"><ele>389</ele><time>2020-08-19T10:38:12Z</time><name>PT2777</name></trkpt>
<trkpt lat="53.247474" lon="-2.020603"><ele>388</ele><time>2020-08-19T10:38:13Z</time><name>PT2778</name></trkpt>
<trkpt lat="53.247471" lon="-2.020584"><ele>388</ele><time>2020-08-19T10:38:14Z</time><name>PT2779</name></trkpt>
<trkpt lat="53.247471" lon="-2.020565"><ele>388</ele><time>2020-08-19T10:38:15Z</time><name>PT2780</name></trkpt>
<trkpt lat="53.247472" lon="-2.020547"><ele>388</ele><time>2020-08-19T10:38:16Z</time><name>PT2781</name></trkpt>
<trkpt lat="53.247472" lon="-2.020531"><ele>387</ele><time>2020-08-19T10:38:17Z</time><name>PT2782</name></trkpt>
<trkpt lat="53.247472" lon="-2.020520"><ele>387</ele><time>2020-08-19T10:38:18Z</time><name>PT2783</name></trkpt>
<trkpt lat="53.247471" lon="-2.020505"><ele>387</ele><time>2020-08-19T10:38:19Z</time><name>PT2784</name></trkpt>
<trkpt lat="53.247466" lon="-2.020491"><ele>386</ele><time>2020-08-19T10:38:20Z</time><name>PT2785</name></trkpt>
<trkpt lat="53.247457" lon="-2.020481"><ele>386</ele><time>2020-08-19T10:38:21Z</time><name>PT2786</name></trkpt>
<trkpt lat="53.247450" lon="-2.020474"><ele>385</ele><time>2020-08-19T10:38:22Z</time><name>PT2787</name></trkpt>
<trkpt lat="53.247447" lon="-2.020457"><ele>385</ele><time>2020-08-19T10:38:23Z</time><name>PT2788</name></trkpt>
<trkpt lat="53.247445" lon="-2.020444"><ele>385</ele><time>2020-08-19T10:38:24Z</time><name>PT2789</name></trkpt>
<trkpt lat="53.247442" lon="-2.020423"><ele>385</ele><time>2020-08-19T10:38:25Z</time><name>PT2790</name></trkpt>
<trkpt lat="53.247437" lon="-2.020410"><ele>384</ele><time>2020-08-19T10:38:26Z</time><name>PT2791</name></trkpt>
<trkpt lat="53.247426" lon="-2.020403"><ele>383</ele><time>2020-08-19T10:38:27Z</time><name>PT2792</name></trkpt>
<trkpt lat="53.247418" lon="-2.020380"><ele>383</ele><time>2020-08-19T10:38:28Z</time><name>PT2793</name></trkpt>
<trkpt lat="53.247416" lon="-2.020362"><ele>383</ele><time>2020-08-19T10:38:29Z</time><name>PT2794</name></trkpt>
<trkpt lat="53.247416" lon="-2.020344"><ele>382</ele><time>2020-08-19T10:38:30Z</time><name>PT2795</name></trkpt>
<trkpt lat="53.247410" lon="-2.020329"><ele>382</ele><time>2020-08-19T10:38:31Z</time><name>PT2796</name></trkpt>
<trkpt lat="53.247403" lon="-2.020313"><ele>381</ele><time>2020-08-19T10:38:32Z</time><name>PT2797</name></trkpt>
<trkpt lat="53.247398" lon="-2.020292"><ele>381</ele><time>2020-08-19T10:38:33Z</time><name>PT2798</name></trkpt>
<trkpt lat="53.247392" lon="-2.020268"><ele>381</ele><time>2020-08-19T10:38:34Z</time><name>PT2799</name></trkpt>
<trkpt lat="53.247389" lon="-2.020252"><ele>380</ele><time>2020-08-19T10:38:35Z</time><name>PT2800</name></trkpt>
<trkpt lat="53.247389" lon="-2.020245"><ele>380</ele><time>2020-08-19T10:38:36Z</time><name>PT2801</name></trkpt>
<trkpt lat="53.247388" lon="-2.020237"><ele>380</ele><time>2020-08-19T10:38:37Z</time><name>PT2802</name></trkpt>
<trkpt lat="53.247385" lon="-2.020221"><ele>380</ele><time>2020-08-19T10:38:38Z</time><name>PT2803</name></trkpt>
<trkpt lat="53.247381" lon="-2.020192"><ele>380</ele><time>2020-08-19T10:38:39Z</time><name>PT2804</name></trkpt>
<trkpt lat="53.247378" lon="-2.020167"><ele>380</ele><time>2020-08-19T10:38:40Z</time><name>PT2805</name></trkpt>
<trkpt lat="53.247378" lon="-2.020147"><ele>380</ele><time>2020-08-19T10:38:41Z</time><name>PT2806</name></trkpt>
<trkpt lat="53.247377" lon="-2.020132"><ele>380</ele><time>2020-08-19T10:38:42Z</time><name>PT2807</name></trkpt>
<trkpt lat="53.247374" lon="-2.020121"><ele>379</ele><time>2020-08-19T10:38:43Z</time><name>PT2808</name></trkpt>
<trkpt lat="53.247369" lon="-2.020104"><ele>379</ele><time>2020-08-19T10:38:44Z</time><name>PT2809</name></trkpt>
<trkpt lat="53.247365" lon="-2.020084"><ele>379</ele><time>2020-08-19T10:38:45Z</time><name>PT2810</name></trkpt>
<trkpt lat="53.247364" lon="-2.020063"><ele>379</ele><time>2020-08-19T10:38:46Z</time><name>PT2811</name></trkpt>
<trkpt lat="53.247361" lon="-2.020037"><ele>379</ele><time>2020-08-19T10:38:47Z</time><name>PT2812</name></trkpt>
<trkpt lat="53.247358" lon="-2.020015"><ele>378</ele><time>2020-08-19T10:38:48Z</time><name>PT2813</name></trkpt>
<trkpt lat="53.247357" lon="-2.019999"><ele>378</ele><time>2020-08-19T10:38:49Z</time><name>PT2814</name></trkpt>
<trkpt lat="53.247359" lon="-2.019989"><ele>377</ele><time>2020-08-19T10:38:50Z</time><name>PT2815</name></trkpt>
<trkpt lat="53.247360" lon="-2.019977"><ele>377</ele><time>2020-08-19T10:38:51Z</time><name>PT2816</name></trkpt>
<trkpt lat="53.247360" lon="-2.019959"><ele>377</ele><time>2020-08-19T10:38:52Z</time><name>PT2817</name></trkpt>
<trkpt lat="53.247358" lon="-2.019942"><ele>376</ele><time>2020-08-19T10:38:53Z</time><name>PT2818</name></trkpt>
<trkpt lat="53.247358" lon="-2.019925"><ele>376</ele><time>2020-08-19T10:38:54Z</time><name>PT2819</name></trkpt>
<trkpt lat="53.247356" lon="-2.019905"><ele>375</ele><time>2020-08-19T10:38:55Z</time><name>PT2820</name></trkpt>
<trkpt lat="53.247355" lon="-2.019884"><ele>376</ele><time>2020-08-19T10:38:56Z</time><name>PT2821</name></trkpt>
<trkpt lat="53.247353" lon="-2.019866"><ele>375</ele><time>2020-08-19T10:38:57Z</time><name>PT2822</name></trkpt>
<trkpt lat="53.247352" lon="-2.019845"><ele>375</ele><time>2020-08-19T10:38:58Z</time><name>PT2823</name></trkpt>
<trkpt lat="53.247351" lon="-2.019824"><ele>375</ele><time>2020-08-19T10:38:59Z</time><name>PT2824</name></trkpt>
<trkpt lat="53.247351" lon="-2.019806"><ele>375</ele><time>2020-08-19T10:39:00Z</time><name>PT2825</name></trkpt>
<trkpt lat="53.247350" lon="-2.019790"><ele>374</ele><time>2020-08-19T10:39:01Z</time><name>PT2826</name></trkpt>
<trkpt lat="53.247349" lon="-2.019774"><ele>374</ele><time>2020-08-19T10:39:02Z</time><name>PT2827</name></trkpt>
<trkpt lat="53.247347" lon="-2.019758"><ele>374</ele><time>2020-08-19T10:39:03Z</time><name>PT2828</name></trkpt>
<trkpt lat="53.247342" lon="-2.019742"><ele>374</ele><time>2020-08-19T10:39:04Z</time><name>PT2829</name></trkpt>
<trkpt lat="53.247337" lon="-2.019727"><ele>374</ele><time>2020-08-19T10:39:05Z</time><name>PT2830</name></trkpt>
<trkpt lat="53.247333" lon="-2.019711"><ele>374</ele><time>2020-08-19T10:39:06Z</time><name>PT2831</name></trkpt>
<trkpt lat="53.247331" lon="-2.019694"><ele>374</ele><time>2020-08-19T10:39:07Z</time><name>PT2832</name></trkpt>
<trkpt lat="53.247328" lon="-2.019678"><ele>373</ele><time>2020-08-19T10:39:08Z</time><name>PT2833</name></trkpt>
<trkpt lat="53.247324" lon="-2.019664"><ele>373</ele><time>2020-08-19T10:39:09Z</time><name>PT2834</name></trkpt>
<trkpt lat="53.247318" lon="-2.019648"><ele>373</ele><time>2020-08-19T10:39:10Z</time><name>PT2835</name></trkpt>
<trkpt lat="53.247315" lon="-2.019633"><ele>373</ele><time>2020-08-19T10:39:11Z</time><name>PT2836</name></trkpt>
<trkpt lat="53.247311" lon="-2.019617"><ele>373</ele><time>2020-08-19T10:39:12Z</time><name>PT2837</name></trkpt>
<trkpt lat="53.247309" lon="-2.019603"><ele>373</ele><time>2020-08-19T10:39:13Z</time><name>PT2838</name></trkpt>
<trkpt lat="53.247310" lon="-2.019585"><ele>373</ele><time>2020-08-19T10:39:14Z</time><name>PT2839</name></trkpt>
<trkpt lat="53.247311" lon="-2.019568"><ele>373</ele><time>2020-08-19T10:39:15Z</time><name>PT2840</name></trkpt>
<trkpt lat="53.247313" lon="-2.019554"><ele>373</ele><time>2020-08-19T10:39:16Z</time><name>PT2841</name></trkpt>
<trkpt lat="53.247313" lon="-2.019542"><ele>373</ele><time>2020-08-19T10:39:17Z</time><name>PT2842</name></trkpt>
<trkpt lat="53.247315" lon="-2.019531"><ele>372</ele><time>2020-08-19T10:39:18Z</time><name>PT2843</name></trkpt>
<trkpt lat="53.247316" lon="-2.019511"><ele>372</ele><time>2020-08-19T10:39:19Z</time><name>PT2844</name></trkpt>
<trkpt lat="53.247317" lon="-2.019490"><ele>372</ele><time>2020-08-19T10:39:20Z</time><name>PT2845</name></trkpt>
<trkpt lat="53.247319" lon="-2.019473"><ele>372</ele><time>2020-08-19T10:39:21Z</time><name>PT2846</name></trkpt>
<trkpt lat="53.247316" lon="-2.019455"><ele>372</ele><time>2020-08-19T10:39:22Z</time><name>PT2847</name></trkpt>
<trkpt lat="53.247311" lon="-2.019440"><ele>372</ele><time>2020-08-19T10:39:23Z</time><name>PT2848</name></trkpt>
<trkpt lat="53.247306" lon="-2.019428"><ele>372</ele><time>2020-08-19T10:39:24Z</time><name>PT2849</name></trkpt>
<trkpt lat="53.247302" lon="-2.019412"><ele>372</ele><time>2020-08-19T10:39:25Z</time><name>PT2850</name></trkpt>
<trkpt lat="53.247300" lon="-2.019394"><ele>372</ele><time>2020-08-19T10:39:26Z</time><name>PT2851</name></trkpt>
<trkpt lat="53.247298" lon="-2.019375"><ele>372</ele><time>2020-08-19T10:39:27Z</time><name>PT2852</name></trkpt>
<trkpt lat="53.247296" lon="-2.019354"><ele>372</ele><time>2020-08-19T10:39:28Z</time><name>PT2853</name></trkpt>
<trkpt lat="53.247296" lon="-2.019333"><ele>372</ele><time>2020-08-19T10:39:29Z</time><name>PT2854</name></trkpt>
<trkpt lat="53.247296" lon="-2.019308"><ele>372</ele><time>2020-08-19T10:39:30Z</time><name>PT2855</name></trkpt>
<trkpt lat="53.247294" lon="-2.019285"><ele>372</ele><time>2020-08-19T10:39:31Z</time><name>PT2856</name></trkpt>
<trkpt lat="53.247293" lon="-2.019268"><ele>372</ele><time>2020-08-19T10:39:32Z</time><name>PT2857</name></trkpt>
<trkpt lat="53.247291" lon="-2.019249"><ele>372</ele><time>2020-08-19T10:39:33Z</time><name>PT2858</name></trkpt>
<trkpt lat="53.247290" lon="-2.019228"><ele>372</ele><time>2020-08-19T10:39:34Z</time><name>PT2859</name></trkpt>
<trkpt lat="53.247290" lon="-2.019208"><ele>372</ele><time>2020-08-19T10:39:35Z</time><name>PT2860</name></trkpt>
<trkpt lat="53.247293" lon="-2.019187"><ele>372</ele><time>2020-08-19T10:39:36Z</time><name>PT2861</name></trkpt>
<trkpt lat="53.247296" lon="-2.019169"><ele>372</ele><time>2020-08-19T10:39:37Z</time><name>PT2862</name></trkpt>
<trkpt lat="53.247299" lon="-2.019149"><ele>372</ele><time>2020-08-19T10:39:38Z</time><name>PT2863</name></trkpt>
<trkpt lat="53.247303" lon="-2.019130"><ele>372</ele><time>2020-08-19T10:39:39Z</time><name>PT2864</name></trkpt>
<trkpt lat="53.247308" lon="-2.019112"><ele>373</ele><time>2020-08-19T10:39:40Z</time><name>PT2865</name></trkpt>
<trkpt lat="53.247314" lon="-2.019095"><ele>373</ele><time>2020-08-19T10:39:41Z</time><name>PT2866</name></trkpt>
<trkpt lat="53.247341" lon="-2.019028"><ele>373</ele><time>2020-08-19T10:39:45Z</time><name>PT2867</name></trkpt>
<trkpt lat="53.247375" lon="-2.018977"><ele>373</ele><time>2020-08-19T10:39:49Z</time><name>PT2868</name></trkpt>
<trkpt lat="53.247412" lon="-2.018924"><ele>373</ele><time>2020-08-19T10:39:53Z</time><name>PT2869</name></trkpt>
<trkpt lat="53.247419" lon="-2.018907"><ele>373</ele><time>2020-08-19T10:39:54Z</time><name>PT2870</name></trkpt>
<trkpt lat="53.247423" lon="-2.018888"><ele>374</ele><time>2020-08-19T10:39:55Z</time><name>PT2871</name></trkpt>
<trkpt lat="53.247425" lon="-2.018866"><ele>374</ele><time>2020-08-19T10:39:56Z</time><name>PT2872</name></trkpt>
<trkpt lat="53.247430" lon="-2.018847"><ele>374</ele><time>2020-08-19T10:39:57Z</time><name>PT2873</name></trkpt>
<trkpt lat="53.247434" lon="-2.018825"><ele>374</ele><time>2020-08-19T10:39:58Z</time><name>PT2874</name></trkpt>
<trkpt lat="53.247437" lon="-2.018804"><ele>374</ele><time>2020-08-19T10:39:59Z</time><name>PT2875</name></trkpt>
<trkpt lat="53.247441" lon="-2.018786"><ele>374</ele><time>2020-08-19T10:40:00Z</time><name>PT2876</name></trkpt>
<trkpt lat="53.247444" lon="-2.018768"><ele>374</ele><time>2020-08-19T10:40:01Z</time><name>PT2877</name></trkpt>
<trkpt lat="53.247450" lon="-2.018750"><ele>374</ele><time>2020-08-19T10:40:02Z</time><name>PT2878</name></trkpt>
<trkpt lat="53.247448" lon="-2.018733"><ele>374</ele><time>2020-08-19T10:40:03Z</time><name>PT2879</name></trkpt>
<trkpt lat="53.247452" lon="-2.018717"><ele>373</ele><time>2020-08-19T10:40:04Z</time><name>PT2880</name></trkpt>
<trkpt lat="53.247455" lon="-2.018699"><ele>373</ele><time>2020-08-19T10:40:05Z</time><name>PT2881</name></trkpt>
<trkpt lat="53.247457" lon="-2.018679"><ele>373</ele><time>2020-08-19T10:40:06Z</time><name>PT2882</name></trkpt>
<trkpt lat="53.247461" lon="-2.018662"><ele>373</ele><time>2020-08-19T10:40:07Z</time><name>PT2883</name></trkpt>
<trkpt lat="53.247464" lon="-2.018645"><ele>373</ele><time>2020-08-19T10:40:08Z</time><name>PT2884</name></trkpt>
<trkpt lat="53.247470" lon="-2.018632"><ele>373</ele><time>2020-08-19T10:40:09Z</time><name>PT2885</name></trkpt>
<trkpt lat="53.247474" lon="-2.018615"><ele>373</ele><time>2020-08-19T10:40:10Z</time><name>PT2886</name></trkpt>
<trkpt lat="53.247480" lon="-2.018594"><ele>373</ele><time>2020-08-19T10:40:11Z</time><name>PT2887</name></trkpt>
<trkpt lat="53.247488" lon="-2.018577"><ele>373</ele><time>2020-08-19T10:40:12Z</time><name>PT2888</name></trkpt>
<trkpt lat="53.247498" lon="-2.018561"><ele>373</ele><time>2020-08-19T10:40:13Z</time><name>PT2889</name></trkpt>
<trkpt lat="53.247508" lon="-2.018548"><ele>373</ele><time>2020-08-19T10:40:14Z</time><name>PT2890</name></trkpt>
<trkpt lat="53.247518" lon="-2.018543"><ele>373</ele><time>2020-08-19T10:40:15Z</time><name>PT2891</name></trkpt>
<trkpt lat="53.247528" lon="-2.018547"><ele>373</ele><time>2020-08-19T10:40:16Z</time><name>PT2892</name></trkpt>
<trkpt lat="53.247536" lon="-2.018545"><ele>374</ele><time>2020-08-19T10:40:17Z</time><name>PT2893</name></trkpt>
<trkpt lat="53.247542" lon="-2.018540"><ele>374</ele><time>2020-08-19T10:40:18Z</time><name>PT2894</name></trkpt>
<trkpt lat="53.247548" lon="-2.018534"><ele>373</ele><time>2020-08-19T10:40:19Z</time><name>PT2895</name></trkpt>
<trkpt lat="53.247562" lon="-2.018520"><ele>373</ele><time>2020-08-19T10:40:20Z</time><name>PT2896</name></trkpt>
<trkpt lat="53.247568" lon="-2.018509"><ele>373</ele><time>2020-08-19T10:40:21Z</time><name>PT2897</name></trkpt>
<trkpt lat="53.247575" lon="-2.018495"><ele>373</ele><time>2020-08-19T10:40:22Z</time><name>PT2898</name></trkpt>
<trkpt lat="53.247579" lon="-2.018478"><ele>373</ele><time>2020-08-19T10:40:23Z</time><name>PT2899</name></trkpt>
<trkpt lat="53.247583" lon="-2.018465"><ele>373</ele><time>2020-08-19T10:40:24Z</time><name>PT2900</name></trkpt>
<trkpt lat="53.247583" lon="-2.018443"><ele>373</ele><time>2020-08-19T10:40:25Z</time><name>PT2901</name></trkpt>
<trkpt lat="53.247591" lon="-2.018419"><ele>373</ele><time>2020-08-19T10:40:26Z</time><name>PT2902</name></trkpt>
<trkpt lat="53.247585" lon="-2.018399"><ele>373</ele><time>2020-08-19T10:40:27Z</time><name>PT2903</name></trkpt>
<trkpt lat="53.247582" lon="-2.018380"><ele>373</ele><time>2020-08-19T10:40:28Z</time><name>PT2904</name></trkpt>
<trkpt lat="53.247577" lon="-2.018372"><ele>372</ele><time>2020-08-19T10:40:29Z</time><name>PT2905</name></trkpt>
<trkpt lat="53.247575" lon="-2.018366"><ele>373</ele><time>2020-08-19T10:40:30Z</time><name>PT2906</name></trkpt>
<trkpt lat="53.247570" lon="-2.018357"><ele>373</ele><time>2020-08-19T10:40:31Z</time><name>PT2907</name></trkpt>
<trkpt lat="53.247565" lon="-2.018348"><ele>373</ele><time>2020-08-19T10:40:32Z</time><name>PT2908</name></trkpt>
<trkpt lat="53.247553" lon="-2.018344"><ele>373</ele><time>2020-08-19T10:40:33Z</time><name>PT2909</name></trkpt>
<trkpt lat="53.247543" lon="-2.018337"><ele>373</ele><time>2020-08-19T10:40:34Z</time><name>PT2910</name></trkpt>
<trkpt lat="53.247534" lon="-2.018325"><ele>373</ele><time>2020-08-19T10:40:35Z</time><name>PT2911</name></trkpt>
<trkpt lat="53.247526" lon="-2.018316"><ele>373</ele><time>2020-08-19T10:40:36Z</time><name>PT2912</name></trkpt>
<trkpt lat="53.247517" lon="-2.018306"><ele>373</ele><time>2020-08-19T10:40:37Z</time><name>PT2913</name></trkpt>
<trkpt lat="53.247509" lon="-2.018298"><ele>373</ele><time>2020-08-19T10:40:38Z</time><name>PT2914</name></trkpt>
<trkpt lat="53.247501" lon="-2.018294"><ele>373</ele><time>2020-08-19T10:40:39Z</time><name>PT2915</name></trkpt>
<trkpt lat="53.247491" lon="-2.018289"><ele>373</ele><time>2020-08-19T10:40:40Z</time><name>PT2916</name></trkpt>
<trkpt lat="53.247483" lon="-2.018283"><ele>373</ele><time>2020-08-19T10:40:41Z</time><name>PT2917</name></trkpt>
<trkpt lat="53.247474" lon="-2.018275"><ele>373</ele><time>2020-08-19T10:40:42Z</time><name>PT2918</name></trkpt>
<trkpt lat="53.247466" lon="-2.018263"><ele>373</ele><time>2020-08-19T10:40:43Z</time><name>PT2919</name></trkpt>
<trkpt lat="53.247459" lon="-2.018254"><ele>373</ele><time>2020-08-19T10:40:44Z</time><name>PT2920</name></trkpt>
<trkpt lat="53.247449" lon="-2.018244"><ele>373</ele><time>2020-08-19T10:40:45Z</time><name>PT2921</name></trkpt>
<trkpt lat="53.247436" lon="-2.018236"><ele>373</ele><time>2020-08-19T10:40:46Z</time><name>PT2922</name></trkpt>
<trkpt lat="53.247427" lon="-2.018228"><ele>373</ele><time>2020-08-19T10:40:47Z</time><name>PT2923</name></trkpt>
<trkpt lat="53.247416" lon="-2.018215"><ele>374</ele><time>2020-08-19T10:40:48Z</time><name>PT2924</name></trkpt>
<trkpt lat="53.247403" lon="-2.018205"><ele>374</ele><time>2020-08-19T10:40:49Z</time><name>PT2925</name></trkpt>
<trkpt lat="53.247392" lon="-2.018202"><ele>374</ele><time>2020-08-19T10:40:50Z</time><name>PT2926</name></trkpt>
<trkpt lat="53.247379" lon="-2.018200"><ele>375</ele><time>2020-08-19T10:40:51Z</time><name>PT2927</name></trkpt>
<trkpt lat="53.247367" lon="-2.018196"><ele>375</ele><time>2020-08-19T10:40:52Z</time><name>PT2928</name></trkpt>
<trkpt lat="53.247353" lon="-2.018190"><ele>376</ele><time>2020-08-19T10:40:53Z</time><name>PT2929</name></trkpt>
<trkpt lat="53.247341" lon="-2.018184"><ele>376</ele><time>2020-08-19T10:40:54Z</time><name>PT2930</name></trkpt>
<trkpt lat="53.247328" lon="-2.018174"><ele>376</ele><time>2020-08-19T10:40:55Z</time><name>PT2931</name></trkpt>
<trkpt lat="53.247319" lon="-2.018165"><ele>376</ele><time>2020-08-19T10:40:56Z</time><name>PT2932</name></trkpt>
<trkpt lat="53.247311" lon="-2.018159"><ele>375</ele><time>2020-08-19T10:40:57Z</time><name>PT2933</name></trkpt>
<trkpt lat="53.247297" lon="-2.018151"><ele>375</ele><time>2020-08-19T10:40:58Z</time><name>PT2934</name></trkpt>
<trkpt lat="53.247287" lon="-2.018145"><ele>375</ele><time>2020-08-19T10:40:59Z</time><name>PT2935</name></trkpt>
<trkpt lat="53.247280" lon="-2.018138"><ele>375</ele><time>2020-08-19T10:41:00Z</time><name>PT2936</name></trkpt>
<trkpt lat="53.247269" lon="-2.018132"><ele>376</ele><time>2020-08-19T10:41:01Z</time><name>PT2937</name></trkpt>
<trkpt lat="53.247263" lon="-2.018128"><ele>376</ele><time>2020-08-19T10:41:02Z</time><name>PT2938</name></trkpt>
<trkpt lat="53.247255" lon="-2.018121"><ele>376</ele><time>2020-08-19T10:41:03Z</time><name>PT2939</name></trkpt>
<trkpt lat="53.247246" lon="-2.018107"><ele>376</ele><time>2020-08-19T10:41:04Z</time><name>PT2940</name></trkpt>
<trkpt lat="53.247239" lon="-2.018098"><ele>376</ele><time>2020-08-19T10:41:05Z</time><name>PT2941</name></trkpt>
<trkpt lat="53.247230" lon="-2.018085"><ele>376</ele><time>2020-08-19T10:41:06Z</time><name>PT2942</name></trkpt>
<trkpt lat="53.247225" lon="-2.018076"><ele>376</ele><time>2020-08-19T10:41:07Z</time><name>PT2943</name></trkpt>
<trkpt lat="53.247215" lon="-2.018066"><ele>377</ele><time>2020-08-19T10:41:08Z</time><name>PT2944</name></trkpt>
<trkpt lat="53.247205" lon="-2.018060"><ele>377</ele><time>2020-08-19T10:41:09Z</time><name>PT2945</name></trkpt>
<trkpt lat="53.247195" lon="-2.018054"><ele>377</ele><time>2020-08-19T10:41:10Z</time><name>PT2946</name></trkpt>
<trkpt lat="53.247184" lon="-2.018044"><ele>377</ele><time>2020-08-19T10:41:11Z</time><name>PT2947</name></trkpt>
<trkpt lat="53.247177" lon="-2.018033"><ele>377</ele><time>2020-08-19T10:41:12Z</time><name>PT2948</name></trkpt>
<trkpt lat="53.247170" lon="-2.018028"><ele>377</ele><time>2020-08-19T10:41:13Z</time><name>PT2949</name></trkpt>
<trkpt lat="53.247163" lon="-2.018022"><ele>378</ele><time>2020-08-19T10:41:14Z</time><name>PT2950</name></trkpt>
<trkpt lat="53.247156" lon="-2.018007"><ele>377</ele><time>2020-08-19T10:41:15Z</time><name>PT2951</name></trkpt>
<trkpt lat="53.247158" lon="-2.018002"><ele>377</ele><time>2020-08-19T10:41:16Z</time><name>PT2952</name></trkpt>
<trkpt lat="53.247155" lon="-2.017997"><ele>377</ele><time>2020-08-19T10:41:17Z</time><name>PT2953</name></trkpt>
<trkpt lat="53.247152" lon="-2.017984"><ele>377</ele><time>2020-08-19T10:41:18Z</time><name>PT2954</name></trkpt>
<trkpt lat="53.247148" lon="-2.017974"><ele>377</ele><time>2020-08-19T10:41:19Z</time><name>PT2955</name></trkpt>
<trkpt lat="53.247147" lon="-2.017966"><ele>377</ele><time>2020-08-19T10:41:20Z</time><name>PT2956</name></trkpt>
<trkpt lat="53.247143" lon="-2.017959"><ele>377</ele><time>2020-08-19T10:41:21Z</time><name>PT2957</name></trkpt>
<trkpt lat="53.247137" lon="-2.017948"><ele>378</ele><time>2020-08-19T10:41:22Z</time><name>PT2958</name></trkpt>
<trkpt lat="53.247133" lon="-2.017936"><ele>378</ele><time>2020-08-19T10:41:23Z</time><name>PT2959</name></trkpt>
<trkpt lat="53.247128" lon="-2.017917"><ele>378</ele><time>2020-08-19T10:41:24Z</time><name>PT2960</name></trkpt>
<trkpt lat="53.247122" lon="-2.017898"><ele>378</ele><time>2020-08-19T10:41:25Z</time><name>PT2961</name></trkpt>
<trkpt lat="53.247117" lon="-2.017883"><ele>378</ele><time>2020-08-19T10:41:26Z</time><name>PT2962</name></trkpt>
<trkpt lat="53.247114" lon="-2.017864"><ele>378</ele><time>2020-08-19T10:41:27Z</time><name>PT2963</name></trkpt>
<trkpt lat="53.247107" lon="-2.017845"><ele>379</ele><time>2020-08-19T10:41:28Z</time><name>PT2964</name></trkpt>
<trkpt lat="53.247104" lon="-2.017828"><ele>379</ele><time>2020-08-19T10:41:29Z</time><name>PT2965</name></trkpt>
<trkpt lat="53.247100" lon="-2.017810"><ele>379</ele><time>2020-08-19T10:41:30Z</time><name>PT2966</name></trkpt>
<trkpt lat="53.247094" lon="-2.017792"><ele>380</ele><time>2020-08-19T10:41:31Z</time><name>PT2967</name></trkpt>
<trkpt lat="53.247089" lon="-2.017774"><ele>380</ele><time>2020-08-19T10:41:32Z</time><name>PT2968</name></trkpt>
<trkpt lat="53.247083" lon="-2.017758"><ele>379</ele><time>2020-08-19T10:41:33Z</time><name>PT2969</name></trkpt>
<trkpt lat="53.247078" lon="-2.017746"><ele>379</ele><time>2020-08-19T10:41:34Z</time><name>PT2970</name></trkpt>
<trkpt lat="53.247075" lon="-2.017730"><ele>379</ele><time>2020-08-19T10:41:35Z</time><name>PT2971</name></trkpt>
<trkpt lat="53.247071" lon="-2.017718"><ele>379</ele><time>2020-08-19T10:41:36Z</time><name>PT2972</name></trkpt>
<trkpt lat="53.247066" lon="-2.017704"><ele>379</ele><time>2020-08-19T10:41:37Z</time><name>PT2973</name></trkpt>
<trkpt lat="53.247064" lon="-2.017685"><ele>379</ele><time>2020-08-19T10:41:38Z</time><name>PT2974</name></trkpt>
<trkpt lat="53.247063" lon="-2.017667"><ele>379</ele><time>2020-08-19T10:41:39Z</time><name>PT2975</name></trkpt>
<trkpt lat="53.247057" lon="-2.017650"><ele>379</ele><time>2020-08-19T10:41:40Z</time><name>PT2976</name></trkpt>
<trkpt lat="53.247050" lon="-2.017635"><ele>379</ele><time>2020-08-19T10:41:41Z</time><name>PT2977</name></trkpt>
<trkpt lat="53.247044" lon="-2.017613"><ele>379</ele><time>2020-08-19T10:41:42Z</time><name>PT2978</name></trkpt>
<trkpt lat="53.247042" lon="-2.017593"><ele>379</ele><time>2020-08-19T10:41:43Z</time><name>PT2979</name></trkpt>
<trkpt lat="53.247039" lon="-2.017577"><ele>378</ele><time>2020-08-19T10:41:44Z</time><name>PT2980</name></trkpt>
<trkpt lat="53.247035" lon="-2.017561"><ele>379</ele><time>2020-08-19T10:41:45Z</time><name>PT2981</name></trkpt>
<trkpt lat="53.247030" lon="-2.017542"><ele>379</ele><time>2020-08-19T10:41:46Z</time><name>PT2982</name></trkpt>
<trkpt lat="53.247021" lon="-2.017520"><ele>380</ele><time>2020-08-19T10:41:47Z</time><name>PT2983</name></trkpt>
<trkpt lat="53.247013" lon="-2.017501"><ele>380</ele><time>2020-08-19T10:41:48Z</time><name>PT2984</name></trkpt>
<trkpt lat="53.247005" lon="-2.017484"><ele>380</ele><time>2020-08-19T10:41:49Z</time><name>PT2985</name></trkpt>
<trkpt lat="53.246999" lon="-2.017468"><ele>380</ele><time>2020-08-19T10:41:50Z</time><name>PT2986</name></trkpt>
<trkpt lat="53.246993" lon="-2.017452"><ele>380</ele><time>2020-08-19T10:41:51Z</time><name>PT2987</name></trkpt>
<trkpt lat="53.246983" lon="-2.017435"><ele>381</ele><time>2020-08-19T10:41:52Z</time><name>PT2988</name></trkpt>
<trkpt lat="53.246978" lon="-2.017421"><ele>380</ele><time>2020-08-19T10:41:53Z</time><name>PT2989</name></trkpt>
<trkpt lat="53.246971" lon="-2.017405"><ele>380</ele><time>2020-08-19T10:41:54Z</time><name>PT2990</name></trkpt>
<trkpt lat="53.246968" lon="-2.017393"><ele>380</ele><time>2020-08-19T10:41:55Z</time><name>PT2991</name></trkpt>
<trkpt lat="53.246964" lon="-2.017383"><ele>380</ele><time>2020-08-19T10:41:56Z</time><name>PT2992</name></trkpt>
<trkpt lat="53.246957" lon="-2.017370"><ele>380</ele><time>2020-08-19T10:41:57Z</time><name>PT2993</name></trkpt>
<trkpt lat="53.246953" lon="-2.017357"><ele>380</ele><time>2020-08-19T10:41:58Z</time><name>PT2994</name></trkpt>
<trkpt lat="53.246949" lon="-2.017346"><ele>380</ele><time>2020-08-19T10:41:59Z</time><name>PT2995</name></trkpt>
<trkpt lat="53.246944" lon="-2.017341"><ele>380</ele><time>2020-08-19T10:42:00Z</time><name>PT2996</name></trkpt>
<trkpt lat="53.246940" lon="-2.017335"><ele>381</ele><time>2020-08-19T10:42:01Z</time><name>PT2997</name></trkpt>
<trkpt lat="53.246938" lon="-2.017322"><ele>381</ele><time>2020-08-19T10:42:02Z</time><name>PT2998</name></trkpt>
<trkpt lat="53.246937" lon="-2.017309"><ele>382</ele><time>2020-08-19T10:42:03Z</time><name>PT2999</name></trkpt>
<trkpt lat="53.246936" lon="-2.017301"><ele>382</ele><time>2020-08-19T10:42:04Z</time><name>PT3000</name></trkpt>
<trkpt lat="53.246930" lon="-2.017281"><ele>381</ele><time>2020-08-19T10:42:05Z</time><name>PT3001</name></trkpt>
<trkpt lat="53.246926" lon="-2.017246"><ele>381</ele><time>2020-08-19T10:42:06Z</time><name>PT3002</name></trkpt>
<trkpt lat="53.246921" lon="-2.017232"><ele>381</ele><time>2020-08-19T10:42:07Z</time><name>PT3003</name></trkpt>
<trkpt lat="53.246916" lon="-2.017209"><ele>381</ele><time>2020-08-19T10:42:08Z</time><name>PT3004</name></trkpt>
<trkpt lat="53.246913" lon="-2.017190"><ele>381</ele><time>2020-08-19T10:42:09Z</time><name>PT3005</name></trkpt>
<trkpt lat="53.246915" lon="-2.017177"><ele>382</ele><time>2020-08-19T10:42:10Z</time><name>PT3006</name></trkpt>
<trkpt lat="53.246917" lon="-2.017164"><ele>382</ele><time>2020-08-19T10:42:11Z</time><name>PT3007</name></trkpt>
<trkpt lat="53.246918" lon="-2.017151"><ele>382</ele><time>2020-08-19T10:42:12Z</time><name>PT3008</name></trkpt>
<trkpt lat="53.246923" lon="-2.017136"><ele>382</ele><time>2020-08-19T10:42:13Z</time><name>PT3009</name></trkpt>
<trkpt lat="53.246921" lon="-2.017120"><ele>383</ele><time>2020-08-19T10:42:14Z</time><name>PT3010</name></trkpt>
<trkpt lat="53.246919" lon="-2.017106"><ele>383</ele><time>2020-08-19T10:42:15Z</time><name>PT3011</name></trkpt>
<trkpt lat="53.246918" lon="-2.017090"><ele>383</ele><time>2020-08-19T10:42:16Z</time><name>PT3012</name></trkpt>
<trkpt lat="53.246917" lon="-2.017071"><ele>383</ele><time>2020-08-19T10:42:17Z</time><name>PT3013</name></trkpt>
<trkpt lat="53.246916" lon="-2.017054"><ele>383</ele><time>2020-08-19T10:42:18Z</time><name>PT3014</name></trkpt>
<trkpt lat="53.246913" lon="-2.017034"><ele>383</ele><time>2020-08-19T10:42:19Z</time><name>PT3015</name></trkpt>
<trkpt lat="53.246908" lon="-2.017019"><ele>383</ele><time>2020-08-19T10:42:20Z</time><name>PT3016</name></trkpt>
<trkpt lat="53.246904" lon="-2.017000"><ele>384</ele><time>2020-08-19T10:42:21Z</time><name>PT3017</name></trkpt>
<trkpt lat="53.246900" lon="-2.016986"><ele>385</ele><time>2020-08-19T10:42:22Z</time><name>PT3018</name></trkpt>
<trkpt lat="53.246897" lon="-2.016969"><ele>386</ele><time>2020-08-19T10:42:23Z</time><name>PT3019</name></trkpt>
<trkpt lat="53.246894" lon="-2.016952"><ele>386</ele><time>2020-08-19T10:42:24Z</time><name>PT3020</name></trkpt>
<trkpt lat="53.246892" lon="-2.016932"><ele>385</ele><time>2020-08-19T10:42:25Z</time><name>PT3021</name></trkpt>
<trkpt lat="53.246889" lon="-2.016916"><ele>386</ele><time>2020-08-19T10:42:26Z</time><name>PT3022</name></trkpt>
<trkpt lat="53.246886" lon="-2.016903"><ele>385</ele><time>2020-08-19T10:42:27Z</time><name>PT3023</name></trkpt>
<trkpt lat="53.246880" lon="-2.016881"><ele>384</ele><time>2020-08-19T10:42:28Z</time><name>PT3024</name></trkpt>
<trkpt lat="53.246874" lon="-2.016862"><ele>384</ele><time>2020-08-19T10:42:29Z</time><name>PT3025</name></trkpt>
<trkpt lat="53.246869" lon="-2.016842"><ele>384</ele><time>2020-08-19T10:42:30Z</time><name>PT3026</name></trkpt>
<trkpt lat="53.246866" lon="-2.016823"><ele>384</ele><time>2020-08-19T10:42:31Z</time><name>PT3027</name></trkpt>
<trkpt lat="53.246863" lon="-2.016809"><ele>384</ele><time>2020-08-19T10:42:32Z</time><name>PT3028</name></trkpt>
<trkpt lat="53.246859" lon="-2.016794"><ele>385</ele><time>2020-08-19T10:42:33Z</time><name>PT3029</name></trkpt>
<trkpt lat="53.246857" lon="-2.016773"><ele>385</ele><time>2020-08-19T10:42:34Z</time><name>PT3030</name></trkpt>
<trkpt lat="53.246854" lon="-2.016761"><ele>385</ele><time>2020-08-19T10:42:35Z</time><name>PT3031</name></trkpt>
<trkpt lat="53.246850" lon="-2.016744"><ele>385</ele><time>2020-08-19T10:42:36Z</time><name>PT3032</name></trkpt>
<trkpt lat="53.246846" lon="-2.016722"><ele>385</ele><time>2020-08-19T10:42:37Z</time><name>PT3033</name></trkpt>
<trkpt lat="53.246845" lon="-2.016706"><ele>385</ele><time>2020-08-19T10:42:38Z</time><name>PT3034</name></trkpt>
<trkpt lat="53.246844" lon="-2.016693"><ele>385</ele><time>2020-08-19T10:42:39Z</time><name>PT3035</name></trkpt>
<trkpt lat="53.246843" lon="-2.016679"><ele>385</ele><time>2020-08-19T10:42:40Z</time><name>PT3036</name></trkpt>
<trkpt lat="53.246840" lon="-2.016659"><ele>385</ele><time>2020-08-19T10:42:41Z</time><name>PT3037</name></trkpt>
<trkpt lat="53.246838" lon="-2.016634"><ele>385</ele><time>2020-08-19T10:42:42Z</time><name>PT3038</name></trkpt>
<trkpt lat="53.246839" lon="-2.016620"><ele>385</ele><time>2020-08-19T10:42:43Z</time><name>PT3039</name></trkpt>
<trkpt lat="53.246839" lon="-2.016601"><ele>385</ele><time>2020-08-19T10:42:44Z</time><name>PT3040</name></trkpt>
<trkpt lat="53.246837" lon="-2.016579"><ele>385</ele><time>2020-08-19T10:42:45Z</time><name>PT3041</name></trkpt>
<trkpt lat="53.246834" lon="-2.016566"><ele>385</ele><time>2020-08-19T10:42:46Z</time><name>PT3042</name></trkpt>
<trkpt lat="53.246832" lon="-2.016548"><ele>384</ele><time>2020-08-19T10:42:47Z</time><name>PT3043</name></trkpt>
<trkpt lat="53.246830" lon="-2.016533"><ele>385</ele><time>2020-08-19T10:42:48Z</time><name>PT3044</name></trkpt>
<trkpt lat="53.246831" lon="-2.016514"><ele>385</ele><time>2020-08-19T10:42:49Z</time><name>PT3045</name></trkpt>
<trkpt lat="53.246833" lon="-2.016491"><ele>385</ele><time>2020-08-19T10:42:50Z</time><name>PT3046</name></trkpt>
<trkpt lat="53.246830" lon="-2.016473"><ele>385</ele><time>2020-08-19T10:42:51Z</time><name>PT3047</name></trkpt>
<trkpt lat="53.246826" lon="-2.016447"><ele>386</ele><time>2020-08-19T10:42:52Z</time><name>PT3048</name></trkpt>
<trkpt lat="53.246822" lon="-2.016425"><ele>386</ele><time>2020-08-19T10:42:53Z</time><name>PT3049</name></trkpt>
<trkpt lat="53.246820" lon="-2.016403"><ele>386</ele><time>2020-08-19T10:42:54Z</time><name>PT3050</name></trkpt>
<trkpt lat="53.246809" lon="-2.016350"><ele>386</ele><time>2020-08-19T10:42:57Z</time><name>PT3051</name></trkpt>
<trkpt lat="53.246796" lon="-2.016306"><ele>387</ele><time>2020-08-19T10:43:00Z</time><name>PT3052</name></trkpt>
<trkpt lat="53.246778" lon="-2.016245"><ele>387</ele><time>2020-08-19T10:43:04Z</time><name>PT3053</name></trkpt>
<trkpt lat="53.246765" lon="-2.016195"><ele>387</ele><time>2020-08-19T10:43:07Z</time><name>PT3054</name></trkpt>
<trkpt lat="53.246746" lon="-2.016130"><ele>386</ele><time>2020-08-19T10:43:11Z</time><name>PT3055</name></trkpt>
<trkpt lat="53.246730" lon="-2.016079"><ele>386</ele><time>2020-08-19T10:43:14Z</time><name>PT3056</name></trkpt>
<trkpt lat="53.246702" lon="-2.016021"><ele>387</ele><time>2020-08-19T10:43:18Z</time><name>PT3057</name></trkpt>
<trkpt lat="53.246670" lon="-2.015944"><ele>388</ele><time>2020-08-19T10:43:22Z</time><name>PT3058</name></trkpt>
<trkpt lat="53.246652" lon="-2.015899"><ele>388</ele><time>2020-08-19T10:43:25Z</time><name>PT3059</name></trkpt>
<trkpt lat="53.246623" lon="-2.015838"><ele>388</ele><time>2020-08-19T10:43:29Z</time><name>PT3060</name></trkpt>
<trkpt lat="53.246590" lon="-2.015780"><ele>388</ele><time>2020-08-19T10:43:33Z</time><name>PT3061</name></trkpt>
<trkpt lat="53.246553" lon="-2.015726"><ele>389</ele><time>2020-08-19T10:43:37Z</time><name>PT3062</name></trkpt>
<trkpt lat="53.246520" lon="-2.015659"><ele>389</ele><time>2020-08-19T10:43:41Z</time><name>PT3063</name></trkpt>
<trkpt lat="53.246494" lon="-2.015614"><ele>389</ele><time>2020-08-19T10:43:44Z</time><name>PT3064</name></trkpt>
<trkpt lat="53.246474" lon="-2.015565"><ele>389</ele><time>2020-08-19T10:43:47Z</time><name>PT3065</name></trkpt>
<trkpt lat="53.246443" lon="-2.015499"><ele>389</ele><time>2020-08-19T10:43:51Z</time><name>PT3066</name></trkpt>
<trkpt lat="53.246414" lon="-2.015442"><ele>389</ele><time>2020-08-19T10:43:55Z</time><name>PT3067</name></trkpt>
<trkpt lat="53.246395" lon="-2.015391"><ele>389</ele><time>2020-08-19T10:43:58Z</time><name>PT3068</name></trkpt>
<trkpt lat="53.246363" lon="-2.015344"><ele>389</ele><time>2020-08-19T10:44:01Z</time><name>PT3069</name></trkpt>
<trkpt lat="53.246341" lon="-2.015293"><ele>390</ele><time>2020-08-19T10:44:04Z</time><name>PT3070</name></trkpt>
<trkpt lat="53.246309" lon="-2.015239"><ele>390</ele><time>2020-08-19T10:44:08Z</time><name>PT3071</name></trkpt>
<trkpt lat="53.246275" lon="-2.015183"><ele>391</ele><time>2020-08-19T10:44:12Z</time><name>PT3072</name></trkpt>
<trkpt lat="53.246242" lon="-2.015114"><ele>392</ele><time>2020-08-19T10:44:16Z</time><name>PT3073</name></trkpt>
<trkpt lat="53.246216" lon="-2.015069"><ele>393</ele><time>2020-08-19T10:44:19Z</time><name>PT3074</name></trkpt>
<trkpt lat="53.246190" lon="-2.015020"><ele>393</ele><time>2020-08-19T10:44:22Z</time><name>PT3075</name></trkpt>
<trkpt lat="53.246170" lon="-2.014954"><ele>392</ele><time>2020-08-19T10:44:26Z</time><name>PT3076</name></trkpt>
<trkpt lat="53.246156" lon="-2.014899"><ele>392</ele><time>2020-08-19T10:44:29Z</time><name>PT3077</name></trkpt>
<trkpt lat="53.246134" lon="-2.014828"><ele>394</ele><time>2020-08-19T10:44:33Z</time><name>PT3078</name></trkpt>
<trkpt lat="53.246116" lon="-2.014779"><ele>394</ele><time>2020-08-19T10:44:36Z</time><name>PT3079</name></trkpt>
<trkpt lat="53.246101" lon="-2.014710"><ele>393</ele><time>2020-08-19T10:44:39Z</time><name>PT3080</name></trkpt>
<trkpt lat="53.246083" lon="-2.014648"><ele>394</ele><time>2020-08-19T10:44:43Z</time><name>PT3081</name></trkpt>
<trkpt lat="53.246071" lon="-2.014608"><ele>395</ele><time>2020-08-19T10:44:46Z</time><name>PT3082</name></trkpt>
<trkpt lat="53.246055" lon="-2.014554"><ele>395</ele><time>2020-08-19T10:44:50Z</time><name>PT3083</name></trkpt>
<trkpt lat="53.246037" lon="-2.014514"><ele>396</ele><time>2020-08-19T10:44:53Z</time><name>PT3084</name></trkpt>
<trkpt lat="53.246024" lon="-2.014466"><ele>398</ele><time>2020-08-19T10:44:57Z</time><name>PT3085</name></trkpt>
<trkpt lat="53.246011" lon="-2.014427"><ele>399</ele><time>2020-08-19T10:45:00Z</time><name>PT3086</name></trkpt>
<trkpt lat="53.245996" lon="-2.014369"><ele>400</ele><time>2020-08-19T10:45:04Z</time><name>PT3087</name></trkpt>
<trkpt lat="53.245977" lon="-2.014317"><ele>401</ele><time>2020-08-19T10:45:08Z</time><name>PT3088</name></trkpt>
<trkpt lat="53.245961" lon="-2.014281"><ele>401</ele><time>2020-08-19T10:45:11Z</time><name>PT3089</name></trkpt>
<trkpt lat="53.245944" lon="-2.014219"><ele>400</ele><time>2020-08-19T10:45:15Z</time><name>PT3090</name></trkpt>
<trkpt lat="53.245933" lon="-2.014176"><ele>400</ele><time>2020-08-19T10:45:18Z</time><name>PT3091</name></trkpt>
<trkpt lat="53.245919" lon="-2.014110"><ele>401</ele><time>2020-08-19T10:45:22Z</time><name>PT3092</name></trkpt>
<trkpt lat="53.245901" lon="-2.014058"><ele>402</ele><time>2020-08-19T10:45:25Z</time><name>PT3093</name></trkpt>
<trkpt lat="53.245883" lon="-2.014005"><ele>402</ele><time>2020-08-19T10:45:28Z</time><name>PT3094</name></trkpt>
<trkpt lat="53.245856" lon="-2.013933"><ele>403</ele><time>2020-08-19T10:45:32Z</time><name>PT3095</name></trkpt>
<trkpt lat="53.245834" lon="-2.013860"><ele>402</ele><time>2020-08-19T10:45:36Z</time><name>PT3096</name></trkpt>
<trkpt lat="53.245828" lon="-2.013815"><ele>402</ele><time>2020-08-19T10:45:39Z</time><name>PT3097</name></trkpt>
<trkpt lat="53.245814" lon="-2.013762"><ele>402</ele><time>2020-08-19T10:45:42Z</time><name>PT3098</name></trkpt>
<trkpt lat="53.245800" lon="-2.013696"><ele>402</ele><time>2020-08-19T10:45:46Z</time><name>PT3099</name></trkpt>
<trkpt lat="53.245793" lon="-2.013651"><ele>403</ele><time>2020-08-19T10:45:49Z</time><name>PT3100</name></trkpt>
<trkpt lat="53.245753" lon="-2.013611"><ele>401</ele><time>2020-08-19T10:45:53Z</time><name>PT3101</name></trkpt>
<trkpt lat="53.245752" lon="-2.013609"><ele>401</ele><time>2020-08-19T10:45:57Z</time><name>PT3102</name></trkpt>
<trkpt lat="53.245741" lon="-2.013583"><ele>401</ele><time>2020-08-19T10:46:00Z</time><name>PT3103</name></trkpt>
<trkpt lat="53.245741" lon="-2.013582"><ele>401</ele><time>2020-08-19T10:46:49Z</time><name>PT3104</name></trkpt>
<trkpt lat="53.245738" lon="-2.013573"><ele>400</ele><time>2020-08-19T10:46:56Z</time><name>PT3105</name></trkpt>
<trkpt lat="53.245736" lon="-2.013567"><ele>400</ele><time>2020-08-19T10:46:59Z</time><name>PT3106</name></trkpt>
<trkpt lat="53.245738" lon="-2.013572"><ele>400</ele><time>2020-08-19T10:47:13Z</time><name>PT3107</name></trkpt>
<trkpt lat="53.245736" lon="-2.013578"><ele>400</ele><time>2020-08-19T10:47:17Z</time><name>PT3108</name></trkpt>
<trkpt lat="53.245734" lon="-2.013573"><ele>400</ele><time>2020-08-19T10:47:28Z</time><name>PT3109</name></trkpt>
<trkpt lat="53.245741" lon="-2.013570"><ele>400</ele><time>2020-08-19T10:47:31Z</time><name>PT3110</name></trkpt>
<trkpt lat="53.245745" lon="-2.013572"><ele>400</ele><time>2020-08-19T10:47:34Z</time><name>PT3111</name></trkpt>
<trkpt lat="53.245748" lon="-2.013597"><ele>400</ele><time>2020-08-19T10:47:42Z</time><name>PT3112</name></trkpt>
<trkpt lat="53.245749" lon="-2.013595"><ele>400</ele><time>2020-08-19T10:47:46Z</time><name>PT3113</name></trkpt>
<trkpt lat="53.245744" lon="-2.013605"><ele>403</ele><time>2020-08-19T10:47:50Z</time><name>PT3114</name></trkpt>
<trkpt lat="53.245745" lon="-2.013605"><ele>403</ele><time>2020-08-19T10:48:21Z</time><name>PT3115</name></trkpt>
<trkpt lat="53.245756" lon="-2.013565"><ele>403</ele><time>2020-08-19T10:48:25Z</time><name>PT3116</name></trkpt>
<trkpt lat="53.245733" lon="-2.013532"><ele>403</ele><time>2020-08-19T10:48:29Z</time><name>PT3117</name></trkpt>
<trkpt lat="53.245717" lon="-2.013481"><ele>403</ele><time>2020-08-19T10:48:33Z</time><name>PT3118</name></trkpt>
<trkpt lat="53.245697" lon="-2.013445"><ele>404</ele><time>2020-08-19T10:48:36Z</time><name>PT3119</name></trkpt>
<trkpt lat="53.245672" lon="-2.013403"><ele>404</ele><time>2020-08-19T10:48:40Z</time><name>PT3120</name></trkpt>
<trkpt lat="53.245650" lon="-2.013351"><ele>404</ele><time>2020-08-19T10:48:43Z</time><name>PT3121</name></trkpt>
<trkpt lat="53.245641" lon="-2.013300"><ele>404</ele><time>2020-08-19T10:48:46Z</time><name>PT3122</name></trkpt>
<trkpt lat="53.245626" lon="-2.013249"><ele>404</ele><time>2020-08-19T10:48:50Z</time><name>PT3123</name></trkpt>
<trkpt lat="53.245616" lon="-2.013204"><ele>404</ele><time>2020-08-19T10:48:53Z</time><name>PT3124</name></trkpt>
<trkpt lat="53.245601" lon="-2.013126"><ele>404</ele><time>2020-08-19T10:48:57Z</time><name>PT3125</name></trkpt>
<trkpt lat="53.245596" lon="-2.013044"><ele>405</ele><time>2020-08-19T10:49:01Z</time><name>PT3126</name></trkpt>
<trkpt lat="53.245599" lon="-2.012984"><ele>405</ele><time>2020-08-19T10:49:04Z</time><name>PT3127</name></trkpt>
<trkpt lat="53.245601" lon="-2.012904"><ele>405</ele><time>2020-08-19T10:49:08Z</time><name>PT3128</name></trkpt>
<trkpt lat="53.245600" lon="-2.012873"><ele>404</ele><time>2020-08-19T10:49:11Z</time><name>PT3129</name></trkpt>
<trkpt lat="53.245590" lon="-2.012882"><ele>405</ele><time>2020-08-19T10:49:14Z</time><name>PT3130</name></trkpt>
<trkpt lat="53.245590" lon="-2.012823"><ele>405</ele><time>2020-08-19T10:49:18Z</time><name>PT3131</name></trkpt>
<trkpt lat="53.245597" lon="-2.012765"><ele>404</ele><time>2020-08-19T10:49:21Z</time><name>PT3132</name></trkpt>
<trkpt lat="53.245599" lon="-2.012702"><ele>402</ele><time>2020-08-19T10:49:24Z</time><name>PT3133</name></trkpt>
<trkpt lat="53.245599" lon="-2.012616"><ele>402</ele><time>2020-08-19T10:49:28Z</time><name>PT3134</name></trkpt>
<trkpt lat="53.245600" lon="-2.012548"><ele>401</ele><time>2020-08-19T10:49:31Z</time><name>PT3135</name></trkpt>
<trkpt lat="53.245605" lon="-2.012484"><ele>401</ele><time>2020-08-19T10:49:34Z</time><name>PT3136</name></trkpt>
<trkpt lat="53.245597" lon="-2.012425"><ele>402</ele><time>2020-08-19T10:49:37Z</time><name>PT3137</name></trkpt>
<trkpt lat="53.245593" lon="-2.012342"><ele>401</ele><time>2020-08-19T10:49:41Z</time><name>PT3138</name></trkpt>
<trkpt lat="53.245597" lon="-2.012272"><ele>400</ele><time>2020-08-19T10:49:44Z</time><name>PT3139</name></trkpt>
<trkpt lat="53.245593" lon="-2.012188"><ele>400</ele><time>2020-08-19T10:49:48Z</time><name>PT3140</name></trkpt>
<trkpt lat="53.245596" lon="-2.012124"><ele>400</ele><time>2020-08-19T10:49:51Z</time><name>PT3141</name></trkpt>
<trkpt lat="53.245596" lon="-2.012059"><ele>400</ele><time>2020-08-19T10:49:54Z</time><name>PT3142</name></trkpt>
<trkpt lat="53.245603" lon="-2.011997"><ele>399</ele><time>2020-08-19T10:49:57Z</time><name>PT3143</name></trkpt>
<trkpt lat="53.245609" lon="-2.011912"><ele>399</ele><time>2020-08-19T10:50:01Z</time><name>PT3144</name></trkpt>
<trkpt lat="53.245613" lon="-2.011823"><ele>398</ele><time>2020-08-19T10:50:05Z</time><name>PT3145</name></trkpt>
<trkpt lat="53.245615" lon="-2.011732"><ele>397</ele><time>2020-08-19T10:50:09Z</time><name>PT3146</name></trkpt>
<trkpt lat="53.245617" lon="-2.011672"><ele>397</ele><time>2020-08-19T10:50:12Z</time><name>PT3147</name></trkpt>
<trkpt lat="53.245610" lon="-2.011612"><ele>398</ele><time>2020-08-19T10:50:15Z</time><name>PT3148</name></trkpt>
<trkpt lat="53.245616" lon="-2.011531"><ele>398</ele><time>2020-08-19T10:50:19Z</time><name>PT3149</name></trkpt>
<trkpt lat="53.245617" lon="-2.011467"><ele>399</ele><time>2020-08-19T10:50:22Z</time><name>PT3150</name></trkpt>
<trkpt lat="53.245620" lon="-2.011416"><ele>399</ele><time>2020-08-19T10:50:25Z</time><name>PT3151</name></trkpt>
<trkpt lat="53.245626" lon="-2.011343"><ele>398</ele><time>2020-08-19T10:50:29Z</time><name>PT3152</name></trkpt>
<trkpt lat="53.245647" lon="-2.011265"><ele>397</ele><time>2020-08-19T10:50:33Z</time><name>PT3153</name></trkpt>
<trkpt lat="53.245671" lon="-2.011217"><ele>397</ele><time>2020-08-19T10:50:36Z</time><name>PT3154</name></trkpt>
<trkpt lat="53.245681" lon="-2.011144"><ele>397</ele><time>2020-08-19T10:50:40Z</time><name>PT3155</name></trkpt>
<trkpt lat="53.245661" lon="-2.011105"><ele>399</ele><time>2020-08-19T10:50:44Z</time><name>PT3156</name></trkpt>
<trkpt lat="53.245638" lon="-2.011044"><ele>401</ele><time>2020-08-19T10:50:48Z</time><name>PT3157</name></trkpt>
<trkpt lat="53.245632" lon="-2.010978"><ele>403</ele><time>2020-08-19T10:50:52Z</time><name>PT3158</name></trkpt>
<trkpt lat="53.245632" lon="-2.010937"><ele>405</ele><time>2020-08-19T10:50:55Z</time><name>PT3159</name></trkpt>
<trkpt lat="53.245628" lon="-2.010873"><ele>405</ele><time>2020-08-19T10:50:59Z</time><name>PT3160</name></trkpt>
<trkpt lat="53.245622" lon="-2.010806"><ele>405</ele><time>2020-08-19T10:51:03Z</time><name>PT3161</name></trkpt>
<trkpt lat="53.245615" lon="-2.010735"><ele>406</ele><time>2020-08-19T10:51:07Z</time><name>PT3162</name></trkpt>
<trkpt lat="53.245611" lon="-2.010695"><ele>406</ele><time>2020-08-19T10:51:10Z</time><name>PT3163</name></trkpt>
<trkpt lat="53.245607" lon="-2.010628"><ele>406</ele><time>2020-08-19T10:51:14Z</time><name>PT3164</name></trkpt>
<trkpt lat="53.245601" lon="-2.010578"><ele>407</ele><time>2020-08-19T10:51:17Z</time><name>PT3165</name></trkpt>
<trkpt lat="53.245595" lon="-2.010524"><ele>407</ele><time>2020-08-19T10:51:20Z</time><name>PT3166</name></trkpt>
<trkpt lat="53.245601" lon="-2.010458"><ele>408</ele><time>2020-08-19T10:51:24Z</time><name>PT3167</name></trkpt>
<trkpt lat="53.245599" lon="-2.010405"><ele>409</ele><time>2020-08-19T10:51:27Z</time><name>PT3168</name></trkpt>
<trkpt lat="53.245598" lon="-2.010359"><ele>409</ele><time>2020-08-19T10:51:30Z</time><name>PT3169</name></trkpt>
<trkpt lat="53.245602" lon="-2.010306"><ele>409</ele><time>2020-08-19T10:51:34Z</time><name>PT3170</name></trkpt>
<trkpt lat="53.245612" lon="-2.010277"><ele>410</ele><time>2020-08-19T10:51:37Z</time><name>PT3171</name></trkpt>
<trkpt lat="53.245625" lon="-2.010232"><ele>410</ele><time>2020-08-19T10:51:41Z</time><name>PT3172</name></trkpt>
<trkpt lat="53.245648" lon="-2.010203"><ele>411</ele><time>2020-08-19T10:51:44Z</time><name>PT3173</name></trkpt>
<trkpt lat="53.245668" lon="-2.010190"><ele>412</ele><time>2020-08-19T10:51:47Z</time><name>PT3174</name></trkpt>
<trkpt lat="53.245675" lon="-2.010176"><ele>412</ele><time>2020-08-19T10:51:51Z</time><name>PT3175</name></trkpt>
<trkpt lat="53.245678" lon="-2.010173"><ele>413</ele><time>2020-08-19T10:51:54Z</time><name>PT3176</name></trkpt>
<trkpt lat="53.245668" lon="-2.010151"><ele>415</ele><time>2020-08-19T10:51:57Z</time><name>PT3177</name></trkpt>
<trkpt lat="53.245665" lon="-2.010151"><ele>415</ele><time>2020-08-19T10:52:05Z</time><name>PT3178</name></trkpt>
<trkpt lat="53.245667" lon="-2.010153"><ele>415</ele><time>2020-08-19T10:52:06Z</time><name>PT3179</name></trkpt>
<trkpt lat="53.245668" lon="-2.010152"><ele>415</ele><time>2020-08-19T10:52:07Z</time><name>PT3180</name></trkpt>
<trkpt lat="53.245667" lon="-2.010150"><ele>415</ele><time>2020-08-19T10:52:08Z</time><name>PT3181</name></trkpt>
<trkpt lat="53.245666" lon="-2.010149"><ele>415</ele><time>2020-08-19T10:52:09Z</time><name>PT3182</name></trkpt>
<trkpt lat="53.245665" lon="-2.010148"><ele>415</ele><time>2020-08-19T10:52:10Z</time><name>PT3183</name></trkpt>
<trkpt lat="53.245664" lon="-2.010147"><ele>415</ele><time>2020-08-19T10:52:11Z</time><name>PT3184</name></trkpt>
<trkpt lat="53.245665" lon="-2.010150"><ele>415</ele><time>2020-08-19T10:52:12Z</time><name>PT3185</name></trkpt>
<trkpt lat="53.245665" lon="-2.010150"><ele>415</ele><time>2020-08-19T10:52:13Z</time><name>PT3186</name></trkpt>
<trkpt lat="53.245664" lon="-2.010149"><ele>415</ele><time>2020-08-19T10:52:14Z</time><name>PT3187</name></trkpt>
<trkpt lat="53.245663" lon="-2.010149"><ele>415</ele><time>2020-08-19T10:52:15Z</time><name>PT3188</name></trkpt>
<trkpt lat="53.245660" lon="-2.010145"><ele>415</ele><time>2020-08-19T10:52:23Z</time><name>PT3189</name></trkpt>
<trkpt lat="53.245662" lon="-2.010145"><ele>415</ele><time>2020-08-19T10:52:24Z</time><name>PT3190</name></trkpt>
<trkpt lat="53.245662" lon="-2.010143"><ele>415</ele><time>2020-08-19T10:52:25Z</time><name>PT3191</name></trkpt>
<trkpt lat="53.245663" lon="-2.010144"><ele>415</ele><time>2020-08-19T10:52:26Z</time><name>PT3192</name></trkpt>
<trkpt lat="53.245666" lon="-2.010151"><ele>415</ele><time>2020-08-19T10:52:33Z</time><name>PT3193</name></trkpt>
<trkpt lat="53.245665" lon="-2.010153"><ele>415</ele><time>2020-08-19T10:52:34Z</time><name>PT3194</name></trkpt>
<trkpt lat="53.245665" lon="-2.010155"><ele>415</ele><time>2020-08-19T10:52:35Z</time><name>PT3195</name></trkpt>
<trkpt lat="53.245665" lon="-2.010154"><ele>415</ele><time>2020-08-19T10:52:36Z</time><name>PT3196</name></trkpt>
<trkpt lat="53.245664" lon="-2.010149"><ele>415</ele><time>2020-08-19T10:52:39Z</time><name>PT3197</name></trkpt>
<trkpt lat="53.245664" lon="-2.010150"><ele>415</ele><time>2020-08-19T10:52:40Z</time><name>PT3198</name></trkpt>
<trkpt lat="53.245664" lon="-2.010149"><ele>415</ele><time>2020-08-19T10:52:41Z</time><name>PT3199</name></trkpt>
<trkpt lat="53.245663" lon="-2.010147"><ele>415</ele><time>2020-08-19T10:52:42Z</time><name>PT3200</name></trkpt>
<trkpt lat="53.245663" lon="-2.010145"><ele>415</ele><time>2020-08-19T10:52:43Z</time><name>PT3201</name></trkpt>
<trkpt lat="53.245666" lon="-2.010149"><ele>415</ele><time>2020-08-19T10:53:16Z</time><name>PT3202</name></trkpt>
<trkpt lat="53.245666" lon="-2.010149"><ele>415</ele><time>2020-08-19T10:53:17Z</time><name>PT3203</name></trkpt>
<trkpt lat="53.245669" lon="-2.010147"><ele>415</ele><time>2020-08-19T10:53:18Z</time><name>PT3204</name></trkpt>
<trkpt lat="53.245674" lon="-2.010144"><ele>415</ele><time>2020-08-19T10:53:19Z</time><name>PT3205</name></trkpt>
<trkpt lat="53.245684" lon="-2.010141"><ele>416</ele><time>2020-08-19T10:53:20Z</time><name>PT3206</name></trkpt>
<trkpt lat="53.245692" lon="-2.010136"><ele>416</ele><time>2020-08-19T10:53:21Z</time><name>PT3207</name></trkpt>
<trkpt lat="53.245704" lon="-2.010132"><ele>416</ele><time>2020-08-19T10:53:22Z</time><name>PT3208</name></trkpt>
<trkpt lat="53.245713" lon="-2.010128"><ele>416</ele><time>2020-08-19T10:53:23Z</time><name>PT3209</name></trkpt>
<trkpt lat="53.245720" lon="-2.010125"><ele>416</ele><time>2020-08-19T10:53:24Z</time><name>PT3210</name></trkpt>
<trkpt lat="53.245729" lon="-2.010120"><ele>416</ele><time>2020-08-19T10:53:25Z</time><name>PT3211</name></trkpt>
<trkpt lat="53.245737" lon="-2.010111"><ele>417</ele><time>2020-08-19T10:53:26Z</time><name>PT3212</name></trkpt>
<trkpt lat="53.245744" lon="-2.010101"><ele>416</ele><time>2020-08-19T10:53:27Z</time><name>PT3213</name></trkpt>
<trkpt lat="53.245754" lon="-2.010092"><ele>416</ele><time>2020-08-19T10:53:28Z</time><name>PT3214</name></trkpt>
<trkpt lat="53.245762" lon="-2.010085"><ele>416</ele><time>2020-08-19T10:53:29Z</time><name>PT3215</name></trkpt>
<trkpt lat="53.245770" lon="-2.010076"><ele>417</ele><time>2020-08-19T10:53:30Z</time><name>PT3216</name></trkpt>
<trkpt lat="53.245779" lon="-2.010065"><ele>417</ele><time>2020-08-19T10:53:31Z</time><name>PT3217</name></trkpt>
<trkpt lat="53.245780" lon="-2.010055"><ele>416</ele><time>2020-08-19T10:53:32Z</time><name>PT3218</name></trkpt>
<trkpt lat="53.245782" lon="-2.010044"><ele>416</ele><time>2020-08-19T10:53:33Z</time><name>PT3219</name></trkpt>
<trkpt lat="53.245783" lon="-2.010032"><ele>417</ele><time>2020-08-19T10:53:34Z</time><name>PT3220</name></trkpt>
<trkpt lat="53.245786" lon="-2.010020"><ele>417</ele><time>2020-08-19T10:53:35Z</time><name>PT3221</name></trkpt>
<trkpt lat="53.245788" lon="-2.010006"><ele>416</ele><time>2020-08-19T10:53:36Z</time><name>PT3222</name></trkpt>
<trkpt lat="53.245788" lon="-2.009991"><ele>416</ele><time>2020-08-19T10:53:37Z</time><name>PT3223</name></trkpt>
<trkpt lat="53.245788" lon="-2.009980"><ele>416</ele><time>2020-08-19T10:53:38Z</time><name>PT3224</name></trkpt>
<trkpt lat="53.245790" lon="-2.009972"><ele>417</ele><time>2020-08-19T10:53:39Z</time><name>PT3225</name></trkpt>
<trkpt lat="53.245791" lon="-2.009959"><ele>416</ele><time>2020-08-19T10:53:40Z</time><name>PT3226</name></trkpt>
<trkpt lat="53.245791" lon="-2.009949"><ele>416</ele><time>2020-08-19T10:53:41Z</time><name>PT3227</name></trkpt>
<trkpt lat="53.245788" lon="-2.009942"><ele>416</ele><time>2020-08-19T10:53:42Z</time><name>PT3228</name></trkpt>
<trkpt lat="53.245786" lon="-2.009935"><ele>416</ele><time>2020-08-19T10:53:43Z</time><name>PT3229</name></trkpt>
<trkpt lat="53.245786" lon="-2.009928"><ele>416</ele><time>2020-08-19T10:53:44Z</time><name>PT3230</name></trkpt>
<trkpt lat="53.245785" lon="-2.009924"><ele>415</ele><time>2020-08-19T10:53:45Z</time><name>PT3231</name></trkpt>
<trkpt lat="53.245788" lon="-2.009921"><ele>415</ele><time>2020-08-19T10:53:46Z</time><name>PT3232</name></trkpt>
<trkpt lat="53.245790" lon="-2.009918"><ele>415</ele><time>2020-08-19T10:53:47Z</time><name>PT3233</name></trkpt>
<trkpt lat="53.245793" lon="-2.009914"><ele>415</ele><time>2020-08-19T10:53:48Z</time><name>PT3234</name></trkpt>
<trkpt lat="53.245795" lon="-2.009903"><ele>414</ele><time>2020-08-19T10:53:49Z</time><name>PT3235</name></trkpt>
<trkpt lat="53.245799" lon="-2.009883"><ele>413</ele><time>2020-08-19T10:53:50Z</time><name>PT3236</name></trkpt>
<trkpt lat="53.245802" lon="-2.009869"><ele>414</ele><time>2020-08-19T10:53:51Z</time><name>PT3237</name></trkpt>
<trkpt lat="53.245804" lon="-2.009865"><ele>414</ele><time>2020-08-19T10:53:52Z</time><name>PT3238</name></trkpt>
<trkpt lat="53.245804" lon="-2.009857"><ele>414</ele><time>2020-08-19T10:53:53Z</time><name>PT3239</name></trkpt>
<trkpt lat="53.245803" lon="-2.009839"><ele>414</ele><time>2020-08-19T10:53:54Z</time><name>PT3240</name></trkpt>
<trkpt lat="53.245801" lon="-2.009823"><ele>414</ele><time>2020-08-19T10:53:55Z</time><name>PT3241</name></trkpt>
<trkpt lat="53.245805" lon="-2.009808"><ele>415</ele><time>2020-08-19T10:53:56Z</time><name>PT3242</name></trkpt>
<trkpt lat="53.245804" lon="-2.009793"><ele>414</ele><time>2020-08-19T10:53:57Z</time><name>PT3243</name></trkpt>
<trkpt lat="53.245804" lon="-2.009781"><ele>414</ele><time>2020-08-19T10:53:58Z</time><name>PT3244</name></trkpt>
<trkpt lat="53.245801" lon="-2.009766"><ele>414</ele><time>2020-08-19T10:53:59Z</time><name>PT3245</name></trkpt>
<trkpt lat="53.245801" lon="-2.009754"><ele>414</ele><time>2020-08-19T10:54:00Z</time><name>PT3246</name></trkpt>
<trkpt lat="53.245803" lon="-2.009740"><ele>415</ele><time>2020-08-19T10:54:01Z</time><name>PT3247</name></trkpt>
<trkpt lat="53.245804" lon="-2.009727"><ele>415</ele><time>2020-08-19T10:54:02Z</time><name>PT3248</name></trkpt>
<trkpt lat="53.245802" lon="-2.009713"><ele>415</ele><time>2020-08-19T10:54:03Z</time><name>PT3249</name></trkpt>
<trkpt lat="53.245799" lon="-2.009697"><ele>414</ele><time>2020-08-19T10:54:04Z</time><name>PT3250</name></trkpt>
<trkpt lat="53.245799" lon="-2.009682"><ele>415</ele><time>2020-08-19T10:54:05Z</time><name>PT3251</name></trkpt>
<trkpt lat="53.245797" lon="-2.009664"><ele>414</ele><time>2020-08-19T10:54:06Z</time><name>PT3252</name></trkpt>
<trkpt lat="53.245797" lon="-2.009648"><ele>415</ele><time>2020-08-19T10:54:07Z</time><name>PT3253</name></trkpt>
<trkpt lat="53.245798" lon="-2.009634"><ele>415</ele><time>2020-08-19T10:54:08Z</time><name>PT3254</name></trkpt>
<trkpt lat="53.245797" lon="-2.009619"><ele>415</ele><time>2020-08-19T10:54:09Z</time><name>PT3255</name></trkpt>
<trkpt lat="53.245798" lon="-2.009601"><ele>415</ele><time>2020-08-19T10:54:10Z</time><name>PT3256</name></trkpt>
<trkpt lat="53.245798" lon="-2.009583"><ele>415</ele><time>2020-08-19T10:54:11Z</time><name>PT3257</name></trkpt>
<trkpt lat="53.245799" lon="-2.009568"><ele>416</ele><time>2020-08-19T10:54:12Z</time><name>PT3258</name></trkpt>
<trkpt lat="53.245798" lon="-2.009554"><ele>415</ele><time>2020-08-19T10:54:13Z</time><name>PT3259</name></trkpt>
<trkpt lat="53.245795" lon="-2.009541"><ele>416</ele><time>2020-08-19T10:54:14Z</time><name>PT3260</name></trkpt>
<trkpt lat="53.245793" lon="-2.009529"><ele>416</ele><time>2020-08-19T10:54:15Z</time><name>PT3261</name></trkpt>
<trkpt lat="53.245792" lon="-2.009514"><ele>415</ele><time>2020-08-19T10:54:16Z</time><name>PT3262</name></trkpt>
<trkpt lat="53.245792" lon="-2.009496"><ele>415</ele><time>2020-08-19T10:54:17Z</time><name>PT3263</name></trkpt>
<trkpt lat="53.245793" lon="-2.009480"><ele>415</ele><time>2020-08-19T10:54:18Z</time><name>PT3264</name></trkpt>
<trkpt lat="53.245793" lon="-2.009464"><ele>414</ele><time>2020-08-19T10:54:19Z</time><name>PT3265</name></trkpt>
<trkpt lat="53.245793" lon="-2.009450"><ele>415</ele><time>2020-08-19T10:54:20Z</time><name>PT3266</name></trkpt>
<trkpt lat="53.245792" lon="-2.009437"><ele>414</ele><time>2020-08-19T10:54:21Z</time><name>PT3267</name></trkpt>
<trkpt lat="53.245790" lon="-2.009424"><ele>414</ele><time>2020-08-19T10:54:22Z</time><name>PT3268</name></trkpt>
<trkpt lat="53.245789" lon="-2.009413"><ele>415</ele><time>2020-08-19T10:54:23Z</time><name>PT3269</name></trkpt>
<trkpt lat="53.245790" lon="-2.009400"><ele>415</ele><time>2020-08-19T10:54:24Z</time><name>PT3270</name></trkpt>
<trkpt lat="53.245789" lon="-2.009386"><ele>415</ele><time>2020-08-19T10:54:25Z</time><name>PT3271</name></trkpt>
<trkpt lat="53.245793" lon="-2.009368"><ele>415</ele><time>2020-08-19T10:54:26Z</time><name>PT3272</name></trkpt>
<trkpt lat="53.245796" lon="-2.009358"><ele>415</ele><time>2020-08-19T10:54:27Z</time><name>PT3273</name></trkpt>
<trkpt lat="53.245798" lon="-2.009344"><ele>415</ele><time>2020-08-19T10:54:28Z</time><name>PT3274</name></trkpt>
<trkpt lat="53.245800" lon="-2.009327"><ele>415</ele><time>2020-08-19T10:54:29Z</time><name>PT3275</name></trkpt>
<trkpt lat="53.245801" lon="-2.009310"><ele>415</ele><time>2020-08-19T10:54:30Z</time><name>PT3276</name></trkpt>
<trkpt lat="53.245801" lon="-2.009294"><ele>415</ele><time>2020-08-19T10:54:31Z</time><name>PT3277</name></trkpt>
<trkpt lat="53.245805" lon="-2.009276"><ele>415</ele><time>2020-08-19T10:54:32Z</time><name>PT3278</name></trkpt>
<trkpt lat="53.245807" lon="-2.009261"><ele>415</ele><time>2020-08-19T10:54:33Z</time><name>PT3279</name></trkpt>
<trkpt lat="53.245807" lon="-2.009250"><ele>415</ele><time>2020-08-19T10:54:34Z</time><name>PT3280</name></trkpt>
<trkpt lat="53.245807" lon="-2.009238"><ele>415</ele><time>2020-08-19T10:54:35Z</time><name>PT3281</name></trkpt>
<trkpt lat="53.245805" lon="-2.009224"><ele>415</ele><time>2020-08-19T10:54:36Z</time><name>PT3282</name></trkpt>
<trkpt lat="53.245799" lon="-2.009217"><ele>415</ele><time>2020-08-19T10:54:37Z</time><name>PT3283</name></trkpt>
<trkpt lat="53.245796" lon="-2.009214"><ele>415</ele><time>2020-08-19T10:54:38Z</time><name>PT3284</name></trkpt>
<trkpt lat="53.245791" lon="-2.009213"><ele>415</ele><time>2020-08-19T10:54:39Z</time><name>PT3285</name></trkpt>
<trkpt lat="53.245790" lon="-2.009208"><ele>416</ele><time>2020-08-19T10:54:40Z</time><name>PT3286</name></trkpt>
<trkpt lat="53.245784" lon="-2.009202"><ele>416</ele><time>2020-08-19T10:54:41Z</time><name>PT3287</name></trkpt>
<trkpt lat="53.245780" lon="-2.009195"><ele>416</ele><time>2020-08-19T10:54:42Z</time><name>PT3288</name></trkpt>
<trkpt lat="53.245774" lon="-2.009188"><ele>417</ele><time>2020-08-19T10:54:43Z</time><name>PT3289</name></trkpt>
<trkpt lat="53.245768" lon="-2.009183"><ele>417</ele><time>2020-08-19T10:54:44Z</time><name>PT3290</name></trkpt>
<trkpt lat="53.245762" lon="-2.009180"><ele>417</ele><time>2020-08-19T10:54:45Z</time><name>PT3291</name></trkpt>
<trkpt lat="53.245757" lon="-2.009177"><ele>417</ele><time>2020-08-19T10:54:46Z</time><name>PT3292</name></trkpt>
<trkpt lat="53.245752" lon="-2.009174"><ele>418</ele><time>2020-08-19T10:54:47Z</time><name>PT3293</name></trkpt>
<trkpt lat="53.245747" lon="-2.009172"><ele>418</ele><time>2020-08-19T10:54:48Z</time><name>PT3294</name></trkpt>
<trkpt lat="53.245741" lon="-2.009171"><ele>418</ele><time>2020-08-19T10:54:49Z</time><name>PT3295</name></trkpt>
<trkpt lat="53.245736" lon="-2.009169"><ele>419</ele><time>2020-08-19T10:54:50Z</time><name>PT3296</name></trkpt>
<trkpt lat="53.245725" lon="-2.009123"><ele>421</ele><time>2020-08-19T10:55:00Z</time><name>PT3297</name></trkpt>
<trkpt lat="53.245704" lon="-2.009087"><ele>422</ele><time>2020-08-19T10:55:03Z</time><name>PT3298</name></trkpt>
<trkpt lat="53.245686" lon="-2.009062"><ele>423</ele><time>2020-08-19T10:55:06Z</time><name>PT3299</name></trkpt>
<trkpt lat="53.245666" lon="-2.009012"><ele>423</ele><time>2020-08-19T10:55:09Z</time><name>PT3300</name></trkpt>
<trkpt lat="53.245652" lon="-2.008957"><ele>423</ele><time>2020-08-19T10:55:12Z</time><name>PT3301</name></trkpt>
<trkpt lat="53.245632" lon="-2.008891"><ele>424</ele><time>2020-08-19T10:55:16Z</time><name>PT3302</name></trkpt>
<trkpt lat="53.245620" lon="-2.008820"><ele>424</ele><time>2020-08-19T10:55:20Z</time><name>PT3303</name></trkpt>
<trkpt lat="53.245605" lon="-2.008757"><ele>425</ele><time>2020-08-19T10:55:24Z</time><name>PT3304</name></trkpt>
<trkpt lat="53.245594" lon="-2.008704"><ele>424</ele><time>2020-08-19T10:55:27Z</time><name>PT3305</name></trkpt>
<trkpt lat="53.245582" lon="-2.008661"><ele>424</ele><time>2020-08-19T10:55:30Z</time><name>PT3306</name></trkpt>
<trkpt lat="53.245568" lon="-2.008593"><ele>425</ele><time>2020-08-19T10:55:34Z</time><name>PT3307</name></trkpt>
<trkpt lat="53.245555" lon="-2.008534"><ele>426</ele><time>2020-08-19T10:55:38Z</time><name>PT3308</name></trkpt>
<trkpt lat="53.245541" lon="-2.008471"><ele>425</ele><time>2020-08-19T10:55:42Z</time><name>PT3309</name></trkpt>
<trkpt lat="53.245523" lon="-2.008411"><ele>425</ele><time>2020-08-19T10:55:46Z</time><name>PT3310</name></trkpt>
<trkpt lat="53.245509" lon="-2.008352"><ele>426</ele><time>2020-08-19T10:55:50Z</time><name>PT3311</name></trkpt>
<trkpt lat="53.245501" lon="-2.008309"><ele>426</ele><time>2020-08-19T10:55:53Z</time><name>PT3312</name></trkpt>
<trkpt lat="53.245494" lon="-2.008239"><ele>427</ele><time>2020-08-19T10:55:57Z</time><name>PT3313</name></trkpt>
<trkpt lat="53.245473" lon="-2.008192"><ele>427</ele><time>2020-08-19T10:56:01Z</time><name>PT3314</name></trkpt>
<trkpt lat="53.245466" lon="-2.008129"><ele>427</ele><time>2020-08-19T10:56:05Z</time><name>PT3315</name></trkpt>
<trkpt lat="53.245476" lon="-2.008060"><ele>427</ele><time>2020-08-19T10:56:09Z</time><name>PT3316</name></trkpt>
<trkpt lat="53.245477" lon="-2.008016"><ele>427</ele><time>2020-08-19T10:56:13Z</time><name>PT3317</name></trkpt>
<trkpt lat="53.245486" lon="-2.007966"><ele>428</ele><time>2020-08-19T10:56:17Z</time><name>PT3318</name></trkpt>
<trkpt lat="53.245493" lon="-2.007923"><ele>429</ele><time>2020-08-19T10:56:21Z</time><name>PT3319</name></trkpt>
<trkpt lat="53.245496" lon="-2.007878"><ele>429</ele><time>2020-08-19T10:56:25Z</time><name>PT3320</name></trkpt>
<trkpt lat="53.245499" lon="-2.007827"><ele>430</ele><time>2020-08-19T10:56:29Z</time><name>PT3321</name></trkpt>
<trkpt lat="53.245493" lon="-2.007779"><ele>430</ele><time>2020-08-19T10:56:33Z</time><name>PT3322</name></trkpt>
<trkpt lat="53.245483" lon="-2.007710"><ele>430</ele><time>2020-08-19T10:56:37Z</time><name>PT3323</name></trkpt>
<trkpt lat="53.245484" lon="-2.007642"><ele>431</ele><time>2020-08-19T10:56:41Z</time><name>PT3324</name></trkpt>
<trkpt lat="53.245485" lon="-2.007595"><ele>431</ele><time>2020-08-19T10:56:44Z</time><name>PT3325</name></trkpt>
<trkpt lat="53.245475" lon="-2.007529"><ele>432</ele><time>2020-08-19T10:56:48Z</time><name>PT3326</name></trkpt>
<trkpt lat="53.245469" lon="-2.007480"><ele>432</ele><time>2020-08-19T10:56:52Z</time><name>PT3327</name></trkpt>
<trkpt lat="53.245464" lon="-2.007437"><ele>433</ele><time>2020-08-19T10:56:55Z</time><name>PT3328</name></trkpt>
<trkpt lat="53.245454" lon="-2.007394"><ele>434</ele><time>2020-08-19T10:56:58Z</time><name>PT3329</name></trkpt>
<trkpt lat="53.245441" lon="-2.007332"><ele>435</ele><time>2020-08-19T10:57:02Z</time><name>PT3330</name></trkpt>
<trkpt lat="53.245424" lon="-2.007295"><ele>435</ele><time>2020-08-19T10:57:06Z</time><name>PT3331</name></trkpt>
<trkpt lat="53.245401" lon="-2.007255"><ele>436</ele><time>2020-08-19T10:57:10Z</time><name>PT3332</name></trkpt>
<trkpt lat="53.245385" lon="-2.007208"><ele>437</ele><time>2020-08-19T10:57:14Z</time><name>PT3333</name></trkpt>
<trkpt lat="53.245372" lon="-2.007150"><ele>437</ele><time>2020-08-19T10:57:18Z</time><name>PT3334</name></trkpt>
<trkpt lat="53.245353" lon="-2.007096"><ele>438</ele><time>2020-08-19T10:57:22Z</time><name>PT3335</name></trkpt>
<trkpt lat="53.245337" lon="-2.007064"><ele>438</ele><time>2020-08-19T10:57:25Z</time><name>PT3336</name></trkpt>
<trkpt lat="53.245322" lon="-2.007027"><ele>438</ele><time>2020-08-19T10:57:28Z</time><name>PT3337</name></trkpt>
<trkpt lat="53.245309" lon="-2.006987"><ele>439</ele><time>2020-08-19T10:57:31Z</time><name>PT3338</name></trkpt>
<trkpt lat="53.245297" lon="-2.006949"><ele>440</ele><time>2020-08-19T10:57:34Z</time><name>PT3339</name></trkpt>
<trkpt lat="53.245276" lon="-2.006915"><ele>441</ele><time>2020-08-19T10:57:37Z</time><name>PT3340</name></trkpt>
<trkpt lat="53.245260" lon="-2.006862"><ele>441</ele><time>2020-08-19T10:57:41Z</time><name>PT3341</name></trkpt>
<trkpt lat="53.245242" lon="-2.006816"><ele>441</ele><time>2020-08-19T10:57:45Z</time><name>PT3342</name></trkpt>
<trkpt lat="53.245223" lon="-2.006780"><ele>442</ele><time>2020-08-19T10:57:48Z</time><name>PT3343</name></trkpt>
<trkpt lat="53.245208" lon="-2.006746"><ele>443</ele><time>2020-08-19T10:57:51Z</time><name>PT3344</name></trkpt>
<trkpt lat="53.245193" lon="-2.006713"><ele>443</ele><time>2020-08-19T10:57:54Z</time><name>PT3345</name></trkpt>
<trkpt lat="53.245177" lon="-2.006669"><ele>443</ele><time>2020-08-19T10:57:58Z</time><name>PT3346</name></trkpt>
<trkpt lat="53.245159" lon="-2.006645"><ele>444</ele><time>2020-08-19T10:58:01Z</time><name>PT3347</name></trkpt>
<trkpt lat="53.245136" lon="-2.006603"><ele>445</ele><time>2020-08-19T10:58:05Z</time><name>PT3348</name></trkpt>
<trkpt lat="53.245117" lon="-2.006575"><ele>446</ele><time>2020-08-19T10:58:08Z</time><name>PT3349</name></trkpt>
<trkpt lat="53.245091" lon="-2.006546"><ele>445</ele><time>2020-08-19T10:58:12Z</time><name>PT3350</name></trkpt>
<trkpt lat="53.245068" lon="-2.006525"><ele>445</ele><time>2020-08-19T10:58:16Z</time><name>PT3351</name></trkpt>
<trkpt lat="53.245040" lon="-2.006499"><ele>445</ele><time>2020-08-19T10:58:19Z</time><name>PT3352</name></trkpt>
<trkpt lat="53.245006" lon="-2.006477"><ele>445</ele><time>2020-08-19T10:58:23Z</time><name>PT3353</name></trkpt>
<trkpt lat="53.244970" lon="-2.006450"><ele>445</ele><time>2020-08-19T10:58:27Z</time><name>PT3354</name></trkpt>
<trkpt lat="53.244930" lon="-2.006437"><ele>445</ele><time>2020-08-19T10:58:31Z</time><name>PT3355</name></trkpt>
<trkpt lat="53.244899" lon="-2.006429"><ele>445</ele><time>2020-08-19T10:58:34Z</time><name>PT3356</name></trkpt>
<trkpt lat="53.244855" lon="-2.006425"><ele>443</ele><time>2020-08-19T10:58:38Z</time><name>PT3357</name></trkpt>
<trkpt lat="53.244820" lon="-2.006419"><ele>443</ele><time>2020-08-19T10:58:41Z</time><name>PT3358</name></trkpt>
<trkpt lat="53.244773" lon="-2.006397"><ele>443</ele><time>2020-08-19T10:58:45Z</time><name>PT3359</name></trkpt>
<trkpt lat="53.244728" lon="-2.006380"><ele>443</ele><time>2020-08-19T10:58:49Z</time><name>PT3360</name></trkpt>
<trkpt lat="53.244692" lon="-2.006368"><ele>443</ele><time>2020-08-19T10:58:52Z</time><name>PT3361</name></trkpt>
<trkpt lat="53.244654" lon="-2.006345"><ele>443</ele><time>2020-08-19T10:58:56Z</time><name>PT3362</name></trkpt>
<trkpt lat="53.244621" lon="-2.006323"><ele>444</ele><time>2020-08-19T10:58:59Z</time><name>PT3363</name></trkpt>
<trkpt lat="53.244593" lon="-2.006288"><ele>444</ele><time>2020-08-19T10:59:03Z</time><name>PT3364</name></trkpt>
<trkpt lat="53.244568" lon="-2.006273"><ele>443</ele><time>2020-08-19T10:59:06Z</time><name>PT3365</name></trkpt>
<trkpt lat="53.244547" lon="-2.006267"><ele>443</ele><time>2020-08-19T10:59:09Z</time><name>PT3366</name></trkpt>
<trkpt lat="53.244476" lon="-2.006206"><ele>446</ele><time>2020-08-19T10:59:12Z</time><name>PT3367</name></trkpt>
<trkpt lat="53.244474" lon="-2.006202"><ele>446</ele><time>2020-08-19T10:59:13Z</time><name>PT3368</name></trkpt>
<trkpt lat="53.244474" lon="-2.006200"><ele>446</ele><time>2020-08-19T10:59:14Z</time><name>PT3369</name></trkpt>
<trkpt lat="53.244474" lon="-2.006199"><ele>445</ele><time>2020-08-19T10:59:15Z</time><name>PT3370</name></trkpt>
<trkpt lat="53.244469" lon="-2.006190"><ele>445</ele><time>2020-08-19T10:59:20Z</time><name>PT3371</name></trkpt>
<trkpt lat="53.244469" lon="-2.006190"><ele>445</ele><time>2020-08-19T10:59:21Z</time><name>PT3372</name></trkpt>
<trkpt lat="53.244470" lon="-2.006189"><ele>445</ele><time>2020-08-19T10:59:22Z</time><name>PT3373</name></trkpt>
<trkpt lat="53.244471" lon="-2.006188"><ele>445</ele><time>2020-08-19T10:59:23Z</time><name>PT3374</name></trkpt>
<trkpt lat="53.244463" lon="-2.006189"><ele>445</ele><time>2020-08-19T10:59:24Z</time><name>PT3375</name></trkpt>
<trkpt lat="53.244456" lon="-2.006190"><ele>445</ele><time>2020-08-19T10:59:25Z</time><name>PT3376</name></trkpt>
<trkpt lat="53.244448" lon="-2.006185"><ele>445</ele><time>2020-08-19T10:59:26Z</time><name>PT3377</name></trkpt>
<trkpt lat="53.244440" lon="-2.006179"><ele>445</ele><time>2020-08-19T10:59:27Z</time><name>PT3378</name></trkpt>
<trkpt lat="53.244434" lon="-2.006171"><ele>444</ele><time>2020-08-19T10:59:28Z</time><name>PT3379</name></trkpt>
<trkpt lat="53.244427" lon="-2.006159"><ele>445</ele><time>2020-08-19T10:59:29Z</time><name>PT3380</name></trkpt>
<trkpt lat="53.244421" lon="-2.006146"><ele>445</ele><time>2020-08-19T10:59:30Z</time><name>PT3381</name></trkpt>
<trkpt lat="53.244417" lon="-2.006129"><ele>445</ele><time>2020-08-19T10:59:31Z</time><name>PT3382</name></trkpt>
<trkpt lat="53.244414" lon="-2.006111"><ele>445</ele><time>2020-08-19T10:59:32Z</time><name>PT3383</name></trkpt>
<trkpt lat="53.244412" lon="-2.006097"><ele>445</ele><time>2020-08-19T10:59:33Z</time><name>PT3384</name></trkpt>
<trkpt lat="53.244410" lon="-2.006083"><ele>446</ele><time>2020-08-19T10:59:34Z</time><name>PT3385</name></trkpt>
<trkpt lat="53.244405" lon="-2.006070"><ele>446</ele><time>2020-08-19T10:59:35Z</time><name>PT3386</name></trkpt>
<trkpt lat="53.244400" lon="-2.006059"><ele>446</ele><time>2020-08-19T10:59:36Z</time><name>PT3387</name></trkpt>
<trkpt lat="53.244393" lon="-2.006047"><ele>446</ele><time>2020-08-19T10:59:37Z</time><name>PT3388</name></trkpt>
<trkpt lat="53.244390" lon="-2.006041"><ele>446</ele><time>2020-08-19T10:59:38Z</time><name>PT3389</name></trkpt>
<trkpt lat="53.244385" lon="-2.006033"><ele>446</ele><time>2020-08-19T10:59:39Z</time><name>PT3390</name></trkpt>
<trkpt lat="53.244378" lon="-2.006023"><ele>446</ele><time>2020-08-19T10:59:40Z</time><name>PT3391</name></trkpt>
<trkpt lat="53.244370" lon="-2.006016"><ele>446</ele><time>2020-08-19T10:59:41Z</time><name>PT3392</name></trkpt>
<trkpt lat="53.244361" lon="-2.006003"><ele>446</ele><time>2020-08-19T10:59:42Z</time><name>PT3393</name></trkpt>
<trkpt lat="53.244354" lon="-2.005989"><ele>447</ele><time>2020-08-19T10:59:43Z</time><name>PT3394</name></trkpt>
<trkpt lat="53.244348" lon="-2.005978"><ele>447</ele><time>2020-08-19T10:59:44Z</time><name>PT3395</name></trkpt>
<trkpt lat="53.244342" lon="-2.005967"><ele>447</ele><time>2020-08-19T10:59:45Z</time><name>PT3396</name></trkpt>
<trkpt lat="53.244335" lon="-2.005960"><ele>447</ele><time>2020-08-19T10:59:46Z</time><name>PT3397</name></trkpt>
<trkpt lat="53.244328" lon="-2.005948"><ele>447</ele><time>2020-08-19T10:59:47Z</time><name>PT3398</name></trkpt>
<trkpt lat="53.244324" lon="-2.005939"><ele>448</ele><time>2020-08-19T10:59:48Z</time><name>PT3399</name></trkpt>
<trkpt lat="53.244319" lon="-2.005926"><ele>448</ele><time>2020-08-19T10:59:49Z</time><name>PT3400</name></trkpt>
<trkpt lat="53.244314" lon="-2.005921"><ele>448</ele><time>2020-08-19T10:59:50Z</time><name>PT3401</name></trkpt>
<trkpt lat="53.244309" lon="-2.005916"><ele>448</ele><time>2020-08-19T10:59:51Z</time><name>PT3402</name></trkpt>
<trkpt lat="53.244304" lon="-2.005910"><ele>448</ele><time>2020-08-19T10:59:52Z</time><name>PT3403</name></trkpt>
<trkpt lat="53.244303" lon="-2.005907"><ele>448</ele><time>2020-08-19T10:59:53Z</time><name>PT3404</name></trkpt>
<trkpt lat="53.244303" lon="-2.005905"><ele>448</ele><time>2020-08-19T10:59:54Z</time><name>PT3405</name></trkpt>
<trkpt lat="53.244302" lon="-2.005901"><ele>448</ele><time>2020-08-19T10:59:55Z</time><name>PT3406</name></trkpt>
<trkpt lat="53.244301" lon="-2.005896"><ele>447</ele><time>2020-08-19T10:59:58Z</time><name>PT3407</name></trkpt>
<trkpt lat="53.244305" lon="-2.005891"><ele>448</ele><time>2020-08-19T10:59:59Z</time><name>PT3408</name></trkpt>
<trkpt lat="53.244306" lon="-2.005893"><ele>448</ele><time>2020-08-19T11:00:00Z</time><name>PT3409</name></trkpt>
<trkpt lat="53.244305" lon="-2.005885"><ele>448</ele><time>2020-08-19T11:00:01Z</time><name>PT3410</name></trkpt>
<trkpt lat="53.244305" lon="-2.005878"><ele>449</ele><time>2020-08-19T11:00:02Z</time><name>PT3411</name></trkpt>
<trkpt lat="53.244305" lon="-2.005874"><ele>448</ele><time>2020-08-19T11:00:03Z</time><name>PT3412</name></trkpt>
<trkpt lat="53.244298" lon="-2.005865"><ele>449</ele><time>2020-08-19T11:00:04Z</time><name>PT3413</name></trkpt>
<trkpt lat="53.244298" lon="-2.005859"><ele>449</ele><time>2020-08-19T11:00:05Z</time><name>PT3414</name></trkpt>
<trkpt lat="53.244300" lon="-2.005849"><ele>449</ele><time>2020-08-19T11:00:06Z</time><name>PT3415</name></trkpt>
<trkpt lat="53.244301" lon="-2.005836"><ele>449</ele><time>2020-08-19T11:00:07Z</time><name>PT3416</name></trkpt>
<trkpt lat="53.244301" lon="-2.005823"><ele>449</ele><time>2020-08-19T11:00:08Z</time><name>PT3417</name></trkpt>
<trkpt lat="53.244301" lon="-2.005811"><ele>449</ele><time>2020-08-19T11:00:09Z</time><name>PT3418</name></trkpt>
<trkpt lat="53.244301" lon="-2.005799"><ele>448</ele><time>2020-08-19T11:00:10Z</time><name>PT3419</name></trkpt>
<trkpt lat="53.244301" lon="-2.005788"><ele>448</ele><time>2020-08-19T11:00:11Z</time><name>PT3420</name></trkpt>
<trkpt lat="53.244304" lon="-2.005777"><ele>448</ele><time>2020-08-19T11:00:12Z</time><name>PT3421</name></trkpt>
<trkpt lat="53.244304" lon="-2.005762"><ele>448</ele><time>2020-08-19T11:00:13Z</time><name>PT3422</name></trkpt>
<trkpt lat="53.244300" lon="-2.005748"><ele>448</ele><time>2020-08-19T11:00:14Z</time><name>PT3423</name></trkpt>
<trkpt lat="53.244299" lon="-2.005736"><ele>448</ele><time>2020-08-19T11:00:15Z</time><name>PT3424</name></trkpt>
<trkpt lat="53.244299" lon="-2.005723"><ele>449</ele><time>2020-08-19T11:00:16Z</time><name>PT3425</name></trkpt>
<trkpt lat="53.244299" lon="-2.005710"><ele>449</ele><time>2020-08-19T11:00:17Z</time><name>PT3426</name></trkpt>
<trkpt lat="53.244298" lon="-2.005701"><ele>449</ele><time>2020-08-19T11:00:18Z</time><name>PT3427</name></trkpt>
<trkpt lat="53.244297" lon="-2.005690"><ele>449</ele><time>2020-08-19T11:00:19Z</time><name>PT3428</name></trkpt>
<trkpt lat="53.244297" lon="-2.005676"><ele>449</ele><time>2020-08-19T11:00:20Z</time><name>PT3429</name></trkpt>
<trkpt lat="53.244299" lon="-2.005662"><ele>450</ele><time>2020-08-19T11:00:21Z</time><name>PT3430</name></trkpt>
<trkpt lat="53.244301" lon="-2.005648"><ele>450</ele><time>2020-08-19T11:00:22Z</time><name>PT3431</name></trkpt>
<trkpt lat="53.244297" lon="-2.005638"><ele>450</ele><time>2020-08-19T11:00:23Z</time><name>PT3432</name></trkpt>
<trkpt lat="53.244299" lon="-2.005626"><ele>451</ele><time>2020-08-19T11:00:24Z</time><name>PT3433</name></trkpt>
<trkpt lat="53.244296" lon="-2.005614"><ele>451</ele><time>2020-08-19T11:00:25Z</time><name>PT3434</name></trkpt>
<trkpt lat="53.244294" lon="-2.005602"><ele>451</ele><time>2020-08-19T11:00:26Z</time><name>PT3435</name></trkpt>
<trkpt lat="53.244290" lon="-2.005591"><ele>451</ele><time>2020-08-19T11:00:27Z</time><name>PT3436</name></trkpt>
<trkpt lat="53.244290" lon="-2.005579"><ele>451</ele><time>2020-08-19T11:00:28Z</time><name>PT3437</name></trkpt>
<trkpt lat="53.244291" lon="-2.005573"><ele>451</ele><time>2020-08-19T11:00:29Z</time><name>PT3438</name></trkpt>
<trkpt lat="53.244289" lon="-2.005562"><ele>451</ele><time>2020-08-19T11:00:30Z</time><name>PT3439</name></trkpt>
<trkpt lat="53.244288" lon="-2.005553"><ele>451</ele><time>2020-08-19T11:00:31Z</time><name>PT3440</name></trkpt>
<trkpt lat="53.244287" lon="-2.005543"><ele>451</ele><time>2020-08-19T11:00:32Z</time><name>PT3441</name></trkpt>
<trkpt lat="53.244287" lon="-2.005534"><ele>451</ele><time>2020-08-19T11:00:33Z</time><name>PT3442</name></trkpt>
<trkpt lat="53.244285" lon="-2.005524"><ele>452</ele><time>2020-08-19T11:00:34Z</time><name>PT3443</name></trkpt>
<trkpt lat="53.244284" lon="-2.005511"><ele>452</ele><time>2020-08-19T11:00:35Z</time><name>PT3444</name></trkpt>
<trkpt lat="53.244284" lon="-2.005503"><ele>452</ele><time>2020-08-19T11:00:36Z</time><name>PT3445</name></trkpt>
<trkpt lat="53.244282" lon="-2.005494"><ele>452</ele><time>2020-08-19T11:00:37Z</time><name>PT3446</name></trkpt>
<trkpt lat="53.244282" lon="-2.005480"><ele>452</ele><time>2020-08-19T11:00:38Z</time><name>PT3447</name></trkpt>
<trkpt lat="53.244282" lon="-2.005468"><ele>453</ele><time>2020-08-19T11:00:39Z</time><name>PT3448</name></trkpt>
<trkpt lat="53.244282" lon="-2.005459"><ele>453</ele><time>2020-08-19T11:00:40Z</time><name>PT3449</name></trkpt>
<trkpt lat="53.244283" lon="-2.005449"><ele>453</ele><time>2020-08-19T11:00:41Z</time><name>PT3450</name></trkpt>
<trkpt lat="53.244284" lon="-2.005438"><ele>453</ele><time>2020-08-19T11:00:42Z</time><name>PT3451</name></trkpt>
<trkpt lat="53.244287" lon="-2.005426"><ele>453</ele><time>2020-08-19T11:00:43Z</time><name>PT3452</name></trkpt>
<trkpt lat="53.244288" lon="-2.005415"><ele>453</ele><time>2020-08-19T11:00:44Z</time><name>PT3453</name></trkpt>
<trkpt lat="53.244287" lon="-2.005402"><ele>454</ele><time>2020-08-19T11:00:45Z</time><name>PT3454</name></trkpt>
<trkpt lat="53.244288" lon="-2.005389"><ele>454</ele><time>2020-08-19T11:00:46Z</time><name>PT3455</name></trkpt>
<trkpt lat="53.244289" lon="-2.005378"><ele>454</ele><time>2020-08-19T11:00:47Z</time><name>PT3456</name></trkpt>
<trkpt lat="53.244291" lon="-2.005369"><ele>455</ele><time>2020-08-19T11:00:48Z</time><name>PT3457</name></trkpt>
<trkpt lat="53.244291" lon="-2.005360"><ele>455</ele><time>2020-08-19T11:00:49Z</time><name>PT3458</name></trkpt>
<trkpt lat="53.244291" lon="-2.005346"><ele>455</ele><time>2020-08-19T11:00:50Z</time><name>PT3459</name></trkpt>
<trkpt lat="53.244292" lon="-2.005335"><ele>455</ele><time>2020-08-19T11:00:51Z</time><name>PT3460</name></trkpt>
<trkpt lat="53.244291" lon="-2.005324"><ele>455</ele><time>2020-08-19T11:00:52Z</time><name>PT3461</name></trkpt>
<trkpt lat="53.244290" lon="-2.005314"><ele>456</ele><time>2020-08-19T11:00:53Z</time><name>PT3462</name></trkpt>
<trkpt lat="53.244288" lon="-2.005305"><ele>456</ele><time>2020-08-19T11:00:54Z</time><name>PT3463</name></trkpt>
<trkpt lat="53.244289" lon="-2.005299"><ele>456</ele><time>2020-08-19T11:00:55Z</time><name>PT3464</name></trkpt>
<trkpt lat="53.244289" lon="-2.005290"><ele>456</ele><time>2020-08-19T11:00:55Z</time><name>PT3465</name></trkpt>
<trkpt lat="53.244286" lon="-2.005281"><ele>456</ele><time>2020-08-19T11:00:57Z</time><name>PT3466</name></trkpt>
<trkpt lat="53.244288" lon="-2.005272"><ele>456</ele><time>2020-08-19T11:00:58Z</time><name>PT3467</name></trkpt>
<trkpt lat="53.244287" lon="-2.005264"><ele>457</ele><time>2020-08-19T11:00:59Z</time><name>PT3468</name></trkpt>
<trkpt lat="53.244286" lon="-2.005252"><ele>457</ele><time>2020-08-19T11:01:00Z</time><name>PT3469</name></trkpt>
<trkpt lat="53.244284" lon="-2.005240"><ele>457</ele><time>2020-08-19T11:01:01Z</time><name>PT3470</name></trkpt>
<trkpt lat="53.244282" lon="-2.005228"><ele>458</ele><time>2020-08-19T11:01:02Z</time><name>PT3471</name></trkpt>
<trkpt lat="53.244283" lon="-2.005218"><ele>458</ele><time>2020-08-19T11:01:03Z</time><name>PT3472</name></trkpt>
<trkpt lat="53.244284" lon="-2.005207"><ele>458</ele><time>2020-08-19T11:01:04Z</time><name>PT3473</name></trkpt>
<trkpt lat="53.244289" lon="-2.005199"><ele>459</ele><time>2020-08-19T11:01:05Z</time><name>PT3474</name></trkpt>
<trkpt lat="53.244293" lon="-2.005191"><ele>459</ele><time>2020-08-19T11:01:06Z</time><name>PT3475</name></trkpt>
<trkpt lat="53.244294" lon="-2.005182"><ele>459</ele><time>2020-08-19T11:01:07Z</time><name>PT3476</name></trkpt>
<trkpt lat="53.244296" lon="-2.005172"><ele>459</ele><time>2020-08-19T11:01:08Z</time><name>PT3477</name></trkpt>
<trkpt lat="53.244298" lon="-2.005164"><ele>459</ele><time>2020-08-19T11:01:09Z</time><name>PT3478</name></trkpt>
<trkpt lat="53.244300" lon="-2.005158"><ele>459</ele><time>2020-08-19T11:01:10Z</time><name>PT3479</name></trkpt>
<trkpt lat="53.244304" lon="-2.005151"><ele>460</ele><time>2020-08-19T11:01:11Z</time><name>PT3480</name></trkpt>
<trkpt lat="53.244303" lon="-2.005140"><ele>460</ele><time>2020-08-19T11:01:12Z</time><name>PT3481</name></trkpt>
<trkpt lat="53.244302" lon="-2.005127"><ele>461</ele><time>2020-08-19T11:01:13Z</time><name>PT3482</name></trkpt>
<trkpt lat="53.244301" lon="-2.005121"><ele>460</ele><time>2020-08-19T11:01:14Z</time><name>PT3483</name></trkpt>
<trkpt lat="53.244300" lon="-2.005115"><ele>460</ele><time>2020-08-19T11:01:15Z</time><name>PT3484</name></trkpt>
<trkpt lat="53.244300" lon="-2.005110"><ele>460</ele><time>2020-08-19T11:01:16Z</time><name>PT3485</name></trkpt>
<trkpt lat="53.244301" lon="-2.005103"><ele>460</ele><time>2020-08-19T11:01:17Z</time><name>PT3486</name></trkpt>
<trkpt lat="53.244303" lon="-2.005094"><ele>461</ele><time>2020-08-19T11:01:18Z</time><name>PT3487</name></trkpt>
<trkpt lat="53.244304" lon="-2.005087"><ele>461</ele><time>2020-08-19T11:01:19Z</time><name>PT3488</name></trkpt>
<trkpt lat="53.244303" lon="-2.005078"><ele>461</ele><time>2020-08-19T11:01:20Z</time><name>PT3489</name></trkpt>
<trkpt lat="53.244302" lon="-2.005070"><ele>461</ele><time>2020-08-19T11:01:21Z</time><name>PT3490</name></trkpt>
<trkpt lat="53.244304" lon="-2.005060"><ele>461</ele><time>2020-08-19T11:01:22Z</time><name>PT3491</name></trkpt>
<trkpt lat="53.244303" lon="-2.005047"><ele>461</ele><time>2020-08-19T11:01:23Z</time><name>PT3492</name></trkpt>
<trkpt lat="53.244305" lon="-2.005037"><ele>461</ele><time>2020-08-19T11:01:24Z</time><name>PT3493</name></trkpt>
<trkpt lat="53.244306" lon="-2.005028"><ele>462</ele><time>2020-08-19T11:01:25Z</time><name>PT3494</name></trkpt>
<trkpt lat="53.244307" lon="-2.005020"><ele>462</ele><time>2020-08-19T11:01:26Z</time><name>PT3495</name></trkpt>
<trkpt lat="53.244306" lon="-2.005010"><ele>462</ele><time>2020-08-19T11:01:27Z</time><name>PT3496</name></trkpt>
<trkpt lat="53.244305" lon="-2.004998"><ele>462</ele><time>2020-08-19T11:01:28Z</time><name>PT3497</name></trkpt>
<trkpt lat="53.244307" lon="-2.004991"><ele>463</ele><time>2020-08-19T11:01:29Z</time><name>PT3498</name></trkpt>
<trkpt lat="53.244309" lon="-2.004983"><ele>462</ele><time>2020-08-19T11:01:30Z</time><name>PT3499</name></trkpt>
<trkpt lat="53.244309" lon="-2.004973"><ele>462</ele><time>2020-08-19T11:01:31Z</time><name>PT3500</name></trkpt>
<trkpt lat="53.244310" lon="-2.004963"><ele>463</ele><time>2020-08-19T11:01:32Z</time><name>PT3501</name></trkpt>
<trkpt lat="53.244312" lon="-2.004955"><ele>463</ele><time>2020-08-19T11:01:33Z</time><name>PT3502</name></trkpt>
<trkpt lat="53.244312" lon="-2.004946"><ele>463</ele><time>2020-08-19T11:01:34Z</time><name>PT3503</name></trkpt>
<trkpt lat="53.244312" lon="-2.004938"><ele>464</ele><time>2020-08-19T11:01:35Z</time><name>PT3504</name></trkpt>
<trkpt lat="53.244311" lon="-2.004928"><ele>464</ele><time>2020-08-19T11:01:36Z</time><name>PT3505</name></trkpt>
<trkpt lat="53.244311" lon="-2.004922"><ele>464</ele><time>2020-08-19T11:01:37Z</time><name>PT3506</name></trkpt>
<trkpt lat="53.244314" lon="-2.004915"><ele>464</ele><time>2020-08-19T11:01:37Z</time><name>PT3507</name></trkpt>
<trkpt lat="53.244314" lon="-2.004907"><ele>464</ele><time>2020-08-19T11:01:39Z</time><name>PT3508</name></trkpt>
<trkpt lat="53.244313" lon="-2.004894"><ele>464</ele><time>2020-08-19T11:01:40Z</time><name>PT3509</name></trkpt>
<trkpt lat="53.244314" lon="-2.004880"><ele>464</ele><time>2020-08-19T11:01:41Z</time><name>PT3510</name></trkpt>
<trkpt lat="53.244314" lon="-2.004867"><ele>464</ele><time>2020-08-19T11:01:42Z</time><name>PT3511</name></trkpt>
<trkpt lat="53.244312" lon="-2.004854"><ele>464</ele><time>2020-08-19T11:01:43Z</time><name>PT3512</name></trkpt>
<trkpt lat="53.244311" lon="-2.004846"><ele>464</ele><time>2020-08-19T11:01:44Z</time><name>PT3513</name></trkpt>
<trkpt lat="53.244311" lon="-2.004834"><ele>464</ele><time>2020-08-19T11:01:45Z</time><name>PT3514</name></trkpt>
<trkpt lat="53.244313" lon="-2.004824"><ele>464</ele><time>2020-08-19T11:01:46Z</time><name>PT3515</name></trkpt>
<trkpt lat="53.244312" lon="-2.004815"><ele>465</ele><time>2020-08-19T11:01:47Z</time><name>PT3516</name></trkpt>
<trkpt lat="53.244314" lon="-2.004808"><ele>465</ele><time>2020-08-19T11:01:48Z</time><name>PT3517</name></trkpt>
<trkpt lat="53.244315" lon="-2.004801"><ele>465</ele><time>2020-08-19T11:01:49Z</time><name>PT3518</name></trkpt>
<trkpt lat="53.244317" lon="-2.004790"><ele>465</ele><time>2020-08-19T11:01:50Z</time><name>PT3519</name></trkpt>
<trkpt lat="53.244318" lon="-2.004776"><ele>466</ele><time>2020-08-19T11:01:51Z</time><name>PT3520</name></trkpt>
<trkpt lat="53.244319" lon="-2.004764"><ele>466</ele><time>2020-08-19T11:01:52Z</time><name>PT3521</name></trkpt>
<trkpt lat="53.244319" lon="-2.004751"><ele>466</ele><time>2020-08-19T11:01:53Z</time><name>PT3522</name></trkpt>
<trkpt lat="53.244320" lon="-2.004743"><ele>467</ele><time>2020-08-19T11:01:54Z</time><name>PT3523</name></trkpt>
<trkpt lat="53.244322" lon="-2.004735"><ele>467</ele><time>2020-08-19T11:01:55Z</time><name>PT3524</name></trkpt>
<trkpt lat="53.244324" lon="-2.004726"><ele>467</ele><time>2020-08-19T11:01:56Z</time><name>PT3525</name></trkpt>
<trkpt lat="53.244327" lon="-2.004721"><ele>467</ele><time>2020-08-19T11:01:57Z</time><name>PT3526</name></trkpt>
<trkpt lat="53.244327" lon="-2.004712"><ele>468</ele><time>2020-08-19T11:01:58Z</time><name>PT3527</name></trkpt>
<trkpt lat="53.244327" lon="-2.004702"><ele>468</ele><time>2020-08-19T11:01:59Z</time><name>PT3528</name></trkpt>
<trkpt lat="53.244331" lon="-2.004695"><ele>468</ele><time>2020-08-19T11:02:00Z</time><name>PT3529</name></trkpt>
<trkpt lat="53.244330" lon="-2.004684"><ele>469</ele><time>2020-08-19T11:02:01Z</time><name>PT3530</name></trkpt>
<trkpt lat="53.244331" lon="-2.004674"><ele>469</ele><time>2020-08-19T11:02:02Z</time><name>PT3531</name></trkpt>
<trkpt lat="53.244331" lon="-2.004664"><ele>469</ele><time>2020-08-19T11:02:03Z</time><name>PT3532</name></trkpt>
<trkpt lat="53.244334" lon="-2.004655"><ele>469</ele><time>2020-08-19T11:02:04Z</time><name>PT3533</name></trkpt>
<trkpt lat="53.244331" lon="-2.004643"><ele>468</ele><time>2020-08-19T11:02:05Z</time><name>PT3534</name></trkpt>
<trkpt lat="53.244330" lon="-2.004632"><ele>468</ele><time>2020-08-19T11:02:06Z</time><name>PT3535</name></trkpt>
<trkpt lat="53.244330" lon="-2.004624"><ele>469</ele><time>2020-08-19T11:02:07Z</time><name>PT3536</name></trkpt>
<trkpt lat="53.244331" lon="-2.004617"><ele>468</ele><time>2020-08-19T11:02:08Z</time><name>PT3537</name></trkpt>
<trkpt lat="53.244332" lon="-2.004610"><ele>468</ele><time>2020-08-19T11:02:09Z</time><name>PT3538</name></trkpt>
<trkpt lat="53.244332" lon="-2.004607"><ele>468</ele><time>2020-08-19T11:02:11Z</time><name>PT3539</name></trkpt>
<trkpt lat="53.244336" lon="-2.004591"><ele>468</ele><time>2020-08-19T11:02:12Z</time><name>PT3540</name></trkpt>
<trkpt lat="53.244333" lon="-2.004547"><ele>469</ele><time>2020-08-19T11:02:16Z</time><name>PT3541</name></trkpt>
<trkpt lat="53.244333" lon="-2.004499"><ele>470</ele><time>2020-08-19T11:02:20Z</time><name>PT3542</name></trkpt>
<trkpt lat="53.244332" lon="-2.004459"><ele>471</ele><time>2020-08-19T11:02:23Z</time><name>PT3543</name></trkpt>
<trkpt lat="53.244338" lon="-2.004427"><ele>471</ele><time>2020-08-19T11:02:26Z</time><name>PT3544</name></trkpt>
<trkpt lat="53.244340" lon="-2.004392"><ele>472</ele><time>2020-08-19T11:02:29Z</time><name>PT3545</name></trkpt>
<trkpt lat="53.244344" lon="-2.004357"><ele>473</ele><time>2020-08-19T11:02:33Z</time><name>PT3546</name></trkpt>
<trkpt lat="53.244344" lon="-2.004325"><ele>473</ele><time>2020-08-19T11:02:36Z</time><name>PT3547</name></trkpt>
<trkpt lat="53.244351" lon="-2.004285"><ele>473</ele><time>2020-08-19T11:02:40Z</time><name>PT3548</name></trkpt>
<trkpt lat="53.244355" lon="-2.004251"><ele>474</ele><time>2020-08-19T11:02:43Z</time><name>PT3549</name></trkpt>
<trkpt lat="53.244356" lon="-2.004209"><ele>475</ele><time>2020-08-19T11:02:46Z</time><name>PT3550</name></trkpt>
<trkpt lat="53.244359" lon="-2.004167"><ele>475</ele><time>2020-08-19T11:02:50Z</time><name>PT3551</name></trkpt>
<trkpt lat="53.244367" lon="-2.004134"><ele>476</ele><time>2020-08-19T11:02:54Z</time><name>PT3552</name></trkpt>
<trkpt lat="53.244365" lon="-2.004089"><ele>475</ele><time>2020-08-19T11:02:58Z</time><name>PT3553</name></trkpt>
<trkpt lat="53.244369" lon="-2.004064"><ele>475</ele><time>2020-08-19T11:03:01Z</time><name>PT3554</name></trkpt>
<trkpt lat="53.244366" lon="-2.004040"><ele>476</ele><time>2020-08-19T11:03:04Z</time><name>PT3555</name></trkpt>
<trkpt lat="53.244363" lon="-2.004011"><ele>476</ele><time>2020-08-19T11:03:08Z</time><name>PT3556</name></trkpt>
<trkpt lat="53.244373" lon="-2.003987"><ele>477</ele><time>2020-08-19T11:03:12Z</time><name>PT3557</name></trkpt>
<trkpt lat="53.244385" lon="-2.003972"><ele>478</ele><time>2020-08-19T11:03:15Z</time><name>PT3558</name></trkpt>
<trkpt lat="53.244394" lon="-2.003956"><ele>479</ele><time>2020-08-19T11:03:18Z</time><name>PT3559</name></trkpt>
<trkpt lat="53.244401" lon="-2.003935"><ele>480</ele><time>2020-08-19T11:03:22Z</time><name>PT3560</name></trkpt>
<trkpt lat="53.244405" lon="-2.003916"><ele>479</ele><time>2020-08-19T11:03:25Z</time><name>PT3561</name></trkpt>
<trkpt lat="53.244413" lon="-2.003872"><ele>479</ele><time>2020-08-19T11:03:29Z</time><name>PT3562</name></trkpt>
<trkpt lat="53.244425" lon="-2.003833"><ele>479</ele><time>2020-08-19T11:03:33Z</time><name>PT3563</name></trkpt>
<trkpt lat="53.244431" lon="-2.003788"><ele>479</ele><time>2020-08-19T11:03:37Z</time><name>PT3564</name></trkpt>
<trkpt lat="53.244435" lon="-2.003746"><ele>480</ele><time>2020-08-19T11:03:40Z</time><name>PT3565</name></trkpt>
<trkpt lat="53.244458" lon="-2.003708"><ele>481</ele><time>2020-08-19T11:03:44Z</time><name>PT3566</name></trkpt>
<trkpt lat="53.244486" lon="-2.003693"><ele>481</ele><time>2020-08-19T11:03:48Z</time><name>PT3567</name></trkpt>
<trkpt lat="53.244505" lon="-2.003695"><ele>482</ele><time>2020-08-19T11:03:51Z</time><name>PT3568</name></trkpt>
<trkpt lat="53.244522" lon="-2.003686"><ele>482</ele><time>2020-08-19T11:03:54Z</time><name>PT3569</name></trkpt>
<trkpt lat="53.244537" lon="-2.003641"><ele>483</ele><time>2020-08-19T11:03:58Z</time><name>PT3570</name></trkpt>
<trkpt lat="53.244543" lon="-2.003607"><ele>484</ele><time>2020-08-19T11:04:02Z</time><name>PT3571</name></trkpt>
<trkpt lat="53.244555" lon="-2.003568"><ele>485</ele><time>2020-08-19T11:04:06Z</time><name>PT3572</name></trkpt>
<trkpt lat="53.244575" lon="-2.003536"><ele>486</ele><time>2020-08-19T11:04:09Z</time><name>PT3573</name></trkpt>
<trkpt lat="53.244591" lon="-2.003472"><ele>486</ele><time>2020-08-19T11:04:13Z</time><name>PT3574</name></trkpt>
<trkpt lat="53.244589" lon="-2.003419"><ele>486</ele><time>2020-08-19T11:04:16Z</time><name>PT3575</name></trkpt>
<trkpt lat="53.244591" lon="-2.003379"><ele>486</ele><time>2020-08-19T11:04:19Z</time><name>PT3576</name></trkpt>
<trkpt lat="53.244595" lon="-2.003332"><ele>486</ele><time>2020-08-19T11:04:23Z</time><name>PT3577</name></trkpt>
<trkpt lat="53.244601" lon="-2.003294"><ele>485</ele><time>2020-08-19T11:04:26Z</time><name>PT3578</name></trkpt>
<trkpt lat="53.244602" lon="-2.003253"><ele>486</ele><time>2020-08-19T11:04:29Z</time><name>PT3579</name></trkpt>
<trkpt lat="53.244604" lon="-2.003242"><ele>485</ele><time>2020-08-19T11:04:33Z</time><name>PT3580</name></trkpt>
<trkpt lat="53.244597" lon="-2.003209"><ele>485</ele><time>2020-08-19T11:04:37Z</time><name>PT3581</name></trkpt>
<trkpt lat="53.244588" lon="-2.003160"><ele>485</ele><time>2020-08-19T11:04:41Z</time><name>PT3582</name></trkpt>
<trkpt lat="53.244577" lon="-2.003105"><ele>486</ele><time>2020-08-19T11:04:45Z</time><name>PT3583</name></trkpt>
<trkpt lat="53.244568" lon="-2.003065"><ele>486</ele><time>2020-08-19T11:04:49Z</time><name>PT3584</name></trkpt>
<trkpt lat="53.244561" lon="-2.003022"><ele>487</ele><time>2020-08-19T11:04:53Z</time><name>PT3585</name></trkpt>
<trkpt lat="53.244559" lon="-2.002985"><ele>487</ele><time>2020-08-19T11:04:56Z</time><name>PT3586</name></trkpt>
<trkpt lat="53.244558" lon="-2.002936"><ele>487</ele><time>2020-08-19T11:05:00Z</time><name>PT3587</name></trkpt>
<trkpt lat="53.244555" lon="-2.002901"><ele>488</ele><time>2020-08-19T11:05:03Z</time><name>PT3588</name></trkpt>
<trkpt lat="53.244549" lon="-2.002864"><ele>488</ele><time>2020-08-19T11:05:06Z</time><name>PT3589</name></trkpt>
<trkpt lat="53.244550" lon="-2.002830"><ele>488</ele><time>2020-08-19T11:05:09Z</time><name>PT3590</name></trkpt>
<trkpt lat="53.244556" lon="-2.002792"><ele>490</ele><time>2020-08-19T11:05:13Z</time><name>PT3591</name></trkpt>
<trkpt lat="53.244560" lon="-2.002764"><ele>491</ele><time>2020-08-19T11:05:16Z</time><name>PT3592</name></trkpt>
<trkpt lat="53.244570" lon="-2.002716"><ele>491</ele><time>2020-08-19T11:05:20Z</time><name>PT3593</name></trkpt>
<trkpt lat="53.244572" lon="-2.002672"><ele>492</ele><time>2020-08-19T11:05:23Z</time><name>PT3594</name></trkpt>
<trkpt lat="53.244574" lon="-2.002614"><ele>491</ele><time>2020-08-19T11:05:27Z</time><name>PT3595</name></trkpt>
<trkpt lat="53.244583" lon="-2.002567"><ele>492</ele><time>2020-08-19T11:05:30Z</time><name>PT3596</name></trkpt>
<trkpt lat="53.244596" lon="-2.002505"><ele>492</ele><time>2020-08-19T11:05:34Z</time><name>PT3597</name></trkpt>
<trkpt lat="53.244620" lon="-2.002439"><ele>492</ele><time>2020-08-19T11:05:38Z</time><name>PT3598</name></trkpt>
<trkpt lat="53.244639" lon="-2.002392"><ele>492</ele><time>2020-08-19T11:05:42Z</time><name>PT3599</name></trkpt>
<trkpt lat="53.244656" lon="-2.002352"><ele>493</ele><time>2020-08-19T11:05:46Z</time><name>PT3600</name></trkpt>
<trkpt lat="53.244675" lon="-2.002310"><ele>493</ele><time>2020-08-19T11:05:49Z</time><name>PT3601</name></trkpt>
<trkpt lat="53.244705" lon="-2.002268"><ele>494</ele><time>2020-08-19T11:05:53Z</time><name>PT3602</name></trkpt>
<trkpt lat="53.244739" lon="-2.002225"><ele>495</ele><time>2020-08-19T11:05:57Z</time><name>PT3603</name></trkpt>
<trkpt lat="53.244772" lon="-2.002200"><ele>496</ele><time>2020-08-19T11:06:00Z</time><name>PT3604</name></trkpt>
<trkpt lat="53.244810" lon="-2.002163"><ele>497</ele><time>2020-08-19T11:06:04Z</time><name>PT3605</name></trkpt>
<trkpt lat="53.244838" lon="-2.002136"><ele>498</ele><time>2020-08-19T11:06:07Z</time><name>PT3606</name></trkpt>
<trkpt lat="53.244870" lon="-2.002097"><ele>498</ele><time>2020-08-19T11:06:11Z</time><name>PT3607</name></trkpt>
<trkpt lat="53.244894" lon="-2.002065"><ele>498</ele><time>2020-08-19T11:06:14Z</time><name>PT3608</name></trkpt>
<trkpt lat="53.244918" lon="-2.002034"><ele>498</ele><time>2020-08-19T11:06:17Z</time><name>PT3609</name></trkpt>
<trkpt lat="53.244945" lon="-2.001994"><ele>497</ele><time>2020-08-19T11:06:21Z</time><name>PT3610</name></trkpt>
<trkpt lat="53.244963" lon="-2.001963"><ele>497</ele><time>2020-08-19T11:06:24Z</time><name>PT3611</name></trkpt>
<trkpt lat="53.244985" lon="-2.001920"><ele>497</ele><time>2020-08-19T11:06:28Z</time><name>PT3612</name></trkpt>
<trkpt lat="53.245003" lon="-2.001878"><ele>497</ele><time>2020-08-19T11:06:32Z</time><name>PT3613</name></trkpt>
<trkpt lat="53.245033" lon="-2.001830"><ele>498</ele><time>2020-08-19T11:06:36Z</time><name>PT3614</name></trkpt>
<trkpt lat="53.245054" lon="-2.001798"><ele>498</ele><time>2020-08-19T11:06:39Z</time><name>PT3615</name></trkpt>
<trkpt lat="53.245075" lon="-2.001764"><ele>499</ele><time>2020-08-19T11:06:42Z</time><name>PT3616</name></trkpt>
<trkpt lat="53.245100" lon="-2.001712"><ele>499</ele><time>2020-08-19T11:06:46Z</time><name>PT3617</name></trkpt>
<trkpt lat="53.245119" lon="-2.001665"><ele>500</ele><time>2020-08-19T11:06:50Z</time><name>PT3618</name></trkpt>
<trkpt lat="53.245137" lon="-2.001610"><ele>500</ele><time>2020-08-19T11:06:54Z</time><name>PT3619</name></trkpt>
<trkpt lat="53.245153" lon="-2.001551"><ele>499</ele><time>2020-08-19T11:06:58Z</time><name>PT3620</name></trkpt>
<trkpt lat="53.245170" lon="-2.001497"><ele>499</ele><time>2020-08-19T11:07:02Z</time><name>PT3621</name></trkpt>
<trkpt lat="53.245191" lon="-2.001444"><ele>499</ele><time>2020-08-19T11:07:06Z</time><name>PT3622</name></trkpt>
<trkpt lat="53.245207" lon="-2.001404"><ele>500</ele><time>2020-08-19T11:07:09Z</time><name>PT3623</name></trkpt>
<trkpt lat="53.245222" lon="-2.001355"><ele>501</ele><time>2020-08-19T11:07:13Z</time><name>PT3624</name></trkpt>
<trkpt lat="53.245248" lon="-2.001301"><ele>502</ele><time>2020-08-19T11:07:17Z</time><name>PT3625</name></trkpt>
<trkpt lat="53.245266" lon="-2.001262"><ele>502</ele><time>2020-08-19T11:07:20Z</time><name>PT3626</name></trkpt>
<trkpt lat="53.245289" lon="-2.001209"><ele>502</ele><time>2020-08-19T11:07:24Z</time><name>PT3627</name></trkpt>
<trkpt lat="53.245308" lon="-2.001169"><ele>502</ele><time>2020-08-19T11:07:27Z</time><name>PT3628</name></trkpt>
<trkpt lat="53.245333" lon="-2.001127"><ele>503</ele><time>2020-08-19T11:07:31Z</time><name>PT3629</name></trkpt>
<trkpt lat="53.245349" lon="-2.001086"><ele>503</ele><time>2020-08-19T11:07:34Z</time><name>PT3630</name></trkpt>
<trkpt lat="53.245375" lon="-2.001039"><ele>503</ele><time>2020-08-19T11:07:38Z</time><name>PT3631</name></trkpt>
<trkpt lat="53.245393" lon="-2.001002"><ele>502</ele><time>2020-08-19T11:07:42Z</time><name>PT3632</name></trkpt>
<trkpt lat="53.245406" lon="-2.000965"><ele>503</ele><time>2020-08-19T11:07:45Z</time><name>PT3633</name></trkpt>
<trkpt lat="53.245419" lon="-2.000924"><ele>503</ele><time>2020-08-19T11:07:49Z</time><name>PT3634</name></trkpt>
<trkpt lat="53.245421" lon="-2.000883"><ele>503</ele><time>2020-08-19T11:07:53Z</time><name>PT3635</name></trkpt>
<trkpt lat="53.245426" lon="-2.000857"><ele>504</ele><time>2020-08-19T11:07:57Z</time><name>PT3636</name></trkpt>
<trkpt lat="53.245439" lon="-2.000844"><ele>504</ele><time>2020-08-19T11:08:00Z</time><name>PT3637</name></trkpt>
<trkpt lat="53.245445" lon="-2.000839"><ele>506</ele><time>2020-08-19T11:08:04Z</time><name>PT3638</name></trkpt>
<trkpt lat="53.245451" lon="-2.000842"><ele>507</ele><time>2020-08-19T11:08:07Z</time><name>PT3639</name></trkpt>
<trkpt lat="53.245451" lon="-2.000835"><ele>508</ele><time>2020-08-19T11:08:11Z</time><name>PT3640</name></trkpt>
<trkpt lat="53.245450" lon="-2.000787"><ele>509</ele><time>2020-08-19T11:08:15Z</time><name>PT3641</name></trkpt>
<trkpt lat="53.245454" lon="-2.000757"><ele>509</ele><time>2020-08-19T11:08:18Z</time><name>PT3642</name></trkpt>
<trkpt lat="53.245481" lon="-2.000717"><ele>510</ele><time>2020-08-19T11:08:22Z</time><name>PT3643</name></trkpt>
<trkpt lat="53.245503" lon="-2.000664"><ele>510</ele><time>2020-08-19T11:08:26Z</time><name>PT3644</name></trkpt>
<trkpt lat="53.245515" lon="-2.000627"><ele>510</ele><time>2020-08-19T11:08:30Z</time><name>PT3645</name></trkpt>
<trkpt lat="53.245518" lon="-2.000618"><ele>510</ele><time>2020-08-19T11:08:33Z</time><name>PT3646</name></trkpt>
<trkpt lat="53.245506" lon="-2.000605"><ele>510</ele><time>2020-08-19T11:08:37Z</time><name>PT3647</name></trkpt>
<trkpt lat="53.245478" lon="-2.000589"><ele>511</ele><time>2020-08-19T11:08:41Z</time><name>PT3648</name></trkpt>
<trkpt lat="53.245435" lon="-2.000573"><ele>511</ele><time>2020-08-19T11:08:45Z</time><name>PT3649</name></trkpt>
<trkpt lat="53.245391" lon="-2.000564"><ele>511</ele><time>2020-08-19T11:08:49Z</time><name>PT3650</name></trkpt>
<trkpt lat="53.245361" lon="-2.000540"><ele>511</ele><time>2020-08-19T11:08:52Z</time><name>PT3651</name></trkpt>
<trkpt lat="53.245331" lon="-2.000530"><ele>512</ele><time>2020-08-19T11:08:55Z</time><name>PT3652</name></trkpt>
<trkpt lat="53.245303" lon="-2.000520"><ele>513</ele><time>2020-08-19T11:08:58Z</time><name>PT3653</name></trkpt>
<trkpt lat="53.245262" lon="-2.000503"><ele>513</ele><time>2020-08-19T11:09:02Z</time><name>PT3654</name></trkpt>
<trkpt lat="53.245237" lon="-2.000497"><ele>513</ele><time>2020-08-19T11:09:05Z</time><name>PT3655</name></trkpt>
<trkpt lat="53.245205" lon="-2.000496"><ele>514</ele><time>2020-08-19T11:09:08Z</time><name>PT3656</name></trkpt>
<trkpt lat="53.245176" lon="-2.000486"><ele>514</ele><time>2020-08-19T11:09:11Z</time><name>PT3657</name></trkpt>
<trkpt lat="53.245135" lon="-2.000468"><ele>513</ele><time>2020-08-19T11:09:15Z</time><name>PT3658</name></trkpt>
<trkpt lat="53.245097" lon="-2.000455"><ele>513</ele><time>2020-08-19T11:09:18Z</time><name>PT3659</name></trkpt>
<trkpt lat="53.245058" lon="-2.000448"><ele>513</ele><time>2020-08-19T11:09:21Z</time><name>PT3660</name></trkpt>
<trkpt lat="53.245009" lon="-2.000417"><ele>514</ele><time>2020-08-19T11:09:25Z</time><name>PT3661</name></trkpt>
<trkpt lat="53.244959" lon="-2.000398"><ele>514</ele><time>2020-08-19T11:09:29Z</time><name>PT3662</name></trkpt>
<trkpt lat="53.244928" lon="-2.000376"><ele>514</ele><time>2020-08-19T11:09:32Z</time><name>PT3663</name></trkpt>
<trkpt lat="53.244879" lon="-2.000353"><ele>515</ele><time>2020-08-19T11:09:36Z</time><name>PT3664</name></trkpt>
<trkpt lat="53.244846" lon="-2.000334"><ele>515</ele><time>2020-08-19T11:09:39Z</time><name>PT3665</name></trkpt>
<trkpt lat="53.244812" lon="-2.000325"><ele>515</ele><time>2020-08-19T11:09:42Z</time><name>PT3666</name></trkpt>
<trkpt lat="53.244767" lon="-2.000288"><ele>514</ele><time>2020-08-19T11:09:46Z</time><name>PT3667</name></trkpt>
<trkpt lat="53.244729" lon="-2.000263"><ele>513</ele><time>2020-08-19T11:09:50Z</time><name>PT3668</name></trkpt>
<trkpt lat="53.244686" lon="-2.000237"><ele>513</ele><time>2020-08-19T11:09:54Z</time><name>PT3669</name></trkpt>
<trkpt lat="53.244650" lon="-2.000226"><ele>513</ele><time>2020-08-19T11:09:57Z</time><name>PT3670</name></trkpt>
<trkpt lat="53.244624" lon="-2.000206"><ele>513</ele><time>2020-08-19T11:10:00Z</time><name>PT3671</name></trkpt>
<trkpt lat="53.244584" lon="-2.000181"><ele>513</ele><time>2020-08-19T11:10:04Z</time><name>PT3672</name></trkpt>
<trkpt lat="53.244543" lon="-2.000154"><ele>513</ele><time>2020-08-19T11:10:08Z</time><name>PT3673</name></trkpt>
<trkpt lat="53.244512" lon="-2.000143"><ele>512</ele><time>2020-08-19T11:10:11Z</time><name>PT3674</name></trkpt>
<trkpt lat="53.244479" lon="-2.000125"><ele>512</ele><time>2020-08-19T11:10:14Z</time><name>PT3675</name></trkpt>
<trkpt lat="53.244445" lon="-2.000076"><ele>513</ele><time>2020-08-19T11:10:18Z</time><name>PT3676</name></trkpt>
<trkpt lat="53.244421" lon="-2.000072"><ele>513</ele><time>2020-08-19T11:10:21Z</time><name>PT3677</name></trkpt>
<trkpt lat="53.244389" lon="-2.000048"><ele>514</ele><time>2020-08-19T11:10:24Z</time><name>PT3678</name></trkpt>
<trkpt lat="53.244340" lon="-2.000029"><ele>514</ele><time>2020-08-19T11:10:28Z</time><name>PT3679</name></trkpt>
<trkpt lat="53.244302" lon="-2.000004"><ele>514</ele><time>2020-08-19T11:10:32Z</time><name>PT3680</name></trkpt>
<trkpt lat="53.244281" lon="-1.999986"><ele>515</ele><time>2020-08-19T11:10:36Z</time><name>PT3681</name></trkpt>
<trkpt lat="53.244258" lon="-1.999969"><ele>515</ele><time>2020-08-19T11:10:39Z</time><name>PT3682</name></trkpt>
<trkpt lat="53.244229" lon="-1.999939"><ele>516</ele><time>2020-08-19T11:10:43Z</time><name>PT3683</name></trkpt>
<trkpt lat="53.244216" lon="-1.999924"><ele>516</ele><time>2020-08-19T11:10:47Z</time><name>PT3684</name></trkpt>
<trkpt lat="53.244207" lon="-1.999906"><ele>518</ele><time>2020-08-19T11:10:50Z</time><name>PT3685</name></trkpt>
<trkpt lat="53.244185" lon="-1.999883"><ele>518</ele><time>2020-08-19T11:10:54Z</time><name>PT3686</name></trkpt>
<trkpt lat="53.244181" lon="-1.999884"><ele>518</ele><time>2020-08-19T11:10:55Z</time><name>PT3687</name></trkpt>
<trkpt lat="53.244183" lon="-1.999870"><ele>518</ele><time>2020-08-19T11:11:06Z</time><name>PT3688</name></trkpt>
<trkpt lat="53.244181" lon="-1.999869"><ele>518</ele><time>2020-08-19T11:11:06Z</time><name>PT3689</name></trkpt>
<trkpt lat="53.244182" lon="-1.999866"><ele>518</ele><time>2020-08-19T11:11:08Z</time><name>PT3690</name></trkpt>
<trkpt lat="53.244184" lon="-1.999863"><ele>518</ele><time>2020-08-19T11:11:09Z</time><name>PT3691</name></trkpt>
<trkpt lat="53.244184" lon="-1.999861"><ele>517</ele><time>2020-08-19T11:11:09Z</time><name>PT3692</name></trkpt>
<trkpt lat="53.244183" lon="-1.999863"><ele>518</ele><time>2020-08-19T11:11:11Z</time><name>PT3693</name></trkpt>
<trkpt lat="53.244191" lon="-1.999868"><ele>517</ele><time>2020-08-19T11:11:13Z</time><name>PT3694</name></trkpt>
<trkpt lat="53.244192" lon="-1.999875"><ele>517</ele><time>2020-08-19T11:11:14Z</time><name>PT3695</name></trkpt>
<trkpt lat="53.244188" lon="-1.999879"><ele>518</ele><time>2020-08-19T11:11:16Z</time><name>PT3696</name></trkpt>
<trkpt lat="53.244188" lon="-1.999877"><ele>518</ele><time>2020-08-19T11:11:17Z</time><name>PT3697</name></trkpt>
<trkpt lat="53.244187" lon="-1.999880"><ele>518</ele><time>2020-08-19T11:11:20Z</time><name>PT3698</name></trkpt>
<trkpt lat="53.244185" lon="-1.999887"><ele>518</ele><time>2020-08-19T11:11:21Z</time><name>PT3699</name></trkpt>
<trkpt lat="53.244182" lon="-1.999890"><ele>518</ele><time>2020-08-19T11:11:21Z</time><name>PT3700</name></trkpt>
<trkpt lat="53.244181" lon="-1.999895"><ele>518</ele><time>2020-08-19T11:11:23Z</time><name>PT3701</name></trkpt>
<trkpt lat="53.244180" lon="-1.999894"><ele>518</ele><time>2020-08-19T11:11:24Z</time><name>PT3702</name></trkpt>
<trkpt lat="53.244180" lon="-1.999891"><ele>518</ele><time>2020-08-19T11:11:25Z</time><name>PT3703</name></trkpt>
<trkpt lat="53.244180" lon="-1.999890"><ele>518</ele><time>2020-08-19T11:11:26Z</time><name>PT3704</name></trkpt>
<trkpt lat="53.244178" lon="-1.999892"><ele>518</ele><time>2020-08-19T11:11:36Z</time><name>PT3705</name></trkpt>
<trkpt lat="53.244178" lon="-1.999892"><ele>518</ele><time>2020-08-19T11:11:38Z</time><name>PT3706</name></trkpt>
<trkpt lat="53.244180" lon="-1.999890"><ele>518</ele><time>2020-08-19T11:11:39Z</time><name>PT3707</name></trkpt>
<trkpt lat="53.244181" lon="-1.999878"><ele>518</ele><time>2020-08-19T11:11:56Z</time><name>PT3708</name></trkpt>
<trkpt lat="53.244183" lon="-1.999874"><ele>518</ele><time>2020-08-19T11:11:57Z</time><name>PT3709</name></trkpt>
<trkpt lat="53.244185" lon="-1.999871"><ele>518</ele><time>2020-08-19T11:11:58Z</time><name>PT3710</name></trkpt>
<trkpt lat="53.244187" lon="-1.999854"><ele>518</ele><time>2020-08-19T11:12:05Z</time><name>PT3711</name></trkpt>
<trkpt lat="53.244190" lon="-1.999845"><ele>518</ele><time>2020-08-19T11:12:06Z</time><name>PT3712</name></trkpt>
<trkpt lat="53.244190" lon="-1.999842"><ele>518</ele><time>2020-08-19T11:12:07Z</time><name>PT3713</name></trkpt>
<trkpt lat="53.244188" lon="-1.999837"><ele>517</ele><time>2020-08-19T11:12:08Z</time><name>PT3714</name></trkpt>
<trkpt lat="53.244188" lon="-1.999841"><ele>517</ele><time>2020-08-19T11:12:09Z</time><name>PT3715</name></trkpt>
<trkpt lat="53.244184" lon="-1.999851"><ele>517</ele><time>2020-08-19T11:12:10Z</time><name>PT3716</name></trkpt>
<trkpt lat="53.244186" lon="-1.999851"><ele>517</ele><time>2020-08-19T11:12:11Z</time><name>PT3717</name></trkpt>
<trkpt lat="53.244181" lon="-1.999856"><ele>517</ele><time>2020-08-19T11:12:17Z</time><name>PT3718</name></trkpt>
<trkpt lat="53.244169" lon="-1.999862"><ele>517</ele><time>2020-08-19T11:12:18Z</time><name>PT3719</name></trkpt>
<trkpt lat="53.244156" lon="-1.999871"><ele>517</ele><time>2020-08-19T11:12:19Z</time><name>PT3720</name></trkpt>
<trkpt lat="53.244143" lon="-1.999885"><ele>517</ele><time>2020-08-19T11:12:20Z</time><name>PT3721</name></trkpt>
<trkpt lat="53.244133" lon="-1.999903"><ele>517</ele><time>2020-08-19T11:12:21Z</time><name>PT3722</name></trkpt>
<trkpt lat="53.244118" lon="-1.999920"><ele>517</ele><time>2020-08-19T11:12:22Z</time><name>PT3723</name></trkpt>
<trkpt lat="53.244110" lon="-1.999935"><ele>517</ele><time>2020-08-19T11:12:23Z</time><name>PT3724</name></trkpt>
<trkpt lat="53.244094" lon="-1.999950"><ele>516</ele><time>2020-08-19T11:12:24Z</time><name>PT3725</name></trkpt>
<trkpt lat="53.244084" lon="-1.999970"><ele>517</ele><time>2020-08-19T11:12:25Z</time><name>PT3726</name></trkpt>
<trkpt lat="53.244075" lon="-1.999986"><ele>517</ele><time>2020-08-19T11:12:26Z</time><name>PT3727</name></trkpt>
<trkpt lat="53.244064" lon="-2.000002"><ele>517</ele><time>2020-08-19T11:12:27Z</time><name>PT3728</name></trkpt>
<trkpt lat="53.244053" lon="-2.000012"><ele>517</ele><time>2020-08-19T11:12:27Z</time><name>PT3729</name></trkpt>
<trkpt lat="53.244043" lon="-2.000019"><ele>516</ele><time>2020-08-19T11:12:29Z</time><name>PT3730</name></trkpt>
<trkpt lat="53.244034" lon="-2.000028"><ele>516</ele><time>2020-08-19T11:12:30Z</time><name>PT3731</name></trkpt>
<trkpt lat="53.244025" lon="-2.000040"><ele>517</ele><time>2020-08-19T11:12:31Z</time><name>PT3732</name></trkpt>
<trkpt lat="53.244017" lon="-2.000051"><ele>517</ele><time>2020-08-19T11:12:32Z</time><name>PT3733</name></trkpt>
<trkpt lat="53.244007" lon="-2.000059"><ele>517</ele><time>2020-08-19T11:12:33Z</time><name>PT3734</name></trkpt>
<trkpt lat="53.244001" lon="-2.000066"><ele>516</ele><time>2020-08-19T11:12:34Z</time><name>PT3735</name></trkpt>
<trkpt lat="53.243996" lon="-2.000069"><ele>516</ele><time>2020-08-19T11:12:35Z</time><name>PT3736</name></trkpt>
<trkpt lat="53.243992" lon="-2.000074"><ele>516</ele><time>2020-08-19T11:12:36Z</time><name>PT3737</name></trkpt>
<trkpt lat="53.243984" lon="-2.000070"><ele>516</ele><time>2020-08-19T11:12:39Z</time><name>PT3738</name></trkpt>
<trkpt lat="53.243977" lon="-2.000072"><ele>515</ele><time>2020-08-19T11:12:40Z</time><name>PT3739</name></trkpt>
<trkpt lat="53.243968" lon="-2.000080"><ele>515</ele><time>2020-08-19T11:12:41Z</time><name>PT3740</name></trkpt>
<trkpt lat="53.243957" lon="-2.000093"><ele>515</ele><time>2020-08-19T11:12:42Z</time><name>PT3741</name></trkpt>
<trkpt lat="53.243947" lon="-2.000105"><ele>515</ele><time>2020-08-19T11:12:43Z</time><name>PT3742</name></trkpt>
<trkpt lat="53.243937" lon="-2.000118"><ele>515</ele><time>2020-08-19T11:12:44Z</time><name>PT3743</name></trkpt>
<trkpt lat="53.243929" lon="-2.000130"><ele>515</ele><time>2020-08-19T11:12:45Z</time><name>PT3744</name></trkpt>
<trkpt lat="53.243918" lon="-2.000139"><ele>514</ele><time>2020-08-19T11:12:46Z</time><name>PT3745</name></trkpt>
<trkpt lat="53.243906" lon="-2.000146"><ele>514</ele><time>2020-08-19T11:12:47Z</time><name>PT3746</name></trkpt>
<trkpt lat="53.243895" lon="-2.000152"><ele>514</ele><time>2020-08-19T11:12:48Z</time><name>PT3747</name></trkpt>
<trkpt lat="53.243883" lon="-2.000155"><ele>514</ele><time>2020-08-19T11:12:49Z</time><name>PT3748</name></trkpt>
<trkpt lat="53.243875" lon="-2.000164"><ele>513</ele><time>2020-08-19T11:12:50Z</time><name>PT3749</name></trkpt>
<trkpt lat="53.243865" lon="-2.000167"><ele>513</ele><time>2020-08-19T11:12:51Z</time><name>PT3750</name></trkpt>
<trkpt lat="53.243855" lon="-2.000171"><ele>513</ele><time>2020-08-19T11:12:52Z</time><name>PT3751</name></trkpt>
<trkpt lat="53.243846" lon="-2.000174"><ele>512</ele><time>2020-08-19T11:12:53Z</time><name>PT3752</name></trkpt>
<trkpt lat="53.243834" lon="-2.000179"><ele>512</ele><time>2020-08-19T11:12:54Z</time><name>PT3753</name></trkpt>
<trkpt lat="53.243826" lon="-2.000181"><ele>512</ele><time>2020-08-19T11:12:55Z</time><name>PT3754</name></trkpt>
<trkpt lat="53.243813" lon="-2.000181"><ele>513</ele><time>2020-08-19T11:12:56Z</time><name>PT3755</name></trkpt>
<trkpt lat="53.243803" lon="-2.000184"><ele>513</ele><time>2020-08-19T11:12:57Z</time><name>PT3756</name></trkpt>
<trkpt lat="53.243792" lon="-2.000185"><ele>512</ele><time>2020-08-19T11:12:58Z</time><name>PT3757</name></trkpt>
<trkpt lat="53.243784" lon="-2.000192"><ele>512</ele><time>2020-08-19T11:12:59Z</time><name>PT3758</name></trkpt>
<trkpt lat="53.243774" lon="-2.000194"><ele>513</ele><time>2020-08-19T11:13:00Z</time><name>PT3759</name></trkpt>
<trkpt lat="53.243763" lon="-2.000200"><ele>512</ele><time>2020-08-19T11:13:01Z</time><name>PT3760</name></trkpt>
<trkpt lat="53.243751" lon="-2.000207"><ele>513</ele><time>2020-08-19T11:13:02Z</time><name>PT3761</name></trkpt>
<trkpt lat="53.243739" lon="-2.000214"><ele>512</ele><time>2020-08-19T11:13:03Z</time><name>PT3762</name></trkpt>
<trkpt lat="53.243729" lon="-2.000219"><ele>512</ele><time>2020-08-19T11:13:04Z</time><name>PT3763</name></trkpt>
<trkpt lat="53.243720" lon="-2.000222"><ele>512</ele><time>2020-08-19T11:13:05Z</time><name>PT3764</name></trkpt>
<trkpt lat="53.243707" lon="-2.000228"><ele>513</ele><time>2020-08-19T11:13:06Z</time><name>PT3765</name></trkpt>
<trkpt lat="53.243695" lon="-2.000236"><ele>513</ele><time>2020-08-19T11:13:07Z</time><name>PT3766</name></trkpt>
<trkpt lat="53.243687" lon="-2.000242"><ele>512</ele><time>2020-08-19T11:13:08Z</time><name>PT3767</name></trkpt>
<trkpt lat="53.243677" lon="-2.000250"><ele>513</ele><time>2020-08-19T11:13:09Z</time><name>PT3768</name></trkpt>
<trkpt lat="53.243666" lon="-2.000255"><ele>513</ele><time>2020-08-19T11:13:10Z</time><name>PT3769</name></trkpt>
<trkpt lat="53.243653" lon="-2.000265"><ele>513</ele><time>2020-08-19T11:13:11Z</time><name>PT3770</name></trkpt>
<trkpt lat="53.243639" lon="-2.000268"><ele>513</ele><time>2020-08-19T11:13:12Z</time><name>PT3771</name></trkpt>
<trkpt lat="53.243623" lon="-2.000270"><ele>514</ele><time>2020-08-19T11:13:13Z</time><name>PT3772</name></trkpt>
<trkpt lat="53.243610" lon="-2.000275"><ele>514</ele><time>2020-08-19T11:13:14Z</time><name>PT3773</name></trkpt>
<trkpt lat="53.243597" lon="-2.000281"><ele>514</ele><time>2020-08-19T11:13:15Z</time><name>PT3774</name></trkpt>
<trkpt lat="53.243584" lon="-2.000288"><ele>514</ele><time>2020-08-19T11:13:16Z</time><name>PT3775</name></trkpt>
<trkpt lat="53.243570" lon="-2.000292"><ele>513</ele><time>2020-08-19T11:13:17Z</time><name>PT3776</name></trkpt>
<trkpt lat="53.243557" lon="-2.000292"><ele>514</ele><time>2020-08-19T11:13:18Z</time><name>PT3777</name></trkpt>
<trkpt lat="53.243543" lon="-2.000292"><ele>514</ele><time>2020-08-19T11:13:19Z</time><name>PT3778</name></trkpt>
<trkpt lat="53.243529" lon="-2.000295"><ele>514</ele><time>2020-08-19T11:13:20Z</time><name>PT3779</name></trkpt>
<trkpt lat="53.243516" lon="-2.000302"><ele>514</ele><time>2020-08-19T11:13:21Z</time><name>PT3780</name></trkpt>
<trkpt lat="53.243506" lon="-2.000308"><ele>514</ele><time>2020-08-19T11:13:22Z</time><name>PT3781</name></trkpt>
<trkpt lat="53.243494" lon="-2.000312"><ele>514</ele><time>2020-08-19T11:13:23Z</time><name>PT3782</name></trkpt>
<trkpt lat="53.243481" lon="-2.000321"><ele>514</ele><time>2020-08-19T11:13:24Z</time><name>PT3783</name></trkpt>
<trkpt lat="53.243469" lon="-2.000327"><ele>514</ele><time>2020-08-19T11:13:25Z</time><name>PT3784</name></trkpt>
<trkpt lat="53.243454" lon="-2.000332"><ele>514</ele><time>2020-08-19T11:13:26Z</time><name>PT3785</name></trkpt>
<trkpt lat="53.243440" lon="-2.000334"><ele>514</ele><time>2020-08-19T11:13:27Z</time><name>PT3786</name></trkpt>
<trkpt lat="53.243427" lon="-2.000338"><ele>515</ele><time>2020-08-19T11:13:28Z</time><name>PT3787</name></trkpt>
<trkpt lat="53.243412" lon="-2.000344"><ele>515</ele><time>2020-08-19T11:13:29Z</time><name>PT3788</name></trkpt>
<trkpt lat="53.243400" lon="-2.000351"><ele>515</ele><time>2020-08-19T11:13:30Z</time><name>PT3789</name></trkpt>
<trkpt lat="53.243386" lon="-2.000353"><ele>515</ele><time>2020-08-19T11:13:30Z</time><name>PT3790</name></trkpt>
<trkpt lat="53.243372" lon="-2.000356"><ele>515</ele><time>2020-08-19T11:13:32Z</time><name>PT3791</name></trkpt>
<trkpt lat="53.243359" lon="-2.000358"><ele>515</ele><time>2020-08-19T11:13:33Z</time><name>PT3792</name></trkpt>
<trkpt lat="53.243347" lon="-2.000365"><ele>516</ele><time>2020-08-19T11:13:33Z</time><name>PT3793</name></trkpt>
<trkpt lat="53.243334" lon="-2.000373"><ele>516</ele><time>2020-08-19T11:13:35Z</time><name>PT3794</name></trkpt>
<trkpt lat="53.243324" lon="-2.000381"><ele>516</ele><time>2020-08-19T11:13:36Z</time><name>PT3795</name></trkpt>
<trkpt lat="53.243311" lon="-2.000386"><ele>516</ele><time>2020-08-19T11:13:36Z</time><name>PT3796</name></trkpt>
<trkpt lat="53.243298" lon="-2.000389"><ele>516</ele><time>2020-08-19T11:13:38Z</time><name>PT3797</name></trkpt>
<trkpt lat="53.243287" lon="-2.000390"><ele>516</ele><time>2020-08-19T11:13:39Z</time><name>PT3798</name></trkpt>
<trkpt lat="53.243273" lon="-2.000392"><ele>516</ele><time>2020-08-19T11:13:39Z</time><name>PT3799</name></trkpt>
<trkpt lat="53.243261" lon="-2.000393"><ele>516</ele><time>2020-08-19T11:13:41Z</time><name>PT3800</name></trkpt>
<trkpt lat="53.243249" lon="-2.000393"><ele>517</ele><time>2020-08-19T11:13:42Z</time><name>PT3801</name></trkpt>
<trkpt lat="53.243234" lon="-2.000395"><ele>517</ele><time>2020-08-19T11:13:43Z</time><name>PT3802</name></trkpt>
<trkpt lat="53.243222" lon="-2.000395"><ele>517</ele><time>2020-08-19T11:13:44Z</time><name>PT3803</name></trkpt>
<trkpt lat="53.243210" lon="-2.000397"><ele>517</ele><time>2020-08-19T11:13:45Z</time><name>PT3804</name></trkpt>
<trkpt lat="53.243198" lon="-2.000403"><ele>517</ele><time>2020-08-19T11:13:46Z</time><name>PT3805</name></trkpt>
<trkpt lat="53.243190" lon="-2.000408"><ele>517</ele><time>2020-08-19T11:13:47Z</time><name>PT3806</name></trkpt>
<trkpt lat="53.243178" lon="-2.000415"><ele>517</ele><time>2020-08-19T11:13:48Z</time><name>PT3807</name></trkpt>
<trkpt lat="53.243163" lon="-2.000423"><ele>517</ele><time>2020-08-19T11:13:48Z</time><name>PT3808</name></trkpt>
<trkpt lat="53.243150" lon="-2.000429"><ele>517</ele><time>2020-08-19T11:13:50Z</time><name>PT3809</name></trkpt>
<trkpt lat="53.243138" lon="-2.000432"><ele>517</ele><time>2020-08-19T11:13:51Z</time><name>PT3810</name></trkpt>
<trkpt lat="53.243126" lon="-2.000435"><ele>517</ele><time>2020-08-19T11:13:52Z</time><name>PT3811</name></trkpt>
<trkpt lat="53.243114" lon="-2.000439"><ele>518</ele><time>2020-08-19T11:13:53Z</time><name>PT3812</name></trkpt>
<trkpt lat="53.243103" lon="-2.000444"><ele>517</ele><time>2020-08-19T11:13:54Z</time><name>PT3813</name></trkpt>
<trkpt lat="53.243090" lon="-2.000447"><ele>518</ele><time>2020-08-19T11:13:55Z</time><name>PT3814</name></trkpt>
<trkpt lat="53.243075" lon="-2.000449"><ele>517</ele><time>2020-08-19T11:13:56Z</time><name>PT3815</name></trkpt>
<trkpt lat="53.243038" lon="-2.000459"><ele>517</ele><time>2020-08-19T11:13:59Z</time><name>PT3816</name></trkpt>
<trkpt lat="53.242985" lon="-2.000460"><ele>516</ele><time>2020-08-19T11:14:03Z</time><name>PT3817</name></trkpt>
<trkpt lat="53.242946" lon="-2.000472"><ele>516</ele><time>2020-08-19T11:14:06Z</time><name>PT3818</name></trkpt>
<trkpt lat="53.242911" lon="-2.000479"><ele>516</ele><time>2020-08-19T11:14:09Z</time><name>PT3819</name></trkpt>
<trkpt lat="53.242872" lon="-2.000496"><ele>517</ele><time>2020-08-19T11:14:12Z</time><name>PT3820</name></trkpt>
<trkpt lat="53.242818" lon="-2.000510"><ele>518</ele><time>2020-08-19T11:14:16Z</time><name>PT3821</name></trkpt>
<trkpt lat="53.242769" lon="-2.000525"><ele>518</ele><time>2020-08-19T11:14:20Z</time><name>PT3822</name></trkpt>
<trkpt lat="53.242733" lon="-2.000533"><ele>518</ele><time>2020-08-19T11:14:23Z</time><name>PT3823</name></trkpt>
<trkpt lat="53.242682" lon="-2.000551"><ele>518</ele><time>2020-08-19T11:14:27Z</time><name>PT3824</name></trkpt>
<trkpt lat="53.242617" lon="-2.000568"><ele>519</ele><time>2020-08-19T11:14:30Z</time><name>PT3825</name></trkpt>
<trkpt lat="53.242576" lon="-2.000578"><ele>520</ele><time>2020-08-19T11:14:34Z</time><name>PT3826</name></trkpt>
<trkpt lat="53.242542" lon="-2.000587"><ele>519</ele><time>2020-08-19T11:14:37Z</time><name>PT3827</name></trkpt>
<trkpt lat="53.242504" lon="-2.000601"><ele>520</ele><time>2020-08-19T11:14:39Z</time><name>PT3828</name></trkpt>
<trkpt lat="53.242454" lon="-2.000617"><ele>520</ele><time>2020-08-19T11:14:44Z</time><name>PT3829</name></trkpt>
<trkpt lat="53.242414" lon="-2.000627"><ele>519</ele><time>2020-08-19T11:14:47Z</time><name>PT3830</name></trkpt>
<trkpt lat="53.242367" lon="-2.000640"><ele>518</ele><time>2020-08-19T11:14:51Z</time><name>PT3831</name></trkpt>
<trkpt lat="53.242321" lon="-2.000659"><ele>518</ele><time>2020-08-19T11:14:55Z</time><name>PT3832</name></trkpt>
<trkpt lat="53.242273" lon="-2.000678"><ele>518</ele><time>2020-08-19T11:14:59Z</time><name>PT3833</name></trkpt>
<trkpt lat="53.242233" lon="-2.000693"><ele>519</ele><time>2020-08-19T11:15:02Z</time><name>PT3834</name></trkpt>
<trkpt lat="53.242188" lon="-2.000709"><ele>518</ele><time>2020-08-19T11:15:06Z</time><name>PT3835</name></trkpt>
<trkpt lat="53.242140" lon="-2.000728"><ele>517</ele><time>2020-08-19T11:15:10Z</time><name>PT3836</name></trkpt>
<trkpt lat="53.242085" lon="-2.000755"><ele>518</ele><time>2020-08-19T11:15:14Z</time><name>PT3837</name></trkpt>
<trkpt lat="53.242030" lon="-2.000777"><ele>518</ele><time>2020-08-19T11:15:18Z</time><name>PT3838</name></trkpt>
<trkpt lat="53.241994" lon="-2.000781"><ele>518</ele><time>2020-08-19T11:15:21Z</time><name>PT3839</name></trkpt>
<trkpt lat="53.241941" lon="-2.000802"><ele>519</ele><time>2020-08-19T11:15:25Z</time><name>PT3840</name></trkpt>
<trkpt lat="53.241902" lon="-2.000804"><ele>519</ele><time>2020-08-19T11:15:28Z</time><name>PT3841</name></trkpt>
<trkpt lat="53.241853" lon="-2.000820"><ele>518</ele><time>2020-08-19T11:15:32Z</time><name>PT3842</name></trkpt>
<trkpt lat="53.241800" lon="-2.000832"><ele>519</ele><time>2020-08-19T11:15:36Z</time><name>PT3843</name></trkpt>
<trkpt lat="53.241762" lon="-2.000839"><ele>519</ele><time>2020-08-19T11:15:39Z</time><name>PT3844</name></trkpt>
<trkpt lat="53.241712" lon="-2.000862"><ele>519</ele><time>2020-08-19T11:15:42Z</time><name>PT3845</name></trkpt>
<trkpt lat="53.241671" lon="-2.000879"><ele>519</ele><time>2020-08-19T11:15:46Z</time><name>PT3846</name></trkpt>
<trkpt lat="53.241633" lon="-2.000900"><ele>519</ele><time>2020-08-19T11:15:49Z</time><name>PT3847</name></trkpt>
<trkpt lat="53.241586" lon="-2.000926"><ele>519</ele><time>2020-08-19T11:15:53Z</time><name>PT3848</name></trkpt>
<trkpt lat="53.241548" lon="-2.000944"><ele>520</ele><time>2020-08-19T11:15:56Z</time><name>PT3849</name></trkpt>
<trkpt lat="53.241493" lon="-2.000964"><ele>520</ele><time>2020-08-19T11:16:00Z</time><name>PT3850</name></trkpt>
<trkpt lat="53.241453" lon="-2.000973"><ele>521</ele><time>2020-08-19T11:16:03Z</time><name>PT3851</name></trkpt>
<trkpt lat="53.241418" lon="-2.000985"><ele>521</ele><time>2020-08-19T11:16:06Z</time><name>PT3852</name></trkpt>
<trkpt lat="53.241369" lon="-2.000998"><ele>522</ele><time>2020-08-19T11:16:10Z</time><name>PT3853</name></trkpt>
<trkpt lat="53.241322" lon="-2.001012"><ele>522</ele><time>2020-08-19T11:16:14Z</time><name>PT3854</name></trkpt>
<trkpt lat="53.241284" lon="-2.001016"><ele>522</ele><time>2020-08-19T11:16:17Z</time><name>PT3855</name></trkpt>
<trkpt lat="53.241229" lon="-2.001018"><ele>522</ele><time>2020-08-19T11:16:21Z</time><name>PT3856</name></trkpt>
<trkpt lat="53.241173" lon="-2.001034"><ele>521</ele><time>2020-08-19T11:16:24Z</time><name>PT3857</name></trkpt>
<trkpt lat="53.241141" lon="-2.001046"><ele>520</ele><time>2020-08-19T11:16:28Z</time><name>PT3858</name></trkpt>
<trkpt lat="53.241103" lon="-2.001059"><ele>520</ele><time>2020-08-19T11:16:31Z</time><name>PT3859</name></trkpt>
<trkpt lat="53.241058" lon="-2.001068"><ele>519</ele><time>2020-08-19T11:16:35Z</time><name>PT3860</name></trkpt>
<trkpt lat="53.241015" lon="-2.001080"><ele>520</ele><time>2020-08-19T11:16:39Z</time><name>PT3861</name></trkpt>
<trkpt lat="53.240982" lon="-2.001093"><ele>520</ele><time>2020-08-19T11:16:42Z</time><name>PT3862</name></trkpt>
<trkpt lat="53.240940" lon="-2.001108"><ele>520</ele><time>2020-08-19T11:16:46Z</time><name>PT3863</name></trkpt>
<trkpt lat="53.240900" lon="-2.001113"><ele>520</ele><time>2020-08-19T11:16:49Z</time><name>PT3864</name></trkpt>
<trkpt lat="53.240850" lon="-2.001124"><ele>520</ele><time>2020-08-19T11:16:53Z</time><name>PT3865</name></trkpt>
<trkpt lat="53.240810" lon="-2.001142"><ele>519</ele><time>2020-08-19T11:16:56Z</time><name>PT3866</name></trkpt>
<trkpt lat="53.240774" lon="-2.001155"><ele>519</ele><time>2020-08-19T11:16:59Z</time><name>PT3867</name></trkpt>
<trkpt lat="53.240741" lon="-2.001161"><ele>519</ele><time>2020-08-19T11:17:02Z</time><name>PT3868</name></trkpt>
<trkpt lat="53.240710" lon="-2.001173"><ele>519</ele><time>2020-08-19T11:17:05Z</time><name>PT3869</name></trkpt>
<trkpt lat="53.240675" lon="-2.001185"><ele>519</ele><time>2020-08-19T11:17:08Z</time><name>PT3870</name></trkpt>
<trkpt lat="53.240638" lon="-2.001205"><ele>519</ele><time>2020-08-19T11:17:11Z</time><name>PT3871</name></trkpt>
<trkpt lat="53.240593" lon="-2.001219"><ele>520</ele><time>2020-08-19T11:17:15Z</time><name>PT3872</name></trkpt>
<trkpt lat="53.240590" lon="-2.001220"><ele>519</ele><time>2020-08-19T11:17:18Z</time><name>PT3873</name></trkpt>
<trkpt lat="53.240579" lon="-2.001228"><ele>519</ele><time>2020-08-19T11:17:25Z</time><name>PT3874</name></trkpt>
<trkpt lat="53.240530" lon="-2.001243"><ele>519</ele><time>2020-08-19T11:17:29Z</time><name>PT3875</name></trkpt>
<trkpt lat="53.240484" lon="-2.001265"><ele>519</ele><time>2020-08-19T11:17:33Z</time><name>PT3876</name></trkpt>
<trkpt lat="53.240430" lon="-2.001283"><ele>520</ele><time>2020-08-19T11:17:37Z</time><name>PT3877</name></trkpt>
<trkpt lat="53.240383" lon="-2.001293"><ele>519</ele><time>2020-08-19T11:17:41Z</time><name>PT3878</name></trkpt>
<trkpt lat="53.240337" lon="-2.001309"><ele>519</ele><time>2020-08-19T11:17:45Z</time><name>PT3879</name></trkpt>
<trkpt lat="53.240288" lon="-2.001324"><ele>518</ele><time>2020-08-19T11:17:49Z</time><name>PT3880</name></trkpt>
<trkpt lat="53.240250" lon="-2.001334"><ele>518</ele><time>2020-08-19T11:17:52Z</time><name>PT3881</name></trkpt>
<trkpt lat="53.240212" lon="-2.001344"><ele>518</ele><time>2020-08-19T11:17:55Z</time><name>PT3882</name></trkpt>
<trkpt lat="53.240172" lon="-2.001356"><ele>519</ele><time>2020-08-19T11:17:58Z</time><name>PT3883</name></trkpt>
<trkpt lat="53.240138" lon="-2.001367"><ele>519</ele><time>2020-08-19T11:18:01Z</time><name>PT3884</name></trkpt>
<trkpt lat="53.240086" lon="-2.001377"><ele>519</ele><time>2020-08-19T11:18:05Z</time><name>PT3885</name></trkpt>
<trkpt lat="53.240029" lon="-2.001389"><ele>520</ele><time>2020-08-19T11:18:09Z</time><name>PT3886</name></trkpt>
<trkpt lat="53.239987" lon="-2.001400"><ele>520</ele><time>2020-08-19T11:18:12Z</time><name>PT3887</name></trkpt>
<trkpt lat="53.239948" lon="-2.001408"><ele>521</ele><time>2020-08-19T11:18:15Z</time><name>PT3888</name></trkpt>
<trkpt lat="53.239896" lon="-2.001435"><ele>521</ele><time>2020-08-19T11:18:18Z</time><name>PT3889</name></trkpt>
<trkpt lat="53.239865" lon="-2.001444"><ele>521</ele><time>2020-08-19T11:18:22Z</time><name>PT3890</name></trkpt>
<trkpt lat="53.239826" lon="-2.001446"><ele>521</ele><time>2020-08-19T11:18:25Z</time><name>PT3891</name></trkpt>
<trkpt lat="53.239779" lon="-2.001466"><ele>522</ele><time>2020-08-19T11:18:29Z</time><name>PT3892</name></trkpt>
<trkpt lat="53.239725" lon="-2.001481"><ele>522</ele><time>2020-08-19T11:18:33Z</time><name>PT3893</name></trkpt>
<trkpt lat="53.239686" lon="-2.001490"><ele>522</ele><time>2020-08-19T11:18:36Z</time><name>PT3894</name></trkpt>
<trkpt lat="53.239637" lon="-2.001505"><ele>522</ele><time>2020-08-19T11:18:40Z</time><name>PT3895</name></trkpt>
<trkpt lat="53.239598" lon="-2.001518"><ele>522</ele><time>2020-08-19T11:18:43Z</time><name>PT3896</name></trkpt>
<trkpt lat="53.239549" lon="-2.001543"><ele>522</ele><time>2020-08-19T11:18:47Z</time><name>PT3897</name></trkpt>
<trkpt lat="53.239497" lon="-2.001556"><ele>522</ele><time>2020-08-19T11:18:51Z</time><name>PT3898</name></trkpt>
<trkpt lat="53.239465" lon="-2.001571"><ele>522</ele><time>2020-08-19T11:18:54Z</time><name>PT3899</name></trkpt>
<trkpt lat="53.239427" lon="-2.001589"><ele>522</ele><time>2020-08-19T11:18:57Z</time><name>PT3900</name></trkpt>
<trkpt lat="53.239377" lon="-2.001605"><ele>522</ele><time>2020-08-19T11:19:01Z</time><name>PT3901</name></trkpt>
<trkpt lat="53.239337" lon="-2.001625"><ele>522</ele><time>2020-08-19T11:19:04Z</time><name>PT3902</name></trkpt>
<trkpt lat="53.239286" lon="-2.001646"><ele>522</ele><time>2020-08-19T11:19:08Z</time><name>PT3903</name></trkpt>
<trkpt lat="53.239250" lon="-2.001659"><ele>523</ele><time>2020-08-19T11:19:11Z</time><name>PT3904</name></trkpt>
<trkpt lat="53.239212" lon="-2.001661"><ele>522</ele><time>2020-08-19T11:19:14Z</time><name>PT3905</name></trkpt>
<trkpt lat="53.239162" lon="-2.001684"><ele>523</ele><time>2020-08-19T11:19:18Z</time><name>PT3906</name></trkpt>
<trkpt lat="53.239120" lon="-2.001693"><ele>523</ele><time>2020-08-19T11:19:21Z</time><name>PT3907</name></trkpt>
<trkpt lat="53.239068" lon="-2.001711"><ele>523</ele><time>2020-08-19T11:19:25Z</time><name>PT3908</name></trkpt>
<trkpt lat="53.239033" lon="-2.001723"><ele>523</ele><time>2020-08-19T11:19:28Z</time><name>PT3909</name></trkpt>
<trkpt lat="53.238978" lon="-2.001745"><ele>524</ele><time>2020-08-19T11:19:32Z</time><name>PT3910</name></trkpt>
<trkpt lat="53.238925" lon="-2.001753"><ele>523</ele><time>2020-08-19T11:19:36Z</time><name>PT3911</name></trkpt>
<trkpt lat="53.238886" lon="-2.001768"><ele>524</ele><time>2020-08-19T11:19:39Z</time><name>PT3912</name></trkpt>
<trkpt lat="53.238828" lon="-2.001781"><ele>525</ele><time>2020-08-19T11:19:42Z</time><name>PT3913</name></trkpt>
<trkpt lat="53.238792" lon="-2.001792"><ele>524</ele><time>2020-08-19T11:19:46Z</time><name>PT3914</name></trkpt>
<trkpt lat="53.238754" lon="-2.001807"><ele>524</ele><time>2020-08-19T11:19:50Z</time><name>PT3915</name></trkpt>
<trkpt lat="53.238718" lon="-2.001811"><ele>524</ele><time>2020-08-19T11:19:53Z</time><name>PT3916</name></trkpt>
<trkpt lat="53.238673" lon="-2.001821"><ele>524</ele><time>2020-08-19T11:19:57Z</time><name>PT3917</name></trkpt>
<trkpt lat="53.238623" lon="-2.001840"><ele>525</ele><time>2020-08-19T11:20:01Z</time><name>PT3918</name></trkpt>
<trkpt lat="53.238581" lon="-2.001863"><ele>525</ele><time>2020-08-19T11:20:05Z</time><name>PT3919</name></trkpt>
<trkpt lat="53.238542" lon="-2.001867"><ele>525</ele><time>2020-08-19T11:20:08Z</time><name>PT3920</name></trkpt>
<trkpt lat="53.238505" lon="-2.001880"><ele>525</ele><time>2020-08-19T11:20:11Z</time><name>PT3921</name></trkpt>
<trkpt lat="53.238452" lon="-2.001893"><ele>527</ele><time>2020-08-19T11:20:15Z</time><name>PT3922</name></trkpt>
<trkpt lat="53.238417" lon="-2.001904"><ele>526</ele><time>2020-08-19T11:20:18Z</time><name>PT3923</name></trkpt>
<trkpt lat="53.238368" lon="-2.001924"><ele>527</ele><time>2020-08-19T11:20:22Z</time><name>PT3924</name></trkpt>
<trkpt lat="53.238337" lon="-2.001935"><ele>526</ele><time>2020-08-19T11:20:25Z</time><name>PT3925</name></trkpt>
<trkpt lat="53.238300" lon="-2.001948"><ele>526</ele><time>2020-08-19T11:20:28Z</time><name>PT3926</name></trkpt>
<trkpt lat="53.238261" lon="-2.001967"><ele>524</ele><time>2020-08-19T11:20:32Z</time><name>PT3927</name></trkpt>
<trkpt lat="53.238227" lon="-2.001973"><ele>524</ele><time>2020-08-19T11:20:35Z</time><name>PT3928</name></trkpt>
<trkpt lat="53.238190" lon="-2.001984"><ele>524</ele><time>2020-08-19T11:20:38Z</time><name>PT3929</name></trkpt>
<trkpt lat="53.238142" lon="-2.002003"><ele>524</ele><time>2020-08-19T11:20:42Z</time><name>PT3930</name></trkpt>
<trkpt lat="53.238090" lon="-2.002022"><ele>525</ele><time>2020-08-19T11:20:46Z</time><name>PT3931</name></trkpt>
<trkpt lat="53.238055" lon="-2.002039"><ele>525</ele><time>2020-08-19T11:20:49Z</time><name>PT3932</name></trkpt>
<trkpt lat="53.238024" lon="-2.002061"><ele>526</ele><time>2020-08-19T11:20:52Z</time><name>PT3933</name></trkpt>
<trkpt lat="53.237976" lon="-2.002074"><ele>527</ele><time>2020-08-19T11:20:56Z</time><name>PT3934</name></trkpt>
<trkpt lat="53.237927" lon="-2.002088"><ele>527</ele><time>2020-08-19T11:21:00Z</time><name>PT3935</name></trkpt>
<trkpt lat="53.237893" lon="-2.002105"><ele>526</ele><time>2020-08-19T11:21:03Z</time><name>PT3936</name></trkpt>
<trkpt lat="53.237843" lon="-2.002115"><ele>527</ele><time>2020-08-19T11:21:07Z</time><name>PT3937</name></trkpt>
<trkpt lat="53.237805" lon="-2.002135"><ele>527</ele><time>2020-08-19T11:21:10Z</time><name>PT3938</name></trkpt>
<trkpt lat="53.237757" lon="-2.002139"><ele>526</ele><time>2020-08-19T11:21:14Z</time><name>PT3939</name></trkpt>
<trkpt lat="53.237721" lon="-2.002147"><ele>526</ele><time>2020-08-19T11:21:17Z</time><name>PT3940</name></trkpt>
<trkpt lat="53.237680" lon="-2.002148"><ele>527</ele><time>2020-08-19T11:21:20Z</time><name>PT3941</name></trkpt>
<trkpt lat="53.237623" lon="-2.002163"><ele>529</ele><time>2020-08-19T11:21:24Z</time><name>PT3942</name></trkpt>
<trkpt lat="53.237573" lon="-2.002178"><ele>529</ele><time>2020-08-19T11:21:28Z</time><name>PT3943</name></trkpt>
<trkpt lat="53.237523" lon="-2.002185"><ele>530</ele><time>2020-08-19T11:21:32Z</time><name>PT3944</name></trkpt>
<trkpt lat="53.237471" lon="-2.002195"><ele>530</ele><time>2020-08-19T11:21:36Z</time><name>PT3945</name></trkpt>
<trkpt lat="53.237432" lon="-2.002197"><ele>530</ele><time>2020-08-19T11:21:39Z</time><name>PT3946</name></trkpt>
<trkpt lat="53.237383" lon="-2.002216"><ele>530</ele><time>2020-08-19T11:21:42Z</time><name>PT3947</name></trkpt>
<trkpt lat="53.237348" lon="-2.002223"><ele>530</ele><time>2020-08-19T11:21:46Z</time><name>PT3948</name></trkpt>
<trkpt lat="53.237296" lon="-2.002241"><ele>531</ele><time>2020-08-19T11:21:50Z</time><name>PT3949</name></trkpt>
<trkpt lat="53.237246" lon="-2.002256"><ele>531</ele><time>2020-08-19T11:21:54Z</time><name>PT3950</name></trkpt>
<trkpt lat="53.237211" lon="-2.002270"><ele>531</ele><time>2020-08-19T11:21:57Z</time><name>PT3951</name></trkpt>
<trkpt lat="53.237158" lon="-2.002286"><ele>532</ele><time>2020-08-19T11:22:01Z</time><name>PT3952</name></trkpt>
<trkpt lat="53.237108" lon="-2.002296"><ele>532</ele><time>2020-08-19T11:22:05Z</time><name>PT3953</name></trkpt>
<trkpt lat="53.237057" lon="-2.002310"><ele>532</ele><time>2020-08-19T11:22:09Z</time><name>PT3954</name></trkpt>
<trkpt lat="53.237015" lon="-2.002319"><ele>532</ele><time>2020-08-19T11:22:12Z</time><name>PT3955</name></trkpt>
<trkpt lat="53.236966" lon="-2.002336"><ele>532</ele><time>2020-08-19T11:22:16Z</time><name>PT3956</name></trkpt>
<trkpt lat="53.236918" lon="-2.002351"><ele>532</ele><time>2020-08-19T11:22:20Z</time><name>PT3957</name></trkpt>
<trkpt lat="53.236878" lon="-2.002365"><ele>532</ele><time>2020-08-19T11:22:23Z</time><name>PT3958</name></trkpt>
<trkpt lat="53.236828" lon="-2.002384"><ele>532</ele><time>2020-08-19T11:22:27Z</time><name>PT3959</name></trkpt>
<trkpt lat="53.236776" lon="-2.002396"><ele>533</ele><time>2020-08-19T11:22:31Z</time><name>PT3960</name></trkpt>
<trkpt lat="53.236736" lon="-2.002400"><ele>533</ele><time>2020-08-19T11:22:34Z</time><name>PT3961</name></trkpt>
<trkpt lat="53.236681" lon="-2.002399"><ele>534</ele><time>2020-08-19T11:22:38Z</time><name>PT3962</name></trkpt>
<trkpt lat="53.236631" lon="-2.002404"><ele>533</ele><time>2020-08-19T11:22:42Z</time><name>PT3963</name></trkpt>
<trkpt lat="53.236581" lon="-2.002403"><ele>534</ele><time>2020-08-19T11:22:46Z</time><name>PT3964</name></trkpt>
<trkpt lat="53.236530" lon="-2.002397"><ele>533</ele><time>2020-08-19T11:22:50Z</time><name>PT3965</name></trkpt>
<trkpt lat="53.236479" lon="-2.002396"><ele>533</ele><time>2020-08-19T11:22:54Z</time><name>PT3966</name></trkpt>
<trkpt lat="53.236429" lon="-2.002387"><ele>533</ele><time>2020-08-19T11:22:57Z</time><name>PT3967</name></trkpt>
<trkpt lat="53.236396" lon="-2.002380"><ele>532</ele><time>2020-08-19T11:23:00Z</time><name>PT3968</name></trkpt>
<trkpt lat="53.236381" lon="-2.002364"><ele>531</ele><time>2020-08-19T11:23:04Z</time><name>PT3969</name></trkpt>
<trkpt lat="53.236371" lon="-2.002356"><ele>532</ele><time>2020-08-19T11:23:08Z</time><name>PT3970</name></trkpt>
<trkpt lat="53.236364" lon="-2.002343"><ele>531</ele><time>2020-08-19T11:23:11Z</time><name>PT3971</name></trkpt>
<trkpt lat="53.236327" lon="-2.002342"><ele>530</ele><time>2020-08-19T11:23:14Z</time><name>PT3972</name></trkpt>
<trkpt lat="53.236295" lon="-2.002323"><ele>530</ele><time>2020-08-19T11:23:17Z</time><name>PT3973</name></trkpt>
<trkpt lat="53.236258" lon="-2.002313"><ele>530</ele><time>2020-08-19T11:23:20Z</time><name>PT3974</name></trkpt>
<trkpt lat="53.236209" lon="-2.002285"><ele>531</ele><time>2020-08-19T11:23:24Z</time><name>PT3975</name></trkpt>
<trkpt lat="53.236172" lon="-2.002267"><ele>531</ele><time>2020-08-19T11:23:27Z</time><name>PT3976</name></trkpt>
<trkpt lat="53.236124" lon="-2.002249"><ele>531</ele><time>2020-08-19T11:23:30Z</time><name>PT3977</name></trkpt>
<trkpt lat="53.236082" lon="-2.002231"><ele>531</ele><time>2020-08-19T11:23:34Z</time><name>PT3978</name></trkpt>
<trkpt lat="53.236032" lon="-2.002207"><ele>531</ele><time>2020-08-19T11:23:38Z</time><name>PT3979</name></trkpt>
<trkpt lat="53.235979" lon="-2.002183"><ele>531</ele><time>2020-08-19T11:23:42Z</time><name>PT3980</name></trkpt>
<trkpt lat="53.235940" lon="-2.002167"><ele>531</ele><time>2020-08-19T11:23:45Z</time><name>PT3981</name></trkpt>
<trkpt lat="53.235881" lon="-2.002139"><ele>530</ele><time>2020-08-19T11:23:49Z</time><name>PT3982</name></trkpt>
<trkpt lat="53.235822" lon="-2.002105"><ele>530</ele><time>2020-08-19T11:23:53Z</time><name>PT3983</name></trkpt>
<trkpt lat="53.235781" lon="-2.002085"><ele>529</ele><time>2020-08-19T11:23:56Z</time><name>PT3984</name></trkpt>
<trkpt lat="53.235736" lon="-2.002056"><ele>529</ele><time>2020-08-19T11:23:59Z</time><name>PT3985</name></trkpt>
<trkpt lat="53.235695" lon="-2.002036"><ele>529</ele><time>2020-08-19T11:24:02Z</time><name>PT3986</name></trkpt>
<trkpt lat="53.235639" lon="-2.002016"><ele>529</ele><time>2020-08-19T11:24:06Z</time><name>PT3987</name></trkpt>
<trkpt lat="53.235593" lon="-2.001998"><ele>529</ele><time>2020-08-19T11:24:09Z</time><name>PT3988</name></trkpt>
<trkpt lat="53.235553" lon="-2.001987"><ele>529</ele><time>2020-08-19T11:24:12Z</time><name>PT3989</name></trkpt>
<trkpt lat="53.235503" lon="-2.001962"><ele>528</ele><time>2020-08-19T11:24:15Z</time><name>PT3990</name></trkpt>
<trkpt lat="53.235464" lon="-2.001942"><ele>528</ele><time>2020-08-19T11:24:19Z</time><name>PT3991</name></trkpt>
<trkpt lat="53.235409" lon="-2.001912"><ele>528</ele><time>2020-08-19T11:24:23Z</time><name>PT3992</name></trkpt>
<trkpt lat="53.235362" lon="-2.001891"><ele>527</ele><time>2020-08-19T11:24:27Z</time><name>PT3993</name></trkpt>
<trkpt lat="53.235326" lon="-2.001874"><ele>527</ele><time>2020-08-19T11:24:30Z</time><name>PT3994</name></trkpt>
<trkpt lat="53.235270" lon="-2.001858"><ele>528</ele><time>2020-08-19T11:24:34Z</time><name>PT3995</name></trkpt>
<trkpt lat="53.235215" lon="-2.001824"><ele>529</ele><time>2020-08-19T11:24:38Z</time><name>PT3996</name></trkpt>
<trkpt lat="53.235178" lon="-2.001803"><ele>529</ele><time>2020-08-19T11:24:41Z</time><name>PT3997</name></trkpt>
<trkpt lat="53.235125" lon="-2.001773"><ele>529</ele><time>2020-08-19T11:24:45Z</time><name>PT3998</name></trkpt>
<trkpt lat="53.235078" lon="-2.001742"><ele>528</ele><time>2020-08-19T11:24:48Z</time><name>PT3999</name></trkpt>
<trkpt lat="53.235040" lon="-2.001712"><ele>528</ele><time>2020-08-19T11:24:52Z</time><name>PT4000</name></trkpt>
<trkpt lat="53.234992" lon="-2.001675"><ele>528</ele><time>2020-08-19T11:24:56Z</time><name>PT4001</name></trkpt>
<trkpt lat="53.234948" lon="-2.001622"><ele>528</ele><time>2020-08-19T11:25:00Z</time><name>PT4002</name></trkpt>
<trkpt lat="53.234914" lon="-2.001579"><ele>528</ele><time>2020-08-19T11:25:03Z</time><name>PT4003</name></trkpt>
<trkpt lat="53.234876" lon="-2.001537"><ele>528</ele><time>2020-08-19T11:25:06Z</time><name>PT4004</name></trkpt>
<trkpt lat="53.234829" lon="-2.001480"><ele>527</ele><time>2020-08-19T11:25:10Z</time><name>PT4005</name></trkpt>
<trkpt lat="53.234783" lon="-2.001437"><ele>527</ele><time>2020-08-19T11:25:14Z</time><name>PT4006</name></trkpt>
<trkpt lat="53.234749" lon="-2.001378"><ele>527</ele><time>2020-08-19T11:25:18Z</time><name>PT4007</name></trkpt>
<trkpt lat="53.234709" lon="-2.001316"><ele>527</ele><time>2020-08-19T11:25:21Z</time><name>PT4008</name></trkpt>
<trkpt lat="53.234675" lon="-2.001273"><ele>526</ele><time>2020-08-19T11:25:25Z</time><name>PT4009</name></trkpt>
<trkpt lat="53.234630" lon="-2.001224"><ele>526</ele><time>2020-08-19T11:25:29Z</time><name>PT4010</name></trkpt>
<trkpt lat="53.234596" lon="-2.001183"><ele>526</ele><time>2020-08-19T11:25:32Z</time><name>PT4011</name></trkpt>
<trkpt lat="53.234560" lon="-2.001125"><ele>525</ele><time>2020-08-19T11:25:36Z</time><name>PT4012</name></trkpt>
<trkpt lat="53.234511" lon="-2.001058"><ele>525</ele><time>2020-08-19T11:25:40Z</time><name>PT4013</name></trkpt>
<trkpt lat="53.234480" lon="-2.000997"><ele>523</ele><time>2020-08-19T11:25:44Z</time><name>PT4014</name></trkpt>
<trkpt lat="53.234440" lon="-2.000941"><ele>524</ele><time>2020-08-19T11:25:48Z</time><name>PT4015</name></trkpt>
<trkpt lat="53.234409" lon="-2.000895"><ele>524</ele><time>2020-08-19T11:25:51Z</time><name>PT4016</name></trkpt>
<trkpt lat="53.234371" lon="-2.000829"><ele>524</ele><time>2020-08-19T11:25:55Z</time><name>PT4017</name></trkpt>
<trkpt lat="53.234329" lon="-2.000764"><ele>524</ele><time>2020-08-19T11:25:59Z</time><name>PT4018</name></trkpt>
<trkpt lat="53.234297" lon="-2.000718"><ele>524</ele><time>2020-08-19T11:26:02Z</time><name>PT4019</name></trkpt>
<trkpt lat="53.234258" lon="-2.000649"><ele>525</ele><time>2020-08-19T11:26:06Z</time><name>PT4020</name></trkpt>
<trkpt lat="53.234228" lon="-2.000601"><ele>525</ele><time>2020-08-19T11:26:09Z</time><name>PT4021</name></trkpt>
<trkpt lat="53.234195" lon="-2.000553"><ele>525</ele><time>2020-08-19T11:26:12Z</time><name>PT4022</name></trkpt>
<trkpt lat="53.234167" lon="-2.000490"><ele>524</ele><time>2020-08-19T11:26:17Z</time><name>PT4023</name></trkpt>
<trkpt lat="53.234137" lon="-2.000429"><ele>524</ele><time>2020-08-19T11:26:21Z</time><name>PT4024</name></trkpt>
<trkpt lat="53.234106" lon="-2.000359"><ele>523</ele><time>2020-08-19T11:26:24Z</time><name>PT4025</name></trkpt>
<trkpt lat="53.234072" lon="-2.000303"><ele>523</ele><time>2020-08-19T11:26:29Z</time><name>PT4026</name></trkpt>
<trkpt lat="53.234042" lon="-2.000256"><ele>523</ele><time>2020-08-19T11:26:32Z</time><name>PT4027</name></trkpt>
<trkpt lat="53.234013" lon="-2.000212"><ele>523</ele><time>2020-08-19T11:26:35Z</time><name>PT4028</name></trkpt>
<trkpt lat="53.233975" lon="-2.000154"><ele>522</ele><time>2020-08-19T11:26:39Z</time><name>PT4029</name></trkpt>
<trkpt lat="53.233952" lon="-2.000118"><ele>522</ele><time>2020-08-19T11:26:42Z</time><name>PT4030</name></trkpt>
<trkpt lat="53.233930" lon="-2.000077"><ele>522</ele><time>2020-08-19T11:26:45Z</time><name>PT4031</name></trkpt>
<trkpt lat="53.233907" lon="-2.000034"><ele>522</ele><time>2020-08-19T11:26:48Z</time><name>PT4032</name></trkpt>
<trkpt lat="53.233889" lon="-1.999986"><ele>523</ele><time>2020-08-19T11:26:51Z</time><name>PT4033</name></trkpt>
<trkpt lat="53.233887" lon="-1.999988"><ele>523</ele><time>2020-08-19T11:26:54Z</time><name>PT4034</name></trkpt>
<trkpt lat="53.233887" lon="-1.999987"><ele>523</ele><time>2020-08-19T11:27:08Z</time><name>PT4035</name></trkpt>
<trkpt lat="53.233868" lon="-1.999926"><ele>523</ele><time>2020-08-19T11:27:11Z</time><name>PT4036</name></trkpt>
<trkpt lat="53.233840" lon="-1.999874"><ele>523</ele><time>2020-08-19T11:27:14Z</time><name>PT4037</name></trkpt>
<trkpt lat="53.233806" lon="-1.999817"><ele>523</ele><time>2020-08-19T11:27:18Z</time><name>PT4038</name></trkpt>
<trkpt lat="53.233783" lon="-1.999774"><ele>523</ele><time>2020-08-19T11:27:21Z</time><name>PT4039</name></trkpt>
<trkpt lat="53.233757" lon="-1.999708"><ele>523</ele><time>2020-08-19T11:27:24Z</time><name>PT4040</name></trkpt>
<trkpt lat="53.233731" lon="-1.999662"><ele>523</ele><time>2020-08-19T11:27:27Z</time><name>PT4041</name></trkpt>
<trkpt lat="53.233708" lon="-1.999620"><ele>523</ele><time>2020-08-19T11:27:30Z</time><name>PT4042</name></trkpt>
<trkpt lat="53.233678" lon="-1.999572"><ele>523</ele><time>2020-08-19T11:27:35Z</time><name>PT4043</name></trkpt>
<trkpt lat="53.233652" lon="-1.999531"><ele>523</ele><time>2020-08-19T11:27:38Z</time><name>PT4044</name></trkpt>
<trkpt lat="53.233628" lon="-1.999475"><ele>522</ele><time>2020-08-19T11:27:42Z</time><name>PT4045</name></trkpt>
<trkpt lat="53.233594" lon="-1.999410"><ele>522</ele><time>2020-08-19T11:27:45Z</time><name>PT4046</name></trkpt>
<trkpt lat="53.233570" lon="-1.999371"><ele>522</ele><time>2020-08-19T11:27:49Z</time><name>PT4047</name></trkpt>
<trkpt lat="53.233541" lon="-1.999319"><ele>521</ele><time>2020-08-19T11:27:52Z</time><name>PT4048</name></trkpt>
<trkpt lat="53.233522" lon="-1.999276"><ele>520</ele><time>2020-08-19T11:27:55Z</time><name>PT4049</name></trkpt>
<trkpt lat="53.233493" lon="-1.999211"><ele>519</ele><time>2020-08-19T11:27:59Z</time><name>PT4050</name></trkpt>
<trkpt lat="53.233459" lon="-1.999145"><ele>519</ele><time>2020-08-19T11:28:03Z</time><name>PT4051</name></trkpt>
<trkpt lat="53.233425" lon="-1.999076"><ele>518</ele><time>2020-08-19T11:28:07Z</time><name>PT4052</name></trkpt>
<trkpt lat="53.233393" lon="-1.999008"><ele>518</ele><time>2020-08-19T11:28:11Z</time><name>PT4053</name></trkpt>
<trkpt lat="53.233354" lon="-1.998953"><ele>517</ele><time>2020-08-19T11:28:15Z</time><name>PT4054</name></trkpt>
<trkpt lat="53.233323" lon="-1.998872"><ele>517</ele><time>2020-08-19T11:28:18Z</time><name>PT4055</name></trkpt>
<trkpt lat="53.233290" lon="-1.998801"><ele>516</ele><time>2020-08-19T11:28:23Z</time><name>PT4056</name></trkpt>
<trkpt lat="53.233257" lon="-1.998733"><ele>515</ele><time>2020-08-19T11:28:26Z</time><name>PT4057</name></trkpt>
<trkpt lat="53.233221" lon="-1.998656"><ele>515</ele><time>2020-08-19T11:28:30Z</time><name>PT4058</name></trkpt>
<trkpt lat="53.233193" lon="-1.998600"><ele>515</ele><time>2020-08-19T11:28:33Z</time><name>PT4059</name></trkpt>
<trkpt lat="53.233163" lon="-1.998524"><ele>515</ele><time>2020-08-19T11:28:36Z</time><name>PT4060</name></trkpt>
<trkpt lat="53.233138" lon="-1.998468"><ele>515</ele><time>2020-08-19T11:28:40Z</time><name>PT4061</name></trkpt>
<trkpt lat="53.233106" lon="-1.998398"><ele>516</ele><time>2020-08-19T11:28:44Z</time><name>PT4062</name></trkpt>
<trkpt lat="53.233068" lon="-1.998331"><ele>515</ele><time>2020-08-19T11:28:48Z</time><name>PT4063</name></trkpt>
<trkpt lat="53.233039" lon="-1.998280"><ele>515</ele><time>2020-08-19T11:28:51Z</time><name>PT4064</name></trkpt>
<trkpt lat="53.233018" lon="-1.998226"><ele>515</ele><time>2020-08-19T11:28:54Z</time><name>PT4065</name></trkpt>
<trkpt lat="53.232990" lon="-1.998160"><ele>515</ele><time>2020-08-19T11:28:58Z</time><name>PT4066</name></trkpt>
<trkpt lat="53.232958" lon="-1.998086"><ele>515</ele><time>2020-08-19T11:29:02Z</time><name>PT4067</name></trkpt>
<trkpt lat="53.232926" lon="-1.998023"><ele>514</ele><time>2020-08-19T11:29:06Z</time><name>PT4068</name></trkpt>
<trkpt lat="53.232894" lon="-1.997966"><ele>515</ele><time>2020-08-19T11:29:09Z</time><name>PT4069</name></trkpt>
<trkpt lat="53.232861" lon="-1.997907"><ele>514</ele><time>2020-08-19T11:29:14Z</time><name>PT4070</name></trkpt>
<trkpt lat="53.232838" lon="-1.997858"><ele>514</ele><time>2020-08-19T11:29:17Z</time><name>PT4071</name></trkpt>
<trkpt lat="53.232805" lon="-1.997790"><ele>513</ele><time>2020-08-19T11:29:21Z</time><name>PT4072</name></trkpt>
<trkpt lat="53.232771" lon="-1.997725"><ele>513</ele><time>2020-08-19T11:29:24Z</time><name>PT4073</name></trkpt>
<trkpt lat="53.232747" lon="-1.997676"><ele>514</ele><time>2020-08-19T11:29:28Z</time><name>PT4074</name></trkpt>
<trkpt lat="53.232722" lon="-1.997619"><ele>515</ele><time>2020-08-19T11:29:31Z</time><name>PT4075</name></trkpt>
<trkpt lat="53.232689" lon="-1.997560"><ele>514</ele><time>2020-08-19T11:29:35Z</time><name>PT4076</name></trkpt>
<trkpt lat="53.232649" lon="-1.997493"><ele>515</ele><time>2020-08-19T11:29:39Z</time><name>PT4077</name></trkpt>
<trkpt lat="53.232624" lon="-1.997441"><ele>515</ele><time>2020-08-19T11:29:42Z</time><name>PT4078</name></trkpt>
<trkpt lat="53.232597" lon="-1.997386"><ele>514</ele><time>2020-08-19T11:29:45Z</time><name>PT4079</name></trkpt>
<trkpt lat="53.232556" lon="-1.997327"><ele>515</ele><time>2020-08-19T11:29:48Z</time><name>PT4080</name></trkpt>
<trkpt lat="53.232525" lon="-1.997262"><ele>515</ele><time>2020-08-19T11:29:53Z</time><name>PT4081</name></trkpt>
<trkpt lat="53.232498" lon="-1.997217"><ele>515</ele><time>2020-08-19T11:29:56Z</time><name>PT4082</name></trkpt>
<trkpt lat="53.232462" lon="-1.997149"><ele>514</ele><time>2020-08-19T11:30:00Z</time><name>PT4083</name></trkpt>
<trkpt lat="53.232420" lon="-1.997090"><ele>514</ele><time>2020-08-19T11:30:03Z</time><name>PT4084</name></trkpt>
<trkpt lat="53.232392" lon="-1.997048"><ele>514</ele><time>2020-08-19T11:30:06Z</time><name>PT4085</name></trkpt>
<trkpt lat="53.232348" lon="-1.996988"><ele>514</ele><time>2020-08-19T11:30:11Z</time><name>PT4086</name></trkpt>
<trkpt lat="53.232310" lon="-1.996939"><ele>514</ele><time>2020-08-19T11:30:15Z</time><name>PT4087</name></trkpt>
<trkpt lat="53.232272" lon="-1.996874"><ele>515</ele><time>2020-08-19T11:30:18Z</time><name>PT4088</name></trkpt>
<trkpt lat="53.232231" lon="-1.996810"><ele>515</ele><time>2020-08-19T11:30:23Z</time><name>PT4089</name></trkpt>
<trkpt lat="53.232202" lon="-1.996767"><ele>514</ele><time>2020-08-19T11:30:26Z</time><name>PT4090</name></trkpt>
<trkpt lat="53.232160" lon="-1.996707"><ele>514</ele><time>2020-08-19T11:30:30Z</time><name>PT4091</name></trkpt>
<trkpt lat="53.232117" lon="-1.996638"><ele>515</ele><time>2020-08-19T11:30:34Z</time><name>PT4092</name></trkpt>
<trkpt lat="53.232081" lon="-1.996589"><ele>516</ele><time>2020-08-19T11:30:37Z</time><name>PT4093</name></trkpt>
<trkpt lat="53.232038" lon="-1.996525"><ele>516</ele><time>2020-08-19T11:30:41Z</time><name>PT4094</name></trkpt>
<trkpt lat="53.231994" lon="-1.996469"><ele>516</ele><time>2020-08-19T11:30:44Z</time><name>PT4095</name></trkpt>
<trkpt lat="53.231953" lon="-1.996414"><ele>515</ele><time>2020-08-19T11:30:49Z</time><name>PT4096</name></trkpt>
<trkpt lat="53.231909" lon="-1.996362"><ele>515</ele><time>2020-08-19T11:30:53Z</time><name>PT4097</name></trkpt>
<trkpt lat="53.231876" lon="-1.996325"><ele>515</ele><time>2020-08-19T11:30:56Z</time><name>PT4098</name></trkpt>
<trkpt lat="53.231838" lon="-1.996289"><ele>515</ele><time>2020-08-19T11:30:59Z</time><name>PT4099</name></trkpt>
<trkpt lat="53.231796" lon="-1.996238"><ele>515</ele><time>2020-08-19T11:31:02Z</time><name>PT4100</name></trkpt>
<trkpt lat="53.231755" lon="-1.996196"><ele>514</ele><time>2020-08-19T11:31:07Z</time><name>PT4101</name></trkpt>
<trkpt lat="53.231724" lon="-1.996163"><ele>514</ele><time>2020-08-19T11:31:10Z</time><name>PT4102</name></trkpt>
<trkpt lat="53.231678" lon="-1.996112"><ele>514</ele><time>2020-08-19T11:31:14Z</time><name>PT4103</name></trkpt>
<trkpt lat="53.231645" lon="-1.996070"><ele>515</ele><time>2020-08-19T11:31:17Z</time><name>PT4104</name></trkpt>
<trkpt lat="53.231610" lon="-1.996032"><ele>515</ele><time>2020-08-19T11:31:20Z</time><name>PT4105</name></trkpt>
<trkpt lat="53.231575" lon="-1.995987"><ele>515</ele><time>2020-08-19T11:31:23Z</time><name>PT4106</name></trkpt>
<trkpt lat="53.231540" lon="-1.995950"><ele>515</ele><time>2020-08-19T11:31:26Z</time><name>PT4107</name></trkpt>
<trkpt lat="53.231492" lon="-1.995904"><ele>515</ele><time>2020-08-19T11:31:29Z</time><name>PT4108</name></trkpt>
<trkpt lat="53.231444" lon="-1.995856"><ele>515</ele><time>2020-08-19T11:31:34Z</time><name>PT4109</name></trkpt>
<trkpt lat="53.231412" lon="-1.995815"><ele>514</ele><time>2020-08-19T11:31:37Z</time><name>PT4110</name></trkpt>
<trkpt lat="53.231363" lon="-1.995768"><ele>514</ele><time>2020-08-19T11:31:41Z</time><name>PT4111</name></trkpt>
<trkpt lat="53.231320" lon="-1.995724"><ele>515</ele><time>2020-08-19T11:31:44Z</time><name>PT4112</name></trkpt>
<trkpt lat="53.231274" lon="-1.995688"><ele>515</ele><time>2020-08-19T11:31:47Z</time><name>PT4113</name></trkpt>
<trkpt lat="53.231226" lon="-1.995627"><ele>515</ele><time>2020-08-19T11:31:52Z</time><name>PT4114</name></trkpt>
<trkpt lat="53.231194" lon="-1.995589"><ele>514</ele><time>2020-08-19T11:31:55Z</time><name>PT4115</name></trkpt>
<trkpt lat="53.231153" lon="-1.995536"><ele>513</ele><time>2020-08-19T11:31:59Z</time><name>PT4116</name></trkpt>
<trkpt lat="53.231122" lon="-1.995508"><ele>511</ele><time>2020-08-19T11:32:02Z</time><name>PT4117</name></trkpt>
<trkpt lat="53.231075" lon="-1.995450"><ele>512</ele><time>2020-08-19T11:32:06Z</time><name>PT4118</name></trkpt>
<trkpt lat="53.231033" lon="-1.995398"><ele>511</ele><time>2020-08-19T11:32:10Z</time><name>PT4119</name></trkpt>
<trkpt lat="53.230985" lon="-1.995343"><ele>512</ele><time>2020-08-19T11:32:14Z</time><name>PT4120</name></trkpt>
<trkpt lat="53.230954" lon="-1.995307"><ele>512</ele><time>2020-08-19T11:32:17Z</time><name>PT4121</name></trkpt>
<trkpt lat="53.230912" lon="-1.995258"><ele>511</ele><time>2020-08-19T11:32:20Z</time><name>PT4122</name></trkpt>
<trkpt lat="53.230866" lon="-1.995206"><ele>512</ele><time>2020-08-19T11:32:25Z</time><name>PT4123</name></trkpt>
<trkpt lat="53.230842" lon="-1.995156"><ele>510</ele><time>2020-08-19T11:32:28Z</time><name>PT4124</name></trkpt>
<trkpt lat="53.230802" lon="-1.995100"><ele>509</ele><time>2020-08-19T11:32:32Z</time><name>PT4125</name></trkpt>
<trkpt lat="53.230769" lon="-1.995054"><ele>510</ele><time>2020-08-19T11:32:35Z</time><name>PT4126</name></trkpt>
<trkpt lat="53.230724" lon="-1.994997"><ele>511</ele><time>2020-08-19T11:32:39Z</time><name>PT4127</name></trkpt>
<trkpt lat="53.230681" lon="-1.994938"><ele>512</ele><time>2020-08-19T11:32:43Z</time><name>PT4128</name></trkpt>
<trkpt lat="53.230645" lon="-1.994880"><ele>512</ele><time>2020-08-19T11:32:47Z</time><name>PT4129</name></trkpt>
<trkpt lat="53.230605" lon="-1.994845"><ele>512</ele><time>2020-08-19T11:32:50Z</time><name>PT4130</name></trkpt>
<trkpt lat="53.230578" lon="-1.994791"><ele>513</ele><time>2020-08-19T11:32:53Z</time><name>PT4131</name></trkpt>
<trkpt lat="53.230543" lon="-1.994726"><ele>514</ele><time>2020-08-19T11:32:56Z</time><name>PT4132</name></trkpt>
<trkpt lat="53.230523" lon="-1.994675"><ele>513</ele><time>2020-08-19T11:32:59Z</time><name>PT4133</name></trkpt>
<trkpt lat="53.230485" lon="-1.994602"><ele>513</ele><time>2020-08-19T11:33:04Z</time><name>PT4134</name></trkpt>
<trkpt lat="53.230465" lon="-1.994551"><ele>513</ele><time>2020-08-19T11:33:07Z</time><name>PT4135</name></trkpt>
<trkpt lat="53.230437" lon="-1.994505"><ele>512</ele><time>2020-08-19T11:33:10Z</time><name>PT4136</name></trkpt>
<trkpt lat="53.230406" lon="-1.994430"><ele>512</ele><time>2020-08-19T11:33:14Z</time><name>PT4137</name></trkpt>
<trkpt lat="53.230377" lon="-1.994378"><ele>512</ele><time>2020-08-19T11:33:17Z</time><name>PT4138</name></trkpt>
<trkpt lat="53.230351" lon="-1.994331"><ele>510</ele><time>2020-08-19T11:33:20Z</time><name>PT4139</name></trkpt>
<trkpt lat="53.230317" lon="-1.994261"><ele>510</ele><time>2020-08-19T11:33:23Z</time><name>PT4140</name></trkpt>
<trkpt lat="53.230286" lon="-1.994194"><ele>509</ele><time>2020-08-19T11:33:28Z</time><name>PT4141</name></trkpt>
<trkpt lat="53.230263" lon="-1.994155"><ele>508</ele><time>2020-08-19T11:33:31Z</time><name>PT4142</name></trkpt>
<trkpt lat="53.230229" lon="-1.994095"><ele>508</ele><time>2020-08-19T11:33:35Z</time><name>PT4143</name></trkpt>
<trkpt lat="53.230207" lon="-1.994052"><ele>506</ele><time>2020-08-19T11:33:38Z</time><name>PT4144</name></trkpt>
<trkpt lat="53.230179" lon="-1.993975"><ele>506</ele><time>2020-08-19T11:33:41Z</time><name>PT4145</name></trkpt>
<trkpt lat="53.230162" lon="-1.993920"><ele>505</ele><time>2020-08-19T11:33:44Z</time><name>PT4146</name></trkpt>
<trkpt lat="53.230138" lon="-1.993842"><ele>504</ele><time>2020-08-19T11:33:49Z</time><name>PT4147</name></trkpt>
<trkpt lat="53.230101" lon="-1.993760"><ele>504</ele><time>2020-08-19T11:33:53Z</time><name>PT4148</name></trkpt>
<trkpt lat="53.230084" lon="-1.993701"><ele>504</ele><time>2020-08-19T11:33:56Z</time><name>PT4149</name></trkpt>
<trkpt lat="53.230061" lon="-1.993625"><ele>504</ele><time>2020-08-19T11:33:59Z</time><name>PT4150</name></trkpt>
<trkpt lat="53.230035" lon="-1.993560"><ele>503</ele><time>2020-08-19T11:34:04Z</time><name>PT4151</name></trkpt>
<trkpt lat="53.230009" lon="-1.993479"><ele>502</ele><time>2020-08-19T11:34:08Z</time><name>PT4152</name></trkpt>
<trkpt lat="53.229978" lon="-1.993394"><ele>502</ele><time>2020-08-19T11:34:11Z</time><name>PT4153</name></trkpt>
<trkpt lat="53.229959" lon="-1.993336"><ele>501</ele><time>2020-08-19T11:34:14Z</time><name>PT4154</name></trkpt>
<trkpt lat="53.229941" lon="-1.993272"><ele>501</ele><time>2020-08-19T11:34:17Z</time><name>PT4155</name></trkpt>
<trkpt lat="53.229918" lon="-1.993216"><ele>501</ele><time>2020-08-19T11:34:21Z</time><name>PT4156</name></trkpt>
<trkpt lat="53.229892" lon="-1.993134"><ele>502</ele><time>2020-08-19T11:34:25Z</time><name>PT4157</name></trkpt>
<trkpt lat="53.229878" lon="-1.993074"><ele>501</ele><time>2020-08-19T11:34:28Z</time><name>PT4158</name></trkpt>
<trkpt lat="53.229846" lon="-1.992991"><ele>502</ele><time>2020-08-19T11:34:32Z</time><name>PT4159</name></trkpt>
<trkpt lat="53.229825" lon="-1.992933"><ele>502</ele><time>2020-08-19T11:34:35Z</time><name>PT4160</name></trkpt>
<trkpt lat="53.229806" lon="-1.992879"><ele>502</ele><time>2020-08-19T11:34:38Z</time><name>PT4161</name></trkpt>
<trkpt lat="53.229786" lon="-1.992797"><ele>502</ele><time>2020-08-19T11:34:41Z</time><name>PT4162</name></trkpt>
<trkpt lat="53.229766" lon="-1.992741"><ele>502</ele><time>2020-08-19T11:34:45Z</time><name>PT4163</name></trkpt>
<trkpt lat="53.229742" lon="-1.992667"><ele>501</ele><time>2020-08-19T11:34:49Z</time><name>PT4164</name></trkpt>
<trkpt lat="53.229722" lon="-1.992606"><ele>501</ele><time>2020-08-19T11:34:52Z</time><name>PT4165</name></trkpt>
<trkpt lat="53.229704" lon="-1.992552"><ele>501</ele><time>2020-08-19T11:34:55Z</time><name>PT4166</name></trkpt>
<trkpt lat="53.229682" lon="-1.992494"><ele>501</ele><time>2020-08-19T11:34:58Z</time><name>PT4167</name></trkpt>
<trkpt lat="53.229650" lon="-1.992417"><ele>500</ele><time>2020-08-19T11:35:02Z</time><name>PT4168</name></trkpt>
<trkpt lat="53.229624" lon="-1.992344"><ele>499</ele><time>2020-08-19T11:35:05Z</time><name>PT4169</name></trkpt>
<trkpt lat="53.229599" lon="-1.992285"><ele>499</ele><time>2020-08-19T11:35:09Z</time><name>PT4170</name></trkpt>
<trkpt lat="53.229576" lon="-1.992207"><ele>499</ele><time>2020-08-19T11:35:13Z</time><name>PT4171</name></trkpt>
<trkpt lat="53.229562" lon="-1.992149"><ele>499</ele><time>2020-08-19T11:35:16Z</time><name>PT4172</name></trkpt>
<trkpt lat="53.229534" lon="-1.992064"><ele>499</ele><time>2020-08-19T11:35:20Z</time><name>PT4173</name></trkpt>
<trkpt lat="53.229510" lon="-1.992008"><ele>499</ele><time>2020-08-19T11:35:23Z</time><name>PT4174</name></trkpt>
<trkpt lat="53.229491" lon="-1.991957"><ele>498</ele><time>2020-08-19T11:35:26Z</time><name>PT4175</name></trkpt>
<trkpt lat="53.229462" lon="-1.991887"><ele>497</ele><time>2020-08-19T11:35:29Z</time><name>PT4176</name></trkpt>
<trkpt lat="53.229428" lon="-1.991813"><ele>496</ele><time>2020-08-19T11:35:34Z</time><name>PT4177</name></trkpt>
<trkpt lat="53.229407" lon="-1.991757"><ele>496</ele><time>2020-08-19T11:35:37Z</time><name>PT4178</name></trkpt>
<trkpt lat="53.229375" lon="-1.991688"><ele>497</ele><time>2020-08-19T11:35:41Z</time><name>PT4179</name></trkpt>
<trkpt lat="53.229358" lon="-1.991631"><ele>496</ele><time>2020-08-19T11:35:44Z</time><name>PT4180</name></trkpt>
<trkpt lat="53.229338" lon="-1.991587"><ele>496</ele><time>2020-08-19T11:35:47Z</time><name>PT4181</name></trkpt>
<trkpt lat="53.229320" lon="-1.991532"><ele>497</ele><time>2020-08-19T11:35:50Z</time><name>PT4182</name></trkpt>
<trkpt lat="53.229296" lon="-1.991458"><ele>496</ele><time>2020-08-19T11:35:53Z</time><name>PT4183</name></trkpt>
<trkpt lat="53.229278" lon="-1.991398"><ele>496</ele><time>2020-08-19T11:35:56Z</time><name>PT4184</name></trkpt>
<trkpt lat="53.229259" lon="-1.991336"><ele>496</ele><time>2020-08-19T11:35:59Z</time><name>PT4185</name></trkpt>
<trkpt lat="53.229229" lon="-1.991272"><ele>495</ele><time>2020-08-19T11:36:04Z</time><name>PT4186</name></trkpt>
<trkpt lat="53.229201" lon="-1.991194"><ele>494</ele><time>2020-08-19T11:36:08Z</time><name>PT4187</name></trkpt>
<trkpt lat="53.229178" lon="-1.991138"><ele>493</ele><time>2020-08-19T11:36:11Z</time><name>PT4188</name></trkpt>
<trkpt lat="53.229159" lon="-1.991081"><ele>493</ele><time>2020-08-19T11:36:14Z</time><name>PT4189</name></trkpt>
<trkpt lat="53.229132" lon="-1.991011"><ele>493</ele><time>2020-08-19T11:36:17Z</time><name>PT4190</name></trkpt>
<trkpt lat="53.229123" lon="-1.990953"><ele>492</ele><time>2020-08-19T11:36:20Z</time><name>PT4191</name></trkpt>
<trkpt lat="53.229090" lon="-1.990875"><ele>492</ele><time>2020-08-19T11:36:25Z</time><name>PT4192</name></trkpt>
<trkpt lat="53.229069" lon="-1.990802"><ele>492</ele><time>2020-08-19T11:36:28Z</time><name>PT4193</name></trkpt>
<trkpt lat="53.229046" lon="-1.990738"><ele>492</ele><time>2020-08-19T11:36:31Z</time><name>PT4194</name></trkpt>
<trkpt lat="53.229016" lon="-1.990670"><ele>492</ele><time>2020-08-19T11:36:35Z</time><name>PT4195</name></trkpt>
<trkpt lat="53.228994" lon="-1.990603"><ele>492</ele><time>2020-08-19T11:36:38Z</time><name>PT4196</name></trkpt>
<trkpt lat="53.228970" lon="-1.990549"><ele>491</ele><time>2020-08-19T11:36:41Z</time><name>PT4197</name></trkpt>
<trkpt lat="53.228942" lon="-1.990471"><ele>492</ele><time>2020-08-19T11:36:44Z</time><name>PT4198</name></trkpt>
<trkpt lat="53.228919" lon="-1.990418"><ele>491</ele><time>2020-08-19T11:36:47Z</time><name>PT4199</name></trkpt>
<trkpt lat="53.228888" lon="-1.990345"><ele>490</ele><time>2020-08-19T11:36:52Z</time><name>PT4200</name></trkpt>
<trkpt lat="53.228860" lon="-1.990269"><ele>489</ele><time>2020-08-19T11:36:56Z</time><name>PT4201</name></trkpt>
<trkpt lat="53.228836" lon="-1.990186"><ele>489</ele><time>2020-08-19T11:36:59Z</time><name>PT4202</name></trkpt>
<trkpt lat="53.228808" lon="-1.990107"><ele>489</ele><time>2020-08-19T11:37:04Z</time><name>PT4203</name></trkpt>
<trkpt lat="53.228788" lon="-1.990047"><ele>489</ele><time>2020-08-19T11:37:07Z</time><name>PT4204</name></trkpt>
<trkpt lat="53.228762" lon="-1.989962"><ele>489</ele><time>2020-08-19T11:37:11Z</time><name>PT4205</name></trkpt>
<trkpt lat="53.228747" lon="-1.989897"><ele>489</ele><time>2020-08-19T11:37:14Z</time><name>PT4206</name></trkpt>
<trkpt lat="53.228723" lon="-1.989839"><ele>490</ele><time>2020-08-19T11:37:17Z</time><name>PT4207</name></trkpt>
<trkpt lat="53.228703" lon="-1.989756"><ele>490</ele><time>2020-08-19T11:37:20Z</time><name>PT4208</name></trkpt>
<trkpt lat="53.228683" lon="-1.989689"><ele>490</ele><time>2020-08-19T11:37:23Z</time><name>PT4209</name></trkpt>
<trkpt lat="53.228658" lon="-1.989625"><ele>490</ele><time>2020-08-19T11:37:26Z</time><name>PT4210</name></trkpt>
<trkpt lat="53.228621" lon="-1.989549"><ele>490</ele><time>2020-08-19T11:37:31Z</time><name>PT4211</name></trkpt>
<trkpt lat="53.228598" lon="-1.989489"><ele>490</ele><time>2020-08-19T11:37:34Z</time><name>PT4212</name></trkpt>
<trkpt lat="53.228568" lon="-1.989416"><ele>490</ele><time>2020-08-19T11:37:38Z</time><name>PT4213</name></trkpt>
<trkpt lat="53.228551" lon="-1.989354"><ele>489</ele><time>2020-08-19T11:37:41Z</time><name>PT4214</name></trkpt>
<trkpt lat="53.228535" lon="-1.989294"><ele>488</ele><time>2020-08-19T11:37:44Z</time><name>PT4215</name></trkpt>
<trkpt lat="53.228515" lon="-1.989214"><ele>487</ele><time>2020-08-19T11:37:47Z</time><name>PT4216</name></trkpt>
<trkpt lat="53.228495" lon="-1.989135"><ele>487</ele><time>2020-08-19T11:37:52Z</time><name>PT4217</name></trkpt>
<trkpt lat="53.228483" lon="-1.989078"><ele>487</ele><time>2020-08-19T11:37:55Z</time><name>PT4218</name></trkpt>
<trkpt lat="53.228462" lon="-1.988999"><ele>486</ele><time>2020-08-19T11:37:59Z</time><name>PT4219</name></trkpt>
<trkpt lat="53.228444" lon="-1.988922"><ele>485</ele><time>2020-08-19T11:38:02Z</time><name>PT4220</name></trkpt>
<trkpt lat="53.228426" lon="-1.988848"><ele>485</ele><time>2020-08-19T11:38:07Z</time><name>PT4221</name></trkpt>
<trkpt lat="53.228408" lon="-1.988789"><ele>484</ele><time>2020-08-19T11:38:10Z</time><name>PT4222</name></trkpt>
<trkpt lat="53.228393" lon="-1.988730"><ele>484</ele><time>2020-08-19T11:38:13Z</time><name>PT4223</name></trkpt>
<trkpt lat="53.228375" lon="-1.988664"><ele>483</ele><time>2020-08-19T11:38:17Z</time><name>PT4224</name></trkpt>
<trkpt lat="53.228355" lon="-1.988604"><ele>484</ele><time>2020-08-19T11:38:20Z</time><name>PT4225</name></trkpt>
<trkpt lat="53.228329" lon="-1.988528"><ele>483</ele><time>2020-08-19T11:38:23Z</time><name>PT4226</name></trkpt>
<trkpt lat="53.228309" lon="-1.988459"><ele>483</ele><time>2020-08-19T11:38:28Z</time><name>PT4227</name></trkpt>
<trkpt lat="53.228297" lon="-1.988393"><ele>483</ele><time>2020-08-19T11:38:31Z</time><name>PT4228</name></trkpt>
<trkpt lat="53.228270" lon="-1.988315"><ele>483</ele><time>2020-08-19T11:38:35Z</time><name>PT4229</name></trkpt>
<trkpt lat="53.228249" lon="-1.988246"><ele>482</ele><time>2020-08-19T11:38:38Z</time><name>PT4230</name></trkpt>
<trkpt lat="53.228229" lon="-1.988194"><ele>482</ele><time>2020-08-19T11:38:41Z</time><name>PT4231</name></trkpt>
<trkpt lat="53.228197" lon="-1.988114"><ele>482</ele><time>2020-08-19T11:38:46Z</time><name>PT4232</name></trkpt>
<trkpt lat="53.228168" lon="-1.988044"><ele>481</ele><time>2020-08-19T11:38:50Z</time><name>PT4233</name></trkpt>
<trkpt lat="53.228147" lon="-1.987984"><ele>481</ele><time>2020-08-19T11:38:53Z</time><name>PT4234</name></trkpt>
<trkpt lat="53.228112" lon="-1.987910"><ele>481</ele><time>2020-08-19T11:38:56Z</time><name>PT4235</name></trkpt>
<trkpt lat="53.228081" lon="-1.987840"><ele>480</ele><time>2020-08-19T11:39:01Z</time><name>PT4236</name></trkpt>
<trkpt lat="53.228040" lon="-1.987784"><ele>479</ele><time>2020-08-19T11:39:05Z</time><name>PT4237</name></trkpt>
<trkpt lat="53.227997" lon="-1.987718"><ele>479</ele><time>2020-08-19T11:39:08Z</time><name>PT4238</name></trkpt>
<trkpt lat="53.227957" lon="-1.987660"><ele>479</ele><time>2020-08-19T11:39:13Z</time><name>PT4239</name></trkpt>
<trkpt lat="53.227930" lon="-1.987605"><ele>478</ele><time>2020-08-19T11:39:16Z</time><name>PT4240</name></trkpt>
<trkpt lat="53.227899" lon="-1.987568"><ele>478</ele><time>2020-08-19T11:39:19Z</time><name>PT4241</name></trkpt>
<trkpt lat="53.227869" lon="-1.987506"><ele>477</ele><time>2020-08-19T11:39:23Z</time><name>PT4242</name></trkpt>
<trkpt lat="53.227831" lon="-1.987456"><ele>477</ele><time>2020-08-19T11:39:26Z</time><name>PT4243</name></trkpt>
<trkpt lat="53.227805" lon="-1.987402"><ele>477</ele><time>2020-08-19T11:39:29Z</time><name>PT4244</name></trkpt>
<trkpt lat="53.227762" lon="-1.987352"><ele>477</ele><time>2020-08-19T11:39:34Z</time><name>PT4245</name></trkpt>
<trkpt lat="53.227729" lon="-1.987309"><ele>476</ele><time>2020-08-19T11:39:37Z</time><name>PT4246</name></trkpt>
<trkpt lat="53.227686" lon="-1.987253"><ele>476</ele><time>2020-08-19T11:39:41Z</time><name>PT4247</name></trkpt>
<trkpt lat="53.227653" lon="-1.987213"><ele>475</ele><time>2020-08-19T11:39:44Z</time><name>PT4248</name></trkpt>
<trkpt lat="53.227617" lon="-1.987176"><ele>475</ele><time>2020-08-19T11:39:47Z</time><name>PT4249</name></trkpt>
<trkpt lat="53.227587" lon="-1.987148"><ele>474</ele><time>2020-08-19T11:39:50Z</time><name>PT4250</name></trkpt>
<trkpt lat="53.227543" lon="-1.987089"><ele>473</ele><time>2020-08-19T11:39:53Z</time><name>PT4251</name></trkpt>
<trkpt lat="53.227512" lon="-1.987059"><ele>473</ele><time>2020-08-19T11:39:56Z</time><name>PT4252</name></trkpt>
<trkpt lat="53.227467" lon="-1.987011"><ele>472</ele><time>2020-08-19T11:40:01Z</time><name>PT4253</name></trkpt>
<trkpt lat="53.227411" lon="-1.986975"><ele>473</ele><time>2020-08-19T11:40:05Z</time><name>PT4254</name></trkpt>
<trkpt lat="53.227379" lon="-1.986945"><ele>473</ele><time>2020-08-19T11:40:08Z</time><name>PT4255</name></trkpt>
<trkpt lat="53.227343" lon="-1.986927"><ele>473</ele><time>2020-08-19T11:40:11Z</time><name>PT4256</name></trkpt>
<trkpt lat="53.227292" lon="-1.986907"><ele>473</ele><time>2020-08-19T11:40:14Z</time><name>PT4257</name></trkpt>
<trkpt lat="53.227254" lon="-1.986906"><ele>472</ele><time>2020-08-19T11:40:17Z</time><name>PT4258</name></trkpt>
<trkpt lat="53.227205" lon="-1.986891"><ele>471</ele><time>2020-08-19T11:40:22Z</time><name>PT4259</name></trkpt>
<trkpt lat="53.227160" lon="-1.986874"><ele>471</ele><time>2020-08-19T11:40:26Z</time><name>PT4260</name></trkpt>
<trkpt lat="53.227133" lon="-1.986857"><ele>470</ele><time>2020-08-19T11:40:29Z</time><name>PT4261</name></trkpt>
<trkpt lat="53.227106" lon="-1.986850"><ele>468</ele><time>2020-08-19T11:40:34Z</time><name>PT4262</name></trkpt>
<trkpt lat="53.227064" lon="-1.986856"><ele>468</ele><time>2020-08-19T11:40:38Z</time><name>PT4263</name></trkpt>
<trkpt lat="53.227034" lon="-1.986836"><ele>467</ele><time>2020-08-19T11:40:41Z</time><name>PT4264</name></trkpt>
<trkpt lat="53.227005" lon="-1.986819"><ele>468</ele><time>2020-08-19T11:40:44Z</time><name>PT4265</name></trkpt>
<trkpt lat="53.227006" lon="-1.986806"><ele>467</ele><time>2020-08-19T11:40:47Z</time><name>PT4266</name></trkpt>
<trkpt lat="53.227000" lon="-1.986813"><ele>467</ele><time>2020-08-19T11:40:52Z</time><name>PT4267</name></trkpt>
<trkpt lat="53.226979" lon="-1.986817"><ele>468</ele><time>2020-08-19T11:40:56Z</time><name>PT4268</name></trkpt>
<trkpt lat="53.226966" lon="-1.986815"><ele>468</ele><time>2020-08-19T11:40:59Z</time><name>PT4269</name></trkpt>
<trkpt lat="53.226948" lon="-1.986797"><ele>468</ele><time>2020-08-19T11:41:02Z</time><name>PT4270</name></trkpt>
<trkpt lat="53.226939" lon="-1.986795"><ele>467</ele><time>2020-08-19T11:41:05Z</time><name>PT4271</name></trkpt>
<trkpt lat="53.226918" lon="-1.986787"><ele>467</ele><time>2020-08-19T11:41:10Z</time><name>PT4272</name></trkpt>
<trkpt lat="53.226894" lon="-1.986772"><ele>466</ele><time>2020-08-19T11:41:14Z</time><name>PT4273</name></trkpt>
<trkpt lat="53.226878" lon="-1.986767"><ele>465</ele><time>2020-08-19T11:41:17Z</time><name>PT4274</name></trkpt>
<trkpt lat="53.226865" lon="-1.986731"><ele>464</ele><time>2020-08-19T11:41:20Z</time><name>PT4275</name></trkpt>
<trkpt lat="53.226849" lon="-1.986711"><ele>463</ele><time>2020-08-19T11:41:24Z</time><name>PT4276</name></trkpt>
<trkpt lat="53.226826" lon="-1.986725"><ele>462</ele><time>2020-08-19T11:41:28Z</time><name>PT4277</name></trkpt>
<trkpt lat="53.226808" lon="-1.986726"><ele>461</ele><time>2020-08-19T11:41:31Z</time><name>PT4278</name></trkpt>
<trkpt lat="53.226788" lon="-1.986727"><ele>460</ele><time>2020-08-19T11:41:34Z</time><name>PT4279</name></trkpt>
<trkpt lat="53.226770" lon="-1.986735"><ele>459</ele><time>2020-08-19T11:41:37Z</time><name>PT4280</name></trkpt>
<trkpt lat="53.226753" lon="-1.986737"><ele>458</ele><time>2020-08-19T11:41:40Z</time><name>PT4281</name></trkpt>
<trkpt lat="53.226741" lon="-1.986751"><ele>457</ele><time>2020-08-19T11:41:44Z</time><name>PT4282</name></trkpt>
<trkpt lat="53.226724" lon="-1.986748"><ele>457</ele><time>2020-08-19T11:41:47Z</time><name>PT4283</name></trkpt>
<trkpt lat="53.226704" lon="-1.986766"><ele>456</ele><time>2020-08-19T11:41:52Z</time><name>PT4284</name></trkpt>
<trkpt lat="53.226693" lon="-1.986785"><ele>455</ele><time>2020-08-19T11:41:55Z</time><name>PT4285</name></trkpt>
<trkpt lat="53.226673" lon="-1.986796"><ele>455</ele><time>2020-08-19T11:41:59Z</time><name>PT4286</name></trkpt>
<trkpt lat="53.226659" lon="-1.986800"><ele>453</ele><time>2020-08-19T11:42:02Z</time><name>PT4287</name></trkpt>
<trkpt lat="53.226649" lon="-1.986820"><ele>451</ele><time>2020-08-19T11:42:05Z</time><name>PT4288</name></trkpt>
<trkpt lat="53.226631" lon="-1.986846"><ele>449</ele><time>2020-08-19T11:42:10Z</time><name>PT4289</name></trkpt>
<trkpt lat="53.226611" lon="-1.986827"><ele>449</ele><time>2020-08-19T11:42:13Z</time><name>PT4290</name></trkpt>
<trkpt lat="53.226598" lon="-1.986834"><ele>448</ele><time>2020-08-19T11:42:16Z</time><name>PT4291</name></trkpt>
<trkpt lat="53.226584" lon="-1.986817"><ele>447</ele><time>2020-08-19T11:42:20Z</time><name>PT4292</name></trkpt>
<trkpt lat="53.226576" lon="-1.986794"><ele>446</ele><time>2020-08-19T11:42:23Z</time><name>PT4293</name></trkpt>
<trkpt lat="53.226555" lon="-1.986802"><ele>446</ele><time>2020-08-19T11:42:28Z</time><name>PT4294</name></trkpt>
<trkpt lat="53.226545" lon="-1.986827"><ele>446</ele><time>2020-08-19T11:42:31Z</time><name>PT4295</name></trkpt>
<trkpt lat="53.226531" lon="-1.986858"><ele>445</ele><time>2020-08-19T11:42:35Z</time><name>PT4296</name></trkpt>
<trkpt lat="53.226508" lon="-1.986884"><ele>445</ele><time>2020-08-19T11:42:38Z</time><name>PT4297</name></trkpt>
<trkpt lat="53.226477" lon="-1.986926"><ele>444</ele><time>2020-08-19T11:42:41Z</time><name>PT4298</name></trkpt>
<trkpt lat="53.226434" lon="-1.986976"><ele>443</ele><time>2020-08-19T11:42:46Z</time><name>PT4299</name></trkpt>
<trkpt lat="53.226414" lon="-1.986992"><ele>443</ele><time>2020-08-19T11:42:50Z</time><name>PT4300</name></trkpt>
<trkpt lat="53.226413" lon="-1.986994"><ele>442</ele><time>2020-08-19T11:42:53Z</time><name>PT4301</name></trkpt>
<trkpt lat="53.226413" lon="-1.986995"><ele>442</ele><time>2020-08-19T11:42:56Z</time><name>PT4302</name></trkpt>
<trkpt lat="53.226409" lon="-1.987002"><ele>441</ele><time>2020-08-19T11:43:02Z</time><name>PT4303</name></trkpt>
<trkpt lat="53.226400" lon="-1.987004"><ele>440</ele><time>2020-08-19T11:43:07Z</time><name>PT4304</name></trkpt>
<trkpt lat="53.226399" lon="-1.987005"><ele>440</ele><time>2020-08-19T11:43:10Z</time><name>PT4305</name></trkpt>
<trkpt lat="53.226399" lon="-1.987000"><ele>440</ele><time>2020-08-19T11:43:17Z</time><name>PT4306</name></trkpt>
<trkpt lat="53.226380" lon="-1.986961"><ele>440</ele><time>2020-08-19T11:43:20Z</time><name>PT4307</name></trkpt>
<trkpt lat="53.226366" lon="-1.986949"><ele>439</ele><time>2020-08-19T11:43:23Z</time><name>PT4308</name></trkpt>
<trkpt lat="53.226355" lon="-1.986946"><ele>439</ele><time>2020-08-19T11:43:26Z</time><name>PT4309</name></trkpt>
<trkpt lat="53.226328" lon="-1.986949"><ele>438</ele><time>2020-08-19T11:43:31Z</time><name>PT4310</name></trkpt>
<trkpt lat="53.226312" lon="-1.986956"><ele>438</ele><time>2020-08-19T11:43:34Z</time><name>PT4311</name></trkpt>
<trkpt lat="53.226305" lon="-1.986963"><ele>437</ele><time>2020-08-19T11:43:38Z</time><name>PT4312</name></trkpt>
<trkpt lat="53.226305" lon="-1.986964"><ele>438</ele><time>2020-08-19T11:43:41Z</time><name>PT4313</name></trkpt>
<trkpt lat="53.226304" lon="-1.986960"><ele>438</ele><time>2020-08-19T11:43:47Z</time><name>PT4314</name></trkpt>
<trkpt lat="53.226299" lon="-1.986981"><ele>438</ele><time>2020-08-19T11:43:59Z</time><name>PT4315</name></trkpt>
<trkpt lat="53.226291" lon="-1.987008"><ele>436</ele><time>2020-08-19T11:44:02Z</time><name>PT4316</name></trkpt>
<trkpt lat="53.226262" lon="-1.987014"><ele>436</ele><time>2020-08-19T11:44:05Z</time><name>PT4317</name></trkpt>
<trkpt lat="53.226249" lon="-1.987042"><ele>435</ele><time>2020-08-19T11:44:10Z</time><name>PT4318</name></trkpt>
<trkpt lat="53.226234" lon="-1.987052"><ele>434</ele><time>2020-08-19T11:44:14Z</time><name>PT4319</name></trkpt>
<trkpt lat="53.226219" lon="-1.987080"><ele>434</ele><time>2020-08-19T11:44:17Z</time><name>PT4320</name></trkpt>
<trkpt lat="53.226203" lon="-1.987120"><ele>433</ele><time>2020-08-19T11:44:21Z</time><name>PT4321</name></trkpt>
<trkpt lat="53.226195" lon="-1.987157"><ele>432</ele><time>2020-08-19T11:44:24Z</time><name>PT4322</name></trkpt>
<trkpt lat="53.226174" lon="-1.987200"><ele>431</ele><time>2020-08-19T11:44:28Z</time><name>PT4323</name></trkpt>
<trkpt lat="53.226155" lon="-1.987245"><ele>430</ele><time>2020-08-19T11:44:32Z</time><name>PT4324</name></trkpt>
<trkpt lat="53.226127" lon="-1.987268"><ele>429</ele><time>2020-08-19T11:44:35Z</time><name>PT4325</name></trkpt>
<trkpt lat="53.226097" lon="-1.987275"><ele>428</ele><time>2020-08-19T11:44:40Z</time><name>PT4326</name></trkpt>
<trkpt lat="53.226065" lon="-1.987291"><ele>427</ele><time>2020-08-19T11:44:44Z</time><name>PT4327</name></trkpt>
<trkpt lat="53.226034" lon="-1.987300"><ele>426</ele><time>2020-08-19T11:44:47Z</time><name>PT4328</name></trkpt>
<trkpt lat="53.225995" lon="-1.987303"><ele>425</ele><time>2020-08-19T11:44:52Z</time><name>PT4329</name></trkpt>
<trkpt lat="53.225970" lon="-1.987285"><ele>424</ele><time>2020-08-19T11:44:56Z</time><name>PT4330</name></trkpt>
<trkpt lat="53.225953" lon="-1.987299"><ele>424</ele><time>2020-08-19T11:44:59Z</time><name>PT4331</name></trkpt>
<trkpt lat="53.225937" lon="-1.987306"><ele>423</ele><time>2020-08-19T11:45:02Z</time><name>PT4332</name></trkpt>
<trkpt lat="53.225898" lon="-1.987322"><ele>422</ele><time>2020-08-19T11:45:07Z</time><name>PT4333</name></trkpt>
<trkpt lat="53.225865" lon="-1.987331"><ele>421</ele><time>2020-08-19T11:45:11Z</time><name>PT4334</name></trkpt>
<trkpt lat="53.225861" lon="-1.987330"><ele>422</ele><time>2020-08-19T11:45:14Z</time><name>PT4335</name></trkpt>
<trkpt lat="53.225861" lon="-1.987329"><ele>422</ele><time>2020-08-19T11:45:26Z</time><name>PT4336</name></trkpt>
<trkpt lat="53.225841" lon="-1.987366"><ele>421</ele><time>2020-08-19T11:45:29Z</time><name>PT4337</name></trkpt>
<trkpt lat="53.225823" lon="-1.987399"><ele>422</ele><time>2020-08-19T11:45:32Z</time><name>PT4338</name></trkpt>
<trkpt lat="53.225804" lon="-1.987427"><ele>420</ele><time>2020-08-19T11:45:37Z</time><name>PT4339</name></trkpt>
<trkpt lat="53.225788" lon="-1.987465"><ele>420</ele><time>2020-08-19T11:45:40Z</time><name>PT4340</name></trkpt>
<trkpt lat="53.225772" lon="-1.987484"><ele>421</ele><time>2020-08-19T11:45:44Z</time><name>PT4341</name></trkpt>
<trkpt lat="53.225759" lon="-1.987514"><ele>420</ele><time>2020-08-19T11:45:47Z</time><name>PT4342</name></trkpt>
<trkpt lat="53.225758" lon="-1.987518"><ele>420</ele><time>2020-08-19T11:45:50Z</time><name>PT4343</name></trkpt>
<trkpt lat="53.225750" lon="-1.987515"><ele>420</ele><time>2020-08-19T11:45:53Z</time><name>PT4344</name></trkpt>
<trkpt lat="53.225755" lon="-1.987513"><ele>420</ele><time>2020-08-19T11:45:58Z</time><name>PT4345</name></trkpt>
<trkpt lat="53.225738" lon="-1.987537"><ele>419</ele><time>2020-08-19T11:46:01Z</time><name>PT4346</name></trkpt>
<trkpt lat="53.225726" lon="-1.987554"><ele>419</ele><time>2020-08-19T11:46:05Z</time><name>PT4347</name></trkpt>
<trkpt lat="53.225723" lon="-1.987557"><ele>419</ele><time>2020-08-19T11:46:08Z</time><name>PT4348</name></trkpt>
<trkpt lat="53.225708" lon="-1.987615"><ele>418</ele><time>2020-08-19T11:46:12Z</time><name>PT4349</name></trkpt>
<trkpt lat="53.225677" lon="-1.987677"><ele>417</ele><time>2020-08-19T11:46:16Z</time><name>PT4350</name></trkpt>
<trkpt lat="53.225647" lon="-1.987703"><ele>417</ele><time>2020-08-19T11:46:19Z</time><name>PT4351</name></trkpt>
<trkpt lat="53.225607" lon="-1.987751"><ele>417</ele><time>2020-08-19T11:46:23Z</time><name>PT4352</name></trkpt>
<trkpt lat="53.225567" lon="-1.987797"><ele>416</ele><time>2020-08-19T11:46:26Z</time><name>PT4353</name></trkpt>
<trkpt lat="53.225524" lon="-1.987833"><ele>416</ele><time>2020-08-19T11:46:31Z</time><name>PT4354</name></trkpt>
<trkpt lat="53.225478" lon="-1.987870"><ele>416</ele><time>2020-08-19T11:46:35Z</time><name>PT4355</name></trkpt>
<trkpt lat="53.225444" lon="-1.987904"><ele>416</ele><time>2020-08-19T11:46:38Z</time><name>PT4356</name></trkpt>
<trkpt lat="53.225400" lon="-1.987944"><ele>416</ele><time>2020-08-19T11:46:41Z</time><name>PT4357</name></trkpt>
<trkpt lat="53.225351" lon="-1.987984"><ele>415</ele><time>2020-08-19T11:46:46Z</time><name>PT4358</name></trkpt>
<trkpt lat="53.225317" lon="-1.988019"><ele>415</ele><time>2020-08-19T11:46:49Z</time><name>PT4359</name></trkpt>
<trkpt lat="53.225266" lon="-1.988055"><ele>414</ele><time>2020-08-19T11:46:53Z</time><name>PT4360</name></trkpt>
<trkpt lat="53.225235" lon="-1.988091"><ele>414</ele><time>2020-08-19T11:46:56Z</time><name>PT4361</name></trkpt>
<trkpt lat="53.225187" lon="-1.988123"><ele>413</ele><time>2020-08-19T11:46:59Z</time><name>PT4362</name></trkpt>
<trkpt lat="53.225151" lon="-1.988151"><ele>413</ele><time>2020-08-19T11:47:03Z</time><name>PT4363</name></trkpt>
<trkpt lat="53.225118" lon="-1.988179"><ele>412</ele><time>2020-08-19T11:47:06Z</time><name>PT4364</name></trkpt>
<trkpt lat="53.225086" lon="-1.988200"><ele>412</ele><time>2020-08-19T11:47:09Z</time><name>PT4365</name></trkpt>
<trkpt lat="53.225038" lon="-1.988227"><ele>411</ele><time>2020-08-19T11:47:13Z</time><name>PT4366</name></trkpt>
<trkpt lat="53.225005" lon="-1.988245"><ele>411</ele><time>2020-08-19T11:47:16Z</time><name>PT4367</name></trkpt>
<trkpt lat="53.224967" lon="-1.988263"><ele>411</ele><time>2020-08-19T11:47:19Z</time><name>PT4368</name></trkpt>
<trkpt lat="53.224921" lon="-1.988291"><ele>410</ele><time>2020-08-19T11:47:23Z</time><name>PT4369</name></trkpt>
<trkpt lat="53.224880" lon="-1.988310"><ele>410</ele><time>2020-08-19T11:47:26Z</time><name>PT4370</name></trkpt>
<trkpt lat="53.224829" lon="-1.988332"><ele>410</ele><time>2020-08-19T11:47:29Z</time><name>PT4371</name></trkpt>
<trkpt lat="53.224790" lon="-1.988352"><ele>410</ele><time>2020-08-19T11:47:32Z</time><name>PT4372</name></trkpt>
<trkpt lat="53.224753" lon="-1.988376"><ele>409</ele><time>2020-08-19T11:47:35Z</time><name>PT4373</name></trkpt>
<trkpt lat="53.224708" lon="-1.988416"><ele>409</ele><time>2020-08-19T11:47:40Z</time><name>PT4374</name></trkpt>
<trkpt lat="53.224675" lon="-1.988434"><ele>409</ele><time>2020-08-19T11:47:43Z</time><name>PT4375</name></trkpt>
<trkpt lat="53.224639" lon="-1.988466"><ele>408</ele><time>2020-08-19T11:47:46Z</time><name>PT4376</name></trkpt>
<trkpt lat="53.224599" lon="-1.988488"><ele>407</ele><time>2020-08-19T11:47:49Z</time><name>PT4377</name></trkpt>
<trkpt lat="53.224549" lon="-1.988516"><ele>407</ele><time>2020-08-19T11:47:53Z</time><name>PT4378</name></trkpt>
<trkpt lat="53.224506" lon="-1.988531"><ele>407</ele><time>2020-08-19T11:47:56Z</time><name>PT4379</name></trkpt>
<trkpt lat="53.224457" lon="-1.988567"><ele>407</ele><time>2020-08-19T11:47:59Z</time><name>PT4380</name></trkpt>
<trkpt lat="53.224418" lon="-1.988592"><ele>407</ele><time>2020-08-19T11:48:02Z</time><name>PT4381</name></trkpt>
<trkpt lat="53.224377" lon="-1.988629"><ele>406</ele><time>2020-08-19T11:48:07Z</time><name>PT4382</name></trkpt>
<trkpt lat="53.224341" lon="-1.988657"><ele>405</ele><time>2020-08-19T11:48:10Z</time><name>PT4383</name></trkpt>
<trkpt lat="53.224307" lon="-1.988690"><ele>405</ele><time>2020-08-19T11:48:13Z</time><name>PT4384</name></trkpt>
<trkpt lat="53.224256" lon="-1.988729"><ele>404</ele><time>2020-08-19T11:48:17Z</time><name>PT4385</name></trkpt>
<trkpt lat="53.224222" lon="-1.988758"><ele>404</ele><time>2020-08-19T11:48:20Z</time><name>PT4386</name></trkpt>
<trkpt lat="53.224174" lon="-1.988801"><ele>403</ele><time>2020-08-19T11:48:23Z</time><name>PT4387</name></trkpt>
<trkpt lat="53.224140" lon="-1.988835"><ele>402</ele><time>2020-08-19T11:48:26Z</time><name>PT4388</name></trkpt>
<trkpt lat="53.224111" lon="-1.988869"><ele>402</ele><time>2020-08-19T11:48:29Z</time><name>PT4389</name></trkpt>
<trkpt lat="53.224068" lon="-1.988912"><ele>401</ele><time>2020-08-19T11:48:34Z</time><name>PT4390</name></trkpt>
<trkpt lat="53.224022" lon="-1.988953"><ele>401</ele><time>2020-08-19T11:48:38Z</time><name>PT4391</name></trkpt>
<trkpt lat="53.223976" lon="-1.988999"><ele>400</ele><time>2020-08-19T11:48:41Z</time><name>PT4392</name></trkpt>
<trkpt lat="53.223934" lon="-1.989052"><ele>399</ele><time>2020-08-19T11:48:46Z</time><name>PT4393</name></trkpt>
<trkpt lat="53.223905" lon="-1.989093"><ele>399</ele><time>2020-08-19T11:48:49Z</time><name>PT4394</name></trkpt>
<trkpt lat="53.223866" lon="-1.989152"><ele>398</ele><time>2020-08-19T11:48:53Z</time><name>PT4395</name></trkpt>
<trkpt lat="53.223826" lon="-1.989220"><ele>397</ele><time>2020-08-19T11:48:56Z</time><name>PT4396</name></trkpt>
<trkpt lat="53.223790" lon="-1.989284"><ele>396</ele><time>2020-08-19T11:49:01Z</time><name>PT4397</name></trkpt>
<trkpt lat="53.223753" lon="-1.989340"><ele>396</ele><time>2020-08-19T11:49:05Z</time><name>PT4398</name></trkpt>
<trkpt lat="53.223730" lon="-1.989390"><ele>395</ele><time>2020-08-19T11:49:08Z</time><name>PT4399</name></trkpt>
<trkpt lat="53.223690" lon="-1.989448"><ele>396</ele><time>2020-08-19T11:49:11Z</time><name>PT4400</name></trkpt>
<trkpt lat="53.223657" lon="-1.989497"><ele>397</ele><time>2020-08-19T11:49:14Z</time><name>PT4401</name></trkpt>
<trkpt lat="53.223626" lon="-1.989541"><ele>396</ele><time>2020-08-19T11:49:17Z</time><name>PT4402</name></trkpt>
<trkpt lat="53.223596" lon="-1.989610"><ele>396</ele><time>2020-08-19T11:49:22Z</time><name>PT4403</name></trkpt>
<trkpt lat="53.223567" lon="-1.989654"><ele>396</ele><time>2020-08-19T11:49:25Z</time><name>PT4404</name></trkpt>
<trkpt lat="53.223542" lon="-1.989708"><ele>396</ele><time>2020-08-19T11:49:28Z</time><name>PT4405</name></trkpt>
<trkpt lat="53.223515" lon="-1.989757"><ele>396</ele><time>2020-08-19T11:49:32Z</time><name>PT4406</name></trkpt>
<trkpt lat="53.223477" lon="-1.989799"><ele>396</ele><time>2020-08-19T11:49:35Z</time><name>PT4407</name></trkpt>
<trkpt lat="53.223448" lon="-1.989855"><ele>395</ele><time>2020-08-19T11:49:40Z</time><name>PT4408</name></trkpt>
<trkpt lat="53.223424" lon="-1.989901"><ele>394</ele><time>2020-08-19T11:49:43Z</time><name>PT4409</name></trkpt>
<trkpt lat="53.223395" lon="-1.989934"><ele>394</ele><time>2020-08-19T11:49:46Z</time><name>PT4410</name></trkpt>
<trkpt lat="53.223378" lon="-1.989952"><ele>393</ele><time>2020-08-19T11:49:50Z</time><name>PT4411</name></trkpt>
<trkpt lat="53.223360" lon="-1.989963"><ele>393</ele><time>2020-08-19T11:49:53Z</time><name>PT4412</name></trkpt>
<trkpt lat="53.223335" lon="-1.989978"><ele>392</ele><time>2020-08-19T11:49:56Z</time><name>PT4413</name></trkpt>
<trkpt lat="53.223324" lon="-1.989989"><ele>392</ele><time>2020-08-19T11:49:59Z</time><name>PT4414</name></trkpt>
<trkpt lat="53.223310" lon="-1.990019"><ele>392</ele><time>2020-08-19T11:50:04Z</time><name>PT4415</name></trkpt>
<trkpt lat="53.223292" lon="-1.990052"><ele>391</ele><time>2020-08-19T11:50:08Z</time><name>PT4416</name></trkpt>
<trkpt lat="53.223273" lon="-1.990088"><ele>391</ele><time>2020-08-19T11:50:11Z</time><name>PT4417</name></trkpt>
<trkpt lat="53.223237" lon="-1.990133"><ele>391</ele><time>2020-08-19T11:50:14Z</time><name>PT4418</name></trkpt>
<trkpt lat="53.223198" lon="-1.990191"><ele>390</ele><time>2020-08-19T11:50:19Z</time><name>PT4419</name></trkpt>
<trkpt lat="53.223168" lon="-1.990254"><ele>389</ele><time>2020-08-19T11:50:23Z</time><name>PT4420</name></trkpt>
<trkpt lat="53.223147" lon="-1.990290"><ele>389</ele><time>2020-08-19T11:50:26Z</time><name>PT4421</name></trkpt>
<trkpt lat="53.223103" lon="-1.990321"><ele>388</ele><time>2020-08-19T11:50:29Z</time><name>PT4422</name></trkpt>
<trkpt lat="53.223063" lon="-1.990354"><ele>387</ele><time>2020-08-19T11:50:34Z</time><name>PT4423</name></trkpt>
<trkpt lat="53.223021" lon="-1.990381"><ele>387</ele><time>2020-08-19T11:50:38Z</time><name>PT4424</name></trkpt>
<trkpt lat="53.222997" lon="-1.990386"><ele>388</ele><time>2020-08-19T11:50:41Z</time><name>PT4425</name></trkpt>
<trkpt lat="53.222977" lon="-1.990396"><ele>387</ele><time>2020-08-19T11:50:44Z</time><name>PT4426</name></trkpt>
<trkpt lat="53.222936" lon="-1.990409"><ele>388</ele><time>2020-08-19T11:50:47Z</time><name>PT4427</name></trkpt>
<trkpt lat="53.222892" lon="-1.990420"><ele>387</ele><time>2020-08-19T11:50:52Z</time><name>PT4428</name></trkpt>
<trkpt lat="53.222852" lon="-1.990406"><ele>387</ele><time>2020-08-19T11:50:55Z</time><name>PT4429</name></trkpt>
<trkpt lat="53.222806" lon="-1.990395"><ele>387</ele><time>2020-08-19T11:50:58Z</time><name>PT4430</name></trkpt>
<trkpt lat="53.222767" lon="-1.990401"><ele>388</ele><time>2020-08-19T11:51:01Z</time><name>PT4431</name></trkpt>
<trkpt lat="53.222734" lon="-1.990403"><ele>388</ele><time>2020-08-19T11:51:05Z</time><name>PT4432</name></trkpt>
<trkpt lat="53.222709" lon="-1.990403"><ele>389</ele><time>2020-08-19T11:51:08Z</time><name>PT4433</name></trkpt>
<trkpt lat="53.222688" lon="-1.990401"><ele>389</ele><time>2020-08-19T11:51:11Z</time><name>PT4434</name></trkpt>
<trkpt lat="53.222687" lon="-1.990399"><ele>388</ele><time>2020-08-19T11:51:16Z</time><name>PT4435</name></trkpt>
<trkpt lat="53.222686" lon="-1.990398"><ele>388</ele><time>2020-08-19T11:51:20Z</time><name>PT4436</name></trkpt>
<trkpt lat="53.222672" lon="-1.990415"><ele>388</ele><time>2020-08-19T11:51:23Z</time><name>PT4437</name></trkpt>
<trkpt lat="53.222636" lon="-1.990401"><ele>388</ele><time>2020-08-19T11:51:26Z</time><name>PT4438</name></trkpt>
<trkpt lat="53.222582" lon="-1.990388"><ele>388</ele><time>2020-08-19T11:51:31Z</time><name>PT4439</name></trkpt>
<trkpt lat="53.222544" lon="-1.990386"><ele>388</ele><time>2020-08-19T11:51:34Z</time><name>PT4440</name></trkpt>
<trkpt lat="53.222500" lon="-1.990379"><ele>388</ele><time>2020-08-19T11:51:38Z</time><name>PT4441</name></trkpt>
<trkpt lat="53.222448" lon="-1.990367"><ele>388</ele><time>2020-08-19T11:51:41Z</time><name>PT4442</name></trkpt>
<trkpt lat="53.222409" lon="-1.990361"><ele>388</ele><time>2020-08-19T11:51:44Z</time><name>PT4443</name></trkpt>
<trkpt lat="53.222367" lon="-1.990371"><ele>387</ele><time>2020-08-19T11:51:47Z</time><name>PT4444</name></trkpt>
<trkpt lat="53.222331" lon="-1.990377"><ele>388</ele><time>2020-08-19T11:51:51Z</time><name>PT4445</name></trkpt>
<trkpt lat="53.222281" lon="-1.990378"><ele>388</ele><time>2020-08-19T11:51:55Z</time><name>PT4446</name></trkpt>
<trkpt lat="53.222243" lon="-1.990377"><ele>387</ele><time>2020-08-19T11:51:58Z</time><name>PT4447</name></trkpt>
<trkpt lat="53.222210" lon="-1.990374"><ele>387</ele><time>2020-08-19T11:52:01Z</time><name>PT4448</name></trkpt>
<trkpt lat="53.222172" lon="-1.990368"><ele>387</ele><time>2020-08-19T11:52:04Z</time><name>PT4449</name></trkpt>
<trkpt lat="53.222135" lon="-1.990370"><ele>386</ele><time>2020-08-19T11:52:08Z</time><name>PT4450</name></trkpt>
<trkpt lat="53.222117" lon="-1.990370"><ele>387</ele><time>2020-08-19T11:52:12Z</time><name>PT4451</name></trkpt>
<trkpt lat="53.222099" lon="-1.990365"><ele>386</ele><time>2020-08-19T11:52:16Z</time><name>PT4452</name></trkpt>
<trkpt lat="53.222080" lon="-1.990363"><ele>386</ele><time>2020-08-19T11:52:19Z</time><name>PT4453</name></trkpt>
<trkpt lat="53.222063" lon="-1.990366"><ele>386</ele><time>2020-08-19T11:52:22Z</time><name>PT4454</name></trkpt>
<trkpt lat="53.222048" lon="-1.990358"><ele>385</ele><time>2020-08-19T11:52:25Z</time><name>PT4455</name></trkpt>
<trkpt lat="53.222018" lon="-1.990362"><ele>385</ele><time>2020-08-19T11:52:29Z</time><name>PT4456</name></trkpt>
<trkpt lat="53.221992" lon="-1.990350"><ele>383</ele><time>2020-08-19T11:52:32Z</time><name>PT4457</name></trkpt>
<trkpt lat="53.221963" lon="-1.990346"><ele>384</ele><time>2020-08-19T11:52:35Z</time><name>PT4458</name></trkpt>
<trkpt lat="53.221927" lon="-1.990339"><ele>384</ele><time>2020-08-19T11:52:40Z</time><name>PT4459</name></trkpt>
<trkpt lat="53.221900" lon="-1.990340"><ele>384</ele><time>2020-08-19T11:52:43Z</time><name>PT4460</name></trkpt>
<trkpt lat="53.221856" lon="-1.990348"><ele>383</ele><time>2020-08-19T11:52:47Z</time><name>PT4461</name></trkpt>
<trkpt lat="53.221825" lon="-1.990342"><ele>383</ele><time>2020-08-19T11:52:50Z</time><name>PT4462</name></trkpt>
<trkpt lat="53.221776" lon="-1.990335"><ele>384</ele><time>2020-08-19T11:52:53Z</time><name>PT4463</name></trkpt>
<trkpt lat="53.221744" lon="-1.990333"><ele>384</ele><time>2020-08-19T11:52:56Z</time><name>PT4464</name></trkpt>
<trkpt lat="53.221692" lon="-1.990318"><ele>384</ele><time>2020-08-19T11:53:01Z</time><name>PT4465</name></trkpt>
<trkpt lat="53.221655" lon="-1.990300"><ele>385</ele><time>2020-08-19T11:53:04Z</time><name>PT4466</name></trkpt>
<trkpt lat="53.221615" lon="-1.990281"><ele>384</ele><time>2020-08-19T11:53:08Z</time><name>PT4467</name></trkpt>
<trkpt lat="53.221574" lon="-1.990268"><ele>384</ele><time>2020-08-19T11:53:11Z</time><name>PT4468</name></trkpt>
<trkpt lat="53.221528" lon="-1.990252"><ele>384</ele><time>2020-08-19T11:53:15Z</time><name>PT4469</name></trkpt>
<trkpt lat="53.221480" lon="-1.990246"><ele>383</ele><time>2020-08-19T11:53:19Z</time><name>PT4470</name></trkpt>
<trkpt lat="53.221443" lon="-1.990240"><ele>383</ele><time>2020-08-19T11:53:22Z</time><name>PT4471</name></trkpt>
<trkpt lat="53.221409" lon="-1.990240"><ele>383</ele><time>2020-08-19T11:53:25Z</time><name>PT4472</name></trkpt>
<trkpt lat="53.221378" lon="-1.990254"><ele>383</ele><time>2020-08-19T11:53:28Z</time><name>PT4473</name></trkpt>
<trkpt lat="53.221331" lon="-1.990269"><ele>383</ele><time>2020-08-19T11:53:32Z</time><name>PT4474</name></trkpt>
<trkpt lat="53.221299" lon="-1.990277"><ele>382</ele><time>2020-08-19T11:53:35Z</time><name>PT4475</name></trkpt>
<trkpt lat="53.221259" lon="-1.990286"><ele>381</ele><time>2020-08-19T11:53:38Z</time><name>PT4476</name></trkpt>
<trkpt lat="53.221229" lon="-1.990296"><ele>382</ele><time>2020-08-19T11:53:41Z</time><name>PT4477</name></trkpt>
<trkpt lat="53.221186" lon="-1.990294"><ele>381</ele><time>2020-08-19T11:53:46Z</time><name>PT4478</name></trkpt>
<trkpt lat="53.221165" lon="-1.990296"><ele>381</ele><time>2020-08-19T11:53:49Z</time><name>PT4479</name></trkpt>
<trkpt lat="53.221153" lon="-1.990299"><ele>382</ele><time>2020-08-19T11:53:53Z</time><name>PT4480</name></trkpt>
<trkpt lat="53.221144" lon="-1.990317"><ele>383</ele><time>2020-08-19T11:53:56Z</time><name>PT4481</name></trkpt>
<trkpt lat="53.221136" lon="-1.990329"><ele>384</ele><time>2020-08-19T11:53:59Z</time><name>PT4482</name></trkpt>
<trkpt lat="53.221142" lon="-1.990338"><ele>383</ele><time>2020-08-19T11:54:02Z</time><name>PT4483</name></trkpt>
<trkpt lat="53.221119" lon="-1.990339"><ele>383</ele><time>2020-08-19T11:54:07Z</time><name>PT4484</name></trkpt>
<trkpt lat="53.221061" lon="-1.990351"><ele>383</ele><time>2020-08-19T11:54:11Z</time><name>PT4485</name></trkpt>
<trkpt lat="53.221014" lon="-1.990332"><ele>382</ele><time>2020-08-19T11:54:15Z</time><name>PT4486</name></trkpt>
<trkpt lat="53.220987" lon="-1.990312"><ele>381</ele><time>2020-08-19T11:54:18Z</time><name>PT4487</name></trkpt>
<trkpt lat="53.220960" lon="-1.990295"><ele>381</ele><time>2020-08-19T11:54:21Z</time><name>PT4488</name></trkpt>
<trkpt lat="53.220932" lon="-1.990284"><ele>380</ele><time>2020-08-19T11:54:24Z</time><name>PT4489</name></trkpt>
<trkpt lat="53.220892" lon="-1.990250"><ele>379</ele><time>2020-08-19T11:54:28Z</time><name>PT4490</name></trkpt>
<trkpt lat="53.220858" lon="-1.990229"><ele>378</ele><time>2020-08-19T11:54:31Z</time><name>PT4491</name></trkpt>
<trkpt lat="53.220825" lon="-1.990221"><ele>378</ele><time>2020-08-19T11:54:35Z</time><name>PT4492</name></trkpt>
<trkpt lat="53.220809" lon="-1.990220"><ele>379</ele><time>2020-08-19T11:54:38Z</time><name>PT4493</name></trkpt>
<trkpt lat="53.220766" lon="-1.990209"><ele>378</ele><time>2020-08-19T11:54:41Z</time><name>PT4494</name></trkpt>
<trkpt lat="53.220745" lon="-1.990202"><ele>378</ele><time>2020-08-19T11:54:44Z</time><name>PT4495</name></trkpt>
<trkpt lat="53.220701" lon="-1.990174"><ele>378</ele><time>2020-08-19T11:54:49Z</time><name>PT4496</name></trkpt>
<trkpt lat="53.220649" lon="-1.990139"><ele>376</ele><time>2020-08-19T11:54:53Z</time><name>PT4497</name></trkpt>
<trkpt lat="53.220611" lon="-1.990114"><ele>376</ele><time>2020-08-19T11:54:56Z</time><name>PT4498</name></trkpt>
<trkpt lat="53.220557" lon="-1.990099"><ele>374</ele><time>2020-08-19T11:54:59Z</time><name>PT4499</name></trkpt>
<trkpt lat="53.220512" lon="-1.990073"><ele>374</ele><time>2020-08-19T11:55:04Z</time><name>PT4500</name></trkpt>
<trkpt lat="53.220479" lon="-1.990054"><ele>374</ele><time>2020-08-19T11:55:07Z</time><name>PT4501</name></trkpt>
<trkpt lat="53.220432" lon="-1.990066"><ele>374</ele><time>2020-08-19T11:55:11Z</time><name>PT4502</name></trkpt>
<trkpt lat="53.220404" lon="-1.990068"><ele>374</ele><time>2020-08-19T11:55:14Z</time><name>PT4503</name></trkpt>
<trkpt lat="53.220365" lon="-1.990058"><ele>375</ele><time>2020-08-19T11:55:17Z</time><name>PT4504</name></trkpt>
<trkpt lat="53.220325" lon="-1.990031"><ele>375</ele><time>2020-08-19T11:55:22Z</time><name>PT4505</name></trkpt>
<trkpt lat="53.220293" lon="-1.990015"><ele>374</ele><time>2020-08-19T11:55:26Z</time><name>PT4506</name></trkpt>
<trkpt lat="53.220284" lon="-1.990000"><ele>376</ele><time>2020-08-19T11:55:29Z</time><name>PT4507</name></trkpt>
<trkpt lat="53.220269" lon="-1.989999"><ele>377</ele><time>2020-08-19T11:55:32Z</time><name>PT4508</name></trkpt>
<trkpt lat="53.220243" lon="-1.989990"><ele>376</ele><time>2020-08-19T11:55:35Z</time><name>PT4509</name></trkpt>
<trkpt lat="53.220242" lon="-1.989994"><ele>375</ele><time>2020-08-19T11:55:38Z</time><name>PT4510</name></trkpt>
<trkpt lat="53.220222" lon="-1.989978"><ele>376</ele><time>2020-08-19T11:55:41Z</time><name>PT4511</name></trkpt>
<trkpt lat="53.220195" lon="-1.989962"><ele>375</ele><time>2020-08-19T11:55:44Z</time><name>PT4512</name></trkpt>
<trkpt lat="53.220183" lon="-1.989961"><ele>375</ele><time>2020-08-19T11:55:47Z</time><name>PT4513</name></trkpt>
<trkpt lat="53.220152" lon="-1.989942"><ele>375</ele><time>2020-08-19T11:55:52Z</time><name>PT4514</name></trkpt>
<trkpt lat="53.220132" lon="-1.989930"><ele>375</ele><time>2020-08-19T11:55:55Z</time><name>PT4515</name></trkpt>
<trkpt lat="53.220098" lon="-1.989931"><ele>377</ele><time>2020-08-19T11:55:59Z</time><name>PT4516</name></trkpt>
<trkpt lat="53.220058" lon="-1.989926"><ele>377</ele><time>2020-08-19T11:56:02Z</time><name>PT4517</name></trkpt>
<trkpt lat="53.220027" lon="-1.989929"><ele>376</ele><time>2020-08-19T11:56:05Z</time><name>PT4518</name></trkpt>
<trkpt lat="53.220005" lon="-1.989931"><ele>376</ele><time>2020-08-19T11:56:10Z</time><name>PT4519</name></trkpt>
<trkpt lat="53.219996" lon="-1.989923"><ele>375</ele><time>2020-08-19T11:56:13Z</time><name>PT4520</name></trkpt>
<trkpt lat="53.219985" lon="-1.989919"><ele>376</ele><time>2020-08-19T11:56:17Z</time><name>PT4521</name></trkpt>
<trkpt lat="53.219987" lon="-1.989920"><ele>376</ele><time>2020-08-19T11:56:35Z</time><name>PT4522</name></trkpt>
<trkpt lat="53.219988" lon="-1.989908"><ele>376</ele><time>2020-08-19T11:56:35Z</time><name>PT4523</name></trkpt>
<trkpt lat="53.219989" lon="-1.989903"><ele>376</ele><time>2020-08-19T11:56:37Z</time><name>PT4524</name></trkpt>
<trkpt lat="53.219990" lon="-1.989893"><ele>376</ele><time>2020-08-19T11:56:38Z</time><name>PT4525</name></trkpt>
<trkpt lat="53.219991" lon="-1.989886"><ele>376</ele><time>2020-08-19T11:56:38Z</time><name>PT4526</name></trkpt>
<trkpt lat="53.219993" lon="-1.989879"><ele>376</ele><time>2020-08-19T11:56:40Z</time><name>PT4527</name></trkpt>
<trkpt lat="53.219997" lon="-1.989874"><ele>376</ele><time>2020-08-19T11:56:41Z</time><name>PT4528</name></trkpt>
<trkpt lat="53.219996" lon="-1.989861"><ele>376</ele><time>2020-08-19T11:56:41Z</time><name>PT4529</name></trkpt>
<trkpt lat="53.219995" lon="-1.989856"><ele>376</ele><time>2020-08-19T11:56:43Z</time><name>PT4530</name></trkpt>
<trkpt lat="53.219997" lon="-1.989850"><ele>376</ele><time>2020-08-19T11:56:44Z</time><name>PT4531</name></trkpt>
<trkpt lat="53.219997" lon="-1.989843"><ele>376</ele><time>2020-08-19T11:56:44Z</time><name>PT4532</name></trkpt>
<trkpt lat="53.219998" lon="-1.989842"><ele>376</ele><time>2020-08-19T11:56:46Z</time><name>PT4533</name></trkpt>
<trkpt lat="53.219995" lon="-1.989840"><ele>375</ele><time>2020-08-19T11:56:47Z</time><name>PT4534</name></trkpt>
<trkpt lat="53.219997" lon="-1.989827"><ele>375</ele><time>2020-08-19T11:56:48Z</time><name>PT4535</name></trkpt>
<trkpt lat="53.219996" lon="-1.989813"><ele>375</ele><time>2020-08-19T11:56:49Z</time><name>PT4536</name></trkpt>
<trkpt lat="53.220000" lon="-1.989803"><ele>375</ele><time>2020-08-19T11:56:50Z</time><name>PT4537</name></trkpt>
<trkpt lat="53.220000" lon="-1.989797"><ele>375</ele><time>2020-08-19T11:56:51Z</time><name>PT4538</name></trkpt>
<trkpt lat="53.220000" lon="-1.989791"><ele>376</ele><time>2020-08-19T11:56:52Z</time><name>PT4539</name></trkpt>
<trkpt lat="53.219996" lon="-1.989789"><ele>376</ele><time>2020-08-19T11:56:53Z</time><name>PT4540</name></trkpt>
<trkpt lat="53.219997" lon="-1.989785"><ele>376</ele><time>2020-08-19T11:56:54Z</time><name>PT4541</name></trkpt>
<trkpt lat="53.219998" lon="-1.989781"><ele>375</ele><time>2020-08-19T11:56:55Z</time><name>PT4542</name></trkpt>
<trkpt lat="53.219999" lon="-1.989777"><ele>375</ele><time>2020-08-19T11:56:56Z</time><name>PT4543</name></trkpt>
<trkpt lat="53.220001" lon="-1.989769"><ele>376</ele><time>2020-08-19T11:56:56Z</time><name>PT4544</name></trkpt>
<trkpt lat="53.220001" lon="-1.989765"><ele>376</ele><time>2020-08-19T11:56:58Z</time><name>PT4545</name></trkpt>
<trkpt lat="53.220020" lon="-1.989741"><ele>376</ele><time>2020-08-19T11:57:19Z</time><name>PT4546</name></trkpt>
<trkpt lat="53.220016" lon="-1.989724"><ele>375</ele><time>2020-08-19T11:57:20Z</time><name>PT4547</name></trkpt>
<trkpt lat="53.220013" lon="-1.989722"><ele>376</ele><time>2020-08-19T11:57:20Z</time><name>PT4548</name></trkpt>
<trkpt lat="53.220013" lon="-1.989720"><ele>376</ele><time>2020-08-19T11:57:23Z</time><name>PT4549</name></trkpt>
<trkpt lat="53.220014" lon="-1.989720"><ele>376</ele><time>2020-08-19T11:57:25Z</time><name>PT4550</name></trkpt>
<trkpt lat="53.220016" lon="-1.989719"><ele>376</ele><time>2020-08-19T11:57:26Z</time><name>PT4551</name></trkpt>
<trkpt lat="53.220016" lon="-1.989714"><ele>376</ele><time>2020-08-19T11:57:26Z</time><name>PT4552</name></trkpt>
<trkpt lat="53.220016" lon="-1.989710"><ele>376</ele><time>2020-08-19T11:57:28Z</time><name>PT4553</name></trkpt>
<trkpt lat="53.220020" lon="-1.989708"><ele>376</ele><time>2020-08-19T11:57:29Z</time><name>PT4554</name></trkpt>
<trkpt lat="53.220016" lon="-1.989709"><ele>376</ele><time>2020-08-19T11:57:31Z</time><name>PT4555</name></trkpt>
<trkpt lat="53.220015" lon="-1.989705"><ele>376</ele><time>2020-08-19T11:57:32Z</time><name>PT4556</name></trkpt>
<trkpt lat="53.220017" lon="-1.989703"><ele>376</ele><time>2020-08-19T11:57:49Z</time><name>PT4557</name></trkpt>
<trkpt lat="53.220018" lon="-1.989704"><ele>376</ele><time>2020-08-19T11:57:50Z</time><name>PT4558</name></trkpt>
<trkpt lat="53.220017" lon="-1.989705"><ele>376</ele><time>2020-08-19T11:57:50Z</time><name>PT4559</name></trkpt>
<trkpt lat="53.220014" lon="-1.989704"><ele>376</ele><time>2020-08-19T11:57:53Z</time><name>PT4560</name></trkpt>
<trkpt lat="53.220013" lon="-1.989699"><ele>376</ele><time>2020-08-19T11:57:55Z</time><name>PT4561</name></trkpt>
<trkpt lat="53.220010" lon="-1.989697"><ele>376</ele><time>2020-08-19T11:57:56Z</time><name>PT4562</name></trkpt>
<trkpt lat="53.220008" lon="-1.989694"><ele>376</ele><time>2020-08-19T11:58:14Z</time><name>PT4563</name></trkpt>
<trkpt lat="53.220008" lon="-1.989681"><ele>376</ele><time>2020-08-19T11:58:14Z</time><name>PT4564</name></trkpt>
<trkpt lat="53.220006" lon="-1.989671"><ele>376</ele><time>2020-08-19T11:58:16Z</time><name>PT4565</name></trkpt>
<trkpt lat="53.220007" lon="-1.989666"><ele>376</ele><time>2020-08-19T11:58:17Z</time><name>PT4566</name></trkpt>
<trkpt lat="53.220007" lon="-1.989662"><ele>376</ele><time>2020-08-19T11:58:17Z</time><name>PT4567</name></trkpt>
<trkpt lat="53.220006" lon="-1.989657"><ele>376</ele><time>2020-08-19T11:58:19Z</time><name>PT4568</name></trkpt>
<trkpt lat="53.220005" lon="-1.989652"><ele>376</ele><time>2020-08-19T11:58:21Z</time><name>PT4569</name></trkpt>
<trkpt lat="53.220003" lon="-1.989644"><ele>376</ele><time>2020-08-19T11:58:22Z</time><name>PT4570</name></trkpt>
<trkpt lat="53.220002" lon="-1.989647"><ele>376</ele><time>2020-08-19T11:58:23Z</time><name>PT4571</name></trkpt>
<trkpt lat="53.219999" lon="-1.989642"><ele>376</ele><time>2020-08-19T11:58:26Z</time><name>PT4572</name></trkpt>
<trkpt lat="53.219998" lon="-1.989649"><ele>376</ele><time>2020-08-19T11:58:26Z</time><name>PT4573</name></trkpt>
<trkpt lat="53.220002" lon="-1.989660"><ele>376</ele><time>2020-08-19T11:58:28Z</time><name>PT4574</name></trkpt>
<trkpt lat="53.219994" lon="-1.989672"><ele>377</ele><time>2020-08-19T11:58:29Z</time><name>PT4575</name></trkpt>
<trkpt lat="53.219997" lon="-1.989685"><ele>377</ele><time>2020-08-19T11:58:29Z</time><name>PT4576</name></trkpt>
<trkpt lat="53.219993" lon="-1.989690"><ele>377</ele><time>2020-08-19T11:58:31Z</time><name>PT4577</name></trkpt>
<trkpt lat="53.219999" lon="-1.989688"><ele>377</ele><time>2020-08-19T11:58:32Z</time><name>PT4578</name></trkpt>
<trkpt lat="53.219996" lon="-1.989690"><ele>377</ele><time>2020-08-19T11:58:32Z</time><name>PT4579</name></trkpt>
<trkpt lat="53.219997" lon="-1.989683"><ele>377</ele><time>2020-08-19T11:59:14Z</time><name>PT4580</name></trkpt>
<trkpt lat="53.219996" lon="-1.989681"><ele>378</ele><time>2020-08-19T11:59:16Z</time><name>PT4581</name></trkpt>
<trkpt lat="53.219993" lon="-1.989681"><ele>378</ele><time>2020-08-19T11:59:17Z</time><name>PT4582</name></trkpt>
<trkpt lat="53.219989" lon="-1.989694"><ele>377</ele><time>2020-08-19T11:59:17Z</time><name>PT4583</name></trkpt>
<trkpt lat="53.219986" lon="-1.989693"><ele>377</ele><time>2020-08-19T12:01:29Z</time><name>PT4584</name></trkpt>
<trkpt lat="53.219983" lon="-1.989684"><ele>378</ele><time>2020-08-19T12:06:43Z</time><name>PT4585</name></trkpt>
<trkpt lat="53.219983" lon="-1.989679"><ele>378</ele><time>2020-08-19T12:06:46Z</time><name>PT4586</name></trkpt>
<trkpt lat="53.219985" lon="-1.989675"><ele>378</ele><time>2020-08-19T12:06:56Z</time><name>PT4587</name></trkpt>
<trkpt lat="53.219983" lon="-1.989675"><ele>378</ele><time>2020-08-19T12:06:59Z</time><name>PT4588</name></trkpt>
<trkpt lat="53.219983" lon="-1.989675"><ele>378</ele><time>2020-08-19T12:07:04Z</time><name>PT4589</name></trkpt>
<trkpt lat="53.219978" lon="-1.989686"><ele>377</ele><time>2020-08-19T12:07:14Z</time><name>PT4590</name></trkpt>
<trkpt lat="53.219979" lon="-1.989688"><ele>377</ele><time>2020-08-19T12:07:26Z</time><name>PT4591</name></trkpt>
<trkpt lat="53.219977" lon="-1.989687"><ele>377</ele><time>2020-08-19T12:07:29Z</time><name>PT4592</name></trkpt>
<trkpt lat="53.219977" lon="-1.989690"><ele>377</ele><time>2020-08-19T12:07:46Z</time><name>PT4593</name></trkpt>
<trkpt lat="53.219984" lon="-1.989695"><ele>376</ele><time>2020-08-19T12:09:25Z</time><name>PT4594</name></trkpt>
<trkpt lat="53.219974" lon="-1.989684"><ele>377</ele><time>2020-08-19T12:09:53Z</time><name>PT4595</name></trkpt>
<trkpt lat="53.219985" lon="-1.989708"><ele>376</ele><time>2020-08-19T12:09:56Z</time><name>PT4596</name></trkpt>
<trkpt lat="53.219993" lon="-1.989718"><ele>377</ele><time>2020-08-19T12:09:59Z</time><name>PT4597</name></trkpt>
<trkpt lat="53.219996" lon="-1.989719"><ele>378</ele><time>2020-08-19T12:10:02Z</time><name>PT4598</name></trkpt>
<trkpt lat="53.219994" lon="-1.989723"><ele>378</ele><time>2020-08-19T12:10:08Z</time><name>PT4599</name></trkpt>
<trkpt lat="53.219995" lon="-1.989721"><ele>378</ele><time>2020-08-19T12:10:10Z</time><name>PT4600</name></trkpt>
<trkpt lat="53.219996" lon="-1.989721"><ele>378</ele><time>2020-08-19T12:10:11Z</time><name>PT4601</name></trkpt>
<trkpt lat="53.219996" lon="-1.989721"><ele>378</ele><time>2020-08-19T12:10:11Z</time><name>PT4602</name></trkpt>
<trkpt lat="53.219996" lon="-1.989720"><ele>378</ele><time>2020-08-19T12:10:37Z</time><name>PT4603</name></trkpt>
<trkpt lat="53.219994" lon="-1.989716"><ele>378</ele><time>2020-08-19T12:10:38Z</time><name>PT4604</name></trkpt>
<trkpt lat="53.219993" lon="-1.989712"><ele>378</ele><time>2020-08-19T12:10:38Z</time><name>PT4605</name></trkpt>
<trkpt lat="53.219992" lon="-1.989709"><ele>378</ele><time>2020-08-19T12:10:40Z</time><name>PT4606</name></trkpt>
<trkpt lat="53.219991" lon="-1.989707"><ele>378</ele><time>2020-08-19T12:10:41Z</time><name>PT4607</name></trkpt>
<trkpt lat="53.219989" lon="-1.989704"><ele>378</ele><time>2020-08-19T12:10:41Z</time><name>PT4608</name></trkpt>
<trkpt lat="53.219982" lon="-1.989708"><ele>378</ele><time>2020-08-19T12:10:50Z</time><name>PT4609</name></trkpt>
<trkpt lat="53.219980" lon="-1.989701"><ele>378</ele><time>2020-08-19T12:10:52Z</time><name>PT4610</name></trkpt>
<trkpt lat="53.219980" lon="-1.989698"><ele>378</ele><time>2020-08-19T12:10:53Z</time><name>PT4611</name></trkpt>
<trkpt lat="53.219977" lon="-1.989695"><ele>378</ele><time>2020-08-19T12:10:54Z</time><name>PT4612</name></trkpt>
<trkpt lat="53.219974" lon="-1.989696"><ele>378</ele><time>2020-08-19T12:10:55Z</time><name>PT4613</name></trkpt>
<trkpt lat="53.219972" lon="-1.989698"><ele>378</ele><time>2020-08-19T12:10:56Z</time><name>PT4614</name></trkpt>
<trkpt lat="53.219973" lon="-1.989698"><ele>378</ele><time>2020-08-19T12:10:57Z</time><name>PT4615</name></trkpt>
<trkpt lat="53.219965" lon="-1.989685"><ele>378</ele><time>2020-08-19T12:11:03Z</time><name>PT4616</name></trkpt>
<trkpt lat="53.219964" lon="-1.989687"><ele>377</ele><time>2020-08-19T12:11:04Z</time><name>PT4617</name></trkpt>
<trkpt lat="53.219965" lon="-1.989688"><ele>377</ele><time>2020-08-19T12:11:05Z</time><name>PT4618</name></trkpt>
<trkpt lat="53.219968" lon="-1.989685"><ele>377</ele><time>2020-08-19T12:11:05Z</time><name>PT4619</name></trkpt>
<trkpt lat="53.219971" lon="-1.989682"><ele>376</ele><time>2020-08-19T12:11:07Z</time><name>PT4620</name></trkpt>
<trkpt lat="53.219974" lon="-1.989685"><ele>376</ele><time>2020-08-19T12:11:08Z</time><name>PT4621</name></trkpt>
<trkpt lat="53.219976" lon="-1.989686"><ele>376</ele><time>2020-08-19T12:11:08Z</time><name>PT4622</name></trkpt>
<trkpt lat="53.219976" lon="-1.989688"><ele>376</ele><time>2020-08-19T12:11:10Z</time><name>PT4623</name></trkpt>
<trkpt lat="53.219975" lon="-1.989686"><ele>376</ele><time>2020-08-19T12:11:11Z</time><name>PT4624</name></trkpt>
<trkpt lat="53.219974" lon="-1.989686"><ele>376</ele><time>2020-08-19T12:11:11Z</time><name>PT4625</name></trkpt>
<trkpt lat="53.219977" lon="-1.989684"><ele>376</ele><time>2020-08-19T12:11:13Z</time><name>PT4626</name></trkpt>
<trkpt lat="53.219980" lon="-1.989684"><ele>376</ele><time>2020-08-19T12:11:14Z</time><name>PT4627</name></trkpt>
<trkpt lat="53.219983" lon="-1.989684"><ele>377</ele><time>2020-08-19T12:11:14Z</time><name>PT4628</name></trkpt>
<trkpt lat="53.219983" lon="-1.989686"><ele>376</ele><time>2020-08-19T12:11:35Z</time><name>PT4629</name></trkpt>
<trkpt lat="53.219986" lon="-1.989686"><ele>376</ele><time>2020-08-19T12:11:35Z</time><name>PT4630</name></trkpt>
<trkpt lat="53.219982" lon="-1.989692"><ele>376</ele><time>2020-08-19T12:11:46Z</time><name>PT4631</name></trkpt>
<trkpt lat="53.219978" lon="-1.989703"><ele>376</ele><time>2020-08-19T12:11:47Z</time><name>PT4632</name></trkpt>
<trkpt lat="53.219981" lon="-1.989731"><ele>377</ele><time>2020-08-19T12:11:48Z</time><name>PT4633</name></trkpt>
<trkpt lat="53.219982" lon="-1.989743"><ele>377</ele><time>2020-08-19T12:11:49Z</time><name>PT4634</name></trkpt>
<trkpt lat="53.219983" lon="-1.989755"><ele>377</ele><time>2020-08-19T12:11:50Z</time><name>PT4635</name></trkpt>
<trkpt lat="53.219984" lon="-1.989760"><ele>377</ele><time>2020-08-19T12:11:50Z</time><name>PT4636</name></trkpt>
<trkpt lat="53.219985" lon="-1.989764"><ele>377</ele><time>2020-08-19T12:11:52Z</time><name>PT4637</name></trkpt>
<trkpt lat="53.219989" lon="-1.989773"><ele>377</ele><time>2020-08-19T12:11:53Z</time><name>PT4638</name></trkpt>
<trkpt lat="53.219990" lon="-1.989787"><ele>377</ele><time>2020-08-19T12:11:53Z</time><name>PT4639</name></trkpt>
<trkpt lat="53.219992" lon="-1.989797"><ele>376</ele><time>2020-08-19T12:11:55Z</time><name>PT4640</name></trkpt>
<trkpt lat="53.219993" lon="-1.989806"><ele>377</ele><time>2020-08-19T12:11:56Z</time><name>PT4641</name></trkpt>
<trkpt lat="53.219995" lon="-1.989821"><ele>377</ele><time>2020-08-19T12:11:56Z</time><name>PT4642</name></trkpt>
<trkpt lat="53.219998" lon="-1.989835"><ele>377</ele><time>2020-08-19T12:11:58Z</time><name>PT4643</name></trkpt>
<trkpt lat="53.219998" lon="-1.989849"><ele>377</ele><time>2020-08-19T12:11:59Z</time><name>PT4644</name></trkpt>
<trkpt lat="53.219999" lon="-1.989857"><ele>378</ele><time>2020-08-19T12:12:00Z</time><name>PT4645</name></trkpt>
<trkpt lat="53.219998" lon="-1.989864"><ele>378</ele><time>2020-08-19T12:12:01Z</time><name>PT4646</name></trkpt>
<trkpt lat="53.219995" lon="-1.989872"><ele>378</ele><time>2020-08-19T12:12:02Z</time><name>PT4647</name></trkpt>
<trkpt lat="53.219995" lon="-1.989874"><ele>378</ele><time>2020-08-19T12:12:03Z</time><name>PT4648</name></trkpt>
<trkpt lat="53.219995" lon="-1.989874"><ele>378</ele><time>2020-08-19T12:12:04Z</time><name>PT4649</name></trkpt>
<trkpt lat="53.219996" lon="-1.989870"><ele>378</ele><time>2020-08-19T12:12:05Z</time><name>PT4650</name></trkpt>
<trkpt lat="53.219996" lon="-1.989873"><ele>378</ele><time>2020-08-19T12:12:06Z</time><name>PT4651</name></trkpt>
<trkpt lat="53.219994" lon="-1.989878"><ele>378</ele><time>2020-08-19T12:12:07Z</time><name>PT4652</name></trkpt>
<trkpt lat="53.219992" lon="-1.989879"><ele>378</ele><time>2020-08-19T12:12:08Z</time><name>PT4653</name></trkpt>
<trkpt lat="53.219992" lon="-1.989880"><ele>378</ele><time>2020-08-19T12:12:09Z</time><name>PT4654</name></trkpt>
<trkpt lat="53.219995" lon="-1.989872"><ele>378</ele><time>2020-08-19T12:12:18Z</time><name>PT4655</name></trkpt>
<trkpt lat="53.219995" lon="-1.989869"><ele>378</ele><time>2020-08-19T12:12:19Z</time><name>PT4656</name></trkpt>
<trkpt lat="53.219995" lon="-1.989866"><ele>378</ele><time>2020-08-19T12:12:20Z</time><name>PT4657</name></trkpt>
<trkpt lat="53.219993" lon="-1.989875"><ele>378</ele><time>2020-08-19T12:12:29Z</time><name>PT4658</name></trkpt>
<trkpt lat="53.219984" lon="-1.989883"><ele>378</ele><time>2020-08-19T12:12:29Z</time><name>PT4659</name></trkpt>
<trkpt lat="53.219977" lon="-1.989894"><ele>378</ele><time>2020-08-19T12:12:31Z</time><name>PT4660</name></trkpt>
<trkpt lat="53.219965" lon="-1.989898"><ele>378</ele><time>2020-08-19T12:12:32Z</time><name>PT4661</name></trkpt>
<trkpt lat="53.219956" lon="-1.989904"><ele>377</ele><time>2020-08-19T12:12:32Z</time><name>PT4662</name></trkpt>
<trkpt lat="53.219949" lon="-1.989916"><ele>377</ele><time>2020-08-19T12:12:34Z</time><name>PT4663</name></trkpt>
<trkpt lat="53.219940" lon="-1.989924"><ele>378</ele><time>2020-08-19T12:12:35Z</time><name>PT4664</name></trkpt>
<trkpt lat="53.219930" lon="-1.989926"><ele>378</ele><time>2020-08-19T12:12:35Z</time><name>PT4665</name></trkpt>
<trkpt lat="53.219923" lon="-1.989933"><ele>378</ele><time>2020-08-19T12:12:37Z</time><name>PT4666</name></trkpt>
<trkpt lat="53.219916" lon="-1.989941"><ele>378</ele><time>2020-08-19T12:12:38Z</time><name>PT4667</name></trkpt>
<trkpt lat="53.219905" lon="-1.989949"><ele>377</ele><time>2020-08-19T12:12:38Z</time><name>PT4668</name></trkpt>
<trkpt lat="53.219899" lon="-1.989952"><ele>376</ele><time>2020-08-19T12:12:40Z</time><name>PT4669</name></trkpt>
<trkpt lat="53.219890" lon="-1.989954"><ele>376</ele><time>2020-08-19T12:12:41Z</time><name>PT4670</name></trkpt>
<trkpt lat="53.219882" lon="-1.989958"><ele>376</ele><time>2020-08-19T12:12:41Z</time><name>PT4671</name></trkpt>
<trkpt lat="53.219875" lon="-1.989967"><ele>376</ele><time>2020-08-19T12:12:43Z</time><name>PT4672</name></trkpt>
<trkpt lat="53.219862" lon="-1.989972"><ele>376</ele><time>2020-08-19T12:12:44Z</time><name>PT4673</name></trkpt>
<trkpt lat="53.219850" lon="-1.989979"><ele>376</ele><time>2020-08-19T12:12:44Z</time><name>PT4674</name></trkpt>
<trkpt lat="53.219829" lon="-1.989989"><ele>379</ele><time>2020-08-19T12:12:46Z</time><name>PT4675</name></trkpt>
<trkpt lat="53.219813" lon="-1.989993"><ele>379</ele><time>2020-08-19T12:12:47Z</time><name>PT4676</name></trkpt>
<trkpt lat="53.219804" lon="-1.989998"><ele>379</ele><time>2020-08-19T12:12:47Z</time><name>PT4677</name></trkpt>
<trkpt lat="53.219795" lon="-1.990007"><ele>379</ele><time>2020-08-19T12:12:49Z</time><name>PT4678</name></trkpt>
<trkpt lat="53.219785" lon="-1.990013"><ele>378</ele><time>2020-08-19T12:12:50Z</time><name>PT4679</name></trkpt>
<trkpt lat="53.219775" lon="-1.990020"><ele>378</ele><time>2020-08-19T12:12:50Z</time><name>PT4680</name></trkpt>
<trkpt lat="53.219764" lon="-1.990023"><ele>378</ele><time>2020-08-19T12:12:52Z</time><name>PT4681</name></trkpt>
<trkpt lat="53.219756" lon="-1.990026"><ele>377</ele><time>2020-08-19T12:12:53Z</time><name>PT4682</name></trkpt>
<trkpt lat="53.219748" lon="-1.990032"><ele>377</ele><time>2020-08-19T12:12:53Z</time><name>PT4683</name></trkpt>
<trkpt lat="53.219741" lon="-1.990037"><ele>377</ele><time>2020-08-19T12:12:55Z</time><name>PT4684</name></trkpt>
<trkpt lat="53.219731" lon="-1.990044"><ele>377</ele><time>2020-08-19T12:12:56Z</time><name>PT4685</name></trkpt>
<trkpt lat="53.219720" lon="-1.990047"><ele>376</ele><time>2020-08-19T12:12:56Z</time><name>PT4686</name></trkpt>
<trkpt lat="53.219710" lon="-1.990052"><ele>376</ele><time>2020-08-19T12:12:58Z</time><name>PT4687</name></trkpt>
<trkpt lat="53.219704" lon="-1.990055"><ele>376</ele><time>2020-08-19T12:12:59Z</time><name>PT4688</name></trkpt>
<trkpt lat="53.219691" lon="-1.990056"><ele>375</ele><time>2020-08-19T12:12:59Z</time><name>PT4689</name></trkpt>
<trkpt lat="53.219682" lon="-1.990063"><ele>375</ele><time>2020-08-19T12:13:01Z</time><name>PT4690</name></trkpt>
<trkpt lat="53.219646" lon="-1.990070"><ele>374</ele><time>2020-08-19T12:13:04Z</time><name>PT4691</name></trkpt>
<trkpt lat="53.219612" lon="-1.990080"><ele>375</ele><time>2020-08-19T12:13:07Z</time><name>PT4692</name></trkpt>
<trkpt lat="53.219575" lon="-1.990087"><ele>375</ele><time>2020-08-19T12:13:10Z</time><name>PT4693</name></trkpt>
<trkpt lat="53.219535" lon="-1.990102"><ele>374</ele><time>2020-08-19T12:13:14Z</time><name>PT4694</name></trkpt>
<trkpt lat="53.219511" lon="-1.990105"><ele>374</ele><time>2020-08-19T12:13:17Z</time><name>PT4695</name></trkpt>
<trkpt lat="53.219499" lon="-1.990109"><ele>373</ele><time>2020-08-19T12:13:20Z</time><name>PT4696</name></trkpt>
<trkpt lat="53.219485" lon="-1.990101"><ele>374</ele><time>2020-08-19T12:13:23Z</time><name>PT4697</name></trkpt>
<trkpt lat="53.219449" lon="-1.990095"><ele>372</ele><time>2020-08-19T12:13:28Z</time><name>PT4698</name></trkpt>
<trkpt lat="53.219400" lon="-1.990076"><ele>371</ele><time>2020-08-19T12:13:32Z</time><name>PT4699</name></trkpt>
<trkpt lat="53.219361" lon="-1.990074"><ele>371</ele><time>2020-08-19T12:13:35Z</time><name>PT4700</name></trkpt>
<trkpt lat="53.219307" lon="-1.990049"><ele>371</ele><time>2020-08-19T12:13:40Z</time><name>PT4701</name></trkpt>
<trkpt lat="53.219259" lon="-1.990007"><ele>371</ele><time>2020-08-19T12:13:44Z</time><name>PT4702</name></trkpt>
<trkpt lat="53.219225" lon="-1.989981"><ele>371</ele><time>2020-08-19T12:13:47Z</time><name>PT4703</name></trkpt>
<trkpt lat="53.219184" lon="-1.989955"><ele>371</ele><time>2020-08-19T12:13:50Z</time><name>PT4704</name></trkpt>
<trkpt lat="53.219136" lon="-1.989930"><ele>371</ele><time>2020-08-19T12:13:53Z</time><name>PT4705</name></trkpt>
<trkpt lat="53.219097" lon="-1.989916"><ele>372</ele><time>2020-08-19T12:13:56Z</time><name>PT4706</name></trkpt>
<trkpt lat="53.219060" lon="-1.989894"><ele>372</ele><time>2020-08-19T12:13:59Z</time><name>PT4707</name></trkpt>
<trkpt lat="53.219022" lon="-1.989888"><ele>372</ele><time>2020-08-19T12:14:02Z</time><name>PT4708</name></trkpt>
<trkpt lat="53.218972" lon="-1.989866"><ele>372</ele><time>2020-08-19T12:14:07Z</time><name>PT4709</name></trkpt>
<trkpt lat="53.218932" lon="-1.989869"><ele>372</ele><time>2020-08-19T12:14:10Z</time><name>PT4710</name></trkpt>
<trkpt lat="53.218891" lon="-1.989875"><ele>371</ele><time>2020-08-19T12:14:13Z</time><name>PT4711</name></trkpt>
<trkpt lat="53.218840" lon="-1.989883"><ele>371</ele><time>2020-08-19T12:14:17Z</time><name>PT4712</name></trkpt>
<trkpt lat="53.218805" lon="-1.989870"><ele>371</ele><time>2020-08-19T12:14:20Z</time><name>PT4713</name></trkpt>
<trkpt lat="53.218756" lon="-1.989853"><ele>370</ele><time>2020-08-19T12:14:23Z</time><name>PT4714</name></trkpt>
<trkpt lat="53.218718" lon="-1.989833"><ele>370</ele><time>2020-08-19T12:14:27Z</time><name>PT4715</name></trkpt>
<trkpt lat="53.218693" lon="-1.989817"><ele>370</ele><time>2020-08-19T12:14:30Z</time><name>PT4716</name></trkpt>
<trkpt lat="53.218653" lon="-1.989803"><ele>370</ele><time>2020-08-19T12:14:34Z</time><name>PT4717</name></trkpt>
<trkpt lat="53.218616" lon="-1.989796"><ele>370</ele><time>2020-08-19T12:14:37Z</time><name>PT4718</name></trkpt>
<trkpt lat="53.218575" lon="-1.989793"><ele>369</ele><time>2020-08-19T12:14:40Z</time><name>PT4719</name></trkpt>
<trkpt lat="53.218526" lon="-1.989783"><ele>368</ele><time>2020-08-19T12:14:44Z</time><name>PT4720</name></trkpt>
<trkpt lat="53.218494" lon="-1.989778"><ele>368</ele><time>2020-08-19T12:14:47Z</time><name>PT4721</name></trkpt>
<trkpt lat="53.218458" lon="-1.989770"><ele>369</ele><time>2020-08-19T12:14:50Z</time><name>PT4722</name></trkpt>
<trkpt lat="53.218439" lon="-1.989764"><ele>369</ele><time>2020-08-19T12:14:53Z</time><name>PT4723</name></trkpt>
<trkpt lat="53.218403" lon="-1.989745"><ele>367</ele><time>2020-08-19T12:14:56Z</time><name>PT4724</name></trkpt>
<trkpt lat="53.218369" lon="-1.989742"><ele>367</ele><time>2020-08-19T12:14:59Z</time><name>PT4725</name></trkpt>
<trkpt lat="53.218319" lon="-1.989740"><ele>367</ele><time>2020-08-19T12:15:04Z</time><name>PT4726</name></trkpt>
<trkpt lat="53.218276" lon="-1.989720"><ele>367</ele><time>2020-08-19T12:15:08Z</time><name>PT4727</name></trkpt>
<trkpt lat="53.218226" lon="-1.989721"><ele>367</ele><time>2020-08-19T12:15:11Z</time><name>PT4728</name></trkpt>
<trkpt lat="53.218182" lon="-1.989723"><ele>367</ele><time>2020-08-19T12:15:16Z</time><name>PT4729</name></trkpt>
<trkpt lat="53.218151" lon="-1.989727"><ele>367</ele><time>2020-08-19T12:15:19Z</time><name>PT4730</name></trkpt>
<trkpt lat="53.218112" lon="-1.989736"><ele>367</ele><time>2020-08-19T12:15:23Z</time><name>PT4731</name></trkpt>
<trkpt lat="53.218079" lon="-1.989768"><ele>367</ele><time>2020-08-19T12:15:26Z</time><name>PT4732</name></trkpt>
<trkpt lat="53.218045" lon="-1.989776"><ele>366</ele><time>2020-08-19T12:15:31Z</time><name>PT4733</name></trkpt>
<trkpt lat="53.218007" lon="-1.989763"><ele>366</ele><time>2020-08-19T12:15:35Z</time><name>PT4734</name></trkpt>
<trkpt lat="53.217961" lon="-1.989749"><ele>365</ele><time>2020-08-19T12:15:38Z</time><name>PT4735</name></trkpt>
<trkpt lat="53.217916" lon="-1.989756"><ele>365</ele><time>2020-08-19T12:15:43Z</time><name>PT4736</name></trkpt>
<trkpt lat="53.217874" lon="-1.989741"><ele>363</ele><time>2020-08-19T12:15:47Z</time><name>PT4737</name></trkpt>
<trkpt lat="53.217837" lon="-1.989735"><ele>362</ele><time>2020-08-19T12:15:50Z</time><name>PT4738</name></trkpt>
<trkpt lat="53.217786" lon="-1.989722"><ele>361</ele><time>2020-08-19T12:15:53Z</time><name>PT4739</name></trkpt>
<trkpt lat="53.217749" lon="-1.989728"><ele>361</ele><time>2020-08-19T12:15:56Z</time><name>PT4740</name></trkpt>
<trkpt lat="53.217713" lon="-1.989702"><ele>361</ele><time>2020-08-19T12:15:59Z</time><name>PT4741</name></trkpt>
<trkpt lat="53.217681" lon="-1.989680"><ele>361</ele><time>2020-08-19T12:16:02Z</time><name>PT4742</name></trkpt>
<trkpt lat="53.217631" lon="-1.989660"><ele>359</ele><time>2020-08-19T12:16:07Z</time><name>PT4743</name></trkpt>
<trkpt lat="53.217593" lon="-1.989644"><ele>359</ele><time>2020-08-19T12:16:10Z</time><name>PT4744</name></trkpt>
<trkpt lat="53.217555" lon="-1.989632"><ele>358</ele><time>2020-08-19T12:16:13Z</time><name>PT4745</name></trkpt>
<trkpt lat="53.217511" lon="-1.989653"><ele>358</ele><time>2020-08-19T12:16:17Z</time><name>PT4746</name></trkpt>
<trkpt lat="53.217471" lon="-1.989653"><ele>360</ele><time>2020-08-19T12:16:20Z</time><name>PT4747</name></trkpt>
<trkpt lat="53.217441" lon="-1.989672"><ele>361</ele><time>2020-08-19T12:16:23Z</time><name>PT4748</name></trkpt>
<trkpt lat="53.217415" lon="-1.989690"><ele>361</ele><time>2020-08-19T12:16:26Z</time><name>PT4749</name></trkpt>
<trkpt lat="53.217402" lon="-1.989706"><ele>361</ele><time>2020-08-19T12:16:29Z</time><name>PT4750</name></trkpt>
<trkpt lat="53.217380" lon="-1.989748"><ele>361</ele><time>2020-08-19T12:16:34Z</time><name>PT4751</name></trkpt>
<trkpt lat="53.217357" lon="-1.989781"><ele>361</ele><time>2020-08-19T12:16:37Z</time><name>PT4752</name></trkpt>
<trkpt lat="53.217330" lon="-1.989817"><ele>364</ele><time>2020-08-19T12:16:41Z</time><name>PT4753</name></trkpt>
<trkpt lat="53.217301" lon="-1.989838"><ele>364</ele><time>2020-08-19T12:16:44Z</time><name>PT4754</name></trkpt>
<trkpt lat="53.217284" lon="-1.989859"><ele>364</ele><time>2020-08-19T12:16:47Z</time><name>PT4755</name></trkpt>
<trkpt lat="53.217268" lon="-1.989888"><ele>365</ele><time>2020-08-19T12:16:52Z</time><name>PT4756</name></trkpt>
<trkpt lat="53.217260" lon="-1.989907"><ele>365</ele><time>2020-08-19T12:16:56Z</time><name>PT4757</name></trkpt>
<trkpt lat="53.217259" lon="-1.989915"><ele>366</ele><time>2020-08-19T12:16:59Z</time><name>PT4758</name></trkpt>
<trkpt lat="53.217244" lon="-1.989928"><ele>367</ele><time>2020-08-19T12:17:02Z</time><name>PT4759</name></trkpt>
<trkpt lat="53.217206" lon="-1.989905"><ele>366</ele><time>2020-08-19T12:17:05Z</time><name>PT4760</name></trkpt>
<trkpt lat="53.217162" lon="-1.989859"><ele>366</ele><time>2020-08-19T12:17:10Z</time><name>PT4761</name></trkpt>
<trkpt lat="53.217130" lon="-1.989845"><ele>366</ele><time>2020-08-19T12:17:13Z</time><name>PT4762</name></trkpt>
<trkpt lat="53.217086" lon="-1.989838"><ele>365</ele><time>2020-08-19T12:17:17Z</time><name>PT4763</name></trkpt>
<trkpt lat="53.217051" lon="-1.989825"><ele>365</ele><time>2020-08-19T12:17:20Z</time><name>PT4764</name></trkpt>
<trkpt lat="53.217017" lon="-1.989816"><ele>364</ele><time>2020-08-19T12:17:23Z</time><name>PT4765</name></trkpt>
<trkpt lat="53.216970" lon="-1.989819"><ele>363</ele><time>2020-08-19T12:17:26Z</time><name>PT4766</name></trkpt>
<trkpt lat="53.216928" lon="-1.989826"><ele>362</ele><time>2020-08-19T12:17:29Z</time><name>PT4767</name></trkpt>
<trkpt lat="53.216872" lon="-1.989817"><ele>361</ele><time>2020-08-19T12:17:34Z</time><name>PT4768</name></trkpt>
<trkpt lat="53.216833" lon="-1.989835"><ele>360</ele><time>2020-08-19T12:17:37Z</time><name>PT4769</name></trkpt>
<trkpt lat="53.216778" lon="-1.989842"><ele>360</ele><time>2020-08-19T12:17:41Z</time><name>PT4770</name></trkpt>
<trkpt lat="53.216726" lon="-1.989851"><ele>361</ele><time>2020-08-19T12:17:44Z</time><name>PT4771</name></trkpt>
<trkpt lat="53.216678" lon="-1.989846"><ele>361</ele><time>2020-08-19T12:17:49Z</time><name>PT4772</name></trkpt>
<trkpt lat="53.216636" lon="-1.989852"><ele>362</ele><time>2020-08-19T12:17:53Z</time><name>PT4773</name></trkpt>
<trkpt lat="53.216579" lon="-1.989869"><ele>362</ele><time>2020-08-19T12:17:57Z</time><name>PT4774</name></trkpt>
<trkpt lat="53.216532" lon="-1.989897"><ele>359</ele><time>2020-08-19T12:18:01Z</time><name>PT4775</name></trkpt>
<trkpt lat="53.216494" lon="-1.989895"><ele>361</ele><time>2020-08-19T12:18:05Z</time><name>PT4776</name></trkpt>
<trkpt lat="53.216466" lon="-1.989901"><ele>361</ele><time>2020-08-19T12:18:08Z</time><name>PT4777</name></trkpt>
<trkpt lat="53.216432" lon="-1.989915"><ele>363</ele><time>2020-08-19T12:18:11Z</time><name>PT4778</name></trkpt>
<trkpt lat="53.216398" lon="-1.989922"><ele>363</ele><time>2020-08-19T12:18:14Z</time><name>PT4779</name></trkpt>
<trkpt lat="53.216355" lon="-1.989923"><ele>365</ele><time>2020-08-19T12:18:17Z</time><name>PT4780</name></trkpt>
<trkpt lat="53.216308" lon="-1.989934"><ele>365</ele><time>2020-08-19T12:18:22Z</time><name>PT4781</name></trkpt>
<trkpt lat="53.216260" lon="-1.989946"><ele>364</ele><time>2020-08-19T12:18:26Z</time><name>PT4782</name></trkpt>
<trkpt lat="53.216224" lon="-1.989957"><ele>364</ele><time>2020-08-19T12:18:29Z</time><name>PT4783</name></trkpt>
<trkpt lat="53.216188" lon="-1.989970"><ele>364</ele><time>2020-08-19T12:18:32Z</time><name>PT4784</name></trkpt>
<trkpt lat="53.216138" lon="-1.989973"><ele>364</ele><time>2020-08-19T12:18:35Z</time><name>PT4785</name></trkpt>
<trkpt lat="53.216101" lon="-1.989964"><ele>364</ele><time>2020-08-19T12:18:38Z</time><name>PT4786</name></trkpt>
<trkpt lat="53.216066" lon="-1.989967"><ele>363</ele><time>2020-08-19T12:18:42Z</time><name>PT4787</name></trkpt>
<trkpt lat="53.216030" lon="-1.989963"><ele>362</ele><time>2020-08-19T12:18:46Z</time><name>PT4788</name></trkpt>
<trkpt lat="53.215999" lon="-1.989957"><ele>362</ele><time>2020-08-19T12:18:49Z</time><name>PT4789</name></trkpt>
<trkpt lat="53.215977" lon="-1.989952"><ele>362</ele><time>2020-08-19T12:18:52Z</time><name>PT4790</name></trkpt>
<trkpt lat="53.215939" lon="-1.989940"><ele>362</ele><time>2020-08-19T12:18:57Z</time><name>PT4791</name></trkpt>
<trkpt lat="53.215898" lon="-1.989930"><ele>363</ele><time>2020-08-19T12:19:01Z</time><name>PT4792</name></trkpt>
<trkpt lat="53.215861" lon="-1.989919"><ele>362</ele><time>2020-08-19T12:19:04Z</time><name>PT4793</name></trkpt>
<trkpt lat="53.215816" lon="-1.989890"><ele>363</ele><time>2020-08-19T12:19:07Z</time><name>PT4794</name></trkpt>
<trkpt lat="53.215789" lon="-1.989882"><ele>363</ele><time>2020-08-19T12:19:12Z</time><name>PT4795</name></trkpt>
<trkpt lat="53.215763" lon="-1.989872"><ele>363</ele><time>2020-08-19T12:19:16Z</time><name>PT4796</name></trkpt>
<trkpt lat="53.215757" lon="-1.989874"><ele>363</ele><time>2020-08-19T12:19:19Z</time><name>PT4797</name></trkpt>
<trkpt lat="53.215759" lon="-1.989872"><ele>363</ele><time>2020-08-19T12:19:22Z</time><name>PT4798</name></trkpt>
<trkpt lat="53.215729" lon="-1.989872"><ele>362</ele><time>2020-08-19T12:19:27Z</time><name>PT4799</name></trkpt>
<trkpt lat="53.215704" lon="-1.989845"><ele>362</ele><time>2020-08-19T12:19:30Z</time><name>PT4800</name></trkpt>
<trkpt lat="53.215658" lon="-1.989822"><ele>361</ele><time>2020-08-19T12:19:34Z</time><name>PT4801</name></trkpt>
<trkpt lat="53.215603" lon="-1.989776"><ele>362</ele><time>2020-08-19T12:19:37Z</time><name>PT4802</name></trkpt>
<trkpt lat="53.215567" lon="-1.989749"><ele>363</ele><time>2020-08-19T12:19:40Z</time><name>PT4803</name></trkpt>
<trkpt lat="53.215535" lon="-1.989707"><ele>362</ele><time>2020-08-19T12:19:44Z</time><name>PT4804</name></trkpt>
<trkpt lat="53.215499" lon="-1.989674"><ele>361</ele><time>2020-08-19T12:19:47Z</time><name>PT4805</name></trkpt>
<trkpt lat="53.215470" lon="-1.989613"><ele>362</ele><time>2020-08-19T12:19:50Z</time><name>PT4806</name></trkpt>
<trkpt lat="53.215430" lon="-1.989560"><ele>362</ele><time>2020-08-19T12:19:54Z</time><name>PT4807</name></trkpt>
<trkpt lat="53.215395" lon="-1.989519"><ele>361</ele><time>2020-08-19T12:19:57Z</time><name>PT4808</name></trkpt>
<trkpt lat="53.215357" lon="-1.989459"><ele>362</ele><time>2020-08-19T12:20:00Z</time><name>PT4809</name></trkpt>
<trkpt lat="53.215319" lon="-1.989398"><ele>361</ele><time>2020-08-19T12:20:05Z</time><name>PT4810</name></trkpt>
<trkpt lat="53.215293" lon="-1.989354"><ele>361</ele><time>2020-08-19T12:20:08Z</time><name>PT4811</name></trkpt>
<trkpt lat="53.215257" lon="-1.989299"><ele>361</ele><time>2020-08-19T12:20:12Z</time><name>PT4812</name></trkpt>
<trkpt lat="53.215218" lon="-1.989249"><ele>361</ele><time>2020-08-19T12:20:15Z</time><name>PT4813</name></trkpt>
<trkpt lat="53.215179" lon="-1.989199"><ele>361</ele><time>2020-08-19T12:20:20Z</time><name>PT4814</name></trkpt>
<trkpt lat="53.215133" lon="-1.989149"><ele>361</ele><time>2020-08-19T12:20:24Z</time><name>PT4815</name></trkpt>
<trkpt lat="53.215092" lon="-1.989092"><ele>360</ele><time>2020-08-19T12:20:27Z</time><name>PT4816</name></trkpt>
<trkpt lat="53.215050" lon="-1.989034"><ele>358</ele><time>2020-08-19T12:20:32Z</time><name>PT4817</name></trkpt>
<trkpt lat="53.215015" lon="-1.988994"><ele>359</ele><time>2020-08-19T12:20:36Z</time><name>PT4818</name></trkpt>
<trkpt lat="53.214981" lon="-1.988940"><ele>358</ele><time>2020-08-19T12:20:39Z</time><name>PT4819</name></trkpt>
<trkpt lat="53.214944" lon="-1.988877"><ele>358</ele><time>2020-08-19T12:20:44Z</time><name>PT4820</name></trkpt>
<trkpt lat="53.214919" lon="-1.988831"><ele>359</ele><time>2020-08-19T12:20:47Z</time><name>PT4821</name></trkpt>
<trkpt lat="53.214906" lon="-1.988798"><ele>358</ele><time>2020-08-19T12:20:50Z</time><name>PT4822</name></trkpt>
<trkpt lat="53.214884" lon="-1.988763"><ele>358</ele><time>2020-08-19T12:20:53Z</time><name>PT4823</name></trkpt>
<trkpt lat="53.214857" lon="-1.988709"><ele>357</ele><time>2020-08-19T12:20:57Z</time><name>PT4824</name></trkpt>
<trkpt lat="53.214837" lon="-1.988678"><ele>356</ele><time>2020-08-19T12:21:00Z</time><name>PT4825</name></trkpt>
<trkpt lat="53.214807" lon="-1.988625"><ele>355</ele><time>2020-08-19T12:21:03Z</time><name>PT4826</name></trkpt>
<trkpt lat="53.214767" lon="-1.988572"><ele>355</ele><time>2020-08-19T12:21:08Z</time><name>PT4827</name></trkpt>
<trkpt lat="53.214738" lon="-1.988539"><ele>356</ele><time>2020-08-19T12:21:11Z</time><name>PT4828</name></trkpt>
<trkpt lat="53.214712" lon="-1.988472"><ele>357</ele><time>2020-08-19T12:21:15Z</time><name>PT4829</name></trkpt>
<trkpt lat="53.214679" lon="-1.988420"><ele>356</ele><time>2020-08-19T12:21:18Z</time><name>PT4830</name></trkpt>
<trkpt lat="53.214647" lon="-1.988365"><ele>355</ele><time>2020-08-19T12:21:23Z</time><name>PT4831</name></trkpt>
<trkpt lat="53.214611" lon="-1.988319"><ele>354</ele><time>2020-08-19T12:21:27Z</time><name>PT4832</name></trkpt>
<trkpt lat="53.214583" lon="-1.988278"><ele>353</ele><time>2020-08-19T12:21:30Z</time><name>PT4833</name></trkpt>
<trkpt lat="53.214541" lon="-1.988238"><ele>353</ele><time>2020-08-19T12:21:33Z</time><name>PT4834</name></trkpt>
<trkpt lat="53.214495" lon="-1.988184"><ele>353</ele><time>2020-08-19T12:21:38Z</time><name>PT4835</name></trkpt>
<trkpt lat="53.214468" lon="-1.988142"><ele>352</ele><time>2020-08-19T12:21:41Z</time><name>PT4836</name></trkpt>
<trkpt lat="53.214422" lon="-1.988104"><ele>350</ele><time>2020-08-19T12:21:45Z</time><name>PT4837</name></trkpt>
<trkpt lat="53.214393" lon="-1.988065"><ele>350</ele><time>2020-08-19T12:21:48Z</time><name>PT4838</name></trkpt>
<trkpt lat="53.214357" lon="-1.988017"><ele>349</ele><time>2020-08-19T12:21:51Z</time><name>PT4839</name></trkpt>
<trkpt lat="53.214320" lon="-1.987969"><ele>349</ele><time>2020-08-19T12:21:56Z</time><name>PT4840</name></trkpt>
<trkpt lat="53.214294" lon="-1.987939"><ele>348</ele><time>2020-08-19T12:21:59Z</time><name>PT4841</name></trkpt>
<trkpt lat="53.214269" lon="-1.987902"><ele>348</ele><time>2020-08-19T12:22:02Z</time><name>PT4842</name></trkpt>
<trkpt lat="53.214234" lon="-1.987867"><ele>348</ele><time>2020-08-19T12:22:06Z</time><name>PT4843</name></trkpt>
<trkpt lat="53.214204" lon="-1.987852"><ele>344</ele><time>2020-08-19T12:22:09Z</time><name>PT4844</name></trkpt>
<trkpt lat="53.214178" lon="-1.987832"><ele>343</ele><time>2020-08-19T12:22:13Z</time><name>PT4845</name></trkpt>
<trkpt lat="53.214145" lon="-1.987816"><ele>342</ele><time>2020-08-19T12:22:17Z</time><name>PT4846</name></trkpt>
<trkpt lat="53.214112" lon="-1.987813"><ele>341</ele><time>2020-08-19T12:22:20Z</time><name>PT4847</name></trkpt>
<trkpt lat="53.214083" lon="-1.987813"><ele>341</ele><time>2020-08-19T12:22:23Z</time><name>PT4848</name></trkpt>
<trkpt lat="53.214040" lon="-1.987777"><ele>342</ele><time>2020-08-19T12:22:27Z</time><name>PT4849</name></trkpt>
<trkpt lat="53.213997" lon="-1.987742"><ele>343</ele><time>2020-08-19T12:22:30Z</time><name>PT4850</name></trkpt>
<trkpt lat="53.213949" lon="-1.987715"><ele>343</ele><time>2020-08-19T12:22:35Z</time><name>PT4851</name></trkpt>
<trkpt lat="53.213913" lon="-1.987684"><ele>344</ele><time>2020-08-19T12:22:39Z</time><name>PT4852</name></trkpt>
<trkpt lat="53.213889" lon="-1.987645"><ele>344</ele><time>2020-08-19T12:22:42Z</time><name>PT4853</name></trkpt>
<trkpt lat="53.213886" lon="-1.987633"><ele>345</ele><time>2020-08-19T12:22:47Z</time><name>PT4854</name></trkpt>
<trkpt lat="53.213893" lon="-1.987614"><ele>345</ele><time>2020-08-19T12:22:57Z</time><name>PT4855</name></trkpt>
<trkpt lat="53.213904" lon="-1.987566"><ele>344</ele><time>2020-08-19T12:23:00Z</time><name>PT4856</name></trkpt>
<trkpt lat="53.213908" lon="-1.987555"><ele>344</ele><time>2020-08-19T12:23:03Z</time><name>PT4857</name></trkpt>
<trkpt lat="53.213908" lon="-1.987554"><ele>344</ele><time>2020-08-19T12:23:08Z</time><name>PT4858</name></trkpt>
<trkpt lat="53.213905" lon="-1.987558"><ele>344</ele><time>2020-08-19T12:23:11Z</time><name>PT4859</name></trkpt>
<trkpt lat="53.213900" lon="-1.987564"><ele>344</ele><time>2020-08-19T12:23:14Z</time><name>PT4860</name></trkpt>
<trkpt lat="53.213895" lon="-1.987577"><ele>344</ele><time>2020-08-19T12:23:17Z</time><name>PT4861</name></trkpt>
<trkpt lat="53.213895" lon="-1.987560"><ele>344</ele><time>2020-08-19T12:23:24Z</time><name>PT4862</name></trkpt>
<trkpt lat="53.213900" lon="-1.987550"><ele>344</ele><time>2020-08-19T12:23:27Z</time><name>PT4863</name></trkpt>
<trkpt lat="53.213902" lon="-1.987558"><ele>344</ele><time>2020-08-19T12:23:32Z</time><name>PT4864</name></trkpt>
<trkpt lat="53.213901" lon="-1.987547"><ele>344</ele><time>2020-08-19T12:23:35Z</time><name>PT4865</name></trkpt>
<trkpt lat="53.213899" lon="-1.987542"><ele>344</ele><time>2020-08-19T12:23:39Z</time><name>PT4866</name></trkpt>
<trkpt lat="53.213901" lon="-1.987528"><ele>345</ele><time>2020-08-19T12:23:45Z</time><name>PT4867</name></trkpt>
<trkpt lat="53.213897" lon="-1.987524"><ele>345</ele><time>2020-08-19T12:23:50Z</time><name>PT4868</name></trkpt>
<trkpt lat="53.213894" lon="-1.987522"><ele>345</ele><time>2020-08-19T12:24:15Z</time><name>PT4869</name></trkpt>
<trkpt lat="53.213883" lon="-1.987525"><ele>347</ele><time>2020-08-19T12:24:18Z</time><name>PT4870</name></trkpt>
<trkpt lat="53.213882" lon="-1.987526"><ele>346</ele><time>2020-08-19T12:24:23Z</time><name>PT4871</name></trkpt>
<trkpt lat="53.213883" lon="-1.987522"><ele>346</ele><time>2020-08-19T12:25:03Z</time><name>PT4872</name></trkpt>
<trkpt lat="53.213884" lon="-1.987523"><ele>346</ele><time>2020-08-19T12:25:03Z</time><name>PT4873</name></trkpt>
<trkpt lat="53.213883" lon="-1.987520"><ele>347</ele><time>2020-08-19T12:25:05Z</time><name>PT4874</name></trkpt>
<trkpt lat="53.213880" lon="-1.987519"><ele>347</ele><time>2020-08-19T12:25:06Z</time><name>PT4875</name></trkpt>
<trkpt lat="53.213880" lon="-1.987522"><ele>346</ele><time>2020-08-19T12:25:06Z</time><name>PT4876</name></trkpt>
<trkpt lat="53.213883" lon="-1.987521"><ele>346</ele><time>2020-08-19T12:25:48Z</time><name>PT4877</name></trkpt>
<trkpt lat="53.213886" lon="-1.987515"><ele>346</ele><time>2020-08-19T12:25:50Z</time><name>PT4878</name></trkpt>
<trkpt lat="53.213889" lon="-1.987504"><ele>346</ele><time>2020-08-19T12:25:51Z</time><name>PT4879</name></trkpt>
<trkpt lat="53.213894" lon="-1.987496"><ele>346</ele><time>2020-08-19T12:25:51Z</time><name>PT4880</name></trkpt>
<trkpt lat="53.213898" lon="-1.987483"><ele>346</ele><time>2020-08-19T12:25:53Z</time><name>PT4881</name></trkpt>
<trkpt lat="53.213897" lon="-1.987471"><ele>346</ele><time>2020-08-19T12:25:54Z</time><name>PT4882</name></trkpt>
<trkpt lat="53.213897" lon="-1.987460"><ele>345</ele><time>2020-08-19T12:25:54Z</time><name>PT4883</name></trkpt>
<trkpt lat="53.213895" lon="-1.987450"><ele>345</ele><time>2020-08-19T12:25:56Z</time><name>PT4884</name></trkpt>
<trkpt lat="53.213893" lon="-1.987436"><ele>345</ele><time>2020-08-19T12:25:57Z</time><name>PT4885</name></trkpt>
<trkpt lat="53.213890" lon="-1.987421"><ele>345</ele><time>2020-08-19T12:25:57Z</time><name>PT4886</name></trkpt>
<trkpt lat="53.213886" lon="-1.987409"><ele>345</ele><time>2020-08-19T12:25:59Z</time><name>PT4887</name></trkpt>
<trkpt lat="53.213884" lon="-1.987402"><ele>346</ele><time>2020-08-19T12:26:00Z</time><name>PT4888</name></trkpt>
<trkpt lat="53.213880" lon="-1.987392"><ele>346</ele><time>2020-08-19T12:26:00Z</time><name>PT4889</name></trkpt>
<trkpt lat="53.213872" lon="-1.987384"><ele>345</ele><time>2020-08-19T12:26:02Z</time><name>PT4890</name></trkpt>
<trkpt lat="53.213862" lon="-1.987381"><ele>345</ele><time>2020-08-19T12:26:03Z</time><name>PT4891</name></trkpt>
<trkpt lat="53.213860" lon="-1.987380"><ele>345</ele><time>2020-08-19T12:26:03Z</time><name>PT4892</name></trkpt>
<trkpt lat="53.213858" lon="-1.987378"><ele>345</ele><time>2020-08-19T12:26:05Z</time><name>PT4893</name></trkpt>
<trkpt lat="53.213856" lon="-1.987378"><ele>345</ele><time>2020-08-19T12:26:06Z</time><name>PT4894</name></trkpt>
<trkpt lat="53.213856" lon="-1.987378"><ele>345</ele><time>2020-08-19T12:26:06Z</time><name>PT4895</name></trkpt>
<trkpt lat="53.213860" lon="-1.987374"><ele>345</ele><time>2020-08-19T12:26:08Z</time><name>PT4896</name></trkpt>
<trkpt lat="53.213857" lon="-1.987375"><ele>345</ele><time>2020-08-19T12:26:09Z</time><name>PT4897</name></trkpt>
<trkpt lat="53.213852" lon="-1.987370"><ele>345</ele><time>2020-08-19T12:26:09Z</time><name>PT4898</name></trkpt>
<trkpt lat="53.213848" lon="-1.987367"><ele>345</ele><time>2020-08-19T12:26:11Z</time><name>PT4899</name></trkpt>
<trkpt lat="53.213847" lon="-1.987358"><ele>345</ele><time>2020-08-19T12:26:12Z</time><name>PT4900</name></trkpt>
<trkpt lat="53.213841" lon="-1.987348"><ele>345</ele><time>2020-08-19T12:26:12Z</time><name>PT4901</name></trkpt>
<trkpt lat="53.213835" lon="-1.987341"><ele>345</ele><time>2020-08-19T12:26:14Z</time><name>PT4902</name></trkpt>
<trkpt lat="53.213828" lon="-1.987335"><ele>345</ele><time>2020-08-19T12:26:15Z</time><name>PT4903</name></trkpt>
<trkpt lat="53.213819" lon="-1.987329"><ele>344</ele><time>2020-08-19T12:26:15Z</time><name>PT4904</name></trkpt>
<trkpt lat="53.213809" lon="-1.987317"><ele>345</ele><time>2020-08-19T12:26:17Z</time><name>PT4905</name></trkpt>
<trkpt lat="53.213802" lon="-1.987309"><ele>345</ele><time>2020-08-19T12:26:18Z</time><name>PT4906</name></trkpt>
<trkpt lat="53.213794" lon="-1.987294"><ele>345</ele><time>2020-08-19T12:26:18Z</time><name>PT4907</name></trkpt>
<trkpt lat="53.213786" lon="-1.987276"><ele>345</ele><time>2020-08-19T12:26:20Z</time><name>PT4908</name></trkpt>
<trkpt lat="53.213779" lon="-1.987259"><ele>345</ele><time>2020-08-19T12:26:21Z</time><name>PT4909</name></trkpt>
<trkpt lat="53.213770" lon="-1.987246"><ele>344</ele><time>2020-08-19T12:26:21Z</time><name>PT4910</name></trkpt>
<trkpt lat="53.213763" lon="-1.987232"><ele>344</ele><time>2020-08-19T12:26:23Z</time><name>PT4911</name></trkpt>
<trkpt lat="53.213759" lon="-1.987222"><ele>344</ele><time>2020-08-19T12:26:24Z</time><name>PT4912</name></trkpt>
<trkpt lat="53.213751" lon="-1.987216"><ele>344</ele><time>2020-08-19T12:26:24Z</time><name>PT4913</name></trkpt>
<trkpt lat="53.213740" lon="-1.987208"><ele>344</ele><time>2020-08-19T12:26:26Z</time><name>PT4914</name></trkpt>
<trkpt lat="53.213731" lon="-1.987203"><ele>344</ele><time>2020-08-19T12:26:27Z</time><name>PT4915</name></trkpt>
<trkpt lat="53.213725" lon="-1.987195"><ele>345</ele><time>2020-08-19T12:26:27Z</time><name>PT4916</name></trkpt>
<trkpt lat="53.213717" lon="-1.987186"><ele>344</ele><time>2020-08-19T12:26:29Z</time><name>PT4917</name></trkpt>
<trkpt lat="53.213710" lon="-1.987182"><ele>344</ele><time>2020-08-19T12:26:30Z</time><name>PT4918</name></trkpt>
<trkpt lat="53.213703" lon="-1.987180"><ele>343</ele><time>2020-08-19T12:26:30Z</time><name>PT4919</name></trkpt>
<trkpt lat="53.213696" lon="-1.987176"><ele>343</ele><time>2020-08-19T12:26:32Z</time><name>PT4920</name></trkpt>
<trkpt lat="53.213687" lon="-1.987172"><ele>343</ele><time>2020-08-19T12:26:33Z</time><name>PT4921</name></trkpt>
<trkpt lat="53.213679" lon="-1.987166"><ele>342</ele><time>2020-08-19T12:26:33Z</time><name>PT4922</name></trkpt>
<trkpt lat="53.213669" lon="-1.987166"><ele>342</ele><time>2020-08-19T12:26:35Z</time><name>PT4923</name></trkpt>
<trkpt lat="53.213657" lon="-1.987166"><ele>342</ele><time>2020-08-19T12:26:36Z</time><name>PT4924</name></trkpt>
<trkpt lat="53.213649" lon="-1.987163"><ele>341</ele><time>2020-08-19T12:26:36Z</time><name>PT4925</name></trkpt>
<trkpt lat="53.213646" lon="-1.987162"><ele>341</ele><time>2020-08-19T12:26:38Z</time><name>PT4926</name></trkpt>
<trkpt lat="53.213644" lon="-1.987163"><ele>341</ele><time>2020-08-19T12:26:39Z</time><name>PT4927</name></trkpt>
<trkpt lat="53.213643" lon="-1.987163"><ele>341</ele><time>2020-08-19T12:26:39Z</time><name>PT4928</name></trkpt>
<trkpt lat="53.213642" lon="-1.987164"><ele>342</ele><time>2020-08-19T12:26:41Z</time><name>PT4929</name></trkpt>
<trkpt lat="53.213638" lon="-1.987159"><ele>342</ele><time>2020-08-19T12:26:47Z</time><name>PT4930</name></trkpt>
<trkpt lat="53.213629" lon="-1.987157"><ele>342</ele><time>2020-08-19T12:26:48Z</time><name>PT4931</name></trkpt>
<trkpt lat="53.213622" lon="-1.987151"><ele>342</ele><time>2020-08-19T12:26:48Z</time><name>PT4932</name></trkpt>
<trkpt lat="53.213612" lon="-1.987156"><ele>343</ele><time>2020-08-19T12:26:50Z</time><name>PT4933</name></trkpt>
<trkpt lat="53.213605" lon="-1.987158"><ele>343</ele><time>2020-08-19T12:26:51Z</time><name>PT4934</name></trkpt>
<trkpt lat="53.213599" lon="-1.987145"><ele>344</ele><time>2020-08-19T12:26:51Z</time><name>PT4935</name></trkpt>
<trkpt lat="53.213592" lon="-1.987142"><ele>344</ele><time>2020-08-19T12:26:53Z</time><name>PT4936</name></trkpt>
<trkpt lat="53.213579" lon="-1.987142"><ele>344</ele><time>2020-08-19T12:26:54Z</time><name>PT4937</name></trkpt>
<trkpt lat="53.213569" lon="-1.987142"><ele>344</ele><time>2020-08-19T12:26:54Z</time><name>PT4938</name></trkpt>
<trkpt lat="53.213554" lon="-1.987145"><ele>343</ele><time>2020-08-19T12:26:56Z</time><name>PT4939</name></trkpt>
<trkpt lat="53.213550" lon="-1.987137"><ele>342</ele><time>2020-08-19T12:26:57Z</time><name>PT4940</name></trkpt>
<trkpt lat="53.213530" lon="-1.987145"><ele>342</ele><time>2020-08-19T12:26:57Z</time><name>PT4941</name></trkpt>
<trkpt lat="53.213518" lon="-1.987154"><ele>342</ele><time>2020-08-19T12:26:59Z</time><name>PT4942</name></trkpt>
<trkpt lat="53.213507" lon="-1.987152"><ele>343</ele><time>2020-08-19T12:27:00Z</time><name>PT4943</name></trkpt>
<trkpt lat="53.213501" lon="-1.987150"><ele>343</ele><time>2020-08-19T12:27:00Z</time><name>PT4944</name></trkpt>
<trkpt lat="53.213487" lon="-1.987151"><ele>343</ele><time>2020-08-19T12:27:02Z</time><name>PT4945</name></trkpt>
<trkpt lat="53.213473" lon="-1.987149"><ele>343</ele><time>2020-08-19T12:27:03Z</time><name>PT4946</name></trkpt>
<trkpt lat="53.213461" lon="-1.987145"><ele>343</ele><time>2020-08-19T12:27:03Z</time><name>PT4947</name></trkpt>
<trkpt lat="53.213447" lon="-1.987139"><ele>343</ele><time>2020-08-19T12:27:05Z</time><name>PT4948</name></trkpt>
<trkpt lat="53.213434" lon="-1.987135"><ele>343</ele><time>2020-08-19T12:27:06Z</time><name>PT4949</name></trkpt>
<trkpt lat="53.213420" lon="-1.987131"><ele>343</ele><time>2020-08-19T12:27:06Z</time><name>PT4950</name></trkpt>
<trkpt lat="53.213407" lon="-1.987129"><ele>343</ele><time>2020-08-19T12:27:08Z</time><name>PT4951</name></trkpt>
<trkpt lat="53.213396" lon="-1.987125"><ele>343</ele><time>2020-08-19T12:27:09Z</time><name>PT4952</name></trkpt>
<trkpt lat="53.213384" lon="-1.987123"><ele>343</ele><time>2020-08-19T12:27:09Z</time><name>PT4953</name></trkpt>
<trkpt lat="53.213370" lon="-1.987123"><ele>343</ele><time>2020-08-19T12:27:11Z</time><name>PT4954</name></trkpt>
<trkpt lat="53.213357" lon="-1.987116"><ele>343</ele><time>2020-08-19T12:27:12Z</time><name>PT4955</name></trkpt>
<trkpt lat="53.213346" lon="-1.987109"><ele>343</ele><time>2020-08-19T12:27:12Z</time><name>PT4956</name></trkpt>
<trkpt lat="53.213336" lon="-1.987104"><ele>343</ele><time>2020-08-19T12:27:14Z</time><name>PT4957</name></trkpt>
<trkpt lat="53.213324" lon="-1.987098"><ele>343</ele><time>2020-08-19T12:27:15Z</time><name>PT4958</name></trkpt>
<trkpt lat="53.213314" lon="-1.987091"><ele>343</ele><time>2020-08-19T12:27:15Z</time><name>PT4959</name></trkpt>
<trkpt lat="53.213302" lon="-1.987085"><ele>343</ele><time>2020-08-19T12:27:17Z</time><name>PT4960</name></trkpt>
<trkpt lat="53.213290" lon="-1.987082"><ele>343</ele><time>2020-08-19T12:27:18Z</time><name>PT4961</name></trkpt>
<trkpt lat="53.213280" lon="-1.987079"><ele>342</ele><time>2020-08-19T12:27:18Z</time><name>PT4962</name></trkpt>
<trkpt lat="53.213266" lon="-1.987075"><ele>342</ele><time>2020-08-19T12:27:20Z</time><name>PT4963</name></trkpt>
<trkpt lat="53.213252" lon="-1.987068"><ele>342</ele><time>2020-08-19T12:27:21Z</time><name>PT4964</name></trkpt>
<trkpt lat="53.213240" lon="-1.987062"><ele>342</ele><time>2020-08-19T12:27:21Z</time><name>PT4965</name></trkpt>
<trkpt lat="53.213226" lon="-1.987059"><ele>343</ele><time>2020-08-19T12:27:23Z</time><name>PT4966</name></trkpt>
<trkpt lat="53.213217" lon="-1.987057"><ele>342</ele><time>2020-08-19T12:27:24Z</time><name>PT4967</name></trkpt>
<trkpt lat="53.213207" lon="-1.987056"><ele>342</ele><time>2020-08-19T12:27:24Z</time><name>PT4968</name></trkpt>
<trkpt lat="53.213196" lon="-1.987054"><ele>341</ele><time>2020-08-19T12:27:26Z</time><name>PT4969</name></trkpt>
<trkpt lat="53.213185" lon="-1.987052"><ele>341</ele><time>2020-08-19T12:27:27Z</time><name>PT4970</name></trkpt>
<trkpt lat="53.213175" lon="-1.987042"><ele>341</ele><time>2020-08-19T12:27:27Z</time><name>PT4971</name></trkpt>
<trkpt lat="53.213164" lon="-1.987035"><ele>341</ele><time>2020-08-19T12:27:29Z</time><name>PT4972</name></trkpt>
<trkpt lat="53.213149" lon="-1.987033"><ele>341</ele><time>2020-08-19T12:27:30Z</time><name>PT4973</name></trkpt>
<trkpt lat="53.213137" lon="-1.987030"><ele>341</ele><time>2020-08-19T12:27:30Z</time><name>PT4974</name></trkpt>
<trkpt lat="53.213125" lon="-1.987029"><ele>341</ele><time>2020-08-19T12:27:32Z</time><name>PT4975</name></trkpt>
<trkpt lat="53.213112" lon="-1.987025"><ele>341</ele><time>2020-08-19T12:27:33Z</time><name>PT4976</name></trkpt>
<trkpt lat="53.213099" lon="-1.987019"><ele>341</ele><time>2020-08-19T12:27:33Z</time><name>PT4977</name></trkpt>
<trkpt lat="53.213081" lon="-1.987015"><ele>341</ele><time>2020-08-19T12:27:35Z</time><name>PT4978</name></trkpt>
<trkpt lat="53.213067" lon="-1.987013"><ele>341</ele><time>2020-08-19T12:27:36Z</time><name>PT4979</name></trkpt>
<trkpt lat="53.213050" lon="-1.987009"><ele>341</ele><time>2020-08-19T12:27:36Z</time><name>PT4980</name></trkpt>
<trkpt lat="53.213036" lon="-1.987001"><ele>342</ele><time>2020-08-19T12:27:38Z</time><name>PT4981</name></trkpt>
<trkpt lat="53.213025" lon="-1.986992"><ele>342</ele><time>2020-08-19T12:27:39Z</time><name>PT4982</name></trkpt>
<trkpt lat="53.213011" lon="-1.986984"><ele>342</ele><time>2020-08-19T12:27:39Z</time><name>PT4983</name></trkpt>
<trkpt lat="53.212999" lon="-1.986979"><ele>342</ele><time>2020-08-19T12:27:41Z</time><name>PT4984</name></trkpt>
<trkpt lat="53.212987" lon="-1.986975"><ele>343</ele><time>2020-08-19T12:27:42Z</time><name>PT4985</name></trkpt>
<trkpt lat="53.212973" lon="-1.986968"><ele>342</ele><time>2020-08-19T12:27:42Z</time><name>PT4986</name></trkpt>
<trkpt lat="53.212959" lon="-1.986960"><ele>342</ele><time>2020-08-19T12:27:44Z</time><name>PT4987</name></trkpt>
<trkpt lat="53.212947" lon="-1.986949"><ele>342</ele><time>2020-08-19T12:27:45Z</time><name>PT4988</name></trkpt>
<trkpt lat="53.212936" lon="-1.986940"><ele>342</ele><time>2020-08-19T12:27:46Z</time><name>PT4989</name></trkpt>
<trkpt lat="53.212925" lon="-1.986931"><ele>342</ele><time>2020-08-19T12:27:47Z</time><name>PT4990</name></trkpt>
<trkpt lat="53.212890" lon="-1.986916"><ele>341</ele><time>2020-08-19T12:27:50Z</time><name>PT4991</name></trkpt>
<trkpt lat="53.212845" lon="-1.986898"><ele>341</ele><time>2020-08-19T12:27:54Z</time><name>PT4992</name></trkpt>
<trkpt lat="53.212796" lon="-1.986888"><ele>341</ele><time>2020-08-19T12:27:57Z</time><name>PT4993</name></trkpt>
<trkpt lat="53.212751" lon="-1.986874"><ele>342</ele><time>2020-08-19T12:28:02Z</time><name>PT4994</name></trkpt>
<trkpt lat="53.212719" lon="-1.986859"><ele>342</ele><time>2020-08-19T12:28:05Z</time><name>PT4995</name></trkpt>
<trkpt lat="53.212670" lon="-1.986849"><ele>344</ele><time>2020-08-19T12:28:09Z</time><name>PT4996</name></trkpt>
<trkpt lat="53.212643" lon="-1.986843"><ele>343</ele><time>2020-08-19T12:28:12Z</time><name>PT4997</name></trkpt>
<trkpt lat="53.212604" lon="-1.986832"><ele>343</ele><time>2020-08-19T12:28:15Z</time><name>PT4998</name></trkpt>
<trkpt lat="53.212578" lon="-1.986818"><ele>343</ele><time>2020-08-19T12:28:18Z</time><name>PT4999</name></trkpt>
<trkpt lat="53.212536" lon="-1.986811"><ele>344</ele><time>2020-08-19T12:28:23Z</time><name>PT5000</name></trkpt>
<trkpt lat="53.212506" lon="-1.986805"><ele>343</ele><time>2020-08-19T12:28:26Z</time><name>PT5001</name></trkpt>
<trkpt lat="53.212478" lon="-1.986801"><ele>342</ele><time>2020-08-19T12:28:29Z</time><name>PT5002</name></trkpt>
<trkpt lat="53.212445" lon="-1.986803"><ele>342</ele><time>2020-08-19T12:28:32Z</time><name>PT5003</name></trkpt>
<trkpt lat="53.212405" lon="-1.986794"><ele>342</ele><time>2020-08-19T12:28:36Z</time><name>PT5004</name></trkpt>
<trkpt lat="53.212362" lon="-1.986788"><ele>343</ele><time>2020-08-19T12:28:39Z</time><name>PT5005</name></trkpt>
<trkpt lat="53.212315" lon="-1.986797"><ele>344</ele><time>2020-08-19T12:28:44Z</time><name>PT5006</name></trkpt>
<trkpt lat="53.212283" lon="-1.986796"><ele>344</ele><time>2020-08-19T12:28:47Z</time><name>PT5007</name></trkpt>
<trkpt lat="53.212233" lon="-1.986795"><ele>344</ele><time>2020-08-19T12:28:51Z</time><name>PT5008</name></trkpt>
<trkpt lat="53.212211" lon="-1.986788"><ele>343</ele><time>2020-08-19T12:28:54Z</time><name>PT5009</name></trkpt>
<trkpt lat="53.212204" lon="-1.986787"><ele>343</ele><time>2020-08-19T12:28:57Z</time><name>PT5010</name></trkpt>
<trkpt lat="53.212179" lon="-1.986781"><ele>344</ele><time>2020-08-19T12:29:00Z</time><name>PT5011</name></trkpt>
<trkpt lat="53.212128" lon="-1.986782"><ele>346</ele><time>2020-08-19T12:29:05Z</time><name>PT5012</name></trkpt>
<trkpt lat="53.212077" lon="-1.986764"><ele>345</ele><time>2020-08-19T12:29:09Z</time><name>PT5013</name></trkpt>
<trkpt lat="53.212031" lon="-1.986756"><ele>345</ele><time>2020-08-19T12:29:12Z</time><name>PT5014</name></trkpt>
<trkpt lat="53.211987" lon="-1.986749"><ele>346</ele><time>2020-08-19T12:29:17Z</time><name>PT5015</name></trkpt>
<trkpt lat="53.211956" lon="-1.986758"><ele>347</ele><time>2020-08-19T12:29:20Z</time><name>PT5016</name></trkpt>
<trkpt lat="53.211924" lon="-1.986778"><ele>349</ele><time>2020-08-19T12:29:23Z</time><name>PT5017</name></trkpt>
<trkpt lat="53.211897" lon="-1.986819"><ele>350</ele><time>2020-08-19T12:29:27Z</time><name>PT5018</name></trkpt>
<trkpt lat="53.211865" lon="-1.986822"><ele>347</ele><time>2020-08-19T12:29:30Z</time><name>PT5019</name></trkpt>
<trkpt lat="53.211838" lon="-1.986841"><ele>345</ele><time>2020-08-19T12:29:33Z</time><name>PT5020</name></trkpt>
<trkpt lat="53.211810" lon="-1.986862"><ele>345</ele><time>2020-08-19T12:29:36Z</time><name>PT5021</name></trkpt>
<trkpt lat="53.211766" lon="-1.986911"><ele>346</ele><time>2020-08-19T12:29:39Z</time><name>PT5022</name></trkpt>
<trkpt lat="53.211731" lon="-1.986962"><ele>348</ele><time>2020-08-19T12:29:44Z</time><name>PT5023</name></trkpt>
<trkpt lat="53.211703" lon="-1.986996"><ele>349</ele><time>2020-08-19T12:29:47Z</time><name>PT5024</name></trkpt>
<trkpt lat="53.211671" lon="-1.987034"><ele>350</ele><time>2020-08-19T12:29:51Z</time><name>PT5025</name></trkpt>
<trkpt lat="53.211645" lon="-1.987082"><ele>350</ele><time>2020-08-19T12:29:54Z</time><name>PT5026</name></trkpt>
<trkpt lat="53.211619" lon="-1.987089"><ele>347</ele><time>2020-08-19T12:29:59Z</time><name>PT5027</name></trkpt>
<trkpt lat="53.211609" lon="-1.987099"><ele>348</ele><time>2020-08-19T12:30:02Z</time><name>PT5028</name></trkpt>
<trkpt lat="53.211581" lon="-1.987076"><ele>349</ele><time>2020-08-19T12:30:06Z</time><name>PT5029</name></trkpt>
<trkpt lat="53.211582" lon="-1.987080"><ele>350</ele><time>2020-08-19T12:30:08Z</time><name>PT5030</name></trkpt>
<trkpt lat="53.211577" lon="-1.987093"><ele>350</ele><time>2020-08-19T12:30:09Z</time><name>PT5031</name></trkpt>
<trkpt lat="53.211570" lon="-1.987102"><ele>350</ele><time>2020-08-19T12:30:09Z</time><name>PT5032</name></trkpt>
<trkpt lat="53.211558" lon="-1.987108"><ele>351</ele><time>2020-08-19T12:30:11Z</time><name>PT5033</name></trkpt>
<trkpt lat="53.211552" lon="-1.987109"><ele>351</ele><time>2020-08-19T12:30:12Z</time><name>PT5034</name></trkpt>
<trkpt lat="53.211550" lon="-1.987112"><ele>351</ele><time>2020-08-19T12:30:12Z</time><name>PT5035</name></trkpt>
<trkpt lat="53.211550" lon="-1.987116"><ele>351</ele><time>2020-08-19T12:30:14Z</time><name>PT5036</name></trkpt>
<trkpt lat="53.211548" lon="-1.987120"><ele>352</ele><time>2020-08-19T12:30:15Z</time><name>PT5037</name></trkpt>
<trkpt lat="53.211546" lon="-1.987117"><ele>352</ele><time>2020-08-19T12:30:15Z</time><name>PT5038</name></trkpt>
<trkpt lat="53.211540" lon="-1.987112"><ele>352</ele><time>2020-08-19T12:30:17Z</time><name>PT5039</name></trkpt>
<trkpt lat="53.211534" lon="-1.987111"><ele>352</ele><time>2020-08-19T12:30:18Z</time><name>PT5040</name></trkpt>
<trkpt lat="53.211528" lon="-1.987111"><ele>352</ele><time>2020-08-19T12:30:18Z</time><name>PT5041</name></trkpt>
<trkpt lat="53.211521" lon="-1.987113"><ele>352</ele><time>2020-08-19T12:30:20Z</time><name>PT5042</name></trkpt>
<trkpt lat="53.211520" lon="-1.987119"><ele>352</ele><time>2020-08-19T12:30:21Z</time><name>PT5043</name></trkpt>
<trkpt lat="53.211519" lon="-1.987120"><ele>352</ele><time>2020-08-19T12:30:21Z</time><name>PT5044</name></trkpt>
<trkpt lat="53.211518" lon="-1.987120"><ele>352</ele><time>2020-08-19T12:30:23Z</time><name>PT5045</name></trkpt>
<trkpt lat="53.211518" lon="-1.987125"><ele>352</ele><time>2020-08-19T12:30:24Z</time><name>PT5046</name></trkpt>
<trkpt lat="53.211517" lon="-1.987125"><ele>353</ele><time>2020-08-19T12:30:24Z</time><name>PT5047</name></trkpt>
<trkpt lat="53.211518" lon="-1.987124"><ele>353</ele><time>2020-08-19T12:30:26Z</time><name>PT5048</name></trkpt>
<trkpt lat="53.211519" lon="-1.987123"><ele>352</ele><time>2020-08-19T12:30:27Z</time><name>PT5049</name></trkpt>
<trkpt lat="53.211513" lon="-1.987128"><ele>353</ele><time>2020-08-19T12:30:35Z</time><name>PT5050</name></trkpt>
<trkpt lat="53.211502" lon="-1.987128"><ele>353</ele><time>2020-08-19T12:30:36Z</time><name>PT5051</name></trkpt>
<trkpt lat="53.211496" lon="-1.987130"><ele>352</ele><time>2020-08-19T12:30:36Z</time><name>PT5052</name></trkpt>
<trkpt lat="53.211490" lon="-1.987124"><ele>352</ele><time>2020-08-19T12:30:38Z</time><name>PT5053</name></trkpt>
<trkpt lat="53.211482" lon="-1.987119"><ele>351</ele><time>2020-08-19T12:30:39Z</time><name>PT5054</name></trkpt>
<trkpt lat="53.211475" lon="-1.987116"><ele>350</ele><time>2020-08-19T12:30:39Z</time><name>PT5055</name></trkpt>
<trkpt lat="53.211470" lon="-1.987112"><ele>350</ele><time>2020-08-19T12:30:41Z</time><name>PT5056</name></trkpt>
<trkpt lat="53.211463" lon="-1.987114"><ele>350</ele><time>2020-08-19T12:30:42Z</time><name>PT5057</name></trkpt>
<trkpt lat="53.211456" lon="-1.987119"><ele>350</ele><time>2020-08-19T12:30:42Z</time><name>PT5058</name></trkpt>
<trkpt lat="53.211448" lon="-1.987121"><ele>350</ele><time>2020-08-19T12:30:44Z</time><name>PT5059</name></trkpt>
<trkpt lat="53.211440" lon="-1.987124"><ele>350</ele><time>2020-08-19T12:30:45Z</time><name>PT5060</name></trkpt>
<trkpt lat="53.211429" lon="-1.987124"><ele>349</ele><time>2020-08-19T12:30:45Z</time><name>PT5061</name></trkpt>
<trkpt lat="53.211420" lon="-1.987127"><ele>350</ele><time>2020-08-19T12:30:47Z</time><name>PT5062</name></trkpt>
<trkpt lat="53.211411" lon="-1.987127"><ele>350</ele><time>2020-08-19T12:30:48Z</time><name>PT5063</name></trkpt>
<trkpt lat="53.211404" lon="-1.987130"><ele>350</ele><time>2020-08-19T12:30:48Z</time><name>PT5064</name></trkpt>
<trkpt lat="53.211396" lon="-1.987130"><ele>350</ele><time>2020-08-19T12:30:50Z</time><name>PT5065</name></trkpt>
<trkpt lat="53.211385" lon="-1.987132"><ele>350</ele><time>2020-08-19T12:30:51Z</time><name>PT5066</name></trkpt>
<trkpt lat="53.211377" lon="-1.987132"><ele>350</ele><time>2020-08-19T12:30:51Z</time><name>PT5067</name></trkpt>
<trkpt lat="53.211371" lon="-1.987127"><ele>348</ele><time>2020-08-19T12:30:53Z</time><name>PT5068</name></trkpt>
<trkpt lat="53.211362" lon="-1.987143"><ele>349</ele><time>2020-08-19T12:30:54Z</time><name>PT5069</name></trkpt>
<trkpt lat="53.211348" lon="-1.987153"><ele>350</ele><time>2020-08-19T12:30:54Z</time><name>PT5070</name></trkpt>
<trkpt lat="53.211334" lon="-1.987166"><ele>352</ele><time>2020-08-19T12:30:56Z</time><name>PT5071</name></trkpt>
<trkpt lat="53.211323" lon="-1.987171"><ele>352</ele><time>2020-08-19T12:30:57Z</time><name>PT5072</name></trkpt>
<trkpt lat="53.211314" lon="-1.987171"><ele>352</ele><time>2020-08-19T12:30:57Z</time><name>PT5073</name></trkpt>
<trkpt lat="53.211304" lon="-1.987170"><ele>352</ele><time>2020-08-19T12:30:59Z</time><name>PT5074</name></trkpt>
<trkpt lat="53.211293" lon="-1.987175"><ele>353</ele><time>2020-08-19T12:31:00Z</time><name>PT5075</name></trkpt>
<trkpt lat="53.211282" lon="-1.987176"><ele>353</ele><time>2020-08-19T12:31:00Z</time><name>PT5076</name></trkpt>
<trkpt lat="53.211270" lon="-1.987175"><ele>353</ele><time>2020-08-19T12:31:02Z</time><name>PT5077</name></trkpt>
<trkpt lat="53.211258" lon="-1.987179"><ele>353</ele><time>2020-08-19T12:31:03Z</time><name>PT5078</name></trkpt>
<trkpt lat="53.211245" lon="-1.987180"><ele>353</ele><time>2020-08-19T12:31:04Z</time><name>PT5079</name></trkpt>
<trkpt lat="53.211232" lon="-1.987186"><ele>353</ele><time>2020-08-19T12:31:05Z</time><name>PT5080</name></trkpt>
<trkpt lat="53.211223" lon="-1.987191"><ele>354</ele><time>2020-08-19T12:31:06Z</time><name>PT5081</name></trkpt>
<trkpt lat="53.211211" lon="-1.987189"><ele>353</ele><time>2020-08-19T12:31:06Z</time><name>PT5082</name></trkpt>
<trkpt lat="53.211199" lon="-1.987191"><ele>353</ele><time>2020-08-19T12:31:08Z</time><name>PT5083</name></trkpt>
<trkpt lat="53.211189" lon="-1.987195"><ele>353</ele><time>2020-08-19T12:31:09Z</time><name>PT5084</name></trkpt>
<trkpt lat="53.211179" lon="-1.987200"><ele>352</ele><time>2020-08-19T12:31:09Z</time><name>PT5085</name></trkpt>
<trkpt lat="53.211170" lon="-1.987203"><ele>352</ele><time>2020-08-19T12:31:11Z</time><name>PT5086</name></trkpt>
<trkpt lat="53.211160" lon="-1.987201"><ele>352</ele><time>2020-08-19T12:31:12Z</time><name>PT5087</name></trkpt>
<trkpt lat="53.211150" lon="-1.987197"><ele>351</ele><time>2020-08-19T12:31:13Z</time><name>PT5088</name></trkpt>
<trkpt lat="53.211140" lon="-1.987200"><ele>351</ele><time>2020-08-19T12:31:14Z</time><name>PT5089</name></trkpt>
<trkpt lat="53.211130" lon="-1.987203"><ele>351</ele><time>2020-08-19T12:31:15Z</time><name>PT5090</name></trkpt>
<trkpt lat="53.211119" lon="-1.987199"><ele>350</ele><time>2020-08-19T12:31:16Z</time><name>PT5091</name></trkpt>
<trkpt lat="53.211110" lon="-1.987200"><ele>350</ele><time>2020-08-19T12:31:17Z</time><name>PT5092</name></trkpt>
<trkpt lat="53.211100" lon="-1.987198"><ele>350</ele><time>2020-08-19T12:31:18Z</time><name>PT5093</name></trkpt>
<trkpt lat="53.211089" lon="-1.987201"><ele>350</ele><time>2020-08-19T12:31:19Z</time><name>PT5094</name></trkpt>
<trkpt lat="53.211080" lon="-1.987200"><ele>350</ele><time>2020-08-19T12:31:20Z</time><name>PT5095</name></trkpt>
<trkpt lat="53.211070" lon="-1.987195"><ele>350</ele><time>2020-08-19T12:31:21Z</time><name>PT5096</name></trkpt>
<trkpt lat="53.211062" lon="-1.987199"><ele>349</ele><time>2020-08-19T12:31:21Z</time><name>PT5097</name></trkpt>
<trkpt lat="53.211052" lon="-1.987202"><ele>349</ele><time>2020-08-19T12:31:23Z</time><name>PT5098</name></trkpt>
<trkpt lat="53.211045" lon="-1.987205"><ele>349</ele><time>2020-08-19T12:31:24Z</time><name>PT5099</name></trkpt>
<trkpt lat="53.211039" lon="-1.987208"><ele>349</ele><time>2020-08-19T12:31:24Z</time><name>PT5100</name></trkpt>
<trkpt lat="53.211031" lon="-1.987204"><ele>348</ele><time>2020-08-19T12:31:26Z</time><name>PT5101</name></trkpt>
<trkpt lat="53.211020" lon="-1.987201"><ele>348</ele><time>2020-08-19T12:31:27Z</time><name>PT5102</name></trkpt>
<trkpt lat="53.211011" lon="-1.987206"><ele>349</ele><time>2020-08-19T12:31:27Z</time><name>PT5103</name></trkpt>
<trkpt lat="53.210995" lon="-1.987208"><ele>348</ele><time>2020-08-19T12:31:29Z</time><name>PT5104</name></trkpt>
<trkpt lat="53.210983" lon="-1.987210"><ele>348</ele><time>2020-08-19T12:31:30Z</time><name>PT5105</name></trkpt>
<trkpt lat="53.210973" lon="-1.987210"><ele>347</ele><time>2020-08-19T12:31:30Z</time><name>PT5106</name></trkpt>
<trkpt lat="53.210963" lon="-1.987211"><ele>347</ele><time>2020-08-19T12:31:32Z</time><name>PT5107</name></trkpt>
<trkpt lat="53.210948" lon="-1.987217"><ele>347</ele><time>2020-08-19T12:31:33Z</time><name>PT5108</name></trkpt>
<trkpt lat="53.210938" lon="-1.987218"><ele>346</ele><time>2020-08-19T12:31:33Z</time><name>PT5109</name></trkpt>
<trkpt lat="53.210926" lon="-1.987223"><ele>346</ele><time>2020-08-19T12:31:35Z</time><name>PT5110</name></trkpt>
<trkpt lat="53.210917" lon="-1.987217"><ele>345</ele><time>2020-08-19T12:31:36Z</time><name>PT5111</name></trkpt>
<trkpt lat="53.210904" lon="-1.987219"><ele>345</ele><time>2020-08-19T12:31:36Z</time><name>PT5112</name></trkpt>
<trkpt lat="53.210891" lon="-1.987223"><ele>345</ele><time>2020-08-19T12:31:38Z</time><name>PT5113</name></trkpt>
<trkpt lat="53.210880" lon="-1.987229"><ele>345</ele><time>2020-08-19T12:31:39Z</time><name>PT5114</name></trkpt>
<trkpt lat="53.210868" lon="-1.987235"><ele>345</ele><time>2020-08-19T12:31:39Z</time><name>PT5115</name></trkpt>
<trkpt lat="53.210854" lon="-1.987237"><ele>345</ele><time>2020-08-19T12:31:41Z</time><name>PT5116</name></trkpt>
<trkpt lat="53.210841" lon="-1.987243"><ele>345</ele><time>2020-08-19T12:31:42Z</time><name>PT5117</name></trkpt>
<trkpt lat="53.210826" lon="-1.987254"><ele>345</ele><time>2020-08-19T12:31:42Z</time><name>PT5118</name></trkpt>
<trkpt lat="53.210814" lon="-1.987259"><ele>345</ele><time>2020-08-19T12:31:44Z</time><name>PT5119</name></trkpt>
<trkpt lat="53.210800" lon="-1.987264"><ele>345</ele><time>2020-08-19T12:31:45Z</time><name>PT5120</name></trkpt>
<trkpt lat="53.210791" lon="-1.987270"><ele>344</ele><time>2020-08-19T12:31:45Z</time><name>PT5121</name></trkpt>
<trkpt lat="53.210779" lon="-1.987275"><ele>344</ele><time>2020-08-19T12:31:47Z</time><name>PT5122</name></trkpt>
<trkpt lat="53.210767" lon="-1.987280"><ele>345</ele><time>2020-08-19T12:31:48Z</time><name>PT5123</name></trkpt>
<trkpt lat="53.210753" lon="-1.987283"><ele>346</ele><time>2020-08-19T12:31:48Z</time><name>PT5124</name></trkpt>
<trkpt lat="53.210733" lon="-1.987291"><ele>346</ele><time>2020-08-19T12:31:50Z</time><name>PT5125</name></trkpt>
<trkpt lat="53.210722" lon="-1.987294"><ele>346</ele><time>2020-08-19T12:31:51Z</time><name>PT5126</name></trkpt>
<trkpt lat="53.210708" lon="-1.987298"><ele>346</ele><time>2020-08-19T12:31:51Z</time><name>PT5127</name></trkpt>
<trkpt lat="53.210695" lon="-1.987306"><ele>346</ele><time>2020-08-19T12:31:53Z</time><name>PT5128</name></trkpt>
<trkpt lat="53.210684" lon="-1.987312"><ele>346</ele><time>2020-08-19T12:31:54Z</time><name>PT5129</name></trkpt>
<trkpt lat="53.210672" lon="-1.987317"><ele>346</ele><time>2020-08-19T12:31:54Z</time><name>PT5130</name></trkpt>
<trkpt lat="53.210659" lon="-1.987325"><ele>346</ele><time>2020-08-19T12:31:56Z</time><name>PT5131</name></trkpt>
<trkpt lat="53.210647" lon="-1.987334"><ele>346</ele><time>2020-08-19T12:31:57Z</time><name>PT5132</name></trkpt>
<trkpt lat="53.210633" lon="-1.987340"><ele>347</ele><time>2020-08-19T12:31:57Z</time><name>PT5133</name></trkpt>
<trkpt lat="53.210620" lon="-1.987349"><ele>347</ele><time>2020-08-19T12:31:59Z</time><name>PT5134</name></trkpt>
<trkpt lat="53.210608" lon="-1.987357"><ele>347</ele><time>2020-08-19T12:32:00Z</time><name>PT5135</name></trkpt>
<trkpt lat="53.210593" lon="-1.987364"><ele>347</ele><time>2020-08-19T12:32:00Z</time><name>PT5136</name></trkpt>
<trkpt lat="53.210579" lon="-1.987371"><ele>347</ele><time>2020-08-19T12:32:02Z</time><name>PT5137</name></trkpt>
<trkpt lat="53.210566" lon="-1.987383"><ele>348</ele><time>2020-08-19T12:32:03Z</time><name>PT5138</name></trkpt>
<trkpt lat="53.210553" lon="-1.987387"><ele>348</ele><time>2020-08-19T12:32:03Z</time><name>PT5139</name></trkpt>
<trkpt lat="53.210537" lon="-1.987387"><ele>347</ele><time>2020-08-19T12:32:05Z</time><name>PT5140</name></trkpt>
<trkpt lat="53.210526" lon="-1.987391"><ele>347</ele><time>2020-08-19T12:32:06Z</time><name>PT5141</name></trkpt>
<trkpt lat="53.210513" lon="-1.987396"><ele>347</ele><time>2020-08-19T12:32:06Z</time><name>PT5142</name></trkpt>
<trkpt lat="53.210500" lon="-1.987398"><ele>346</ele><time>2020-08-19T12:32:08Z</time><name>PT5143</name></trkpt>
<trkpt lat="53.210487" lon="-1.987401"><ele>345</ele><time>2020-08-19T12:32:09Z</time><name>PT5144</name></trkpt>
<trkpt lat="53.210471" lon="-1.987403"><ele>345</ele><time>2020-08-19T12:32:09Z</time><name>PT5145</name></trkpt>
<trkpt lat="53.210456" lon="-1.987406"><ele>345</ele><time>2020-08-19T12:32:11Z</time><name>PT5146</name></trkpt>
<trkpt lat="53.210441" lon="-1.987414"><ele>346</ele><time>2020-08-19T12:32:12Z</time><name>PT5147</name></trkpt>
<trkpt lat="53.210427" lon="-1.987420"><ele>346</ele><time>2020-08-19T12:32:12Z</time><name>PT5148</name></trkpt>
<trkpt lat="53.210414" lon="-1.987428"><ele>346</ele><time>2020-08-19T12:32:14Z</time><name>PT5149</name></trkpt>
<trkpt lat="53.210401" lon="-1.987435"><ele>347</ele><time>2020-08-19T12:32:15Z</time><name>PT5150</name></trkpt>
<trkpt lat="53.210389" lon="-1.987440"><ele>347</ele><time>2020-08-19T12:32:15Z</time><name>PT5151</name></trkpt>
<trkpt lat="53.210374" lon="-1.987443"><ele>347</ele><time>2020-08-19T12:32:17Z</time><name>PT5152</name></trkpt>
<trkpt lat="53.210358" lon="-1.987452"><ele>348</ele><time>2020-08-19T12:32:18Z</time><name>PT5153</name></trkpt>
<trkpt lat="53.210346" lon="-1.987459"><ele>348</ele><time>2020-08-19T12:32:18Z</time><name>PT5154</name></trkpt>
<trkpt lat="53.210333" lon="-1.987462"><ele>348</ele><time>2020-08-19T12:32:20Z</time><name>PT5155</name></trkpt>
<trkpt lat="53.210320" lon="-1.987469"><ele>348</ele><time>2020-08-19T12:32:21Z</time><name>PT5156</name></trkpt>
<trkpt lat="53.210305" lon="-1.987474"><ele>348</ele><time>2020-08-19T12:32:21Z</time><name>PT5157</name></trkpt>
<trkpt lat="53.210292" lon="-1.987480"><ele>348</ele><time>2020-08-19T12:32:23Z</time><name>PT5158</name></trkpt>
<trkpt lat="53.210280" lon="-1.987486"><ele>348</ele><time>2020-08-19T12:32:24Z</time><name>PT5159</name></trkpt>
<trkpt lat="53.210266" lon="-1.987494"><ele>349</ele><time>2020-08-19T12:32:24Z</time><name>PT5160</name></trkpt>
<trkpt lat="53.210255" lon="-1.987498"><ele>349</ele><time>2020-08-19T12:32:26Z</time><name>PT5161</name></trkpt>
<trkpt lat="53.210241" lon="-1.987507"><ele>350</ele><time>2020-08-19T12:32:27Z</time><name>PT5162</name></trkpt>
<trkpt lat="53.210226" lon="-1.987512"><ele>350</ele><time>2020-08-19T12:32:27Z</time><name>PT5163</name></trkpt>
<trkpt lat="53.210212" lon="-1.987520"><ele>350</ele><time>2020-08-19T12:32:29Z</time><name>PT5164</name></trkpt>
<trkpt lat="53.210198" lon="-1.987526"><ele>350</ele><time>2020-08-19T12:32:30Z</time><name>PT5165</name></trkpt>
<trkpt lat="53.210186" lon="-1.987531"><ele>350</ele><time>2020-08-19T12:32:30Z</time><name>PT5166</name></trkpt>
<trkpt lat="53.210175" lon="-1.987536"><ele>350</ele><time>2020-08-19T12:32:32Z</time><name>PT5167</name></trkpt>
<trkpt lat="53.210165" lon="-1.987544"><ele>351</ele><time>2020-08-19T12:32:33Z</time><name>PT5168</name></trkpt>
<trkpt lat="53.210156" lon="-1.987550"><ele>350</ele><time>2020-08-19T12:32:33Z</time><name>PT5169</name></trkpt>
<trkpt lat="53.210143" lon="-1.987550"><ele>350</ele><time>2020-08-19T12:32:35Z</time><name>PT5170</name></trkpt>
<trkpt lat="53.210132" lon="-1.987551"><ele>350</ele><time>2020-08-19T12:32:36Z</time><name>PT5171</name></trkpt>
<trkpt lat="53.210122" lon="-1.987559"><ele>350</ele><time>2020-08-19T12:32:36Z</time><name>PT5172</name></trkpt>
<trkpt lat="53.210113" lon="-1.987567"><ele>350</ele><time>2020-08-19T12:32:38Z</time><name>PT5173</name></trkpt>
<trkpt lat="53.210101" lon="-1.987574"><ele>349</ele><time>2020-08-19T12:32:39Z</time><name>PT5174</name></trkpt>
<trkpt lat="53.210086" lon="-1.987583"><ele>350</ele><time>2020-08-19T12:32:39Z</time><name>PT5175</name></trkpt>
<trkpt lat="53.210074" lon="-1.987592"><ele>350</ele><time>2020-08-19T12:32:41Z</time><name>PT5176</name></trkpt>
<trkpt lat="53.210060" lon="-1.987600"><ele>350</ele><time>2020-08-19T12:32:42Z</time><name>PT5177</name></trkpt>
<trkpt lat="53.210047" lon="-1.987607"><ele>350</ele><time>2020-08-19T12:32:42Z</time><name>PT5178</name></trkpt>
<trkpt lat="53.210036" lon="-1.987612"><ele>350</ele><time>2020-08-19T12:32:44Z</time><name>PT5179</name></trkpt>
<trkpt lat="53.210023" lon="-1.987618"><ele>350</ele><time>2020-08-19T12:32:45Z</time><name>PT5180</name></trkpt>
<trkpt lat="53.210009" lon="-1.987627"><ele>350</ele><time>2020-08-19T12:32:45Z</time><name>PT5181</name></trkpt>
<trkpt lat="53.209995" lon="-1.987630"><ele>350</ele><time>2020-08-19T12:32:47Z</time><name>PT5182</name></trkpt>
<trkpt lat="53.209981" lon="-1.987637"><ele>351</ele><time>2020-08-19T12:32:48Z</time><name>PT5183</name></trkpt>
<trkpt lat="53.209967" lon="-1.987641"><ele>351</ele><time>2020-08-19T12:32:48Z</time><name>PT5184</name></trkpt>
<trkpt lat="53.209955" lon="-1.987644"><ele>351</ele><time>2020-08-19T12:32:50Z</time><name>PT5185</name></trkpt>
<trkpt lat="53.209942" lon="-1.987644"><ele>351</ele><time>2020-08-19T12:32:51Z</time><name>PT5186</name></trkpt>
<trkpt lat="53.209929" lon="-1.987649"><ele>351</ele><time>2020-08-19T12:32:51Z</time><name>PT5187</name></trkpt>
<trkpt lat="53.209917" lon="-1.987653"><ele>351</ele><time>2020-08-19T12:32:53Z</time><name>PT5188</name></trkpt>
<trkpt lat="53.209903" lon="-1.987653"><ele>350</ele><time>2020-08-19T12:32:54Z</time><name>PT5189</name></trkpt>
<trkpt lat="53.209889" lon="-1.987656"><ele>351</ele><time>2020-08-19T12:32:54Z</time><name>PT5190</name></trkpt>
<trkpt lat="53.209877" lon="-1.987660"><ele>351</ele><time>2020-08-19T12:32:56Z</time><name>PT5191</name></trkpt>
<trkpt lat="53.209866" lon="-1.987664"><ele>351</ele><time>2020-08-19T12:32:57Z</time><name>PT5192</name></trkpt>
<trkpt lat="53.209854" lon="-1.987669"><ele>351</ele><time>2020-08-19T12:32:57Z</time><name>PT5193</name></trkpt>
<trkpt lat="53.209845" lon="-1.987673"><ele>351</ele><time>2020-08-19T12:32:59Z</time><name>PT5194</name></trkpt>
<trkpt lat="53.209835" lon="-1.987679"><ele>350</ele><time>2020-08-19T12:33:00Z</time><name>PT5195</name></trkpt>
<trkpt lat="53.209826" lon="-1.987678"><ele>350</ele><time>2020-08-19T12:33:00Z</time><name>PT5196</name></trkpt>
<trkpt lat="53.209820" lon="-1.987684"><ele>351</ele><time>2020-08-19T12:33:02Z</time><name>PT5197</name></trkpt>
<trkpt lat="53.209814" lon="-1.987690"><ele>351</ele><time>2020-08-19T12:33:03Z</time><name>PT5198</name></trkpt>
<trkpt lat="53.209805" lon="-1.987699"><ele>351</ele><time>2020-08-19T12:33:03Z</time><name>PT5199</name></trkpt>
<trkpt lat="53.209797" lon="-1.987705"><ele>351</ele><time>2020-08-19T12:33:05Z</time><name>PT5200</name></trkpt>
<trkpt lat="53.209789" lon="-1.987711"><ele>350</ele><time>2020-08-19T12:33:06Z</time><name>PT5201</name></trkpt>
<trkpt lat="53.209758" lon="-1.987729"><ele>350</ele><time>2020-08-19T12:33:09Z</time><name>PT5202</name></trkpt>
<trkpt lat="53.209712" lon="-1.987741"><ele>351</ele><time>2020-08-19T12:33:12Z</time><name>PT5203</name></trkpt>
<trkpt lat="53.209675" lon="-1.987747"><ele>351</ele><time>2020-08-19T12:33:15Z</time><name>PT5204</name></trkpt>
<trkpt lat="53.209632" lon="-1.987762"><ele>351</ele><time>2020-08-19T12:33:18Z</time><name>PT5205</name></trkpt>
<trkpt lat="53.209596" lon="-1.987779"><ele>351</ele><time>2020-08-19T12:33:22Z</time><name>PT5206</name></trkpt>
<trkpt lat="53.209543" lon="-1.987800"><ele>352</ele><time>2020-08-19T12:33:26Z</time><name>PT5207</name></trkpt>
<trkpt lat="53.209504" lon="-1.987820"><ele>353</ele><time>2020-08-19T12:33:29Z</time><name>PT5208</name></trkpt>
<trkpt lat="53.209456" lon="-1.987840"><ele>354</ele><time>2020-08-19T12:33:33Z</time><name>PT5209</name></trkpt>
<trkpt lat="53.209423" lon="-1.987854"><ele>355</ele><time>2020-08-19T12:33:36Z</time><name>PT5210</name></trkpt>
<trkpt lat="53.209372" lon="-1.987873"><ele>355</ele><time>2020-08-19T12:33:39Z</time><name>PT5211</name></trkpt>
<trkpt lat="53.209322" lon="-1.987891"><ele>354</ele><time>2020-08-19T12:33:44Z</time><name>PT5212</name></trkpt>
<trkpt lat="53.209288" lon="-1.987912"><ele>354</ele><time>2020-08-19T12:33:47Z</time><name>PT5213</name></trkpt>
<trkpt lat="53.209236" lon="-1.987940"><ele>354</ele><time>2020-08-19T12:33:51Z</time><name>PT5214</name></trkpt>
<trkpt lat="53.209197" lon="-1.987952"><ele>353</ele><time>2020-08-19T12:33:54Z</time><name>PT5215</name></trkpt>
<trkpt lat="53.209157" lon="-1.987964"><ele>353</ele><time>2020-08-19T12:33:57Z</time><name>PT5216</name></trkpt>
<trkpt lat="53.209116" lon="-1.987981"><ele>353</ele><time>2020-08-19T12:34:02Z</time><name>PT5217</name></trkpt>
<trkpt lat="53.209069" lon="-1.987993"><ele>354</ele><time>2020-08-19T12:34:06Z</time><name>PT5218</name></trkpt>
<trkpt lat="53.209031" lon="-1.988000"><ele>354</ele><time>2020-08-19T12:34:09Z</time><name>PT5219</name></trkpt>
<trkpt lat="53.209000" lon="-1.988011"><ele>354</ele><time>2020-08-19T12:34:12Z</time><name>PT5220</name></trkpt>
<trkpt lat="53.208960" lon="-1.988033"><ele>354</ele><time>2020-08-19T12:34:15Z</time><name>PT5221</name></trkpt>
<trkpt lat="53.208932" lon="-1.988040"><ele>355</ele><time>2020-08-19T12:34:18Z</time><name>PT5222</name></trkpt>
<trkpt lat="53.208887" lon="-1.988037"><ele>353</ele><time>2020-08-19T12:34:23Z</time><name>PT5223</name></trkpt>
<trkpt lat="53.208849" lon="-1.988053"><ele>353</ele><time>2020-08-19T12:34:27Z</time><name>PT5224</name></trkpt>
<trkpt lat="53.208816" lon="-1.988061"><ele>353</ele><time>2020-08-19T12:34:30Z</time><name>PT5225</name></trkpt>
<trkpt lat="53.208784" lon="-1.988070"><ele>353</ele><time>2020-08-19T12:34:33Z</time><name>PT5226</name></trkpt>
<trkpt lat="53.208750" lon="-1.988083"><ele>354</ele><time>2020-08-19T12:34:36Z</time><name>PT5227</name></trkpt>
<trkpt lat="53.208717" lon="-1.988106"><ele>354</ele><time>2020-08-19T12:34:39Z</time><name>PT5228</name></trkpt>
<trkpt lat="53.208674" lon="-1.988116"><ele>354</ele><time>2020-08-19T12:34:42Z</time><name>PT5229</name></trkpt>
<trkpt lat="53.208628" lon="-1.988135"><ele>354</ele><time>2020-08-19T12:34:47Z</time><name>PT5230</name></trkpt>
<trkpt lat="53.208595" lon="-1.988156"><ele>354</ele><time>2020-08-19T12:34:50Z</time><name>PT5231</name></trkpt>
<trkpt lat="53.208552" lon="-1.988178"><ele>354</ele><time>2020-08-19T12:34:54Z</time><name>PT5232</name></trkpt>
<trkpt lat="53.208502" lon="-1.988198"><ele>356</ele><time>2020-08-19T12:34:57Z</time><name>PT5233</name></trkpt>
<trkpt lat="53.208462" lon="-1.988224"><ele>356</ele><time>2020-08-19T12:35:02Z</time><name>PT5234</name></trkpt>
<trkpt lat="53.208427" lon="-1.988231"><ele>355</ele><time>2020-08-19T12:35:05Z</time><name>PT5235</name></trkpt>
<trkpt lat="53.208388" lon="-1.988229"><ele>356</ele><time>2020-08-19T12:35:08Z</time><name>PT5236</name></trkpt>
<trkpt lat="53.208350" lon="-1.988242"><ele>356</ele><time>2020-08-19T12:35:11Z</time><name>PT5237</name></trkpt>
<trkpt lat="53.208314" lon="-1.988252"><ele>357</ele><time>2020-08-19T12:35:14Z</time><name>PT5238</name></trkpt>
<trkpt lat="53.208281" lon="-1.988260"><ele>357</ele><time>2020-08-19T12:35:17Z</time><name>PT5239</name></trkpt>
<trkpt lat="53.208237" lon="-1.988260"><ele>357</ele><time>2020-08-19T12:35:21Z</time><name>PT5240</name></trkpt>
<trkpt lat="53.208203" lon="-1.988266"><ele>356</ele><time>2020-08-19T12:35:24Z</time><name>PT5241</name></trkpt>
<trkpt lat="53.208155" lon="-1.988276"><ele>356</ele><time>2020-08-19T12:35:27Z</time><name>PT5242</name></trkpt>
<trkpt lat="53.208106" lon="-1.988291"><ele>357</ele><time>2020-08-19T12:35:32Z</time><name>PT5243</name></trkpt>
<trkpt lat="53.208077" lon="-1.988309"><ele>358</ele><time>2020-08-19T12:35:35Z</time><name>PT5244</name></trkpt>
<trkpt lat="53.208034" lon="-1.988341"><ele>359</ele><time>2020-08-19T12:35:39Z</time><name>PT5245</name></trkpt>
<trkpt lat="53.207998" lon="-1.988362"><ele>360</ele><time>2020-08-19T12:35:42Z</time><name>PT5246</name></trkpt>
<trkpt lat="53.207947" lon="-1.988377"><ele>360</ele><time>2020-08-19T12:35:45Z</time><name>PT5247</name></trkpt>
<trkpt lat="53.207901" lon="-1.988383"><ele>360</ele><time>2020-08-19T12:35:50Z</time><name>PT5248</name></trkpt>
<trkpt lat="53.207871" lon="-1.988398"><ele>360</ele><time>2020-08-19T12:35:53Z</time><name>PT5249</name></trkpt>
<trkpt lat="53.207830" lon="-1.988427"><ele>360</ele><time>2020-08-19T12:35:57Z</time><name>PT5250</name></trkpt>
<trkpt lat="53.207793" lon="-1.988448"><ele>360</ele><time>2020-08-19T12:36:00Z</time><name>PT5251</name></trkpt>
<trkpt lat="53.207753" lon="-1.988465"><ele>361</ele><time>2020-08-19T12:36:03Z</time><name>PT5252</name></trkpt>
<trkpt lat="53.207719" lon="-1.988494"><ele>362</ele><time>2020-08-19T12:36:06Z</time><name>PT5253</name></trkpt>
<trkpt lat="53.207679" lon="-1.988524"><ele>362</ele><time>2020-08-19T12:36:09Z</time><name>PT5254</name></trkpt>
<trkpt lat="53.207626" lon="-1.988552"><ele>362</ele><time>2020-08-19T12:36:14Z</time><name>PT5255</name></trkpt>
<trkpt lat="53.207590" lon="-1.988571"><ele>363</ele><time>2020-08-19T12:36:17Z</time><name>PT5256</name></trkpt>
<trkpt lat="53.207542" lon="-1.988600"><ele>364</ele><time>2020-08-19T12:36:21Z</time><name>PT5257</name></trkpt>
<trkpt lat="53.207505" lon="-1.988618"><ele>364</ele><time>2020-08-19T12:36:24Z</time><name>PT5258</name></trkpt>
<trkpt lat="53.207473" lon="-1.988644"><ele>363</ele><time>2020-08-19T12:36:27Z</time><name>PT5259</name></trkpt>
<trkpt lat="53.207427" lon="-1.988682"><ele>364</ele><time>2020-08-19T12:36:30Z</time><name>PT5260</name></trkpt>
<trkpt lat="53.207381" lon="-1.988708"><ele>365</ele><time>2020-08-19T12:36:35Z</time><name>PT5261</name></trkpt>
<trkpt lat="53.207347" lon="-1.988723"><ele>366</ele><time>2020-08-19T12:36:38Z</time><name>PT5262</name></trkpt>
<trkpt lat="53.207309" lon="-1.988743"><ele>365</ele><time>2020-08-19T12:36:41Z</time><name>PT5263</name></trkpt>
<trkpt lat="53.207274" lon="-1.988752"><ele>363</ele><time>2020-08-19T12:36:44Z</time><name>PT5264</name></trkpt>
<trkpt lat="53.207221" lon="-1.988771"><ele>364</ele><time>2020-08-19T12:36:48Z</time><name>PT5265</name></trkpt>
<trkpt lat="53.207173" lon="-1.988774"><ele>364</ele><time>2020-08-19T12:36:51Z</time><name>PT5266</name></trkpt>
<trkpt lat="53.207153" lon="-1.988768"><ele>364</ele><time>2020-08-19T12:36:56Z</time><name>PT5267</name></trkpt>
<trkpt lat="53.207151" lon="-1.988765"><ele>364</ele><time>2020-08-19T12:37:00Z</time><name>PT5268</name></trkpt>
<trkpt lat="53.207142" lon="-1.988763"><ele>365</ele><time>2020-08-19T12:37:12Z</time><name>PT5269</name></trkpt>
<trkpt lat="53.207128" lon="-1.988756"><ele>365</ele><time>2020-08-19T12:37:15Z</time><name>PT5270</name></trkpt>
<trkpt lat="53.207098" lon="-1.988750"><ele>365</ele><time>2020-08-19T12:37:18Z</time><name>PT5271</name></trkpt>
<trkpt lat="53.207049" lon="-1.988759"><ele>364</ele><time>2020-08-19T12:37:23Z</time><name>PT5272</name></trkpt>
<trkpt lat="53.207012" lon="-1.988775"><ele>364</ele><time>2020-08-19T12:37:26Z</time><name>PT5273</name></trkpt>
<trkpt lat="53.206961" lon="-1.988802"><ele>363</ele><time>2020-08-19T12:37:30Z</time><name>PT5274</name></trkpt>
<trkpt lat="53.206913" lon="-1.988825"><ele>363</ele><time>2020-08-19T12:37:33Z</time><name>PT5275</name></trkpt>
<trkpt lat="53.206879" lon="-1.988839"><ele>363</ele><time>2020-08-19T12:37:36Z</time><name>PT5276</name></trkpt>
<trkpt lat="53.206843" lon="-1.988849"><ele>362</ele><time>2020-08-19T12:37:39Z</time><name>PT5277</name></trkpt>
<trkpt lat="53.206807" lon="-1.988862"><ele>361</ele><time>2020-08-19T12:37:42Z</time><name>PT5278</name></trkpt>
<trkpt lat="53.206756" lon="-1.988882"><ele>361</ele><time>2020-08-19T12:37:47Z</time><name>PT5279</name></trkpt>
<trkpt lat="53.206705" lon="-1.988900"><ele>361</ele><time>2020-08-19T12:37:51Z</time><name>PT5280</name></trkpt>
<trkpt lat="53.206661" lon="-1.988914"><ele>362</ele><time>2020-08-19T12:37:54Z</time><name>PT5281</name></trkpt>
<trkpt lat="53.206626" lon="-1.988933"><ele>362</ele><time>2020-08-19T12:37:57Z</time><name>PT5282</name></trkpt>
<trkpt lat="53.206597" lon="-1.988946"><ele>361</ele><time>2020-08-19T12:38:00Z</time><name>PT5283</name></trkpt>
<trkpt lat="53.206543" lon="-1.988963"><ele>363</ele><time>2020-08-19T12:38:05Z</time><name>PT5284</name></trkpt>
<trkpt lat="53.206506" lon="-1.988972"><ele>363</ele><time>2020-08-19T12:38:08Z</time><name>PT5285</name></trkpt>
<trkpt lat="53.206470" lon="-1.988990"><ele>363</ele><time>2020-08-19T12:38:11Z</time><name>PT5286</name></trkpt>
<trkpt lat="53.206431" lon="-1.989002"><ele>363</ele><time>2020-08-19T12:38:14Z</time><name>PT5287</name></trkpt>
<trkpt lat="53.206380" lon="-1.989023"><ele>364</ele><time>2020-08-19T12:38:18Z</time><name>PT5288</name></trkpt>
<trkpt lat="53.206343" lon="-1.989034"><ele>363</ele><time>2020-08-19T12:38:21Z</time><name>PT5289</name></trkpt>
<trkpt lat="53.206304" lon="-1.989049"><ele>364</ele><time>2020-08-19T12:38:24Z</time><name>PT5290</name></trkpt>
<trkpt lat="53.206253" lon="-1.989055"><ele>364</ele><time>2020-08-19T12:38:27Z</time><name>PT5291</name></trkpt>
<trkpt lat="53.206197" lon="-1.989047"><ele>364</ele><time>2020-08-19T12:38:32Z</time><name>PT5292</name></trkpt>
<trkpt lat="53.206161" lon="-1.989044"><ele>364</ele><time>2020-08-19T12:38:35Z</time><name>PT5293</name></trkpt>
<trkpt lat="53.206124" lon="-1.989035"><ele>364</ele><time>2020-08-19T12:38:38Z</time><name>PT5294</name></trkpt>
<trkpt lat="53.206075" lon="-1.989019"><ele>365</ele><time>2020-08-19T12:38:42Z</time><name>PT5295</name></trkpt>
<trkpt lat="53.206023" lon="-1.988999"><ele>365</ele><time>2020-08-19T12:38:45Z</time><name>PT5296</name></trkpt>
<trkpt lat="53.205975" lon="-1.988985"><ele>365</ele><time>2020-08-19T12:38:50Z</time><name>PT5297</name></trkpt>
<trkpt lat="53.205930" lon="-1.988964"><ele>364</ele><time>2020-08-19T12:38:54Z</time><name>PT5298</name></trkpt>
<trkpt lat="53.205886" lon="-1.988948"><ele>364</ele><time>2020-08-19T12:38:57Z</time><name>PT5299</name></trkpt>
<trkpt lat="53.205847" lon="-1.988942"><ele>364</ele><time>2020-08-19T12:39:00Z</time><name>PT5300</name></trkpt>
<trkpt lat="53.205799" lon="-1.988919"><ele>364</ele><time>2020-08-19T12:39:05Z</time><name>PT5301</name></trkpt>
<trkpt lat="53.205769" lon="-1.988900"><ele>363</ele><time>2020-08-19T12:39:08Z</time><name>PT5302</name></trkpt>
<trkpt lat="53.205731" lon="-1.988870"><ele>365</ele><time>2020-08-19T12:39:11Z</time><name>PT5303</name></trkpt>
<trkpt lat="53.205685" lon="-1.988829"><ele>365</ele><time>2020-08-19T12:39:15Z</time><name>PT5304</name></trkpt>
<trkpt lat="53.205638" lon="-1.988793"><ele>366</ele><time>2020-08-19T12:39:18Z</time><name>PT5305</name></trkpt>
<trkpt lat="53.205602" lon="-1.988753"><ele>365</ele><time>2020-08-19T12:39:23Z</time><name>PT5306</name></trkpt>
<trkpt lat="53.205554" lon="-1.988711"><ele>366</ele><time>2020-08-19T12:39:27Z</time><name>PT5307</name></trkpt>
<trkpt lat="53.205505" lon="-1.988695"><ele>367</ele><time>2020-08-19T12:39:30Z</time><name>PT5308</name></trkpt>
<trkpt lat="53.205459" lon="-1.988665"><ele>368</ele><time>2020-08-19T12:39:35Z</time><name>PT5309</name></trkpt>
<trkpt lat="53.205415" lon="-1.988642"><ele>368</ele><time>2020-08-19T12:39:39Z</time><name>PT5310</name></trkpt>
<trkpt lat="53.205369" lon="-1.988605"><ele>369</ele><time>2020-08-19T12:39:42Z</time><name>PT5311</name></trkpt>
<trkpt lat="53.205327" lon="-1.988585"><ele>370</ele><time>2020-08-19T12:39:47Z</time><name>PT5312</name></trkpt>
<trkpt lat="53.205288" lon="-1.988546"><ele>371</ele><time>2020-08-19T12:39:51Z</time><name>PT5313</name></trkpt>
<trkpt lat="53.205256" lon="-1.988522"><ele>371</ele><time>2020-08-19T12:39:54Z</time><name>PT5314</name></trkpt>
<trkpt lat="53.205218" lon="-1.988457"><ele>374</ele><time>2020-08-19T12:39:57Z</time><name>PT5315</name></trkpt>
<trkpt lat="53.205210" lon="-1.988456"><ele>375</ele><time>2020-08-19T12:39:59Z</time><name>PT5316</name></trkpt>
<trkpt lat="53.205205" lon="-1.988454"><ele>375</ele><time>2020-08-19T12:40:00Z</time><name>PT5317</name></trkpt>
<trkpt lat="53.205203" lon="-1.988456"><ele>376</ele><time>2020-08-19T12:40:00Z</time><name>PT5318</name></trkpt>
<trkpt lat="53.205201" lon="-1.988455"><ele>377</ele><time>2020-08-19T12:40:02Z</time><name>PT5319</name></trkpt>
<trkpt lat="53.205208" lon="-1.988461"><ele>377</ele><time>2020-08-19T12:40:11Z</time><name>PT5320</name></trkpt>
<trkpt lat="53.205211" lon="-1.988469"><ele>377</ele><time>2020-08-19T12:40:12Z</time><name>PT5321</name></trkpt>
<trkpt lat="53.205208" lon="-1.988478"><ele>377</ele><time>2020-08-19T12:40:12Z</time><name>PT5322</name></trkpt>
<trkpt lat="53.205206" lon="-1.988487"><ele>376</ele><time>2020-08-19T12:40:14Z</time><name>PT5323</name></trkpt>
<trkpt lat="53.205203" lon="-1.988499"><ele>376</ele><time>2020-08-19T12:40:15Z</time><name>PT5324</name></trkpt>
<trkpt lat="53.205202" lon="-1.988513"><ele>376</ele><time>2020-08-19T12:40:15Z</time><name>PT5325</name></trkpt>
<trkpt lat="53.205201" lon="-1.988525"><ele>376</ele><time>2020-08-19T12:40:17Z</time><name>PT5326</name></trkpt>
<trkpt lat="53.205200" lon="-1.988538"><ele>376</ele><time>2020-08-19T12:40:18Z</time><name>PT5327</name></trkpt>
<trkpt lat="53.205198" lon="-1.988554"><ele>376</ele><time>2020-08-19T12:40:18Z</time><name>PT5328</name></trkpt>
<trkpt lat="53.205194" lon="-1.988572"><ele>376</ele><time>2020-08-19T12:40:20Z</time><name>PT5329</name></trkpt>
<trkpt lat="53.205193" lon="-1.988588"><ele>376</ele><time>2020-08-19T12:40:21Z</time><name>PT5330</name></trkpt>
<trkpt lat="53.205192" lon="-1.988601"><ele>376</ele><time>2020-08-19T12:40:21Z</time><name>PT5331</name></trkpt>
<trkpt lat="53.205194" lon="-1.988612"><ele>375</ele><time>2020-08-19T12:40:23Z</time><name>PT5332</name></trkpt>
<trkpt lat="53.205196" lon="-1.988622"><ele>375</ele><time>2020-08-19T12:40:24Z</time><name>PT5333</name></trkpt>
<trkpt lat="53.205197" lon="-1.988628"><ele>375</ele><time>2020-08-19T12:40:24Z</time><name>PT5334</name></trkpt>
<trkpt lat="53.205197" lon="-1.988630"><ele>375</ele><time>2020-08-19T12:40:26Z</time><name>PT5335</name></trkpt>
<trkpt lat="53.205197" lon="-1.988631"><ele>375</ele><time>2020-08-19T12:40:27Z</time><name>PT5336</name></trkpt>
<trkpt lat="53.205201" lon="-1.988630"><ele>375</ele><time>2020-08-19T12:40:30Z</time><name>PT5337</name></trkpt>
<trkpt lat="53.205206" lon="-1.988639"><ele>375</ele><time>2020-08-19T12:40:32Z</time><name>PT5338</name></trkpt>
<trkpt lat="53.205207" lon="-1.988651"><ele>375</ele><time>2020-08-19T12:40:33Z</time><name>PT5339</name></trkpt>
<trkpt lat="53.205207" lon="-1.988663"><ele>375</ele><time>2020-08-19T12:40:33Z</time><name>PT5340</name></trkpt>
<trkpt lat="53.205207" lon="-1.988676"><ele>375</ele><time>2020-08-19T12:40:35Z</time><name>PT5341</name></trkpt>
<trkpt lat="53.205209" lon="-1.988690"><ele>375</ele><time>2020-08-19T12:40:36Z</time><name>PT5342</name></trkpt>
<trkpt lat="53.205209" lon="-1.988705"><ele>374</ele><time>2020-08-19T12:40:36Z</time><name>PT5343</name></trkpt>
<trkpt lat="53.205210" lon="-1.988720"><ele>374</ele><time>2020-08-19T12:40:38Z</time><name>PT5344</name></trkpt>
<trkpt lat="53.205210" lon="-1.988733"><ele>374</ele><time>2020-08-19T12:40:39Z</time><name>PT5345</name></trkpt>
<trkpt lat="53.205209" lon="-1.988748"><ele>374</ele><time>2020-08-19T12:40:39Z</time><name>PT5346</name></trkpt>
<trkpt lat="53.205208" lon="-1.988760"><ele>373</ele><time>2020-08-19T12:40:41Z</time><name>PT5347</name></trkpt>
<trkpt lat="53.205206" lon="-1.988771"><ele>373</ele><time>2020-08-19T12:40:42Z</time><name>PT5348</name></trkpt>
<trkpt lat="53.205204" lon="-1.988780"><ele>373</ele><time>2020-08-19T12:40:42Z</time><name>PT5349</name></trkpt>
<trkpt lat="53.205201" lon="-1.988791"><ele>373</ele><time>2020-08-19T12:40:44Z</time><name>PT5350</name></trkpt>
<trkpt lat="53.205197" lon="-1.988804"><ele>373</ele><time>2020-08-19T12:40:45Z</time><name>PT5351</name></trkpt>
<trkpt lat="53.205193" lon="-1.988816"><ele>373</ele><time>2020-08-19T12:40:45Z</time><name>PT5352</name></trkpt>
<trkpt lat="53.205188" lon="-1.988831"><ele>373</ele><time>2020-08-19T12:40:47Z</time><name>PT5353</name></trkpt>
<trkpt lat="53.205183" lon="-1.988845"><ele>373</ele><time>2020-08-19T12:40:48Z</time><name>PT5354</name></trkpt>
<trkpt lat="53.205178" lon="-1.988859"><ele>373</ele><time>2020-08-19T12:40:48Z</time><name>PT5355</name></trkpt>
<trkpt lat="53.205168" lon="-1.988867"><ele>373</ele><time>2020-08-19T12:40:50Z</time><name>PT5356</name></trkpt>
<trkpt lat="53.205157" lon="-1.988874"><ele>373</ele><time>2020-08-19T12:40:51Z</time><name>PT5357</name></trkpt>
<trkpt lat="53.205148" lon="-1.988886"><ele>373</ele><time>2020-08-19T12:40:51Z</time><name>PT5358</name></trkpt>
<trkpt lat="53.205141" lon="-1.988900"><ele>372</ele><time>2020-08-19T12:40:53Z</time><name>PT5359</name></trkpt>
<trkpt lat="53.205136" lon="-1.988917"><ele>372</ele><time>2020-08-19T12:40:54Z</time><name>PT5360</name></trkpt>
<trkpt lat="53.205128" lon="-1.988933"><ele>372</ele><time>2020-08-19T12:40:54Z</time><name>PT5361</name></trkpt>
<trkpt lat="53.205123" lon="-1.988948"><ele>371</ele><time>2020-08-19T12:40:56Z</time><name>PT5362</name></trkpt>
<trkpt lat="53.205119" lon="-1.988967"><ele>371</ele><time>2020-08-19T12:40:57Z</time><name>PT5363</name></trkpt>
<trkpt lat="53.205115" lon="-1.988985"><ele>370</ele><time>2020-08-19T12:40:57Z</time><name>PT5364</name></trkpt>
<trkpt lat="53.205111" lon="-1.989002"><ele>370</ele><time>2020-08-19T12:40:59Z</time><name>PT5365</name></trkpt>
<trkpt lat="53.205108" lon="-1.989019"><ele>371</ele><time>2020-08-19T12:41:00Z</time><name>PT5366</name></trkpt>
<trkpt lat="53.205106" lon="-1.989034"><ele>370</ele><time>2020-08-19T12:41:00Z</time><name>PT5367</name></trkpt>
<trkpt lat="53.205102" lon="-1.989049"><ele>370</ele><time>2020-08-19T12:41:02Z</time><name>PT5368</name></trkpt>
<trkpt lat="53.205096" lon="-1.989061"><ele>370</ele><time>2020-08-19T12:41:03Z</time><name>PT5369</name></trkpt>
<trkpt lat="53.205087" lon="-1.989071"><ele>369</ele><time>2020-08-19T12:41:03Z</time><name>PT5370</name></trkpt>
<trkpt lat="53.205079" lon="-1.989084"><ele>368</ele><time>2020-08-19T12:41:05Z</time><name>PT5371</name></trkpt>
<trkpt lat="53.205071" lon="-1.989099"><ele>368</ele><time>2020-08-19T12:41:06Z</time><name>PT5372</name></trkpt>
<trkpt lat="53.205064" lon="-1.989112"><ele>368</ele><time>2020-08-19T12:41:06Z</time><name>PT5373</name></trkpt>
<trkpt lat="53.205057" lon="-1.989127"><ele>367</ele><time>2020-08-19T12:41:08Z</time><name>PT5374</name></trkpt>
<trkpt lat="53.205054" lon="-1.989143"><ele>367</ele><time>2020-08-19T12:41:09Z</time><name>PT5375</name></trkpt>
<trkpt lat="53.205050" lon="-1.989156"><ele>367</ele><time>2020-08-19T12:41:10Z</time><name>PT5376</name></trkpt>
<trkpt lat="53.205043" lon="-1.989164"><ele>367</ele><time>2020-08-19T12:41:11Z</time><name>PT5377</name></trkpt>
<trkpt lat="53.205034" lon="-1.989171"><ele>367</ele><time>2020-08-19T12:41:12Z</time><name>PT5378</name></trkpt>
<trkpt lat="53.205025" lon="-1.989180"><ele>367</ele><time>2020-08-19T12:41:13Z</time><name>PT5379</name></trkpt>
<trkpt lat="53.205019" lon="-1.989192"><ele>366</ele><time>2020-08-19T12:41:14Z</time><name>PT5380</name></trkpt>
<trkpt lat="53.205019" lon="-1.989208"><ele>366</ele><time>2020-08-19T12:41:15Z</time><name>PT5381</name></trkpt>
<trkpt lat="53.205025" lon="-1.989226"><ele>366</ele><time>2020-08-19T12:41:16Z</time><name>PT5382</name></trkpt>
<trkpt lat="53.205031" lon="-1.989242"><ele>366</ele><time>2020-08-19T12:41:17Z</time><name>PT5383</name></trkpt>
<trkpt lat="53.205034" lon="-1.989260"><ele>365</ele><time>2020-08-19T12:41:18Z</time><name>PT5384</name></trkpt>
<trkpt lat="53.205034" lon="-1.989280"><ele>365</ele><time>2020-08-19T12:41:18Z</time><name>PT5385</name></trkpt>
<trkpt lat="53.205033" lon="-1.989302"><ele>364</ele><time>2020-08-19T12:41:20Z</time><name>PT5386</name></trkpt>
<trkpt lat="53.205030" lon="-1.989323"><ele>364</ele><time>2020-08-19T12:41:21Z</time><name>PT5387</name></trkpt>
<trkpt lat="53.205027" lon="-1.989343"><ele>364</ele><time>2020-08-19T12:41:21Z</time><name>PT5388</name></trkpt>
<trkpt lat="53.205023" lon="-1.989365"><ele>364</ele><time>2020-08-19T12:41:23Z</time><name>PT5389</name></trkpt>
<trkpt lat="53.205021" lon="-1.989383"><ele>365</ele><time>2020-08-19T12:41:24Z</time><name>PT5390</name></trkpt>
<trkpt lat="53.205018" lon="-1.989405"><ele>365</ele><time>2020-08-19T12:41:24Z</time><name>PT5391</name></trkpt>
<trkpt lat="53.205015" lon="-1.989423"><ele>364</ele><time>2020-08-19T12:41:26Z</time><name>PT5392</name></trkpt>
<trkpt lat="53.205011" lon="-1.989439"><ele>364</ele><time>2020-08-19T12:41:27Z</time><name>PT5393</name></trkpt>
<trkpt lat="53.205007" lon="-1.989459"><ele>364</ele><time>2020-08-19T12:41:27Z</time><name>PT5394</name></trkpt>
<trkpt lat="53.205005" lon="-1.989479"><ele>364</ele><time>2020-08-19T12:41:29Z</time><name>PT5395</name></trkpt>
<trkpt lat="53.205001" lon="-1.989498"><ele>364</ele><time>2020-08-19T12:41:30Z</time><name>PT5396</name></trkpt>
<trkpt lat="53.204997" lon="-1.989516"><ele>364</ele><time>2020-08-19T12:41:30Z</time><name>PT5397</name></trkpt>
<trkpt lat="53.204993" lon="-1.989533"><ele>363</ele><time>2020-08-19T12:41:32Z</time><name>PT5398</name></trkpt>
<trkpt lat="53.204990" lon="-1.989553"><ele>363</ele><time>2020-08-19T12:41:33Z</time><name>PT5399</name></trkpt>
<trkpt lat="53.204990" lon="-1.989568"><ele>363</ele><time>2020-08-19T12:41:33Z</time><name>PT5400</name></trkpt>
<trkpt lat="53.204990" lon="-1.989587"><ele>363</ele><time>2020-08-19T12:41:35Z</time><name>PT5401</name></trkpt>
<trkpt lat="53.204988" lon="-1.989605"><ele>362</ele><time>2020-08-19T12:41:36Z</time><name>PT5402</name></trkpt>
<trkpt lat="53.204985" lon="-1.989615"><ele>362</ele><time>2020-08-19T12:41:36Z</time><name>PT5403</name></trkpt>
<trkpt lat="53.204980" lon="-1.989627"><ele>362</ele><time>2020-08-19T12:41:38Z</time><name>PT5404</name></trkpt>
<trkpt lat="53.204974" lon="-1.989640"><ele>361</ele><time>2020-08-19T12:41:39Z</time><name>PT5405</name></trkpt>
<trkpt lat="53.204970" lon="-1.989659"><ele>361</ele><time>2020-08-19T12:41:39Z</time><name>PT5406</name></trkpt>
<trkpt lat="53.204965" lon="-1.989676"><ele>361</ele><time>2020-08-19T12:41:41Z</time><name>PT5407</name></trkpt>
<trkpt lat="53.204960" lon="-1.989693"><ele>361</ele><time>2020-08-19T12:41:42Z</time><name>PT5408</name></trkpt>
<trkpt lat="53.204954" lon="-1.989712"><ele>361</ele><time>2020-08-19T12:41:42Z</time><name>PT5409</name></trkpt>
<trkpt lat="53.204949" lon="-1.989730"><ele>361</ele><time>2020-08-19T12:41:44Z</time><name>PT5410</name></trkpt>
<trkpt lat="53.204945" lon="-1.989750"><ele>361</ele><time>2020-08-19T12:41:45Z</time><name>PT5411</name></trkpt>
<trkpt lat="53.204939" lon="-1.989768"><ele>360</ele><time>2020-08-19T12:41:45Z</time><name>PT5412</name></trkpt>
<trkpt lat="53.204934" lon="-1.989785"><ele>359</ele><time>2020-08-19T12:41:47Z</time><name>PT5413</name></trkpt>
<trkpt lat="53.204927" lon="-1.989802"><ele>359</ele><time>2020-08-19T12:41:48Z</time><name>PT5414</name></trkpt>
<trkpt lat="53.204921" lon="-1.989819"><ele>359</ele><time>2020-08-19T12:41:48Z</time><name>PT5415</name></trkpt>
<trkpt lat="53.204917" lon="-1.989837"><ele>358</ele><time>2020-08-19T12:41:50Z</time><name>PT5416</name></trkpt>
<trkpt lat="53.204916" lon="-1.989857"><ele>358</ele><time>2020-08-19T12:41:51Z</time><name>PT5417</name></trkpt>
<trkpt lat="53.204916" lon="-1.989874"><ele>358</ele><time>2020-08-19T12:41:51Z</time><name>PT5418</name></trkpt>
<trkpt lat="53.204918" lon="-1.989892"><ele>358</ele><time>2020-08-19T12:41:53Z</time><name>PT5419</name></trkpt>
<trkpt lat="53.204916" lon="-1.989910"><ele>358</ele><time>2020-08-19T12:41:54Z</time><name>PT5420</name></trkpt>
<trkpt lat="53.204914" lon="-1.989926"><ele>357</ele><time>2020-08-19T12:41:54Z</time><name>PT5421</name></trkpt>
<trkpt lat="53.204911" lon="-1.989942"><ele>357</ele><time>2020-08-19T12:41:56Z</time><name>PT5422</name></trkpt>
<trkpt lat="53.204909" lon="-1.989960"><ele>357</ele><time>2020-08-19T12:41:57Z</time><name>PT5423</name></trkpt>
<trkpt lat="53.204907" lon="-1.989978"><ele>356</ele><time>2020-08-19T12:41:57Z</time><name>PT5424</name></trkpt>
<trkpt lat="53.204906" lon="-1.989995"><ele>355</ele><time>2020-08-19T12:41:59Z</time><name>PT5425</name></trkpt>
<trkpt lat="53.204906" lon="-1.990012"><ele>355</ele><time>2020-08-19T12:42:00Z</time><name>PT5426</name></trkpt>
<trkpt lat="53.204904" lon="-1.990029"><ele>355</ele><time>2020-08-19T12:42:00Z</time><name>PT5427</name></trkpt>
<trkpt lat="53.204901" lon="-1.990047"><ele>355</ele><time>2020-08-19T12:42:02Z</time><name>PT5428</name></trkpt>
<trkpt lat="53.204896" lon="-1.990065"><ele>354</ele><time>2020-08-19T12:42:03Z</time><name>PT5429</name></trkpt>
<trkpt lat="53.204895" lon="-1.990076"><ele>354</ele><time>2020-08-19T12:42:03Z</time><name>PT5430</name></trkpt>
<trkpt lat="53.204890" lon="-1.990088"><ele>353</ele><time>2020-08-19T12:42:05Z</time><name>PT5431</name></trkpt>
<trkpt lat="53.204885" lon="-1.990105"><ele>353</ele><time>2020-08-19T12:42:06Z</time><name>PT5432</name></trkpt>
<trkpt lat="53.204880" lon="-1.990121"><ele>353</ele><time>2020-08-19T12:42:06Z</time><name>PT5433</name></trkpt>
<trkpt lat="53.204878" lon="-1.990139"><ele>352</ele><time>2020-08-19T12:42:08Z</time><name>PT5434</name></trkpt>
<trkpt lat="53.204877" lon="-1.990166"><ele>351</ele><time>2020-08-19T12:42:09Z</time><name>PT5435</name></trkpt>
<trkpt lat="53.204876" lon="-1.990179"><ele>350</ele><time>2020-08-19T12:42:09Z</time><name>PT5436</name></trkpt>
<trkpt lat="53.204874" lon="-1.990198"><ele>350</ele><time>2020-08-19T12:42:11Z</time><name>PT5437</name></trkpt>
<trkpt lat="53.204870" lon="-1.990217"><ele>351</ele><time>2020-08-19T12:42:12Z</time><name>PT5438</name></trkpt>
<trkpt lat="53.204866" lon="-1.990228"><ele>351</ele><time>2020-08-19T12:42:12Z</time><name>PT5439</name></trkpt>
<trkpt lat="53.204862" lon="-1.990239"><ele>351</ele><time>2020-08-19T12:42:14Z</time><name>PT5440</name></trkpt>
<trkpt lat="53.204860" lon="-1.990254"><ele>351</ele><time>2020-08-19T12:42:15Z</time><name>PT5441</name></trkpt>
<trkpt lat="53.204855" lon="-1.990274"><ele>351</ele><time>2020-08-19T12:42:15Z</time><name>PT5442</name></trkpt>
<trkpt lat="53.204851" lon="-1.990289"><ele>351</ele><time>2020-08-19T12:42:17Z</time><name>PT5443</name></trkpt>
<trkpt lat="53.204846" lon="-1.990304"><ele>351</ele><time>2020-08-19T12:42:18Z</time><name>PT5444</name></trkpt>
<trkpt lat="53.204839" lon="-1.990317"><ele>351</ele><time>2020-08-19T12:42:19Z</time><name>PT5445</name></trkpt>
<trkpt lat="53.204831" lon="-1.990327"><ele>351</ele><time>2020-08-19T12:42:20Z</time><name>PT5446</name></trkpt>
<trkpt lat="53.204824" lon="-1.990337"><ele>351</ele><time>2020-08-19T12:42:21Z</time><name>PT5447</name></trkpt>
<trkpt lat="53.204819" lon="-1.990349"><ele>351</ele><time>2020-08-19T12:42:21Z</time><name>PT5448</name></trkpt>
<trkpt lat="53.204816" lon="-1.990362"><ele>350</ele><time>2020-08-19T12:42:23Z</time><name>PT5449</name></trkpt>
<trkpt lat="53.204813" lon="-1.990376"><ele>350</ele><time>2020-08-19T12:42:24Z</time><name>PT5450</name></trkpt>
<trkpt lat="53.204807" lon="-1.990389"><ele>350</ele><time>2020-08-19T12:42:25Z</time><name>PT5451</name></trkpt>
<trkpt lat="53.204800" lon="-1.990400"><ele>350</ele><time>2020-08-19T12:42:26Z</time><name>PT5452</name></trkpt>
<trkpt lat="53.204793" lon="-1.990412"><ele>349</ele><time>2020-08-19T12:42:27Z</time><name>PT5453</name></trkpt>
<trkpt lat="53.204788" lon="-1.990423"><ele>349</ele><time>2020-08-19T12:42:28Z</time><name>PT5454</name></trkpt>
<trkpt lat="53.204783" lon="-1.990436"><ele>348</ele><time>2020-08-19T12:42:29Z</time><name>PT5455</name></trkpt>
<trkpt lat="53.204777" lon="-1.990449"><ele>348</ele><time>2020-08-19T12:42:30Z</time><name>PT5456</name></trkpt>
<trkpt lat="53.204771" lon="-1.990460"><ele>347</ele><time>2020-08-19T12:42:31Z</time><name>PT5457</name></trkpt>
<trkpt lat="53.204765" lon="-1.990473"><ele>347</ele><time>2020-08-19T12:42:32Z</time><name>PT5458</name></trkpt>
<trkpt lat="53.204760" lon="-1.990484"><ele>347</ele><time>2020-08-19T12:42:33Z</time><name>PT5459</name></trkpt>
<trkpt lat="53.204753" lon="-1.990492"><ele>347</ele><time>2020-08-19T12:42:33Z</time><name>PT5460</name></trkpt>
<trkpt lat="53.204744" lon="-1.990502"><ele>346</ele><time>2020-08-19T12:42:35Z</time><name>PT5461</name></trkpt>
<trkpt lat="53.204736" lon="-1.990516"><ele>346</ele><time>2020-08-19T12:42:36Z</time><name>PT5462</name></trkpt>
<trkpt lat="53.204729" lon="-1.990530"><ele>345</ele><time>2020-08-19T12:42:36Z</time><name>PT5463</name></trkpt>
<trkpt lat="53.204724" lon="-1.990547"><ele>345</ele><time>2020-08-19T12:42:38Z</time><name>PT5464</name></trkpt>
<trkpt lat="53.204718" lon="-1.990562"><ele>345</ele><time>2020-08-19T12:42:39Z</time><name>PT5465</name></trkpt>
<trkpt lat="53.204713" lon="-1.990576"><ele>345</ele><time>2020-08-19T12:42:39Z</time><name>PT5466</name></trkpt>
<trkpt lat="53.204710" lon="-1.990591"><ele>345</ele><time>2020-08-19T12:42:41Z</time><name>PT5467</name></trkpt>
<trkpt lat="53.204705" lon="-1.990606"><ele>345</ele><time>2020-08-19T12:42:42Z</time><name>PT5468</name></trkpt>
<trkpt lat="53.204698" lon="-1.990622"><ele>345</ele><time>2020-08-19T12:42:42Z</time><name>PT5469</name></trkpt>
<trkpt lat="53.204691" lon="-1.990637"><ele>344</ele><time>2020-08-19T12:42:44Z</time><name>PT5470</name></trkpt>
<trkpt lat="53.204686" lon="-1.990653"><ele>344</ele><time>2020-08-19T12:42:45Z</time><name>PT5471</name></trkpt>
<trkpt lat="53.204682" lon="-1.990670"><ele>344</ele><time>2020-08-19T12:42:45Z</time><name>PT5472</name></trkpt>
<trkpt lat="53.204678" lon="-1.990689"><ele>344</ele><time>2020-08-19T12:42:47Z</time><name>PT5473</name></trkpt>
<trkpt lat="53.204675" lon="-1.990709"><ele>343</ele><time>2020-08-19T12:42:48Z</time><name>PT5474</name></trkpt>
<trkpt lat="53.204674" lon="-1.990720"><ele>343</ele><time>2020-08-19T12:42:48Z</time><name>PT5475</name></trkpt>
<trkpt lat="53.204672" lon="-1.990737"><ele>343</ele><time>2020-08-19T12:42:50Z</time><name>PT5476</name></trkpt>
<trkpt lat="53.204670" lon="-1.990751"><ele>342</ele><time>2020-08-19T12:42:51Z</time><name>PT5477</name></trkpt>
<trkpt lat="53.204667" lon="-1.990759"><ele>342</ele><time>2020-08-19T12:42:51Z</time><name>PT5478</name></trkpt>
<trkpt lat="53.204665" lon="-1.990766"><ele>342</ele><time>2020-08-19T12:42:53Z</time><name>PT5479</name></trkpt>
<trkpt lat="53.204661" lon="-1.990767"><ele>341</ele><time>2020-08-19T12:42:54Z</time><name>PT5480</name></trkpt>
<trkpt lat="53.204650" lon="-1.990771"><ele>342</ele><time>2020-08-19T12:42:54Z</time><name>PT5481</name></trkpt>
<trkpt lat="53.204640" lon="-1.990783"><ele>341</ele><time>2020-08-19T12:42:56Z</time><name>PT5482</name></trkpt>
<trkpt lat="53.204633" lon="-1.990797"><ele>341</ele><time>2020-08-19T12:42:57Z</time><name>PT5483</name></trkpt>
<trkpt lat="53.204626" lon="-1.990814"><ele>342</ele><time>2020-08-19T12:42:57Z</time><name>PT5484</name></trkpt>
<trkpt lat="53.204604" lon="-1.990835"><ele>342</ele><time>2020-08-19T12:43:00Z</time><name>PT5485</name></trkpt>
<trkpt lat="53.204566" lon="-1.990834"><ele>342</ele><time>2020-08-19T12:43:05Z</time><name>PT5486</name></trkpt>
<trkpt lat="53.204535" lon="-1.990835"><ele>343</ele><time>2020-08-19T12:43:08Z</time><name>PT5487</name></trkpt>
<trkpt lat="53.204487" lon="-1.990847"><ele>344</ele><time>2020-08-19T12:43:11Z</time><name>PT5488</name></trkpt>
<trkpt lat="53.204474" lon="-1.990849"><ele>344</ele><time>2020-08-19T12:43:12Z</time><name>PT5489</name></trkpt>
<trkpt lat="53.204461" lon="-1.990854"><ele>344</ele><time>2020-08-19T12:43:12Z</time><name>PT5490</name></trkpt>
<trkpt lat="53.204448" lon="-1.990855"><ele>344</ele><time>2020-08-19T12:43:14Z</time><name>PT5491</name></trkpt>
<trkpt lat="53.204436" lon="-1.990856"><ele>344</ele><time>2020-08-19T12:43:15Z</time><name>PT5492</name></trkpt>
<trkpt lat="53.204423" lon="-1.990856"><ele>344</ele><time>2020-08-19T12:43:15Z</time><name>PT5493</name></trkpt>
<trkpt lat="53.204410" lon="-1.990854"><ele>344</ele><time>2020-08-19T12:43:17Z</time><name>PT5494</name></trkpt>
<trkpt lat="53.204396" lon="-1.990853"><ele>344</ele><time>2020-08-19T12:43:18Z</time><name>PT5495</name></trkpt>
<trkpt lat="53.204385" lon="-1.990849"><ele>345</ele><time>2020-08-19T12:43:18Z</time><name>PT5496</name></trkpt>
<trkpt lat="53.204373" lon="-1.990842"><ele>345</ele><time>2020-08-19T12:43:20Z</time><name>PT5497</name></trkpt>
<trkpt lat="53.204362" lon="-1.990840"><ele>345</ele><time>2020-08-19T12:43:21Z</time><name>PT5498</name></trkpt>
<trkpt lat="53.204350" lon="-1.990838"><ele>345</ele><time>2020-08-19T12:43:21Z</time><name>PT5499</name></trkpt>
<trkpt lat="53.204338" lon="-1.990837"><ele>345</ele><time>2020-08-19T12:43:23Z</time><name>PT5500</name></trkpt>
<trkpt lat="53.204327" lon="-1.990837"><ele>344</ele><time>2020-08-19T12:43:24Z</time><name>PT5501</name></trkpt>
<trkpt lat="53.204315" lon="-1.990833"><ele>344</ele><time>2020-08-19T12:43:24Z</time><name>PT5502</name></trkpt>
<trkpt lat="53.204303" lon="-1.990826"><ele>344</ele><time>2020-08-19T12:43:26Z</time><name>PT5503</name></trkpt>
<trkpt lat="53.204292" lon="-1.990820"><ele>344</ele><time>2020-08-19T12:43:27Z</time><name>PT5504</name></trkpt>
<trkpt lat="53.204281" lon="-1.990815"><ele>343</ele><time>2020-08-19T12:43:27Z</time><name>PT5505</name></trkpt>
<trkpt lat="53.204269" lon="-1.990816"><ele>343</ele><time>2020-08-19T12:43:29Z</time><name>PT5506</name></trkpt>
<trkpt lat="53.204255" lon="-1.990810"><ele>343</ele><time>2020-08-19T12:43:30Z</time><name>PT5507</name></trkpt>
<trkpt lat="53.204242" lon="-1.990807"><ele>342</ele><time>2020-08-19T12:43:30Z</time><name>PT5508</name></trkpt>
<trkpt lat="53.204229" lon="-1.990807"><ele>341</ele><time>2020-08-19T12:43:32Z</time><name>PT5509</name></trkpt>
<trkpt lat="53.204215" lon="-1.990803"><ele>341</ele><time>2020-08-19T12:43:33Z</time><name>PT5510</name></trkpt>
<trkpt lat="53.204202" lon="-1.990807"><ele>341</ele><time>2020-08-19T12:43:33Z</time><name>PT5511</name></trkpt>
<trkpt lat="53.204187" lon="-1.990809"><ele>341</ele><time>2020-08-19T12:43:35Z</time><name>PT5512</name></trkpt>
<trkpt lat="53.204173" lon="-1.990814"><ele>341</ele><time>2020-08-19T12:43:36Z</time><name>PT5513</name></trkpt>
<trkpt lat="53.204160" lon="-1.990822"><ele>340</ele><time>2020-08-19T12:43:36Z</time><name>PT5514</name></trkpt>
<trkpt lat="53.204149" lon="-1.990828"><ele>340</ele><time>2020-08-19T12:43:38Z</time><name>PT5515</name></trkpt>
<trkpt lat="53.204139" lon="-1.990833"><ele>339</ele><time>2020-08-19T12:43:39Z</time><name>PT5516</name></trkpt>
<trkpt lat="53.204125" lon="-1.990841"><ele>340</ele><time>2020-08-19T12:43:39Z</time><name>PT5517</name></trkpt>
<trkpt lat="53.204111" lon="-1.990850"><ele>340</ele><time>2020-08-19T12:43:41Z</time><name>PT5518</name></trkpt>
<trkpt lat="53.204102" lon="-1.990861"><ele>339</ele><time>2020-08-19T12:43:42Z</time><name>PT5519</name></trkpt>
<trkpt lat="53.204093" lon="-1.990876"><ele>339</ele><time>2020-08-19T12:43:42Z</time><name>PT5520</name></trkpt>
<trkpt lat="53.204084" lon="-1.990893"><ele>339</ele><time>2020-08-19T12:43:44Z</time><name>PT5521</name></trkpt>
<trkpt lat="53.204076" lon="-1.990909"><ele>339</ele><time>2020-08-19T12:43:45Z</time><name>PT5522</name></trkpt>
<trkpt lat="53.204066" lon="-1.990920"><ele>339</ele><time>2020-08-19T12:43:45Z</time><name>PT5523</name></trkpt>
<trkpt lat="53.204053" lon="-1.990931"><ele>339</ele><time>2020-08-19T12:43:47Z</time><name>PT5524</name></trkpt>
<trkpt lat="53.204041" lon="-1.990942"><ele>339</ele><time>2020-08-19T12:43:48Z</time><name>PT5525</name></trkpt>
<trkpt lat="53.204030" lon="-1.990956"><ele>339</ele><time>2020-08-19T12:43:48Z</time><name>PT5526</name></trkpt>
<trkpt lat="53.204023" lon="-1.990970"><ele>340</ele><time>2020-08-19T12:43:50Z</time><name>PT5527</name></trkpt>
<trkpt lat="53.204014" lon="-1.990981"><ele>339</ele><time>2020-08-19T12:43:51Z</time><name>PT5528</name></trkpt>
<trkpt lat="53.204001" lon="-1.990993"><ele>339</ele><time>2020-08-19T12:43:52Z</time><name>PT5529</name></trkpt>
<trkpt lat="53.203990" lon="-1.991003"><ele>339</ele><time>2020-08-19T12:43:53Z</time><name>PT5530</name></trkpt>
<trkpt lat="53.203974" lon="-1.991015"><ele>340</ele><time>2020-08-19T12:43:54Z</time><name>PT5531</name></trkpt>
<trkpt lat="53.203961" lon="-1.991023"><ele>340</ele><time>2020-08-19T12:43:54Z</time><name>PT5532</name></trkpt>
<trkpt lat="53.203949" lon="-1.991028"><ele>340</ele><time>2020-08-19T12:43:56Z</time><name>PT5533</name></trkpt>
<trkpt lat="53.203933" lon="-1.991033"><ele>339</ele><time>2020-08-19T12:43:57Z</time><name>PT5534</name></trkpt>
<trkpt lat="53.203916" lon="-1.991040"><ele>340</ele><time>2020-08-19T12:43:57Z</time><name>PT5535</name></trkpt>
<trkpt lat="53.203903" lon="-1.991046"><ele>340</ele><time>2020-08-19T12:43:59Z</time><name>PT5536</name></trkpt>
<trkpt lat="53.203887" lon="-1.991047"><ele>340</ele><time>2020-08-19T12:44:00Z</time><name>PT5537</name></trkpt>
<trkpt lat="53.203875" lon="-1.991044"><ele>341</ele><time>2020-08-19T12:44:01Z</time><name>PT5538</name></trkpt>
<trkpt lat="53.203863" lon="-1.991038"><ele>340</ele><time>2020-08-19T12:44:02Z</time><name>PT5539</name></trkpt>
<trkpt lat="53.203848" lon="-1.991036"><ele>341</ele><time>2020-08-19T12:44:03Z</time><name>PT5540</name></trkpt>
<trkpt lat="53.203836" lon="-1.991035"><ele>341</ele><time>2020-08-19T12:44:03Z</time><name>PT5541</name></trkpt>
<trkpt lat="53.203823" lon="-1.991032"><ele>342</ele><time>2020-08-19T12:44:05Z</time><name>PT5542</name></trkpt>
<trkpt lat="53.203809" lon="-1.991038"><ele>342</ele><time>2020-08-19T12:44:06Z</time><name>PT5543</name></trkpt>
<trkpt lat="53.203793" lon="-1.991045"><ele>342</ele><time>2020-08-19T12:44:06Z</time><name>PT5544</name></trkpt>
<trkpt lat="53.203781" lon="-1.991052"><ele>341</ele><time>2020-08-19T12:44:08Z</time><name>PT5545</name></trkpt>
<trkpt lat="53.203754" lon="-1.991062"><ele>342</ele><time>2020-08-19T12:44:10Z</time><name>PT5546</name></trkpt>
<trkpt lat="53.203743" lon="-1.991064"><ele>342</ele><time>2020-08-19T12:44:11Z</time><name>PT5547</name></trkpt>
<trkpt lat="53.203728" lon="-1.991065"><ele>341</ele><time>2020-08-19T12:44:12Z</time><name>PT5548</name></trkpt>
<trkpt lat="53.203716" lon="-1.991064"><ele>341</ele><time>2020-08-19T12:44:13Z</time><name>PT5549</name></trkpt>
<trkpt lat="53.203702" lon="-1.991062"><ele>341</ele><time>2020-08-19T12:44:14Z</time><name>PT5550</name></trkpt>
<trkpt lat="53.203691" lon="-1.991064"><ele>341</ele><time>2020-08-19T12:44:15Z</time><name>PT5551</name></trkpt>
<trkpt lat="53.203678" lon="-1.991066"><ele>341</ele><time>2020-08-19T12:44:16Z</time><name>PT5552</name></trkpt>
<trkpt lat="53.203665" lon="-1.991066"><ele>340</ele><time>2020-08-19T12:44:17Z</time><name>PT5553</name></trkpt>
<trkpt lat="53.203652" lon="-1.991065"><ele>340</ele><time>2020-08-19T12:44:18Z</time><name>PT5554</name></trkpt>
<trkpt lat="53.203640" lon="-1.991061"><ele>340</ele><time>2020-08-19T12:44:19Z</time><name>PT5555</name></trkpt>
<trkpt lat="53.203626" lon="-1.991061"><ele>340</ele><time>2020-08-19T12:44:20Z</time><name>PT5556</name></trkpt>
<trkpt lat="53.203610" lon="-1.991064"><ele>340</ele><time>2020-08-19T12:44:20Z</time><name>PT5557</name></trkpt>
<trkpt lat="53.203595" lon="-1.991066"><ele>339</ele><time>2020-08-19T12:44:22Z</time><name>PT5558</name></trkpt>
<trkpt lat="53.203583" lon="-1.991067"><ele>339</ele><time>2020-08-19T12:44:23Z</time><name>PT5559</name></trkpt>
<trkpt lat="53.203569" lon="-1.991070"><ele>339</ele><time>2020-08-19T12:44:23Z</time><name>PT5560</name></trkpt>
<trkpt lat="53.203554" lon="-1.991070"><ele>339</ele><time>2020-08-19T12:44:25Z</time><name>PT5561</name></trkpt>
<trkpt lat="53.203539" lon="-1.991066"><ele>339</ele><time>2020-08-19T12:44:26Z</time><name>PT5562</name></trkpt>
<trkpt lat="53.203522" lon="-1.991065"><ele>339</ele><time>2020-08-19T12:44:26Z</time><name>PT5563</name></trkpt>
<trkpt lat="53.203506" lon="-1.991070"><ele>339</ele><time>2020-08-19T12:44:28Z</time><name>PT5564</name></trkpt>
<trkpt lat="53.203493" lon="-1.991076"><ele>339</ele><time>2020-08-19T12:44:29Z</time><name>PT5565</name></trkpt>
<trkpt lat="53.203480" lon="-1.991086"><ele>339</ele><time>2020-08-19T12:44:29Z</time><name>PT5566</name></trkpt>
<trkpt lat="53.203467" lon="-1.991092"><ele>340</ele><time>2020-08-19T12:44:31Z</time><name>PT5567</name></trkpt>
<trkpt lat="53.203456" lon="-1.991097"><ele>340</ele><time>2020-08-19T12:44:32Z</time><name>PT5568</name></trkpt>
<trkpt lat="53.203445" lon="-1.991101"><ele>339</ele><time>2020-08-19T12:44:32Z</time><name>PT5569</name></trkpt>
<trkpt lat="53.203432" lon="-1.991105"><ele>339</ele><time>2020-08-19T12:44:34Z</time><name>PT5570</name></trkpt>
<trkpt lat="53.203415" lon="-1.991105"><ele>340</ele><time>2020-08-19T12:44:35Z</time><name>PT5571</name></trkpt>
<trkpt lat="53.203403" lon="-1.991110"><ele>340</ele><time>2020-08-19T12:44:35Z</time><name>PT5572</name></trkpt>
<trkpt lat="53.203390" lon="-1.991117"><ele>340</ele><time>2020-08-19T12:44:37Z</time><name>PT5573</name></trkpt>
<trkpt lat="53.203374" lon="-1.991122"><ele>340</ele><time>2020-08-19T12:44:38Z</time><name>PT5574</name></trkpt>
<trkpt lat="53.203361" lon="-1.991125"><ele>340</ele><time>2020-08-19T12:44:38Z</time><name>PT5575</name></trkpt>
<trkpt lat="53.203347" lon="-1.991132"><ele>341</ele><time>2020-08-19T12:44:40Z</time><name>PT5576</name></trkpt>
<trkpt lat="53.203330" lon="-1.991134"><ele>341</ele><time>2020-08-19T12:44:41Z</time><name>PT5577</name></trkpt>
<trkpt lat="53.203317" lon="-1.991135"><ele>341</ele><time>2020-08-19T12:44:41Z</time><name>PT5578</name></trkpt>
<trkpt lat="53.203305" lon="-1.991133"><ele>341</ele><time>2020-08-19T12:44:43Z</time><name>PT5579</name></trkpt>
<trkpt lat="53.203297" lon="-1.991128"><ele>341</ele><time>2020-08-19T12:44:44Z</time><name>PT5580</name></trkpt>
<trkpt lat="53.203285" lon="-1.991122"><ele>341</ele><time>2020-08-19T12:44:44Z</time><name>PT5581</name></trkpt>
<trkpt lat="53.203274" lon="-1.991120"><ele>341</ele><time>2020-08-19T12:44:46Z</time><name>PT5582</name></trkpt>
<trkpt lat="53.203263" lon="-1.991116"><ele>342</ele><time>2020-08-19T12:44:47Z</time><name>PT5583</name></trkpt>
<trkpt lat="53.203251" lon="-1.991114"><ele>341</ele><time>2020-08-19T12:44:47Z</time><name>PT5584</name></trkpt>
<trkpt lat="53.203239" lon="-1.991108"><ele>341</ele><time>2020-08-19T12:44:49Z</time><name>PT5585</name></trkpt>
<trkpt lat="53.203226" lon="-1.991098"><ele>341</ele><time>2020-08-19T12:44:50Z</time><name>PT5586</name></trkpt>
<trkpt lat="53.203211" lon="-1.991090"><ele>341</ele><time>2020-08-19T12:44:50Z</time><name>PT5587</name></trkpt>
<trkpt lat="53.203196" lon="-1.991089"><ele>342</ele><time>2020-08-19T12:44:52Z</time><name>PT5588</name></trkpt>
<trkpt lat="53.203186" lon="-1.991081"><ele>344</ele><time>2020-08-19T12:44:53Z</time><name>PT5589</name></trkpt>
<trkpt lat="53.203177" lon="-1.991072"><ele>346</ele><time>2020-08-19T12:44:53Z</time><name>PT5590</name></trkpt>
<trkpt lat="53.203168" lon="-1.991069"><ele>346</ele><time>2020-08-19T12:44:55Z</time><name>PT5591</name></trkpt>
<trkpt lat="53.203158" lon="-1.991064"><ele>346</ele><time>2020-08-19T12:44:56Z</time><name>PT5592</name></trkpt>
<trkpt lat="53.203146" lon="-1.991058"><ele>345</ele><time>2020-08-19T12:44:56Z</time><name>PT5593</name></trkpt>
<trkpt lat="53.203133" lon="-1.991053"><ele>345</ele><time>2020-08-19T12:44:58Z</time><name>PT5594</name></trkpt>
<trkpt lat="53.203120" lon="-1.991050"><ele>345</ele><time>2020-08-19T12:44:59Z</time><name>PT5595</name></trkpt>
<trkpt lat="53.203108" lon="-1.991045"><ele>346</ele><time>2020-08-19T12:44:59Z</time><name>PT5596</name></trkpt>
<trkpt lat="53.203095" lon="-1.991040"><ele>346</ele><time>2020-08-19T12:45:01Z</time><name>PT5597</name></trkpt>
<trkpt lat="53.203081" lon="-1.991035"><ele>346</ele><time>2020-08-19T12:45:02Z</time><name>PT5598</name></trkpt>
<trkpt lat="53.203067" lon="-1.991031"><ele>346</ele><time>2020-08-19T12:45:02Z</time><name>PT5599</name></trkpt>
<trkpt lat="53.203055" lon="-1.991028"><ele>347</ele><time>2020-08-19T12:45:04Z</time><name>PT5600</name></trkpt>
<trkpt lat="53.203043" lon="-1.991024"><ele>347</ele><time>2020-08-19T12:45:05Z</time><name>PT5601</name></trkpt>
<trkpt lat="53.203031" lon="-1.991019"><ele>347</ele><time>2020-08-19T12:45:05Z</time><name>PT5602</name></trkpt>
<trkpt lat="53.203020" lon="-1.991010"><ele>347</ele><time>2020-08-19T12:45:07Z</time><name>PT5603</name></trkpt>
<trkpt lat="53.203008" lon="-1.991002"><ele>347</ele><time>2020-08-19T12:45:08Z</time><name>PT5604</name></trkpt>
<trkpt lat="53.202997" lon="-1.990996"><ele>348</ele><time>2020-08-19T12:45:08Z</time><name>PT5605</name></trkpt>
<trkpt lat="53.202985" lon="-1.990990"><ele>348</ele><time>2020-08-19T12:45:10Z</time><name>PT5606</name></trkpt>
<trkpt lat="53.202973" lon="-1.990985"><ele>348</ele><time>2020-08-19T12:45:11Z</time><name>PT5607</name></trkpt>
<trkpt lat="53.202961" lon="-1.990977"><ele>349</ele><time>2020-08-19T12:45:11Z</time><name>PT5608</name></trkpt>
<trkpt lat="53.202947" lon="-1.990966"><ele>349</ele><time>2020-08-19T12:45:13Z</time><name>PT5609</name></trkpt>
<trkpt lat="53.202936" lon="-1.990959"><ele>349</ele><time>2020-08-19T12:45:14Z</time><name>PT5610</name></trkpt>
<trkpt lat="53.202924" lon="-1.990952"><ele>349</ele><time>2020-08-19T12:45:14Z</time><name>PT5611</name></trkpt>
<trkpt lat="53.202912" lon="-1.990947"><ele>349</ele><time>2020-08-19T12:45:16Z</time><name>PT5612</name></trkpt>
<trkpt lat="53.202900" lon="-1.990943"><ele>349</ele><time>2020-08-19T12:45:17Z</time><name>PT5613</name></trkpt>
<trkpt lat="53.202889" lon="-1.990937"><ele>349</ele><time>2020-08-19T12:45:17Z</time><name>PT5614</name></trkpt>
<trkpt lat="53.202877" lon="-1.990929"><ele>349</ele><time>2020-08-19T12:45:19Z</time><name>PT5615</name></trkpt>
<trkpt lat="53.202864" lon="-1.990922"><ele>349</ele><time>2020-08-19T12:45:20Z</time><name>PT5616</name></trkpt>
<trkpt lat="53.202852" lon="-1.990914"><ele>349</ele><time>2020-08-19T12:45:20Z</time><name>PT5617</name></trkpt>
<trkpt lat="53.202841" lon="-1.990908"><ele>349</ele><time>2020-08-19T12:45:22Z</time><name>PT5618</name></trkpt>
<trkpt lat="53.202829" lon="-1.990900"><ele>349</ele><time>2020-08-19T12:45:23Z</time><name>PT5619</name></trkpt>
<trkpt lat="53.202818" lon="-1.990890"><ele>349</ele><time>2020-08-19T12:45:23Z</time><name>PT5620</name></trkpt>
<trkpt lat="53.202806" lon="-1.990881"><ele>349</ele><time>2020-08-19T12:45:25Z</time><name>PT5621</name></trkpt>
<trkpt lat="53.202793" lon="-1.990873"><ele>349</ele><time>2020-08-19T12:45:26Z</time><name>PT5622</name></trkpt>
<trkpt lat="53.202784" lon="-1.990865"><ele>349</ele><time>2020-08-19T12:45:26Z</time><name>PT5623</name></trkpt>
<trkpt lat="53.202773" lon="-1.990857"><ele>348</ele><time>2020-08-19T12:45:28Z</time><name>PT5624</name></trkpt>
<trkpt lat="53.202762" lon="-1.990844"><ele>349</ele><time>2020-08-19T12:45:29Z</time><name>PT5625</name></trkpt>
<trkpt lat="53.202751" lon="-1.990830"><ele>349</ele><time>2020-08-19T12:45:29Z</time><name>PT5626</name></trkpt>
<trkpt lat="53.202739" lon="-1.990820"><ele>349</ele><time>2020-08-19T12:45:31Z</time><name>PT5627</name></trkpt>
<trkpt lat="53.202728" lon="-1.990806"><ele>349</ele><time>2020-08-19T12:45:32Z</time><name>PT5628</name></trkpt>
<trkpt lat="53.202715" lon="-1.990793"><ele>349</ele><time>2020-08-19T12:45:32Z</time><name>PT5629</name></trkpt>
<trkpt lat="53.202704" lon="-1.990781"><ele>349</ele><time>2020-08-19T12:45:34Z</time><name>PT5630</name></trkpt>
<trkpt lat="53.202694" lon="-1.990768"><ele>349</ele><time>2020-08-19T12:45:35Z</time><name>PT5631</name></trkpt>
<trkpt lat="53.202685" lon="-1.990757"><ele>349</ele><time>2020-08-19T12:45:35Z</time><name>PT5632</name></trkpt>
<trkpt lat="53.202675" lon="-1.990747"><ele>349</ele><time>2020-08-19T12:45:37Z</time><name>PT5633</name></trkpt>
<trkpt lat="53.202665" lon="-1.990738"><ele>348</ele><time>2020-08-19T12:45:38Z</time><name>PT5634</name></trkpt>
<trkpt lat="53.202654" lon="-1.990727"><ele>349</ele><time>2020-08-19T12:45:38Z</time><name>PT5635</name></trkpt>
<trkpt lat="53.202641" lon="-1.990717"><ele>348</ele><time>2020-08-19T12:45:40Z</time><name>PT5636</name></trkpt>
<trkpt lat="53.202629" lon="-1.990707"><ele>349</ele><time>2020-08-19T12:45:41Z</time><name>PT5637</name></trkpt>
<trkpt lat="53.202619" lon="-1.990694"><ele>349</ele><time>2020-08-19T12:45:41Z</time><name>PT5638</name></trkpt>
<trkpt lat="53.202605" lon="-1.990682"><ele>348</ele><time>2020-08-19T12:45:43Z</time><name>PT5639</name></trkpt>
<trkpt lat="53.202593" lon="-1.990672"><ele>349</ele><time>2020-08-19T12:45:44Z</time><name>PT5640</name></trkpt>
<trkpt lat="53.202579" lon="-1.990659"><ele>349</ele><time>2020-08-19T12:45:44Z</time><name>PT5641</name></trkpt>
<trkpt lat="53.202567" lon="-1.990646"><ele>349</ele><time>2020-08-19T12:45:46Z</time><name>PT5642</name></trkpt>
<trkpt lat="53.202555" lon="-1.990636"><ele>349</ele><time>2020-08-19T12:45:47Z</time><name>PT5643</name></trkpt>
<trkpt lat="53.202544" lon="-1.990622"><ele>348</ele><time>2020-08-19T12:45:47Z</time><name>PT5644</name></trkpt>
<trkpt lat="53.202532" lon="-1.990609"><ele>348</ele><time>2020-08-19T12:45:49Z</time><name>PT5645</name></trkpt>
<trkpt lat="53.202519" lon="-1.990600"><ele>348</ele><time>2020-08-19T12:45:50Z</time><name>PT5646</name></trkpt>
<trkpt lat="53.202510" lon="-1.990588"><ele>347</ele><time>2020-08-19T12:45:50Z</time><name>PT5647</name></trkpt>
<trkpt lat="53.202498" lon="-1.990576"><ele>348</ele><time>2020-08-19T12:45:52Z</time><name>PT5648</name></trkpt>
<trkpt lat="53.202488" lon="-1.990563"><ele>348</ele><time>2020-08-19T12:45:53Z</time><name>PT5649</name></trkpt>
<trkpt lat="53.202478" lon="-1.990550"><ele>348</ele><time>2020-08-19T12:45:53Z</time><name>PT5650</name></trkpt>
<trkpt lat="53.202468" lon="-1.990536"><ele>348</ele><time>2020-08-19T12:45:55Z</time><name>PT5651</name></trkpt>
<trkpt lat="53.202464" lon="-1.990521"><ele>348</ele><time>2020-08-19T12:45:56Z</time><name>PT5652</name></trkpt>
<trkpt lat="53.202459" lon="-1.990508"><ele>348</ele><time>2020-08-19T12:45:56Z</time><name>PT5653</name></trkpt>
<trkpt lat="53.202449" lon="-1.990496"><ele>348</ele><time>2020-08-19T12:45:58Z</time><name>PT5654</name></trkpt>
<trkpt lat="53.202438" lon="-1.990488"><ele>348</ele><time>2020-08-19T12:45:59Z</time><name>PT5655</name></trkpt>
<trkpt lat="53.202430" lon="-1.990472"><ele>348</ele><time>2020-08-19T12:45:59Z</time><name>PT5656</name></trkpt>
<trkpt lat="53.202419" lon="-1.990458"><ele>348</ele><time>2020-08-19T12:46:01Z</time><name>PT5657</name></trkpt>
<trkpt lat="53.202407" lon="-1.990443"><ele>348</ele><time>2020-08-19T12:46:02Z</time><name>PT5658</name></trkpt>
<trkpt lat="53.202400" lon="-1.990431"><ele>348</ele><time>2020-08-19T12:46:02Z</time><name>PT5659</name></trkpt>
<trkpt lat="53.202386" lon="-1.990420"><ele>347</ele><time>2020-08-19T12:46:04Z</time><name>PT5660</name></trkpt>
<trkpt lat="53.202376" lon="-1.990413"><ele>347</ele><time>2020-08-19T12:46:05Z</time><name>PT5661</name></trkpt>
<trkpt lat="53.202364" lon="-1.990400"><ele>346</ele><time>2020-08-19T12:46:05Z</time><name>PT5662</name></trkpt>
<trkpt lat="53.202354" lon="-1.990391"><ele>346</ele><time>2020-08-19T12:46:07Z</time><name>PT5663</name></trkpt>
<trkpt lat="53.202346" lon="-1.990380"><ele>346</ele><time>2020-08-19T12:46:08Z</time><name>PT5664</name></trkpt>
<trkpt lat="53.202335" lon="-1.990364"><ele>346</ele><time>2020-08-19T12:46:09Z</time><name>PT5665</name></trkpt>
<trkpt lat="53.202297" lon="-1.990331"><ele>345</ele><time>2020-08-19T12:46:12Z</time><name>PT5666</name></trkpt>
<trkpt lat="53.202254" lon="-1.990294"><ele>345</ele><time>2020-08-19T12:46:16Z</time><name>PT5667</name></trkpt>
<trkpt lat="53.202225" lon="-1.990258"><ele>345</ele><time>2020-08-19T12:46:19Z</time><name>PT5668</name></trkpt>
<trkpt lat="53.202179" lon="-1.990209"><ele>344</ele><time>2020-08-19T12:46:23Z</time><name>PT5669</name></trkpt>
<trkpt lat="53.202143" lon="-1.990163"><ele>345</ele><time>2020-08-19T12:46:26Z</time><name>PT5670</name></trkpt>
<trkpt lat="53.202103" lon="-1.990119"><ele>345</ele><time>2020-08-19T12:46:31Z</time><name>PT5671</name></trkpt>
<trkpt lat="53.202059" lon="-1.990073"><ele>345</ele><time>2020-08-19T12:46:35Z</time><name>PT5672</name></trkpt>
<trkpt lat="53.202028" lon="-1.990032"><ele>344</ele><time>2020-08-19T12:46:38Z</time><name>PT5673</name></trkpt>
<trkpt lat="53.201987" lon="-1.989977"><ele>345</ele><time>2020-08-19T12:46:41Z</time><name>PT5674</name></trkpt>
<trkpt lat="53.201958" lon="-1.989944"><ele>345</ele><time>2020-08-19T12:46:44Z</time><name>PT5675</name></trkpt>
<trkpt lat="53.201926" lon="-1.989911"><ele>345</ele><time>2020-08-19T12:46:47Z</time><name>PT5676</name></trkpt>
<trkpt lat="53.201879" lon="-1.989867"><ele>346</ele><time>2020-08-19T12:46:52Z</time><name>PT5677</name></trkpt>
<trkpt lat="53.201840" lon="-1.989822"><ele>346</ele><time>2020-08-19T12:46:56Z</time><name>PT5678</name></trkpt>
<trkpt lat="53.201806" lon="-1.989761"><ele>347</ele><time>2020-08-19T12:46:59Z</time><name>PT5679</name></trkpt>
<trkpt lat="53.201767" lon="-1.989706"><ele>347</ele><time>2020-08-19T12:47:04Z</time><name>PT5680</name></trkpt>
<trkpt lat="53.201737" lon="-1.989663"><ele>345</ele><time>2020-08-19T12:47:07Z</time><name>PT5681</name></trkpt>
<trkpt lat="53.201701" lon="-1.989598"><ele>346</ele><time>2020-08-19T12:47:11Z</time><name>PT5682</name></trkpt>
<trkpt lat="53.201678" lon="-1.989547"><ele>347</ele><time>2020-08-19T12:47:14Z</time><name>PT5683</name></trkpt>
<trkpt lat="53.201670" lon="-1.989483"><ele>353</ele><time>2020-08-19T12:47:17Z</time><name>PT5684</name></trkpt>
<trkpt lat="53.201661" lon="-1.989465"><ele>353</ele><time>2020-08-19T12:47:17Z</time><name>PT5685</name></trkpt>
<trkpt lat="53.201652" lon="-1.989446"><ele>353</ele><time>2020-08-19T12:47:19Z</time><name>PT5686</name></trkpt>
<trkpt lat="53.201644" lon="-1.989425"><ele>353</ele><time>2020-08-19T12:47:20Z</time><name>PT5687</name></trkpt>
<trkpt lat="53.201639" lon="-1.989408"><ele>352</ele><time>2020-08-19T12:47:20Z</time><name>PT5688</name></trkpt>
<trkpt lat="53.201633" lon="-1.989392"><ele>353</ele><time>2020-08-19T12:47:22Z</time><name>PT5689</name></trkpt>
<trkpt lat="53.201627" lon="-1.989372"><ele>353</ele><time>2020-08-19T12:47:23Z</time><name>PT5690</name></trkpt>
<trkpt lat="53.201619" lon="-1.989352"><ele>353</ele><time>2020-08-19T12:47:23Z</time><name>PT5691</name></trkpt>
<trkpt lat="53.201613" lon="-1.989333"><ele>353</ele><time>2020-08-19T12:47:25Z</time><name>PT5692</name></trkpt>
<trkpt lat="53.201606" lon="-1.989314"><ele>353</ele><time>2020-08-19T12:47:26Z</time><name>PT5693</name></trkpt>
<trkpt lat="53.201601" lon="-1.989295"><ele>353</ele><time>2020-08-19T12:47:26Z</time><name>PT5694</name></trkpt>
<trkpt lat="53.201598" lon="-1.989276"><ele>352</ele><time>2020-08-19T12:47:28Z</time><name>PT5695</name></trkpt>
<trkpt lat="53.201591" lon="-1.989258"><ele>352</ele><time>2020-08-19T12:47:29Z</time><name>PT5696</name></trkpt>
<trkpt lat="53.201584" lon="-1.989240"><ele>352</ele><time>2020-08-19T12:47:29Z</time><name>PT5697</name></trkpt>
<trkpt lat="53.201577" lon="-1.989223"><ele>352</ele><time>2020-08-19T12:47:31Z</time><name>PT5698</name></trkpt>
<trkpt lat="53.201573" lon="-1.989205"><ele>352</ele><time>2020-08-19T12:47:32Z</time><name>PT5699</name></trkpt>
<trkpt lat="53.201569" lon="-1.989188"><ele>352</ele><time>2020-08-19T12:47:32Z</time><name>PT5700</name></trkpt>
<trkpt lat="53.201566" lon="-1.989175"><ele>352</ele><time>2020-08-19T12:47:34Z</time><name>PT5701</name></trkpt>
<trkpt lat="53.201562" lon="-1.989158"><ele>352</ele><time>2020-08-19T12:47:35Z</time><name>PT5702</name></trkpt>
<trkpt lat="53.201558" lon="-1.989143"><ele>352</ele><time>2020-08-19T12:47:35Z</time><name>PT5703</name></trkpt>
<trkpt lat="53.201552" lon="-1.989131"><ele>352</ele><time>2020-08-19T12:47:37Z</time><name>PT5704</name></trkpt>
<trkpt lat="53.201548" lon="-1.989126"><ele>352</ele><time>2020-08-19T12:47:38Z</time><name>PT5705</name></trkpt>
<trkpt lat="53.201548" lon="-1.989121"><ele>353</ele><time>2020-08-19T12:47:38Z</time><name>PT5706</name></trkpt>
<trkpt lat="53.201546" lon="-1.989117"><ele>353</ele><time>2020-08-19T12:47:40Z</time><name>PT5707</name></trkpt>
<trkpt lat="53.201546" lon="-1.989110"><ele>353</ele><time>2020-08-19T12:47:41Z</time><name>PT5708</name></trkpt>
<trkpt lat="53.201544" lon="-1.989098"><ele>353</ele><time>2020-08-19T12:47:41Z</time><name>PT5709</name></trkpt>
<trkpt lat="53.201541" lon="-1.989084"><ele>353</ele><time>2020-08-19T12:47:43Z</time><name>PT5710</name></trkpt>
<trkpt lat="53.201538" lon="-1.989074"><ele>353</ele><time>2020-08-19T12:47:44Z</time><name>PT5711</name></trkpt>
<trkpt lat="53.201535" lon="-1.989067"><ele>353</ele><time>2020-08-19T12:47:44Z</time><name>PT5712</name></trkpt>
<trkpt lat="53.201533" lon="-1.989065"><ele>353</ele><time>2020-08-19T12:47:46Z</time><name>PT5713</name></trkpt>
<trkpt lat="53.201532" lon="-1.989062"><ele>353</ele><time>2020-08-19T12:47:47Z</time><name>PT5714</name></trkpt>
<trkpt lat="53.201532" lon="-1.989060"><ele>353</ele><time>2020-08-19T12:47:47Z</time><name>PT5715</name></trkpt>
<trkpt lat="53.201532" lon="-1.989059"><ele>354</ele><time>2020-08-19T12:47:49Z</time><name>PT5716</name></trkpt>
<trkpt lat="53.201530" lon="-1.989057"><ele>354</ele><time>2020-08-19T12:48:02Z</time><name>PT5717</name></trkpt>
<trkpt lat="53.201531" lon="-1.989051"><ele>354</ele><time>2020-08-19T12:48:02Z</time><name>PT5718</name></trkpt>
<trkpt lat="53.201529" lon="-1.989036"><ele>354</ele><time>2020-08-19T12:48:04Z</time><name>PT5719</name></trkpt>
<trkpt lat="53.201527" lon="-1.989021"><ele>354</ele><time>2020-08-19T12:48:05Z</time><name>PT5720</name></trkpt>
<trkpt lat="53.201525" lon="-1.989006"><ele>354</ele><time>2020-08-19T12:48:05Z</time><name>PT5721</name></trkpt>
<trkpt lat="53.201519" lon="-1.989000"><ele>354</ele><time>2020-08-19T12:48:07Z</time><name>PT5722</name></trkpt>
<trkpt lat="53.201514" lon="-1.988989"><ele>354</ele><time>2020-08-19T12:48:08Z</time><name>PT5723</name></trkpt>
<trkpt lat="53.201511" lon="-1.988992"><ele>354</ele><time>2020-08-19T12:48:08Z</time><name>PT5724</name></trkpt>
<trkpt lat="53.201512" lon="-1.989002"><ele>354</ele><time>2020-08-19T12:48:10Z</time><name>PT5725</name></trkpt>
<trkpt lat="53.201514" lon="-1.989013"><ele>355</ele><time>2020-08-19T12:48:11Z</time><name>PT5726</name></trkpt>
<trkpt lat="53.201510" lon="-1.989026"><ele>355</ele><time>2020-08-19T12:48:11Z</time><name>PT5727</name></trkpt>
<trkpt lat="53.201506" lon="-1.989041"><ele>355</ele><time>2020-08-19T12:48:13Z</time><name>PT5728</name></trkpt>
<trkpt lat="53.201500" lon="-1.989045"><ele>355</ele><time>2020-08-19T12:48:14Z</time><name>PT5729</name></trkpt>
<trkpt lat="53.201497" lon="-1.989046"><ele>355</ele><time>2020-08-19T12:48:14Z</time><name>PT5730</name></trkpt>
<trkpt lat="53.201495" lon="-1.989046"><ele>355</ele><time>2020-08-19T12:48:16Z</time><name>PT5731</name></trkpt>
<trkpt lat="53.201487" lon="-1.989046"><ele>355</ele><time>2020-08-19T12:48:17Z</time><name>PT5732</name></trkpt>
<trkpt lat="53.201477" lon="-1.989050"><ele>355</ele><time>2020-08-19T12:48:17Z</time><name>PT5733</name></trkpt>
<trkpt lat="53.201464" lon="-1.989050"><ele>355</ele><time>2020-08-19T12:48:19Z</time><name>PT5734</name></trkpt>
<trkpt lat="53.201451" lon="-1.989053"><ele>354</ele><time>2020-08-19T12:48:20Z</time><name>PT5735</name></trkpt>
<trkpt lat="53.201439" lon="-1.989054"><ele>354</ele><time>2020-08-19T12:48:20Z</time><name>PT5736</name></trkpt>
<trkpt lat="53.201427" lon="-1.989053"><ele>354</ele><time>2020-08-19T12:48:22Z</time><name>PT5737</name></trkpt>
<trkpt lat="53.201415" lon="-1.989056"><ele>354</ele><time>2020-08-19T12:48:23Z</time><name>PT5738</name></trkpt>
<trkpt lat="53.201405" lon="-1.989060"><ele>354</ele><time>2020-08-19T12:48:23Z</time><name>PT5739</name></trkpt>
<trkpt lat="53.201395" lon="-1.989064"><ele>354</ele><time>2020-08-19T12:48:25Z</time><name>PT5740</name></trkpt>
<trkpt lat="53.201384" lon="-1.989067"><ele>354</ele><time>2020-08-19T12:48:26Z</time><name>PT5741</name></trkpt>
<trkpt lat="53.201373" lon="-1.989069"><ele>354</ele><time>2020-08-19T12:48:26Z</time><name>PT5742</name></trkpt>
<trkpt lat="53.201360" lon="-1.989075"><ele>354</ele><time>2020-08-19T12:48:28Z</time><name>PT5743</name></trkpt>
<trkpt lat="53.201347" lon="-1.989081"><ele>354</ele><time>2020-08-19T12:48:29Z</time><name>PT5744</name></trkpt>
<trkpt lat="53.201334" lon="-1.989087"><ele>354</ele><time>2020-08-19T12:48:29Z</time><name>PT5745</name></trkpt>
<trkpt lat="53.201322" lon="-1.989091"><ele>354</ele><time>2020-08-19T12:48:31Z</time><name>PT5746</name></trkpt>
<trkpt lat="53.201309" lon="-1.989093"><ele>354</ele><time>2020-08-19T12:48:32Z</time><name>PT5747</name></trkpt>
<trkpt lat="53.201296" lon="-1.989103"><ele>353</ele><time>2020-08-19T12:48:32Z</time><name>PT5748</name></trkpt>
<trkpt lat="53.201283" lon="-1.989110"><ele>353</ele><time>2020-08-19T12:48:34Z</time><name>PT5749</name></trkpt>
<trkpt lat="53.201269" lon="-1.989115"><ele>353</ele><time>2020-08-19T12:48:35Z</time><name>PT5750</name></trkpt>
<trkpt lat="53.201255" lon="-1.989121"><ele>353</ele><time>2020-08-19T12:48:35Z</time><name>PT5751</name></trkpt>
<trkpt lat="53.201242" lon="-1.989130"><ele>352</ele><time>2020-08-19T12:48:37Z</time><name>PT5752</name></trkpt>
<trkpt lat="53.201228" lon="-1.989135"><ele>353</ele><time>2020-08-19T12:48:38Z</time><name>PT5753</name></trkpt>
<trkpt lat="53.201213" lon="-1.989136"><ele>352</ele><time>2020-08-19T12:48:38Z</time><name>PT5754</name></trkpt>
<trkpt lat="53.201198" lon="-1.989140"><ele>353</ele><time>2020-08-19T12:48:40Z</time><name>PT5755</name></trkpt>
<trkpt lat="53.201183" lon="-1.989144"><ele>352</ele><time>2020-08-19T12:48:41Z</time><name>PT5756</name></trkpt>
<trkpt lat="53.201169" lon="-1.989146"><ele>352</ele><time>2020-08-19T12:48:41Z</time><name>PT5757</name></trkpt>
<trkpt lat="53.201156" lon="-1.989153"><ele>352</ele><time>2020-08-19T12:48:43Z</time><name>PT5758</name></trkpt>
<trkpt lat="53.201145" lon="-1.989160"><ele>352</ele><time>2020-08-19T12:48:44Z</time><name>PT5759</name></trkpt>
<trkpt lat="53.201137" lon="-1.989165"><ele>351</ele><time>2020-08-19T12:48:44Z</time><name>PT5760</name></trkpt>
<trkpt lat="53.201122" lon="-1.989168"><ele>351</ele><time>2020-08-19T12:48:46Z</time><name>PT5761</name></trkpt>
<trkpt lat="53.201108" lon="-1.989170"><ele>352</ele><time>2020-08-19T12:48:47Z</time><name>PT5762</name></trkpt>
<trkpt lat="53.201093" lon="-1.989176"><ele>352</ele><time>2020-08-19T12:48:47Z</time><name>PT5763</name></trkpt>
<trkpt lat="53.201081" lon="-1.989182"><ele>351</ele><time>2020-08-19T12:48:49Z</time><name>PT5764</name></trkpt>
<trkpt lat="53.201072" lon="-1.989184"><ele>351</ele><time>2020-08-19T12:48:50Z</time><name>PT5765</name></trkpt>
<trkpt lat="53.201063" lon="-1.989190"><ele>351</ele><time>2020-08-19T12:48:51Z</time><name>PT5766</name></trkpt>
<trkpt lat="53.201062" lon="-1.989197"><ele>351</ele><time>2020-08-19T12:48:52Z</time><name>PT5767</name></trkpt>
<trkpt lat="53.201060" lon="-1.989199"><ele>351</ele><time>2020-08-19T12:48:53Z</time><name>PT5768</name></trkpt>
<trkpt lat="53.201054" lon="-1.989202"><ele>351</ele><time>2020-08-19T12:48:54Z</time><name>PT5769</name></trkpt>
<trkpt lat="53.201045" lon="-1.989202"><ele>351</ele><time>2020-08-19T12:48:55Z</time><name>PT5770</name></trkpt>
<trkpt lat="53.201031" lon="-1.989201"><ele>350</ele><time>2020-08-19T12:48:56Z</time><name>PT5771</name></trkpt>
<trkpt lat="53.201020" lon="-1.989203"><ele>350</ele><time>2020-08-19T12:48:56Z</time><name>PT5772</name></trkpt>
<trkpt lat="53.201008" lon="-1.989210"><ele>351</ele><time>2020-08-19T12:48:58Z</time><name>PT5773</name></trkpt>
<trkpt lat="53.200997" lon="-1.989215"><ele>351</ele><time>2020-08-19T12:48:59Z</time><name>PT5774</name></trkpt>
<trkpt lat="53.200989" lon="-1.989223"><ele>351</ele><time>2020-08-19T12:49:00Z</time><name>PT5775</name></trkpt>
<trkpt lat="53.200976" lon="-1.989229"><ele>351</ele><time>2020-08-19T12:49:01Z</time><name>PT5776</name></trkpt>
<trkpt lat="53.200965" lon="-1.989234"><ele>351</ele><time>2020-08-19T12:49:02Z</time><name>PT5777</name></trkpt>
<trkpt lat="53.200953" lon="-1.989236"><ele>350</ele><time>2020-08-19T12:49:03Z</time><name>PT5778</name></trkpt>
<trkpt lat="53.200939" lon="-1.989238"><ele>351</ele><time>2020-08-19T12:49:04Z</time><name>PT5779</name></trkpt>
<trkpt lat="53.200925" lon="-1.989241"><ele>350</ele><time>2020-08-19T12:49:05Z</time><name>PT5780</name></trkpt>
<trkpt lat="53.200912" lon="-1.989251"><ele>350</ele><time>2020-08-19T12:49:06Z</time><name>PT5781</name></trkpt>
<trkpt lat="53.200900" lon="-1.989258"><ele>350</ele><time>2020-08-19T12:49:07Z</time><name>PT5782</name></trkpt>
<trkpt lat="53.200890" lon="-1.989263"><ele>350</ele><time>2020-08-19T12:49:08Z</time><name>PT5783</name></trkpt>
<trkpt lat="53.200880" lon="-1.989271"><ele>349</ele><time>2020-08-19T12:49:08Z</time><name>PT5784</name></trkpt>
<trkpt lat="53.200869" lon="-1.989278"><ele>349</ele><time>2020-08-19T12:49:10Z</time><name>PT5785</name></trkpt>
<trkpt lat="53.200851" lon="-1.989273"><ele>349</ele><time>2020-08-19T12:49:11Z</time><name>PT5786</name></trkpt>
<trkpt lat="53.200829" lon="-1.989295"><ele>350</ele><time>2020-08-19T12:49:11Z</time><name>PT5787</name></trkpt>
<trkpt lat="53.200810" lon="-1.989302"><ele>350</ele><time>2020-08-19T12:49:13Z</time><name>PT5788</name></trkpt>
<trkpt lat="53.200794" lon="-1.989304"><ele>350</ele><time>2020-08-19T12:49:14Z</time><name>PT5789</name></trkpt>
<trkpt lat="53.200779" lon="-1.989306"><ele>349</ele><time>2020-08-19T12:49:14Z</time><name>PT5790</name></trkpt>
<trkpt lat="53.200762" lon="-1.989309"><ele>349</ele><time>2020-08-19T12:49:16Z</time><name>PT5791</name></trkpt>
<trkpt lat="53.200749" lon="-1.989308"><ele>349</ele><time>2020-08-19T12:49:17Z</time><name>PT5792</name></trkpt>
<trkpt lat="53.200736" lon="-1.989307"><ele>350</ele><time>2020-08-19T12:49:17Z</time><name>PT5793</name></trkpt>
<trkpt lat="53.200722" lon="-1.989309"><ele>350</ele><time>2020-08-19T12:49:19Z</time><name>PT5794</name></trkpt>
<trkpt lat="53.200708" lon="-1.989311"><ele>350</ele><time>2020-08-19T12:49:20Z</time><name>PT5795</name></trkpt>
<trkpt lat="53.200695" lon="-1.989309"><ele>350</ele><time>2020-08-19T12:49:20Z</time><name>PT5796</name></trkpt>
<trkpt lat="53.200681" lon="-1.989308"><ele>350</ele><time>2020-08-19T12:49:22Z</time><name>PT5797</name></trkpt>
<trkpt lat="53.200667" lon="-1.989307"><ele>350</ele><time>2020-08-19T12:49:23Z</time><name>PT5798</name></trkpt>
<trkpt lat="53.200653" lon="-1.989306"><ele>350</ele><time>2020-08-19T12:49:23Z</time><name>PT5799</name></trkpt>
<trkpt lat="53.200640" lon="-1.989307"><ele>350</ele><time>2020-08-19T12:49:25Z</time><name>PT5800</name></trkpt>
<trkpt lat="53.200628" lon="-1.989309"><ele>350</ele><time>2020-08-19T12:49:26Z</time><name>PT5801</name></trkpt>
<trkpt lat="53.200615" lon="-1.989312"><ele>350</ele><time>2020-08-19T12:49:26Z</time><name>PT5802</name></trkpt>
<trkpt lat="53.200602" lon="-1.989316"><ele>350</ele><time>2020-08-19T12:49:28Z</time><name>PT5803</name></trkpt>
<trkpt lat="53.200591" lon="-1.989317"><ele>350</ele><time>2020-08-19T12:49:29Z</time><name>PT5804</name></trkpt>
<trkpt lat="53.200577" lon="-1.989314"><ele>350</ele><time>2020-08-19T12:49:29Z</time><name>PT5805</name></trkpt>
<trkpt lat="53.200564" lon="-1.989310"><ele>350</ele><time>2020-08-19T12:49:31Z</time><name>PT5806</name></trkpt>
<trkpt lat="53.200552" lon="-1.989305"><ele>350</ele><time>2020-08-19T12:49:32Z</time><name>PT5807</name></trkpt>
<trkpt lat="53.200539" lon="-1.989303"><ele>349</ele><time>2020-08-19T12:49:32Z</time><name>PT5808</name></trkpt>
<trkpt lat="53.200524" lon="-1.989305"><ele>349</ele><time>2020-08-19T12:49:34Z</time><name>PT5809</name></trkpt>
<trkpt lat="53.200511" lon="-1.989310"><ele>349</ele><time>2020-08-19T12:49:35Z</time><name>PT5810</name></trkpt>
<trkpt lat="53.200502" lon="-1.989316"><ele>349</ele><time>2020-08-19T12:49:35Z</time><name>PT5811</name></trkpt>
<trkpt lat="53.200492" lon="-1.989327"><ele>349</ele><time>2020-08-19T12:49:37Z</time><name>PT5812</name></trkpt>
<trkpt lat="53.200482" lon="-1.989338"><ele>349</ele><time>2020-08-19T12:49:38Z</time><name>PT5813</name></trkpt>
<trkpt lat="53.200479" lon="-1.989349"><ele>349</ele><time>2020-08-19T12:49:38Z</time><name>PT5814</name></trkpt>
<trkpt lat="53.200475" lon="-1.989354"><ele>349</ele><time>2020-08-19T12:49:40Z</time><name>PT5815</name></trkpt>
<trkpt lat="53.200471" lon="-1.989357"><ele>349</ele><time>2020-08-19T12:49:41Z</time><name>PT5816</name></trkpt>
<trkpt lat="53.200470" lon="-1.989360"><ele>349</ele><time>2020-08-19T12:49:41Z</time><name>PT5817</name></trkpt>
<trkpt lat="53.200468" lon="-1.989365"><ele>349</ele><time>2020-08-19T12:49:47Z</time><name>PT5818</name></trkpt>
<trkpt lat="53.200465" lon="-1.989381"><ele>349</ele><time>2020-08-19T12:49:49Z</time><name>PT5819</name></trkpt>
<trkpt lat="53.200460" lon="-1.989392"><ele>350</ele><time>2020-08-19T12:49:50Z</time><name>PT5820</name></trkpt>
<trkpt lat="53.200454" lon="-1.989406"><ele>349</ele><time>2020-08-19T12:49:50Z</time><name>PT5821</name></trkpt>
<trkpt lat="53.200448" lon="-1.989421"><ele>349</ele><time>2020-08-19T12:49:52Z</time><name>PT5822</name></trkpt>
<trkpt lat="53.200445" lon="-1.989435"><ele>349</ele><time>2020-08-19T12:49:53Z</time><name>PT5823</name></trkpt>
<trkpt lat="53.200439" lon="-1.989449"><ele>349</ele><time>2020-08-19T12:49:53Z</time><name>PT5824</name></trkpt>
<trkpt lat="53.200433" lon="-1.989464"><ele>348</ele><time>2020-08-19T12:49:55Z</time><name>PT5825</name></trkpt>
<trkpt lat="53.200427" lon="-1.989482"><ele>348</ele><time>2020-08-19T12:49:56Z</time><name>PT5826</name></trkpt>
<trkpt lat="53.200422" lon="-1.989500"><ele>349</ele><time>2020-08-19T12:49:56Z</time><name>PT5827</name></trkpt>
<trkpt lat="53.200417" lon="-1.989520"><ele>349</ele><time>2020-08-19T12:49:58Z</time><name>PT5828</name></trkpt>
<trkpt lat="53.200411" lon="-1.989539"><ele>349</ele><time>2020-08-19T12:49:59Z</time><name>PT5829</name></trkpt>
<trkpt lat="53.200413" lon="-1.989557"><ele>349</ele><time>2020-08-19T12:50:00Z</time><name>PT5830</name></trkpt>
<trkpt lat="53.200408" lon="-1.989589"><ele>349</ele><time>2020-08-19T12:50:01Z</time><name>PT5831</name></trkpt>
<trkpt lat="53.200394" lon="-1.989615"><ele>348</ele><time>2020-08-19T12:50:02Z</time><name>PT5832</name></trkpt>
<trkpt lat="53.200378" lon="-1.989631"><ele>349</ele><time>2020-08-19T12:50:02Z</time><name>PT5833</name></trkpt>
<trkpt lat="53.200369" lon="-1.989643"><ele>349</ele><time>2020-08-19T12:50:04Z</time><name>PT5834</name></trkpt>
<trkpt lat="53.200360" lon="-1.989656"><ele>349</ele><time>2020-08-19T12:50:05Z</time><name>PT5835</name></trkpt>
<trkpt lat="53.200348" lon="-1.989670"><ele>349</ele><time>2020-08-19T12:50:05Z</time><name>PT5836</name></trkpt>
<trkpt lat="53.200337" lon="-1.989685"><ele>349</ele><time>2020-08-19T12:50:07Z</time><name>PT5837</name></trkpt>
<trkpt lat="53.200326" lon="-1.989697"><ele>350</ele><time>2020-08-19T12:50:08Z</time><name>PT5838</name></trkpt>
<trkpt lat="53.200313" lon="-1.989705"><ele>349</ele><time>2020-08-19T12:50:08Z</time><name>PT5839</name></trkpt>
<trkpt lat="53.200302" lon="-1.989714"><ele>350</ele><time>2020-08-19T12:50:10Z</time><name>PT5840</name></trkpt>
<trkpt lat="53.200292" lon="-1.989725"><ele>350</ele><time>2020-08-19T12:50:11Z</time><name>PT5841</name></trkpt>
<trkpt lat="53.200283" lon="-1.989740"><ele>350</ele><time>2020-08-19T12:50:11Z</time><name>PT5842</name></trkpt>
<trkpt lat="53.200274" lon="-1.989755"><ele>350</ele><time>2020-08-19T12:50:13Z</time><name>PT5843</name></trkpt>
<trkpt lat="53.200264" lon="-1.989768"><ele>350</ele><time>2020-08-19T12:50:14Z</time><name>PT5844</name></trkpt>
<trkpt lat="53.200254" lon="-1.989780"><ele>350</ele><time>2020-08-19T12:50:14Z</time><name>PT5845</name></trkpt>
<trkpt lat="53.200246" lon="-1.989790"><ele>350</ele><time>2020-08-19T12:50:16Z</time><name>PT5846</name></trkpt>
<trkpt lat="53.200215" lon="-1.989823"><ele>351</ele><time>2020-08-19T12:50:19Z</time><name>PT5847</name></trkpt>
<trkpt lat="53.200169" lon="-1.989864"><ele>351</ele><time>2020-08-19T12:50:23Z</time><name>PT5848</name></trkpt>
<trkpt lat="53.200134" lon="-1.989898"><ele>351</ele><time>2020-08-19T12:50:26Z</time><name>PT5849</name></trkpt>
<trkpt lat="53.200122" lon="-1.989908"><ele>351</ele><time>2020-08-19T12:50:26Z</time><name>PT5850</name></trkpt>
<trkpt lat="53.200110" lon="-1.989916"><ele>351</ele><time>2020-08-19T12:50:28Z</time><name>PT5851</name></trkpt>
<trkpt lat="53.200102" lon="-1.989919"><ele>351</ele><time>2020-08-19T12:50:29Z</time><name>PT5852</name></trkpt>
<trkpt lat="53.200092" lon="-1.989927"><ele>351</ele><time>2020-08-19T12:50:29Z</time><name>PT5853</name></trkpt>
<trkpt lat="53.200079" lon="-1.989932"><ele>351</ele><time>2020-08-19T12:50:31Z</time><name>PT5854</name></trkpt>
<trkpt lat="53.200067" lon="-1.989935"><ele>350</ele><time>2020-08-19T12:50:32Z</time><name>PT5855</name></trkpt>
<trkpt lat="53.200054" lon="-1.989942"><ele>351</ele><time>2020-08-19T12:50:32Z</time><name>PT5856</name></trkpt>
<trkpt lat="53.200042" lon="-1.989947"><ele>351</ele><time>2020-08-19T12:50:34Z</time><name>PT5857</name></trkpt>
<trkpt lat="53.200031" lon="-1.989952"><ele>350</ele><time>2020-08-19T12:50:35Z</time><name>PT5858</name></trkpt>
<trkpt lat="53.200021" lon="-1.989960"><ele>350</ele><time>2020-08-19T12:50:35Z</time><name>PT5859</name></trkpt>
<trkpt lat="53.200010" lon="-1.989968"><ele>350</ele><time>2020-08-19T12:50:37Z</time><name>PT5860</name></trkpt>
<trkpt lat="53.199997" lon="-1.989977"><ele>350</ele><time>2020-08-19T12:50:38Z</time><name>PT5861</name></trkpt>
<trkpt lat="53.199984" lon="-1.989983"><ele>349</ele><time>2020-08-19T12:50:38Z</time><name>PT5862</name></trkpt>
<trkpt lat="53.199971" lon="-1.989991"><ele>349</ele><time>2020-08-19T12:50:40Z</time><name>PT5863</name></trkpt>
<trkpt lat="53.199957" lon="-1.989999"><ele>349</ele><time>2020-08-19T12:50:41Z</time><name>PT5864</name></trkpt>
<trkpt lat="53.199944" lon="-1.990008"><ele>349</ele><time>2020-08-19T12:50:41Z</time><name>PT5865</name></trkpt>
<trkpt lat="53.199929" lon="-1.990018"><ele>349</ele><time>2020-08-19T12:50:43Z</time><name>PT5866</name></trkpt>
<trkpt lat="53.199917" lon="-1.990027"><ele>349</ele><time>2020-08-19T12:50:44Z</time><name>PT5867</name></trkpt>
<trkpt lat="53.199903" lon="-1.990036"><ele>349</ele><time>2020-08-19T12:50:44Z</time><name>PT5868</name></trkpt>
<trkpt lat="53.199891" lon="-1.990046"><ele>349</ele><time>2020-08-19T12:50:46Z</time><name>PT5869</name></trkpt>
<trkpt lat="53.199879" lon="-1.990057"><ele>349</ele><time>2020-08-19T12:50:47Z</time><name>PT5870</name></trkpt>
<trkpt lat="53.199867" lon="-1.990070"><ele>349</ele><time>2020-08-19T12:50:47Z</time><name>PT5871</name></trkpt>
<trkpt lat="53.199856" lon="-1.990082"><ele>349</ele><time>2020-08-19T12:50:49Z</time><name>PT5872</name></trkpt>
<trkpt lat="53.199847" lon="-1.990093"><ele>349</ele><time>2020-08-19T12:50:50Z</time><name>PT5873</name></trkpt>
<trkpt lat="53.199835" lon="-1.990103"><ele>349</ele><time>2020-08-19T12:50:50Z</time><name>PT5874</name></trkpt>
<trkpt lat="53.199824" lon="-1.990113"><ele>349</ele><time>2020-08-19T12:50:52Z</time><name>PT5875</name></trkpt>
<trkpt lat="53.199815" lon="-1.990127"><ele>349</ele><time>2020-08-19T12:50:53Z</time><name>PT5876</name></trkpt>
<trkpt lat="53.199805" lon="-1.990142"><ele>349</ele><time>2020-08-19T12:50:53Z</time><name>PT5877</name></trkpt>
<trkpt lat="53.199795" lon="-1.990157"><ele>348</ele><time>2020-08-19T12:50:55Z</time><name>PT5878</name></trkpt>
<trkpt lat="53.199786" lon="-1.990170"><ele>348</ele><time>2020-08-19T12:50:56Z</time><name>PT5879</name></trkpt>
<trkpt lat="53.199775" lon="-1.990183"><ele>348</ele><time>2020-08-19T12:50:56Z</time><name>PT5880</name></trkpt>
<trkpt lat="53.199766" lon="-1.990197"><ele>348</ele><time>2020-08-19T12:50:58Z</time><name>PT5881</name></trkpt>
<trkpt lat="53.199757" lon="-1.990208"><ele>348</ele><time>2020-08-19T12:50:59Z</time><name>PT5882</name></trkpt>
<trkpt lat="53.199746" lon="-1.990218"><ele>348</ele><time>2020-08-19T12:50:59Z</time><name>PT5883</name></trkpt>
<trkpt lat="53.199736" lon="-1.990231"><ele>348</ele><time>2020-08-19T12:51:01Z</time><name>PT5884</name></trkpt>
<trkpt lat="53.199726" lon="-1.990243"><ele>348</ele><time>2020-08-19T12:51:02Z</time><name>PT5885</name></trkpt>
<trkpt lat="53.199716" lon="-1.990256"><ele>348</ele><time>2020-08-19T12:51:03Z</time><name>PT5886</name></trkpt>
<trkpt lat="53.199706" lon="-1.990268"><ele>347</ele><time>2020-08-19T12:51:04Z</time><name>PT5887</name></trkpt>
<trkpt lat="53.199695" lon="-1.990277"><ele>347</ele><time>2020-08-19T12:51:05Z</time><name>PT5888</name></trkpt>
<trkpt lat="53.199686" lon="-1.990289"><ele>347</ele><time>2020-08-19T12:51:05Z</time><name>PT5889</name></trkpt>
<trkpt lat="53.199674" lon="-1.990301"><ele>347</ele><time>2020-08-19T12:51:07Z</time><name>PT5890</name></trkpt>
<trkpt lat="53.199663" lon="-1.990312"><ele>347</ele><time>2020-08-19T12:51:08Z</time><name>PT5891</name></trkpt>
<trkpt lat="53.199653" lon="-1.990322"><ele>346</ele><time>2020-08-19T12:51:09Z</time><name>PT5892</name></trkpt>
<trkpt lat="53.199644" lon="-1.990333"><ele>346</ele><time>2020-08-19T12:51:10Z</time><name>PT5893</name></trkpt>
<trkpt lat="53.199633" lon="-1.990345"><ele>346</ele><time>2020-08-19T12:51:11Z</time><name>PT5894</name></trkpt>
<trkpt lat="53.199621" lon="-1.990357"><ele>346</ele><time>2020-08-19T12:51:11Z</time><name>PT5895</name></trkpt>
<trkpt lat="53.199612" lon="-1.990368"><ele>345</ele><time>2020-08-19T12:51:13Z</time><name>PT5896</name></trkpt>
<trkpt lat="53.199602" lon="-1.990375"><ele>345</ele><time>2020-08-19T12:51:14Z</time><name>PT5897</name></trkpt>
<trkpt lat="53.199593" lon="-1.990385"><ele>344</ele><time>2020-08-19T12:51:14Z</time><name>PT5898</name></trkpt>
<trkpt lat="53.199587" lon="-1.990401"><ele>344</ele><time>2020-08-19T12:51:16Z</time><name>PT5899</name></trkpt>
<trkpt lat="53.199580" lon="-1.990417"><ele>344</ele><time>2020-08-19T12:51:17Z</time><name>PT5900</name></trkpt>
<trkpt lat="53.199571" lon="-1.990431"><ele>344</ele><time>2020-08-19T12:51:17Z</time><name>PT5901</name></trkpt>
<trkpt lat="53.199561" lon="-1.990446"><ele>343</ele><time>2020-08-19T12:51:19Z</time><name>PT5902</name></trkpt>
<trkpt lat="53.199554" lon="-1.990464"><ele>343</ele><time>2020-08-19T12:51:20Z</time><name>PT5903</name></trkpt>
<trkpt lat="53.199549" lon="-1.990478"><ele>343</ele><time>2020-08-19T12:51:20Z</time><name>PT5904</name></trkpt>
<trkpt lat="53.199542" lon="-1.990493"><ele>343</ele><time>2020-08-19T12:51:22Z</time><name>PT5905</name></trkpt>
<trkpt lat="53.199535" lon="-1.990509"><ele>342</ele><time>2020-08-19T12:51:23Z</time><name>PT5906</name></trkpt>
<trkpt lat="53.199528" lon="-1.990522"><ele>342</ele><time>2020-08-19T12:51:23Z</time><name>PT5907</name></trkpt>
<trkpt lat="53.199520" lon="-1.990533"><ele>342</ele><time>2020-08-19T12:51:25Z</time><name>PT5908</name></trkpt>
<trkpt lat="53.199511" lon="-1.990544"><ele>342</ele><time>2020-08-19T12:51:26Z</time><name>PT5909</name></trkpt>
<trkpt lat="53.199501" lon="-1.990558"><ele>341</ele><time>2020-08-19T12:51:26Z</time><name>PT5910</name></trkpt>
<trkpt lat="53.199494" lon="-1.990567"><ele>341</ele><time>2020-08-19T12:51:28Z</time><name>PT5911</name></trkpt>
<trkpt lat="53.199485" lon="-1.990579"><ele>341</ele><time>2020-08-19T12:51:29Z</time><name>PT5912</name></trkpt>
<trkpt lat="53.199476" lon="-1.990593"><ele>340</ele><time>2020-08-19T12:51:29Z</time><name>PT5913</name></trkpt>
<trkpt lat="53.199471" lon="-1.990606"><ele>340</ele><time>2020-08-19T12:51:31Z</time><name>PT5914</name></trkpt>
<trkpt lat="53.199463" lon="-1.990616"><ele>340</ele><time>2020-08-19T12:51:32Z</time><name>PT5915</name></trkpt>
<trkpt lat="53.199452" lon="-1.990625"><ele>341</ele><time>2020-08-19T12:51:32Z</time><name>PT5916</name></trkpt>
<trkpt lat="53.199440" lon="-1.990640"><ele>340</ele><time>2020-08-19T12:51:34Z</time><name>PT5917</name></trkpt>
<trkpt lat="53.199430" lon="-1.990652"><ele>339</ele><time>2020-08-19T12:51:35Z</time><name>PT5918</name></trkpt>
<trkpt lat="53.199424" lon="-1.990663"><ele>339</ele><time>2020-08-19T12:51:35Z</time><name>PT5919</name></trkpt>
<trkpt lat="53.199418" lon="-1.990675"><ele>338</ele><time>2020-08-19T12:51:37Z</time><name>PT5920</name></trkpt>
<trkpt lat="53.199413" lon="-1.990691"><ele>338</ele><time>2020-08-19T12:51:38Z</time><name>PT5921</name></trkpt>
<trkpt lat="53.199404" lon="-1.990706"><ele>337</ele><time>2020-08-19T12:51:38Z</time><name>PT5922</name></trkpt>
<trkpt lat="53.199398" lon="-1.990720"><ele>337</ele><time>2020-08-19T12:51:40Z</time><name>PT5923</name></trkpt>
<trkpt lat="53.199391" lon="-1.990733"><ele>337</ele><time>2020-08-19T12:51:41Z</time><name>PT5924</name></trkpt>
<trkpt lat="53.199382" lon="-1.990748"><ele>336</ele><time>2020-08-19T12:51:41Z</time><name>PT5925</name></trkpt>
<trkpt lat="53.199372" lon="-1.990758"><ele>336</ele><time>2020-08-19T12:51:43Z</time><name>PT5926</name></trkpt>
<trkpt lat="53.199365" lon="-1.990767"><ele>336</ele><time>2020-08-19T12:51:44Z</time><name>PT5927</name></trkpt>
<trkpt lat="53.199362" lon="-1.990780"><ele>336</ele><time>2020-08-19T12:51:44Z</time><name>PT5928</name></trkpt>
<trkpt lat="53.199354" lon="-1.990794"><ele>335</ele><time>2020-08-19T12:51:46Z</time><name>PT5929</name></trkpt>
<trkpt lat="53.199352" lon="-1.990805"><ele>334</ele><time>2020-08-19T12:51:47Z</time><name>PT5930</name></trkpt>
<trkpt lat="53.199343" lon="-1.990812"><ele>334</ele><time>2020-08-19T12:51:47Z</time><name>PT5931</name></trkpt>
<trkpt lat="53.199335" lon="-1.990823"><ele>333</ele><time>2020-08-19T12:51:49Z</time><name>PT5932</name></trkpt>
<trkpt lat="53.199327" lon="-1.990833"><ele>333</ele><time>2020-08-19T12:51:50Z</time><name>PT5933</name></trkpt>
<trkpt lat="53.199317" lon="-1.990848"><ele>332</ele><time>2020-08-19T12:51:50Z</time><name>PT5934</name></trkpt>
<trkpt lat="53.199310" lon="-1.990864"><ele>332</ele><time>2020-08-19T12:51:52Z</time><name>PT5935</name></trkpt>
<trkpt lat="53.199303" lon="-1.990877"><ele>332</ele><time>2020-08-19T12:51:53Z</time><name>PT5936</name></trkpt>
<trkpt lat="53.199296" lon="-1.990892"><ele>332</ele><time>2020-08-19T12:51:53Z</time><name>PT5937</name></trkpt>
<trkpt lat="53.199289" lon="-1.990910"><ele>332</ele><time>2020-08-19T12:51:55Z</time><name>PT5938</name></trkpt>
<trkpt lat="53.199282" lon="-1.990932"><ele>331</ele><time>2020-08-19T12:51:56Z</time><name>PT5939</name></trkpt>
<trkpt lat="53.199275" lon="-1.990949"><ele>332</ele><time>2020-08-19T12:51:56Z</time><name>PT5940</name></trkpt>
<trkpt lat="53.199268" lon="-1.990968"><ele>332</ele><time>2020-08-19T12:51:58Z</time><name>PT5941</name></trkpt>
<trkpt lat="53.199259" lon="-1.990989"><ele>331</ele><time>2020-08-19T12:51:59Z</time><name>PT5942</name></trkpt>
<trkpt lat="53.199249" lon="-1.991006"><ele>331</ele><time>2020-08-19T12:51:59Z</time><name>PT5943</name></trkpt>
<trkpt lat="53.199241" lon="-1.991022"><ele>331</ele><time>2020-08-19T12:52:01Z</time><name>PT5944</name></trkpt>
<trkpt lat="53.199233" lon="-1.991040"><ele>331</ele><time>2020-08-19T12:52:02Z</time><name>PT5945</name></trkpt>
<trkpt lat="53.199226" lon="-1.991057"><ele>331</ele><time>2020-08-19T12:52:02Z</time><name>PT5946</name></trkpt>
<trkpt lat="53.199218" lon="-1.991080"><ele>330</ele><time>2020-08-19T12:52:04Z</time><name>PT5947</name></trkpt>
<trkpt lat="53.199208" lon="-1.991095"><ele>330</ele><time>2020-08-19T12:52:05Z</time><name>PT5948</name></trkpt>
<trkpt lat="53.199197" lon="-1.991112"><ele>330</ele><time>2020-08-19T12:52:05Z</time><name>PT5949</name></trkpt>
<trkpt lat="53.199190" lon="-1.991129"><ele>329</ele><time>2020-08-19T12:52:07Z</time><name>PT5950</name></trkpt>
<trkpt lat="53.199182" lon="-1.991148"><ele>330</ele><time>2020-08-19T12:52:08Z</time><name>PT5951</name></trkpt>
<trkpt lat="53.199173" lon="-1.991167"><ele>330</ele><time>2020-08-19T12:52:08Z</time><name>PT5952</name></trkpt>
<trkpt lat="53.199164" lon="-1.991186"><ele>329</ele><time>2020-08-19T12:52:10Z</time><name>PT5953</name></trkpt>
<trkpt lat="53.199157" lon="-1.991203"><ele>329</ele><time>2020-08-19T12:52:11Z</time><name>PT5954</name></trkpt>
<trkpt lat="53.199149" lon="-1.991219"><ele>328</ele><time>2020-08-19T12:52:11Z</time><name>PT5955</name></trkpt>
<trkpt lat="53.199140" lon="-1.991237"><ele>328</ele><time>2020-08-19T12:52:13Z</time><name>PT5956</name></trkpt>
<trkpt lat="53.199131" lon="-1.991255"><ele>328</ele><time>2020-08-19T12:52:14Z</time><name>PT5957</name></trkpt>
<trkpt lat="53.199124" lon="-1.991272"><ele>328</ele><time>2020-08-19T12:52:14Z</time><name>PT5958</name></trkpt>
<trkpt lat="53.199117" lon="-1.991292"><ele>328</ele><time>2020-08-19T12:52:16Z</time><name>PT5959</name></trkpt>
<trkpt lat="53.199111" lon="-1.991308"><ele>328</ele><time>2020-08-19T12:52:17Z</time><name>PT5960</name></trkpt>
<trkpt lat="53.199107" lon="-1.991323"><ele>328</ele><time>2020-08-19T12:52:17Z</time><name>PT5961</name></trkpt>
<trkpt lat="53.199099" lon="-1.991342"><ele>327</ele><time>2020-08-19T12:52:19Z</time><name>PT5962</name></trkpt>
<trkpt lat="53.199089" lon="-1.991358"><ele>327</ele><time>2020-08-19T12:52:20Z</time><name>PT5963</name></trkpt>
<trkpt lat="53.199081" lon="-1.991371"><ele>327</ele><time>2020-08-19T12:52:20Z</time><name>PT5964</name></trkpt>
<trkpt lat="53.199075" lon="-1.991382"><ele>327</ele><time>2020-08-19T12:52:22Z</time><name>PT5965</name></trkpt>
<trkpt lat="53.199065" lon="-1.991394"><ele>327</ele><time>2020-08-19T12:52:23Z</time><name>PT5966</name></trkpt>
<trkpt lat="53.199058" lon="-1.991407"><ele>327</ele><time>2020-08-19T12:52:23Z</time><name>PT5967</name></trkpt>
<trkpt lat="53.199048" lon="-1.991420"><ele>327</ele><time>2020-08-19T12:52:25Z</time><name>PT5968</name></trkpt>
<trkpt lat="53.199039" lon="-1.991431"><ele>326</ele><time>2020-08-19T12:52:26Z</time><name>PT5969</name></trkpt>
<trkpt lat="53.199032" lon="-1.991440"><ele>326</ele><time>2020-08-19T12:52:26Z</time><name>PT5970</name></trkpt>
<trkpt lat="53.199029" lon="-1.991449"><ele>326</ele><time>2020-08-19T12:52:28Z</time><name>PT5971</name></trkpt>
<trkpt lat="53.199025" lon="-1.991458"><ele>325</ele><time>2020-08-19T12:52:29Z</time><name>PT5972</name></trkpt>
<trkpt lat="53.199021" lon="-1.991463"><ele>325</ele><time>2020-08-19T12:52:29Z</time><name>PT5973</name></trkpt>
<trkpt lat="53.199017" lon="-1.991464"><ele>325</ele><time>2020-08-19T12:52:31Z</time><name>PT5974</name></trkpt>
<trkpt lat="53.199012" lon="-1.991467"><ele>325</ele><time>2020-08-19T12:52:32Z</time><name>PT5975</name></trkpt>
<trkpt lat="53.199008" lon="-1.991473"><ele>326</ele><time>2020-08-19T12:52:33Z</time><name>PT5976</name></trkpt>
<trkpt lat="53.198998" lon="-1.991482"><ele>326</ele><time>2020-08-19T12:52:34Z</time><name>PT5977</name></trkpt>
<trkpt lat="53.198986" lon="-1.991495"><ele>326</ele><time>2020-08-19T12:52:35Z</time><name>PT5978</name></trkpt>
<trkpt lat="53.198974" lon="-1.991509"><ele>326</ele><time>2020-08-19T12:52:35Z</time><name>PT5979</name></trkpt>
<trkpt lat="53.198963" lon="-1.991523"><ele>326</ele><time>2020-08-19T12:52:37Z</time><name>PT5980</name></trkpt>
<trkpt lat="53.198954" lon="-1.991537"><ele>326</ele><time>2020-08-19T12:52:38Z</time><name>PT5981</name></trkpt>
<trkpt lat="53.198945" lon="-1.991554"><ele>326</ele><time>2020-08-19T12:52:38Z</time><name>PT5982</name></trkpt>
<trkpt lat="53.198935" lon="-1.991570"><ele>326</ele><time>2020-08-19T12:52:40Z</time><name>PT5983</name></trkpt>
<trkpt lat="53.198924" lon="-1.991588"><ele>327</ele><time>2020-08-19T12:52:41Z</time><name>PT5984</name></trkpt>
<trkpt lat="53.198915" lon="-1.991603"><ele>326</ele><time>2020-08-19T12:52:41Z</time><name>PT5985</name></trkpt>
<trkpt lat="53.198906" lon="-1.991617"><ele>326</ele><time>2020-08-19T12:52:43Z</time><name>PT5986</name></trkpt>
<trkpt lat="53.198899" lon="-1.991632"><ele>326</ele><time>2020-08-19T12:52:44Z</time><name>PT5987</name></trkpt>
<trkpt lat="53.198888" lon="-1.991649"><ele>327</ele><time>2020-08-19T12:52:44Z</time><name>PT5988</name></trkpt>
<trkpt lat="53.198881" lon="-1.991667"><ele>327</ele><time>2020-08-19T12:52:46Z</time><name>PT5989</name></trkpt>
<trkpt lat="53.198874" lon="-1.991684"><ele>327</ele><time>2020-08-19T12:52:47Z</time><name>PT5990</name></trkpt>
<trkpt lat="53.198865" lon="-1.991700"><ele>327</ele><time>2020-08-19T12:52:47Z</time><name>PT5991</name></trkpt>
<trkpt lat="53.198858" lon="-1.991713"><ele>327</ele><time>2020-08-19T12:52:49Z</time><name>PT5992</name></trkpt>
<trkpt lat="53.198850" lon="-1.991729"><ele>327</ele><time>2020-08-19T12:52:50Z</time><name>PT5993</name></trkpt>
<trkpt lat="53.198842" lon="-1.991746"><ele>327</ele><time>2020-08-19T12:52:50Z</time><name>PT5994</name></trkpt>
<trkpt lat="53.198835" lon="-1.991763"><ele>327</ele><time>2020-08-19T12:52:52Z</time><name>PT5995</name></trkpt>
<trkpt lat="53.198826" lon="-1.991781"><ele>327</ele><time>2020-08-19T12:52:53Z</time><name>PT5996</name></trkpt>
<trkpt lat="53.198818" lon="-1.991797"><ele>326</ele><time>2020-08-19T12:52:53Z</time><name>PT5997</name></trkpt>
<trkpt lat="53.198812" lon="-1.991811"><ele>326</ele><time>2020-08-19T12:52:55Z</time><name>PT5998</name></trkpt>
<trkpt lat="53.198804" lon="-1.991824"><ele>326</ele><time>2020-08-19T12:52:56Z</time><name>PT5999</name></trkpt>
<trkpt lat="53.198796" lon="-1.991839"><ele>326</ele><time>2020-08-19T12:52:56Z</time><name>PT6000</name></trkpt>
<trkpt lat="53.198788" lon="-1.991854"><ele>326</ele><time>2020-08-19T12:52:58Z</time><name>PT6001</name></trkpt>
<trkpt lat="53.198780" lon="-1.991869"><ele>325</ele><time>2020-08-19T12:52:59Z</time><name>PT6002</name></trkpt>
<trkpt lat="53.198771" lon="-1.991887"><ele>325</ele><time>2020-08-19T12:52:59Z</time><name>PT6003</name></trkpt>
<trkpt lat="53.198763" lon="-1.991906"><ele>325</ele><time>2020-08-19T12:53:01Z</time><name>PT6004</name></trkpt>
<trkpt lat="53.198755" lon="-1.991924"><ele>325</ele><time>2020-08-19T12:53:02Z</time><name>PT6005</name></trkpt>
<trkpt lat="53.198746" lon="-1.991943"><ele>325</ele><time>2020-08-19T12:53:02Z</time><name>PT6006</name></trkpt>
<trkpt lat="53.198738" lon="-1.991959"><ele>325</ele><time>2020-08-19T12:53:04Z</time><name>PT6007</name></trkpt>
<trkpt lat="53.198728" lon="-1.991976"><ele>324</ele><time>2020-08-19T12:53:05Z</time><name>PT6008</name></trkpt>
<trkpt lat="53.198717" lon="-1.991993"><ele>324</ele><time>2020-08-19T12:53:05Z</time><name>PT6009</name></trkpt>
<trkpt lat="53.198709" lon="-1.992009"><ele>324</ele><time>2020-08-19T12:53:07Z</time><name>PT6010</name></trkpt>
<trkpt lat="53.198702" lon="-1.992028"><ele>325</ele><time>2020-08-19T12:53:08Z</time><name>PT6011</name></trkpt>
<trkpt lat="53.198694" lon="-1.992048"><ele>325</ele><time>2020-08-19T12:53:08Z</time><name>PT6012</name></trkpt>
<trkpt lat="53.198686" lon="-1.992066"><ele>325</ele><time>2020-08-19T12:53:10Z</time><name>PT6013</name></trkpt>
<trkpt lat="53.198676" lon="-1.992084"><ele>326</ele><time>2020-08-19T12:53:11Z</time><name>PT6014</name></trkpt>
<trkpt lat="53.198664" lon="-1.992099"><ele>326</ele><time>2020-08-19T12:53:11Z</time><name>PT6015</name></trkpt>
<trkpt lat="53.198655" lon="-1.992118"><ele>325</ele><time>2020-08-19T12:53:13Z</time><name>PT6016</name></trkpt>
<trkpt lat="53.198648" lon="-1.992136"><ele>325</ele><time>2020-08-19T12:53:14Z</time><name>PT6017</name></trkpt>
<trkpt lat="53.198642" lon="-1.992154"><ele>325</ele><time>2020-08-19T12:53:14Z</time><name>PT6018</name></trkpt>
<trkpt lat="53.198635" lon="-1.992170"><ele>325</ele><time>2020-08-19T12:53:16Z</time><name>PT6019</name></trkpt>
<trkpt lat="53.198628" lon="-1.992186"><ele>325</ele><time>2020-08-19T12:53:17Z</time><name>PT6020</name></trkpt>
<trkpt lat="53.198619" lon="-1.992204"><ele>325</ele><time>2020-08-19T12:53:17Z</time><name>PT6021</name></trkpt>
<trkpt lat="53.198610" lon="-1.992223"><ele>325</ele><time>2020-08-19T12:53:19Z</time><name>PT6022</name></trkpt>
<trkpt lat="53.198603" lon="-1.992240"><ele>325</ele><time>2020-08-19T12:53:20Z</time><name>PT6023</name></trkpt>
<trkpt lat="53.198594" lon="-1.992256"><ele>325</ele><time>2020-08-19T12:53:20Z</time><name>PT6024</name></trkpt>
<trkpt lat="53.198586" lon="-1.992268"><ele>325</ele><time>2020-08-19T12:53:22Z</time><name>PT6025</name></trkpt>
<trkpt lat="53.198578" lon="-1.992281"><ele>326</ele><time>2020-08-19T12:53:23Z</time><name>PT6026</name></trkpt>
<trkpt lat="53.198570" lon="-1.992292"><ele>326</ele><time>2020-08-19T12:53:23Z</time><name>PT6027</name></trkpt>
<trkpt lat="53.198559" lon="-1.992308"><ele>325</ele><time>2020-08-19T12:53:25Z</time><name>PT6028</name></trkpt>
<trkpt lat="53.198531" lon="-1.992369"><ele>326</ele><time>2020-08-19T12:53:29Z</time><name>PT6029</name></trkpt>
<trkpt lat="53.198504" lon="-1.992423"><ele>325</ele><time>2020-08-19T12:53:32Z</time><name>PT6030</name></trkpt>
<trkpt lat="53.198474" lon="-1.992496"><ele>325</ele><time>2020-08-19T12:53:35Z</time><name>PT6031</name></trkpt>
<trkpt lat="53.198452" lon="-1.992554"><ele>325</ele><time>2020-08-19T12:53:38Z</time><name>PT6032</name></trkpt>
<trkpt lat="53.198430" lon="-1.992608"><ele>325</ele><time>2020-08-19T12:53:41Z</time><name>PT6033</name></trkpt>
<trkpt lat="53.198399" lon="-1.992687"><ele>325</ele><time>2020-08-19T12:53:46Z</time><name>PT6034</name></trkpt>
<trkpt lat="53.198379" lon="-1.992744"><ele>324</ele><time>2020-08-19T12:53:49Z</time><name>PT6035</name></trkpt>
<trkpt lat="53.198361" lon="-1.992800"><ele>325</ele><time>2020-08-19T12:53:52Z</time><name>PT6036</name></trkpt>
<trkpt lat="53.198340" lon="-1.992855"><ele>324</ele><time>2020-08-19T12:53:55Z</time><name>PT6037</name></trkpt>
<trkpt lat="53.198309" lon="-1.992929"><ele>323</ele><time>2020-08-19T12:53:59Z</time><name>PT6038</name></trkpt>
<trkpt lat="53.198283" lon="-1.992980"><ele>323</ele><time>2020-08-19T12:54:02Z</time><name>PT6039</name></trkpt>
<trkpt lat="53.198254" lon="-1.993056"><ele>323</ele><time>2020-08-19T12:54:05Z</time><name>PT6040</name></trkpt>
<trkpt lat="53.198228" lon="-1.993111"><ele>323</ele><time>2020-08-19T12:54:08Z</time><name>PT6041</name></trkpt>
<trkpt lat="53.198198" lon="-1.993178"><ele>322</ele><time>2020-08-19T12:54:13Z</time><name>PT6042</name></trkpt>
<trkpt lat="53.198166" lon="-1.993229"><ele>322</ele><time>2020-08-19T12:54:16Z</time><name>PT6043</name></trkpt>
<trkpt lat="53.198127" lon="-1.993294"><ele>323</ele><time>2020-08-19T12:54:20Z</time><name>PT6044</name></trkpt>
<trkpt lat="53.198096" lon="-1.993346"><ele>323</ele><time>2020-08-19T12:54:23Z</time><name>PT6045</name></trkpt>
<trkpt lat="53.198065" lon="-1.993411"><ele>323</ele><time>2020-08-19T12:54:26Z</time><name>PT6046</name></trkpt>
<trkpt lat="53.198045" lon="-1.993459"><ele>323</ele><time>2020-08-19T12:54:29Z</time><name>PT6047</name></trkpt>
<trkpt lat="53.198018" lon="-1.993514"><ele>321</ele><time>2020-08-19T12:54:34Z</time><name>PT6048</name></trkpt>
<trkpt lat="53.197987" lon="-1.993556"><ele>322</ele><time>2020-08-19T12:54:38Z</time><name>PT6049</name></trkpt>
<trkpt lat="53.197965" lon="-1.993607"><ele>322</ele><time>2020-08-19T12:54:41Z</time><name>PT6050</name></trkpt>
<trkpt lat="53.197931" lon="-1.993677"><ele>322</ele><time>2020-08-19T12:54:44Z</time><name>PT6051</name></trkpt>
<trkpt lat="53.197900" lon="-1.993746"><ele>322</ele><time>2020-08-19T12:54:49Z</time><name>PT6052</name></trkpt>
<trkpt lat="53.197873" lon="-1.993796"><ele>321</ele><time>2020-08-19T12:54:52Z</time><name>PT6053</name></trkpt>
<trkpt lat="53.197845" lon="-1.993842"><ele>321</ele><time>2020-08-19T12:54:55Z</time><name>PT6054</name></trkpt>
<trkpt lat="53.197809" lon="-1.993916"><ele>321</ele><time>2020-08-19T12:54:59Z</time><name>PT6055</name></trkpt>
<trkpt lat="53.197774" lon="-1.993981"><ele>320</ele><time>2020-08-19T12:55:02Z</time><name>PT6056</name></trkpt>
<trkpt lat="53.197736" lon="-1.994046"><ele>319</ele><time>2020-08-19T12:55:07Z</time><name>PT6057</name></trkpt>
<trkpt lat="53.197697" lon="-1.994110"><ele>319</ele><time>2020-08-19T12:55:11Z</time><name>PT6058</name></trkpt>
<trkpt lat="53.197663" lon="-1.994157"><ele>319</ele><time>2020-08-19T12:55:14Z</time><name>PT6059</name></trkpt>
<trkpt lat="53.197625" lon="-1.994220"><ele>319</ele><time>2020-08-19T12:55:17Z</time><name>PT6060</name></trkpt>
<trkpt lat="53.197593" lon="-1.994262"><ele>319</ele><time>2020-08-19T12:55:20Z</time><name>PT6061</name></trkpt>
<trkpt lat="53.197566" lon="-1.994312"><ele>318</ele><time>2020-08-19T12:55:23Z</time><name>PT6062</name></trkpt>
<trkpt lat="53.197529" lon="-1.994372"><ele>318</ele><time>2020-08-19T12:55:28Z</time><name>PT6063</name></trkpt>
<trkpt lat="53.197494" lon="-1.994415"><ele>317</ele><time>2020-08-19T12:55:31Z</time><name>PT6064</name></trkpt>
<trkpt lat="53.197460" lon="-1.994476"><ele>317</ele><time>2020-08-19T12:55:35Z</time><name>PT6065</name></trkpt>
<trkpt lat="53.197424" lon="-1.994519"><ele>318</ele><time>2020-08-19T12:55:38Z</time><name>PT6066</name></trkpt>
<trkpt lat="53.197386" lon="-1.994579"><ele>318</ele><time>2020-08-19T12:55:41Z</time><name>PT6067</name></trkpt>
<trkpt lat="53.197341" lon="-1.994639"><ele>318</ele><time>2020-08-19T12:55:46Z</time><name>PT6068</name></trkpt>
<trkpt lat="53.197318" lon="-1.994691"><ele>318</ele><time>2020-08-19T12:55:49Z</time><name>PT6069</name></trkpt>
<trkpt lat="53.197289" lon="-1.994737"><ele>317</ele><time>2020-08-19T12:55:52Z</time><name>PT6070</name></trkpt>
<trkpt lat="53.197244" lon="-1.994799"><ele>317</ele><time>2020-08-19T12:55:56Z</time><name>PT6071</name></trkpt>
<trkpt lat="53.197218" lon="-1.994850"><ele>316</ele><time>2020-08-19T12:55:59Z</time><name>PT6072</name></trkpt>
<trkpt lat="53.197188" lon="-1.994895"><ele>317</ele><time>2020-08-19T12:56:02Z</time><name>PT6073</name></trkpt>
<trkpt lat="53.197153" lon="-1.994959"><ele>317</ele><time>2020-08-19T12:56:05Z</time><name>PT6074</name></trkpt>
<trkpt lat="53.197111" lon="-1.995029"><ele>317</ele><time>2020-08-19T12:56:10Z</time><name>PT6075</name></trkpt>
<trkpt lat="53.197083" lon="-1.995084"><ele>317</ele><time>2020-08-19T12:56:13Z</time><name>PT6076</name></trkpt>
<trkpt lat="53.197048" lon="-1.995153"><ele>315</ele><time>2020-08-19T12:56:17Z</time><name>PT6077</name></trkpt>
<trkpt lat="53.197015" lon="-1.995212"><ele>315</ele><time>2020-08-19T12:56:20Z</time><name>PT6078</name></trkpt>
<trkpt lat="53.196985" lon="-1.995260"><ele>314</ele><time>2020-08-19T12:56:23Z</time><name>PT6079</name></trkpt>
<trkpt lat="53.196966" lon="-1.995314"><ele>313</ele><time>2020-08-19T12:56:26Z</time><name>PT6080</name></trkpt>
<trkpt lat="53.196940" lon="-1.995381"><ele>312</ele><time>2020-08-19T12:56:31Z</time><name>PT6081</name></trkpt>
<trkpt lat="53.196900" lon="-1.995442"><ele>311</ele><time>2020-08-19T12:56:35Z</time><name>PT6082</name></trkpt>
<trkpt lat="53.196866" lon="-1.995499"><ele>310</ele><time>2020-08-19T12:56:38Z</time><name>PT6083</name></trkpt>
<trkpt lat="53.196834" lon="-1.995538"><ele>310</ele><time>2020-08-19T12:56:41Z</time><name>PT6084</name></trkpt>
<trkpt lat="53.196795" lon="-1.995595"><ele>309</ele><time>2020-08-19T12:56:46Z</time><name>PT6085</name></trkpt>
<trkpt lat="53.196765" lon="-1.995646"><ele>308</ele><time>2020-08-19T12:56:49Z</time><name>PT6086</name></trkpt>
<trkpt lat="53.196747" lon="-1.995701"><ele>309</ele><time>2020-08-19T12:56:52Z</time><name>PT6087</name></trkpt>
<trkpt lat="53.196723" lon="-1.995753"><ele>308</ele><time>2020-08-19T12:56:55Z</time><name>PT6088</name></trkpt>
<trkpt lat="53.196703" lon="-1.995827"><ele>310</ele><time>2020-08-19T12:56:59Z</time><name>PT6089</name></trkpt>
<trkpt lat="53.196682" lon="-1.995880"><ele>310</ele><time>2020-08-19T12:57:02Z</time><name>PT6090</name></trkpt>
<trkpt lat="53.196645" lon="-1.995950"><ele>310</ele><time>2020-08-19T12:57:05Z</time><name>PT6091</name></trkpt>
<trkpt lat="53.196619" lon="-1.995999"><ele>310</ele><time>2020-08-19T12:57:08Z</time><name>PT6092</name></trkpt>
<trkpt lat="53.196581" lon="-1.996064"><ele>310</ele><time>2020-08-19T12:57:13Z</time><name>PT6093</name></trkpt>
<trkpt lat="53.196557" lon="-1.996110"><ele>310</ele><time>2020-08-19T12:57:16Z</time><name>PT6094</name></trkpt>
<trkpt lat="53.196526" lon="-1.996154"><ele>310</ele><time>2020-08-19T12:57:19Z</time><name>PT6095</name></trkpt>
<trkpt lat="53.196491" lon="-1.996214"><ele>311</ele><time>2020-08-19T12:57:23Z</time><name>PT6096</name></trkpt>
<trkpt lat="53.196466" lon="-1.996257"><ele>310</ele><time>2020-08-19T12:57:26Z</time><name>PT6097</name></trkpt>
<trkpt lat="53.196431" lon="-1.996309"><ele>310</ele><time>2020-08-19T12:57:29Z</time><name>PT6098</name></trkpt>
<trkpt lat="53.196400" lon="-1.996360"><ele>309</ele><time>2020-08-19T12:57:32Z</time><name>PT6099</name></trkpt>
<trkpt lat="53.196369" lon="-1.996425"><ele>309</ele><time>2020-08-19T12:57:37Z</time><name>PT6100</name></trkpt>
<trkpt lat="53.196335" lon="-1.996475"><ele>308</ele><time>2020-08-19T12:57:40Z</time><name>PT6101</name></trkpt>
<trkpt lat="53.196301" lon="-1.996555"><ele>309</ele><time>2020-08-19T12:57:44Z</time><name>PT6102</name></trkpt>
<trkpt lat="53.196278" lon="-1.996591"><ele>308</ele><time>2020-08-19T12:57:46Z</time><name>PT6103</name></trkpt>
<trkpt lat="53.196267" lon="-1.996609"><ele>309</ele><time>2020-08-19T12:57:47Z</time><name>PT6104</name></trkpt>
<trkpt lat="53.196256" lon="-1.996623"><ele>309</ele><time>2020-08-19T12:57:47Z</time><name>PT6105</name></trkpt>
<trkpt lat="53.196245" lon="-1.996636"><ele>309</ele><time>2020-08-19T12:57:49Z</time><name>PT6106</name></trkpt>
<trkpt lat="53.196233" lon="-1.996649"><ele>309</ele><time>2020-08-19T12:57:50Z</time><name>PT6107</name></trkpt>
<trkpt lat="53.196223" lon="-1.996664"><ele>309</ele><time>2020-08-19T12:57:50Z</time><name>PT6108</name></trkpt>
<trkpt lat="53.196212" lon="-1.996681"><ele>309</ele><time>2020-08-19T12:57:52Z</time><name>PT6109</name></trkpt>
<trkpt lat="53.196201" lon="-1.996696"><ele>309</ele><time>2020-08-19T12:57:53Z</time><name>PT6110</name></trkpt>
<trkpt lat="53.196192" lon="-1.996709"><ele>309</ele><time>2020-08-19T12:57:53Z</time><name>PT6111</name></trkpt>
<trkpt lat="53.196182" lon="-1.996718"><ele>309</ele><time>2020-08-19T12:57:55Z</time><name>PT6112</name></trkpt>
<trkpt lat="53.196171" lon="-1.996730"><ele>309</ele><time>2020-08-19T12:57:56Z</time><name>PT6113</name></trkpt>
<trkpt lat="53.196161" lon="-1.996744"><ele>309</ele><time>2020-08-19T12:57:56Z</time><name>PT6114</name></trkpt>
<trkpt lat="53.196151" lon="-1.996758"><ele>309</ele><time>2020-08-19T12:57:58Z</time><name>PT6115</name></trkpt>
<trkpt lat="53.196130" lon="-1.996782"><ele>308</ele><time>2020-08-19T12:57:59Z</time><name>PT6116</name></trkpt>
<trkpt lat="53.196117" lon="-1.996794"><ele>308</ele><time>2020-08-19T12:58:01Z</time><name>PT6117</name></trkpt>
<trkpt lat="53.196106" lon="-1.996806"><ele>308</ele><time>2020-08-19T12:58:02Z</time><name>PT6118</name></trkpt>
<trkpt lat="53.196098" lon="-1.996820"><ele>308</ele><time>2020-08-19T12:58:02Z</time><name>PT6119</name></trkpt>
<trkpt lat="53.196090" lon="-1.996835"><ele>308</ele><time>2020-08-19T12:58:04Z</time><name>PT6120</name></trkpt>
<trkpt lat="53.196081" lon="-1.996845"><ele>308</ele><time>2020-08-19T12:58:05Z</time><name>PT6121</name></trkpt>
<trkpt lat="53.196071" lon="-1.996857"><ele>308</ele><time>2020-08-19T12:58:05Z</time><name>PT6122</name></trkpt>
<trkpt lat="53.196063" lon="-1.996869"><ele>308</ele><time>2020-08-19T12:58:07Z</time><name>PT6123</name></trkpt>
<trkpt lat="53.196056" lon="-1.996880"><ele>308</ele><time>2020-08-19T12:58:08Z</time><name>PT6124</name></trkpt>
<trkpt lat="53.196047" lon="-1.996890"><ele>308</ele><time>2020-08-19T12:58:08Z</time><name>PT6125</name></trkpt>
<trkpt lat="53.196042" lon="-1.996902"><ele>308</ele><time>2020-08-19T12:58:10Z</time><name>PT6126</name></trkpt>
<trkpt lat="53.196036" lon="-1.996913"><ele>308</ele><time>2020-08-19T12:58:11Z</time><name>PT6127</name></trkpt>
<trkpt lat="53.196031" lon="-1.996918"><ele>307</ele><time>2020-08-19T12:58:11Z</time><name>PT6128</name></trkpt>
<trkpt lat="53.196026" lon="-1.996920"><ele>307</ele><time>2020-08-19T12:58:13Z</time><name>PT6129</name></trkpt>
<trkpt lat="53.196022" lon="-1.996917"><ele>307</ele><time>2020-08-19T12:58:14Z</time><name>PT6130</name></trkpt>
<trkpt lat="53.196017" lon="-1.996917"><ele>307</ele><time>2020-08-19T12:58:14Z</time><name>PT6131</name></trkpt>
<trkpt lat="53.196012" lon="-1.996922"><ele>307</ele><time>2020-08-19T12:58:16Z</time><name>PT6132</name></trkpt>
<trkpt lat="53.196008" lon="-1.996928"><ele>307</ele><time>2020-08-19T12:58:17Z</time><name>PT6133</name></trkpt>
<trkpt lat="53.196002" lon="-1.996937"><ele>307</ele><time>2020-08-19T12:58:18Z</time><name>PT6134</name></trkpt>
<trkpt lat="53.195993" lon="-1.996952"><ele>307</ele><time>2020-08-19T12:58:19Z</time><name>PT6135</name></trkpt>
<trkpt lat="53.195982" lon="-1.996970"><ele>307</ele><time>2020-08-19T12:58:20Z</time><name>PT6136</name></trkpt>
<trkpt lat="53.195972" lon="-1.996984"><ele>307</ele><time>2020-08-19T12:58:21Z</time><name>PT6137</name></trkpt>
<trkpt lat="53.195962" lon="-1.997002"><ele>307</ele><time>2020-08-19T12:58:22Z</time><name>PT6138</name></trkpt>
<trkpt lat="53.195952" lon="-1.997018"><ele>307</ele><time>2020-08-19T12:58:23Z</time><name>PT6139</name></trkpt>
<trkpt lat="53.195942" lon="-1.997035"><ele>306</ele><time>2020-08-19T12:58:23Z</time><name>PT6140</name></trkpt>
<trkpt lat="53.195935" lon="-1.997051"><ele>306</ele><time>2020-08-19T12:58:25Z</time><name>PT6141</name></trkpt>
<trkpt lat="53.195926" lon="-1.997068"><ele>306</ele><time>2020-08-19T12:58:26Z</time><name>PT6142</name></trkpt>
<trkpt lat="53.195917" lon="-1.997085"><ele>306</ele><time>2020-08-19T12:58:26Z</time><name>PT6143</name></trkpt>
<trkpt lat="53.195908" lon="-1.997103"><ele>306</ele><time>2020-08-19T12:58:28Z</time><name>PT6144</name></trkpt>
<trkpt lat="53.195897" lon="-1.997119"><ele>306</ele><time>2020-08-19T12:58:29Z</time><name>PT6145</name></trkpt>
<trkpt lat="53.195886" lon="-1.997136"><ele>306</ele><time>2020-08-19T12:58:29Z</time><name>PT6146</name></trkpt>
<trkpt lat="53.195875" lon="-1.997151"><ele>306</ele><time>2020-08-19T12:58:31Z</time><name>PT6147</name></trkpt>
<trkpt lat="53.195865" lon="-1.997166"><ele>306</ele><time>2020-08-19T12:58:32Z</time><name>PT6148</name></trkpt>
<trkpt lat="53.195853" lon="-1.997182"><ele>306</ele><time>2020-08-19T12:58:32Z</time><name>PT6149</name></trkpt>
<trkpt lat="53.195843" lon="-1.997196"><ele>306</ele><time>2020-08-19T12:58:34Z</time><name>PT6150</name></trkpt>
<trkpt lat="53.195833" lon="-1.997212"><ele>306</ele><time>2020-08-19T12:58:35Z</time><name>PT6151</name></trkpt>
<trkpt lat="53.195822" lon="-1.997227"><ele>306</ele><time>2020-08-19T12:58:35Z</time><name>PT6152</name></trkpt>
<trkpt lat="53.195812" lon="-1.997243"><ele>306</ele><time>2020-08-19T12:58:37Z</time><name>PT6153</name></trkpt>
<trkpt lat="53.195802" lon="-1.997258"><ele>306</ele><time>2020-08-19T12:58:38Z</time><name>PT6154</name></trkpt>
<trkpt lat="53.195793" lon="-1.997274"><ele>306</ele><time>2020-08-19T12:58:38Z</time><name>PT6155</name></trkpt>
<trkpt lat="53.195784" lon="-1.997292"><ele>306</ele><time>2020-08-19T12:58:40Z</time><name>PT6156</name></trkpt>
<trkpt lat="53.195772" lon="-1.997308"><ele>306</ele><time>2020-08-19T12:58:41Z</time><name>PT6157</name></trkpt>
<trkpt lat="53.195760" lon="-1.997321"><ele>306</ele><time>2020-08-19T12:58:41Z</time><name>PT6158</name></trkpt>
<trkpt lat="53.195748" lon="-1.997336"><ele>306</ele><time>2020-08-19T12:58:43Z</time><name>PT6159</name></trkpt>
<trkpt lat="53.195735" lon="-1.997351"><ele>306</ele><time>2020-08-19T12:58:44Z</time><name>PT6160</name></trkpt>
<trkpt lat="53.195725" lon="-1.997367"><ele>305</ele><time>2020-08-19T12:58:44Z</time><name>PT6161</name></trkpt>
<trkpt lat="53.195716" lon="-1.997383"><ele>305</ele><time>2020-08-19T12:58:46Z</time><name>PT6162</name></trkpt>
<trkpt lat="53.195707" lon="-1.997397"><ele>305</ele><time>2020-08-19T12:58:47Z</time><name>PT6163</name></trkpt>
<trkpt lat="53.195696" lon="-1.997412"><ele>305</ele><time>2020-08-19T12:58:47Z</time><name>PT6164</name></trkpt>
<trkpt lat="53.195689" lon="-1.997428"><ele>305</ele><time>2020-08-19T12:58:49Z</time><name>PT6165</name></trkpt>
<trkpt lat="53.195677" lon="-1.997446"><ele>305</ele><time>2020-08-19T12:58:50Z</time><name>PT6166</name></trkpt>
<trkpt lat="53.195663" lon="-1.997460"><ele>305</ele><time>2020-08-19T12:58:50Z</time><name>PT6167</name></trkpt>
<trkpt lat="53.195655" lon="-1.997477"><ele>305</ele><time>2020-08-19T12:58:52Z</time><name>PT6168</name></trkpt>
<trkpt lat="53.195645" lon="-1.997492"><ele>305</ele><time>2020-08-19T12:58:53Z</time><name>PT6169</name></trkpt>
<trkpt lat="53.195634" lon="-1.997509"><ele>305</ele><time>2020-08-19T12:58:53Z</time><name>PT6170</name></trkpt>
<trkpt lat="53.195623" lon="-1.997528"><ele>305</ele><time>2020-08-19T12:58:55Z</time><name>PT6171</name></trkpt>
<trkpt lat="53.195613" lon="-1.997543"><ele>305</ele><time>2020-08-19T12:58:56Z</time><name>PT6172</name></trkpt>
<trkpt lat="53.195602" lon="-1.997558"><ele>305</ele><time>2020-08-19T12:58:56Z</time><name>PT6173</name></trkpt>
<trkpt lat="53.195592" lon="-1.997578"><ele>304</ele><time>2020-08-19T12:58:58Z</time><name>PT6174</name></trkpt>
<trkpt lat="53.195582" lon="-1.997594"><ele>304</ele><time>2020-08-19T12:58:59Z</time><name>PT6175</name></trkpt>
<trkpt lat="53.195575" lon="-1.997604"><ele>304</ele><time>2020-08-19T12:58:59Z</time><name>PT6176</name></trkpt>
<trkpt lat="53.195567" lon="-1.997620"><ele>304</ele><time>2020-08-19T12:59:01Z</time><name>PT6177</name></trkpt>
<trkpt lat="53.195557" lon="-1.997637"><ele>304</ele><time>2020-08-19T12:59:02Z</time><name>PT6178</name></trkpt>
<trkpt lat="53.195548" lon="-1.997653"><ele>303</ele><time>2020-08-19T12:59:02Z</time><name>PT6179</name></trkpt>
<trkpt lat="53.195538" lon="-1.997661"><ele>304</ele><time>2020-08-19T12:59:04Z</time><name>PT6180</name></trkpt>
<trkpt lat="53.195527" lon="-1.997675"><ele>303</ele><time>2020-08-19T12:59:05Z</time><name>PT6181</name></trkpt>
<trkpt lat="53.195517" lon="-1.997695"><ele>303</ele><time>2020-08-19T12:59:05Z</time><name>PT6182</name></trkpt>
<trkpt lat="53.195508" lon="-1.997710"><ele>302</ele><time>2020-08-19T12:59:07Z</time><name>PT6183</name></trkpt>
<trkpt lat="53.195499" lon="-1.997725"><ele>302</ele><time>2020-08-19T12:59:08Z</time><name>PT6184</name></trkpt>
<trkpt lat="53.195489" lon="-1.997740"><ele>302</ele><time>2020-08-19T12:59:08Z</time><name>PT6185</name></trkpt>
<trkpt lat="53.195478" lon="-1.997754"><ele>302</ele><time>2020-08-19T12:59:10Z</time><name>PT6186</name></trkpt>
<trkpt lat="53.195467" lon="-1.997767"><ele>302</ele><time>2020-08-19T12:59:11Z</time><name>PT6187</name></trkpt>
<trkpt lat="53.195457" lon="-1.997781"><ele>302</ele><time>2020-08-19T12:59:11Z</time><name>PT6188</name></trkpt>
<trkpt lat="53.195443" lon="-1.997797"><ele>302</ele><time>2020-08-19T12:59:13Z</time><name>PT6189</name></trkpt>
<trkpt lat="53.195431" lon="-1.997814"><ele>302</ele><time>2020-08-19T12:59:14Z</time><name>PT6190</name></trkpt>
<trkpt lat="53.195424" lon="-1.997831"><ele>301</ele><time>2020-08-19T12:59:14Z</time><name>PT6191</name></trkpt>
<trkpt lat="53.195415" lon="-1.997848"><ele>301</ele><time>2020-08-19T12:59:16Z</time><name>PT6192</name></trkpt>
<trkpt lat="53.195407" lon="-1.997864"><ele>301</ele><time>2020-08-19T12:59:17Z</time><name>PT6193</name></trkpt>
<trkpt lat="53.195396" lon="-1.997878"><ele>301</ele><time>2020-08-19T12:59:17Z</time><name>PT6194</name></trkpt>
<trkpt lat="53.195386" lon="-1.997893"><ele>301</ele><time>2020-08-19T12:59:19Z</time><name>PT6195</name></trkpt>
<trkpt lat="53.195374" lon="-1.997908"><ele>301</ele><time>2020-08-19T12:59:20Z</time><name>PT6196</name></trkpt>
<trkpt lat="53.195360" lon="-1.997922"><ele>300</ele><time>2020-08-19T12:59:20Z</time><name>PT6197</name></trkpt>
<trkpt lat="53.195349" lon="-1.997935"><ele>300</ele><time>2020-08-19T12:59:22Z</time><name>PT6198</name></trkpt>
<trkpt lat="53.195337" lon="-1.997946"><ele>300</ele><time>2020-08-19T12:59:23Z</time><name>PT6199</name></trkpt>
<trkpt lat="53.195324" lon="-1.997955"><ele>300</ele><time>2020-08-19T12:59:23Z</time><name>PT6200</name></trkpt>
<trkpt lat="53.195312" lon="-1.997965"><ele>300</ele><time>2020-08-19T12:59:25Z</time><name>PT6201</name></trkpt>
<trkpt lat="53.195302" lon="-1.997977"><ele>300</ele><time>2020-08-19T12:59:26Z</time><name>PT6202</name></trkpt>
<trkpt lat="53.195291" lon="-1.997986"><ele>301</ele><time>2020-08-19T12:59:26Z</time><name>PT6203</name></trkpt>
<trkpt lat="53.195278" lon="-1.997998"><ele>300</ele><time>2020-08-19T12:59:28Z</time><name>PT6204</name></trkpt>
<trkpt lat="53.195266" lon="-1.998008"><ele>300</ele><time>2020-08-19T12:59:29Z</time><name>PT6205</name></trkpt>
<trkpt lat="53.195255" lon="-1.998014"><ele>300</ele><time>2020-08-19T12:59:29Z</time><name>PT6206</name></trkpt>
<trkpt lat="53.195242" lon="-1.998023"><ele>299</ele><time>2020-08-19T12:59:31Z</time><name>PT6207</name></trkpt>
<trkpt lat="53.195226" lon="-1.998031"><ele>300</ele><time>2020-08-19T12:59:32Z</time><name>PT6208</name></trkpt>
<trkpt lat="53.195216" lon="-1.998034"><ele>299</ele><time>2020-08-19T12:59:32Z</time><name>PT6209</name></trkpt>
<trkpt lat="53.195201" lon="-1.998038"><ele>299</ele><time>2020-08-19T12:59:34Z</time><name>PT6210</name></trkpt>
<trkpt lat="53.195189" lon="-1.998045"><ele>299</ele><time>2020-08-19T12:59:35Z</time><name>PT6211</name></trkpt>
<trkpt lat="53.195176" lon="-1.998050"><ele>299</ele><time>2020-08-19T12:59:35Z</time><name>PT6212</name></trkpt>
<trkpt lat="53.195163" lon="-1.998060"><ele>299</ele><time>2020-08-19T12:59:37Z</time><name>PT6213</name></trkpt>
<trkpt lat="53.195153" lon="-1.998070"><ele>299</ele><time>2020-08-19T12:59:38Z</time><name>PT6214</name></trkpt>
<trkpt lat="53.195143" lon="-1.998083"><ele>299</ele><time>2020-08-19T12:59:38Z</time><name>PT6215</name></trkpt>
<trkpt lat="53.195134" lon="-1.998094"><ele>299</ele><time>2020-08-19T12:59:40Z</time><name>PT6216</name></trkpt>
<trkpt lat="53.195125" lon="-1.998103"><ele>300</ele><time>2020-08-19T12:59:41Z</time><name>PT6217</name></trkpt>
<trkpt lat="53.195117" lon="-1.998113"><ele>299</ele><time>2020-08-19T12:59:41Z</time><name>PT6218</name></trkpt>
<trkpt lat="53.195111" lon="-1.998125"><ele>299</ele><time>2020-08-19T12:59:43Z</time><name>PT6219</name></trkpt>
<trkpt lat="53.195111" lon="-1.998130"><ele>298</ele><time>2020-08-19T12:59:44Z</time><name>PT6220</name></trkpt>
<trkpt lat="53.195107" lon="-1.998126"><ele>299</ele><time>2020-08-19T12:59:45Z</time><name>PT6221</name></trkpt>
<trkpt lat="53.195106" lon="-1.998130"><ele>299</ele><time>2020-08-19T12:59:46Z</time><name>PT6222</name></trkpt>
<trkpt lat="53.195103" lon="-1.998134"><ele>298</ele><time>2020-08-19T12:59:47Z</time><name>PT6223</name></trkpt>
<trkpt lat="53.195100" lon="-1.998146"><ele>298</ele><time>2020-08-19T12:59:47Z</time><name>PT6224</name></trkpt>
<trkpt lat="53.195089" lon="-1.998160"><ele>298</ele><time>2020-08-19T12:59:49Z</time><name>PT6225</name></trkpt>
<trkpt lat="53.195077" lon="-1.998176"><ele>298</ele><time>2020-08-19T12:59:50Z</time><name>PT6226</name></trkpt>
<trkpt lat="53.195068" lon="-1.998188"><ele>298</ele><time>2020-08-19T12:59:50Z</time><name>PT6227</name></trkpt>
<trkpt lat="53.195062" lon="-1.998203"><ele>298</ele><time>2020-08-19T12:59:52Z</time><name>PT6228</name></trkpt>
<trkpt lat="53.195054" lon="-1.998211"><ele>298</ele><time>2020-08-19T12:59:53Z</time><name>PT6229</name></trkpt>
<trkpt lat="53.195046" lon="-1.998225"><ele>297</ele><time>2020-08-19T12:59:53Z</time><name>PT6230</name></trkpt>
<trkpt lat="53.195035" lon="-1.998238"><ele>297</ele><time>2020-08-19T12:59:55Z</time><name>PT6231</name></trkpt>
<trkpt lat="53.195027" lon="-1.998259"><ele>296</ele><time>2020-08-19T12:59:56Z</time><name>PT6232</name></trkpt>
<trkpt lat="53.195017" lon="-1.998279"><ele>295</ele><time>2020-08-19T12:59:56Z</time><name>PT6233</name></trkpt>
<trkpt lat="53.195007" lon="-1.998292"><ele>295</ele><time>2020-08-19T12:59:58Z</time><name>PT6234</name></trkpt>
<trkpt lat="53.194993" lon="-1.998302"><ele>296</ele><time>2020-08-19T12:59:59Z</time><name>PT6235</name></trkpt>
<trkpt lat="53.194981" lon="-1.998313"><ele>296</ele><time>2020-08-19T12:59:59Z</time><name>PT6236</name></trkpt>
<trkpt lat="53.194969" lon="-1.998325"><ele>296</ele><time>2020-08-19T13:00:01Z</time><name>PT6237</name></trkpt>
<trkpt lat="53.194951" lon="-1.998345"><ele>294</ele><time>2020-08-19T13:00:02Z</time><name>PT6238</name></trkpt>
<trkpt lat="53.194936" lon="-1.998363"><ele>296</ele><time>2020-08-19T13:00:02Z</time><name>PT6239</name></trkpt>
<trkpt lat="53.194925" lon="-1.998378"><ele>297</ele><time>2020-08-19T13:00:04Z</time><name>PT6240</name></trkpt>
<trkpt lat="53.194912" lon="-1.998386"><ele>297</ele><time>2020-08-19T13:00:05Z</time><name>PT6241</name></trkpt>
<trkpt lat="53.194899" lon="-1.998396"><ele>297</ele><time>2020-08-19T13:00:05Z</time><name>PT6242</name></trkpt>
<trkpt lat="53.194885" lon="-1.998407"><ele>297</ele><time>2020-08-19T13:00:07Z</time><name>PT6243</name></trkpt>
<trkpt lat="53.194872" lon="-1.998420"><ele>297</ele><time>2020-08-19T13:00:08Z</time><name>PT6244</name></trkpt>
<trkpt lat="53.194860" lon="-1.998432"><ele>297</ele><time>2020-08-19T13:00:08Z</time><name>PT6245</name></trkpt>
<trkpt lat="53.194849" lon="-1.998446"><ele>297</ele><time>2020-08-19T13:00:10Z</time><name>PT6246</name></trkpt>
<trkpt lat="53.194837" lon="-1.998460"><ele>297</ele><time>2020-08-19T13:00:11Z</time><name>PT6247</name></trkpt>
<trkpt lat="53.194826" lon="-1.998471"><ele>297</ele><time>2020-08-19T13:00:11Z</time><name>PT6248</name></trkpt>
<trkpt lat="53.194816" lon="-1.998483"><ele>297</ele><time>2020-08-19T13:00:13Z</time><name>PT6249</name></trkpt>
<trkpt lat="53.194805" lon="-1.998496"><ele>297</ele><time>2020-08-19T13:00:14Z</time><name>PT6250</name></trkpt>
<trkpt lat="53.194794" lon="-1.998509"><ele>296</ele><time>2020-08-19T13:00:14Z</time><name>PT6251</name></trkpt>
<trkpt lat="53.194783" lon="-1.998522"><ele>296</ele><time>2020-08-19T13:00:16Z</time><name>PT6252</name></trkpt>
<trkpt lat="53.194774" lon="-1.998535"><ele>296</ele><time>2020-08-19T13:00:17Z</time><name>PT6253</name></trkpt>
<trkpt lat="53.194762" lon="-1.998549"><ele>296</ele><time>2020-08-19T13:00:17Z</time><name>PT6254</name></trkpt>
<trkpt lat="53.194752" lon="-1.998559"><ele>296</ele><time>2020-08-19T13:00:19Z</time><name>PT6255</name></trkpt>
<trkpt lat="53.194741" lon="-1.998570"><ele>296</ele><time>2020-08-19T13:00:20Z</time><name>PT6256</name></trkpt>
<trkpt lat="53.194732" lon="-1.998583"><ele>296</ele><time>2020-08-19T13:00:20Z</time><name>PT6257</name></trkpt>
<trkpt lat="53.194720" lon="-1.998597"><ele>295</ele><time>2020-08-19T13:00:22Z</time><name>PT6258</name></trkpt>
<trkpt lat="53.194709" lon="-1.998608"><ele>295</ele><time>2020-08-19T13:00:23Z</time><name>PT6259</name></trkpt>
<trkpt lat="53.194697" lon="-1.998619"><ele>295</ele><time>2020-08-19T13:00:23Z</time><name>PT6260</name></trkpt>
<trkpt lat="53.194686" lon="-1.998632"><ele>295</ele><time>2020-08-19T13:00:25Z</time><name>PT6261</name></trkpt>
<trkpt lat="53.194675" lon="-1.998646"><ele>295</ele><time>2020-08-19T13:00:26Z</time><name>PT6262</name></trkpt>
<trkpt lat="53.194664" lon="-1.998659"><ele>294</ele><time>2020-08-19T13:00:26Z</time><name>PT6263</name></trkpt>
<trkpt lat="53.194654" lon="-1.998671"><ele>294</ele><time>2020-08-19T13:00:28Z</time><name>PT6264</name></trkpt>
<trkpt lat="53.194644" lon="-1.998683"><ele>294</ele><time>2020-08-19T13:00:29Z</time><name>PT6265</name></trkpt>
<trkpt lat="53.194632" lon="-1.998695"><ele>294</ele><time>2020-08-19T13:00:29Z</time><name>PT6266</name></trkpt>
<trkpt lat="53.194621" lon="-1.998709"><ele>294</ele><time>2020-08-19T13:00:31Z</time><name>PT6267</name></trkpt>
<trkpt lat="53.194610" lon="-1.998723"><ele>294</ele><time>2020-08-19T13:00:32Z</time><name>PT6268</name></trkpt>
<trkpt lat="53.194600" lon="-1.998735"><ele>293</ele><time>2020-08-19T13:00:32Z</time><name>PT6269</name></trkpt>
<trkpt lat="53.194588" lon="-1.998748"><ele>293</ele><time>2020-08-19T13:00:34Z</time><name>PT6270</name></trkpt>
<trkpt lat="53.194576" lon="-1.998758"><ele>293</ele><time>2020-08-19T13:00:35Z</time><name>PT6271</name></trkpt>
<trkpt lat="53.194565" lon="-1.998769"><ele>293</ele><time>2020-08-19T13:00:35Z</time><name>PT6272</name></trkpt>
<trkpt lat="53.194556" lon="-1.998776"><ele>293</ele><time>2020-08-19T13:00:37Z</time><name>PT6273</name></trkpt>
<trkpt lat="53.194548" lon="-1.998785"><ele>293</ele><time>2020-08-19T13:00:38Z</time><name>PT6274</name></trkpt>
<trkpt lat="53.194532" lon="-1.998799"><ele>292</ele><time>2020-08-19T13:00:38Z</time><name>PT6275</name></trkpt>
<trkpt lat="53.194520" lon="-1.998813"><ele>292</ele><time>2020-08-19T13:00:40Z</time><name>PT6276</name></trkpt>
<trkpt lat="53.194504" lon="-1.998828"><ele>291</ele><time>2020-08-19T13:00:41Z</time><name>PT6277</name></trkpt>
<trkpt lat="53.194494" lon="-1.998840"><ele>291</ele><time>2020-08-19T13:00:42Z</time><name>PT6278</name></trkpt>
<trkpt lat="53.194484" lon="-1.998851"><ele>291</ele><time>2020-08-19T13:00:43Z</time><name>PT6279</name></trkpt>
<trkpt lat="53.194478" lon="-1.998859"><ele>291</ele><time>2020-08-19T13:00:44Z</time><name>PT6280</name></trkpt>
<trkpt lat="53.194475" lon="-1.998862"><ele>291</ele><time>2020-08-19T13:00:44Z</time><name>PT6281</name></trkpt>
<trkpt lat="53.194468" lon="-1.998867"><ele>290</ele><time>2020-08-19T13:00:46Z</time><name>PT6282</name></trkpt>
<trkpt lat="53.194434" lon="-1.998912"><ele>289</ele><time>2020-08-19T13:00:49Z</time><name>PT6283</name></trkpt>
<trkpt lat="53.194401" lon="-1.998947"><ele>287</ele><time>2020-08-19T13:00:53Z</time><name>PT6284</name></trkpt>
<trkpt lat="53.194395" lon="-1.998978"><ele>286</ele><time>2020-08-19T13:00:56Z</time><name>PT6285</name></trkpt>
<trkpt lat="53.194381" lon="-1.998998"><ele>285</ele><time>2020-08-19T13:00:59Z</time><name>PT6286</name></trkpt>
<trkpt lat="53.194373" lon="-1.999002"><ele>285</ele><time>2020-08-19T13:01:01Z</time><name>PT6287</name></trkpt>
<trkpt lat="53.194365" lon="-1.999011"><ele>285</ele><time>2020-08-19T13:01:02Z</time><name>PT6288</name></trkpt>
<trkpt lat="53.194359" lon="-1.999022"><ele>285</ele><time>2020-08-19T13:01:02Z</time><name>PT6289</name></trkpt>
<trkpt lat="53.194350" lon="-1.999032"><ele>285</ele><time>2020-08-19T13:01:04Z</time><name>PT6290</name></trkpt>
<trkpt lat="53.194340" lon="-1.999038"><ele>285</ele><time>2020-08-19T13:01:05Z</time><name>PT6291</name></trkpt>
<trkpt lat="53.194329" lon="-1.999048"><ele>285</ele><time>2020-08-19T13:01:05Z</time><name>PT6292</name></trkpt>
<trkpt lat="53.194320" lon="-1.999055"><ele>285</ele><time>2020-08-19T13:01:07Z</time><name>PT6293</name></trkpt>
<trkpt lat="53.194311" lon="-1.999061"><ele>284</ele><time>2020-08-19T13:01:08Z</time><name>PT6294</name></trkpt>
<trkpt lat="53.194299" lon="-1.999067"><ele>284</ele><time>2020-08-19T13:01:08Z</time><name>PT6295</name></trkpt>
<trkpt lat="53.194291" lon="-1.999074"><ele>284</ele><time>2020-08-19T13:01:10Z</time><name>PT6296</name></trkpt>
<trkpt lat="53.194280" lon="-1.999083"><ele>284</ele><time>2020-08-19T13:01:11Z</time><name>PT6297</name></trkpt>
<trkpt lat="53.194264" lon="-1.999092"><ele>283</ele><time>2020-08-19T13:01:11Z</time><name>PT6298</name></trkpt>
<trkpt lat="53.194246" lon="-1.999101"><ele>283</ele><time>2020-08-19T13:01:13Z</time><name>PT6299</name></trkpt>
<trkpt lat="53.194244" lon="-1.999106"><ele>284</ele><time>2020-08-19T13:01:14Z</time><name>PT6300</name></trkpt>
<trkpt lat="53.194241" lon="-1.999111"><ele>284</ele><time>2020-08-19T13:01:15Z</time><name>PT6301</name></trkpt>
<trkpt lat="53.194237" lon="-1.999109"><ele>285</ele><time>2020-08-19T13:01:16Z</time><name>PT6302</name></trkpt>
<trkpt lat="53.194229" lon="-1.999104"><ele>284</ele><time>2020-08-19T13:01:17Z</time><name>PT6303</name></trkpt>
<trkpt lat="53.194219" lon="-1.999103"><ele>284</ele><time>2020-08-19T13:01:17Z</time><name>PT6304</name></trkpt>
<trkpt lat="53.194206" lon="-1.999106"><ele>283</ele><time>2020-08-19T13:01:19Z</time><name>PT6305</name></trkpt>
<trkpt lat="53.194198" lon="-1.999110"><ele>284</ele><time>2020-08-19T13:01:20Z</time><name>PT6306</name></trkpt>
<trkpt lat="53.194186" lon="-1.999110"><ele>283</ele><time>2020-08-19T13:01:20Z</time><name>PT6307</name></trkpt>
<trkpt lat="53.194175" lon="-1.999106"><ele>284</ele><time>2020-08-19T13:01:22Z</time><name>PT6308</name></trkpt>
<trkpt lat="53.194158" lon="-1.999095"><ele>283</ele><time>2020-08-19T13:01:23Z</time><name>PT6309</name></trkpt>
<trkpt lat="53.194144" lon="-1.999086"><ele>283</ele><time>2020-08-19T13:01:23Z</time><name>PT6310</name></trkpt>
<trkpt lat="53.194131" lon="-1.999075"><ele>282</ele><time>2020-08-19T13:01:25Z</time><name>PT6311</name></trkpt>
<trkpt lat="53.194117" lon="-1.999064"><ele>282</ele><time>2020-08-19T13:01:26Z</time><name>PT6312</name></trkpt>
<trkpt lat="53.194108" lon="-1.999052"><ele>281</ele><time>2020-08-19T13:01:27Z</time><name>PT6313</name></trkpt>
<trkpt lat="53.194096" lon="-1.999033"><ele>281</ele><time>2020-08-19T13:01:28Z</time><name>PT6314</name></trkpt>
<trkpt lat="53.194089" lon="-1.999013"><ele>281</ele><time>2020-08-19T13:01:29Z</time><name>PT6315</name></trkpt>
<trkpt lat="53.194077" lon="-1.999001"><ele>281</ele><time>2020-08-19T13:01:29Z</time><name>PT6316</name></trkpt>
<trkpt lat="53.194068" lon="-1.998996"><ele>281</ele><time>2020-08-19T13:01:31Z</time><name>PT6317</name></trkpt>
<trkpt lat="53.194053" lon="-1.998996"><ele>281</ele><time>2020-08-19T13:01:32Z</time><name>PT6318</name></trkpt>
<trkpt lat="53.194040" lon="-1.998994"><ele>281</ele><time>2020-08-19T13:01:32Z</time><name>PT6319</name></trkpt>
<trkpt lat="53.194031" lon="-1.998988"><ele>281</ele><time>2020-08-19T13:01:34Z</time><name>PT6320</name></trkpt>
<trkpt lat="53.194024" lon="-1.998987"><ele>281</ele><time>2020-08-19T13:01:35Z</time><name>PT6321</name></trkpt>
<trkpt lat="53.194015" lon="-1.998995"><ele>281</ele><time>2020-08-19T13:01:35Z</time><name>PT6322</name></trkpt>
<trkpt lat="53.194011" lon="-1.999004"><ele>282</ele><time>2020-08-19T13:01:37Z</time><name>PT6323</name></trkpt>
<trkpt lat="53.194010" lon="-1.999017"><ele>281</ele><time>2020-08-19T13:01:38Z</time><name>PT6324</name></trkpt>
<trkpt lat="53.194009" lon="-1.999035"><ele>281</ele><time>2020-08-19T13:01:38Z</time><name>PT6325</name></trkpt>
<trkpt lat="53.194010" lon="-1.999054"><ele>281</ele><time>2020-08-19T13:01:40Z</time><name>PT6326</name></trkpt>
<trkpt lat="53.194008" lon="-1.999072"><ele>281</ele><time>2020-08-19T13:01:41Z</time><name>PT6327</name></trkpt>
<trkpt lat="53.194006" lon="-1.999088"><ele>281</ele><time>2020-08-19T13:01:41Z</time><name>PT6328</name></trkpt>
<trkpt lat="53.194000" lon="-1.999106"><ele>281</ele><time>2020-08-19T13:01:43Z</time><name>PT6329</name></trkpt>
<trkpt lat="53.193998" lon="-1.999122"><ele>281</ele><time>2020-08-19T13:01:44Z</time><name>PT6330</name></trkpt>
<trkpt lat="53.193996" lon="-1.999137"><ele>281</ele><time>2020-08-19T13:01:44Z</time><name>PT6331</name></trkpt>
<trkpt lat="53.193997" lon="-1.999148"><ele>281</ele><time>2020-08-19T13:01:46Z</time><name>PT6332</name></trkpt>
<trkpt lat="53.193996" lon="-1.999167"><ele>281</ele><time>2020-08-19T13:01:47Z</time><name>PT6333</name></trkpt>
<trkpt lat="53.193992" lon="-1.999191"><ele>281</ele><time>2020-08-19T13:01:47Z</time><name>PT6334</name></trkpt>
<trkpt lat="53.193991" lon="-1.999211"><ele>281</ele><time>2020-08-19T13:01:49Z</time><name>PT6335</name></trkpt>
<trkpt lat="53.193994" lon="-1.999228"><ele>281</ele><time>2020-08-19T13:01:50Z</time><name>PT6336</name></trkpt>
<trkpt lat="53.193989" lon="-1.999253"><ele>280</ele><time>2020-08-19T13:01:50Z</time><name>PT6337</name></trkpt>
<trkpt lat="53.193986" lon="-1.999275"><ele>280</ele><time>2020-08-19T13:01:52Z</time><name>PT6338</name></trkpt>
<trkpt lat="53.193988" lon="-1.999294"><ele>279</ele><time>2020-08-19T13:01:53Z</time><name>PT6339</name></trkpt>
<trkpt lat="53.193986" lon="-1.999317"><ele>279</ele><time>2020-08-19T13:01:53Z</time><name>PT6340</name></trkpt>
<trkpt lat="53.193985" lon="-1.999336"><ele>279</ele><time>2020-08-19T13:01:55Z</time><name>PT6341</name></trkpt>
<trkpt lat="53.193985" lon="-1.999353"><ele>278</ele><time>2020-08-19T13:01:56Z</time><name>PT6342</name></trkpt>
<trkpt lat="53.193981" lon="-1.999368"><ele>278</ele><time>2020-08-19T13:01:57Z</time><name>PT6343</name></trkpt>
<trkpt lat="53.193978" lon="-1.999386"><ele>277</ele><time>2020-08-19T13:01:58Z</time><name>PT6344</name></trkpt>
<trkpt lat="53.193975" lon="-1.999402"><ele>277</ele><time>2020-08-19T13:01:59Z</time><name>PT6345</name></trkpt>
<trkpt lat="53.193975" lon="-1.999415"><ele>276</ele><time>2020-08-19T13:02:00Z</time><name>PT6346</name></trkpt>
<trkpt lat="53.193976" lon="-1.999434"><ele>277</ele><time>2020-08-19T13:02:01Z</time><name>PT6347</name></trkpt>
<trkpt lat="53.193967" lon="-1.999460"><ele>276</ele><time>2020-08-19T13:02:02Z</time><name>PT6348</name></trkpt>
<trkpt lat="53.193966" lon="-1.999493"><ele>276</ele><time>2020-08-19T13:02:02Z</time><name>PT6349</name></trkpt>
<trkpt lat="53.193969" lon="-1.999530"><ele>276</ele><time>2020-08-19T13:02:04Z</time><name>PT6350</name></trkpt>
<trkpt lat="53.193972" lon="-1.999555"><ele>275</ele><time>2020-08-19T13:02:05Z</time><name>PT6351</name></trkpt>
<trkpt lat="53.193977" lon="-1.999579"><ele>275</ele><time>2020-08-19T13:02:05Z</time><name>PT6352</name></trkpt>
<trkpt lat="53.193980" lon="-1.999597"><ele>275</ele><time>2020-08-19T13:02:07Z</time><name>PT6353</name></trkpt>
<trkpt lat="53.193980" lon="-1.999608"><ele>275</ele><time>2020-08-19T13:02:08Z</time><name>PT6354</name></trkpt>
<trkpt lat="53.193983" lon="-1.999618"><ele>275</ele><time>2020-08-19T13:02:08Z</time><name>PT6355</name></trkpt>
<trkpt lat="53.193989" lon="-1.999629"><ele>274</ele><time>2020-08-19T13:02:10Z</time><name>PT6356</name></trkpt>
<trkpt lat="53.193997" lon="-1.999643"><ele>273</ele><time>2020-08-19T13:02:11Z</time><name>PT6357</name></trkpt>
<trkpt lat="53.194002" lon="-1.999672"><ele>272</ele><time>2020-08-19T13:02:11Z</time><name>PT6358</name></trkpt>
<trkpt lat="53.194016" lon="-1.999702"><ele>272</ele><time>2020-08-19T13:02:13Z</time><name>PT6359</name></trkpt>
<trkpt lat="53.194026" lon="-1.999725"><ele>271</ele><time>2020-08-19T13:02:14Z</time><name>PT6360</name></trkpt>
<trkpt lat="53.194029" lon="-1.999743"><ele>271</ele><time>2020-08-19T13:02:14Z</time><name>PT6361</name></trkpt>
<trkpt lat="53.194033" lon="-1.999748"><ele>271</ele><time>2020-08-19T13:02:16Z</time><name>PT6362</name></trkpt>
<trkpt lat="53.194042" lon="-1.999757"><ele>272</ele><time>2020-08-19T13:02:17Z</time><name>PT6363</name></trkpt>
<trkpt lat="53.194066" lon="-1.999769"><ele>273</ele><time>2020-08-19T13:02:17Z</time><name>PT6364</name></trkpt>
<trkpt lat="53.194076" lon="-1.999791"><ele>272</ele><time>2020-08-19T13:02:19Z</time><name>PT6365</name></trkpt>
<trkpt lat="53.194090" lon="-1.999809"><ele>273</ele><time>2020-08-19T13:02:20Z</time><name>PT6366</name></trkpt>
<trkpt lat="53.194099" lon="-1.999827"><ele>273</ele><time>2020-08-19T13:02:20Z</time><name>PT6367</name></trkpt>
<trkpt lat="53.194108" lon="-1.999844"><ele>272</ele><time>2020-08-19T13:02:22Z</time><name>PT6368</name></trkpt>
<trkpt lat="53.194116" lon="-1.999859"><ele>272</ele><time>2020-08-19T13:02:23Z</time><name>PT6369</name></trkpt>
<trkpt lat="53.194125" lon="-1.999872"><ele>272</ele><time>2020-08-19T13:02:23Z</time><name>PT6370</name></trkpt>
<trkpt lat="53.194135" lon="-1.999877"><ele>271</ele><time>2020-08-19T13:02:25Z</time><name>PT6371</name></trkpt>
<trkpt lat="53.194143" lon="-1.999884"><ele>271</ele><time>2020-08-19T13:02:26Z</time><name>PT6372</name></trkpt>
<trkpt lat="53.194152" lon="-1.999889"><ele>271</ele><time>2020-08-19T13:02:26Z</time><name>PT6373</name></trkpt>
<trkpt lat="53.194162" lon="-1.999897"><ele>271</ele><time>2020-08-19T13:02:28Z</time><name>PT6374</name></trkpt>
<trkpt lat="53.194173" lon="-1.999907"><ele>271</ele><time>2020-08-19T13:02:29Z</time><name>PT6375</name></trkpt>
<trkpt lat="53.194187" lon="-1.999916"><ele>271</ele><time>2020-08-19T13:02:29Z</time><name>PT6376</name></trkpt>
<trkpt lat="53.194200" lon="-1.999925"><ele>272</ele><time>2020-08-19T13:02:31Z</time><name>PT6377</name></trkpt>
<trkpt lat="53.194212" lon="-1.999933"><ele>272</ele><time>2020-08-19T13:02:32Z</time><name>PT6378</name></trkpt>
<trkpt lat="53.194227" lon="-1.999939"><ele>272</ele><time>2020-08-19T13:02:32Z</time><name>PT6379</name></trkpt>
<trkpt lat="53.194237" lon="-1.999946"><ele>272</ele><time>2020-08-19T13:02:34Z</time><name>PT6380</name></trkpt>
<trkpt lat="53.194250" lon="-1.999953"><ele>272</ele><time>2020-08-19T13:02:35Z</time><name>PT6381</name></trkpt>
<trkpt lat="53.194264" lon="-1.999960"><ele>272</ele><time>2020-08-19T13:02:35Z</time><name>PT6382</name></trkpt>
<trkpt lat="53.194278" lon="-1.999965"><ele>272</ele><time>2020-08-19T13:02:37Z</time><name>PT6383</name></trkpt>
<trkpt lat="53.194291" lon="-1.999970"><ele>272</ele><time>2020-08-19T13:02:38Z</time><name>PT6384</name></trkpt>
<trkpt lat="53.194306" lon="-1.999978"><ele>272</ele><time>2020-08-19T13:02:38Z</time><name>PT6385</name></trkpt>
<trkpt lat="53.194320" lon="-1.999982"><ele>272</ele><time>2020-08-19T13:02:40Z</time><name>PT6386</name></trkpt>
<trkpt lat="53.194333" lon="-1.999988"><ele>272</ele><time>2020-08-19T13:02:41Z</time><name>PT6387</name></trkpt>
<trkpt lat="53.194346" lon="-1.999992"><ele>272</ele><time>2020-08-19T13:02:41Z</time><name>PT6388</name></trkpt>
<trkpt lat="53.194361" lon="-1.999994"><ele>272</ele><time>2020-08-19T13:02:43Z</time><name>PT6389</name></trkpt>
<trkpt lat="53.194375" lon="-1.999996"><ele>272</ele><time>2020-08-19T13:02:44Z</time><name>PT6390</name></trkpt>
<trkpt lat="53.194389" lon="-2.000002"><ele>273</ele><time>2020-08-19T13:02:44Z</time><name>PT6391</name></trkpt>
<trkpt lat="53.194402" lon="-2.000008"><ele>272</ele><time>2020-08-19T13:02:46Z</time><name>PT6392</name></trkpt>
<trkpt lat="53.194415" lon="-2.000013"><ele>272</ele><time>2020-08-19T13:02:47Z</time><name>PT6393</name></trkpt>
<trkpt lat="53.194426" lon="-2.000017"><ele>273</ele><time>2020-08-19T13:02:47Z</time><name>PT6394</name></trkpt>
<trkpt lat="53.194439" lon="-2.000020"><ele>273</ele><time>2020-08-19T13:02:49Z</time><name>PT6395</name></trkpt>
<trkpt lat="53.194454" lon="-2.000023"><ele>273</ele><time>2020-08-19T13:02:50Z</time><name>PT6396</name></trkpt>
<trkpt lat="53.194468" lon="-2.000026"><ele>273</ele><time>2020-08-19T13:02:50Z</time><name>PT6397</name></trkpt>
<trkpt lat="53.194482" lon="-2.000030"><ele>273</ele><time>2020-08-19T13:02:52Z</time><name>PT6398</name></trkpt>
<trkpt lat="53.194496" lon="-2.000034"><ele>273</ele><time>2020-08-19T13:02:53Z</time><name>PT6399</name></trkpt>
<trkpt lat="53.194510" lon="-2.000039"><ele>273</ele><time>2020-08-19T13:02:53Z</time><name>PT6400</name></trkpt>
<trkpt lat="53.194522" lon="-2.000044"><ele>273</ele><time>2020-08-19T13:02:55Z</time><name>PT6401</name></trkpt>
<trkpt lat="53.194534" lon="-2.000046"><ele>273</ele><time>2020-08-19T13:02:56Z</time><name>PT6402</name></trkpt>
<trkpt lat="53.194543" lon="-2.000050"><ele>273</ele><time>2020-08-19T13:02:56Z</time><name>PT6403</name></trkpt>
<trkpt lat="53.194554" lon="-2.000056"><ele>273</ele><time>2020-08-19T13:02:58Z</time><name>PT6404</name></trkpt>
<trkpt lat="53.194565" lon="-2.000059"><ele>273</ele><time>2020-08-19T13:02:59Z</time><name>PT6405</name></trkpt>
<trkpt lat="53.194575" lon="-2.000062"><ele>272</ele><time>2020-08-19T13:02:59Z</time><name>PT6406</name></trkpt>
<trkpt lat="53.194585" lon="-2.000065"><ele>272</ele><time>2020-08-19T13:03:01Z</time><name>PT6407</name></trkpt>
<trkpt lat="53.194596" lon="-2.000064"><ele>272</ele><time>2020-08-19T13:03:02Z</time><name>PT6408</name></trkpt>
<trkpt lat="53.194607" lon="-2.000066"><ele>272</ele><time>2020-08-19T13:03:02Z</time><name>PT6409</name></trkpt>
<trkpt lat="53.194619" lon="-2.000071"><ele>272</ele><time>2020-08-19T13:03:04Z</time><name>PT6410</name></trkpt>
<trkpt lat="53.194631" lon="-2.000073"><ele>272</ele><time>2020-08-19T13:03:05Z</time><name>PT6411</name></trkpt>
<trkpt lat="53.194644" lon="-2.000069"><ele>272</ele><time>2020-08-19T13:03:05Z</time><name>PT6412</name></trkpt>
<trkpt lat="53.194656" lon="-2.000062"><ele>272</ele><time>2020-08-19T13:03:07Z</time><name>PT6413</name></trkpt>
<trkpt lat="53.194669" lon="-2.000056"><ele>272</ele><time>2020-08-19T13:03:08Z</time><name>PT6414</name></trkpt>
<trkpt lat="53.194680" lon="-2.000051"><ele>272</ele><time>2020-08-19T13:03:09Z</time><name>PT6415</name></trkpt>
<trkpt lat="53.194691" lon="-2.000051"><ele>272</ele><time>2020-08-19T13:03:10Z</time><name>PT6416</name></trkpt>
<trkpt lat="53.194702" lon="-2.000053"><ele>273</ele><time>2020-08-19T13:03:11Z</time><name>PT6417</name></trkpt>
<trkpt lat="53.194714" lon="-2.000053"><ele>273</ele><time>2020-08-19T13:03:12Z</time><name>PT6418</name></trkpt>
<trkpt lat="53.194725" lon="-2.000053"><ele>272</ele><time>2020-08-19T13:03:13Z</time><name>PT6419</name></trkpt>
<trkpt lat="53.194737" lon="-2.000057"><ele>272</ele><time>2020-08-19T13:03:14Z</time><name>PT6420</name></trkpt>
<trkpt lat="53.194747" lon="-2.000057"><ele>272</ele><time>2020-08-19T13:03:14Z</time><name>PT6421</name></trkpt>
<trkpt lat="53.194755" lon="-2.000055"><ele>272</ele><time>2020-08-19T13:03:16Z</time><name>PT6422</name></trkpt>
<trkpt lat="53.194767" lon="-2.000065"><ele>272</ele><time>2020-08-19T13:03:17Z</time><name>PT6423</name></trkpt>
<trkpt lat="53.194778" lon="-2.000075"><ele>272</ele><time>2020-08-19T13:03:18Z</time><name>PT6424</name></trkpt>
<trkpt lat="53.194787" lon="-2.000082"><ele>272</ele><time>2020-08-19T13:03:19Z</time><name>PT6425</name></trkpt>
<trkpt lat="53.194795" lon="-2.000092"><ele>272</ele><time>2020-08-19T13:03:20Z</time><name>PT6426</name></trkpt>
<trkpt lat="53.194803" lon="-2.000102"><ele>272</ele><time>2020-08-19T13:03:20Z</time><name>PT6427</name></trkpt>
<trkpt lat="53.194812" lon="-2.000111"><ele>272</ele><time>2020-08-19T13:03:22Z</time><name>PT6428</name></trkpt>
<trkpt lat="53.194818" lon="-2.000126"><ele>273</ele><time>2020-08-19T13:03:23Z</time><name>PT6429</name></trkpt>
<trkpt lat="53.194825" lon="-2.000143"><ele>272</ele><time>2020-08-19T13:03:24Z</time><name>PT6430</name></trkpt>
<trkpt lat="53.194831" lon="-2.000157"><ele>272</ele><time>2020-08-19T13:03:25Z</time><name>PT6431</name></trkpt>
<trkpt lat="53.194841" lon="-2.000166"><ele>272</ele><time>2020-08-19T13:03:26Z</time><name>PT6432</name></trkpt>
<trkpt lat="53.194843" lon="-2.000181"><ele>272</ele><time>2020-08-19T13:03:26Z</time><name>PT6433</name></trkpt>
<trkpt lat="53.194848" lon="-2.000194"><ele>272</ele><time>2020-08-19T13:03:28Z</time><name>PT6434</name></trkpt>
<trkpt lat="53.194852" lon="-2.000205"><ele>271</ele><time>2020-08-19T13:03:29Z</time><name>PT6435</name></trkpt>
<trkpt lat="53.194855" lon="-2.000218"><ele>271</ele><time>2020-08-19T13:03:29Z</time><name>PT6436</name></trkpt>
<trkpt lat="53.194856" lon="-2.000237"><ele>271</ele><time>2020-08-19T13:03:31Z</time><name>PT6437</name></trkpt>
<trkpt lat="53.194860" lon="-2.000252"><ele>272</ele><time>2020-08-19T13:03:32Z</time><name>PT6438</name></trkpt>
<trkpt lat="53.194866" lon="-2.000261"><ele>272</ele><time>2020-08-19T13:03:32Z</time><name>PT6439</name></trkpt>
<trkpt lat="53.194869" lon="-2.000276"><ele>272</ele><time>2020-08-19T13:03:34Z</time><name>PT6440</name></trkpt>
<trkpt lat="53.194876" lon="-2.000290"><ele>272</ele><time>2020-08-19T13:03:35Z</time><name>PT6441</name></trkpt>
<trkpt lat="53.194879" lon="-2.000307"><ele>273</ele><time>2020-08-19T13:03:35Z</time><name>PT6442</name></trkpt>
<trkpt lat="53.194885" lon="-2.000325"><ele>273</ele><time>2020-08-19T13:03:37Z</time><name>PT6443</name></trkpt>
<trkpt lat="53.194887" lon="-2.000346"><ele>273</ele><time>2020-08-19T13:03:38Z</time><name>PT6444</name></trkpt>
<trkpt lat="53.194892" lon="-2.000363"><ele>274</ele><time>2020-08-19T13:03:38Z</time><name>PT6445</name></trkpt>
<trkpt lat="53.194898" lon="-2.000382"><ele>274</ele><time>2020-08-19T13:03:40Z</time><name>PT6446</name></trkpt>
<trkpt lat="53.194903" lon="-2.000403"><ele>274</ele><time>2020-08-19T13:03:41Z</time><name>PT6447</name></trkpt>
<trkpt lat="53.194910" lon="-2.000422"><ele>275</ele><time>2020-08-19T13:03:41Z</time><name>PT6448</name></trkpt>
<trkpt lat="53.194914" lon="-2.000442"><ele>275</ele><time>2020-08-19T13:03:43Z</time><name>PT6449</name></trkpt>
<trkpt lat="53.194918" lon="-2.000457"><ele>274</ele><time>2020-08-19T13:03:44Z</time><name>PT6450</name></trkpt>
<trkpt lat="53.194922" lon="-2.000472"><ele>274</ele><time>2020-08-19T13:03:44Z</time><name>PT6451</name></trkpt>
<trkpt lat="53.194923" lon="-2.000491"><ele>275</ele><time>2020-08-19T13:03:46Z</time><name>PT6452</name></trkpt>
<trkpt lat="53.194926" lon="-2.000507"><ele>274</ele><time>2020-08-19T13:03:47Z</time><name>PT6453</name></trkpt>
<trkpt lat="53.194929" lon="-2.000523"><ele>274</ele><time>2020-08-19T13:03:47Z</time><name>PT6454</name></trkpt>
<trkpt lat="53.194937" lon="-2.000542"><ele>275</ele><time>2020-08-19T13:03:49Z</time><name>PT6455</name></trkpt>
<trkpt lat="53.194941" lon="-2.000555"><ele>274</ele><time>2020-08-19T13:03:50Z</time><name>PT6456</name></trkpt>
<trkpt lat="53.194941" lon="-2.000577"><ele>274</ele><time>2020-08-19T13:03:51Z</time><name>PT6457</name></trkpt>
<trkpt lat="53.194943" lon="-2.000597"><ele>274</ele><time>2020-08-19T13:03:52Z</time><name>PT6458</name></trkpt>
<trkpt lat="53.194945" lon="-2.000610"><ele>274</ele><time>2020-08-19T13:03:53Z</time><name>PT6459</name></trkpt>
<trkpt lat="53.194947" lon="-2.000631"><ele>274</ele><time>2020-08-19T13:03:54Z</time><name>PT6460</name></trkpt>
<trkpt lat="53.194949" lon="-2.000651"><ele>273</ele><time>2020-08-19T13:03:55Z</time><name>PT6461</name></trkpt>
<trkpt lat="53.194952" lon="-2.000669"><ele>273</ele><time>2020-08-19T13:03:56Z</time><name>PT6462</name></trkpt>
<trkpt lat="53.194957" lon="-2.000674"><ele>272</ele><time>2020-08-19T13:03:57Z</time><name>PT6463</name></trkpt>
<trkpt lat="53.194967" lon="-2.000679"><ele>271</ele><time>2020-08-19T13:03:58Z</time><name>PT6464</name></trkpt>
<trkpt lat="53.194975" lon="-2.000687"><ele>271</ele><time>2020-08-19T13:03:59Z</time><name>PT6465</name></trkpt>
<trkpt lat="53.194978" lon="-2.000699"><ele>271</ele><time>2020-08-19T13:04:00Z</time><name>PT6466</name></trkpt>
<trkpt lat="53.194999" lon="-2.000751"><ele>274</ele><time>2020-08-19T13:04:04Z</time><name>PT6467</name></trkpt>
<trkpt lat="53.194999" lon="-2.000773"><ele>276</ele><time>2020-08-19T13:04:07Z</time><name>PT6468</name></trkpt>
<trkpt lat="53.195006" lon="-2.000764"><ele>275</ele><time>2020-08-19T13:04:11Z</time><name>PT6469</name></trkpt>
<trkpt lat="53.195005" lon="-2.000786"><ele>276</ele><time>2020-08-19T13:04:14Z</time><name>PT6470</name></trkpt>
<trkpt lat="53.195021" lon="-2.000784"><ele>278</ele><time>2020-08-19T13:04:17Z</time><name>PT6471</name></trkpt>
<trkpt lat="53.195029" lon="-2.000767"><ele>279</ele><time>2020-08-19T13:04:20Z</time><name>PT6472</name></trkpt>
<trkpt lat="53.195043" lon="-2.000744"><ele>280</ele><time>2020-08-19T13:04:25Z</time><name>PT6473</name></trkpt>
<trkpt lat="53.195057" lon="-2.000732"><ele>280</ele><time>2020-08-19T13:04:28Z</time><name>PT6474</name></trkpt>
<trkpt lat="53.195078" lon="-2.000720"><ele>280</ele><time>2020-08-19T13:04:31Z</time><name>PT6475</name></trkpt>
<trkpt lat="53.195090" lon="-2.000738"><ele>281</ele><time>2020-08-19T13:04:35Z</time><name>PT6476</name></trkpt>
<trkpt lat="53.195120" lon="-2.000723"><ele>280</ele><time>2020-08-19T13:04:38Z</time><name>PT6477</name></trkpt>
<trkpt lat="53.195141" lon="-2.000709"><ele>278</ele><time>2020-08-19T13:04:41Z</time><name>PT6478</name></trkpt>
<trkpt lat="53.195186" lon="-2.000692"><ele>277</ele><time>2020-08-19T13:04:44Z</time><name>PT6479</name></trkpt>
<trkpt lat="53.195208" lon="-2.000677"><ele>274</ele><time>2020-08-19T13:04:49Z</time><name>PT6480</name></trkpt>
<trkpt lat="53.195214" lon="-2.000668"><ele>274</ele><time>2020-08-19T13:04:52Z</time><name>PT6481</name></trkpt>
<trkpt lat="53.195243" lon="-2.000653"><ele>276</ele><time>2020-08-19T13:04:56Z</time><name>PT6482</name></trkpt>
<trkpt lat="53.195268" lon="-2.000632"><ele>276</ele><time>2020-08-19T13:04:59Z</time><name>PT6483</name></trkpt>
<trkpt lat="53.195288" lon="-2.000619"><ele>277</ele><time>2020-08-19T13:05:04Z</time><name>PT6484</name></trkpt>
<trkpt lat="53.195330" lon="-2.000625"><ele>278</ele><time>2020-08-19T13:05:07Z</time><name>PT6485</name></trkpt>
<trkpt lat="53.195376" lon="-2.000616"><ele>278</ele><time>2020-08-19T13:05:11Z</time><name>PT6486</name></trkpt>
<trkpt lat="53.195418" lon="-2.000604"><ele>280</ele><time>2020-08-19T13:05:14Z</time><name>PT6487</name></trkpt>
<trkpt lat="53.195452" lon="-2.000597"><ele>280</ele><time>2020-08-19T13:05:17Z</time><name>PT6488</name></trkpt>
<trkpt lat="53.195473" lon="-2.000592"><ele>282</ele><time>2020-08-19T13:05:20Z</time><name>PT6489</name></trkpt>
<trkpt lat="53.195494" lon="-2.000585"><ele>281</ele><time>2020-08-19T13:05:23Z</time><name>PT6490</name></trkpt>
<trkpt lat="53.195523" lon="-2.000578"><ele>282</ele><time>2020-08-19T13:05:26Z</time><name>PT6491</name></trkpt>
<trkpt lat="53.195563" lon="-2.000567"><ele>281</ele><time>2020-08-19T13:05:31Z</time><name>PT6492</name></trkpt>
<trkpt lat="53.195592" lon="-2.000540"><ele>280</ele><time>2020-08-19T13:05:35Z</time><name>PT6493</name></trkpt>
<trkpt lat="53.195609" lon="-2.000533"><ele>281</ele><time>2020-08-19T13:05:38Z</time><name>PT6494</name></trkpt>
<trkpt lat="53.195634" lon="-2.000525"><ele>282</ele><time>2020-08-19T13:05:41Z</time><name>PT6495</name></trkpt>
<trkpt lat="53.195659" lon="-2.000518"><ele>281</ele><time>2020-08-19T13:05:44Z</time><name>PT6496</name></trkpt>
<trkpt lat="53.195701" lon="-2.000513"><ele>282</ele><time>2020-08-19T13:05:47Z</time><name>PT6497</name></trkpt>
<trkpt lat="53.195723" lon="-2.000500"><ele>284</ele><time>2020-08-19T13:05:50Z</time><name>PT6498</name></trkpt>
<trkpt lat="53.195751" lon="-2.000512"><ele>285</ele><time>2020-08-19T13:05:53Z</time><name>PT6499</name></trkpt>
<trkpt lat="53.195793" lon="-2.000540"><ele>288</ele><time>2020-08-19T13:05:58Z</time><name>PT6500</name></trkpt>
<trkpt lat="53.195839" lon="-2.000576"><ele>290</ele><time>2020-08-19T13:06:02Z</time><name>PT6501</name></trkpt>
<trkpt lat="53.195865" lon="-2.000609"><ele>292</ele><time>2020-08-19T13:06:05Z</time><name>PT6502</name></trkpt>
<trkpt lat="53.195895" lon="-2.000633"><ele>293</ele><time>2020-08-19T13:06:08Z</time><name>PT6503</name></trkpt>
<trkpt lat="53.195932" lon="-2.000672"><ele>295</ele><time>2020-08-19T13:06:11Z</time><name>PT6504</name></trkpt>
<trkpt lat="53.195961" lon="-2.000701"><ele>296</ele><time>2020-08-19T13:06:14Z</time><name>PT6505</name></trkpt>
<trkpt lat="53.195988" lon="-2.000726"><ele>297</ele><time>2020-08-19T13:06:17Z</time><name>PT6506</name></trkpt>
<trkpt lat="53.196026" lon="-2.000750"><ele>298</ele><time>2020-08-19T13:06:22Z</time><name>PT6507</name></trkpt>
<trkpt lat="53.196053" lon="-2.000771"><ele>299</ele><time>2020-08-19T13:06:25Z</time><name>PT6508</name></trkpt>
<trkpt lat="53.196081" lon="-2.000788"><ele>300</ele><time>2020-08-19T13:06:28Z</time><name>PT6509</name></trkpt>
<trkpt lat="53.196115" lon="-2.000820"><ele>301</ele><time>2020-08-19T13:06:32Z</time><name>PT6510</name></trkpt>
<trkpt lat="53.196148" lon="-2.000839"><ele>301</ele><time>2020-08-19T13:06:35Z</time><name>PT6511</name></trkpt>
<trkpt lat="53.196184" lon="-2.000873"><ele>302</ele><time>2020-08-19T13:06:38Z</time><name>PT6512</name></trkpt>
<trkpt lat="53.196217" lon="-2.000883"><ele>302</ele><time>2020-08-19T13:06:43Z</time><name>PT6513</name></trkpt>
<trkpt lat="53.196238" lon="-2.000871"><ele>302</ele><time>2020-08-19T13:06:46Z</time><name>PT6514</name></trkpt>
<trkpt lat="53.196275" lon="-2.000850"><ele>302</ele><time>2020-08-19T13:06:50Z</time><name>PT6515</name></trkpt>
<trkpt lat="53.196299" lon="-2.000843"><ele>301</ele><time>2020-08-19T13:06:53Z</time><name>PT6516</name></trkpt>
<trkpt lat="53.196335" lon="-2.000835"><ele>301</ele><time>2020-08-19T13:06:56Z</time><name>PT6517</name></trkpt>
<trkpt lat="53.196370" lon="-2.000816"><ele>302</ele><time>2020-08-19T13:07:01Z</time><name>PT6518</name></trkpt>
<trkpt lat="53.196397" lon="-2.000808"><ele>302</ele><time>2020-08-19T13:07:04Z</time><name>PT6519</name></trkpt>
<trkpt lat="53.196429" lon="-2.000797"><ele>303</ele><time>2020-08-19T13:07:07Z</time><name>PT6520</name></trkpt>
<trkpt lat="53.196453" lon="-2.000777"><ele>304</ele><time>2020-08-19T13:07:10Z</time><name>PT6521</name></trkpt>
<trkpt lat="53.196486" lon="-2.000755"><ele>305</ele><time>2020-08-19T13:07:14Z</time><name>PT6522</name></trkpt>
<trkpt lat="53.196523" lon="-2.000737"><ele>307</ele><time>2020-08-19T13:07:17Z</time><name>PT6523</name></trkpt>
<trkpt lat="53.196537" lon="-2.000720"><ele>306</ele><time>2020-08-19T13:07:20Z</time><name>PT6524</name></trkpt>
<trkpt lat="53.196564" lon="-2.000708"><ele>305</ele><time>2020-08-19T13:07:25Z</time><name>PT6525</name></trkpt>
<trkpt lat="53.196583" lon="-2.000689"><ele>305</ele><time>2020-08-19T13:07:28Z</time><name>PT6526</name></trkpt>
<trkpt lat="53.196604" lon="-2.000667"><ele>304</ele><time>2020-08-19T13:07:32Z</time><name>PT6527</name></trkpt>
<trkpt lat="53.196633" lon="-2.000639"><ele>304</ele><time>2020-08-19T13:07:35Z</time><name>PT6528</name></trkpt>
<trkpt lat="53.196661" lon="-2.000618"><ele>304</ele><time>2020-08-19T13:07:40Z</time><name>PT6529</name></trkpt>
<trkpt lat="53.196682" lon="-2.000602"><ele>305</ele><time>2020-08-19T13:07:43Z</time><name>PT6530</name></trkpt>
<trkpt lat="53.196698" lon="-2.000590"><ele>305</ele><time>2020-08-19T13:07:47Z</time><name>PT6531</name></trkpt>
<trkpt lat="53.196723" lon="-2.000574"><ele>306</ele><time>2020-08-19T13:07:50Z</time><name>PT6532</name></trkpt>
<trkpt lat="53.196763" lon="-2.000562"><ele>306</ele><time>2020-08-19T13:07:53Z</time><name>PT6533</name></trkpt>
<trkpt lat="53.196790" lon="-2.000546"><ele>306</ele><time>2020-08-19T13:07:56Z</time><name>PT6534</name></trkpt>
<trkpt lat="53.196828" lon="-2.000535"><ele>308</ele><time>2020-08-19T13:08:01Z</time><name>PT6535</name></trkpt>
<trkpt lat="53.196862" lon="-2.000524"><ele>308</ele><time>2020-08-19T13:08:05Z</time><name>PT6536</name></trkpt>
<trkpt lat="53.196887" lon="-2.000521"><ele>309</ele><time>2020-08-19T13:08:08Z</time><name>PT6537</name></trkpt>
<trkpt lat="53.196914" lon="-2.000519"><ele>310</ele><time>2020-08-19T13:08:11Z</time><name>PT6538</name></trkpt>
<trkpt lat="53.196944" lon="-2.000520"><ele>310</ele><time>2020-08-19T13:08:14Z</time><name>PT6539</name></trkpt>
<trkpt lat="53.196982" lon="-2.000508"><ele>312</ele><time>2020-08-19T13:08:17Z</time><name>PT6540</name></trkpt>
<trkpt lat="53.197009" lon="-2.000495"><ele>312</ele><time>2020-08-19T13:08:21Z</time><name>PT6541</name></trkpt>
<trkpt lat="53.197042" lon="-2.000491"><ele>313</ele><time>2020-08-19T13:08:25Z</time><name>PT6542</name></trkpt>
<trkpt lat="53.197066" lon="-2.000474"><ele>315</ele><time>2020-08-19T13:08:28Z</time><name>PT6543</name></trkpt>
<trkpt lat="53.197091" lon="-2.000468"><ele>315</ele><time>2020-08-19T13:08:31Z</time><name>PT6544</name></trkpt>
<trkpt lat="53.197126" lon="-2.000471"><ele>316</ele><time>2020-08-19T13:08:35Z</time><name>PT6545</name></trkpt>
<trkpt lat="53.197158" lon="-2.000456"><ele>316</ele><time>2020-08-19T13:08:38Z</time><name>PT6546</name></trkpt>
<trkpt lat="53.197192" lon="-2.000457"><ele>316</ele><time>2020-08-19T13:08:43Z</time><name>PT6547</name></trkpt>
<trkpt lat="53.197237" lon="-2.000464"><ele>318</ele><time>2020-08-19T13:08:47Z</time><name>PT6548</name></trkpt>
<trkpt lat="53.197272" lon="-2.000474"><ele>319</ele><time>2020-08-19T13:08:50Z</time><name>PT6549</name></trkpt>
<trkpt lat="53.197303" lon="-2.000479"><ele>319</ele><time>2020-08-19T13:08:53Z</time><name>PT6550</name></trkpt>
<trkpt lat="53.197338" lon="-2.000491"><ele>321</ele><time>2020-08-19T13:08:56Z</time><name>PT6551</name></trkpt>
<trkpt lat="53.197362" lon="-2.000501"><ele>322</ele><time>2020-08-19T13:08:59Z</time><name>PT6552</name></trkpt>
<trkpt lat="53.197402" lon="-2.000506"><ele>323</ele><time>2020-08-19T13:09:04Z</time><name>PT6553</name></trkpt>
<trkpt lat="53.197438" lon="-2.000510"><ele>325</ele><time>2020-08-19T13:09:08Z</time><name>PT6554</name></trkpt>
<trkpt lat="53.197479" lon="-2.000511"><ele>325</ele><time>2020-08-19T13:09:11Z</time><name>PT6555</name></trkpt>
<trkpt lat="53.197508" lon="-2.000513"><ele>325</ele><time>2020-08-19T13:09:14Z</time><name>PT6556</name></trkpt>
<trkpt lat="53.197527" lon="-2.000515"><ele>325</ele><time>2020-08-19T13:09:17Z</time><name>PT6557</name></trkpt>
<trkpt lat="53.197598" lon="-2.000517"><ele>327</ele><time>2020-08-19T13:09:22Z</time><name>PT6558</name></trkpt>
<trkpt lat="53.197611" lon="-2.000514"><ele>327</ele><time>2020-08-19T13:09:23Z</time><name>PT6559</name></trkpt>
<trkpt lat="53.197629" lon="-2.000505"><ele>328</ele><time>2020-08-19T13:09:23Z</time><name>PT6560</name></trkpt>
<trkpt lat="53.197639" lon="-2.000502"><ele>328</ele><time>2020-08-19T13:09:25Z</time><name>PT6561</name></trkpt>
<trkpt lat="53.197657" lon="-2.000498"><ele>329</ele><time>2020-08-19T13:09:26Z</time><name>PT6562</name></trkpt>
<trkpt lat="53.197674" lon="-2.000496"><ele>329</ele><time>2020-08-19T13:09:26Z</time><name>PT6563</name></trkpt>
<trkpt lat="53.197685" lon="-2.000492"><ele>329</ele><time>2020-08-19T13:09:28Z</time><name>PT6564</name></trkpt>
<trkpt lat="53.197695" lon="-2.000488"><ele>329</ele><time>2020-08-19T13:09:29Z</time><name>PT6565</name></trkpt>
<trkpt lat="53.197706" lon="-2.000486"><ele>329</ele><time>2020-08-19T13:09:29Z</time><name>PT6566</name></trkpt>
<trkpt lat="53.197716" lon="-2.000483"><ele>330</ele><time>2020-08-19T13:09:31Z</time><name>PT6567</name></trkpt>
<trkpt lat="53.197729" lon="-2.000479"><ele>330</ele><time>2020-08-19T13:09:32Z</time><name>PT6568</name></trkpt>
<trkpt lat="53.197739" lon="-2.000473"><ele>330</ele><time>2020-08-19T13:09:32Z</time><name>PT6569</name></trkpt>
<trkpt lat="53.197750" lon="-2.000469"><ele>330</ele><time>2020-08-19T13:09:34Z</time><name>PT6570</name></trkpt>
<trkpt lat="53.197761" lon="-2.000466"><ele>330</ele><time>2020-08-19T13:09:35Z</time><name>PT6571</name></trkpt>
<trkpt lat="53.197770" lon="-2.000466"><ele>330</ele><time>2020-08-19T13:09:35Z</time><name>PT6572</name></trkpt>
<trkpt lat="53.197782" lon="-2.000466"><ele>331</ele><time>2020-08-19T13:09:37Z</time><name>PT6573</name></trkpt>
<trkpt lat="53.197792" lon="-2.000467"><ele>331</ele><time>2020-08-19T13:09:38Z</time><name>PT6574</name></trkpt>
<trkpt lat="53.197804" lon="-2.000469"><ele>331</ele><time>2020-08-19T13:09:38Z</time><name>PT6575</name></trkpt>
<trkpt lat="53.197817" lon="-2.000476"><ele>331</ele><time>2020-08-19T13:09:40Z</time><name>PT6576</name></trkpt>
<trkpt lat="53.197828" lon="-2.000483"><ele>331</ele><time>2020-08-19T13:09:41Z</time><name>PT6577</name></trkpt>
<trkpt lat="53.197837" lon="-2.000490"><ele>331</ele><time>2020-08-19T13:09:41Z</time><name>PT6578</name></trkpt>
<trkpt lat="53.197846" lon="-2.000497"><ele>332</ele><time>2020-08-19T13:09:43Z</time><name>PT6579</name></trkpt>
<trkpt lat="53.197854" lon="-2.000505"><ele>332</ele><time>2020-08-19T13:09:44Z</time><name>PT6580</name></trkpt>
<trkpt lat="53.197860" lon="-2.000512"><ele>332</ele><time>2020-08-19T13:09:44Z</time><name>PT6581</name></trkpt>
<trkpt lat="53.197866" lon="-2.000521"><ele>332</ele><time>2020-08-19T13:09:46Z</time><name>PT6582</name></trkpt>
<trkpt lat="53.197873" lon="-2.000531"><ele>332</ele><time>2020-08-19T13:09:47Z</time><name>PT6583</name></trkpt>
<trkpt lat="53.197879" lon="-2.000539"><ele>332</ele><time>2020-08-19T13:09:48Z</time><name>PT6584</name></trkpt>
<trkpt lat="53.197884" lon="-2.000548"><ele>333</ele><time>2020-08-19T13:09:49Z</time><name>PT6585</name></trkpt>
<trkpt lat="53.197879" lon="-2.000555"><ele>332</ele><time>2020-08-19T13:09:50Z</time><name>PT6586</name></trkpt>
<trkpt lat="53.197880" lon="-2.000566"><ele>333</ele><time>2020-08-19T13:09:50Z</time><name>PT6587</name></trkpt>
<trkpt lat="53.197884" lon="-2.000578"><ele>333</ele><time>2020-08-19T13:09:52Z</time><name>PT6588</name></trkpt>
<trkpt lat="53.197886" lon="-2.000586"><ele>333</ele><time>2020-08-19T13:09:53Z</time><name>PT6589</name></trkpt>
<trkpt lat="53.197888" lon="-2.000589"><ele>333</ele><time>2020-08-19T13:09:53Z</time><name>PT6590</name></trkpt>
<trkpt lat="53.197891" lon="-2.000589"><ele>333</ele><time>2020-08-19T13:09:55Z</time><name>PT6591</name></trkpt>
<trkpt lat="53.197892" lon="-2.000584"><ele>333</ele><time>2020-08-19T13:09:56Z</time><name>PT6592</name></trkpt>
<trkpt lat="53.197895" lon="-2.000580"><ele>333</ele><time>2020-08-19T13:09:56Z</time><name>PT6593</name></trkpt>
<trkpt lat="53.197895" lon="-2.000585"><ele>333</ele><time>2020-08-19T13:09:58Z</time><name>PT6594</name></trkpt>
<trkpt lat="53.197895" lon="-2.000587"><ele>333</ele><time>2020-08-19T13:09:59Z</time><name>PT6595</name></trkpt>
<trkpt lat="53.197895" lon="-2.000588"><ele>333</ele><time>2020-08-19T13:09:59Z</time><name>PT6596</name></trkpt>
<trkpt lat="53.197895" lon="-2.000589"><ele>333</ele><time>2020-08-19T13:10:01Z</time><name>PT6597</name></trkpt>
<trkpt lat="53.197894" lon="-2.000593"><ele>333</ele><time>2020-08-19T13:10:13Z</time><name>PT6598</name></trkpt>
<trkpt lat="53.197895" lon="-2.000594"><ele>333</ele><time>2020-08-19T13:10:14Z</time><name>PT6599</name></trkpt>
<trkpt lat="53.197896" lon="-2.000595"><ele>333</ele><time>2020-08-19T13:10:14Z</time><name>PT6600</name></trkpt>
<trkpt lat="53.197897" lon="-2.000595"><ele>333</ele><time>2020-08-19T13:10:16Z</time><name>PT6601</name></trkpt>
<trkpt lat="53.197895" lon="-2.000593"><ele>333</ele><time>2020-08-19T13:10:31Z</time><name>PT6602</name></trkpt>
<trkpt lat="53.197894" lon="-2.000597"><ele>333</ele><time>2020-08-19T13:10:32Z</time><name>PT6603</name></trkpt>
<trkpt lat="53.197893" lon="-2.000597"><ele>333</ele><time>2020-08-19T13:10:32Z</time><name>PT6604</name></trkpt>
<trkpt lat="53.197894" lon="-2.000599"><ele>333</ele><time>2020-08-19T13:10:34Z</time><name>PT6605</name></trkpt>
<trkpt lat="53.197894" lon="-2.000599"><ele>333</ele><time>2020-08-19T13:10:35Z</time><name>PT6606</name></trkpt>
<trkpt lat="53.197890" lon="-2.000605"><ele>333</ele><time>2020-08-19T13:10:44Z</time><name>PT6607</name></trkpt>
<trkpt lat="53.197890" lon="-2.000606"><ele>333</ele><time>2020-08-19T13:10:45Z</time><name>PT6608</name></trkpt>
<trkpt lat="53.197890" lon="-2.000615"><ele>333</ele><time>2020-08-19T13:10:46Z</time><name>PT6609</name></trkpt>
<trkpt lat="53.197892" lon="-2.000626"><ele>333</ele><time>2020-08-19T13:10:47Z</time><name>PT6610</name></trkpt>
<trkpt lat="53.197896" lon="-2.000636"><ele>333</ele><time>2020-08-19T13:10:48Z</time><name>PT6611</name></trkpt>
<trkpt lat="53.197897" lon="-2.000648"><ele>333</ele><time>2020-08-19T13:10:49Z</time><name>PT6612</name></trkpt>
<trkpt lat="53.197900" lon="-2.000663"><ele>333</ele><time>2020-08-19T13:10:50Z</time><name>PT6613</name></trkpt>
<trkpt lat="53.197903" lon="-2.000680"><ele>333</ele><time>2020-08-19T13:10:51Z</time><name>PT6614</name></trkpt>
<trkpt lat="53.197908" lon="-2.000698"><ele>333</ele><time>2020-08-19T13:10:52Z</time><name>PT6615</name></trkpt>
<trkpt lat="53.197914" lon="-2.000713"><ele>333</ele><time>2020-08-19T13:10:53Z</time><name>PT6616</name></trkpt>
<trkpt lat="53.197920" lon="-2.000727"><ele>333</ele><time>2020-08-19T13:10:53Z</time><name>PT6617</name></trkpt>
<trkpt lat="53.197922" lon="-2.000745"><ele>333</ele><time>2020-08-19T13:10:55Z</time><name>PT6618</name></trkpt>
<trkpt lat="53.197925" lon="-2.000759"><ele>333</ele><time>2020-08-19T13:10:56Z</time><name>PT6619</name></trkpt>
<trkpt lat="53.197930" lon="-2.000773"><ele>334</ele><time>2020-08-19T13:10:56Z</time><name>PT6620</name></trkpt>
<trkpt lat="53.197934" lon="-2.000786"><ele>334</ele><time>2020-08-19T13:10:58Z</time><name>PT6621</name></trkpt>
<trkpt lat="53.197940" lon="-2.000800"><ele>335</ele><time>2020-08-19T13:10:59Z</time><name>PT6622</name></trkpt>
<trkpt lat="53.197944" lon="-2.000815"><ele>335</ele><time>2020-08-19T13:10:59Z</time><name>PT6623</name></trkpt>
<trkpt lat="53.197947" lon="-2.000832"><ele>335</ele><time>2020-08-19T13:11:01Z</time><name>PT6624</name></trkpt>
<trkpt lat="53.197951" lon="-2.000844"><ele>335</ele><time>2020-08-19T13:11:02Z</time><name>PT6625</name></trkpt>
<trkpt lat="53.197957" lon="-2.000859"><ele>335</ele><time>2020-08-19T13:11:02Z</time><name>PT6626</name></trkpt>
<trkpt lat="53.197961" lon="-2.000875"><ele>335</ele><time>2020-08-19T13:11:04Z</time><name>PT6627</name></trkpt>
<trkpt lat="53.197964" lon="-2.000892"><ele>335</ele><time>2020-08-19T13:11:05Z</time><name>PT6628</name></trkpt>
<trkpt lat="53.197967" lon="-2.000908"><ele>335</ele><time>2020-08-19T13:11:05Z</time><name>PT6629</name></trkpt>
<trkpt lat="53.197971" lon="-2.000922"><ele>335</ele><time>2020-08-19T13:11:07Z</time><name>PT6630</name></trkpt>
<trkpt lat="53.197976" lon="-2.000936"><ele>335</ele><time>2020-08-19T13:11:08Z</time><name>PT6631</name></trkpt>
<trkpt lat="53.197981" lon="-2.000951"><ele>335</ele><time>2020-08-19T13:11:08Z</time><name>PT6632</name></trkpt>
<trkpt lat="53.197983" lon="-2.000966"><ele>336</ele><time>2020-08-19T13:11:10Z</time><name>PT6633</name></trkpt>
<trkpt lat="53.197984" lon="-2.000982"><ele>336</ele><time>2020-08-19T13:11:11Z</time><name>PT6634</name></trkpt>
<trkpt lat="53.197989" lon="-2.000998"><ele>336</ele><time>2020-08-19T13:11:11Z</time><name>PT6635</name></trkpt>
<trkpt lat="53.197993" lon="-2.001012"><ele>336</ele><time>2020-08-19T13:11:13Z</time><name>PT6636</name></trkpt>
<trkpt lat="53.197996" lon="-2.001025"><ele>336</ele><time>2020-08-19T13:11:14Z</time><name>PT6637</name></trkpt>
<trkpt lat="53.197999" lon="-2.001038"><ele>336</ele><time>2020-08-19T13:11:14Z</time><name>PT6638</name></trkpt>
<trkpt lat="53.198002" lon="-2.001049"><ele>337</ele><time>2020-08-19T13:11:16Z</time><name>PT6639</name></trkpt>
<trkpt lat="53.198005" lon="-2.001062"><ele>337</ele><time>2020-08-19T13:11:17Z</time><name>PT6640</name></trkpt>
<trkpt lat="53.198008" lon="-2.001080"><ele>337</ele><time>2020-08-19T13:11:17Z</time><name>PT6641</name></trkpt>
<trkpt lat="53.198012" lon="-2.001095"><ele>338</ele><time>2020-08-19T13:11:19Z</time><name>PT6642</name></trkpt>
<trkpt lat="53.198016" lon="-2.001111"><ele>338</ele><time>2020-08-19T13:11:20Z</time><name>PT6643</name></trkpt>
<trkpt lat="53.198022" lon="-2.001126"><ele>338</ele><time>2020-08-19T13:11:20Z</time><name>PT6644</name></trkpt>
<trkpt lat="53.198029" lon="-2.001139"><ele>338</ele><time>2020-08-19T13:11:22Z</time><name>PT6645</name></trkpt>
<trkpt lat="53.198033" lon="-2.001156"><ele>338</ele><time>2020-08-19T13:11:23Z</time><name>PT6646</name></trkpt>
<trkpt lat="53.198037" lon="-2.001176"><ele>339</ele><time>2020-08-19T13:11:23Z</time><name>PT6647</name></trkpt>
<trkpt lat="53.198039" lon="-2.001193"><ele>338</ele><time>2020-08-19T13:11:25Z</time><name>PT6648</name></trkpt>
<trkpt lat="53.198044" lon="-2.001209"><ele>339</ele><time>2020-08-19T13:11:26Z</time><name>PT6649</name></trkpt>
<trkpt lat="53.198050" lon="-2.001222"><ele>339</ele><time>2020-08-19T13:11:26Z</time><name>PT6650</name></trkpt>
<trkpt lat="53.198055" lon="-2.001234"><ele>339</ele><time>2020-08-19T13:11:28Z</time><name>PT6651</name></trkpt>
<trkpt lat="53.198056" lon="-2.001247"><ele>338</ele><time>2020-08-19T13:11:29Z</time><name>PT6652</name></trkpt>
<trkpt lat="53.198059" lon="-2.001262"><ele>338</ele><time>2020-08-19T13:11:29Z</time><name>PT6653</name></trkpt>
<trkpt lat="53.198063" lon="-2.001274"><ele>338</ele><time>2020-08-19T13:11:31Z</time><name>PT6654</name></trkpt>
<trkpt lat="53.198068" lon="-2.001287"><ele>338</ele><time>2020-08-19T13:11:32Z</time><name>PT6655</name></trkpt>
<trkpt lat="53.198073" lon="-2.001302"><ele>337</ele><time>2020-08-19T13:11:32Z</time><name>PT6656</name></trkpt>
<trkpt lat="53.198078" lon="-2.001316"><ele>338</ele><time>2020-08-19T13:11:34Z</time><name>PT6657</name></trkpt>
<trkpt lat="53.198083" lon="-2.001333"><ele>338</ele><time>2020-08-19T13:11:35Z</time><name>PT6658</name></trkpt>
<trkpt lat="53.198087" lon="-2.001350"><ele>338</ele><time>2020-08-19T13:11:35Z</time><name>PT6659</name></trkpt>
<trkpt lat="53.198091" lon="-2.001364"><ele>338</ele><time>2020-08-19T13:11:37Z</time><name>PT6660</name></trkpt>
<trkpt lat="53.198095" lon="-2.001382"><ele>338</ele><time>2020-08-19T13:11:38Z</time><name>PT6661</name></trkpt>
<trkpt lat="53.198101" lon="-2.001396"><ele>338</ele><time>2020-08-19T13:11:38Z</time><name>PT6662</name></trkpt>
<trkpt lat="53.198108" lon="-2.001413"><ele>339</ele><time>2020-08-19T13:11:40Z</time><name>PT6663</name></trkpt>
<trkpt lat="53.198113" lon="-2.001427"><ele>339</ele><time>2020-08-19T13:11:41Z</time><name>PT6664</name></trkpt>
<trkpt lat="53.198118" lon="-2.001442"><ele>339</ele><time>2020-08-19T13:11:41Z</time><name>PT6665</name></trkpt>
<trkpt lat="53.198122" lon="-2.001453"><ele>339</ele><time>2020-08-19T13:11:43Z</time><name>PT6666</name></trkpt>
<trkpt lat="53.198125" lon="-2.001469"><ele>338</ele><time>2020-08-19T13:11:44Z</time><name>PT6667</name></trkpt>
<trkpt lat="53.198129" lon="-2.001487"><ele>339</ele><time>2020-08-19T13:11:45Z</time><name>PT6668</name></trkpt>
<trkpt lat="53.198134" lon="-2.001505"><ele>339</ele><time>2020-08-19T13:11:46Z</time><name>PT6669</name></trkpt>
<trkpt lat="53.198137" lon="-2.001523"><ele>339</ele><time>2020-08-19T13:11:47Z</time><name>PT6670</name></trkpt>
<trkpt lat="53.198142" lon="-2.001539"><ele>339</ele><time>2020-08-19T13:11:47Z</time><name>PT6671</name></trkpt>
<trkpt lat="53.198147" lon="-2.001554"><ele>339</ele><time>2020-08-19T13:11:49Z</time><name>PT6672</name></trkpt>
<trkpt lat="53.198152" lon="-2.001571"><ele>340</ele><time>2020-08-19T13:11:50Z</time><name>PT6673</name></trkpt>
<trkpt lat="53.198156" lon="-2.001587"><ele>340</ele><time>2020-08-19T13:11:51Z</time><name>PT6674</name></trkpt>
<trkpt lat="53.198163" lon="-2.001601"><ele>340</ele><time>2020-08-19T13:11:52Z</time><name>PT6675</name></trkpt>
<trkpt lat="53.198167" lon="-2.001617"><ele>340</ele><time>2020-08-19T13:11:53Z</time><name>PT6676</name></trkpt>
<trkpt lat="53.198172" lon="-2.001629"><ele>340</ele><time>2020-08-19T13:11:53Z</time><name>PT6677</name></trkpt>
<trkpt lat="53.198177" lon="-2.001641"><ele>340</ele><time>2020-08-19T13:11:55Z</time><name>PT6678</name></trkpt>
<trkpt lat="53.198182" lon="-2.001658"><ele>340</ele><time>2020-08-19T13:11:56Z</time><name>PT6679</name></trkpt>
<trkpt lat="53.198184" lon="-2.001674"><ele>340</ele><time>2020-08-19T13:11:56Z</time><name>PT6680</name></trkpt>
<trkpt lat="53.198185" lon="-2.001693"><ele>340</ele><time>2020-08-19T13:11:58Z</time><name>PT6681</name></trkpt>
<trkpt lat="53.198188" lon="-2.001704"><ele>340</ele><time>2020-08-19T13:11:59Z</time><name>PT6682</name></trkpt>
<trkpt lat="53.198193" lon="-2.001722"><ele>341</ele><time>2020-08-19T13:11:59Z</time><name>PT6683</name></trkpt>
<trkpt lat="53.198198" lon="-2.001739"><ele>341</ele><time>2020-08-19T13:12:01Z</time><name>PT6684</name></trkpt>
<trkpt lat="53.198205" lon="-2.001755"><ele>341</ele><time>2020-08-19T13:12:02Z</time><name>PT6685</name></trkpt>
<trkpt lat="53.198210" lon="-2.001771"><ele>341</ele><time>2020-08-19T13:12:02Z</time><name>PT6686</name></trkpt>
<trkpt lat="53.198215" lon="-2.001787"><ele>341</ele><time>2020-08-19T13:12:04Z</time><name>PT6687</name></trkpt>
<trkpt lat="53.198220" lon="-2.001804"><ele>342</ele><time>2020-08-19T13:12:05Z</time><name>PT6688</name></trkpt>
<trkpt lat="53.198226" lon="-2.001822"><ele>342</ele><time>2020-08-19T13:12:05Z</time><name>PT6689</name></trkpt>
<trkpt lat="53.198230" lon="-2.001839"><ele>343</ele><time>2020-08-19T13:12:07Z</time><name>PT6690</name></trkpt>
<trkpt lat="53.198234" lon="-2.001856"><ele>343</ele><time>2020-08-19T13:12:08Z</time><name>PT6691</name></trkpt>
<trkpt lat="53.198240" lon="-2.001875"><ele>343</ele><time>2020-08-19T13:12:08Z</time><name>PT6692</name></trkpt>
<trkpt lat="53.198246" lon="-2.001891"><ele>343</ele><time>2020-08-19T13:12:10Z</time><name>PT6693</name></trkpt>
<trkpt lat="53.198250" lon="-2.001908"><ele>343</ele><time>2020-08-19T13:12:11Z</time><name>PT6694</name></trkpt>
<trkpt lat="53.198255" lon="-2.001926"><ele>343</ele><time>2020-08-19T13:12:11Z</time><name>PT6695</name></trkpt>
<trkpt lat="53.198259" lon="-2.001942"><ele>343</ele><time>2020-08-19T13:12:13Z</time><name>PT6696</name></trkpt>
<trkpt lat="53.198263" lon="-2.001957"><ele>343</ele><time>2020-08-19T13:12:14Z</time><name>PT6697</name></trkpt>
<trkpt lat="53.198268" lon="-2.001975"><ele>343</ele><time>2020-08-19T13:12:14Z</time><name>PT6698</name></trkpt>
<trkpt lat="53.198271" lon="-2.001992"><ele>344</ele><time>2020-08-19T13:12:16Z</time><name>PT6699</name></trkpt>
<trkpt lat="53.198276" lon="-2.002007"><ele>344</ele><time>2020-08-19T13:12:17Z</time><name>PT6700</name></trkpt>
<trkpt lat="53.198281" lon="-2.002022"><ele>344</ele><time>2020-08-19T13:12:18Z</time><name>PT6701</name></trkpt>
<trkpt lat="53.198288" lon="-2.002037"><ele>344</ele><time>2020-08-19T13:12:19Z</time><name>PT6702</name></trkpt>
<trkpt lat="53.198294" lon="-2.002050"><ele>344</ele><time>2020-08-19T13:12:20Z</time><name>PT6703</name></trkpt>
<trkpt lat="53.198300" lon="-2.002064"><ele>344</ele><time>2020-08-19T13:12:21Z</time><name>PT6704</name></trkpt>
<trkpt lat="53.198326" lon="-2.002109"><ele>344</ele><time>2020-08-19T13:12:25Z</time><name>PT6705</name></trkpt>
<trkpt lat="53.198352" lon="-2.002142"><ele>345</ele><time>2020-08-19T13:12:28Z</time><name>PT6706</name></trkpt>
<trkpt lat="53.198383" lon="-2.002174"><ele>345</ele><time>2020-08-19T13:12:32Z</time><name>PT6707</name></trkpt>
<trkpt lat="53.198407" lon="-2.002201"><ele>345</ele><time>2020-08-19T13:12:35Z</time><name>PT6708</name></trkpt>
<trkpt lat="53.198438" lon="-2.002230"><ele>345</ele><time>2020-08-19T13:12:38Z</time><name>PT6709</name></trkpt>
<trkpt lat="53.198472" lon="-2.002275"><ele>345</ele><time>2020-08-19T13:12:41Z</time><name>PT6710</name></trkpt>
<trkpt lat="53.198495" lon="-2.002304"><ele>345</ele><time>2020-08-19T13:12:44Z</time><name>PT6711</name></trkpt>
<trkpt lat="53.198526" lon="-2.002349"><ele>344</ele><time>2020-08-19T13:12:49Z</time><name>PT6712</name></trkpt>
<trkpt lat="53.198550" lon="-2.002377"><ele>345</ele><time>2020-08-19T13:12:52Z</time><name>PT6713</name></trkpt>
<trkpt lat="53.198574" lon="-2.002426"><ele>344</ele><time>2020-08-19T13:12:56Z</time><name>PT6714</name></trkpt>
<trkpt lat="53.198593" lon="-2.002465"><ele>344</ele><time>2020-08-19T13:12:59Z</time><name>PT6715</name></trkpt>
<trkpt lat="53.198607" lon="-2.002506"><ele>343</ele><time>2020-08-19T13:13:02Z</time><name>PT6716</name></trkpt>
<trkpt lat="53.198623" lon="-2.002534"><ele>342</ele><time>2020-08-19T13:13:05Z</time><name>PT6717</name></trkpt>
<trkpt lat="53.198648" lon="-2.002593"><ele>342</ele><time>2020-08-19T13:13:08Z</time><name>PT6718</name></trkpt>
<trkpt lat="53.198662" lon="-2.002645"><ele>341</ele><time>2020-08-19T13:13:11Z</time><name>PT6719</name></trkpt>
<trkpt lat="53.198680" lon="-2.002714"><ele>342</ele><time>2020-08-19T13:13:16Z</time><name>PT6720</name></trkpt>
<trkpt lat="53.198693" lon="-2.002788"><ele>343</ele><time>2020-08-19T13:13:20Z</time><name>PT6721</name></trkpt>
<trkpt lat="53.198701" lon="-2.002850"><ele>344</ele><time>2020-08-19T13:13:23Z</time><name>PT6722</name></trkpt>
<trkpt lat="53.198700" lon="-2.002920"><ele>344</ele><time>2020-08-19T13:13:26Z</time><name>PT6723</name></trkpt>
<trkpt lat="53.198699" lon="-2.002949"><ele>345</ele><time>2020-08-19T13:13:29Z</time><name>PT6724</name></trkpt>
<trkpt lat="53.198700" lon="-2.002956"><ele>346</ele><time>2020-08-19T13:13:32Z</time><name>PT6725</name></trkpt>
<trkpt lat="53.198716" lon="-2.003000"><ele>346</ele><time>2020-08-19T13:13:37Z</time><name>PT6726</name></trkpt>
<trkpt lat="53.198714" lon="-2.003082"><ele>346</ele><time>2020-08-19T13:13:41Z</time><name>PT6727</name></trkpt>
<trkpt lat="53.198722" lon="-2.003164"><ele>347</ele><time>2020-08-19T13:13:44Z</time><name>PT6728</name></trkpt>
<trkpt lat="53.198727" lon="-2.003202"><ele>348</ele><time>2020-08-19T13:13:49Z</time><name>PT6729</name></trkpt>
<trkpt lat="53.198722" lon="-2.003222"><ele>348</ele><time>2020-08-19T13:13:52Z</time><name>PT6730</name></trkpt>
<trkpt lat="53.198729" lon="-2.003245"><ele>349</ele><time>2020-08-19T13:13:55Z</time><name>PT6731</name></trkpt>
<trkpt lat="53.198732" lon="-2.003298"><ele>349</ele><time>2020-08-19T13:13:59Z</time><name>PT6732</name></trkpt>
<trkpt lat="53.198754" lon="-2.003354"><ele>352</ele><time>2020-08-19T13:14:02Z</time><name>PT6733</name></trkpt>
<trkpt lat="53.198751" lon="-2.003358"><ele>353</ele><time>2020-08-19T13:14:03Z</time><name>PT6734</name></trkpt>
<trkpt lat="53.198748" lon="-2.003362"><ele>354</ele><time>2020-08-19T13:14:04Z</time><name>PT6735</name></trkpt>
<trkpt lat="53.198753" lon="-2.003369"><ele>354</ele><time>2020-08-19T13:14:07Z</time><name>PT6736</name></trkpt>
<trkpt lat="53.198758" lon="-2.003380"><ele>354</ele><time>2020-08-19T13:14:08Z</time><name>PT6737</name></trkpt>
<trkpt lat="53.198761" lon="-2.003392"><ele>354</ele><time>2020-08-19T13:14:08Z</time><name>PT6738</name></trkpt>
<trkpt lat="53.198766" lon="-2.003404"><ele>355</ele><time>2020-08-19T13:14:10Z</time><name>PT6739</name></trkpt>
<trkpt lat="53.198773" lon="-2.003412"><ele>355</ele><time>2020-08-19T13:14:11Z</time><name>PT6740</name></trkpt>
<trkpt lat="53.198779" lon="-2.003422"><ele>355</ele><time>2020-08-19T13:14:11Z</time><name>PT6741</name></trkpt>
<trkpt lat="53.198787" lon="-2.003430"><ele>355</ele><time>2020-08-19T13:14:13Z</time><name>PT6742</name></trkpt>
<trkpt lat="53.198797" lon="-2.003438"><ele>355</ele><time>2020-08-19T13:14:14Z</time><name>PT6743</name></trkpt>
<trkpt lat="53.198804" lon="-2.003443"><ele>355</ele><time>2020-08-19T13:14:14Z</time><name>PT6744</name></trkpt>
<trkpt lat="53.198809" lon="-2.003448"><ele>355</ele><time>2020-08-19T13:14:16Z</time><name>PT6745</name></trkpt>
<trkpt lat="53.198812" lon="-2.003454"><ele>356</ele><time>2020-08-19T13:14:17Z</time><name>PT6746</name></trkpt>
<trkpt lat="53.198818" lon="-2.003459"><ele>356</ele><time>2020-08-19T13:14:17Z</time><name>PT6747</name></trkpt>
<trkpt lat="53.198826" lon="-2.003469"><ele>356</ele><time>2020-08-19T13:14:19Z</time><name>PT6748</name></trkpt>
<trkpt lat="53.198832" lon="-2.003478"><ele>356</ele><time>2020-08-19T13:14:20Z</time><name>PT6749</name></trkpt>
<trkpt lat="53.198839" lon="-2.003487"><ele>356</ele><time>2020-08-19T13:14:20Z</time><name>PT6750</name></trkpt>
<trkpt lat="53.198845" lon="-2.003497"><ele>356</ele><time>2020-08-19T13:14:22Z</time><name>PT6751</name></trkpt>
<trkpt lat="53.198851" lon="-2.003505"><ele>356</ele><time>2020-08-19T13:14:23Z</time><name>PT6752</name></trkpt>
<trkpt lat="53.198855" lon="-2.003514"><ele>357</ele><time>2020-08-19T13:14:23Z</time><name>PT6753</name></trkpt>
<trkpt lat="53.198862" lon="-2.003521"><ele>357</ele><time>2020-08-19T13:14:25Z</time><name>PT6754</name></trkpt>
<trkpt lat="53.198869" lon="-2.003525"><ele>357</ele><time>2020-08-19T13:14:26Z</time><name>PT6755</name></trkpt>
<trkpt lat="53.198877" lon="-2.003528"><ele>357</ele><time>2020-08-19T13:14:26Z</time><name>PT6756</name></trkpt>
<trkpt lat="53.198885" lon="-2.003534"><ele>358</ele><time>2020-08-19T13:14:28Z</time><name>PT6757</name></trkpt>
<trkpt lat="53.198894" lon="-2.003543"><ele>358</ele><time>2020-08-19T13:14:29Z</time><name>PT6758</name></trkpt>
<trkpt lat="53.198903" lon="-2.003550"><ele>358</ele><time>2020-08-19T13:14:29Z</time><name>PT6759</name></trkpt>
<trkpt lat="53.198914" lon="-2.003555"><ele>358</ele><time>2020-08-19T13:14:31Z</time><name>PT6760</name></trkpt>
<trkpt lat="53.198924" lon="-2.003560"><ele>358</ele><time>2020-08-19T13:14:32Z</time><name>PT6761</name></trkpt>
<trkpt lat="53.198933" lon="-2.003568"><ele>358</ele><time>2020-08-19T13:14:32Z</time><name>PT6762</name></trkpt>
<trkpt lat="53.198943" lon="-2.003574"><ele>358</ele><time>2020-08-19T13:14:34Z</time><name>PT6763</name></trkpt>
<trkpt lat="53.198955" lon="-2.003574"><ele>358</ele><time>2020-08-19T13:14:35Z</time><name>PT6764</name></trkpt>
<trkpt lat="53.198965" lon="-2.003573"><ele>358</ele><time>2020-08-19T13:14:35Z</time><name>PT6765</name></trkpt>
<trkpt lat="53.198975" lon="-2.003572"><ele>358</ele><time>2020-08-19T13:14:37Z</time><name>PT6766</name></trkpt>
<trkpt lat="53.198983" lon="-2.003574"><ele>358</ele><time>2020-08-19T13:14:38Z</time><name>PT6767</name></trkpt>
<trkpt lat="53.198991" lon="-2.003572"><ele>358</ele><time>2020-08-19T13:14:38Z</time><name>PT6768</name></trkpt>
<trkpt lat="53.198996" lon="-2.003572"><ele>357</ele><time>2020-08-19T13:14:40Z</time><name>PT6769</name></trkpt>
<trkpt lat="53.198998" lon="-2.003574"><ele>357</ele><time>2020-08-19T13:14:41Z</time><name>PT6770</name></trkpt>
<trkpt lat="53.199000" lon="-2.003576"><ele>357</ele><time>2020-08-19T13:14:41Z</time><name>PT6771</name></trkpt>
<trkpt lat="53.199001" lon="-2.003583"><ele>357</ele><time>2020-08-19T13:14:43Z</time><name>PT6772</name></trkpt>
<trkpt lat="53.199005" lon="-2.003592"><ele>357</ele><time>2020-08-19T13:14:44Z</time><name>PT6773</name></trkpt>
<trkpt lat="53.199009" lon="-2.003605"><ele>358</ele><time>2020-08-19T13:14:44Z</time><name>PT6774</name></trkpt>
<trkpt lat="53.199014" lon="-2.003614"><ele>358</ele><time>2020-08-19T13:14:46Z</time><name>PT6775</name></trkpt>
<trkpt lat="53.199023" lon="-2.003620"><ele>358</ele><time>2020-08-19T13:14:47Z</time><name>PT6776</name></trkpt>
<trkpt lat="53.199032" lon="-2.003624"><ele>358</ele><time>2020-08-19T13:14:47Z</time><name>PT6777</name></trkpt>
<trkpt lat="53.199040" lon="-2.003631"><ele>359</ele><time>2020-08-19T13:14:49Z</time><name>PT6778</name></trkpt>
<trkpt lat="53.199051" lon="-2.003637"><ele>359</ele><time>2020-08-19T13:14:50Z</time><name>PT6779</name></trkpt>
<trkpt lat="53.199060" lon="-2.003644"><ele>359</ele><time>2020-08-19T13:14:50Z</time><name>PT6780</name></trkpt>
<trkpt lat="53.199068" lon="-2.003653"><ele>359</ele><time>2020-08-19T13:14:52Z</time><name>PT6781</name></trkpt>
<trkpt lat="53.199077" lon="-2.003659"><ele>359</ele><time>2020-08-19T13:14:53Z</time><name>PT6782</name></trkpt>
<trkpt lat="53.199085" lon="-2.003667"><ele>360</ele><time>2020-08-19T13:14:53Z</time><name>PT6783</name></trkpt>
<trkpt lat="53.199093" lon="-2.003675"><ele>360</ele><time>2020-08-19T13:14:55Z</time><name>PT6784</name></trkpt>
<trkpt lat="53.199103" lon="-2.003680"><ele>360</ele><time>2020-08-19T13:14:56Z</time><name>PT6785</name></trkpt>
<trkpt lat="53.199115" lon="-2.003684"><ele>361</ele><time>2020-08-19T13:14:56Z</time><name>PT6786</name></trkpt>
<trkpt lat="53.199121" lon="-2.003684"><ele>361</ele><time>2020-08-19T13:14:58Z</time><name>PT6787</name></trkpt>
<trkpt lat="53.199131" lon="-2.003687"><ele>360</ele><time>2020-08-19T13:14:59Z</time><name>PT6788</name></trkpt>
<trkpt lat="53.199139" lon="-2.003689"><ele>361</ele><time>2020-08-19T13:15:00Z</time><name>PT6789</name></trkpt>
<trkpt lat="53.199149" lon="-2.003689"><ele>361</ele><time>2020-08-19T13:15:01Z</time><name>PT6790</name></trkpt>
<trkpt lat="53.199157" lon="-2.003690"><ele>361</ele><time>2020-08-19T13:15:02Z</time><name>PT6791</name></trkpt>
<trkpt lat="53.199165" lon="-2.003694"><ele>360</ele><time>2020-08-19T13:15:02Z</time><name>PT6792</name></trkpt>
<trkpt lat="53.199173" lon="-2.003700"><ele>361</ele><time>2020-08-19T13:15:04Z</time><name>PT6793</name></trkpt>
<trkpt lat="53.199183" lon="-2.003705"><ele>361</ele><time>2020-08-19T13:15:05Z</time><name>PT6794</name></trkpt>
<trkpt lat="53.199193" lon="-2.003704"><ele>361</ele><time>2020-08-19T13:15:05Z</time><name>PT6795</name></trkpt>
<trkpt lat="53.199204" lon="-2.003707"><ele>361</ele><time>2020-08-19T13:15:07Z</time><name>PT6796</name></trkpt>
<trkpt lat="53.199211" lon="-2.003710"><ele>361</ele><time>2020-08-19T13:15:08Z</time><name>PT6797</name></trkpt>
<trkpt lat="53.199219" lon="-2.003714"><ele>361</ele><time>2020-08-19T13:15:08Z</time><name>PT6798</name></trkpt>
<trkpt lat="53.199227" lon="-2.003721"><ele>361</ele><time>2020-08-19T13:15:10Z</time><name>PT6799</name></trkpt>
<trkpt lat="53.199236" lon="-2.003724"><ele>361</ele><time>2020-08-19T13:15:11Z</time><name>PT6800</name></trkpt>
<trkpt lat="53.199247" lon="-2.003727"><ele>361</ele><time>2020-08-19T13:15:12Z</time><name>PT6801</name></trkpt>
<trkpt lat="53.199256" lon="-2.003734"><ele>362</ele><time>2020-08-19T13:15:13Z</time><name>PT6802</name></trkpt>
<trkpt lat="53.199264" lon="-2.003744"><ele>362</ele><time>2020-08-19T13:15:14Z</time><name>PT6803</name></trkpt>
<trkpt lat="53.199272" lon="-2.003755"><ele>363</ele><time>2020-08-19T13:15:15Z</time><name>PT6804</name></trkpt>
<trkpt lat="53.199279" lon="-2.003763"><ele>363</ele><time>2020-08-19T13:15:16Z</time><name>PT6805</name></trkpt>
<trkpt lat="53.199285" lon="-2.003775"><ele>362</ele><time>2020-08-19T13:15:17Z</time><name>PT6806</name></trkpt>
<trkpt lat="53.199292" lon="-2.003785"><ele>363</ele><time>2020-08-19T13:15:18Z</time><name>PT6807</name></trkpt>
<trkpt lat="53.199302" lon="-2.003794"><ele>363</ele><time>2020-08-19T13:15:19Z</time><name>PT6808</name></trkpt>
<trkpt lat="53.199311" lon="-2.003801"><ele>363</ele><time>2020-08-19T13:15:20Z</time><name>PT6809</name></trkpt>
<trkpt lat="53.199319" lon="-2.003812"><ele>363</ele><time>2020-08-19T13:15:21Z</time><name>PT6810</name></trkpt>
<trkpt lat="53.199326" lon="-2.003826"><ele>363</ele><time>2020-08-19T13:15:22Z</time><name>PT6811</name></trkpt>
<trkpt lat="53.199333" lon="-2.003832"><ele>363</ele><time>2020-08-19T13:15:23Z</time><name>PT6812</name></trkpt>
<trkpt lat="53.199337" lon="-2.003839"><ele>364</ele><time>2020-08-19T13:15:24Z</time><name>PT6813</name></trkpt>
<trkpt lat="53.199341" lon="-2.003847"><ele>364</ele><time>2020-08-19T13:15:25Z</time><name>PT6814</name></trkpt>
<trkpt lat="53.199348" lon="-2.003855"><ele>364</ele><time>2020-08-19T13:15:26Z</time><name>PT6815</name></trkpt>
<trkpt lat="53.199358" lon="-2.003865"><ele>365</ele><time>2020-08-19T13:15:27Z</time><name>PT6816</name></trkpt>
<trkpt lat="53.199367" lon="-2.003872"><ele>365</ele><time>2020-08-19T13:15:28Z</time><name>PT6817</name></trkpt>
<trkpt lat="53.199373" lon="-2.003881"><ele>365</ele><time>2020-08-19T13:15:29Z</time><name>PT6818</name></trkpt>
<trkpt lat="53.199381" lon="-2.003888"><ele>365</ele><time>2020-08-19T13:15:29Z</time><name>PT6819</name></trkpt>
<trkpt lat="53.199390" lon="-2.003896"><ele>365</ele><time>2020-08-19T13:15:31Z</time><name>PT6820</name></trkpt>
<trkpt lat="53.199398" lon="-2.003902"><ele>365</ele><time>2020-08-19T13:15:32Z</time><name>PT6821</name></trkpt>
<trkpt lat="53.199402" lon="-2.003907"><ele>365</ele><time>2020-08-19T13:15:32Z</time><name>PT6822</name></trkpt>
<trkpt lat="53.199409" lon="-2.003918"><ele>365</ele><time>2020-08-19T13:15:34Z</time><name>PT6823</name></trkpt>
<trkpt lat="53.199415" lon="-2.003928"><ele>366</ele><time>2020-08-19T13:15:35Z</time><name>PT6824</name></trkpt>
<trkpt lat="53.199424" lon="-2.003939"><ele>366</ele><time>2020-08-19T13:15:35Z</time><name>PT6825</name></trkpt>
<trkpt lat="53.199430" lon="-2.003946"><ele>366</ele><time>2020-08-19T13:15:37Z</time><name>PT6826</name></trkpt>
<trkpt lat="53.199439" lon="-2.003956"><ele>366</ele><time>2020-08-19T13:15:38Z</time><name>PT6827</name></trkpt>
<trkpt lat="53.199448" lon="-2.003965"><ele>366</ele><time>2020-08-19T13:15:38Z</time><name>PT6828</name></trkpt>
<trkpt lat="53.199459" lon="-2.003972"><ele>366</ele><time>2020-08-19T13:15:40Z</time><name>PT6829</name></trkpt>
<trkpt lat="53.199468" lon="-2.003980"><ele>366</ele><time>2020-08-19T13:15:41Z</time><name>PT6830</name></trkpt>
<trkpt lat="53.199476" lon="-2.003988"><ele>366</ele><time>2020-08-19T13:15:41Z</time><name>PT6831</name></trkpt>
<trkpt lat="53.199487" lon="-2.003997"><ele>366</ele><time>2020-08-19T13:15:43Z</time><name>PT6832</name></trkpt>
<trkpt lat="53.199497" lon="-2.004008"><ele>367</ele><time>2020-08-19T13:15:44Z</time><name>PT6833</name></trkpt>
<trkpt lat="53.199509" lon="-2.004019"><ele>367</ele><time>2020-08-19T13:15:44Z</time><name>PT6834</name></trkpt>
<trkpt lat="53.199518" lon="-2.004024"><ele>367</ele><time>2020-08-19T13:15:46Z</time><name>PT6835</name></trkpt>
<trkpt lat="53.199526" lon="-2.004030"><ele>368</ele><time>2020-08-19T13:15:47Z</time><name>PT6836</name></trkpt>
<trkpt lat="53.199536" lon="-2.004038"><ele>368</ele><time>2020-08-19T13:15:47Z</time><name>PT6837</name></trkpt>
<trkpt lat="53.199546" lon="-2.004044"><ele>368</ele><time>2020-08-19T13:15:49Z</time><name>PT6838</name></trkpt>
<trkpt lat="53.199555" lon="-2.004054"><ele>368</ele><time>2020-08-19T13:15:50Z</time><name>PT6839</name></trkpt>
<trkpt lat="53.199565" lon="-2.004062"><ele>368</ele><time>2020-08-19T13:15:50Z</time><name>PT6840</name></trkpt>
<trkpt lat="53.199575" lon="-2.004071"><ele>369</ele><time>2020-08-19T13:15:52Z</time><name>PT6841</name></trkpt>
<trkpt lat="53.199585" lon="-2.004081"><ele>369</ele><time>2020-08-19T13:15:53Z</time><name>PT6842</name></trkpt>
<trkpt lat="53.199594" lon="-2.004087"><ele>369</ele><time>2020-08-19T13:15:53Z</time><name>PT6843</name></trkpt>
<trkpt lat="53.199604" lon="-2.004091"><ele>369</ele><time>2020-08-19T13:15:55Z</time><name>PT6844</name></trkpt>
<trkpt lat="53.199614" lon="-2.004097"><ele>370</ele><time>2020-08-19T13:15:56Z</time><name>PT6845</name></trkpt>
<trkpt lat="53.199625" lon="-2.004108"><ele>370</ele><time>2020-08-19T13:15:56Z</time><name>PT6846</name></trkpt>
<trkpt lat="53.199635" lon="-2.004120"><ele>370</ele><time>2020-08-19T13:15:58Z</time><name>PT6847</name></trkpt>
<trkpt lat="53.199645" lon="-2.004133"><ele>371</ele><time>2020-08-19T13:15:59Z</time><name>PT6848</name></trkpt>
<trkpt lat="53.199654" lon="-2.004143"><ele>371</ele><time>2020-08-19T13:15:59Z</time><name>PT6849</name></trkpt>
<trkpt lat="53.199664" lon="-2.004152"><ele>371</ele><time>2020-08-19T13:16:01Z</time><name>PT6850</name></trkpt>
<trkpt lat="53.199675" lon="-2.004160"><ele>371</ele><time>2020-08-19T13:16:02Z</time><name>PT6851</name></trkpt>
<trkpt lat="53.199684" lon="-2.004168"><ele>371</ele><time>2020-08-19T13:16:02Z</time><name>PT6852</name></trkpt>
<trkpt lat="53.199696" lon="-2.004177"><ele>371</ele><time>2020-08-19T13:16:04Z</time><name>PT6853</name></trkpt>
<trkpt lat="53.199707" lon="-2.004183"><ele>371</ele><time>2020-08-19T13:16:05Z</time><name>PT6854</name></trkpt>
<trkpt lat="53.199718" lon="-2.004185"><ele>371</ele><time>2020-08-19T13:16:05Z</time><name>PT6855</name></trkpt>
<trkpt lat="53.199729" lon="-2.004192"><ele>371</ele><time>2020-08-19T13:16:07Z</time><name>PT6856</name></trkpt>
<trkpt lat="53.199737" lon="-2.004198"><ele>371</ele><time>2020-08-19T13:16:08Z</time><name>PT6857</name></trkpt>
<trkpt lat="53.199744" lon="-2.004210"><ele>371</ele><time>2020-08-19T13:16:09Z</time><name>PT6858</name></trkpt>
<trkpt lat="53.199753" lon="-2.004217"><ele>371</ele><time>2020-08-19T13:16:10Z</time><name>PT6859</name></trkpt>
<trkpt lat="53.199764" lon="-2.004224"><ele>371</ele><time>2020-08-19T13:16:11Z</time><name>PT6860</name></trkpt>
<trkpt lat="53.199775" lon="-2.004231"><ele>371</ele><time>2020-08-19T13:16:12Z</time><name>PT6861</name></trkpt>
<trkpt lat="53.199785" lon="-2.004240"><ele>372</ele><time>2020-08-19T13:16:13Z</time><name>PT6862</name></trkpt>
<trkpt lat="53.199796" lon="-2.004250"><ele>372</ele><time>2020-08-19T13:16:14Z</time><name>PT6863</name></trkpt>
<trkpt lat="53.199807" lon="-2.004260"><ele>372</ele><time>2020-08-19T13:16:15Z</time><name>PT6864</name></trkpt>
<trkpt lat="53.199817" lon="-2.004269"><ele>372</ele><time>2020-08-19T13:16:16Z</time><name>PT6865</name></trkpt>
<trkpt lat="53.199830" lon="-2.004277"><ele>372</ele><time>2020-08-19T13:16:17Z</time><name>PT6866</name></trkpt>
<trkpt lat="53.199842" lon="-2.004282"><ele>373</ele><time>2020-08-19T13:16:18Z</time><name>PT6867</name></trkpt>
<trkpt lat="53.199852" lon="-2.004292"><ele>373</ele><time>2020-08-19T13:16:19Z</time><name>PT6868</name></trkpt>
<trkpt lat="53.199862" lon="-2.004307"><ele>373</ele><time>2020-08-19T13:16:20Z</time><name>PT6869</name></trkpt>
<trkpt lat="53.199873" lon="-2.004319"><ele>373</ele><time>2020-08-19T13:16:20Z</time><name>PT6870</name></trkpt>
<trkpt lat="53.199885" lon="-2.004330"><ele>374</ele><time>2020-08-19T13:16:22Z</time><name>PT6871</name></trkpt>
<trkpt lat="53.199897" lon="-2.004339"><ele>374</ele><time>2020-08-19T13:16:23Z</time><name>PT6872</name></trkpt>
<trkpt lat="53.199907" lon="-2.004348"><ele>374</ele><time>2020-08-19T13:16:23Z</time><name>PT6873</name></trkpt>
<trkpt lat="53.199916" lon="-2.004360"><ele>374</ele><time>2020-08-19T13:16:25Z</time><name>PT6874</name></trkpt>
<trkpt lat="53.199924" lon="-2.004368"><ele>374</ele><time>2020-08-19T13:16:26Z</time><name>PT6875</name></trkpt>
<trkpt lat="53.199932" lon="-2.004382"><ele>374</ele><time>2020-08-19T13:16:26Z</time><name>PT6876</name></trkpt>
<trkpt lat="53.199942" lon="-2.004392"><ele>375</ele><time>2020-08-19T13:16:28Z</time><name>PT6877</name></trkpt>
<trkpt lat="53.199952" lon="-2.004397"><ele>375</ele><time>2020-08-19T13:16:29Z</time><name>PT6878</name></trkpt>
<trkpt lat="53.199963" lon="-2.004406"><ele>375</ele><time>2020-08-19T13:16:29Z</time><name>PT6879</name></trkpt>
<trkpt lat="53.199974" lon="-2.004414"><ele>375</ele><time>2020-08-19T13:16:31Z</time><name>PT6880</name></trkpt>
<trkpt lat="53.199983" lon="-2.004417"><ele>374</ele><time>2020-08-19T13:16:32Z</time><name>PT6881</name></trkpt>
<trkpt lat="53.199995" lon="-2.004420"><ele>375</ele><time>2020-08-19T13:16:32Z</time><name>PT6882</name></trkpt>
<trkpt lat="53.200008" lon="-2.004423"><ele>375</ele><time>2020-08-19T13:16:34Z</time><name>PT6883</name></trkpt>
<trkpt lat="53.200017" lon="-2.004425"><ele>375</ele><time>2020-08-19T13:16:35Z</time><name>PT6884</name></trkpt>
<trkpt lat="53.200024" lon="-2.004434"><ele>375</ele><time>2020-08-19T13:16:35Z</time><name>PT6885</name></trkpt>
<trkpt lat="53.200034" lon="-2.004440"><ele>375</ele><time>2020-08-19T13:16:37Z</time><name>PT6886</name></trkpt>
<trkpt lat="53.200045" lon="-2.004441"><ele>375</ele><time>2020-08-19T13:16:38Z</time><name>PT6887</name></trkpt>
<trkpt lat="53.200056" lon="-2.004443"><ele>375</ele><time>2020-08-19T13:16:38Z</time><name>PT6888</name></trkpt>
<trkpt lat="53.200065" lon="-2.004444"><ele>375</ele><time>2020-08-19T13:16:40Z</time><name>PT6889</name></trkpt>
<trkpt lat="53.200076" lon="-2.004444"><ele>375</ele><time>2020-08-19T13:16:41Z</time><name>PT6890</name></trkpt>
<trkpt lat="53.200087" lon="-2.004446"><ele>375</ele><time>2020-08-19T13:16:41Z</time><name>PT6891</name></trkpt>
<trkpt lat="53.200102" lon="-2.004454"><ele>375</ele><time>2020-08-19T13:16:43Z</time><name>PT6892</name></trkpt>
<trkpt lat="53.200113" lon="-2.004466"><ele>375</ele><time>2020-08-19T13:16:44Z</time><name>PT6893</name></trkpt>
<trkpt lat="53.200122" lon="-2.004477"><ele>376</ele><time>2020-08-19T13:16:44Z</time><name>PT6894</name></trkpt>
<trkpt lat="53.200133" lon="-2.004484"><ele>376</ele><time>2020-08-19T13:16:46Z</time><name>PT6895</name></trkpt>
<trkpt lat="53.200142" lon="-2.004491"><ele>376</ele><time>2020-08-19T13:16:47Z</time><name>PT6896</name></trkpt>
<trkpt lat="53.200150" lon="-2.004502"><ele>376</ele><time>2020-08-19T13:16:47Z</time><name>PT6897</name></trkpt>
<trkpt lat="53.200158" lon="-2.004515"><ele>375</ele><time>2020-08-19T13:16:49Z</time><name>PT6898</name></trkpt>
<trkpt lat="53.200167" lon="-2.004526"><ele>376</ele><time>2020-08-19T13:16:50Z</time><name>PT6899</name></trkpt>
<trkpt lat="53.200177" lon="-2.004535"><ele>376</ele><time>2020-08-19T13:16:50Z</time><name>PT6900</name></trkpt>
<trkpt lat="53.200186" lon="-2.004544"><ele>376</ele><time>2020-08-19T13:16:52Z</time><name>PT6901</name></trkpt>
<trkpt lat="53.200194" lon="-2.004557"><ele>376</ele><time>2020-08-19T13:16:53Z</time><name>PT6902</name></trkpt>
<trkpt lat="53.200203" lon="-2.004570"><ele>376</ele><time>2020-08-19T13:16:53Z</time><name>PT6903</name></trkpt>
<trkpt lat="53.200212" lon="-2.004581"><ele>377</ele><time>2020-08-19T13:16:55Z</time><name>PT6904</name></trkpt>
<trkpt lat="53.200220" lon="-2.004587"><ele>377</ele><time>2020-08-19T13:16:56Z</time><name>PT6905</name></trkpt>
<trkpt lat="53.200228" lon="-2.004592"><ele>376</ele><time>2020-08-19T13:16:56Z</time><name>PT6906</name></trkpt>
<trkpt lat="53.200236" lon="-2.004598"><ele>376</ele><time>2020-08-19T13:16:58Z</time><name>PT6907</name></trkpt>
<trkpt lat="53.200242" lon="-2.004604"><ele>376</ele><time>2020-08-19T13:16:59Z</time><name>PT6908</name></trkpt>
<trkpt lat="53.200249" lon="-2.004601"><ele>376</ele><time>2020-08-19T13:16:59Z</time><name>PT6909</name></trkpt>
<trkpt lat="53.200256" lon="-2.004594"><ele>376</ele><time>2020-08-19T13:17:01Z</time><name>PT6910</name></trkpt>
<trkpt lat="53.200263" lon="-2.004589"><ele>376</ele><time>2020-08-19T13:17:02Z</time><name>PT6911</name></trkpt>
<trkpt lat="53.200271" lon="-2.004584"><ele>376</ele><time>2020-08-19T13:17:03Z</time><name>PT6912</name></trkpt>
<trkpt lat="53.200306" lon="-2.004589"><ele>375</ele><time>2020-08-19T13:17:07Z</time><name>PT6913</name></trkpt>
<trkpt lat="53.200333" lon="-2.004632"><ele>375</ele><time>2020-08-19T13:17:11Z</time><name>PT6914</name></trkpt>
<trkpt lat="53.200348" lon="-2.004682"><ele>375</ele><time>2020-08-19T13:17:14Z</time><name>PT6915</name></trkpt>
<trkpt lat="53.200370" lon="-2.004723"><ele>375</ele><time>2020-08-19T13:17:17Z</time><name>PT6916</name></trkpt>
<trkpt lat="53.200403" lon="-2.004769"><ele>375</ele><time>2020-08-19T13:17:20Z</time><name>PT6917</name></trkpt>
<trkpt lat="53.200423" lon="-2.004803"><ele>375</ele><time>2020-08-19T13:17:23Z</time><name>PT6918</name></trkpt>
<trkpt lat="53.200452" lon="-2.004866"><ele>376</ele><time>2020-08-19T13:17:28Z</time><name>PT6919</name></trkpt>
<trkpt lat="53.200483" lon="-2.004910"><ele>377</ele><time>2020-08-19T13:17:32Z</time><name>PT6920</name></trkpt>
<trkpt lat="53.200507" lon="-2.004958"><ele>377</ele><time>2020-08-19T13:17:35Z</time><name>PT6921</name></trkpt>
<trkpt lat="53.200528" lon="-2.004993"><ele>377</ele><time>2020-08-19T13:17:38Z</time><name>PT6922</name></trkpt>
<trkpt lat="53.200542" lon="-2.005048"><ele>378</ele><time>2020-08-19T13:17:43Z</time><name>PT6923</name></trkpt>
<trkpt lat="53.200551" lon="-2.005096"><ele>379</ele><time>2020-08-19T13:17:46Z</time><name>PT6924</name></trkpt>
<trkpt lat="53.200557" lon="-2.005145"><ele>379</ele><time>2020-08-19T13:17:49Z</time><name>PT6925</name></trkpt>
<trkpt lat="53.200565" lon="-2.005201"><ele>380</ele><time>2020-08-19T13:17:52Z</time><name>PT6926</name></trkpt>
<trkpt lat="53.200586" lon="-2.005239"><ele>380</ele><time>2020-08-19T13:17:55Z</time><name>PT6927</name></trkpt>
<trkpt lat="53.200609" lon="-2.005292"><ele>380</ele><time>2020-08-19T13:17:59Z</time><name>PT6928</name></trkpt>
<trkpt lat="53.200637" lon="-2.005350"><ele>381</ele><time>2020-08-19T13:18:02Z</time><name>PT6929</name></trkpt>
<trkpt lat="53.200663" lon="-2.005398"><ele>382</ele><time>2020-08-19T13:18:07Z</time><name>PT6930</name></trkpt>
<trkpt lat="53.200681" lon="-2.005461"><ele>382</ele><time>2020-08-19T13:18:11Z</time><name>PT6931</name></trkpt>
<trkpt lat="53.200704" lon="-2.005526"><ele>384</ele><time>2020-08-19T13:18:14Z</time><name>PT6932</name></trkpt>
<trkpt lat="53.200728" lon="-2.005546"><ele>385</ele><time>2020-08-19T13:18:17Z</time><name>PT6933</name></trkpt>
<trkpt lat="53.200761" lon="-2.005591"><ele>385</ele><time>2020-08-19T13:18:22Z</time><name>PT6934</name></trkpt>
<trkpt lat="53.200788" lon="-2.005624"><ele>385</ele><time>2020-08-19T13:18:25Z</time><name>PT6935</name></trkpt>
<trkpt lat="53.200831" lon="-2.005632"><ele>384</ele><time>2020-08-19T13:18:29Z</time><name>PT6936</name></trkpt>
<trkpt lat="53.200864" lon="-2.005645"><ele>384</ele><time>2020-08-19T13:18:32Z</time><name>PT6937</name></trkpt>
<trkpt lat="53.200901" lon="-2.005658"><ele>385</ele><time>2020-08-19T13:18:35Z</time><name>PT6938</name></trkpt>
<trkpt lat="53.200922" lon="-2.005680"><ele>386</ele><time>2020-08-19T13:18:40Z</time><name>PT6939</name></trkpt>
<trkpt lat="53.200939" lon="-2.005707"><ele>387</ele><time>2020-08-19T13:18:43Z</time><name>PT6940</name></trkpt>
<trkpt lat="53.200945" lon="-2.005747"><ele>388</ele><time>2020-08-19T13:18:46Z</time><name>PT6941</name></trkpt>
<trkpt lat="53.200977" lon="-2.005782"><ele>389</ele><time>2020-08-19T13:18:50Z</time><name>PT6942</name></trkpt>
<trkpt lat="53.200999" lon="-2.005810"><ele>391</ele><time>2020-08-19T13:18:53Z</time><name>PT6943</name></trkpt>
<trkpt lat="53.201013" lon="-2.005860"><ele>390</ele><time>2020-08-19T13:18:58Z</time><name>PT6944</name></trkpt>
<trkpt lat="53.201035" lon="-2.005927"><ele>391</ele><time>2020-08-19T13:19:02Z</time><name>PT6945</name></trkpt>
<trkpt lat="53.201053" lon="-2.005958"><ele>391</ele><time>2020-08-19T13:19:05Z</time><name>PT6946</name></trkpt>
<trkpt lat="53.201093" lon="-2.005970"><ele>392</ele><time>2020-08-19T13:19:08Z</time><name>PT6947</name></trkpt>
<trkpt lat="53.201118" lon="-2.005976"><ele>392</ele><time>2020-08-19T13:19:11Z</time><name>PT6948</name></trkpt>
<trkpt lat="53.201139" lon="-2.005987"><ele>393</ele><time>2020-08-19T13:19:14Z</time><name>PT6949</name></trkpt>
<trkpt lat="53.201157" lon="-2.006014"><ele>394</ele><time>2020-08-19T13:19:17Z</time><name>PT6950</name></trkpt>
<trkpt lat="53.201177" lon="-2.006043"><ele>394</ele><time>2020-08-19T13:19:21Z</time><name>PT6951</name></trkpt>
<trkpt lat="53.201219" lon="-2.006079"><ele>394</ele><time>2020-08-19T13:19:25Z</time><name>PT6952</name></trkpt>
<trkpt lat="53.201245" lon="-2.006101"><ele>395</ele><time>2020-08-19T13:19:28Z</time><name>PT6953</name></trkpt>
<trkpt lat="53.201271" lon="-2.006119"><ele>395</ele><time>2020-08-19T13:19:31Z</time><name>PT6954</name></trkpt>
<trkpt lat="53.201283" lon="-2.006134"><ele>395</ele><time>2020-08-19T13:19:34Z</time><name>PT6955</name></trkpt>
<trkpt lat="53.201282" lon="-2.006139"><ele>395</ele><time>2020-08-19T13:19:38Z</time><name>PT6956</name></trkpt>
<trkpt lat="53.201292" lon="-2.006186"><ele>395</ele><time>2020-08-19T13:19:41Z</time><name>PT6957</name></trkpt>
<trkpt lat="53.201309" lon="-2.006220"><ele>396</ele><time>2020-08-19T13:19:44Z</time><name>PT6958</name></trkpt>
<trkpt lat="53.201338" lon="-2.006257"><ele>397</ele><time>2020-08-19T13:19:49Z</time><name>PT6959</name></trkpt>
<trkpt lat="53.201363" lon="-2.006293"><ele>397</ele><time>2020-08-19T13:19:52Z</time><name>PT6960</name></trkpt>
<trkpt lat="53.201385" lon="-2.006332"><ele>397</ele><time>2020-08-19T13:19:55Z</time><name>PT6961</name></trkpt>
<trkpt lat="53.201415" lon="-2.006384"><ele>398</ele><time>2020-08-19T13:19:59Z</time><name>PT6962</name></trkpt>
<trkpt lat="53.201438" lon="-2.006449"><ele>398</ele><time>2020-08-19T13:20:02Z</time><name>PT6963</name></trkpt>
<trkpt lat="53.201461" lon="-2.006473"><ele>398</ele><time>2020-08-19T13:20:05Z</time><name>PT6964</name></trkpt>
<trkpt lat="53.201493" lon="-2.006519"><ele>399</ele><time>2020-08-19T13:20:10Z</time><name>PT6965</name></trkpt>
<trkpt lat="53.201509" lon="-2.006556"><ele>398</ele><time>2020-08-19T13:20:13Z</time><name>PT6966</name></trkpt>
<trkpt lat="53.201536" lon="-2.006601"><ele>399</ele><time>2020-08-19T13:20:17Z</time><name>PT6967</name></trkpt>
<trkpt lat="53.201558" lon="-2.006640"><ele>399</ele><time>2020-08-19T13:20:20Z</time><name>PT6968</name></trkpt>
<trkpt lat="53.201590" lon="-2.006700"><ele>400</ele><time>2020-08-19T13:20:23Z</time><name>PT6969</name></trkpt>
<trkpt lat="53.201603" lon="-2.006767"><ele>401</ele><time>2020-08-19T13:20:28Z</time><name>PT6970</name></trkpt>
<trkpt lat="53.201617" lon="-2.006821"><ele>401</ele><time>2020-08-19T13:20:31Z</time><name>PT6971</name></trkpt>
<trkpt lat="53.201654" lon="-2.006869"><ele>402</ele><time>2020-08-19T13:20:35Z</time><name>PT6972</name></trkpt>
<trkpt lat="53.201685" lon="-2.006889"><ele>403</ele><time>2020-08-19T13:20:38Z</time><name>PT6973</name></trkpt>
<trkpt lat="53.201718" lon="-2.006933"><ele>403</ele><time>2020-08-19T13:20:41Z</time><name>PT6974</name></trkpt>
<trkpt lat="53.201760" lon="-2.006965"><ele>404</ele><time>2020-08-19T13:20:46Z</time><name>PT6975</name></trkpt>
<trkpt lat="53.201788" lon="-2.006996"><ele>403</ele><time>2020-08-19T13:20:49Z</time><name>PT6976</name></trkpt>
<trkpt lat="53.201811" lon="-2.007057"><ele>403</ele><time>2020-08-19T13:20:53Z</time><name>PT6977</name></trkpt>
<trkpt lat="53.201846" lon="-2.007065"><ele>404</ele><time>2020-08-19T13:20:56Z</time><name>PT6978</name></trkpt>
<trkpt lat="53.201890" lon="-2.007059"><ele>405</ele><time>2020-08-19T13:20:59Z</time><name>PT6979</name></trkpt>
<trkpt lat="53.201930" lon="-2.007055"><ele>406</ele><time>2020-08-19T13:21:04Z</time><name>PT6980</name></trkpt>
<trkpt lat="53.201957" lon="-2.007077"><ele>407</ele><time>2020-08-19T13:21:07Z</time><name>PT6981</name></trkpt>
<trkpt lat="53.202007" lon="-2.007084"><ele>409</ele><time>2020-08-19T13:21:11Z</time><name>PT6982</name></trkpt>
<trkpt lat="53.202049" lon="-2.007083"><ele>409</ele><time>2020-08-19T13:21:14Z</time><name>PT6983</name></trkpt>
<trkpt lat="53.202072" lon="-2.007088"><ele>409</ele><time>2020-08-19T13:21:17Z</time><name>PT6984</name></trkpt>
<trkpt lat="53.202102" lon="-2.007080"><ele>410</ele><time>2020-08-19T13:21:22Z</time><name>PT6985</name></trkpt>
<trkpt lat="53.202110" lon="-2.007066"><ele>410</ele><time>2020-08-19T13:21:26Z</time><name>PT6986</name></trkpt>
<trkpt lat="53.202116" lon="-2.007051"><ele>410</ele><time>2020-08-19T13:21:29Z</time><name>PT6987</name></trkpt>
<trkpt lat="53.202131" lon="-2.007066"><ele>412</ele><time>2020-08-19T13:21:32Z</time><name>PT6988</name></trkpt>
<trkpt lat="53.202131" lon="-2.007064"><ele>411</ele><time>2020-08-19T13:21:34Z</time><name>PT6989</name></trkpt>
<trkpt lat="53.202130" lon="-2.007066"><ele>411</ele><time>2020-08-19T13:22:19Z</time><name>PT6990</name></trkpt>
<trkpt lat="53.202138" lon="-2.007068"><ele>411</ele><time>2020-08-19T13:22:20Z</time><name>PT6991</name></trkpt>
<trkpt lat="53.202150" lon="-2.007071"><ele>412</ele><time>2020-08-19T13:22:20Z</time><name>PT6992</name></trkpt>
<trkpt lat="53.202162" lon="-2.007078"><ele>412</ele><time>2020-08-19T13:22:22Z</time><name>PT6993</name></trkpt>
<trkpt lat="53.202175" lon="-2.007084"><ele>412</ele><time>2020-08-19T13:22:23Z</time><name>PT6994</name></trkpt>
<trkpt lat="53.202183" lon="-2.007082"><ele>412</ele><time>2020-08-19T13:22:23Z</time><name>PT6995</name></trkpt>
<trkpt lat="53.202194" lon="-2.007089"><ele>412</ele><time>2020-08-19T13:22:25Z</time><name>PT6996</name></trkpt>
<trkpt lat="53.202202" lon="-2.007094"><ele>411</ele><time>2020-08-19T13:22:26Z</time><name>PT6997</name></trkpt>
<trkpt lat="53.202212" lon="-2.007096"><ele>412</ele><time>2020-08-19T13:22:26Z</time><name>PT6998</name></trkpt>
<trkpt lat="53.202223" lon="-2.007101"><ele>411</ele><time>2020-08-19T13:22:28Z</time><name>PT6999</name></trkpt>
<trkpt lat="53.202232" lon="-2.007106"><ele>411</ele><time>2020-08-19T13:22:29Z</time><name>PT7000</name></trkpt>
<trkpt lat="53.202242" lon="-2.007113"><ele>411</ele><time>2020-08-19T13:22:29Z</time><name>PT7001</name></trkpt>
<trkpt lat="53.202251" lon="-2.007119"><ele>411</ele><time>2020-08-19T13:22:31Z</time><name>PT7002</name></trkpt>
<trkpt lat="53.202262" lon="-2.007128"><ele>411</ele><time>2020-08-19T13:22:32Z</time><name>PT7003</name></trkpt>
<trkpt lat="53.202272" lon="-2.007136"><ele>411</ele><time>2020-08-19T13:22:32Z</time><name>PT7004</name></trkpt>
<trkpt lat="53.202282" lon="-2.007147"><ele>411</ele><time>2020-08-19T13:22:34Z</time><name>PT7005</name></trkpt>
<trkpt lat="53.202294" lon="-2.007156"><ele>411</ele><time>2020-08-19T13:22:35Z</time><name>PT7006</name></trkpt>
<trkpt lat="53.202304" lon="-2.007165"><ele>411</ele><time>2020-08-19T13:22:35Z</time><name>PT7007</name></trkpt>
<trkpt lat="53.202316" lon="-2.007170"><ele>411</ele><time>2020-08-19T13:22:37Z</time><name>PT7008</name></trkpt>
<trkpt lat="53.202326" lon="-2.007177"><ele>411</ele><time>2020-08-19T13:22:38Z</time><name>PT7009</name></trkpt>
<trkpt lat="53.202337" lon="-2.007187"><ele>411</ele><time>2020-08-19T13:22:38Z</time><name>PT7010</name></trkpt>
<trkpt lat="53.202347" lon="-2.007203"><ele>411</ele><time>2020-08-19T13:22:40Z</time><name>PT7011</name></trkpt>
<trkpt lat="53.202358" lon="-2.007210"><ele>411</ele><time>2020-08-19T13:22:41Z</time><name>PT7012</name></trkpt>
<trkpt lat="53.202372" lon="-2.007215"><ele>411</ele><time>2020-08-19T13:22:41Z</time><name>PT7013</name></trkpt>
<trkpt lat="53.202382" lon="-2.007218"><ele>411</ele><time>2020-08-19T13:22:43Z</time><name>PT7014</name></trkpt>
<trkpt lat="53.202393" lon="-2.007219"><ele>411</ele><time>2020-08-19T13:22:44Z</time><name>PT7015</name></trkpt>
<trkpt lat="53.202403" lon="-2.007227"><ele>411</ele><time>2020-08-19T13:22:44Z</time><name>PT7016</name></trkpt>
<trkpt lat="53.202413" lon="-2.007238"><ele>411</ele><time>2020-08-19T13:22:46Z</time><name>PT7017</name></trkpt>
<trkpt lat="53.202423" lon="-2.007246"><ele>411</ele><time>2020-08-19T13:22:47Z</time><name>PT7018</name></trkpt>
<trkpt lat="53.202433" lon="-2.007255"><ele>412</ele><time>2020-08-19T13:22:47Z</time><name>PT7019</name></trkpt>
<trkpt lat="53.202445" lon="-2.007259"><ele>412</ele><time>2020-08-19T13:22:49Z</time><name>PT7020</name></trkpt>
<trkpt lat="53.202456" lon="-2.007263"><ele>412</ele><time>2020-08-19T13:22:50Z</time><name>PT7021</name></trkpt>
<trkpt lat="53.202469" lon="-2.007265"><ele>412</ele><time>2020-08-19T13:22:50Z</time><name>PT7022</name></trkpt>
<trkpt lat="53.202480" lon="-2.007266"><ele>412</ele><time>2020-08-19T13:22:52Z</time><name>PT7023</name></trkpt>
<trkpt lat="53.202490" lon="-2.007266"><ele>412</ele><time>2020-08-19T13:22:53Z</time><name>PT7024</name></trkpt>
<trkpt lat="53.202503" lon="-2.007263"><ele>412</ele><time>2020-08-19T13:22:53Z</time><name>PT7025</name></trkpt>
<trkpt lat="53.202517" lon="-2.007263"><ele>412</ele><time>2020-08-19T13:22:55Z</time><name>PT7026</name></trkpt>
<trkpt lat="53.202525" lon="-2.007264"><ele>412</ele><time>2020-08-19T13:22:56Z</time><name>PT7027</name></trkpt>
<trkpt lat="53.202534" lon="-2.007267"><ele>412</ele><time>2020-08-19T13:22:56Z</time><name>PT7028</name></trkpt>
<trkpt lat="53.202547" lon="-2.007276"><ele>413</ele><time>2020-08-19T13:22:58Z</time><name>PT7029</name></trkpt>
<trkpt lat="53.202558" lon="-2.007283"><ele>413</ele><time>2020-08-19T13:22:59Z</time><name>PT7030</name></trkpt>
<trkpt lat="53.202569" lon="-2.007289"><ele>413</ele><time>2020-08-19T13:22:59Z</time><name>PT7031</name></trkpt>
<trkpt lat="53.202578" lon="-2.007294"><ele>413</ele><time>2020-08-19T13:23:01Z</time><name>PT7032</name></trkpt>
<trkpt lat="53.202588" lon="-2.007302"><ele>413</ele><time>2020-08-19T13:23:02Z</time><name>PT7033</name></trkpt>
<trkpt lat="53.202598" lon="-2.007313"><ele>413</ele><time>2020-08-19T13:23:02Z</time><name>PT7034</name></trkpt>
<trkpt lat="53.202608" lon="-2.007316"><ele>413</ele><time>2020-08-19T13:23:04Z</time><name>PT7035</name></trkpt>
<trkpt lat="53.202621" lon="-2.007321"><ele>414</ele><time>2020-08-19T13:23:05Z</time><name>PT7036</name></trkpt>
<trkpt lat="53.202635" lon="-2.007323"><ele>414</ele><time>2020-08-19T13:23:06Z</time><name>PT7037</name></trkpt>
<trkpt lat="53.202648" lon="-2.007324"><ele>414</ele><time>2020-08-19T13:23:07Z</time><name>PT7038</name></trkpt>
<trkpt lat="53.202659" lon="-2.007325"><ele>414</ele><time>2020-08-19T13:23:08Z</time><name>PT7039</name></trkpt>
<trkpt lat="53.202671" lon="-2.007327"><ele>414</ele><time>2020-08-19T13:23:09Z</time><name>PT7040</name></trkpt>
<trkpt lat="53.202682" lon="-2.007329"><ele>415</ele><time>2020-08-19T13:23:10Z</time><name>PT7041</name></trkpt>
<trkpt lat="53.202691" lon="-2.007333"><ele>415</ele><time>2020-08-19T13:23:11Z</time><name>PT7042</name></trkpt>
<trkpt lat="53.202699" lon="-2.007337"><ele>415</ele><time>2020-08-19T13:23:11Z</time><name>PT7043</name></trkpt>
<trkpt lat="53.202711" lon="-2.007340"><ele>415</ele><time>2020-08-19T13:23:13Z</time><name>PT7044</name></trkpt>
<trkpt lat="53.202723" lon="-2.007342"><ele>415</ele><time>2020-08-19T13:23:14Z</time><name>PT7045</name></trkpt>
<trkpt lat="53.202735" lon="-2.007344"><ele>415</ele><time>2020-08-19T13:23:15Z</time><name>PT7046</name></trkpt>
<trkpt lat="53.202746" lon="-2.007351"><ele>415</ele><time>2020-08-19T13:23:16Z</time><name>PT7047</name></trkpt>
<trkpt lat="53.202757" lon="-2.007357"><ele>415</ele><time>2020-08-19T13:23:17Z</time><name>PT7048</name></trkpt>
<trkpt lat="53.202766" lon="-2.007361"><ele>415</ele><time>2020-08-19T13:23:17Z</time><name>PT7049</name></trkpt>
<trkpt lat="53.202778" lon="-2.007366"><ele>416</ele><time>2020-08-19T13:23:19Z</time><name>PT7050</name></trkpt>
<trkpt lat="53.202790" lon="-2.007373"><ele>416</ele><time>2020-08-19T13:23:20Z</time><name>PT7051</name></trkpt>
<trkpt lat="53.202802" lon="-2.007380"><ele>416</ele><time>2020-08-19T13:23:20Z</time><name>PT7052</name></trkpt>
<trkpt lat="53.202815" lon="-2.007388"><ele>416</ele><time>2020-08-19T13:23:22Z</time><name>PT7053</name></trkpt>
<trkpt lat="53.202826" lon="-2.007394"><ele>416</ele><time>2020-08-19T13:23:23Z</time><name>PT7054</name></trkpt>
<trkpt lat="53.202836" lon="-2.007399"><ele>416</ele><time>2020-08-19T13:23:23Z</time><name>PT7055</name></trkpt>
<trkpt lat="53.202848" lon="-2.007404"><ele>416</ele><time>2020-08-19T13:23:25Z</time><name>PT7056</name></trkpt>
<trkpt lat="53.202861" lon="-2.007410"><ele>417</ele><time>2020-08-19T13:23:26Z</time><name>PT7057</name></trkpt>
<trkpt lat="53.202873" lon="-2.007414"><ele>417</ele><time>2020-08-19T13:23:26Z</time><name>PT7058</name></trkpt>
<trkpt lat="53.202884" lon="-2.007419"><ele>417</ele><time>2020-08-19T13:23:28Z</time><name>PT7059</name></trkpt>
<trkpt lat="53.202893" lon="-2.007426"><ele>417</ele><time>2020-08-19T13:23:29Z</time><name>PT7060</name></trkpt>
<trkpt lat="53.202902" lon="-2.007432"><ele>417</ele><time>2020-08-19T13:23:29Z</time><name>PT7061</name></trkpt>
<trkpt lat="53.202915" lon="-2.007440"><ele>417</ele><time>2020-08-19T13:23:31Z</time><name>PT7062</name></trkpt>
<trkpt lat="53.202926" lon="-2.007447"><ele>417</ele><time>2020-08-19T13:23:32Z</time><name>PT7063</name></trkpt>
<trkpt lat="53.202933" lon="-2.007457"><ele>417</ele><time>2020-08-19T13:23:32Z</time><name>PT7064</name></trkpt>
<trkpt lat="53.202940" lon="-2.007470"><ele>417</ele><time>2020-08-19T13:23:34Z</time><name>PT7065</name></trkpt>
<trkpt lat="53.202949" lon="-2.007481"><ele>417</ele><time>2020-08-19T13:23:35Z</time><name>PT7066</name></trkpt>
<trkpt lat="53.202962" lon="-2.007492"><ele>418</ele><time>2020-08-19T13:23:35Z</time><name>PT7067</name></trkpt>
<trkpt lat="53.202972" lon="-2.007496"><ele>418</ele><time>2020-08-19T13:23:37Z</time><name>PT7068</name></trkpt>
<trkpt lat="53.202984" lon="-2.007503"><ele>418</ele><time>2020-08-19T13:23:38Z</time><name>PT7069</name></trkpt>
<trkpt lat="53.202996" lon="-2.007510"><ele>419</ele><time>2020-08-19T13:23:38Z</time><name>PT7070</name></trkpt>
<trkpt lat="53.203008" lon="-2.007514"><ele>419</ele><time>2020-08-19T13:23:40Z</time><name>PT7071</name></trkpt>
<trkpt lat="53.203020" lon="-2.007516"><ele>419</ele><time>2020-08-19T13:23:41Z</time><name>PT7072</name></trkpt>
<trkpt lat="53.203030" lon="-2.007518"><ele>419</ele><time>2020-08-19T13:23:41Z</time><name>PT7073</name></trkpt>
<trkpt lat="53.203040" lon="-2.007520"><ele>419</ele><time>2020-08-19T13:23:43Z</time><name>PT7074</name></trkpt>
<trkpt lat="53.203052" lon="-2.007526"><ele>419</ele><time>2020-08-19T13:23:44Z</time><name>PT7075</name></trkpt>
<trkpt lat="53.203062" lon="-2.007529"><ele>419</ele><time>2020-08-19T13:23:44Z</time><name>PT7076</name></trkpt>
<trkpt lat="53.203073" lon="-2.007538"><ele>420</ele><time>2020-08-19T13:23:46Z</time><name>PT7077</name></trkpt>
<trkpt lat="53.203084" lon="-2.007545"><ele>420</ele><time>2020-08-19T13:23:47Z</time><name>PT7078</name></trkpt>
<trkpt lat="53.203094" lon="-2.007551"><ele>420</ele><time>2020-08-19T13:23:47Z</time><name>PT7079</name></trkpt>
<trkpt lat="53.203107" lon="-2.007554"><ele>420</ele><time>2020-08-19T13:23:49Z</time><name>PT7080</name></trkpt>
<trkpt lat="53.203117" lon="-2.007556"><ele>420</ele><time>2020-08-19T13:23:50Z</time><name>PT7081</name></trkpt>
<trkpt lat="53.203125" lon="-2.007556"><ele>420</ele><time>2020-08-19T13:23:50Z</time><name>PT7082</name></trkpt>
<trkpt lat="53.203133" lon="-2.007561"><ele>421</ele><time>2020-08-19T13:23:52Z</time><name>PT7083</name></trkpt>
<trkpt lat="53.203142" lon="-2.007566"><ele>421</ele><time>2020-08-19T13:23:53Z</time><name>PT7084</name></trkpt>
<trkpt lat="53.203151" lon="-2.007569"><ele>421</ele><time>2020-08-19T13:23:53Z</time><name>PT7085</name></trkpt>
<trkpt lat="53.203159" lon="-2.007566"><ele>420</ele><time>2020-08-19T13:23:55Z</time><name>PT7086</name></trkpt>
<trkpt lat="53.203167" lon="-2.007563"><ele>420</ele><time>2020-08-19T13:23:56Z</time><name>PT7087</name></trkpt>
<trkpt lat="53.203179" lon="-2.007563"><ele>420</ele><time>2020-08-19T13:23:56Z</time><name>PT7088</name></trkpt>
<trkpt lat="53.203191" lon="-2.007562"><ele>420</ele><time>2020-08-19T13:23:58Z</time><name>PT7089</name></trkpt>
<trkpt lat="53.203197" lon="-2.007563"><ele>420</ele><time>2020-08-19T13:23:59Z</time><name>PT7090</name></trkpt>
<trkpt lat="53.203205" lon="-2.007568"><ele>420</ele><time>2020-08-19T13:23:59Z</time><name>PT7091</name></trkpt>
<trkpt lat="53.203212" lon="-2.007569"><ele>420</ele><time>2020-08-19T13:24:01Z</time><name>PT7092</name></trkpt>
<trkpt lat="53.203220" lon="-2.007574"><ele>421</ele><time>2020-08-19T13:24:02Z</time><name>PT7093</name></trkpt>
<trkpt lat="53.203230" lon="-2.007583"><ele>421</ele><time>2020-08-19T13:24:02Z</time><name>PT7094</name></trkpt>
<trkpt lat="53.203240" lon="-2.007587"><ele>420</ele><time>2020-08-19T13:24:04Z</time><name>PT7095</name></trkpt>
<trkpt lat="53.203247" lon="-2.007597"><ele>420</ele><time>2020-08-19T13:24:05Z</time><name>PT7096</name></trkpt>
<trkpt lat="53.203258" lon="-2.007603"><ele>420</ele><time>2020-08-19T13:24:05Z</time><name>PT7097</name></trkpt>
<trkpt lat="53.203266" lon="-2.007611"><ele>420</ele><time>2020-08-19T13:24:07Z</time><name>PT7098</name></trkpt>
<trkpt lat="53.203276" lon="-2.007619"><ele>420</ele><time>2020-08-19T13:24:08Z</time><name>PT7099</name></trkpt>
<trkpt lat="53.203286" lon="-2.007624"><ele>420</ele><time>2020-08-19T13:24:08Z</time><name>PT7100</name></trkpt>
<trkpt lat="53.203295" lon="-2.007622"><ele>420</ele><time>2020-08-19T13:24:10Z</time><name>PT7101</name></trkpt>
<trkpt lat="53.203302" lon="-2.007623"><ele>420</ele><time>2020-08-19T13:24:11Z</time><name>PT7102</name></trkpt>
<trkpt lat="53.203311" lon="-2.007624"><ele>421</ele><time>2020-08-19T13:24:11Z</time><name>PT7103</name></trkpt>
<trkpt lat="53.203317" lon="-2.007623"><ele>421</ele><time>2020-08-19T13:24:13Z</time><name>PT7104</name></trkpt>
<trkpt lat="53.203323" lon="-2.007618"><ele>421</ele><time>2020-08-19T13:24:14Z</time><name>PT7105</name></trkpt>
<trkpt lat="53.203326" lon="-2.007619"><ele>422</ele><time>2020-08-19T13:24:14Z</time><name>PT7106</name></trkpt>
<trkpt lat="53.203331" lon="-2.007625"><ele>422</ele><time>2020-08-19T13:24:16Z</time><name>PT7107</name></trkpt>
<trkpt lat="53.203335" lon="-2.007624"><ele>422</ele><time>2020-08-19T13:24:17Z</time><name>PT7108</name></trkpt>
<trkpt lat="53.203342" lon="-2.007625"><ele>423</ele><time>2020-08-19T13:24:17Z</time><name>PT7109</name></trkpt>
<trkpt lat="53.203347" lon="-2.007623"><ele>423</ele><time>2020-08-19T13:24:19Z</time><name>PT7110</name></trkpt>
<trkpt lat="53.203350" lon="-2.007623"><ele>424</ele><time>2020-08-19T13:24:20Z</time><name>PT7111</name></trkpt>
<trkpt lat="53.203354" lon="-2.007624"><ele>424</ele><time>2020-08-19T13:24:21Z</time><name>PT7112</name></trkpt>
<trkpt lat="53.203360" lon="-2.007625"><ele>424</ele><time>2020-08-19T13:24:22Z</time><name>PT7113</name></trkpt>
<trkpt lat="53.203369" lon="-2.007624"><ele>425</ele><time>2020-08-19T13:24:23Z</time><name>PT7114</name></trkpt>
<trkpt lat="53.203371" lon="-2.007631"><ele>426</ele><time>2020-08-19T13:24:23Z</time><name>PT7115</name></trkpt>
<trkpt lat="53.203376" lon="-2.007628"><ele>426</ele><time>2020-08-19T13:24:25Z</time><name>PT7116</name></trkpt>
<trkpt lat="53.203384" lon="-2.007628"><ele>427</ele><time>2020-08-19T13:24:26Z</time><name>PT7117</name></trkpt>
<trkpt lat="53.203389" lon="-2.007631"><ele>427</ele><time>2020-08-19T13:24:26Z</time><name>PT7118</name></trkpt>
<trkpt lat="53.203392" lon="-2.007634"><ele>427</ele><time>2020-08-19T13:24:28Z</time><name>PT7119</name></trkpt>
<trkpt lat="53.203396" lon="-2.007637"><ele>428</ele><time>2020-08-19T13:24:29Z</time><name>PT7120</name></trkpt>
<trkpt lat="53.203402" lon="-2.007644"><ele>428</ele><time>2020-08-19T13:24:30Z</time><name>PT7121</name></trkpt>
<trkpt lat="53.203406" lon="-2.007642"><ele>428</ele><time>2020-08-19T13:24:31Z</time><name>PT7122</name></trkpt>
<trkpt lat="53.203409" lon="-2.007640"><ele>428</ele><time>2020-08-19T13:24:32Z</time><name>PT7123</name></trkpt>
<trkpt lat="53.203413" lon="-2.007641"><ele>429</ele><time>2020-08-19T13:24:32Z</time><name>PT7124</name></trkpt>
<trkpt lat="53.203421" lon="-2.007625"><ele>429</ele><time>2020-08-19T13:24:35Z</time><name>PT7125</name></trkpt>
<trkpt lat="53.203449" lon="-2.007610"><ele>431</ele><time>2020-08-19T13:24:40Z</time><name>PT7126</name></trkpt>
<trkpt lat="53.203484" lon="-2.007626"><ele>432</ele><time>2020-08-19T13:24:44Z</time><name>PT7127</name></trkpt>
<trkpt lat="53.203506" lon="-2.007630"><ele>432</ele><time>2020-08-19T13:24:47Z</time><name>PT7128</name></trkpt>
<trkpt lat="53.203526" lon="-2.007643"><ele>432</ele><time>2020-08-19T13:24:50Z</time><name>PT7129</name></trkpt>
<trkpt lat="53.203562" lon="-2.007666"><ele>433</ele><time>2020-08-19T13:24:53Z</time><name>PT7130</name></trkpt>
<trkpt lat="53.203595" lon="-2.007679"><ele>434</ele><time>2020-08-19T13:24:58Z</time><name>PT7131</name></trkpt>
<trkpt lat="53.203639" lon="-2.007697"><ele>435</ele><time>2020-08-19T13:25:02Z</time><name>PT7132</name></trkpt>
<trkpt lat="53.203685" lon="-2.007711"><ele>435</ele><time>2020-08-19T13:25:05Z</time><name>PT7133</name></trkpt>
<trkpt lat="53.203717" lon="-2.007717"><ele>435</ele><time>2020-08-19T13:25:08Z</time><name>PT7134</name></trkpt>
<trkpt lat="53.203765" lon="-2.007747"><ele>436</ele><time>2020-08-19T13:25:13Z</time><name>PT7135</name></trkpt>
<trkpt lat="53.203781" lon="-2.007751"><ele>437</ele><time>2020-08-19T13:25:14Z</time><name>PT7136</name></trkpt>
<trkpt lat="53.203793" lon="-2.007748"><ele>437</ele><time>2020-08-19T13:25:14Z</time><name>PT7137</name></trkpt>
<trkpt lat="53.203805" lon="-2.007751"><ele>437</ele><time>2020-08-19T13:25:16Z</time><name>PT7138</name></trkpt>
<trkpt lat="53.203818" lon="-2.007762"><ele>438</ele><time>2020-08-19T13:25:17Z</time><name>PT7139</name></trkpt>
<trkpt lat="53.203827" lon="-2.007768"><ele>438</ele><time>2020-08-19T13:25:17Z</time><name>PT7140</name></trkpt>
<trkpt lat="53.203835" lon="-2.007774"><ele>438</ele><time>2020-08-19T13:25:19Z</time><name>PT7141</name></trkpt>
<trkpt lat="53.203845" lon="-2.007778"><ele>438</ele><time>2020-08-19T13:25:20Z</time><name>PT7142</name></trkpt>
<trkpt lat="53.203854" lon="-2.007784"><ele>438</ele><time>2020-08-19T13:25:20Z</time><name>PT7143</name></trkpt>
<trkpt lat="53.203864" lon="-2.007792"><ele>438</ele><time>2020-08-19T13:25:22Z</time><name>PT7144</name></trkpt>
<trkpt lat="53.203875" lon="-2.007800"><ele>438</ele><time>2020-08-19T13:25:23Z</time><name>PT7145</name></trkpt>
<trkpt lat="53.203885" lon="-2.007807"><ele>439</ele><time>2020-08-19T13:25:23Z</time><name>PT7146</name></trkpt>
<trkpt lat="53.203897" lon="-2.007813"><ele>439</ele><time>2020-08-19T13:25:25Z</time><name>PT7147</name></trkpt>
<trkpt lat="53.203909" lon="-2.007819"><ele>439</ele><time>2020-08-19T13:25:26Z</time><name>PT7148</name></trkpt>
<trkpt lat="53.203921" lon="-2.007826"><ele>439</ele><time>2020-08-19T13:25:26Z</time><name>PT7149</name></trkpt>
<trkpt lat="53.203933" lon="-2.007834"><ele>439</ele><time>2020-08-19T13:25:28Z</time><name>PT7150</name></trkpt>
<trkpt lat="53.203944" lon="-2.007843"><ele>439</ele><time>2020-08-19T13:25:29Z</time><name>PT7151</name></trkpt>
<trkpt lat="53.203954" lon="-2.007848"><ele>440</ele><time>2020-08-19T13:25:29Z</time><name>PT7152</name></trkpt>
<trkpt lat="53.203966" lon="-2.007854"><ele>440</ele><time>2020-08-19T13:25:31Z</time><name>PT7153</name></trkpt>
<trkpt lat="53.203976" lon="-2.007860"><ele>440</ele><time>2020-08-19T13:25:32Z</time><name>PT7154</name></trkpt>
<trkpt lat="53.203985" lon="-2.007868"><ele>440</ele><time>2020-08-19T13:25:33Z</time><name>PT7155</name></trkpt>
<trkpt lat="53.203994" lon="-2.007879"><ele>440</ele><time>2020-08-19T13:25:34Z</time><name>PT7156</name></trkpt>
<trkpt lat="53.204004" lon="-2.007891"><ele>440</ele><time>2020-08-19T13:25:35Z</time><name>PT7157</name></trkpt>
<trkpt lat="53.204012" lon="-2.007900"><ele>440</ele><time>2020-08-19T13:25:35Z</time><name>PT7158</name></trkpt>
<trkpt lat="53.204020" lon="-2.007912"><ele>440</ele><time>2020-08-19T13:25:37Z</time><name>PT7159</name></trkpt>
<trkpt lat="53.204028" lon="-2.007927"><ele>440</ele><time>2020-08-19T13:25:38Z</time><name>PT7160</name></trkpt>
<trkpt lat="53.204038" lon="-2.007942"><ele>440</ele><time>2020-08-19T13:25:38Z</time><name>PT7161</name></trkpt>
<trkpt lat="53.204048" lon="-2.007951"><ele>440</ele><time>2020-08-19T13:25:40Z</time><name>PT7162</name></trkpt>
<trkpt lat="53.204058" lon="-2.007956"><ele>440</ele><time>2020-08-19T13:25:41Z</time><name>PT7163</name></trkpt>
<trkpt lat="53.204066" lon="-2.007961"><ele>440</ele><time>2020-08-19T13:25:41Z</time><name>PT7164</name></trkpt>
<trkpt lat="53.204077" lon="-2.007966"><ele>440</ele><time>2020-08-19T13:25:43Z</time><name>PT7165</name></trkpt>
<trkpt lat="53.204085" lon="-2.007977"><ele>440</ele><time>2020-08-19T13:25:44Z</time><name>PT7166</name></trkpt>
<trkpt lat="53.204093" lon="-2.007985"><ele>439</ele><time>2020-08-19T13:25:44Z</time><name>PT7167</name></trkpt>
<trkpt lat="53.204103" lon="-2.007995"><ele>440</ele><time>2020-08-19T13:25:46Z</time><name>PT7168</name></trkpt>
<trkpt lat="53.204113" lon="-2.008005"><ele>440</ele><time>2020-08-19T13:25:47Z</time><name>PT7169</name></trkpt>
<trkpt lat="53.204123" lon="-2.008011"><ele>440</ele><time>2020-08-19T13:25:47Z</time><name>PT7170</name></trkpt>
<trkpt lat="53.204132" lon="-2.008025"><ele>440</ele><time>2020-08-19T13:25:49Z</time><name>PT7171</name></trkpt>
<trkpt lat="53.204142" lon="-2.008040"><ele>440</ele><time>2020-08-19T13:25:50Z</time><name>PT7172</name></trkpt>
<trkpt lat="53.204147" lon="-2.008047"><ele>439</ele><time>2020-08-19T13:25:50Z</time><name>PT7173</name></trkpt>
<trkpt lat="53.204155" lon="-2.008057"><ele>438</ele><time>2020-08-19T13:25:52Z</time><name>PT7174</name></trkpt>
<trkpt lat="53.204164" lon="-2.008060"><ele>438</ele><time>2020-08-19T13:25:53Z</time><name>PT7175</name></trkpt>
<trkpt lat="53.204173" lon="-2.008067"><ele>438</ele><time>2020-08-19T13:25:53Z</time><name>PT7176</name></trkpt>
<trkpt lat="53.204184" lon="-2.008075"><ele>438</ele><time>2020-08-19T13:25:55Z</time><name>PT7177</name></trkpt>
<trkpt lat="53.204195" lon="-2.008087"><ele>438</ele><time>2020-08-19T13:25:56Z</time><name>PT7178</name></trkpt>
<trkpt lat="53.204204" lon="-2.008096"><ele>437</ele><time>2020-08-19T13:25:56Z</time><name>PT7179</name></trkpt>
<trkpt lat="53.204216" lon="-2.008104"><ele>438</ele><time>2020-08-19T13:25:58Z</time><name>PT7180</name></trkpt>
<trkpt lat="53.204227" lon="-2.008102"><ele>437</ele><time>2020-08-19T13:25:59Z</time><name>PT7181</name></trkpt>
<trkpt lat="53.204238" lon="-2.008109"><ele>437</ele><time>2020-08-19T13:25:59Z</time><name>PT7182</name></trkpt>
<trkpt lat="53.204249" lon="-2.008124"><ele>438</ele><time>2020-08-19T13:26:01Z</time><name>PT7183</name></trkpt>
<trkpt lat="53.204258" lon="-2.008133"><ele>437</ele><time>2020-08-19T13:26:02Z</time><name>PT7184</name></trkpt>
<trkpt lat="53.204269" lon="-2.008139"><ele>437</ele><time>2020-08-19T13:26:02Z</time><name>PT7185</name></trkpt>
<trkpt lat="53.204282" lon="-2.008148"><ele>438</ele><time>2020-08-19T13:26:04Z</time><name>PT7186</name></trkpt>
<trkpt lat="53.204295" lon="-2.008157"><ele>438</ele><time>2020-08-19T13:26:05Z</time><name>PT7187</name></trkpt>
<trkpt lat="53.204304" lon="-2.008164"><ele>438</ele><time>2020-08-19T13:26:05Z</time><name>PT7188</name></trkpt>
<trkpt lat="53.204317" lon="-2.008164"><ele>437</ele><time>2020-08-19T13:26:07Z</time><name>PT7189</name></trkpt>
<trkpt lat="53.204327" lon="-2.008166"><ele>437</ele><time>2020-08-19T13:26:08Z</time><name>PT7190</name></trkpt>
<trkpt lat="53.204336" lon="-2.008174"><ele>437</ele><time>2020-08-19T13:26:08Z</time><name>PT7191</name></trkpt>
<trkpt lat="53.204346" lon="-2.008184"><ele>437</ele><time>2020-08-19T13:26:10Z</time><name>PT7192</name></trkpt>
<trkpt lat="53.204357" lon="-2.008194"><ele>437</ele><time>2020-08-19T13:26:11Z</time><name>PT7193</name></trkpt>
<trkpt lat="53.204371" lon="-2.008204"><ele>437</ele><time>2020-08-19T13:26:11Z</time><name>PT7194</name></trkpt>
<trkpt lat="53.204381" lon="-2.008218"><ele>438</ele><time>2020-08-19T13:26:13Z</time><name>PT7195</name></trkpt>
<trkpt lat="53.204392" lon="-2.008230"><ele>438</ele><time>2020-08-19T13:26:14Z</time><name>PT7196</name></trkpt>
<trkpt lat="53.204403" lon="-2.008238"><ele>438</ele><time>2020-08-19T13:26:14Z</time><name>PT7197</name></trkpt>
<trkpt lat="53.204415" lon="-2.008248"><ele>438</ele><time>2020-08-19T13:26:16Z</time><name>PT7198</name></trkpt>
<trkpt lat="53.204427" lon="-2.008260"><ele>438</ele><time>2020-08-19T13:26:17Z</time><name>PT7199</name></trkpt>
<trkpt lat="53.204439" lon="-2.008276"><ele>438</ele><time>2020-08-19T13:26:17Z</time><name>PT7200</name></trkpt>
<trkpt lat="53.204449" lon="-2.008289"><ele>438</ele><time>2020-08-19T13:26:19Z</time><name>PT7201</name></trkpt>
<trkpt lat="53.204458" lon="-2.008302"><ele>439</ele><time>2020-08-19T13:26:20Z</time><name>PT7202</name></trkpt>
<trkpt lat="53.204467" lon="-2.008314"><ele>439</ele><time>2020-08-19T13:26:20Z</time><name>PT7203</name></trkpt>
<trkpt lat="53.204477" lon="-2.008326"><ele>438</ele><time>2020-08-19T13:26:22Z</time><name>PT7204</name></trkpt>
<trkpt lat="53.204489" lon="-2.008335"><ele>439</ele><time>2020-08-19T13:26:23Z</time><name>PT7205</name></trkpt>
<trkpt lat="53.204503" lon="-2.008342"><ele>439</ele><time>2020-08-19T13:26:23Z</time><name>PT7206</name></trkpt>
<trkpt lat="53.204515" lon="-2.008345"><ele>439</ele><time>2020-08-19T13:26:25Z</time><name>PT7207</name></trkpt>
<trkpt lat="53.204527" lon="-2.008351"><ele>439</ele><time>2020-08-19T13:26:26Z</time><name>PT7208</name></trkpt>
<trkpt lat="53.204539" lon="-2.008366"><ele>439</ele><time>2020-08-19T13:26:26Z</time><name>PT7209</name></trkpt>
<trkpt lat="53.204554" lon="-2.008376"><ele>439</ele><time>2020-08-19T13:26:28Z</time><name>PT7210</name></trkpt>
<trkpt lat="53.204568" lon="-2.008380"><ele>440</ele><time>2020-08-19T13:26:29Z</time><name>PT7211</name></trkpt>
<trkpt lat="53.204581" lon="-2.008389"><ele>440</ele><time>2020-08-19T13:26:29Z</time><name>PT7212</name></trkpt>
<trkpt lat="53.204592" lon="-2.008396"><ele>440</ele><time>2020-08-19T13:26:31Z</time><name>PT7213</name></trkpt>
<trkpt lat="53.204604" lon="-2.008400"><ele>440</ele><time>2020-08-19T13:26:32Z</time><name>PT7214</name></trkpt>
<trkpt lat="53.204613" lon="-2.008400"><ele>440</ele><time>2020-08-19T13:26:32Z</time><name>PT7215</name></trkpt>
<trkpt lat="53.204624" lon="-2.008404"><ele>440</ele><time>2020-08-19T13:26:34Z</time><name>PT7216</name></trkpt>
<trkpt lat="53.204636" lon="-2.008407"><ele>440</ele><time>2020-08-19T13:26:35Z</time><name>PT7217</name></trkpt>
<trkpt lat="53.204650" lon="-2.008411"><ele>440</ele><time>2020-08-19T13:26:35Z</time><name>PT7218</name></trkpt>
<trkpt lat="53.204662" lon="-2.008411"><ele>440</ele><time>2020-08-19T13:26:37Z</time><name>PT7219</name></trkpt>
<trkpt lat="53.204675" lon="-2.008420"><ele>440</ele><time>2020-08-19T13:26:38Z</time><name>PT7220</name></trkpt>
<trkpt lat="53.204686" lon="-2.008429"><ele>440</ele><time>2020-08-19T13:26:38Z</time><name>PT7221</name></trkpt>
<trkpt lat="53.204697" lon="-2.008436"><ele>440</ele><time>2020-08-19T13:26:40Z</time><name>PT7222</name></trkpt>
<trkpt lat="53.204708" lon="-2.008438"><ele>440</ele><time>2020-08-19T13:26:41Z</time><name>PT7223</name></trkpt>
<trkpt lat="53.204720" lon="-2.008440"><ele>440</ele><time>2020-08-19T13:26:41Z</time><name>PT7224</name></trkpt>
<trkpt lat="53.204730" lon="-2.008444"><ele>440</ele><time>2020-08-19T13:26:43Z</time><name>PT7225</name></trkpt>
<trkpt lat="53.204744" lon="-2.008450"><ele>441</ele><time>2020-08-19T13:26:44Z</time><name>PT7226</name></trkpt>
<trkpt lat="53.204753" lon="-2.008453"><ele>440</ele><time>2020-08-19T13:26:44Z</time><name>PT7227</name></trkpt>
<trkpt lat="53.204763" lon="-2.008460"><ele>441</ele><time>2020-08-19T13:26:46Z</time><name>PT7228</name></trkpt>
<trkpt lat="53.204777" lon="-2.008462"><ele>441</ele><time>2020-08-19T13:26:47Z</time><name>PT7229</name></trkpt>
<trkpt lat="53.204789" lon="-2.008466"><ele>442</ele><time>2020-08-19T13:26:47Z</time><name>PT7230</name></trkpt>
<trkpt lat="53.204797" lon="-2.008470"><ele>442</ele><time>2020-08-19T13:26:49Z</time><name>PT7231</name></trkpt>
<trkpt lat="53.204808" lon="-2.008475"><ele>442</ele><time>2020-08-19T13:26:50Z</time><name>PT7232</name></trkpt>
<trkpt lat="53.204820" lon="-2.008478"><ele>442</ele><time>2020-08-19T13:26:50Z</time><name>PT7233</name></trkpt>
<trkpt lat="53.204834" lon="-2.008486"><ele>442</ele><time>2020-08-19T13:26:52Z</time><name>PT7234</name></trkpt>
<trkpt lat="53.204846" lon="-2.008490"><ele>442</ele><time>2020-08-19T13:26:53Z</time><name>PT7235</name></trkpt>
<trkpt lat="53.204857" lon="-2.008491"><ele>442</ele><time>2020-08-19T13:26:53Z</time><name>PT7236</name></trkpt>
<trkpt lat="53.204870" lon="-2.008493"><ele>442</ele><time>2020-08-19T13:26:55Z</time><name>PT7237</name></trkpt>
<trkpt lat="53.204881" lon="-2.008501"><ele>442</ele><time>2020-08-19T13:26:56Z</time><name>PT7238</name></trkpt>
<trkpt lat="53.204892" lon="-2.008505"><ele>442</ele><time>2020-08-19T13:26:56Z</time><name>PT7239</name></trkpt>
<trkpt lat="53.204904" lon="-2.008510"><ele>442</ele><time>2020-08-19T13:26:58Z</time><name>PT7240</name></trkpt>
<trkpt lat="53.204919" lon="-2.008518"><ele>442</ele><time>2020-08-19T13:26:59Z</time><name>PT7241</name></trkpt>
<trkpt lat="53.204934" lon="-2.008524"><ele>442</ele><time>2020-08-19T13:26:59Z</time><name>PT7242</name></trkpt>
<trkpt lat="53.204945" lon="-2.008532"><ele>442</ele><time>2020-08-19T13:27:01Z</time><name>PT7243</name></trkpt>
<trkpt lat="53.204957" lon="-2.008539"><ele>442</ele><time>2020-08-19T13:27:02Z</time><name>PT7244</name></trkpt>
<trkpt lat="53.204967" lon="-2.008542"><ele>442</ele><time>2020-08-19T13:27:02Z</time><name>PT7245</name></trkpt>
<trkpt lat="53.204979" lon="-2.008547"><ele>442</ele><time>2020-08-19T13:27:04Z</time><name>PT7246</name></trkpt>
<trkpt lat="53.204991" lon="-2.008557"><ele>442</ele><time>2020-08-19T13:27:05Z</time><name>PT7247</name></trkpt>
<trkpt lat="53.205001" lon="-2.008562"><ele>441</ele><time>2020-08-19T13:27:05Z</time><name>PT7248</name></trkpt>
<trkpt lat="53.205013" lon="-2.008576"><ele>442</ele><time>2020-08-19T13:27:07Z</time><name>PT7249</name></trkpt>
<trkpt lat="53.205022" lon="-2.008586"><ele>441</ele><time>2020-08-19T13:27:08Z</time><name>PT7250</name></trkpt>
<trkpt lat="53.205033" lon="-2.008595"><ele>441</ele><time>2020-08-19T13:27:08Z</time><name>PT7251</name></trkpt>
<trkpt lat="53.205044" lon="-2.008603"><ele>441</ele><time>2020-08-19T13:27:10Z</time><name>PT7252</name></trkpt>
<trkpt lat="53.205057" lon="-2.008612"><ele>441</ele><time>2020-08-19T13:27:11Z</time><name>PT7253</name></trkpt>
<trkpt lat="53.205069" lon="-2.008623"><ele>442</ele><time>2020-08-19T13:27:11Z</time><name>PT7254</name></trkpt>
<trkpt lat="53.205079" lon="-2.008636"><ele>442</ele><time>2020-08-19T13:27:13Z</time><name>PT7255</name></trkpt>
<trkpt lat="53.205088" lon="-2.008642"><ele>441</ele><time>2020-08-19T13:27:14Z</time><name>PT7256</name></trkpt>
<trkpt lat="53.205100" lon="-2.008647"><ele>441</ele><time>2020-08-19T13:27:14Z</time><name>PT7257</name></trkpt>
<trkpt lat="53.205113" lon="-2.008655"><ele>441</ele><time>2020-08-19T13:27:16Z</time><name>PT7258</name></trkpt>
<trkpt lat="53.205123" lon="-2.008663"><ele>441</ele><time>2020-08-19T13:27:17Z</time><name>PT7259</name></trkpt>
<trkpt lat="53.205134" lon="-2.008674"><ele>442</ele><time>2020-08-19T13:27:17Z</time><name>PT7260</name></trkpt>
<trkpt lat="53.205144" lon="-2.008681"><ele>441</ele><time>2020-08-19T13:27:19Z</time><name>PT7261</name></trkpt>
<trkpt lat="53.205156" lon="-2.008691"><ele>441</ele><time>2020-08-19T13:27:20Z</time><name>PT7262</name></trkpt>
<trkpt lat="53.205166" lon="-2.008702"><ele>441</ele><time>2020-08-19T13:27:21Z</time><name>PT7263</name></trkpt>
<trkpt lat="53.205177" lon="-2.008705"><ele>441</ele><time>2020-08-19T13:27:22Z</time><name>PT7264</name></trkpt>
<trkpt lat="53.205185" lon="-2.008714"><ele>440</ele><time>2020-08-19T13:27:23Z</time><name>PT7265</name></trkpt>
<trkpt lat="53.205195" lon="-2.008729"><ele>440</ele><time>2020-08-19T13:27:23Z</time><name>PT7266</name></trkpt>
<trkpt lat="53.205204" lon="-2.008740"><ele>440</ele><time>2020-08-19T13:27:25Z</time><name>PT7267</name></trkpt>
<trkpt lat="53.205214" lon="-2.008747"><ele>439</ele><time>2020-08-19T13:27:26Z</time><name>PT7268</name></trkpt>
<trkpt lat="53.205224" lon="-2.008758"><ele>439</ele><time>2020-08-19T13:27:26Z</time><name>PT7269</name></trkpt>
<trkpt lat="53.205236" lon="-2.008767"><ele>440</ele><time>2020-08-19T13:27:28Z</time><name>PT7270</name></trkpt>
<trkpt lat="53.205249" lon="-2.008775"><ele>440</ele><time>2020-08-19T13:27:29Z</time><name>PT7271</name></trkpt>
<trkpt lat="53.205260" lon="-2.008780"><ele>440</ele><time>2020-08-19T13:27:29Z</time><name>PT7272</name></trkpt>
<trkpt lat="53.205272" lon="-2.008789"><ele>441</ele><time>2020-08-19T13:27:31Z</time><name>PT7273</name></trkpt>
<trkpt lat="53.205284" lon="-2.008798"><ele>441</ele><time>2020-08-19T13:27:32Z</time><name>PT7274</name></trkpt>
<trkpt lat="53.205295" lon="-2.008799"><ele>440</ele><time>2020-08-19T13:27:32Z</time><name>PT7275</name></trkpt>
<trkpt lat="53.205306" lon="-2.008803"><ele>440</ele><time>2020-08-19T13:27:34Z</time><name>PT7276</name></trkpt>
<trkpt lat="53.205317" lon="-2.008805"><ele>441</ele><time>2020-08-19T13:27:35Z</time><name>PT7277</name></trkpt>
<trkpt lat="53.205329" lon="-2.008809"><ele>441</ele><time>2020-08-19T13:27:36Z</time><name>PT7278</name></trkpt>
<trkpt lat="53.205341" lon="-2.008821"><ele>441</ele><time>2020-08-19T13:27:37Z</time><name>PT7279</name></trkpt>
<trkpt lat="53.205350" lon="-2.008827"><ele>441</ele><time>2020-08-19T13:27:38Z</time><name>PT7280</name></trkpt>
<trkpt lat="53.205362" lon="-2.008838"><ele>441</ele><time>2020-08-19T13:27:38Z</time><name>PT7281</name></trkpt>
<trkpt lat="53.205373" lon="-2.008851"><ele>441</ele><time>2020-08-19T13:27:40Z</time><name>PT7282</name></trkpt>
<trkpt lat="53.205386" lon="-2.008861"><ele>441</ele><time>2020-08-19T13:27:41Z</time><name>PT7283</name></trkpt>
<trkpt lat="53.205400" lon="-2.008871"><ele>442</ele><time>2020-08-19T13:27:41Z</time><name>PT7284</name></trkpt>
<trkpt lat="53.205414" lon="-2.008879"><ele>443</ele><time>2020-08-19T13:27:43Z</time><name>PT7285</name></trkpt>
<trkpt lat="53.205427" lon="-2.008888"><ele>443</ele><time>2020-08-19T13:27:44Z</time><name>PT7286</name></trkpt>
<trkpt lat="53.205439" lon="-2.008902"><ele>443</ele><time>2020-08-19T13:27:44Z</time><name>PT7287</name></trkpt>
<trkpt lat="53.205451" lon="-2.008919"><ele>444</ele><time>2020-08-19T13:27:46Z</time><name>PT7288</name></trkpt>
<trkpt lat="53.205464" lon="-2.008935"><ele>444</ele><time>2020-08-19T13:27:47Z</time><name>PT7289</name></trkpt>
<trkpt lat="53.205474" lon="-2.008946"><ele>444</ele><time>2020-08-19T13:27:47Z</time><name>PT7290</name></trkpt>
<trkpt lat="53.205487" lon="-2.008956"><ele>444</ele><time>2020-08-19T13:27:49Z</time><name>PT7291</name></trkpt>
<trkpt lat="53.205500" lon="-2.008968"><ele>444</ele><time>2020-08-19T13:27:50Z</time><name>PT7292</name></trkpt>
<trkpt lat="53.205513" lon="-2.008976"><ele>444</ele><time>2020-08-19T13:27:50Z</time><name>PT7293</name></trkpt>
<trkpt lat="53.205527" lon="-2.008980"><ele>445</ele><time>2020-08-19T13:27:52Z</time><name>PT7294</name></trkpt>
<trkpt lat="53.205538" lon="-2.008995"><ele>444</ele><time>2020-08-19T13:27:53Z</time><name>PT7295</name></trkpt>
<trkpt lat="53.205549" lon="-2.009007"><ele>444</ele><time>2020-08-19T13:27:53Z</time><name>PT7296</name></trkpt>
<trkpt lat="53.205560" lon="-2.009016"><ele>444</ele><time>2020-08-19T13:27:55Z</time><name>PT7297</name></trkpt>
<trkpt lat="53.205573" lon="-2.009021"><ele>443</ele><time>2020-08-19T13:27:56Z</time><name>PT7298</name></trkpt>
<trkpt lat="53.205584" lon="-2.009031"><ele>443</ele><time>2020-08-19T13:27:56Z</time><name>PT7299</name></trkpt>
<trkpt lat="53.205594" lon="-2.009039"><ele>444</ele><time>2020-08-19T13:27:58Z</time><name>PT7300</name></trkpt>
<trkpt lat="53.205606" lon="-2.009048"><ele>444</ele><time>2020-08-19T13:27:59Z</time><name>PT7301</name></trkpt>
<trkpt lat="53.205617" lon="-2.009061"><ele>444</ele><time>2020-08-19T13:27:59Z</time><name>PT7302</name></trkpt>
<trkpt lat="53.205628" lon="-2.009071"><ele>445</ele><time>2020-08-19T13:28:01Z</time><name>PT7303</name></trkpt>
<trkpt lat="53.205638" lon="-2.009077"><ele>444</ele><time>2020-08-19T13:28:02Z</time><name>PT7304</name></trkpt>
<trkpt lat="53.205649" lon="-2.009082"><ele>444</ele><time>2020-08-19T13:28:02Z</time><name>PT7305</name></trkpt>
<trkpt lat="53.205659" lon="-2.009085"><ele>443</ele><time>2020-08-19T13:28:04Z</time><name>PT7306</name></trkpt>
<trkpt lat="53.205672" lon="-2.009090"><ele>444</ele><time>2020-08-19T13:28:05Z</time><name>PT7307</name></trkpt>
<trkpt lat="53.205684" lon="-2.009096"><ele>444</ele><time>2020-08-19T13:28:06Z</time><name>PT7308</name></trkpt>
<trkpt lat="53.205697" lon="-2.009106"><ele>444</ele><time>2020-08-19T13:28:07Z</time><name>PT7309</name></trkpt>
<trkpt lat="53.205709" lon="-2.009121"><ele>445</ele><time>2020-08-19T13:28:08Z</time><name>PT7310</name></trkpt>
<trkpt lat="53.205719" lon="-2.009132"><ele>444</ele><time>2020-08-19T13:28:08Z</time><name>PT7311</name></trkpt>
<trkpt lat="53.205729" lon="-2.009144"><ele>444</ele><time>2020-08-19T13:28:10Z</time><name>PT7312</name></trkpt>
<trkpt lat="53.205740" lon="-2.009151"><ele>444</ele><time>2020-08-19T13:28:11Z</time><name>PT7313</name></trkpt>
<trkpt lat="53.205751" lon="-2.009158"><ele>445</ele><time>2020-08-19T13:28:11Z</time><name>PT7314</name></trkpt>
<trkpt lat="53.205762" lon="-2.009162"><ele>445</ele><time>2020-08-19T13:28:13Z</time><name>PT7315</name></trkpt>
<trkpt lat="53.205796" lon="-2.009198"><ele>445</ele><time>2020-08-19T13:28:16Z</time><name>PT7316</name></trkpt>
<trkpt lat="53.205829" lon="-2.009222"><ele>446</ele><time>2020-08-19T13:28:19Z</time><name>PT7317</name></trkpt>
<trkpt lat="53.205873" lon="-2.009254"><ele>445</ele><time>2020-08-19T13:28:23Z</time><name>PT7318</name></trkpt>
<trkpt lat="53.205913" lon="-2.009279"><ele>444</ele><time>2020-08-19T13:28:26Z</time><name>PT7319</name></trkpt>
<trkpt lat="53.205924" lon="-2.009305"><ele>444</ele><time>2020-08-19T13:28:29Z</time><name>PT7320</name></trkpt>
<trkpt lat="53.205941" lon="-2.009313"><ele>445</ele><time>2020-08-19T13:28:32Z</time><name>PT7321</name></trkpt>
<trkpt lat="53.205944" lon="-2.009320"><ele>445</ele><time>2020-08-19T13:28:37Z</time><name>PT7322</name></trkpt>
<trkpt lat="53.205950" lon="-2.009329"><ele>445</ele><time>2020-08-19T13:28:44Z</time><name>PT7323</name></trkpt>
<trkpt lat="53.205976" lon="-2.009353"><ele>445</ele><time>2020-08-19T13:28:52Z</time><name>PT7324</name></trkpt>
<trkpt lat="53.206017" lon="-2.009399"><ele>445</ele><time>2020-08-19T13:28:56Z</time><name>PT7325</name></trkpt>
<trkpt lat="53.206076" lon="-2.009423"><ele>445</ele><time>2020-08-19T13:28:59Z</time><name>PT7326</name></trkpt>
<trkpt lat="53.206111" lon="-2.009453"><ele>445</ele><time>2020-08-19T13:29:02Z</time><name>PT7327</name></trkpt>
<trkpt lat="53.206143" lon="-2.009480"><ele>445</ele><time>2020-08-19T13:29:05Z</time><name>PT7328</name></trkpt>
<trkpt lat="53.206181" lon="-2.009548"><ele>446</ele><time>2020-08-19T13:29:10Z</time><name>PT7329</name></trkpt>
<trkpt lat="53.206217" lon="-2.009610"><ele>446</ele><time>2020-08-19T13:29:14Z</time><name>PT7330</name></trkpt>
<trkpt lat="53.206249" lon="-2.009665"><ele>445</ele><time>2020-08-19T13:29:17Z</time><name>PT7331</name></trkpt>
<trkpt lat="53.206279" lon="-2.009736"><ele>445</ele><time>2020-08-19T13:29:22Z</time><name>PT7332</name></trkpt>
<trkpt lat="53.206306" lon="-2.009788"><ele>444</ele><time>2020-08-19T13:29:25Z</time><name>PT7333</name></trkpt>
<trkpt lat="53.206343" lon="-2.009861"><ele>444</ele><time>2020-08-19T13:29:29Z</time><name>PT7334</name></trkpt>
<trkpt lat="53.206373" lon="-2.009907"><ele>444</ele><time>2020-08-19T13:29:32Z</time><name>PT7335</name></trkpt>
<trkpt lat="53.206421" lon="-2.009940"><ele>444</ele><time>2020-08-19T13:29:35Z</time><name>PT7336</name></trkpt>
<trkpt lat="53.206471" lon="-2.009966"><ele>445</ele><time>2020-08-19T13:29:40Z</time><name>PT7337</name></trkpt>
<trkpt lat="53.206520" lon="-2.010014"><ele>445</ele><time>2020-08-19T13:29:44Z</time><name>PT7338</name></trkpt>
<trkpt lat="53.206557" lon="-2.010050"><ele>446</ele><time>2020-08-19T13:29:47Z</time><name>PT7339</name></trkpt>
<trkpt lat="53.206593" lon="-2.010086"><ele>446</ele><time>2020-08-19T13:29:50Z</time><name>PT7340</name></trkpt>
<trkpt lat="53.206624" lon="-2.010122"><ele>446</ele><time>2020-08-19T13:29:53Z</time><name>PT7341</name></trkpt>
<trkpt lat="53.206672" lon="-2.010174"><ele>446</ele><time>2020-08-19T13:29:56Z</time><name>PT7342</name></trkpt>
<trkpt lat="53.206704" lon="-2.010204"><ele>446</ele><time>2020-08-19T13:29:59Z</time><name>PT7343</name></trkpt>
<trkpt lat="53.206751" lon="-2.010244"><ele>446</ele><time>2020-08-19T13:30:04Z</time><name>PT7344</name></trkpt>
<trkpt lat="53.206800" lon="-2.010277"><ele>446</ele><time>2020-08-19T13:30:08Z</time><name>PT7345</name></trkpt>
<trkpt lat="53.206846" lon="-2.010310"><ele>445</ele><time>2020-08-19T13:30:11Z</time><name>PT7346</name></trkpt>
<trkpt lat="53.206895" lon="-2.010337"><ele>444</ele><time>2020-08-19T13:30:16Z</time><name>PT7347</name></trkpt>
<trkpt lat="53.206927" lon="-2.010375"><ele>445</ele><time>2020-08-19T13:30:19Z</time><name>PT7348</name></trkpt>
<trkpt lat="53.206977" lon="-2.010394"><ele>444</ele><time>2020-08-19T13:30:23Z</time><name>PT7349</name></trkpt>
<trkpt lat="53.207009" lon="-2.010410"><ele>443</ele><time>2020-08-19T13:30:26Z</time><name>PT7350</name></trkpt>
<trkpt lat="53.207043" lon="-2.010436"><ele>444</ele><time>2020-08-19T13:30:29Z</time><name>PT7351</name></trkpt>
<trkpt lat="53.207106" lon="-2.010513"><ele>449</ele><time>2020-08-19T13:30:32Z</time><name>PT7352</name></trkpt>
<trkpt lat="53.207146" lon="-2.010549"><ele>450</ele><time>2020-08-19T13:30:35Z</time><name>PT7353</name></trkpt>
<trkpt lat="53.207159" lon="-2.010558"><ele>451</ele><time>2020-08-19T13:30:35Z</time><name>PT7354</name></trkpt>
<trkpt lat="53.207171" lon="-2.010563"><ele>451</ele><time>2020-08-19T13:30:37Z</time><name>PT7355</name></trkpt>
<trkpt lat="53.207183" lon="-2.010568"><ele>451</ele><time>2020-08-19T13:30:38Z</time><name>PT7356</name></trkpt>
<trkpt lat="53.207195" lon="-2.010574"><ele>451</ele><time>2020-08-19T13:30:38Z</time><name>PT7357</name></trkpt>
<trkpt lat="53.207207" lon="-2.010582"><ele>451</ele><time>2020-08-19T13:30:40Z</time><name>PT7358</name></trkpt>
<trkpt lat="53.207223" lon="-2.010591"><ele>450</ele><time>2020-08-19T13:30:41Z</time><name>PT7359</name></trkpt>
<trkpt lat="53.207237" lon="-2.010595"><ele>450</ele><time>2020-08-19T13:30:41Z</time><name>PT7360</name></trkpt>
<trkpt lat="53.207251" lon="-2.010596"><ele>450</ele><time>2020-08-19T13:30:43Z</time><name>PT7361</name></trkpt>
<trkpt lat="53.207264" lon="-2.010596"><ele>450</ele><time>2020-08-19T13:30:44Z</time><name>PT7362</name></trkpt>
<trkpt lat="53.207276" lon="-2.010596"><ele>450</ele><time>2020-08-19T13:30:44Z</time><name>PT7363</name></trkpt>
<trkpt lat="53.207288" lon="-2.010598"><ele>450</ele><time>2020-08-19T13:30:46Z</time><name>PT7364</name></trkpt>
<trkpt lat="53.207301" lon="-2.010602"><ele>450</ele><time>2020-08-19T13:30:47Z</time><name>PT7365</name></trkpt>
<trkpt lat="53.207315" lon="-2.010603"><ele>449</ele><time>2020-08-19T13:30:47Z</time><name>PT7366</name></trkpt>
<trkpt lat="53.207330" lon="-2.010603"><ele>449</ele><time>2020-08-19T13:30:49Z</time><name>PT7367</name></trkpt>
<trkpt lat="53.207340" lon="-2.010594"><ele>449</ele><time>2020-08-19T13:30:50Z</time><name>PT7368</name></trkpt>
<trkpt lat="53.207353" lon="-2.010591"><ele>449</ele><time>2020-08-19T13:30:50Z</time><name>PT7369</name></trkpt>
<trkpt lat="53.207366" lon="-2.010588"><ele>449</ele><time>2020-08-19T13:30:52Z</time><name>PT7370</name></trkpt>
<trkpt lat="53.207379" lon="-2.010588"><ele>449</ele><time>2020-08-19T13:30:53Z</time><name>PT7371</name></trkpt>
<trkpt lat="53.207389" lon="-2.010589"><ele>449</ele><time>2020-08-19T13:30:53Z</time><name>PT7372</name></trkpt>
<trkpt lat="53.207401" lon="-2.010591"><ele>449</ele><time>2020-08-19T13:30:55Z</time><name>PT7373</name></trkpt>
<trkpt lat="53.207413" lon="-2.010589"><ele>448</ele><time>2020-08-19T13:30:56Z</time><name>PT7374</name></trkpt>
<trkpt lat="53.207425" lon="-2.010591"><ele>448</ele><time>2020-08-19T13:30:56Z</time><name>PT7375</name></trkpt>
<trkpt lat="53.207436" lon="-2.010594"><ele>448</ele><time>2020-08-19T13:30:58Z</time><name>PT7376</name></trkpt>
<trkpt lat="53.207449" lon="-2.010599"><ele>448</ele><time>2020-08-19T13:30:59Z</time><name>PT7377</name></trkpt>
<trkpt lat="53.207461" lon="-2.010599"><ele>448</ele><time>2020-08-19T13:30:59Z</time><name>PT7378</name></trkpt>
<trkpt lat="53.207473" lon="-2.010598"><ele>448</ele><time>2020-08-19T13:31:01Z</time><name>PT7379</name></trkpt>
<trkpt lat="53.207483" lon="-2.010601"><ele>447</ele><time>2020-08-19T13:31:02Z</time><name>PT7380</name></trkpt>
<trkpt lat="53.207493" lon="-2.010610"><ele>447</ele><time>2020-08-19T13:31:02Z</time><name>PT7381</name></trkpt>
<trkpt lat="53.207505" lon="-2.010617"><ele>447</ele><time>2020-08-19T13:31:04Z</time><name>PT7382</name></trkpt>
<trkpt lat="53.207519" lon="-2.010618"><ele>447</ele><time>2020-08-19T13:31:05Z</time><name>PT7383</name></trkpt>
<trkpt lat="53.207532" lon="-2.010617"><ele>446</ele><time>2020-08-19T13:31:05Z</time><name>PT7384</name></trkpt>
<trkpt lat="53.207545" lon="-2.010619"><ele>447</ele><time>2020-08-19T13:31:07Z</time><name>PT7385</name></trkpt>
<trkpt lat="53.207558" lon="-2.010624"><ele>447</ele><time>2020-08-19T13:31:08Z</time><name>PT7386</name></trkpt>
<trkpt lat="53.207570" lon="-2.010625"><ele>446</ele><time>2020-08-19T13:31:08Z</time><name>PT7387</name></trkpt>
<trkpt lat="53.207580" lon="-2.010630"><ele>446</ele><time>2020-08-19T13:31:10Z</time><name>PT7388</name></trkpt>
<trkpt lat="53.207586" lon="-2.010625"><ele>446</ele><time>2020-08-19T13:31:11Z</time><name>PT7389</name></trkpt>
<trkpt lat="53.207591" lon="-2.010635"><ele>447</ele><time>2020-08-19T13:31:11Z</time><name>PT7390</name></trkpt>
<trkpt lat="53.207599" lon="-2.010643"><ele>447</ele><time>2020-08-19T13:31:13Z</time><name>PT7391</name></trkpt>
<trkpt lat="53.207609" lon="-2.010645"><ele>447</ele><time>2020-08-19T13:31:14Z</time><name>PT7392</name></trkpt>
<trkpt lat="53.207622" lon="-2.010649"><ele>447</ele><time>2020-08-19T13:31:14Z</time><name>PT7393</name></trkpt>
<trkpt lat="53.207631" lon="-2.010648"><ele>447</ele><time>2020-08-19T13:31:16Z</time><name>PT7394</name></trkpt>
<trkpt lat="53.207643" lon="-2.010661"><ele>447</ele><time>2020-08-19T13:31:17Z</time><name>PT7395</name></trkpt>
<trkpt lat="53.207654" lon="-2.010670"><ele>447</ele><time>2020-08-19T13:31:17Z</time><name>PT7396</name></trkpt>
<trkpt lat="53.207666" lon="-2.010678"><ele>447</ele><time>2020-08-19T13:31:19Z</time><name>PT7397</name></trkpt>
<trkpt lat="53.207676" lon="-2.010686"><ele>447</ele><time>2020-08-19T13:31:20Z</time><name>PT7398</name></trkpt>
<trkpt lat="53.207687" lon="-2.010697"><ele>446</ele><time>2020-08-19T13:31:20Z</time><name>PT7399</name></trkpt>
<trkpt lat="53.207699" lon="-2.010712"><ele>447</ele><time>2020-08-19T13:31:22Z</time><name>PT7400</name></trkpt>
<trkpt lat="53.207710" lon="-2.010717"><ele>447</ele><time>2020-08-19T13:31:23Z</time><name>PT7401</name></trkpt>
<trkpt lat="53.207722" lon="-2.010726"><ele>447</ele><time>2020-08-19T13:31:23Z</time><name>PT7402</name></trkpt>
<trkpt lat="53.207735" lon="-2.010739"><ele>447</ele><time>2020-08-19T13:31:25Z</time><name>PT7403</name></trkpt>
<trkpt lat="53.207745" lon="-2.010755"><ele>447</ele><time>2020-08-19T13:31:26Z</time><name>PT7404</name></trkpt>
<trkpt lat="53.207754" lon="-2.010772"><ele>447</ele><time>2020-08-19T13:31:27Z</time><name>PT7405</name></trkpt>
<trkpt lat="53.207762" lon="-2.010783"><ele>447</ele><time>2020-08-19T13:31:28Z</time><name>PT7406</name></trkpt>
<trkpt lat="53.207769" lon="-2.010797"><ele>447</ele><time>2020-08-19T13:31:29Z</time><name>PT7407</name></trkpt>
<trkpt lat="53.207775" lon="-2.010811"><ele>447</ele><time>2020-08-19T13:31:29Z</time><name>PT7408</name></trkpt>
<trkpt lat="53.207781" lon="-2.010829"><ele>447</ele><time>2020-08-19T13:31:31Z</time><name>PT7409</name></trkpt>
<trkpt lat="53.207786" lon="-2.010844"><ele>447</ele><time>2020-08-19T13:31:32Z</time><name>PT7410</name></trkpt>
<trkpt lat="53.207791" lon="-2.010865"><ele>447</ele><time>2020-08-19T13:31:32Z</time><name>PT7411</name></trkpt>
<trkpt lat="53.207796" lon="-2.010883"><ele>446</ele><time>2020-08-19T13:31:34Z</time><name>PT7412</name></trkpt>
<trkpt lat="53.207800" lon="-2.010903"><ele>447</ele><time>2020-08-19T13:31:35Z</time><name>PT7413</name></trkpt>
<trkpt lat="53.207803" lon="-2.010922"><ele>447</ele><time>2020-08-19T13:31:35Z</time><name>PT7414</name></trkpt>
<trkpt lat="53.207804" lon="-2.010942"><ele>446</ele><time>2020-08-19T13:31:37Z</time><name>PT7415</name></trkpt>
<trkpt lat="53.207809" lon="-2.010964"><ele>447</ele><time>2020-08-19T13:31:38Z</time><name>PT7416</name></trkpt>
<trkpt lat="53.207812" lon="-2.010985"><ele>447</ele><time>2020-08-19T13:31:38Z</time><name>PT7417</name></trkpt>
<trkpt lat="53.207813" lon="-2.011010"><ele>447</ele><time>2020-08-19T13:31:40Z</time><name>PT7418</name></trkpt>
<trkpt lat="53.207817" lon="-2.011035"><ele>447</ele><time>2020-08-19T13:31:41Z</time><name>PT7419</name></trkpt>
<trkpt lat="53.207821" lon="-2.011055"><ele>447</ele><time>2020-08-19T13:31:41Z</time><name>PT7420</name></trkpt>
<trkpt lat="53.207824" lon="-2.011070"><ele>447</ele><time>2020-08-19T13:31:43Z</time><name>PT7421</name></trkpt>
<trkpt lat="53.207826" lon="-2.011087"><ele>447</ele><time>2020-08-19T13:31:44Z</time><name>PT7422</name></trkpt>
<trkpt lat="53.207828" lon="-2.011106"><ele>447</ele><time>2020-08-19T13:31:44Z</time><name>PT7423</name></trkpt>
<trkpt lat="53.207837" lon="-2.011131"><ele>448</ele><time>2020-08-19T13:31:46Z</time><name>PT7424</name></trkpt>
<trkpt lat="53.207844" lon="-2.011153"><ele>448</ele><time>2020-08-19T13:31:47Z</time><name>PT7425</name></trkpt>
<trkpt lat="53.207852" lon="-2.011169"><ele>449</ele><time>2020-08-19T13:31:47Z</time><name>PT7426</name></trkpt>
<trkpt lat="53.207857" lon="-2.011187"><ele>450</ele><time>2020-08-19T13:31:49Z</time><name>PT7427</name></trkpt>
<trkpt lat="53.207861" lon="-2.011201"><ele>449</ele><time>2020-08-19T13:31:50Z</time><name>PT7428</name></trkpt>
<trkpt lat="53.207865" lon="-2.011223"><ele>449</ele><time>2020-08-19T13:31:50Z</time><name>PT7429</name></trkpt>
<trkpt lat="53.207867" lon="-2.011244"><ele>449</ele><time>2020-08-19T13:31:52Z</time><name>PT7430</name></trkpt>
<trkpt lat="53.207868" lon="-2.011262"><ele>448</ele><time>2020-08-19T13:31:53Z</time><name>PT7431</name></trkpt>
<trkpt lat="53.207874" lon="-2.011279"><ele>448</ele><time>2020-08-19T13:31:53Z</time><name>PT7432</name></trkpt>
<trkpt lat="53.207879" lon="-2.011292"><ele>447</ele><time>2020-08-19T13:31:55Z</time><name>PT7433</name></trkpt>
<trkpt lat="53.207885" lon="-2.011304"><ele>447</ele><time>2020-08-19T13:31:56Z</time><name>PT7434</name></trkpt>
<trkpt lat="53.207894" lon="-2.011320"><ele>447</ele><time>2020-08-19T13:31:56Z</time><name>PT7435</name></trkpt>
<trkpt lat="53.207901" lon="-2.011335"><ele>447</ele><time>2020-08-19T13:31:58Z</time><name>PT7436</name></trkpt>
<trkpt lat="53.207907" lon="-2.011347"><ele>447</ele><time>2020-08-19T13:31:59Z</time><name>PT7437</name></trkpt>
<trkpt lat="53.207921" lon="-2.011358"><ele>447</ele><time>2020-08-19T13:31:59Z</time><name>PT7438</name></trkpt>
<trkpt lat="53.207932" lon="-2.011369"><ele>447</ele><time>2020-08-19T13:32:01Z</time><name>PT7439</name></trkpt>
<trkpt lat="53.207944" lon="-2.011379"><ele>447</ele><time>2020-08-19T13:32:02Z</time><name>PT7440</name></trkpt>
<trkpt lat="53.207953" lon="-2.011389"><ele>447</ele><time>2020-08-19T13:32:02Z</time><name>PT7441</name></trkpt>
<trkpt lat="53.207965" lon="-2.011399"><ele>447</ele><time>2020-08-19T13:32:04Z</time><name>PT7442</name></trkpt>
<trkpt lat="53.207975" lon="-2.011402"><ele>447</ele><time>2020-08-19T13:32:05Z</time><name>PT7443</name></trkpt>
<trkpt lat="53.207989" lon="-2.011416"><ele>447</ele><time>2020-08-19T13:32:05Z</time><name>PT7444</name></trkpt>
<trkpt lat="53.207998" lon="-2.011422"><ele>447</ele><time>2020-08-19T13:32:07Z</time><name>PT7445</name></trkpt>
<trkpt lat="53.208009" lon="-2.011434"><ele>447</ele><time>2020-08-19T13:32:08Z</time><name>PT7446</name></trkpt>
<trkpt lat="53.208021" lon="-2.011446"><ele>447</ele><time>2020-08-19T13:32:08Z</time><name>PT7447</name></trkpt>
<trkpt lat="53.208033" lon="-2.011454"><ele>446</ele><time>2020-08-19T13:32:10Z</time><name>PT7448</name></trkpt>
<trkpt lat="53.208044" lon="-2.011464"><ele>447</ele><time>2020-08-19T13:32:11Z</time><name>PT7449</name></trkpt>
<trkpt lat="53.208054" lon="-2.011469"><ele>446</ele><time>2020-08-19T13:32:11Z</time><name>PT7450</name></trkpt>
<trkpt lat="53.208065" lon="-2.011480"><ele>446</ele><time>2020-08-19T13:32:13Z</time><name>PT7451</name></trkpt>
<trkpt lat="53.208077" lon="-2.011484"><ele>446</ele><time>2020-08-19T13:32:14Z</time><name>PT7452</name></trkpt>
<trkpt lat="53.208087" lon="-2.011499"><ele>446</ele><time>2020-08-19T13:32:14Z</time><name>PT7453</name></trkpt>
<trkpt lat="53.208097" lon="-2.011519"><ele>447</ele><time>2020-08-19T13:32:16Z</time><name>PT7454</name></trkpt>
<trkpt lat="53.208114" lon="-2.011525"><ele>447</ele><time>2020-08-19T13:32:17Z</time><name>PT7455</name></trkpt>
<trkpt lat="53.208125" lon="-2.011536"><ele>446</ele><time>2020-08-19T13:32:17Z</time><name>PT7456</name></trkpt>
<trkpt lat="53.208138" lon="-2.011548"><ele>446</ele><time>2020-08-19T13:32:19Z</time><name>PT7457</name></trkpt>
<trkpt lat="53.208148" lon="-2.011558"><ele>446</ele><time>2020-08-19T13:32:20Z</time><name>PT7458</name></trkpt>
<trkpt lat="53.208160" lon="-2.011563"><ele>446</ele><time>2020-08-19T13:32:20Z</time><name>PT7459</name></trkpt>
<trkpt lat="53.208172" lon="-2.011573"><ele>446</ele><time>2020-08-19T13:32:22Z</time><name>PT7460</name></trkpt>
<trkpt lat="53.208185" lon="-2.011588"><ele>446</ele><time>2020-08-19T13:32:23Z</time><name>PT7461</name></trkpt>
<trkpt lat="53.208197" lon="-2.011601"><ele>446</ele><time>2020-08-19T13:32:23Z</time><name>PT7462</name></trkpt>
<trkpt lat="53.208207" lon="-2.011612"><ele>446</ele><time>2020-08-19T13:32:25Z</time><name>PT7463</name></trkpt>
<trkpt lat="53.208218" lon="-2.011621"><ele>445</ele><time>2020-08-19T13:32:26Z</time><name>PT7464</name></trkpt>
<trkpt lat="53.208229" lon="-2.011627"><ele>446</ele><time>2020-08-19T13:32:26Z</time><name>PT7465</name></trkpt>
<trkpt lat="53.208241" lon="-2.011640"><ele>446</ele><time>2020-08-19T13:32:28Z</time><name>PT7466</name></trkpt>
<trkpt lat="53.208251" lon="-2.011649"><ele>446</ele><time>2020-08-19T13:32:29Z</time><name>PT7467</name></trkpt>
<trkpt lat="53.208264" lon="-2.011657"><ele>446</ele><time>2020-08-19T13:32:29Z</time><name>PT7468</name></trkpt>
<trkpt lat="53.208275" lon="-2.011673"><ele>447</ele><time>2020-08-19T13:32:31Z</time><name>PT7469</name></trkpt>
<trkpt lat="53.208284" lon="-2.011689"><ele>447</ele><time>2020-08-19T13:32:32Z</time><name>PT7470</name></trkpt>
<trkpt lat="53.208295" lon="-2.011700"><ele>447</ele><time>2020-08-19T13:32:32Z</time><name>PT7471</name></trkpt>
<trkpt lat="53.208305" lon="-2.011717"><ele>448</ele><time>2020-08-19T13:32:34Z</time><name>PT7472</name></trkpt>
<trkpt lat="53.208319" lon="-2.011725"><ele>447</ele><time>2020-08-19T13:32:35Z</time><name>PT7473</name></trkpt>
<trkpt lat="53.208328" lon="-2.011729"><ele>447</ele><time>2020-08-19T13:32:35Z</time><name>PT7474</name></trkpt>
<trkpt lat="53.208339" lon="-2.011743"><ele>447</ele><time>2020-08-19T13:32:37Z</time><name>PT7475</name></trkpt>
<trkpt lat="53.208352" lon="-2.011755"><ele>447</ele><time>2020-08-19T13:32:38Z</time><name>PT7476</name></trkpt>
<trkpt lat="53.208362" lon="-2.011763"><ele>446</ele><time>2020-08-19T13:32:38Z</time><name>PT7477</name></trkpt>
<trkpt lat="53.208374" lon="-2.011767"><ele>446</ele><time>2020-08-19T13:32:40Z</time><name>PT7478</name></trkpt>
<trkpt lat="53.208383" lon="-2.011779"><ele>446</ele><time>2020-08-19T13:32:41Z</time><name>PT7479</name></trkpt>
<trkpt lat="53.208396" lon="-2.011781"><ele>445</ele><time>2020-08-19T13:32:41Z</time><name>PT7480</name></trkpt>
<trkpt lat="53.208407" lon="-2.011789"><ele>445</ele><time>2020-08-19T13:32:43Z</time><name>PT7481</name></trkpt>
<trkpt lat="53.208417" lon="-2.011795"><ele>445</ele><time>2020-08-19T13:32:44Z</time><name>PT7482</name></trkpt>
<trkpt lat="53.208429" lon="-2.011800"><ele>444</ele><time>2020-08-19T13:32:44Z</time><name>PT7483</name></trkpt>
<trkpt lat="53.208438" lon="-2.011808"><ele>444</ele><time>2020-08-19T13:32:46Z</time><name>PT7484</name></trkpt>
<trkpt lat="53.208449" lon="-2.011817"><ele>444</ele><time>2020-08-19T13:32:47Z</time><name>PT7485</name></trkpt>
<trkpt lat="53.208459" lon="-2.011820"><ele>444</ele><time>2020-08-19T13:32:47Z</time><name>PT7486</name></trkpt>
<trkpt lat="53.208469" lon="-2.011832"><ele>445</ele><time>2020-08-19T13:32:49Z</time><name>PT7487</name></trkpt>
<trkpt lat="53.208480" lon="-2.011840"><ele>445</ele><time>2020-08-19T13:32:50Z</time><name>PT7488</name></trkpt>
<trkpt lat="53.208491" lon="-2.011851"><ele>445</ele><time>2020-08-19T13:32:51Z</time><name>PT7489</name></trkpt>
<trkpt lat="53.208505" lon="-2.011855"><ele>445</ele><time>2020-08-19T13:32:52Z</time><name>PT7490</name></trkpt>
<trkpt lat="53.208515" lon="-2.011864"><ele>445</ele><time>2020-08-19T13:32:53Z</time><name>PT7491</name></trkpt>
<trkpt lat="53.208528" lon="-2.011862"><ele>445</ele><time>2020-08-19T13:32:53Z</time><name>PT7492</name></trkpt>
<trkpt lat="53.208537" lon="-2.011869"><ele>445</ele><time>2020-08-19T13:32:55Z</time><name>PT7493</name></trkpt>
<trkpt lat="53.208549" lon="-2.011872"><ele>445</ele><time>2020-08-19T13:32:56Z</time><name>PT7494</name></trkpt>
<trkpt lat="53.208560" lon="-2.011878"><ele>445</ele><time>2020-08-19T13:32:56Z</time><name>PT7495</name></trkpt>
<trkpt lat="53.208568" lon="-2.011885"><ele>444</ele><time>2020-08-19T13:32:58Z</time><name>PT7496</name></trkpt>
<trkpt lat="53.208579" lon="-2.011892"><ele>444</ele><time>2020-08-19T13:32:59Z</time><name>PT7497</name></trkpt>
<trkpt lat="53.208595" lon="-2.011898"><ele>444</ele><time>2020-08-19T13:32:59Z</time><name>PT7498</name></trkpt>
<trkpt lat="53.208607" lon="-2.011908"><ele>444</ele><time>2020-08-19T13:33:01Z</time><name>PT7499</name></trkpt>
<trkpt lat="53.208618" lon="-2.011910"><ele>443</ele><time>2020-08-19T13:33:02Z</time><name>PT7500</name></trkpt>
<trkpt lat="53.208632" lon="-2.011912"><ele>443</ele><time>2020-08-19T13:33:02Z</time><name>PT7501</name></trkpt>
<trkpt lat="53.208646" lon="-2.011916"><ele>443</ele><time>2020-08-19T13:33:04Z</time><name>PT7502</name></trkpt>
<trkpt lat="53.208659" lon="-2.011920"><ele>442</ele><time>2020-08-19T13:33:05Z</time><name>PT7503</name></trkpt>
<trkpt lat="53.208672" lon="-2.011924"><ele>442</ele><time>2020-08-19T13:33:05Z</time><name>PT7504</name></trkpt>
<trkpt lat="53.208683" lon="-2.011929"><ele>442</ele><time>2020-08-19T13:33:07Z</time><name>PT7505</name></trkpt>
<trkpt lat="53.208696" lon="-2.011933"><ele>442</ele><time>2020-08-19T13:33:08Z</time><name>PT7506</name></trkpt>
<trkpt lat="53.208707" lon="-2.011940"><ele>443</ele><time>2020-08-19T13:33:08Z</time><name>PT7507</name></trkpt>
<trkpt lat="53.208719" lon="-2.011946"><ele>442</ele><time>2020-08-19T13:33:10Z</time><name>PT7508</name></trkpt>
<trkpt lat="53.208731" lon="-2.011948"><ele>442</ele><time>2020-08-19T13:33:11Z</time><name>PT7509</name></trkpt>
<trkpt lat="53.208742" lon="-2.011951"><ele>442</ele><time>2020-08-19T13:33:11Z</time><name>PT7510</name></trkpt>
<trkpt lat="53.208754" lon="-2.011954"><ele>441</ele><time>2020-08-19T13:33:13Z</time><name>PT7511</name></trkpt>
<trkpt lat="53.208766" lon="-2.011958"><ele>442</ele><time>2020-08-19T13:33:14Z</time><name>PT7512</name></trkpt>
<trkpt lat="53.208780" lon="-2.011961"><ele>442</ele><time>2020-08-19T13:33:14Z</time><name>PT7513</name></trkpt>
<trkpt lat="53.208791" lon="-2.011971"><ele>442</ele><time>2020-08-19T13:33:16Z</time><name>PT7514</name></trkpt>
<trkpt lat="53.208803" lon="-2.011974"><ele>442</ele><time>2020-08-19T13:33:17Z</time><name>PT7515</name></trkpt>
<trkpt lat="53.208810" lon="-2.011972"><ele>441</ele><time>2020-08-19T13:33:17Z</time><name>PT7516</name></trkpt>
<trkpt lat="53.208820" lon="-2.011972"><ele>441</ele><time>2020-08-19T13:33:19Z</time><name>PT7517</name></trkpt>
<trkpt lat="53.208829" lon="-2.011969"><ele>441</ele><time>2020-08-19T13:33:20Z</time><name>PT7518</name></trkpt>
<trkpt lat="53.208839" lon="-2.011974"><ele>441</ele><time>2020-08-19T13:33:20Z</time><name>PT7519</name></trkpt>
<trkpt lat="53.208851" lon="-2.011983"><ele>441</ele><time>2020-08-19T13:33:22Z</time><name>PT7520</name></trkpt>
<trkpt lat="53.208863" lon="-2.011994"><ele>441</ele><time>2020-08-19T13:33:23Z</time><name>PT7521</name></trkpt>
<trkpt lat="53.208877" lon="-2.011998"><ele>440</ele><time>2020-08-19T13:33:23Z</time><name>PT7522</name></trkpt>
<trkpt lat="53.208888" lon="-2.012002"><ele>440</ele><time>2020-08-19T13:33:25Z</time><name>PT7523</name></trkpt>
<trkpt lat="53.208901" lon="-2.012008"><ele>439</ele><time>2020-08-19T13:33:26Z</time><name>PT7524</name></trkpt>
<trkpt lat="53.208914" lon="-2.012020"><ele>440</ele><time>2020-08-19T13:33:26Z</time><name>PT7525</name></trkpt>
<trkpt lat="53.208928" lon="-2.012020"><ele>439</ele><time>2020-08-19T13:33:28Z</time><name>PT7526</name></trkpt>
<trkpt lat="53.208940" lon="-2.012020"><ele>439</ele><time>2020-08-19T13:33:29Z</time><name>PT7527</name></trkpt>
<trkpt lat="53.208954" lon="-2.012019"><ele>439</ele><time>2020-08-19T13:33:29Z</time><name>PT7528</name></trkpt>
<trkpt lat="53.208968" lon="-2.012026"><ele>439</ele><time>2020-08-19T13:33:31Z</time><name>PT7529</name></trkpt>
<trkpt lat="53.208982" lon="-2.012032"><ele>438</ele><time>2020-08-19T13:33:32Z</time><name>PT7530</name></trkpt>
<trkpt lat="53.208995" lon="-2.012041"><ele>439</ele><time>2020-08-19T13:33:32Z</time><name>PT7531</name></trkpt>
<trkpt lat="53.209010" lon="-2.012048"><ele>439</ele><time>2020-08-19T13:33:34Z</time><name>PT7532</name></trkpt>
<trkpt lat="53.209024" lon="-2.012054"><ele>440</ele><time>2020-08-19T13:33:35Z</time><name>PT7533</name></trkpt>
<trkpt lat="53.209066" lon="-2.012080"><ele>439</ele><time>2020-08-19T13:33:38Z</time><name>PT7534</name></trkpt>
<trkpt lat="53.209113" lon="-2.012113"><ele>439</ele><time>2020-08-19T13:33:41Z</time><name>PT7535</name></trkpt>
<trkpt lat="53.209142" lon="-2.012149"><ele>438</ele><time>2020-08-19T13:33:44Z</time><name>PT7536</name></trkpt>
<trkpt lat="53.209174" lon="-2.012174"><ele>438</ele><time>2020-08-19T13:33:47Z</time><name>PT7537</name></trkpt>
<trkpt lat="53.209226" lon="-2.012196"><ele>437</ele><time>2020-08-19T13:33:52Z</time><name>PT7538</name></trkpt>
<trkpt lat="53.209265" lon="-2.012222"><ele>437</ele><time>2020-08-19T13:33:55Z</time><name>PT7539</name></trkpt>
<trkpt lat="53.209321" lon="-2.012251"><ele>437</ele><time>2020-08-19T13:33:59Z</time><name>PT7540</name></trkpt>
<trkpt lat="53.209378" lon="-2.012278"><ele>437</ele><time>2020-08-19T13:34:02Z</time><name>PT7541</name></trkpt>
<trkpt lat="53.209419" lon="-2.012290"><ele>437</ele><time>2020-08-19T13:34:05Z</time><name>PT7542</name></trkpt>
<trkpt lat="53.209455" lon="-2.012312"><ele>437</ele><time>2020-08-19T13:34:08Z</time><name>PT7543</name></trkpt>
<trkpt lat="53.209487" lon="-2.012332"><ele>437</ele><time>2020-08-19T13:34:11Z</time><name>PT7544</name></trkpt>
<trkpt lat="53.209533" lon="-2.012375"><ele>436</ele><time>2020-08-19T13:34:16Z</time><name>PT7545</name></trkpt>
<trkpt lat="53.209569" lon="-2.012413"><ele>435</ele><time>2020-08-19T13:34:20Z</time><name>PT7546</name></trkpt>
<trkpt lat="53.209604" lon="-2.012455"><ele>435</ele><time>2020-08-19T13:34:23Z</time><name>PT7547</name></trkpt>
<trkpt lat="53.209652" lon="-2.012484"><ele>433</ele><time>2020-08-19T13:34:26Z</time><name>PT7548</name></trkpt>
<trkpt lat="53.209680" lon="-2.012520"><ele>433</ele><time>2020-08-19T13:34:29Z</time><name>PT7549</name></trkpt>
<trkpt lat="53.209710" lon="-2.012546"><ele>432</ele><time>2020-08-19T13:34:32Z</time><name>PT7550</name></trkpt>
<trkpt lat="53.209741" lon="-2.012574"><ele>432</ele><time>2020-08-19T13:34:35Z</time><name>PT7551</name></trkpt>
<trkpt lat="53.209778" lon="-2.012610"><ele>430</ele><time>2020-08-19T13:34:40Z</time><name>PT7552</name></trkpt>
<trkpt lat="53.209805" lon="-2.012638"><ele>430</ele><time>2020-08-19T13:34:43Z</time><name>PT7553</name></trkpt>
<trkpt lat="53.209848" lon="-2.012683"><ele>429</ele><time>2020-08-19T13:34:47Z</time><name>PT7554</name></trkpt>
<trkpt lat="53.209889" lon="-2.012727"><ele>430</ele><time>2020-08-19T13:34:50Z</time><name>PT7555</name></trkpt>
<trkpt lat="53.209923" lon="-2.012772"><ele>430</ele><time>2020-08-19T13:34:55Z</time><name>PT7556</name></trkpt>
<trkpt lat="53.209956" lon="-2.012808"><ele>428</ele><time>2020-08-19T13:34:59Z</time><name>PT7557</name></trkpt>
<trkpt lat="53.209991" lon="-2.012824"><ele>427</ele><time>2020-08-19T13:35:02Z</time><name>PT7558</name></trkpt>
<trkpt lat="53.210019" lon="-2.012859"><ele>427</ele><time>2020-08-19T13:35:05Z</time><name>PT7559</name></trkpt>
<trkpt lat="53.210044" lon="-2.012896"><ele>426</ele><time>2020-08-19T13:35:08Z</time><name>PT7560</name></trkpt>
<trkpt lat="53.210076" lon="-2.012935"><ele>425</ele><time>2020-08-19T13:35:11Z</time><name>PT7561</name></trkpt>
<trkpt lat="53.210109" lon="-2.012973"><ele>424</ele><time>2020-08-19T13:35:16Z</time><name>PT7562</name></trkpt>
<trkpt lat="53.210131" lon="-2.012999"><ele>423</ele><time>2020-08-19T13:35:19Z</time><name>PT7563</name></trkpt>
<trkpt lat="53.210162" lon="-2.013043"><ele>423</ele><time>2020-08-19T13:35:23Z</time><name>PT7564</name></trkpt>
<trkpt lat="53.210190" lon="-2.013097"><ele>421</ele><time>2020-08-19T13:35:26Z</time><name>PT7565</name></trkpt>
<trkpt lat="53.210214" lon="-2.013128"><ele>420</ele><time>2020-08-19T13:35:29Z</time><name>PT7566</name></trkpt>
<trkpt lat="53.210256" lon="-2.013152"><ele>419</ele><time>2020-08-19T13:35:34Z</time><name>PT7567</name></trkpt>
<trkpt lat="53.210287" lon="-2.013209"><ele>419</ele><time>2020-08-19T13:35:38Z</time><name>PT7568</name></trkpt>
<trkpt lat="53.210311" lon="-2.013236"><ele>417</ele><time>2020-08-19T13:35:41Z</time><name>PT7569</name></trkpt>
<trkpt lat="53.210335" lon="-2.013254"><ele>415</ele><time>2020-08-19T13:35:44Z</time><name>PT7570</name></trkpt>
<trkpt lat="53.210381" lon="-2.013289"><ele>413</ele><time>2020-08-19T13:35:47Z</time><name>PT7571</name></trkpt>
<trkpt lat="53.210416" lon="-2.013318"><ele>412</ele><time>2020-08-19T13:35:50Z</time><name>PT7572</name></trkpt>
<trkpt lat="53.210447" lon="-2.013344"><ele>411</ele><time>2020-08-19T13:35:53Z</time><name>PT7573</name></trkpt>
<trkpt lat="53.210476" lon="-2.013395"><ele>410</ele><time>2020-08-19T13:35:56Z</time><name>PT7574</name></trkpt>
<trkpt lat="53.210500" lon="-2.013442"><ele>410</ele><time>2020-08-19T13:35:59Z</time><name>PT7575</name></trkpt>
<trkpt lat="53.210515" lon="-2.013521"><ele>409</ele><time>2020-08-19T13:36:04Z</time><name>PT7576</name></trkpt>
<trkpt lat="53.210530" lon="-2.013599"><ele>408</ele><time>2020-08-19T13:36:08Z</time><name>PT7577</name></trkpt>
<trkpt lat="53.210546" lon="-2.013636"><ele>407</ele><time>2020-08-19T13:36:11Z</time><name>PT7578</name></trkpt>
<trkpt lat="53.210572" lon="-2.013695"><ele>406</ele><time>2020-08-19T13:36:14Z</time><name>PT7579</name></trkpt>
<trkpt lat="53.210605" lon="-2.013726"><ele>405</ele><time>2020-08-19T13:36:19Z</time><name>PT7580</name></trkpt>
<trkpt lat="53.210634" lon="-2.013750"><ele>404</ele><time>2020-08-19T13:36:22Z</time><name>PT7581</name></trkpt>
<trkpt lat="53.210667" lon="-2.013763"><ele>401</ele><time>2020-08-19T13:36:26Z</time><name>PT7582</name></trkpt>
<trkpt lat="53.210702" lon="-2.013778"><ele>398</ele><time>2020-08-19T13:36:29Z</time><name>PT7583</name></trkpt>
<trkpt lat="53.210733" lon="-2.013794"><ele>398</ele><time>2020-08-19T13:36:32Z</time><name>PT7584</name></trkpt>
<trkpt lat="53.210764" lon="-2.013814"><ele>398</ele><time>2020-08-19T13:36:35Z</time><name>PT7585</name></trkpt>
<trkpt lat="53.210803" lon="-2.013831"><ele>398</ele><time>2020-08-19T13:36:38Z</time><name>PT7586</name></trkpt>
<trkpt lat="53.210850" lon="-2.013851"><ele>397</ele><time>2020-08-19T13:36:43Z</time><name>PT7587</name></trkpt>
<trkpt lat="53.210886" lon="-2.013879"><ele>397</ele><time>2020-08-19T13:36:46Z</time><name>PT7588</name></trkpt>
<trkpt lat="53.210920" lon="-2.013949"><ele>401</ele><time>2020-08-19T13:36:49Z</time><name>PT7589</name></trkpt>
<trkpt lat="53.210942" lon="-2.013962"><ele>402</ele><time>2020-08-19T13:36:50Z</time><name>PT7590</name></trkpt>
<trkpt lat="53.210951" lon="-2.013974"><ele>402</ele><time>2020-08-19T13:36:50Z</time><name>PT7591</name></trkpt>
<trkpt lat="53.210959" lon="-2.013983"><ele>402</ele><time>2020-08-19T13:36:52Z</time><name>PT7592</name></trkpt>
<trkpt lat="53.210966" lon="-2.013985"><ele>401</ele><time>2020-08-19T13:36:53Z</time><name>PT7593</name></trkpt>
<trkpt lat="53.210976" lon="-2.013988"><ele>401</ele><time>2020-08-19T13:36:53Z</time><name>PT7594</name></trkpt>
<trkpt lat="53.210987" lon="-2.013991"><ele>401</ele><time>2020-08-19T13:36:55Z</time><name>PT7595</name></trkpt>
<trkpt lat="53.210995" lon="-2.013999"><ele>401</ele><time>2020-08-19T13:36:56Z</time><name>PT7596</name></trkpt>
<trkpt lat="53.211004" lon="-2.014006"><ele>401</ele><time>2020-08-19T13:36:56Z</time><name>PT7597</name></trkpt>
<trkpt lat="53.211012" lon="-2.014012"><ele>401</ele><time>2020-08-19T13:36:58Z</time><name>PT7598</name></trkpt>
<trkpt lat="53.211021" lon="-2.014020"><ele>401</ele><time>2020-08-19T13:36:59Z</time><name>PT7599</name></trkpt>
<trkpt lat="53.211032" lon="-2.014027"><ele>401</ele><time>2020-08-19T13:36:59Z</time><name>PT7600</name></trkpt>
<trkpt lat="53.211041" lon="-2.014031"><ele>401</ele><time>2020-08-19T13:37:01Z</time><name>PT7601</name></trkpt>
<trkpt lat="53.211049" lon="-2.014035"><ele>401</ele><time>2020-08-19T13:37:02Z</time><name>PT7602</name></trkpt>
<trkpt lat="53.211057" lon="-2.014040"><ele>400</ele><time>2020-08-19T13:37:02Z</time><name>PT7603</name></trkpt>
<trkpt lat="53.211066" lon="-2.014049"><ele>400</ele><time>2020-08-19T13:37:04Z</time><name>PT7604</name></trkpt>
<trkpt lat="53.211076" lon="-2.014056"><ele>400</ele><time>2020-08-19T13:37:05Z</time><name>PT7605</name></trkpt>
<trkpt lat="53.211084" lon="-2.014063"><ele>400</ele><time>2020-08-19T13:37:05Z</time><name>PT7606</name></trkpt>
<trkpt lat="53.211093" lon="-2.014067"><ele>400</ele><time>2020-08-19T13:37:07Z</time><name>PT7607</name></trkpt>
<trkpt lat="53.211101" lon="-2.014067"><ele>400</ele><time>2020-08-19T13:37:08Z</time><name>PT7608</name></trkpt>
<trkpt lat="53.211107" lon="-2.014066"><ele>399</ele><time>2020-08-19T13:37:08Z</time><name>PT7609</name></trkpt>
<trkpt lat="53.211113" lon="-2.014066"><ele>399</ele><time>2020-08-19T13:37:10Z</time><name>PT7610</name></trkpt>
<trkpt lat="53.211121" lon="-2.014070"><ele>399</ele><time>2020-08-19T13:37:11Z</time><name>PT7611</name></trkpt>
<trkpt lat="53.211127" lon="-2.014072"><ele>398</ele><time>2020-08-19T13:37:11Z</time><name>PT7612</name></trkpt>
<trkpt lat="53.211132" lon="-2.014077"><ele>398</ele><time>2020-08-19T13:37:13Z</time><name>PT7613</name></trkpt>
<trkpt lat="53.211134" lon="-2.014081"><ele>398</ele><time>2020-08-19T13:37:14Z</time><name>PT7614</name></trkpt>
<trkpt lat="53.211133" lon="-2.014080"><ele>398</ele><time>2020-08-19T13:37:14Z</time><name>PT7615</name></trkpt>
<trkpt lat="53.211133" lon="-2.014081"><ele>398</ele><time>2020-08-19T13:37:16Z</time><name>PT7616</name></trkpt>
<trkpt lat="53.211133" lon="-2.014081"><ele>398</ele><time>2020-08-19T13:37:17Z</time><name>PT7617</name></trkpt>
<trkpt lat="53.211130" lon="-2.014081"><ele>398</ele><time>2020-08-19T13:37:34Z</time><name>PT7618</name></trkpt>
<trkpt lat="53.211140" lon="-2.014087"><ele>398</ele><time>2020-08-19T13:37:35Z</time><name>PT7619</name></trkpt>
<trkpt lat="53.211149" lon="-2.014091"><ele>398</ele><time>2020-08-19T13:37:35Z</time><name>PT7620</name></trkpt>
<trkpt lat="53.211161" lon="-2.014099"><ele>398</ele><time>2020-08-19T13:37:37Z</time><name>PT7621</name></trkpt>
<trkpt lat="53.211170" lon="-2.014101"><ele>397</ele><time>2020-08-19T13:37:38Z</time><name>PT7622</name></trkpt>
<trkpt lat="53.211181" lon="-2.014107"><ele>397</ele><time>2020-08-19T13:37:38Z</time><name>PT7623</name></trkpt>
<trkpt lat="53.211192" lon="-2.014114"><ele>397</ele><time>2020-08-19T13:37:40Z</time><name>PT7624</name></trkpt>
<trkpt lat="53.211207" lon="-2.014128"><ele>397</ele><time>2020-08-19T13:37:41Z</time><name>PT7625</name></trkpt>
<trkpt lat="53.211217" lon="-2.014142"><ele>397</ele><time>2020-08-19T13:37:41Z</time><name>PT7626</name></trkpt>
<trkpt lat="53.211228" lon="-2.014156"><ele>397</ele><time>2020-08-19T13:37:43Z</time><name>PT7627</name></trkpt>
<trkpt lat="53.211239" lon="-2.014166"><ele>397</ele><time>2020-08-19T13:37:44Z</time><name>PT7628</name></trkpt>
<trkpt lat="53.211248" lon="-2.014174"><ele>396</ele><time>2020-08-19T13:37:44Z</time><name>PT7629</name></trkpt>
<trkpt lat="53.211258" lon="-2.014180"><ele>396</ele><time>2020-08-19T13:37:46Z</time><name>PT7630</name></trkpt>
<trkpt lat="53.211267" lon="-2.014189"><ele>397</ele><time>2020-08-19T13:37:47Z</time><name>PT7631</name></trkpt>
<trkpt lat="53.211278" lon="-2.014194"><ele>396</ele><time>2020-08-19T13:37:47Z</time><name>PT7632</name></trkpt>
<trkpt lat="53.211287" lon="-2.014204"><ele>396</ele><time>2020-08-19T13:37:49Z</time><name>PT7633</name></trkpt>
<trkpt lat="53.211292" lon="-2.014217"><ele>395</ele><time>2020-08-19T13:37:50Z</time><name>PT7634</name></trkpt>
<trkpt lat="53.211305" lon="-2.014231"><ele>396</ele><time>2020-08-19T13:37:50Z</time><name>PT7635</name></trkpt>
<trkpt lat="53.211317" lon="-2.014245"><ele>396</ele><time>2020-08-19T13:37:52Z</time><name>PT7636</name></trkpt>
<trkpt lat="53.211326" lon="-2.014260"><ele>396</ele><time>2020-08-19T13:37:53Z</time><name>PT7637</name></trkpt>
<trkpt lat="53.211334" lon="-2.014277"><ele>396</ele><time>2020-08-19T13:37:53Z</time><name>PT7638</name></trkpt>
<trkpt lat="53.211340" lon="-2.014289"><ele>396</ele><time>2020-08-19T13:37:55Z</time><name>PT7639</name></trkpt>
<trkpt lat="53.211343" lon="-2.014297"><ele>396</ele><time>2020-08-19T13:37:56Z</time><name>PT7640</name></trkpt>
<trkpt lat="53.211343" lon="-2.014297"><ele>396</ele><time>2020-08-19T13:37:56Z</time><name>PT7641</name></trkpt>
<trkpt lat="53.211341" lon="-2.014301"><ele>397</ele><time>2020-08-19T13:37:58Z</time><name>PT7642</name></trkpt>
<trkpt lat="53.211340" lon="-2.014302"><ele>397</ele><time>2020-08-19T13:37:59Z</time><name>PT7643</name></trkpt>
<trkpt lat="53.211341" lon="-2.014308"><ele>397</ele><time>2020-08-19T13:37:59Z</time><name>PT7644</name></trkpt>
<trkpt lat="53.211343" lon="-2.014313"><ele>396</ele><time>2020-08-19T13:38:01Z</time><name>PT7645</name></trkpt>
<trkpt lat="53.211342" lon="-2.014313"><ele>396</ele><time>2020-08-19T13:38:02Z</time><name>PT7646</name></trkpt>
<trkpt lat="53.211345" lon="-2.014316"><ele>396</ele><time>2020-08-19T13:38:03Z</time><name>PT7647</name></trkpt>
<trkpt lat="53.211351" lon="-2.014301"><ele>396</ele><time>2020-08-19T13:38:04Z</time><name>PT7648</name></trkpt>
<trkpt lat="53.211352" lon="-2.014293"><ele>395</ele><time>2020-08-19T13:38:05Z</time><name>PT7649</name></trkpt>
<trkpt lat="53.211359" lon="-2.014285"><ele>395</ele><time>2020-08-19T13:38:05Z</time><name>PT7650</name></trkpt>
<trkpt lat="53.211369" lon="-2.014273"><ele>395</ele><time>2020-08-19T13:38:07Z</time><name>PT7651</name></trkpt>
<trkpt lat="53.211383" lon="-2.014264"><ele>394</ele><time>2020-08-19T13:38:08Z</time><name>PT7652</name></trkpt>
<trkpt lat="53.211395" lon="-2.014255"><ele>394</ele><time>2020-08-19T13:38:09Z</time><name>PT7653</name></trkpt>
<trkpt lat="53.211405" lon="-2.014251"><ele>394</ele><time>2020-08-19T13:38:10Z</time><name>PT7654</name></trkpt>
<trkpt lat="53.211417" lon="-2.014245"><ele>394</ele><time>2020-08-19T13:38:11Z</time><name>PT7655</name></trkpt>
<trkpt lat="53.211428" lon="-2.014242"><ele>393</ele><time>2020-08-19T13:38:12Z</time><name>PT7656</name></trkpt>
<trkpt lat="53.211441" lon="-2.014241"><ele>393</ele><time>2020-08-19T13:38:13Z</time><name>PT7657</name></trkpt>
<trkpt lat="53.211450" lon="-2.014239"><ele>392</ele><time>2020-08-19T13:38:14Z</time><name>PT7658</name></trkpt>
<trkpt lat="53.211461" lon="-2.014245"><ele>392</ele><time>2020-08-19T13:38:15Z</time><name>PT7659</name></trkpt>
<trkpt lat="53.211471" lon="-2.014251"><ele>392</ele><time>2020-08-19T13:38:16Z</time><name>PT7660</name></trkpt>
<trkpt lat="53.211482" lon="-2.014258"><ele>392</ele><time>2020-08-19T13:38:17Z</time><name>PT7661</name></trkpt>
<trkpt lat="53.211494" lon="-2.014264"><ele>392</ele><time>2020-08-19T13:38:17Z</time><name>PT7662</name></trkpt>
<trkpt lat="53.211508" lon="-2.014268"><ele>392</ele><time>2020-08-19T13:38:19Z</time><name>PT7663</name></trkpt>
<trkpt lat="53.211522" lon="-2.014273"><ele>392</ele><time>2020-08-19T13:38:20Z</time><name>PT7664</name></trkpt>
<trkpt lat="53.211535" lon="-2.014272"><ele>392</ele><time>2020-08-19T13:38:20Z</time><name>PT7665</name></trkpt>
<trkpt lat="53.211545" lon="-2.014275"><ele>392</ele><time>2020-08-19T13:38:22Z</time><name>PT7666</name></trkpt>
<trkpt lat="53.211559" lon="-2.014281"><ele>393</ele><time>2020-08-19T13:38:23Z</time><name>PT7667</name></trkpt>
<trkpt lat="53.211572" lon="-2.014281"><ele>392</ele><time>2020-08-19T13:38:23Z</time><name>PT7668</name></trkpt>
<trkpt lat="53.211586" lon="-2.014281"><ele>393</ele><time>2020-08-19T13:38:25Z</time><name>PT7669</name></trkpt>
<trkpt lat="53.211595" lon="-2.014288"><ele>394</ele><time>2020-08-19T13:38:26Z</time><name>PT7670</name></trkpt>
<trkpt lat="53.211607" lon="-2.014293"><ele>394</ele><time>2020-08-19T13:38:26Z</time><name>PT7671</name></trkpt>
<trkpt lat="53.211622" lon="-2.014296"><ele>395</ele><time>2020-08-19T13:38:28Z</time><name>PT7672</name></trkpt>
<trkpt lat="53.211633" lon="-2.014301"><ele>395</ele><time>2020-08-19T13:38:29Z</time><name>PT7673</name></trkpt>
<trkpt lat="53.211641" lon="-2.014313"><ele>395</ele><time>2020-08-19T13:38:29Z</time><name>PT7674</name></trkpt>
<trkpt lat="53.211646" lon="-2.014319"><ele>395</ele><time>2020-08-19T13:38:31Z</time><name>PT7675</name></trkpt>
<trkpt lat="53.211654" lon="-2.014330"><ele>395</ele><time>2020-08-19T13:38:32Z</time><name>PT7676</name></trkpt>
<trkpt lat="53.211659" lon="-2.014338"><ele>395</ele><time>2020-08-19T13:38:32Z</time><name>PT7677</name></trkpt>
<trkpt lat="53.211664" lon="-2.014349"><ele>395</ele><time>2020-08-19T13:38:34Z</time><name>PT7678</name></trkpt>
<trkpt lat="53.211670" lon="-2.014353"><ele>394</ele><time>2020-08-19T13:38:35Z</time><name>PT7679</name></trkpt>
<trkpt lat="53.211677" lon="-2.014355"><ele>394</ele><time>2020-08-19T13:38:35Z</time><name>PT7680</name></trkpt>
<trkpt lat="53.211689" lon="-2.014360"><ele>395</ele><time>2020-08-19T13:38:37Z</time><name>PT7681</name></trkpt>
<trkpt lat="53.211699" lon="-2.014367"><ele>396</ele><time>2020-08-19T13:38:38Z</time><name>PT7682</name></trkpt>
<trkpt lat="53.211709" lon="-2.014375"><ele>395</ele><time>2020-08-19T13:38:38Z</time><name>PT7683</name></trkpt>
<trkpt lat="53.211724" lon="-2.014380"><ele>395</ele><time>2020-08-19T13:38:40Z</time><name>PT7684</name></trkpt>
<trkpt lat="53.211732" lon="-2.014379"><ele>393</ele><time>2020-08-19T13:38:41Z</time><name>PT7685</name></trkpt>
<trkpt lat="53.211741" lon="-2.014382"><ele>393</ele><time>2020-08-19T13:38:41Z</time><name>PT7686</name></trkpt>
<trkpt lat="53.211751" lon="-2.014385"><ele>393</ele><time>2020-08-19T13:38:43Z</time><name>PT7687</name></trkpt>
<trkpt lat="53.211758" lon="-2.014386"><ele>392</ele><time>2020-08-19T13:38:44Z</time><name>PT7688</name></trkpt>
<trkpt lat="53.211765" lon="-2.014392"><ele>392</ele><time>2020-08-19T13:38:44Z</time><name>PT7689</name></trkpt>
<trkpt lat="53.211775" lon="-2.014395"><ele>391</ele><time>2020-08-19T13:38:46Z</time><name>PT7690</name></trkpt>
<trkpt lat="53.211785" lon="-2.014393"><ele>390</ele><time>2020-08-19T13:38:47Z</time><name>PT7691</name></trkpt>
<trkpt lat="53.211798" lon="-2.014399"><ele>389</ele><time>2020-08-19T13:38:47Z</time><name>PT7692</name></trkpt>
<trkpt lat="53.211810" lon="-2.014405"><ele>389</ele><time>2020-08-19T13:38:49Z</time><name>PT7693</name></trkpt>
<trkpt lat="53.211815" lon="-2.014421"><ele>388</ele><time>2020-08-19T13:38:50Z</time><name>PT7694</name></trkpt>
<trkpt lat="53.211826" lon="-2.014432"><ele>388</ele><time>2020-08-19T13:38:50Z</time><name>PT7695</name></trkpt>
<trkpt lat="53.211837" lon="-2.014437"><ele>387</ele><time>2020-08-19T13:38:52Z</time><name>PT7696</name></trkpt>
<trkpt lat="53.211850" lon="-2.014445"><ele>388</ele><time>2020-08-19T13:38:53Z</time><name>PT7697</name></trkpt>
<trkpt lat="53.211864" lon="-2.014448"><ele>387</ele><time>2020-08-19T13:38:53Z</time><name>PT7698</name></trkpt>
<trkpt lat="53.211876" lon="-2.014454"><ele>387</ele><time>2020-08-19T13:38:55Z</time><name>PT7699</name></trkpt>
<trkpt lat="53.211889" lon="-2.014457"><ele>386</ele><time>2020-08-19T13:38:56Z</time><name>PT7700</name></trkpt>
<trkpt lat="53.211898" lon="-2.014458"><ele>385</ele><time>2020-08-19T13:38:56Z</time><name>PT7701</name></trkpt>
<trkpt lat="53.211910" lon="-2.014460"><ele>385</ele><time>2020-08-19T13:38:58Z</time><name>PT7702</name></trkpt>
<trkpt lat="53.211932" lon="-2.014469"><ele>387</ele><time>2020-08-19T13:38:59Z</time><name>PT7703</name></trkpt>
<trkpt lat="53.211946" lon="-2.014476"><ele>386</ele><time>2020-08-19T13:38:59Z</time><name>PT7704</name></trkpt>
<trkpt lat="53.211960" lon="-2.014479"><ele>386</ele><time>2020-08-19T13:39:01Z</time><name>PT7705</name></trkpt>
<trkpt lat="53.211976" lon="-2.014489"><ele>386</ele><time>2020-08-19T13:39:02Z</time><name>PT7706</name></trkpt>
<trkpt lat="53.211994" lon="-2.014491"><ele>385</ele><time>2020-08-19T13:39:02Z</time><name>PT7707</name></trkpt>
<trkpt lat="53.212010" lon="-2.014495"><ele>385</ele><time>2020-08-19T13:39:04Z</time><name>PT7708</name></trkpt>
<trkpt lat="53.212025" lon="-2.014502"><ele>385</ele><time>2020-08-19T13:39:05Z</time><name>PT7709</name></trkpt>
<trkpt lat="53.212035" lon="-2.014507"><ele>384</ele><time>2020-08-19T13:39:05Z</time><name>PT7710</name></trkpt>
<trkpt lat="53.212052" lon="-2.014520"><ele>384</ele><time>2020-08-19T13:39:07Z</time><name>PT7711</name></trkpt>
<trkpt lat="53.212065" lon="-2.014525"><ele>384</ele><time>2020-08-19T13:39:08Z</time><name>PT7712</name></trkpt>
<trkpt lat="53.212082" lon="-2.014525"><ele>384</ele><time>2020-08-19T13:39:08Z</time><name>PT7713</name></trkpt>
<trkpt lat="53.212094" lon="-2.014533"><ele>384</ele><time>2020-08-19T13:39:10Z</time><name>PT7714</name></trkpt>
<trkpt lat="53.212107" lon="-2.014533"><ele>384</ele><time>2020-08-19T13:39:11Z</time><name>PT7715</name></trkpt>
<trkpt lat="53.212119" lon="-2.014544"><ele>383</ele><time>2020-08-19T13:39:11Z</time><name>PT7716</name></trkpt>
<trkpt lat="53.212127" lon="-2.014553"><ele>384</ele><time>2020-08-19T13:39:13Z</time><name>PT7717</name></trkpt>
<trkpt lat="53.212137" lon="-2.014561"><ele>384</ele><time>2020-08-19T13:39:14Z</time><name>PT7718</name></trkpt>
<trkpt lat="53.212149" lon="-2.014568"><ele>383</ele><time>2020-08-19T13:39:14Z</time><name>PT7719</name></trkpt>
<trkpt lat="53.212167" lon="-2.014573"><ele>384</ele><time>2020-08-19T13:39:16Z</time><name>PT7720</name></trkpt>
<trkpt lat="53.212178" lon="-2.014583"><ele>384</ele><time>2020-08-19T13:39:17Z</time><name>PT7721</name></trkpt>
<trkpt lat="53.212192" lon="-2.014587"><ele>383</ele><time>2020-08-19T13:39:17Z</time><name>PT7722</name></trkpt>
<trkpt lat="53.212202" lon="-2.014595"><ele>383</ele><time>2020-08-19T13:39:19Z</time><name>PT7723</name></trkpt>
<trkpt lat="53.212212" lon="-2.014593"><ele>382</ele><time>2020-08-19T13:39:20Z</time><name>PT7724</name></trkpt>
<trkpt lat="53.212220" lon="-2.014597"><ele>382</ele><time>2020-08-19T13:39:20Z</time><name>PT7725</name></trkpt>
<trkpt lat="53.212229" lon="-2.014598"><ele>382</ele><time>2020-08-19T13:39:22Z</time><name>PT7726</name></trkpt>
<trkpt lat="53.212240" lon="-2.014604"><ele>382</ele><time>2020-08-19T13:39:23Z</time><name>PT7727</name></trkpt>
<trkpt lat="53.212250" lon="-2.014611"><ele>383</ele><time>2020-08-19T13:39:23Z</time><name>PT7728</name></trkpt>
<trkpt lat="53.212263" lon="-2.014622"><ele>383</ele><time>2020-08-19T13:39:25Z</time><name>PT7729</name></trkpt>
<trkpt lat="53.212275" lon="-2.014627"><ele>383</ele><time>2020-08-19T13:39:26Z</time><name>PT7730</name></trkpt>
<trkpt lat="53.212291" lon="-2.014630"><ele>382</ele><time>2020-08-19T13:39:26Z</time><name>PT7731</name></trkpt>
<trkpt lat="53.212303" lon="-2.014637"><ele>382</ele><time>2020-08-19T13:39:28Z</time><name>PT7732</name></trkpt>
<trkpt lat="53.212316" lon="-2.014639"><ele>381</ele><time>2020-08-19T13:39:29Z</time><name>PT7733</name></trkpt>
<trkpt lat="53.212326" lon="-2.014644"><ele>381</ele><time>2020-08-19T13:39:29Z</time><name>PT7734</name></trkpt>
<trkpt lat="53.212336" lon="-2.014651"><ele>380</ele><time>2020-08-19T13:39:31Z</time><name>PT7735</name></trkpt>
<trkpt lat="53.212348" lon="-2.014662"><ele>380</ele><time>2020-08-19T13:39:32Z</time><name>PT7736</name></trkpt>
<trkpt lat="53.212361" lon="-2.014675"><ele>380</ele><time>2020-08-19T13:39:32Z</time><name>PT7737</name></trkpt>
<trkpt lat="53.212372" lon="-2.014682"><ele>380</ele><time>2020-08-19T13:39:34Z</time><name>PT7738</name></trkpt>
<trkpt lat="53.212381" lon="-2.014688"><ele>379</ele><time>2020-08-19T13:39:35Z</time><name>PT7739</name></trkpt>
<trkpt lat="53.212391" lon="-2.014697"><ele>380</ele><time>2020-08-19T13:39:35Z</time><name>PT7740</name></trkpt>
<trkpt lat="53.212403" lon="-2.014699"><ele>379</ele><time>2020-08-19T13:39:37Z</time><name>PT7741</name></trkpt>
<trkpt lat="53.212414" lon="-2.014710"><ele>380</ele><time>2020-08-19T13:39:38Z</time><name>PT7742</name></trkpt>
<trkpt lat="53.212428" lon="-2.014714"><ele>379</ele><time>2020-08-19T13:39:38Z</time><name>PT7743</name></trkpt>
<trkpt lat="53.212442" lon="-2.014719"><ele>379</ele><time>2020-08-19T13:39:40Z</time><name>PT7744</name></trkpt>
<trkpt lat="53.212454" lon="-2.014726"><ele>380</ele><time>2020-08-19T13:39:41Z</time><name>PT7745</name></trkpt>
<trkpt lat="53.212469" lon="-2.014731"><ele>380</ele><time>2020-08-19T13:39:41Z</time><name>PT7746</name></trkpt>
<trkpt lat="53.212484" lon="-2.014739"><ele>379</ele><time>2020-08-19T13:39:43Z</time><name>PT7747</name></trkpt>
<trkpt lat="53.212502" lon="-2.014743"><ele>379</ele><time>2020-08-19T13:39:44Z</time><name>PT7748</name></trkpt>
<trkpt lat="53.212515" lon="-2.014750"><ele>379</ele><time>2020-08-19T13:39:44Z</time><name>PT7749</name></trkpt>
<trkpt lat="53.212529" lon="-2.014751"><ele>379</ele><time>2020-08-19T13:39:46Z</time><name>PT7750</name></trkpt>
<trkpt lat="53.212536" lon="-2.014751"><ele>378</ele><time>2020-08-19T13:39:47Z</time><name>PT7751</name></trkpt>
<trkpt lat="53.212545" lon="-2.014758"><ele>378</ele><time>2020-08-19T13:39:47Z</time><name>PT7752</name></trkpt>
<trkpt lat="53.212557" lon="-2.014764"><ele>378</ele><time>2020-08-19T13:39:49Z</time><name>PT7753</name></trkpt>
<trkpt lat="53.212613" lon="-2.014789"><ele>376</ele><time>2020-08-19T13:39:53Z</time><name>PT7754</name></trkpt>
<trkpt lat="53.212651" lon="-2.014810"><ele>376</ele><time>2020-08-19T13:39:56Z</time><name>PT7755</name></trkpt>
<trkpt lat="53.212686" lon="-2.014852"><ele>376</ele><time>2020-08-19T13:39:59Z</time><name>PT7756</name></trkpt>
<trkpt lat="53.212706" lon="-2.014864"><ele>379</ele><time>2020-08-19T13:40:04Z</time><name>PT7757</name></trkpt>
<trkpt lat="53.212706" lon="-2.014872"><ele>382</ele><time>2020-08-19T13:40:07Z</time><name>PT7758</name></trkpt>
<trkpt lat="53.212708" lon="-2.014880"><ele>382</ele><time>2020-08-19T13:40:11Z</time><name>PT7759</name></trkpt>
<trkpt lat="53.212706" lon="-2.014867"><ele>381</ele><time>2020-08-19T13:40:14Z</time><name>PT7760</name></trkpt>
<trkpt lat="53.212715" lon="-2.014851"><ele>381</ele><time>2020-08-19T13:40:19Z</time><name>PT7761</name></trkpt>
<trkpt lat="53.212740" lon="-2.014861"><ele>381</ele><time>2020-08-19T13:40:22Z</time><name>PT7762</name></trkpt>
<trkpt lat="53.212781" lon="-2.014871"><ele>378</ele><time>2020-08-19T13:40:26Z</time><name>PT7763</name></trkpt>
<trkpt lat="53.212815" lon="-2.014872"><ele>377</ele><time>2020-08-19T13:40:29Z</time><name>PT7764</name></trkpt>
<trkpt lat="53.212854" lon="-2.014890"><ele>378</ele><time>2020-08-19T13:40:32Z</time><name>PT7765</name></trkpt>
<trkpt lat="53.212854" lon="-2.014909"><ele>379</ele><time>2020-08-19T13:40:37Z</time><name>PT7766</name></trkpt>
<trkpt lat="53.212859" lon="-2.014913"><ele>378</ele><time>2020-08-19T13:40:40Z</time><name>PT7767</name></trkpt>
<trkpt lat="53.212857" lon="-2.014915"><ele>378</ele><time>2020-08-19T13:40:44Z</time><name>PT7768</name></trkpt>
<trkpt lat="53.212871" lon="-2.014924"><ele>379</ele><time>2020-08-19T13:41:02Z</time><name>PT7769</name></trkpt>
<trkpt lat="53.212909" lon="-2.014935"><ele>380</ele><time>2020-08-19T13:41:05Z</time><name>PT7770</name></trkpt>
<trkpt lat="53.212953" lon="-2.014955"><ele>379</ele><time>2020-08-19T13:41:08Z</time><name>PT7771</name></trkpt>
<trkpt lat="53.212997" lon="-2.014958"><ele>378</ele><time>2020-08-19T13:41:13Z</time><name>PT7772</name></trkpt>
<trkpt lat="53.213030" lon="-2.014975"><ele>377</ele><time>2020-08-19T13:41:16Z</time><name>PT7773</name></trkpt>
<trkpt lat="53.213060" lon="-2.014994"><ele>376</ele><time>2020-08-19T13:41:19Z</time><name>PT7774</name></trkpt>
<trkpt lat="53.213104" lon="-2.015019"><ele>376</ele><time>2020-08-19T13:41:23Z</time><name>PT7775</name></trkpt>
<trkpt lat="53.213134" lon="-2.015049"><ele>375</ele><time>2020-08-19T13:41:26Z</time><name>PT7776</name></trkpt>
<trkpt lat="53.213170" lon="-2.015098"><ele>374</ele><time>2020-08-19T13:41:29Z</time><name>PT7777</name></trkpt>
<trkpt lat="53.213220" lon="-2.015113"><ele>372</ele><time>2020-08-19T13:41:34Z</time><name>PT7778</name></trkpt>
<trkpt lat="53.213253" lon="-2.015138"><ele>368</ele><time>2020-08-19T13:41:37Z</time><name>PT7779</name></trkpt>
<trkpt lat="53.213285" lon="-2.015164"><ele>366</ele><time>2020-08-19T13:41:41Z</time><name>PT7780</name></trkpt>
<trkpt lat="53.213320" lon="-2.015185"><ele>365</ele><time>2020-08-19T13:41:44Z</time><name>PT7781</name></trkpt>
<trkpt lat="53.213356" lon="-2.015226"><ele>363</ele><time>2020-08-19T13:41:47Z</time><name>PT7782</name></trkpt>
<trkpt lat="53.213393" lon="-2.015264"><ele>364</ele><time>2020-08-19T13:41:50Z</time><name>PT7783</name></trkpt>
<trkpt lat="53.213441" lon="-2.015311"><ele>364</ele><time>2020-08-19T13:41:55Z</time><name>PT7784</name></trkpt>
<trkpt lat="53.213477" lon="-2.015354"><ele>363</ele><time>2020-08-19T13:41:59Z</time><name>PT7785</name></trkpt>
<trkpt lat="53.213501" lon="-2.015397"><ele>363</ele><time>2020-08-19T13:42:02Z</time><name>PT7786</name></trkpt>
<trkpt lat="53.213522" lon="-2.015489"><ele>366</ele><time>2020-08-19T13:42:05Z</time><name>PT7787</name></trkpt>
<trkpt lat="53.213552" lon="-2.015560"><ele>367</ele><time>2020-08-19T13:42:10Z</time><name>PT7788</name></trkpt>
<trkpt lat="53.213574" lon="-2.015627"><ele>368</ele><time>2020-08-19T13:42:14Z</time><name>PT7789</name></trkpt>
<trkpt lat="53.213592" lon="-2.015656"><ele>367</ele><time>2020-08-19T13:42:17Z</time><name>PT7790</name></trkpt>
<trkpt lat="53.213625" lon="-2.015713"><ele>366</ele><time>2020-08-19T13:42:20Z</time><name>PT7791</name></trkpt>
<trkpt lat="53.213642" lon="-2.015758"><ele>364</ele><time>2020-08-19T13:42:23Z</time><name>PT7792</name></trkpt>
<trkpt lat="53.213656" lon="-2.015805"><ele>363</ele><time>2020-08-19T13:42:26Z</time><name>PT7793</name></trkpt>
<trkpt lat="53.213700" lon="-2.015882"><ele>365</ele><time>2020-08-19T13:42:31Z</time><name>PT7794</name></trkpt>
<trkpt lat="53.213762" lon="-2.015942"><ele>368</ele><time>2020-08-19T13:42:35Z</time><name>PT7795</name></trkpt>
<trkpt lat="53.213789" lon="-2.015969"><ele>369</ele><time>2020-08-19T13:42:38Z</time><name>PT7796</name></trkpt>
<trkpt lat="53.213814" lon="-2.015987"><ele>369</ele><time>2020-08-19T13:42:41Z</time><name>PT7797</name></trkpt>
<trkpt lat="53.213846" lon="-2.015998"><ele>367</ele><time>2020-08-19T13:42:44Z</time><name>PT7798</name></trkpt>
<trkpt lat="53.213874" lon="-2.016014"><ele>365</ele><time>2020-08-19T13:42:47Z</time><name>PT7799</name></trkpt>
<trkpt lat="53.213920" lon="-2.016044"><ele>366</ele><time>2020-08-19T13:42:52Z</time><name>PT7800</name></trkpt>
<trkpt lat="53.213978" lon="-2.016039"><ele>365</ele><time>2020-08-19T13:42:56Z</time><name>PT7801</name></trkpt>
<trkpt lat="53.214029" lon="-2.016064"><ele>367</ele><time>2020-08-19T13:42:59Z</time><name>PT7802</name></trkpt>
<trkpt lat="53.214052" lon="-2.016083"><ele>367</ele><time>2020-08-19T13:43:02Z</time><name>PT7803</name></trkpt>
<trkpt lat="53.214085" lon="-2.016101"><ele>366</ele><time>2020-08-19T13:43:07Z</time><name>PT7804</name></trkpt>
<trkpt lat="53.214116" lon="-2.016085"><ele>364</ele><time>2020-08-19T13:43:10Z</time><name>PT7805</name></trkpt>
<trkpt lat="53.214154" lon="-2.016041"><ele>363</ele><time>2020-08-19T13:43:13Z</time><name>PT7806</name></trkpt>
<trkpt lat="53.214225" lon="-2.016049"><ele>361</ele><time>2020-08-19T13:43:17Z</time><name>PT7807</name></trkpt>
<trkpt lat="53.214265" lon="-2.016055"><ele>361</ele><time>2020-08-19T13:43:20Z</time><name>PT7808</name></trkpt>
<trkpt lat="53.214301" lon="-2.016055"><ele>359</ele><time>2020-08-19T13:43:23Z</time><name>PT7809</name></trkpt>
<trkpt lat="53.214336" lon="-2.016058"><ele>358</ele><time>2020-08-19T13:43:26Z</time><name>PT7810</name></trkpt>
<trkpt lat="53.214374" lon="-2.016046"><ele>358</ele><time>2020-08-19T13:43:29Z</time><name>PT7811</name></trkpt>
<trkpt lat="53.214404" lon="-2.016047"><ele>356</ele><time>2020-08-19T13:43:32Z</time><name>PT7812</name></trkpt>
<trkpt lat="53.214449" lon="-2.016054"><ele>355</ele><time>2020-08-19T13:43:37Z</time><name>PT7813</name></trkpt>
<trkpt lat="53.214484" lon="-2.016052"><ele>353</ele><time>2020-08-19T13:43:40Z</time><name>PT7814</name></trkpt>
<trkpt lat="53.214507" lon="-2.016050"><ele>351</ele><time>2020-08-19T13:43:43Z</time><name>PT7815</name></trkpt>
<trkpt lat="53.214569" lon="-2.016018"><ele>350</ele><time>2020-08-19T13:43:47Z</time><name>PT7816</name></trkpt>
<trkpt lat="53.214622" lon="-2.016023"><ele>351</ele><time>2020-08-19T13:43:50Z</time><name>PT7817</name></trkpt>
<trkpt lat="53.214692" lon="-2.016008"><ele>353</ele><time>2020-08-19T13:43:55Z</time><name>PT7818</name></trkpt>
<trkpt lat="53.214742" lon="-2.015988"><ele>355</ele><time>2020-08-19T13:43:59Z</time><name>PT7819</name></trkpt>
<trkpt lat="53.214798" lon="-2.015982"><ele>353</ele><time>2020-08-19T13:44:02Z</time><name>PT7820</name></trkpt>
<trkpt lat="53.214837" lon="-2.015972"><ele>352</ele><time>2020-08-19T13:44:05Z</time><name>PT7821</name></trkpt>
<trkpt lat="53.214881" lon="-2.015985"><ele>349</ele><time>2020-08-19T13:44:10Z</time><name>PT7822</name></trkpt>
<trkpt lat="53.214914" lon="-2.016007"><ele>346</ele><time>2020-08-19T13:44:13Z</time><name>PT7823</name></trkpt>
<trkpt lat="53.214964" lon="-2.016052"><ele>350</ele><time>2020-08-19T13:44:16Z</time><name>PT7824</name></trkpt>
<trkpt lat="53.215008" lon="-2.016113"><ele>350</ele><time>2020-08-19T13:44:20Z</time><name>PT7825</name></trkpt>
<trkpt lat="53.215043" lon="-2.016154"><ele>349</ele><time>2020-08-19T13:44:23Z</time><name>PT7826</name></trkpt>
<trkpt lat="53.215080" lon="-2.016206"><ele>350</ele><time>2020-08-19T13:44:26Z</time><name>PT7827</name></trkpt>
<trkpt lat="53.215124" lon="-2.016241"><ele>348</ele><time>2020-08-19T13:44:31Z</time><name>PT7828</name></trkpt>
<trkpt lat="53.215142" lon="-2.016279"><ele>348</ele><time>2020-08-19T13:44:34Z</time><name>PT7829</name></trkpt>
<trkpt lat="53.215156" lon="-2.016312"><ele>348</ele><time>2020-08-19T13:44:38Z</time><name>PT7830</name></trkpt>
<trkpt lat="53.215174" lon="-2.016355"><ele>346</ele><time>2020-08-19T13:44:41Z</time><name>PT7831</name></trkpt>
<trkpt lat="53.215198" lon="-2.016416"><ele>344</ele><time>2020-08-19T13:44:44Z</time><name>PT7832</name></trkpt>
<trkpt lat="53.215214" lon="-2.016459"><ele>344</ele><time>2020-08-19T13:44:47Z</time><name>PT7833</name></trkpt>
<trkpt lat="53.215242" lon="-2.016489"><ele>343</ele><time>2020-08-19T13:44:50Z</time><name>PT7834</name></trkpt>
<trkpt lat="53.215254" lon="-2.016550"><ele>342</ele><time>2020-08-19T13:44:53Z</time><name>PT7835</name></trkpt>
<trkpt lat="53.215274" lon="-2.016630"><ele>341</ele><time>2020-08-19T13:44:58Z</time><name>PT7836</name></trkpt>
<trkpt lat="53.215287" lon="-2.016684"><ele>341</ele><time>2020-08-19T13:45:01Z</time><name>PT7837</name></trkpt>
<trkpt lat="53.215300" lon="-2.016724"><ele>340</ele><time>2020-08-19T13:45:04Z</time><name>PT7838</name></trkpt>
<trkpt lat="53.215324" lon="-2.016753"><ele>339</ele><time>2020-08-19T13:45:07Z</time><name>PT7839</name></trkpt>
<trkpt lat="53.215357" lon="-2.016793"><ele>338</ele><time>2020-08-19T13:45:11Z</time><name>PT7840</name></trkpt>
<trkpt lat="53.215376" lon="-2.016835"><ele>335</ele><time>2020-08-19T13:45:14Z</time><name>PT7841</name></trkpt>
<trkpt lat="53.215411" lon="-2.016897"><ele>337</ele><time>2020-08-19T13:45:19Z</time><name>PT7842</name></trkpt>
<trkpt lat="53.215424" lon="-2.016958"><ele>338</ele><time>2020-08-19T13:45:23Z</time><name>PT7843</name></trkpt>
<trkpt lat="53.215418" lon="-2.016998"><ele>337</ele><time>2020-08-19T13:45:26Z</time><name>PT7844</name></trkpt>
<trkpt lat="53.215426" lon="-2.017092"><ele>339</ele><time>2020-08-19T13:45:29Z</time><name>PT7845</name></trkpt>
<trkpt lat="53.215433" lon="-2.017156"><ele>340</ele><time>2020-08-19T13:45:32Z</time><name>PT7846</name></trkpt>
<trkpt lat="53.215446" lon="-2.017212"><ele>339</ele><time>2020-08-19T13:45:35Z</time><name>PT7847</name></trkpt>
<trkpt lat="53.215480" lon="-2.017288"><ele>338</ele><time>2020-08-19T13:45:40Z</time><name>PT7848</name></trkpt>
<trkpt lat="53.215486" lon="-2.017350"><ele>337</ele><time>2020-08-19T13:45:44Z</time><name>PT7849</name></trkpt>
<trkpt lat="53.215501" lon="-2.017386"><ele>338</ele><time>2020-08-19T13:45:47Z</time><name>PT7850</name></trkpt>
<trkpt lat="53.215517" lon="-2.017454"><ele>336</ele><time>2020-08-19T13:45:50Z</time><name>PT7851</name></trkpt>
<trkpt lat="53.215528" lon="-2.017542"><ele>336</ele><time>2020-08-19T13:45:53Z</time><name>PT7852</name></trkpt>
<trkpt lat="53.215551" lon="-2.017586"><ele>337</ele><time>2020-08-19T13:45:56Z</time><name>PT7853</name></trkpt>
<trkpt lat="53.215555" lon="-2.017681"><ele>339</ele><time>2020-08-19T13:46:01Z</time><name>PT7854</name></trkpt>
<trkpt lat="53.215565" lon="-2.017739"><ele>340</ele><time>2020-08-19T13:46:04Z</time><name>PT7855</name></trkpt>
<trkpt lat="53.215559" lon="-2.017802"><ele>339</ele><time>2020-08-19T13:46:07Z</time><name>PT7856</name></trkpt>
<trkpt lat="53.215553" lon="-2.017870"><ele>338</ele><time>2020-08-19T13:46:11Z</time><name>PT7857</name></trkpt>
<trkpt lat="53.215539" lon="-2.017927"><ele>337</ele><time>2020-08-19T13:46:14Z</time><name>PT7858</name></trkpt>
<trkpt lat="53.215543" lon="-2.018059"><ele>336</ele><time>2020-08-19T13:46:17Z</time><name>PT7859</name></trkpt>
<trkpt lat="53.215557" lon="-2.018062"><ele>333</ele><time>2020-08-19T13:46:19Z</time><name>PT7860</name></trkpt>
<trkpt lat="53.215557" lon="-2.018082"><ele>333</ele><time>2020-08-19T13:46:20Z</time><name>PT7861</name></trkpt>
<trkpt lat="53.215555" lon="-2.018117"><ele>335</ele><time>2020-08-19T13:46:20Z</time><name>PT7862</name></trkpt>
<trkpt lat="53.215551" lon="-2.018145"><ele>335</ele><time>2020-08-19T13:46:22Z</time><name>PT7863</name></trkpt>
<trkpt lat="53.215548" lon="-2.018174"><ele>335</ele><time>2020-08-19T13:46:23Z</time><name>PT7864</name></trkpt>
<trkpt lat="53.215549" lon="-2.018197"><ele>335</ele><time>2020-08-19T13:46:23Z</time><name>PT7865</name></trkpt>
<trkpt lat="53.215544" lon="-2.018240"><ele>335</ele><time>2020-08-19T13:46:25Z</time><name>PT7866</name></trkpt>
<trkpt lat="53.215546" lon="-2.018273"><ele>336</ele><time>2020-08-19T13:46:26Z</time><name>PT7867</name></trkpt>
<trkpt lat="53.215547" lon="-2.018290"><ele>336</ele><time>2020-08-19T13:46:26Z</time><name>PT7868</name></trkpt>
<trkpt lat="53.215545" lon="-2.018304"><ele>336</ele><time>2020-08-19T13:46:28Z</time><name>PT7869</name></trkpt>
<trkpt lat="53.215544" lon="-2.018336"><ele>337</ele><time>2020-08-19T13:46:29Z</time><name>PT7870</name></trkpt>
<trkpt lat="53.215542" lon="-2.018368"><ele>337</ele><time>2020-08-19T13:46:29Z</time><name>PT7871</name></trkpt>
<trkpt lat="53.215543" lon="-2.018386"><ele>337</ele><time>2020-08-19T13:46:31Z</time><name>PT7872</name></trkpt>
<trkpt lat="53.215547" lon="-2.018404"><ele>337</ele><time>2020-08-19T13:46:32Z</time><name>PT7873</name></trkpt>
<trkpt lat="53.215545" lon="-2.018429"><ele>336</ele><time>2020-08-19T13:46:32Z</time><name>PT7874</name></trkpt>
<trkpt lat="53.215541" lon="-2.018448"><ele>336</ele><time>2020-08-19T13:46:34Z</time><name>PT7875</name></trkpt>
<trkpt lat="53.215542" lon="-2.018461"><ele>335</ele><time>2020-08-19T13:46:35Z</time><name>PT7876</name></trkpt>
<trkpt lat="53.215542" lon="-2.018473"><ele>334</ele><time>2020-08-19T13:46:35Z</time><name>PT7877</name></trkpt>
<trkpt lat="53.215539" lon="-2.018487"><ele>334</ele><time>2020-08-19T13:46:37Z</time><name>PT7878</name></trkpt>
<trkpt lat="53.215538" lon="-2.018505"><ele>333</ele><time>2020-08-19T13:46:38Z</time><name>PT7879</name></trkpt>
<trkpt lat="53.215534" lon="-2.018522"><ele>333</ele><time>2020-08-19T13:46:38Z</time><name>PT7880</name></trkpt>
<trkpt lat="53.215532" lon="-2.018542"><ele>332</ele><time>2020-08-19T13:46:40Z</time><name>PT7881</name></trkpt>
<trkpt lat="53.215530" lon="-2.018564"><ele>331</ele><time>2020-08-19T13:46:41Z</time><name>PT7882</name></trkpt>
<trkpt lat="53.215530" lon="-2.018576"><ele>331</ele><time>2020-08-19T13:46:42Z</time><name>PT7883</name></trkpt>
<trkpt lat="53.215527" lon="-2.018593"><ele>330</ele><time>2020-08-19T13:46:43Z</time><name>PT7884</name></trkpt>
<trkpt lat="53.215525" lon="-2.018609"><ele>330</ele><time>2020-08-19T13:46:44Z</time><name>PT7885</name></trkpt>
<trkpt lat="53.215517" lon="-2.018627"><ele>330</ele><time>2020-08-19T13:46:45Z</time><name>PT7886</name></trkpt>
<trkpt lat="53.215513" lon="-2.018642"><ele>330</ele><time>2020-08-19T13:46:46Z</time><name>PT7887</name></trkpt>
<trkpt lat="53.215507" lon="-2.018655"><ele>329</ele><time>2020-08-19T13:46:47Z</time><name>PT7888</name></trkpt>
<trkpt lat="53.215500" lon="-2.018671"><ele>329</ele><time>2020-08-19T13:46:48Z</time><name>PT7889</name></trkpt>
<trkpt lat="53.215496" lon="-2.018687"><ele>329</ele><time>2020-08-19T13:46:49Z</time><name>PT7890</name></trkpt>
<trkpt lat="53.215488" lon="-2.018707"><ele>329</ele><time>2020-08-19T13:46:50Z</time><name>PT7891</name></trkpt>
<trkpt lat="53.215481" lon="-2.018718"><ele>329</ele><time>2020-08-19T13:46:50Z</time><name>PT7892</name></trkpt>
<trkpt lat="53.215477" lon="-2.018735"><ele>328</ele><time>2020-08-19T13:46:52Z</time><name>PT7893</name></trkpt>
<trkpt lat="53.215474" lon="-2.018751"><ele>328</ele><time>2020-08-19T13:46:53Z</time><name>PT7894</name></trkpt>
<trkpt lat="53.215469" lon="-2.018767"><ele>328</ele><time>2020-08-19T13:46:53Z</time><name>PT7895</name></trkpt>
<trkpt lat="53.215464" lon="-2.018785"><ele>328</ele><time>2020-08-19T13:46:55Z</time><name>PT7896</name></trkpt>
<trkpt lat="53.215457" lon="-2.018806"><ele>328</ele><time>2020-08-19T13:46:56Z</time><name>PT7897</name></trkpt>
<trkpt lat="53.215454" lon="-2.018825"><ele>328</ele><time>2020-08-19T13:46:56Z</time><name>PT7898</name></trkpt>
<trkpt lat="53.215446" lon="-2.018844"><ele>328</ele><time>2020-08-19T13:46:58Z</time><name>PT7899</name></trkpt>
<trkpt lat="53.215441" lon="-2.018863"><ele>328</ele><time>2020-08-19T13:46:59Z</time><name>PT7900</name></trkpt>
<trkpt lat="53.215438" lon="-2.018880"><ele>328</ele><time>2020-08-19T13:47:00Z</time><name>PT7901</name></trkpt>
<trkpt lat="53.215434" lon="-2.018899"><ele>329</ele><time>2020-08-19T13:47:01Z</time><name>PT7902</name></trkpt>
<trkpt lat="53.215429" lon="-2.018920"><ele>330</ele><time>2020-08-19T13:47:02Z</time><name>PT7903</name></trkpt>
<trkpt lat="53.215422" lon="-2.018941"><ele>330</ele><time>2020-08-19T13:47:02Z</time><name>PT7904</name></trkpt>
<trkpt lat="53.215412" lon="-2.018958"><ele>329</ele><time>2020-08-19T13:47:04Z</time><name>PT7905</name></trkpt>
<trkpt lat="53.215404" lon="-2.018976"><ele>329</ele><time>2020-08-19T13:47:05Z</time><name>PT7906</name></trkpt>
<trkpt lat="53.215400" lon="-2.018994"><ele>328</ele><time>2020-08-19T13:47:05Z</time><name>PT7907</name></trkpt>
<trkpt lat="53.215392" lon="-2.019015"><ele>329</ele><time>2020-08-19T13:47:07Z</time><name>PT7908</name></trkpt>
<trkpt lat="53.215388" lon="-2.019037"><ele>328</ele><time>2020-08-19T13:47:08Z</time><name>PT7909</name></trkpt>
<trkpt lat="53.215382" lon="-2.019054"><ele>328</ele><time>2020-08-19T13:47:08Z</time><name>PT7910</name></trkpt>
<trkpt lat="53.215376" lon="-2.019070"><ele>329</ele><time>2020-08-19T13:47:10Z</time><name>PT7911</name></trkpt>
<trkpt lat="53.215370" lon="-2.019089"><ele>328</ele><time>2020-08-19T13:47:11Z</time><name>PT7912</name></trkpt>
<trkpt lat="53.215362" lon="-2.019110"><ele>328</ele><time>2020-08-19T13:47:11Z</time><name>PT7913</name></trkpt>
<trkpt lat="53.215359" lon="-2.019128"><ele>327</ele><time>2020-08-19T13:47:13Z</time><name>PT7914</name></trkpt>
<trkpt lat="53.215355" lon="-2.019143"><ele>327</ele><time>2020-08-19T13:47:14Z</time><name>PT7915</name></trkpt>
<trkpt lat="53.215351" lon="-2.019165"><ele>327</ele><time>2020-08-19T13:47:14Z</time><name>PT7916</name></trkpt>
<trkpt lat="53.215347" lon="-2.019185"><ele>327</ele><time>2020-08-19T13:47:16Z</time><name>PT7917</name></trkpt>
<trkpt lat="53.215341" lon="-2.019208"><ele>327</ele><time>2020-08-19T13:47:17Z</time><name>PT7918</name></trkpt>
<trkpt lat="53.215334" lon="-2.019229"><ele>326</ele><time>2020-08-19T13:47:17Z</time><name>PT7919</name></trkpt>
<trkpt lat="53.215332" lon="-2.019245"><ele>326</ele><time>2020-08-19T13:47:19Z</time><name>PT7920</name></trkpt>
<trkpt lat="53.215324" lon="-2.019263"><ele>325</ele><time>2020-08-19T13:47:20Z</time><name>PT7921</name></trkpt>
<trkpt lat="53.215321" lon="-2.019284"><ele>325</ele><time>2020-08-19T13:47:20Z</time><name>PT7922</name></trkpt>
<trkpt lat="53.215318" lon="-2.019304"><ele>325</ele><time>2020-08-19T13:47:22Z</time><name>PT7923</name></trkpt>
<trkpt lat="53.215320" lon="-2.019321"><ele>324</ele><time>2020-08-19T13:47:23Z</time><name>PT7924</name></trkpt>
<trkpt lat="53.215320" lon="-2.019341"><ele>324</ele><time>2020-08-19T13:47:23Z</time><name>PT7925</name></trkpt>
<trkpt lat="53.215317" lon="-2.019358"><ele>324</ele><time>2020-08-19T13:47:25Z</time><name>PT7926</name></trkpt>
<trkpt lat="53.215314" lon="-2.019376"><ele>324</ele><time>2020-08-19T13:47:26Z</time><name>PT7927</name></trkpt>
<trkpt lat="53.215306" lon="-2.019396"><ele>324</ele><time>2020-08-19T13:47:26Z</time><name>PT7928</name></trkpt>
<trkpt lat="53.215300" lon="-2.019417"><ele>324</ele><time>2020-08-19T13:47:28Z</time><name>PT7929</name></trkpt>
<trkpt lat="53.215298" lon="-2.019437"><ele>324</ele><time>2020-08-19T13:47:29Z</time><name>PT7930</name></trkpt>
<trkpt lat="53.215298" lon="-2.019458"><ele>324</ele><time>2020-08-19T13:47:29Z</time><name>PT7931</name></trkpt>
<trkpt lat="53.215298" lon="-2.019475"><ele>323</ele><time>2020-08-19T13:47:31Z</time><name>PT7932</name></trkpt>
<trkpt lat="53.215297" lon="-2.019497"><ele>323</ele><time>2020-08-19T13:47:32Z</time><name>PT7933</name></trkpt>
<trkpt lat="53.215296" lon="-2.019519"><ele>323</ele><time>2020-08-19T13:47:32Z</time><name>PT7934</name></trkpt>
<trkpt lat="53.215292" lon="-2.019547"><ele>323</ele><time>2020-08-19T13:47:34Z</time><name>PT7935</name></trkpt>
<trkpt lat="53.215290" lon="-2.019572"><ele>324</ele><time>2020-08-19T13:47:35Z</time><name>PT7936</name></trkpt>
<trkpt lat="53.215285" lon="-2.019597"><ele>325</ele><time>2020-08-19T13:47:35Z</time><name>PT7937</name></trkpt>
<trkpt lat="53.215282" lon="-2.019623"><ele>325</ele><time>2020-08-19T13:47:37Z</time><name>PT7938</name></trkpt>
<trkpt lat="53.215283" lon="-2.019644"><ele>325</ele><time>2020-08-19T13:47:38Z</time><name>PT7939</name></trkpt>
<trkpt lat="53.215284" lon="-2.019663"><ele>325</ele><time>2020-08-19T13:47:38Z</time><name>PT7940</name></trkpt>
<trkpt lat="53.215290" lon="-2.019680"><ele>324</ele><time>2020-08-19T13:47:40Z</time><name>PT7941</name></trkpt>
<trkpt lat="53.215289" lon="-2.019703"><ele>324</ele><time>2020-08-19T13:47:41Z</time><name>PT7942</name></trkpt>
<trkpt lat="53.215289" lon="-2.019727"><ele>325</ele><time>2020-08-19T13:47:41Z</time><name>PT7943</name></trkpt>
<trkpt lat="53.215288" lon="-2.019749"><ele>325</ele><time>2020-08-19T13:47:43Z</time><name>PT7944</name></trkpt>
<trkpt lat="53.215289" lon="-2.019769"><ele>325</ele><time>2020-08-19T13:47:44Z</time><name>PT7945</name></trkpt>
<trkpt lat="53.215298" lon="-2.019782"><ele>324</ele><time>2020-08-19T13:47:44Z</time><name>PT7946</name></trkpt>
<trkpt lat="53.215303" lon="-2.019798"><ele>325</ele><time>2020-08-19T13:47:46Z</time><name>PT7947</name></trkpt>
<trkpt lat="53.215313" lon="-2.019790"><ele>323</ele><time>2020-08-19T13:47:47Z</time><name>PT7948</name></trkpt>
<trkpt lat="53.215320" lon="-2.019799"><ele>323</ele><time>2020-08-19T13:47:47Z</time><name>PT7949</name></trkpt>
<trkpt lat="53.215323" lon="-2.019820"><ele>322</ele><time>2020-08-19T13:47:49Z</time><name>PT7950</name></trkpt>
<trkpt lat="53.215319" lon="-2.019847"><ele>322</ele><time>2020-08-19T13:47:50Z</time><name>PT7951</name></trkpt>
<trkpt lat="53.215315" lon="-2.019873"><ele>322</ele><time>2020-08-19T13:47:50Z</time><name>PT7952</name></trkpt>
<trkpt lat="53.215318" lon="-2.019896"><ele>321</ele><time>2020-08-19T13:47:52Z</time><name>PT7953</name></trkpt>
<trkpt lat="53.215320" lon="-2.019911"><ele>320</ele><time>2020-08-19T13:47:53Z</time><name>PT7954</name></trkpt>
<trkpt lat="53.215325" lon="-2.019921"><ele>320</ele><time>2020-08-19T13:47:53Z</time><name>PT7955</name></trkpt>
<trkpt lat="53.215326" lon="-2.019936"><ele>319</ele><time>2020-08-19T13:47:55Z</time><name>PT7956</name></trkpt>
<trkpt lat="53.215328" lon="-2.019954"><ele>319</ele><time>2020-08-19T13:47:56Z</time><name>PT7957</name></trkpt>
<trkpt lat="53.215326" lon="-2.019975"><ele>319</ele><time>2020-08-19T13:47:56Z</time><name>PT7958</name></trkpt>
<trkpt lat="53.215327" lon="-2.019987"><ele>319</ele><time>2020-08-19T13:47:58Z</time><name>PT7959</name></trkpt>
<trkpt lat="53.215326" lon="-2.020002"><ele>318</ele><time>2020-08-19T13:47:59Z</time><name>PT7960</name></trkpt>
<trkpt lat="53.215329" lon="-2.020026"><ele>318</ele><time>2020-08-19T13:47:59Z</time><name>PT7961</name></trkpt>
<trkpt lat="53.215330" lon="-2.020053"><ele>318</ele><time>2020-08-19T13:48:01Z</time><name>PT7962</name></trkpt>
<trkpt lat="53.215331" lon="-2.020074"><ele>318</ele><time>2020-08-19T13:48:02Z</time><name>PT7963</name></trkpt>
<trkpt lat="53.215335" lon="-2.020092"><ele>318</ele><time>2020-08-19T13:48:02Z</time><name>PT7964</name></trkpt>
<trkpt lat="53.215337" lon="-2.020113"><ele>318</ele><time>2020-08-19T13:48:04Z</time><name>PT7965</name></trkpt>
<trkpt lat="53.215338" lon="-2.020136"><ele>318</ele><time>2020-08-19T13:48:05Z</time><name>PT7966</name></trkpt>
<trkpt lat="53.215338" lon="-2.020158"><ele>318</ele><time>2020-08-19T13:48:05Z</time><name>PT7967</name></trkpt>
<trkpt lat="53.215332" lon="-2.020192"><ele>318</ele><time>2020-08-19T13:48:07Z</time><name>PT7968</name></trkpt>
<trkpt lat="53.215328" lon="-2.020215"><ele>318</ele><time>2020-08-19T13:48:08Z</time><name>PT7969</name></trkpt>
<trkpt lat="53.215332" lon="-2.020236"><ele>318</ele><time>2020-08-19T13:48:08Z</time><name>PT7970</name></trkpt>
<trkpt lat="53.215332" lon="-2.020256"><ele>317</ele><time>2020-08-19T13:48:10Z</time><name>PT7971</name></trkpt>
<trkpt lat="53.215333" lon="-2.020278"><ele>317</ele><time>2020-08-19T13:48:11Z</time><name>PT7972</name></trkpt>
<trkpt lat="53.215338" lon="-2.020294"><ele>317</ele><time>2020-08-19T13:48:11Z</time><name>PT7973</name></trkpt>
<trkpt lat="53.215338" lon="-2.020313"><ele>317</ele><time>2020-08-19T13:48:13Z</time><name>PT7974</name></trkpt>
<trkpt lat="53.215339" lon="-2.020325"><ele>317</ele><time>2020-08-19T13:48:14Z</time><name>PT7975</name></trkpt>
<trkpt lat="53.215342" lon="-2.020338"><ele>317</ele><time>2020-08-19T13:48:14Z</time><name>PT7976</name></trkpt>
<trkpt lat="53.215342" lon="-2.020358"><ele>317</ele><time>2020-08-19T13:48:16Z</time><name>PT7977</name></trkpt>
<trkpt lat="53.215342" lon="-2.020384"><ele>317</ele><time>2020-08-19T13:48:17Z</time><name>PT7978</name></trkpt>
<trkpt lat="53.215343" lon="-2.020405"><ele>318</ele><time>2020-08-19T13:48:17Z</time><name>PT7979</name></trkpt>
<trkpt lat="53.215340" lon="-2.020430"><ele>319</ele><time>2020-08-19T13:48:19Z</time><name>PT7980</name></trkpt>
<trkpt lat="53.215341" lon="-2.020449"><ele>319</ele><time>2020-08-19T13:48:20Z</time><name>PT7981</name></trkpt>
<trkpt lat="53.215343" lon="-2.020471"><ele>319</ele><time>2020-08-19T13:48:20Z</time><name>PT7982</name></trkpt>
<trkpt lat="53.215348" lon="-2.020486"><ele>319</ele><time>2020-08-19T13:48:22Z</time><name>PT7983</name></trkpt>
<trkpt lat="53.215337" lon="-2.020524"><ele>320</ele><time>2020-08-19T13:48:23Z</time><name>PT7984</name></trkpt>
<trkpt lat="53.215337" lon="-2.020547"><ele>320</ele><time>2020-08-19T13:48:23Z</time><name>PT7985</name></trkpt>
<trkpt lat="53.215340" lon="-2.020569"><ele>319</ele><time>2020-08-19T13:48:25Z</time><name>PT7986</name></trkpt>
<trkpt lat="53.215346" lon="-2.020584"><ele>319</ele><time>2020-08-19T13:48:26Z</time><name>PT7987</name></trkpt>
<trkpt lat="53.215351" lon="-2.020594"><ele>318</ele><time>2020-08-19T13:48:26Z</time><name>PT7988</name></trkpt>
<trkpt lat="53.215356" lon="-2.020612"><ele>318</ele><time>2020-08-19T13:48:28Z</time><name>PT7989</name></trkpt>
<trkpt lat="53.215358" lon="-2.020630"><ele>318</ele><time>2020-08-19T13:48:29Z</time><name>PT7990</name></trkpt>
<trkpt lat="53.215361" lon="-2.020643"><ele>318</ele><time>2020-08-19T13:48:29Z</time><name>PT7991</name></trkpt>
<trkpt lat="53.215365" lon="-2.020660"><ele>318</ele><time>2020-08-19T13:48:31Z</time><name>PT7992</name></trkpt>
<trkpt lat="53.215371" lon="-2.020671"><ele>318</ele><time>2020-08-19T13:48:32Z</time><name>PT7993</name></trkpt>
<trkpt lat="53.215378" lon="-2.020677"><ele>317</ele><time>2020-08-19T13:48:32Z</time><name>PT7994</name></trkpt>
<trkpt lat="53.215381" lon="-2.020699"><ele>318</ele><time>2020-08-19T13:48:34Z</time><name>PT7995</name></trkpt>
<trkpt lat="53.215383" lon="-2.020718"><ele>318</ele><time>2020-08-19T13:48:35Z</time><name>PT7996</name></trkpt>
<trkpt lat="53.215387" lon="-2.020735"><ele>318</ele><time>2020-08-19T13:48:35Z</time><name>PT7997</name></trkpt>
<trkpt lat="53.215387" lon="-2.020755"><ele>318</ele><time>2020-08-19T13:48:37Z</time><name>PT7998</name></trkpt>
<trkpt lat="53.215386" lon="-2.020774"><ele>318</ele><time>2020-08-19T13:48:38Z</time><name>PT7999</name></trkpt>
<trkpt lat="53.215390" lon="-2.020789"><ele>318</ele><time>2020-08-19T13:48:38Z</time><name>PT8000</name></trkpt>
<trkpt lat="53.215395" lon="-2.020802"><ele>317</ele><time>2020-08-19T13:48:40Z</time><name>PT8001</name></trkpt>
<trkpt lat="53.215405" lon="-2.020814"><ele>317</ele><time>2020-08-19T13:48:41Z</time><name>PT8002</name></trkpt>
<trkpt lat="53.215410" lon="-2.020832"><ele>317</ele><time>2020-08-19T13:48:41Z</time><name>PT8003</name></trkpt>
<trkpt lat="53.215412" lon="-2.020849"><ele>316</ele><time>2020-08-19T13:48:43Z</time><name>PT8004</name></trkpt>
<trkpt lat="53.215410" lon="-2.020873"><ele>316</ele><time>2020-08-19T13:48:44Z</time><name>PT8005</name></trkpt>
<trkpt lat="53.215418" lon="-2.020883"><ele>314</ele><time>2020-08-19T13:48:44Z</time><name>PT8006</name></trkpt>
<trkpt lat="53.215420" lon="-2.020906"><ele>314</ele><time>2020-08-19T13:48:46Z</time><name>PT8007</name></trkpt>
<trkpt lat="53.215421" lon="-2.020934"><ele>314</ele><time>2020-08-19T13:48:47Z</time><name>PT8008</name></trkpt>
<trkpt lat="53.215421" lon="-2.020957"><ele>314</ele><time>2020-08-19T13:48:47Z</time><name>PT8009</name></trkpt>
<trkpt lat="53.215429" lon="-2.020975"><ele>313</ele><time>2020-08-19T13:48:49Z</time><name>PT8010</name></trkpt>
<trkpt lat="53.215434" lon="-2.020994"><ele>313</ele><time>2020-08-19T13:48:50Z</time><name>PT8011</name></trkpt>
<trkpt lat="53.215435" lon="-2.021018"><ele>313</ele><time>2020-08-19T13:48:50Z</time><name>PT8012</name></trkpt>
<trkpt lat="53.215438" lon="-2.021042"><ele>312</ele><time>2020-08-19T13:48:52Z</time><name>PT8013</name></trkpt>
<trkpt lat="53.215441" lon="-2.021061"><ele>311</ele><time>2020-08-19T13:48:53Z</time><name>PT8014</name></trkpt>
<trkpt lat="53.215447" lon="-2.021072"><ele>310</ele><time>2020-08-19T13:48:53Z</time><name>PT8015</name></trkpt>
<trkpt lat="53.215446" lon="-2.021094"><ele>310</ele><time>2020-08-19T13:48:55Z</time><name>PT8016</name></trkpt>
<trkpt lat="53.215446" lon="-2.021112"><ele>309</ele><time>2020-08-19T13:48:56Z</time><name>PT8017</name></trkpt>
<trkpt lat="53.215449" lon="-2.021136"><ele>309</ele><time>2020-08-19T13:48:56Z</time><name>PT8018</name></trkpt>
<trkpt lat="53.215450" lon="-2.021165"><ele>310</ele><time>2020-08-19T13:48:58Z</time><name>PT8019</name></trkpt>
<trkpt lat="53.215453" lon="-2.021172"><ele>308</ele><time>2020-08-19T13:48:59Z</time><name>PT8020</name></trkpt>
<trkpt lat="53.215455" lon="-2.021194"><ele>308</ele><time>2020-08-19T13:48:59Z</time><name>PT8021</name></trkpt>
<trkpt lat="53.215460" lon="-2.021217"><ele>308</ele><time>2020-08-19T13:49:01Z</time><name>PT8022</name></trkpt>
<trkpt lat="53.215463" lon="-2.021231"><ele>307</ele><time>2020-08-19T13:49:02Z</time><name>PT8023</name></trkpt>
<trkpt lat="53.215464" lon="-2.021252"><ele>306</ele><time>2020-08-19T13:49:02Z</time><name>PT8024</name></trkpt>
<trkpt lat="53.215463" lon="-2.021276"><ele>306</ele><time>2020-08-19T13:49:04Z</time><name>PT8025</name></trkpt>
<trkpt lat="53.215462" lon="-2.021296"><ele>305</ele><time>2020-08-19T13:49:05Z</time><name>PT8026</name></trkpt>
<trkpt lat="53.215463" lon="-2.021316"><ele>304</ele><time>2020-08-19T13:49:05Z</time><name>PT8027</name></trkpt>
<trkpt lat="53.215462" lon="-2.021339"><ele>304</ele><time>2020-08-19T13:49:07Z</time><name>PT8028</name></trkpt>
<trkpt lat="53.215464" lon="-2.021359"><ele>304</ele><time>2020-08-19T13:49:08Z</time><name>PT8029</name></trkpt>
<trkpt lat="53.215467" lon="-2.021378"><ele>303</ele><time>2020-08-19T13:49:08Z</time><name>PT8030</name></trkpt>
<trkpt lat="53.215471" lon="-2.021396"><ele>303</ele><time>2020-08-19T13:49:10Z</time><name>PT8031</name></trkpt>
<trkpt lat="53.215478" lon="-2.021411"><ele>303</ele><time>2020-08-19T13:49:11Z</time><name>PT8032</name></trkpt>
<trkpt lat="53.215488" lon="-2.021415"><ele>302</ele><time>2020-08-19T13:49:11Z</time><name>PT8033</name></trkpt>
<trkpt lat="53.215489" lon="-2.021434"><ele>301</ele><time>2020-08-19T13:49:13Z</time><name>PT8034</name></trkpt>
<trkpt lat="53.215488" lon="-2.021452"><ele>301</ele><time>2020-08-19T13:49:14Z</time><name>PT8035</name></trkpt>
<trkpt lat="53.215487" lon="-2.021476"><ele>301</ele><time>2020-08-19T13:49:14Z</time><name>PT8036</name></trkpt>
<trkpt lat="53.215483" lon="-2.021498"><ele>302</ele><time>2020-08-19T13:49:16Z</time><name>PT8037</name></trkpt>
<trkpt lat="53.215482" lon="-2.021520"><ele>301</ele><time>2020-08-19T13:49:17Z</time><name>PT8038</name></trkpt>
<trkpt lat="53.215476" lon="-2.021592"><ele>302</ele><time>2020-08-19T13:49:20Z</time><name>PT8039</name></trkpt>
<trkpt lat="53.215476" lon="-2.021636"><ele>301</ele><time>2020-08-19T13:49:23Z</time><name>PT8040</name></trkpt>
<trkpt lat="53.215479" lon="-2.021726"><ele>300</ele><time>2020-08-19T13:49:26Z</time><name>PT8041</name></trkpt>
<trkpt lat="53.215473" lon="-2.021807"><ele>299</ele><time>2020-08-19T13:49:31Z</time><name>PT8042</name></trkpt>
<trkpt lat="53.215473" lon="-2.021881"><ele>300</ele><time>2020-08-19T13:49:35Z</time><name>PT8043</name></trkpt>
<trkpt lat="53.215463" lon="-2.021942"><ele>299</ele><time>2020-08-19T13:49:38Z</time><name>PT8044</name></trkpt>
<trkpt lat="53.215448" lon="-2.022031"><ele>301</ele><time>2020-08-19T13:49:41Z</time><name>PT8045</name></trkpt>
<trkpt lat="53.215447" lon="-2.022119"><ele>300</ele><time>2020-08-19T13:49:44Z</time><name>PT8046</name></trkpt>
<trkpt lat="53.215437" lon="-2.022204"><ele>300</ele><time>2020-08-19T13:49:49Z</time><name>PT8047</name></trkpt>
<trkpt lat="53.215435" lon="-2.022290"><ele>299</ele><time>2020-08-19T13:49:53Z</time><name>PT8048</name></trkpt>
<trkpt lat="53.215429" lon="-2.022352"><ele>299</ele><time>2020-08-19T13:49:56Z</time><name>PT8049</name></trkpt>
<trkpt lat="53.215426" lon="-2.022422"><ele>298</ele><time>2020-08-19T13:49:59Z</time><name>PT8050</name></trkpt>
<trkpt lat="53.215426" lon="-2.022489"><ele>298</ele><time>2020-08-19T13:50:02Z</time><name>PT8051</name></trkpt>
<trkpt lat="53.215422" lon="-2.022573"><ele>297</ele><time>2020-08-19T13:50:05Z</time><name>PT8052</name></trkpt>
<trkpt lat="53.215425" lon="-2.022634"><ele>297</ele><time>2020-08-19T13:50:08Z</time><name>PT8053</name></trkpt>
<trkpt lat="53.215427" lon="-2.022720"><ele>296</ele><time>2020-08-19T13:50:13Z</time><name>PT8054</name></trkpt>
<trkpt lat="53.215427" lon="-2.022784"><ele>295</ele><time>2020-08-19T13:50:16Z</time><name>PT8055</name></trkpt>
<trkpt lat="53.215439" lon="-2.022864"><ele>294</ele><time>2020-08-19T13:50:20Z</time><name>PT8056</name></trkpt>
<trkpt lat="53.215449" lon="-2.022946"><ele>295</ele><time>2020-08-19T13:50:24Z</time><name>PT8057</name></trkpt>
<trkpt lat="53.215461" lon="-2.023032"><ele>293</ele><time>2020-08-19T13:50:28Z</time><name>PT8058</name></trkpt>
<trkpt lat="53.215476" lon="-2.023080"><ele>293</ele><time>2020-08-19T13:50:31Z</time><name>PT8059</name></trkpt>
<trkpt lat="53.215480" lon="-2.023157"><ele>293</ele><time>2020-08-19T13:50:34Z</time><name>PT8060</name></trkpt>
<trkpt lat="53.215497" lon="-2.023234"><ele>291</ele><time>2020-08-19T13:50:38Z</time><name>PT8061</name></trkpt>
<trkpt lat="53.215513" lon="-2.023294"><ele>291</ele><time>2020-08-19T13:50:41Z</time><name>PT8062</name></trkpt>
<trkpt lat="53.215529" lon="-2.023348"><ele>289</ele><time>2020-08-19T13:50:44Z</time><name>PT8063</name></trkpt>
<trkpt lat="53.215545" lon="-2.023410"><ele>288</ele><time>2020-08-19T13:50:47Z</time><name>PT8064</name></trkpt>
<trkpt lat="53.215554" lon="-2.023464"><ele>288</ele><time>2020-08-19T13:50:50Z</time><name>PT8065</name></trkpt>
<trkpt lat="53.215569" lon="-2.023528"><ele>286</ele><time>2020-08-19T13:50:55Z</time><name>PT8066</name></trkpt>
<trkpt lat="53.215586" lon="-2.023597"><ele>287</ele><time>2020-08-19T13:50:59Z</time><name>PT8067</name></trkpt>
<trkpt lat="53.215598" lon="-2.023651"><ele>287</ele><time>2020-08-19T13:51:02Z</time><name>PT8068</name></trkpt>
<trkpt lat="53.215620" lon="-2.023691"><ele>287</ele><time>2020-08-19T13:51:05Z</time><name>PT8069</name></trkpt>
<trkpt lat="53.215633" lon="-2.023766"><ele>289</ele><time>2020-08-19T13:51:08Z</time><name>PT8070</name></trkpt>
<trkpt lat="53.215649" lon="-2.023827"><ele>290</ele><time>2020-08-19T13:51:13Z</time><name>PT8071</name></trkpt>
<trkpt lat="53.215653" lon="-2.023886"><ele>289</ele><time>2020-08-19T13:51:17Z</time><name>PT8072</name></trkpt>
<trkpt lat="53.215667" lon="-2.023963"><ele>289</ele><time>2020-08-19T13:51:20Z</time><name>PT8073</name></trkpt>
<trkpt lat="53.215682" lon="-2.024020"><ele>288</ele><time>2020-08-19T13:51:23Z</time><name>PT8074</name></trkpt>
<trkpt lat="53.215704" lon="-2.024067"><ele>288</ele><time>2020-08-19T13:51:26Z</time><name>PT8075</name></trkpt>
<trkpt lat="53.215716" lon="-2.024130"><ele>286</ele><time>2020-08-19T13:51:29Z</time><name>PT8076</name></trkpt>
<trkpt lat="53.215740" lon="-2.024198"><ele>287</ele><time>2020-08-19T13:51:34Z</time><name>PT8077</name></trkpt>
<trkpt lat="53.215745" lon="-2.024282"><ele>284</ele><time>2020-08-19T13:51:38Z</time><name>PT8078</name></trkpt>
<trkpt lat="53.215755" lon="-2.024343"><ele>286</ele><time>2020-08-19T13:51:41Z</time><name>PT8079</name></trkpt>
<trkpt lat="53.215773" lon="-2.024415"><ele>288</ele><time>2020-08-19T13:51:44Z</time><name>PT8080</name></trkpt>
<trkpt lat="53.215793" lon="-2.024511"><ele>291</ele><time>2020-08-19T13:51:47Z</time><name>PT8081</name></trkpt>
<trkpt lat="53.215805" lon="-2.024585"><ele>291</ele><time>2020-08-19T13:51:52Z</time><name>PT8082</name></trkpt>
<trkpt lat="53.215809" lon="-2.024637"><ele>290</ele><time>2020-08-19T13:51:55Z</time><name>PT8083</name></trkpt>
<trkpt lat="53.215796" lon="-2.024732"><ele>288</ele><time>2020-08-19T13:51:59Z</time><name>PT8084</name></trkpt>
<trkpt lat="53.215776" lon="-2.024834"><ele>290</ele><time>2020-08-19T13:52:02Z</time><name>PT8085</name></trkpt>
<trkpt lat="53.215755" lon="-2.024933"><ele>289</ele><time>2020-08-19T13:52:07Z</time><name>PT8086</name></trkpt>
<trkpt lat="53.215732" lon="-2.025015"><ele>290</ele><time>2020-08-19T13:52:11Z</time><name>PT8087</name></trkpt>
<trkpt lat="53.215718" lon="-2.025082"><ele>290</ele><time>2020-08-19T13:52:14Z</time><name>PT8088</name></trkpt>
<trkpt lat="53.215698" lon="-2.025122"><ele>290</ele><time>2020-08-19T13:52:17Z</time><name>PT8089</name></trkpt>
<trkpt lat="53.215675" lon="-2.025153"><ele>287</ele><time>2020-08-19T13:52:20Z</time><name>PT8090</name></trkpt>
<trkpt lat="53.215651" lon="-2.025252"><ele>290</ele><time>2020-08-19T13:52:23Z</time><name>PT8091</name></trkpt>
<trkpt lat="53.215646" lon="-2.025311"><ele>289</ele><time>2020-08-19T13:52:26Z</time><name>PT8092</name></trkpt>
<trkpt lat="53.215631" lon="-2.025363"><ele>288</ele><time>2020-08-19T13:52:29Z</time><name>PT8093</name></trkpt>
<trkpt lat="53.215625" lon="-2.025443"><ele>286</ele><time>2020-08-19T13:52:34Z</time><name>PT8094</name></trkpt>
<trkpt lat="53.215626" lon="-2.025499"><ele>284</ele><time>2020-08-19T13:52:37Z</time><name>PT8095</name></trkpt>
<trkpt lat="53.215606" lon="-2.025553"><ele>282</ele><time>2020-08-19T13:52:40Z</time><name>PT8096</name></trkpt>
<trkpt lat="53.215597" lon="-2.025618"><ele>281</ele><time>2020-08-19T13:52:43Z</time><name>PT8097</name></trkpt>
<trkpt lat="53.215574" lon="-2.025684"><ele>278</ele><time>2020-08-19T13:52:47Z</time><name>PT8098</name></trkpt>
<trkpt lat="53.215558" lon="-2.025747"><ele>275</ele><time>2020-08-19T13:52:50Z</time><name>PT8099</name></trkpt>
<trkpt lat="53.215564" lon="-2.025761"><ele>275</ele><time>2020-08-19T13:52:53Z</time><name>PT8100</name></trkpt>
<trkpt lat="53.215561" lon="-2.025778"><ele>275</ele><time>2020-08-19T13:52:58Z</time><name>PT8101</name></trkpt>
<trkpt lat="53.215560" lon="-2.025799"><ele>275</ele><time>2020-08-19T13:53:02Z</time><name>PT8102</name></trkpt>
<trkpt lat="53.215572" lon="-2.025822"><ele>276</ele><time>2020-08-19T13:53:05Z</time><name>PT8103</name></trkpt>
<trkpt lat="53.215574" lon="-2.025836"><ele>276</ele><time>2020-08-19T13:53:08Z</time><name>PT8104</name></trkpt>
<trkpt lat="53.215578" lon="-2.025836"><ele>275</ele><time>2020-08-19T13:53:13Z</time><name>PT8105</name></trkpt>
<trkpt lat="53.215579" lon="-2.025827"><ele>275</ele><time>2020-08-19T13:53:17Z</time><name>PT8106</name></trkpt>
<trkpt lat="53.215582" lon="-2.025828"><ele>275</ele><time>2020-08-19T13:53:20Z</time><name>PT8107</name></trkpt>
<trkpt lat="53.215569" lon="-2.025858"><ele>275</ele><time>2020-08-19T13:53:23Z</time><name>PT8108</name></trkpt>
<trkpt lat="53.215564" lon="-2.025873"><ele>275</ele><time>2020-08-19T13:53:26Z</time><name>PT8109</name></trkpt>
<trkpt lat="53.215556" lon="-2.025891"><ele>275</ele><time>2020-08-19T13:53:34Z</time><name>PT8110</name></trkpt>
<trkpt lat="53.215547" lon="-2.025902"><ele>277</ele><time>2020-08-19T13:53:37Z</time><name>PT8111</name></trkpt>
<trkpt lat="53.215529" lon="-2.025913"><ele>277</ele><time>2020-08-19T13:53:40Z</time><name>PT8112</name></trkpt>
<trkpt lat="53.215501" lon="-2.025954"><ele>276</ele><time>2020-08-19T13:53:43Z</time><name>PT8113</name></trkpt>
<trkpt lat="53.215481" lon="-2.025996"><ele>275</ele><time>2020-08-19T13:53:46Z</time><name>PT8114</name></trkpt>
<trkpt lat="53.215449" lon="-2.026078"><ele>276</ele><time>2020-08-19T13:53:50Z</time><name>PT8115</name></trkpt>
<trkpt lat="53.215417" lon="-2.026123"><ele>276</ele><time>2020-08-19T13:53:53Z</time><name>PT8116</name></trkpt>
<trkpt lat="53.215390" lon="-2.026187"><ele>275</ele><time>2020-08-19T13:53:56Z</time><name>PT8117</name></trkpt>
<trkpt lat="53.215377" lon="-2.026237"><ele>273</ele><time>2020-08-19T13:53:59Z</time><name>PT8118</name></trkpt>
<trkpt lat="53.215369" lon="-2.026294"><ele>273</ele><time>2020-08-19T13:54:02Z</time><name>PT8119</name></trkpt>
<trkpt lat="53.215360" lon="-2.026355"><ele>270</ele><time>2020-08-19T13:54:07Z</time><name>PT8120</name></trkpt>
<trkpt lat="53.215351" lon="-2.026388"><ele>267</ele><time>2020-08-19T13:54:10Z</time><name>PT8121</name></trkpt>
<trkpt lat="53.215342" lon="-2.026446"><ele>268</ele><time>2020-08-19T13:54:13Z</time><name>PT8122</name></trkpt>
<trkpt lat="53.215316" lon="-2.026513"><ele>267</ele><time>2020-08-19T13:54:17Z</time><name>PT8123</name></trkpt>
<trkpt lat="53.215290" lon="-2.026571"><ele>268</ele><time>2020-08-19T13:54:20Z</time><name>PT8124</name></trkpt>
<trkpt lat="53.215280" lon="-2.026636"><ele>268</ele><time>2020-08-19T13:54:23Z</time><name>PT8125</name></trkpt>
<trkpt lat="53.215272" lon="-2.026696"><ele>268</ele><time>2020-08-19T13:54:26Z</time><name>PT8126</name></trkpt>
<trkpt lat="53.215251" lon="-2.026764"><ele>268</ele><time>2020-08-19T13:54:31Z</time><name>PT8127</name></trkpt>
<trkpt lat="53.215249" lon="-2.026798"><ele>269</ele><time>2020-08-19T13:54:34Z</time><name>PT8128</name></trkpt>
<trkpt lat="53.215223" lon="-2.026892"><ele>268</ele><time>2020-08-19T13:54:38Z</time><name>PT8129</name></trkpt>
<trkpt lat="53.215218" lon="-2.026956"><ele>269</ele><time>2020-08-19T13:54:41Z</time><name>PT8130</name></trkpt>
<trkpt lat="53.215203" lon="-2.027042"><ele>268</ele><time>2020-08-19T13:54:45Z</time><name>PT8131</name></trkpt>
<trkpt lat="53.215205" lon="-2.027068"><ele>267</ele><time>2020-08-19T13:54:49Z</time><name>PT8132</name></trkpt>
<trkpt lat="53.215191" lon="-2.027118"><ele>266</ele><time>2020-08-19T13:54:52Z</time><name>PT8133</name></trkpt>
<trkpt lat="53.215174" lon="-2.027183"><ele>267</ele><time>2020-08-19T13:54:56Z</time><name>PT8134</name></trkpt>
<trkpt lat="53.215158" lon="-2.027247"><ele>269</ele><time>2020-08-19T13:54:59Z</time><name>PT8135</name></trkpt>
<trkpt lat="53.215144" lon="-2.027291"><ele>270</ele><time>2020-08-19T13:55:02Z</time><name>PT8136</name></trkpt>
<trkpt lat="53.215153" lon="-2.027288"><ele>272</ele><time>2020-08-19T13:55:05Z</time><name>PT8137</name></trkpt>
<trkpt lat="53.215157" lon="-2.027292"><ele>276</ele><time>2020-08-19T13:55:10Z</time><name>PT8138</name></trkpt>
<trkpt lat="53.215154" lon="-2.027298"><ele>277</ele><time>2020-08-19T13:55:14Z</time><name>PT8139</name></trkpt>
<trkpt lat="53.215132" lon="-2.027325"><ele>278</ele><time>2020-08-19T13:55:20Z</time><name>PT8140</name></trkpt>
<trkpt lat="53.215110" lon="-2.027354"><ele>277</ele><time>2020-08-19T13:55:23Z</time><name>PT8141</name></trkpt>
<trkpt lat="53.215084" lon="-2.027374"><ele>276</ele><time>2020-08-19T13:55:26Z</time><name>PT8142</name></trkpt>
<trkpt lat="53.215074" lon="-2.027376"><ele>276</ele><time>2020-08-19T13:55:29Z</time><name>PT8143</name></trkpt>
<trkpt lat="53.215077" lon="-2.027382"><ele>276</ele><time>2020-08-19T13:55:34Z</time><name>PT8144</name></trkpt>
<trkpt lat="53.215054" lon="-2.027404"><ele>276</ele><time>2020-08-19T13:55:38Z</time><name>PT8145</name></trkpt>
<trkpt lat="53.215025" lon="-2.027396"><ele>276</ele><time>2020-08-19T13:55:41Z</time><name>PT8146</name></trkpt>
<trkpt lat="53.214987" lon="-2.027387"><ele>276</ele><time>2020-08-19T13:55:44Z</time><name>PT8147</name></trkpt>
<trkpt lat="53.214957" lon="-2.027381"><ele>275</ele><time>2020-08-19T13:55:47Z</time><name>PT8148</name></trkpt>
<trkpt lat="53.214911" lon="-2.027374"><ele>274</ele><time>2020-08-19T13:55:52Z</time><name>PT8149</name></trkpt>
<trkpt lat="53.214874" lon="-2.027352"><ele>275</ele><time>2020-08-19T13:55:56Z</time><name>PT8150</name></trkpt>
<trkpt lat="53.214848" lon="-2.027364"><ele>274</ele><time>2020-08-19T13:55:59Z</time><name>PT8151</name></trkpt>
<trkpt lat="53.214800" lon="-2.027362"><ele>274</ele><time>2020-08-19T13:56:02Z</time><name>PT8152</name></trkpt>
<trkpt lat="53.214774" lon="-2.027365"><ele>272</ele><time>2020-08-19T13:56:05Z</time><name>PT8153</name></trkpt>
<trkpt lat="53.214728" lon="-2.027370"><ele>275</ele><time>2020-08-19T13:56:10Z</time><name>PT8154</name></trkpt>
<trkpt lat="53.214685" lon="-2.027374"><ele>275</ele><time>2020-08-19T13:56:14Z</time><name>PT8155</name></trkpt>
<trkpt lat="53.214644" lon="-2.027383"><ele>274</ele><time>2020-08-19T13:56:17Z</time><name>PT8156</name></trkpt>
<trkpt lat="53.214614" lon="-2.027384"><ele>274</ele><time>2020-08-19T13:56:20Z</time><name>PT8157</name></trkpt>
<trkpt lat="53.214573" lon="-2.027401"><ele>272</ele><time>2020-08-19T13:56:23Z</time><name>PT8158</name></trkpt>
<trkpt lat="53.214532" lon="-2.027398"><ele>270</ele><time>2020-08-19T13:56:28Z</time><name>PT8159</name></trkpt>
<trkpt lat="53.214494" lon="-2.027404"><ele>271</ele><time>2020-08-19T13:56:31Z</time><name>PT8160</name></trkpt>
<trkpt lat="53.214449" lon="-2.027424"><ele>271</ele><time>2020-08-19T13:56:35Z</time><name>PT8161</name></trkpt>
<trkpt lat="53.214404" lon="-2.027464"><ele>271</ele><time>2020-08-19T13:56:38Z</time><name>PT8162</name></trkpt>
<trkpt lat="53.214384" lon="-2.027495"><ele>271</ele><time>2020-08-19T13:56:43Z</time><name>PT8163</name></trkpt>
<trkpt lat="53.214341" lon="-2.027545"><ele>268</ele><time>2020-08-19T13:56:47Z</time><name>PT8164</name></trkpt>
<trkpt lat="53.214312" lon="-2.027570"><ele>267</ele><time>2020-08-19T13:56:50Z</time><name>PT8165</name></trkpt>
<trkpt lat="53.214275" lon="-2.027606"><ele>265</ele><time>2020-08-19T13:56:53Z</time><name>PT8166</name></trkpt>
<trkpt lat="53.214243" lon="-2.027637"><ele>264</ele><time>2020-08-19T13:56:56Z</time><name>PT8167</name></trkpt>
<trkpt lat="53.214206" lon="-2.027671"><ele>264</ele><time>2020-08-19T13:56:59Z</time><name>PT8168</name></trkpt>
<trkpt lat="53.214162" lon="-2.027746"><ele>265</ele><time>2020-08-19T13:57:04Z</time><name>PT8169</name></trkpt>
<trkpt lat="53.214126" lon="-2.027811"><ele>266</ele><time>2020-08-19T13:57:08Z</time><name>PT8170</name></trkpt>
<trkpt lat="53.214100" lon="-2.027841"><ele>266</ele><time>2020-08-19T13:57:11Z</time><name>PT8171</name></trkpt>
<trkpt lat="53.214066" lon="-2.027894"><ele>266</ele><time>2020-08-19T13:57:14Z</time><name>PT8172</name></trkpt>
<trkpt lat="53.214032" lon="-2.027952"><ele>265</ele><time>2020-08-19T13:57:19Z</time><name>PT8173</name></trkpt>
<trkpt lat="53.214003" lon="-2.027991"><ele>265</ele><time>2020-08-19T13:57:22Z</time><name>PT8174</name></trkpt>
<trkpt lat="53.213967" lon="-2.028048"><ele>265</ele><time>2020-08-19T13:57:26Z</time><name>PT8175</name></trkpt>
<trkpt lat="53.213947" lon="-2.028075"><ele>264</ele><time>2020-08-19T13:57:29Z</time><name>PT8176</name></trkpt>
<trkpt lat="53.213930" lon="-2.028097"><ele>263</ele><time>2020-08-19T13:57:32Z</time><name>PT8177</name></trkpt>
<trkpt lat="53.213887" lon="-2.028137"><ele>264</ele><time>2020-08-19T13:57:35Z</time><name>PT8178</name></trkpt>
<trkpt lat="53.213861" lon="-2.028192"><ele>263</ele><time>2020-08-19T13:57:38Z</time><name>PT8179</name></trkpt>
<trkpt lat="53.213835" lon="-2.028242"><ele>263</ele><time>2020-08-19T13:57:41Z</time><name>PT8180</name></trkpt>
<trkpt lat="53.213806" lon="-2.028299"><ele>261</ele><time>2020-08-19T13:57:46Z</time><name>PT8181</name></trkpt>
<trkpt lat="53.213774" lon="-2.028355"><ele>260</ele><time>2020-08-19T13:57:49Z</time><name>PT8182</name></trkpt>
<trkpt lat="53.213747" lon="-2.028405"><ele>260</ele><time>2020-08-19T13:57:52Z</time><name>PT8183</name></trkpt>
<trkpt lat="53.213712" lon="-2.028483"><ele>260</ele><time>2020-08-19T13:57:56Z</time><name>PT8184</name></trkpt>
<trkpt lat="53.213683" lon="-2.028518"><ele>263</ele><time>2020-08-19T13:57:59Z</time><name>PT8185</name></trkpt>
<trkpt lat="53.213664" lon="-2.028536"><ele>263</ele><time>2020-08-19T13:58:02Z</time><name>PT8186</name></trkpt>
<trkpt lat="53.213656" lon="-2.028558"><ele>266</ele><time>2020-08-19T13:58:07Z</time><name>PT8187</name></trkpt>
<trkpt lat="53.213648" lon="-2.028571"><ele>267</ele><time>2020-08-19T13:58:10Z</time><name>PT8188</name></trkpt>
<trkpt lat="53.213648" lon="-2.028599"><ele>269</ele><time>2020-08-19T13:58:13Z</time><name>PT8189</name></trkpt>
<trkpt lat="53.213605" lon="-2.028686"><ele>269</ele><time>2020-08-19T13:58:17Z</time><name>PT8190</name></trkpt>
<trkpt lat="53.213576" lon="-2.028731"><ele>267</ele><time>2020-08-19T13:58:20Z</time><name>PT8191</name></trkpt>
<trkpt lat="53.213541" lon="-2.028783"><ele>267</ele><time>2020-08-19T13:58:23Z</time><name>PT8192</name></trkpt>
<trkpt lat="53.213512" lon="-2.028825"><ele>266</ele><time>2020-08-19T13:58:26Z</time><name>PT8193</name></trkpt>
<trkpt lat="53.213486" lon="-2.028861"><ele>266</ele><time>2020-08-19T13:58:31Z</time><name>PT8194</name></trkpt>
<trkpt lat="53.213469" lon="-2.028897"><ele>266</ele><time>2020-08-19T13:58:34Z</time><name>PT8195</name></trkpt>
<trkpt lat="53.213462" lon="-2.028939"><ele>264</ele><time>2020-08-19T13:58:37Z</time><name>PT8196</name></trkpt>
<trkpt lat="53.213460" lon="-2.028939"><ele>265</ele><time>2020-08-19T13:58:40Z</time><name>PT8197</name></trkpt>
<trkpt lat="53.213455" lon="-2.028944"><ele>266</ele><time>2020-08-19T13:58:44Z</time><name>PT8198</name></trkpt>
<trkpt lat="53.213437" lon="-2.028956"><ele>265</ele><time>2020-08-19T13:58:47Z</time><name>PT8199</name></trkpt>
<trkpt lat="53.213415" lon="-2.028952"><ele>262</ele><time>2020-08-19T13:58:50Z</time><name>PT8200</name></trkpt>
<trkpt lat="53.213379" lon="-2.028998"><ele>260</ele><time>2020-08-19T13:58:53Z</time><name>PT8201</name></trkpt>
<trkpt lat="53.213340" lon="-2.029042"><ele>260</ele><time>2020-08-19T13:58:58Z</time><name>PT8202</name></trkpt>
<trkpt lat="53.213299" lon="-2.029080"><ele>258</ele><time>2020-08-19T13:59:02Z</time><name>PT8203</name></trkpt>
<trkpt lat="53.213269" lon="-2.029121"><ele>257</ele><time>2020-08-19T13:59:05Z</time><name>PT8204</name></trkpt>
<trkpt lat="53.213231" lon="-2.029176"><ele>258</ele><time>2020-08-19T13:59:10Z</time><name>PT8205</name></trkpt>
<trkpt lat="53.213206" lon="-2.029224"><ele>258</ele><time>2020-08-19T13:59:13Z</time><name>PT8206</name></trkpt>
<trkpt lat="53.213175" lon="-2.029258"><ele>258</ele><time>2020-08-19T13:59:16Z</time><name>PT8207</name></trkpt>
<trkpt lat="53.213130" lon="-2.029315"><ele>260</ele><time>2020-08-19T13:59:20Z</time><name>PT8208</name></trkpt>
<trkpt lat="53.213093" lon="-2.029339"><ele>259</ele><time>2020-08-19T13:59:23Z</time><name>PT8209</name></trkpt>
<trkpt lat="53.213056" lon="-2.029369"><ele>258</ele><time>2020-08-19T13:59:26Z</time><name>PT8210</name></trkpt>
<trkpt lat="53.213026" lon="-2.029395"><ele>257</ele><time>2020-08-19T13:59:29Z</time><name>PT8211</name></trkpt>
<trkpt lat="53.212979" lon="-2.029436"><ele>256</ele><time>2020-08-19T13:59:32Z</time><name>PT8212</name></trkpt>
<trkpt lat="53.212951" lon="-2.029453"><ele>255</ele><time>2020-08-19T13:59:35Z</time><name>PT8213</name></trkpt>
<trkpt lat="53.212905" lon="-2.029464"><ele>256</ele><time>2020-08-19T13:59:40Z</time><name>PT8214</name></trkpt>
<trkpt lat="53.212859" lon="-2.029483"><ele>256</ele><time>2020-08-19T13:59:44Z</time><name>PT8215</name></trkpt>
<trkpt lat="53.212810" lon="-2.029513"><ele>255</ele><time>2020-08-19T13:59:47Z</time><name>PT8216</name></trkpt>
<trkpt lat="53.212758" lon="-2.029551"><ele>253</ele><time>2020-08-19T13:59:52Z</time><name>PT8217</name></trkpt>
<trkpt lat="53.212709" lon="-2.029583"><ele>255</ele><time>2020-08-19T13:59:56Z</time><name>PT8218</name></trkpt>
<trkpt lat="53.212665" lon="-2.029603"><ele>255</ele><time>2020-08-19T13:59:59Z</time><name>PT8219</name></trkpt>
<trkpt lat="53.212614" lon="-2.029627"><ele>256</ele><time>2020-08-19T14:00:02Z</time><name>PT8220</name></trkpt>
<trkpt lat="53.212575" lon="-2.029642"><ele>256</ele><time>2020-08-19T14:00:05Z</time><name>PT8221</name></trkpt>
<trkpt lat="53.212541" lon="-2.029673"><ele>257</ele><time>2020-08-19T14:00:08Z</time><name>PT8222</name></trkpt>
<trkpt lat="53.212515" lon="-2.029713"><ele>255</ele><time>2020-08-19T14:00:11Z</time><name>PT8223</name></trkpt>
<trkpt lat="53.212484" lon="-2.029724"><ele>252</ele><time>2020-08-19T14:00:14Z</time><name>PT8224</name></trkpt>
<trkpt lat="53.212430" lon="-2.029748"><ele>253</ele><time>2020-08-19T14:00:19Z</time><name>PT8225</name></trkpt>
<trkpt lat="53.212387" lon="-2.029740"><ele>255</ele><time>2020-08-19T14:00:22Z</time><name>PT8226</name></trkpt>
<trkpt lat="53.212333" lon="-2.029765"><ele>255</ele><time>2020-08-19T14:00:26Z</time><name>PT8227</name></trkpt>
<trkpt lat="53.212298" lon="-2.029778"><ele>256</ele><time>2020-08-19T14:00:29Z</time><name>PT8228</name></trkpt>
<trkpt lat="53.212262" lon="-2.029796"><ele>256</ele><time>2020-08-19T14:00:32Z</time><name>PT8229</name></trkpt>
<trkpt lat="53.212214" lon="-2.029820"><ele>255</ele><time>2020-08-19T14:00:35Z</time><name>PT8230</name></trkpt>
<trkpt lat="53.212173" lon="-2.029843"><ele>255</ele><time>2020-08-19T14:00:38Z</time><name>PT8231</name></trkpt>
<trkpt lat="53.212126" lon="-2.029851"><ele>254</ele><time>2020-08-19T14:00:43Z</time><name>PT8232</name></trkpt>
<trkpt lat="53.212077" lon="-2.029873"><ele>252</ele><time>2020-08-19T14:00:47Z</time><name>PT8233</name></trkpt>
<trkpt lat="53.212054" lon="-2.029895"><ele>251</ele><time>2020-08-19T14:00:50Z</time><name>PT8234</name></trkpt>
<trkpt lat="53.212024" lon="-2.029903"><ele>251</ele><time>2020-08-19T14:00:53Z</time><name>PT8235</name></trkpt>
<trkpt lat="53.211985" lon="-2.029932"><ele>251</ele><time>2020-08-19T14:00:56Z</time><name>PT8236</name></trkpt>
<trkpt lat="53.211926" lon="-2.029963"><ele>252</ele><time>2020-08-19T14:00:59Z</time><name>PT8237</name></trkpt>
<trkpt lat="53.211874" lon="-2.030005"><ele>254</ele><time>2020-08-19T14:01:03Z</time><name>PT8238</name></trkpt>
<trkpt lat="53.211831" lon="-2.030022"><ele>254</ele><time>2020-08-19T14:01:07Z</time><name>PT8239</name></trkpt>
<trkpt lat="53.211793" lon="-2.030046"><ele>257</ele><time>2020-08-19T14:01:10Z</time><name>PT8240</name></trkpt>
<trkpt lat="53.211764" lon="-2.030057"><ele>257</ele><time>2020-08-19T14:01:13Z</time><name>PT8241</name></trkpt>
<trkpt lat="53.211725" lon="-2.030072"><ele>257</ele><time>2020-08-19T14:01:17Z</time><name>PT8242</name></trkpt>
<trkpt lat="53.211710" lon="-2.030078"><ele>257</ele><time>2020-08-19T14:01:20Z</time><name>PT8243</name></trkpt>
<trkpt lat="53.211674" lon="-2.030106"><ele>256</ele><time>2020-08-19T14:01:23Z</time><name>PT8244</name></trkpt>
<trkpt lat="53.211624" lon="-2.030140"><ele>256</ele><time>2020-08-19T14:01:28Z</time><name>PT8245</name></trkpt>
<trkpt lat="53.211593" lon="-2.030159"><ele>255</ele><time>2020-08-19T14:01:31Z</time><name>PT8246</name></trkpt>
<trkpt lat="53.211559" lon="-2.030178"><ele>255</ele><time>2020-08-19T14:01:34Z</time><name>PT8247</name></trkpt>
<trkpt lat="53.211528" lon="-2.030202"><ele>254</ele><time>2020-08-19T14:01:37Z</time><name>PT8248</name></trkpt>
<trkpt lat="53.211488" lon="-2.030227"><ele>253</ele><time>2020-08-19T14:01:40Z</time><name>PT8249</name></trkpt>
<trkpt lat="53.211431" lon="-2.030269"><ele>253</ele><time>2020-08-19T14:01:44Z</time><name>PT8250</name></trkpt>
<trkpt lat="53.211389" lon="-2.030287"><ele>253</ele><time>2020-08-19T14:01:47Z</time><name>PT8251</name></trkpt>
<trkpt lat="53.211350" lon="-2.030329"><ele>254</ele><time>2020-08-19T14:01:50Z</time><name>PT8252</name></trkpt>
<trkpt lat="53.211334" lon="-2.030340"><ele>256</ele><time>2020-08-19T14:01:55Z</time><name>PT8253</name></trkpt>
<trkpt lat="53.211309" lon="-2.030364"><ele>256</ele><time>2020-08-19T14:01:58Z</time><name>PT8254</name></trkpt>
<trkpt lat="53.211274" lon="-2.030394"><ele>256</ele><time>2020-08-19T14:02:02Z</time><name>PT8255</name></trkpt>
<trkpt lat="53.211236" lon="-2.030411"><ele>256</ele><time>2020-08-19T14:02:05Z</time><name>PT8256</name></trkpt>
<trkpt lat="53.211191" lon="-2.030437"><ele>256</ele><time>2020-08-19T14:02:08Z</time><name>PT8257</name></trkpt>
<trkpt lat="53.211163" lon="-2.030458"><ele>255</ele><time>2020-08-19T14:02:11Z</time><name>PT8258</name></trkpt>
<trkpt lat="53.211125" lon="-2.030477"><ele>253</ele><time>2020-08-19T14:02:16Z</time><name>PT8259</name></trkpt>
<trkpt lat="53.211091" lon="-2.030500"><ele>254</ele><time>2020-08-19T14:02:19Z</time><name>PT8260</name></trkpt>
<trkpt lat="53.211052" lon="-2.030511"><ele>253</ele><time>2020-08-19T14:02:22Z</time><name>PT8261</name></trkpt>
<trkpt lat="53.211014" lon="-2.030534"><ele>254</ele><time>2020-08-19T14:02:25Z</time><name>PT8262</name></trkpt>
<trkpt lat="53.210951" lon="-2.030567"><ele>255</ele><time>2020-08-19T14:02:29Z</time><name>PT8263</name></trkpt>
<trkpt lat="53.210910" lon="-2.030595"><ele>256</ele><time>2020-08-19T14:02:32Z</time><name>PT8264</name></trkpt>
<trkpt lat="53.210853" lon="-2.030636"><ele>257</ele><time>2020-08-19T14:02:35Z</time><name>PT8265</name></trkpt>
<trkpt lat="53.210801" lon="-2.030665"><ele>258</ele><time>2020-08-19T14:02:40Z</time><name>PT8266</name></trkpt>
<trkpt lat="53.210762" lon="-2.030687"><ele>257</ele><time>2020-08-19T14:02:43Z</time><name>PT8267</name></trkpt>
<trkpt lat="53.210719" lon="-2.030720"><ele>257</ele><time>2020-08-19T14:02:46Z</time><name>PT8268</name></trkpt>
<trkpt lat="53.210674" lon="-2.030742"><ele>257</ele><time>2020-08-19T14:02:49Z</time><name>PT8269</name></trkpt>
<trkpt lat="53.210637" lon="-2.030761"><ele>258</ele><time>2020-08-19T14:02:52Z</time><name>PT8270</name></trkpt>
<trkpt lat="53.210584" lon="-2.030799"><ele>259</ele><time>2020-08-19T14:02:56Z</time><name>PT8271</name></trkpt>
<trkpt lat="53.210531" lon="-2.030828"><ele>259</ele><time>2020-08-19T14:02:59Z</time><name>PT8272</name></trkpt>
<trkpt lat="53.210478" lon="-2.030864"><ele>259</ele><time>2020-08-19T14:03:04Z</time><name>PT8273</name></trkpt>
<trkpt lat="53.210424" lon="-2.030900"><ele>260</ele><time>2020-08-19T14:03:08Z</time><name>PT8274</name></trkpt>
<trkpt lat="53.210378" lon="-2.030937"><ele>259</ele><time>2020-08-19T14:03:11Z</time><name>PT8275</name></trkpt>
<trkpt lat="53.210328" lon="-2.030975"><ele>259</ele><time>2020-08-19T14:03:16Z</time><name>PT8276</name></trkpt>
<trkpt lat="53.210281" lon="-2.031017"><ele>259</ele><time>2020-08-19T14:03:20Z</time><name>PT8277</name></trkpt>
<trkpt lat="53.210233" lon="-2.031062"><ele>259</ele><time>2020-08-19T14:03:23Z</time><name>PT8278</name></trkpt>
<trkpt lat="53.210188" lon="-2.031115"><ele>260</ele><time>2020-08-19T14:03:28Z</time><name>PT8279</name></trkpt>
<trkpt lat="53.210142" lon="-2.031171"><ele>260</ele><time>2020-08-19T14:03:32Z</time><name>PT8280</name></trkpt>
<trkpt lat="53.210103" lon="-2.031237"><ele>260</ele><time>2020-08-19T14:03:35Z</time><name>PT8281</name></trkpt>
<trkpt lat="53.210058" lon="-2.031295"><ele>259</ele><time>2020-08-19T14:03:40Z</time><name>PT8282</name></trkpt>
<trkpt lat="53.210013" lon="-2.031357"><ele>259</ele><time>2020-08-19T14:03:44Z</time><name>PT8283</name></trkpt>
<trkpt lat="53.209978" lon="-2.031417"><ele>259</ele><time>2020-08-19T14:03:47Z</time><name>PT8284</name></trkpt>
<trkpt lat="53.209951" lon="-2.031462"><ele>260</ele><time>2020-08-19T14:03:50Z</time><name>PT8285</name></trkpt>
<trkpt lat="53.209915" lon="-2.031513"><ele>260</ele><time>2020-08-19T14:03:55Z</time><name>PT8286</name></trkpt>
<trkpt lat="53.209884" lon="-2.031570"><ele>259</ele><time>2020-08-19T14:03:58Z</time><name>PT8287</name></trkpt>
<trkpt lat="53.209858" lon="-2.031620"><ele>259</ele><time>2020-08-19T14:04:01Z</time><name>PT8288</name></trkpt>
<trkpt lat="53.209821" lon="-2.031693"><ele>259</ele><time>2020-08-19T14:04:05Z</time><name>PT8289</name></trkpt>
<trkpt lat="53.209786" lon="-2.031761"><ele>259</ele><time>2020-08-19T14:04:08Z</time><name>PT8290</name></trkpt>
<trkpt lat="53.209748" lon="-2.031829"><ele>259</ele><time>2020-08-19T14:04:13Z</time><name>PT8291</name></trkpt>
<trkpt lat="53.209717" lon="-2.031899"><ele>259</ele><time>2020-08-19T14:04:17Z</time><name>PT8292</name></trkpt>
<trkpt lat="53.209692" lon="-2.031952"><ele>259</ele><time>2020-08-19T14:04:20Z</time><name>PT8293</name></trkpt>
<trkpt lat="53.209669" lon="-2.031999"><ele>260</ele><time>2020-08-19T14:04:23Z</time><name>PT8294</name></trkpt>
<trkpt lat="53.209639" lon="-2.032076"><ele>259</ele><time>2020-08-19T14:04:26Z</time><name>PT8295</name></trkpt>
<trkpt lat="53.209605" lon="-2.032144"><ele>260</ele><time>2020-08-19T14:04:31Z</time><name>PT8296</name></trkpt>
<trkpt lat="53.209577" lon="-2.032217"><ele>259</ele><time>2020-08-19T14:04:35Z</time><name>PT8297</name></trkpt>
<trkpt lat="53.209563" lon="-2.032278"><ele>259</ele><time>2020-08-19T14:04:38Z</time><name>PT8298</name></trkpt>
<trkpt lat="53.209546" lon="-2.032338"><ele>259</ele><time>2020-08-19T14:04:41Z</time><name>PT8299</name></trkpt>
<trkpt lat="53.209537" lon="-2.032400"><ele>258</ele><time>2020-08-19T14:04:44Z</time><name>PT8300</name></trkpt>
<trkpt lat="53.209519" lon="-2.032478"><ele>257</ele><time>2020-08-19T14:04:47Z</time><name>PT8301</name></trkpt>
<trkpt lat="53.209510" lon="-2.032564"><ele>256</ele><time>2020-08-19T14:04:52Z</time><name>PT8302</name></trkpt>
<trkpt lat="53.209501" lon="-2.032643"><ele>257</ele><time>2020-08-19T14:04:56Z</time><name>PT8303</name></trkpt>
<trkpt lat="53.209480" lon="-2.032734"><ele>256</ele><time>2020-08-19T14:04:59Z</time><name>PT8304</name></trkpt>
<trkpt lat="53.209474" lon="-2.032793"><ele>255</ele><time>2020-08-19T14:05:02Z</time><name>PT8305</name></trkpt>
<trkpt lat="53.209462" lon="-2.032879"><ele>256</ele><time>2020-08-19T14:05:07Z</time><name>PT8306</name></trkpt>
<trkpt lat="53.209456" lon="-2.032930"><ele>257</ele><time>2020-08-19T14:05:10Z</time><name>PT8307</name></trkpt>
<trkpt lat="53.209445" lon="-2.032999"><ele>256</ele><time>2020-08-19T14:05:14Z</time><name>PT8308</name></trkpt>
<trkpt lat="53.209431" lon="-2.033091"><ele>256</ele><time>2020-08-19T14:05:17Z</time><name>PT8309</name></trkpt>
<trkpt lat="53.209421" lon="-2.033176"><ele>255</ele><time>2020-08-19T14:05:22Z</time><name>PT8310</name></trkpt>
<trkpt lat="53.209414" lon="-2.033247"><ele>253</ele><time>2020-08-19T14:05:25Z</time><name>PT8311</name></trkpt>
<trkpt lat="53.209399" lon="-2.033327"><ele>251</ele><time>2020-08-19T14:05:29Z</time><name>PT8312</name></trkpt>
<trkpt lat="53.209380" lon="-2.033394"><ele>251</ele><time>2020-08-19T14:05:32Z</time><name>PT8313</name></trkpt>
<trkpt lat="53.209366" lon="-2.033442"><ele>248</ele><time>2020-08-19T14:05:35Z</time><name>PT8314</name></trkpt>
<trkpt lat="53.209355" lon="-2.033510"><ele>246</ele><time>2020-08-19T14:05:40Z</time><name>PT8315</name></trkpt>
<trkpt lat="53.209351" lon="-2.033605"><ele>246</ele><time>2020-08-19T14:05:44Z</time><name>PT8316</name></trkpt>
<trkpt lat="53.209344" lon="-2.033676"><ele>246</ele><time>2020-08-19T14:05:47Z</time><name>PT8317</name></trkpt>
<trkpt lat="53.209330" lon="-2.033789"><ele>247</ele><time>2020-08-19T14:05:50Z</time><name>PT8318</name></trkpt>
<trkpt lat="53.209311" lon="-2.033885"><ele>247</ele><time>2020-08-19T14:05:55Z</time><name>PT8319</name></trkpt>
<trkpt lat="53.209307" lon="-2.033940"><ele>247</ele><time>2020-08-19T14:05:58Z</time><name>PT8320</name></trkpt>
<trkpt lat="53.209285" lon="-2.034025"><ele>246</ele><time>2020-08-19T14:06:02Z</time><name>PT8321</name></trkpt>
<trkpt lat="53.209269" lon="-2.034107"><ele>247</ele><time>2020-08-19T14:06:05Z</time><name>PT8322</name></trkpt>
<trkpt lat="53.209263" lon="-2.034185"><ele>246</ele><time>2020-08-19T14:06:10Z</time><name>PT8323</name></trkpt>
<trkpt lat="53.209248" lon="-2.034284"><ele>247</ele><time>2020-08-19T14:06:14Z</time><name>PT8324</name></trkpt>
<trkpt lat="53.209239" lon="-2.034360"><ele>248</ele><time>2020-08-19T14:06:17Z</time><name>PT8325</name></trkpt>
<trkpt lat="53.209225" lon="-2.034457"><ele>249</ele><time>2020-08-19T14:06:20Z</time><name>PT8326</name></trkpt>
<trkpt lat="53.209211" lon="-2.034534"><ele>249</ele><time>2020-08-19T14:06:25Z</time><name>PT8327</name></trkpt>
<trkpt lat="53.209204" lon="-2.034616"><ele>250</ele><time>2020-08-19T14:06:29Z</time><name>PT8328</name></trkpt>
<trkpt lat="53.209194" lon="-2.034676"><ele>250</ele><time>2020-08-19T14:06:32Z</time><name>PT8329</name></trkpt>
<trkpt lat="53.209190" lon="-2.034732"><ele>248</ele><time>2020-08-19T14:06:35Z</time><name>PT8330</name></trkpt>
<trkpt lat="53.209196" lon="-2.034814"><ele>248</ele><time>2020-08-19T14:06:40Z</time><name>PT8331</name></trkpt>
<trkpt lat="53.209196" lon="-2.034885"><ele>249</ele><time>2020-08-19T14:06:43Z</time><name>PT8332</name></trkpt>
<trkpt lat="53.209208" lon="-2.034945"><ele>250</ele><time>2020-08-19T14:06:47Z</time><name>PT8333</name></trkpt>
<trkpt lat="53.209206" lon="-2.034996"><ele>249</ele><time>2020-08-19T14:06:50Z</time><name>PT8334</name></trkpt>
<trkpt lat="53.209212" lon="-2.035089"><ele>249</ele><time>2020-08-19T14:06:53Z</time><name>PT8335</name></trkpt>
<trkpt lat="53.209210" lon="-2.035176"><ele>249</ele><time>2020-08-19T14:06:57Z</time><name>PT8336</name></trkpt>
<trkpt lat="53.209205" lon="-2.035265"><ele>249</ele><time>2020-08-19T14:07:01Z</time><name>PT8337</name></trkpt>
<trkpt lat="53.209208" lon="-2.035348"><ele>248</ele><time>2020-08-19T14:07:05Z</time><name>PT8338</name></trkpt>
<trkpt lat="53.209220" lon="-2.035394"><ele>247</ele><time>2020-08-19T14:07:08Z</time><name>PT8339</name></trkpt>
<trkpt lat="53.209218" lon="-2.035500"><ele>247</ele><time>2020-08-19T14:07:11Z</time><name>PT8340</name></trkpt>
<trkpt lat="53.209215" lon="-2.035598"><ele>247</ele><time>2020-08-19T14:07:16Z</time><name>PT8341</name></trkpt>
<trkpt lat="53.209213" lon="-2.035668"><ele>246</ele><time>2020-08-19T14:07:19Z</time><name>PT8342</name></trkpt>
<trkpt lat="53.209204" lon="-2.035743"><ele>247</ele><time>2020-08-19T14:07:22Z</time><name>PT8343</name></trkpt>
<trkpt lat="53.209204" lon="-2.035840"><ele>247</ele><time>2020-08-19T14:07:26Z</time><name>PT8344</name></trkpt>
<trkpt lat="53.209205" lon="-2.035906"><ele>247</ele><time>2020-08-19T14:07:29Z</time><name>PT8345</name></trkpt>
<trkpt lat="53.209173" lon="-2.036010"><ele>252</ele><time>2020-08-19T14:07:32Z</time><name>PT8346</name></trkpt>
<trkpt lat="53.209169" lon="-2.036085"><ele>251</ele><time>2020-08-19T14:07:35Z</time><name>PT8347</name></trkpt>
<trkpt lat="53.209166" lon="-2.036153"><ele>250</ele><time>2020-08-19T14:07:38Z</time><name>PT8348</name></trkpt>
<trkpt lat="53.209170" lon="-2.036235"><ele>249</ele><time>2020-08-19T14:07:43Z</time><name>PT8349</name></trkpt>
<trkpt lat="53.209167" lon="-2.036302"><ele>249</ele><time>2020-08-19T14:07:46Z</time><name>PT8350</name></trkpt>
<trkpt lat="53.209171" lon="-2.036388"><ele>249</ele><time>2020-08-19T14:07:50Z</time><name>PT8351</name></trkpt>
<trkpt lat="53.209171" lon="-2.036455"><ele>249</ele><time>2020-08-19T14:07:53Z</time><name>PT8352</name></trkpt>
<trkpt lat="53.209183" lon="-2.036512"><ele>249</ele><time>2020-08-19T14:07:56Z</time><name>PT8353</name></trkpt>
<trkpt lat="53.209179" lon="-2.036562"><ele>248</ele><time>2020-08-19T14:07:59Z</time><name>PT8354</name></trkpt>
<trkpt lat="53.209168" lon="-2.036637"><ele>248</ele><time>2020-08-19T14:08:04Z</time><name>PT8355</name></trkpt>
<trkpt lat="53.209172" lon="-2.036712"><ele>250</ele><time>2020-08-19T14:08:08Z</time><name>PT8356</name></trkpt>
<trkpt lat="53.209165" lon="-2.036775"><ele>248</ele><time>2020-08-19T14:08:11Z</time><name>PT8357</name></trkpt>
<trkpt lat="53.209174" lon="-2.036847"><ele>247</ele><time>2020-08-19T14:08:14Z</time><name>PT8358</name></trkpt>
<trkpt lat="53.209178" lon="-2.036872"><ele>247</ele><time>2020-08-19T14:08:17Z</time><name>PT8359</name></trkpt>
<trkpt lat="53.209190" lon="-2.036940"><ele>248</ele><time>2020-08-19T14:08:22Z</time><name>PT8360</name></trkpt>
<trkpt lat="53.209192" lon="-2.037025"><ele>248</ele><time>2020-08-19T14:08:26Z</time><name>PT8361</name></trkpt>
<trkpt lat="53.209193" lon="-2.037097"><ele>249</ele><time>2020-08-19T14:08:29Z</time><name>PT8362</name></trkpt>
<trkpt lat="53.209187" lon="-2.037222"><ele>251</ele><time>2020-08-19T14:08:32Z</time><name>PT8363</name></trkpt>
<trkpt lat="53.209215" lon="-2.037314"><ele>250</ele><time>2020-08-19T14:08:35Z</time><name>PT8364</name></trkpt>
<trkpt lat="53.209218" lon="-2.037346"><ele>250</ele><time>2020-08-19T14:08:35Z</time><name>PT8365</name></trkpt>
<trkpt lat="53.209223" lon="-2.037376"><ele>251</ele><time>2020-08-19T14:08:37Z</time><name>PT8366</name></trkpt>
<trkpt lat="53.209232" lon="-2.037396"><ele>251</ele><time>2020-08-19T14:08:38Z</time><name>PT8367</name></trkpt>
<trkpt lat="53.209237" lon="-2.037415"><ele>251</ele><time>2020-08-19T14:08:38Z</time><name>PT8368</name></trkpt>
<trkpt lat="53.209240" lon="-2.037439"><ele>252</ele><time>2020-08-19T14:08:40Z</time><name>PT8369</name></trkpt>
<trkpt lat="53.209242" lon="-2.037461"><ele>252</ele><time>2020-08-19T14:08:41Z</time><name>PT8370</name></trkpt>
<trkpt lat="53.209244" lon="-2.037480"><ele>252</ele><time>2020-08-19T14:08:41Z</time><name>PT8371</name></trkpt>
<trkpt lat="53.209245" lon="-2.037507"><ele>252</ele><time>2020-08-19T14:08:43Z</time><name>PT8372</name></trkpt>
<trkpt lat="53.209248" lon="-2.037526"><ele>252</ele><time>2020-08-19T14:08:44Z</time><name>PT8373</name></trkpt>
<trkpt lat="53.209251" lon="-2.037542"><ele>252</ele><time>2020-08-19T14:08:44Z</time><name>PT8374</name></trkpt>
<trkpt lat="53.209253" lon="-2.037563"><ele>252</ele><time>2020-08-19T14:08:46Z</time><name>PT8375</name></trkpt>
<trkpt lat="53.209254" lon="-2.037585"><ele>252</ele><time>2020-08-19T14:08:47Z</time><name>PT8376</name></trkpt>
<trkpt lat="53.209253" lon="-2.037606"><ele>252</ele><time>2020-08-19T14:08:47Z</time><name>PT8377</name></trkpt>
<trkpt lat="53.209253" lon="-2.037625"><ele>253</ele><time>2020-08-19T14:08:49Z</time><name>PT8378</name></trkpt>
<trkpt lat="53.209256" lon="-2.037646"><ele>253</ele><time>2020-08-19T14:08:50Z</time><name>PT8379</name></trkpt>
<trkpt lat="53.209254" lon="-2.037672"><ele>253</ele><time>2020-08-19T14:08:50Z</time><name>PT8380</name></trkpt>
<trkpt lat="53.209256" lon="-2.037692"><ele>254</ele><time>2020-08-19T14:08:52Z</time><name>PT8381</name></trkpt>
<trkpt lat="53.209262" lon="-2.037713"><ele>254</ele><time>2020-08-19T14:08:53Z</time><name>PT8382</name></trkpt>
<trkpt lat="53.209262" lon="-2.037735"><ele>254</ele><time>2020-08-19T14:08:53Z</time><name>PT8383</name></trkpt>
<trkpt lat="53.209264" lon="-2.037756"><ele>255</ele><time>2020-08-19T14:08:55Z</time><name>PT8384</name></trkpt>
<trkpt lat="53.209267" lon="-2.037777"><ele>256</ele><time>2020-08-19T14:08:56Z</time><name>PT8385</name></trkpt>
<trkpt lat="53.209271" lon="-2.037799"><ele>256</ele><time>2020-08-19T14:08:56Z</time><name>PT8386</name></trkpt>
<trkpt lat="53.209272" lon="-2.037816"><ele>256</ele><time>2020-08-19T14:08:58Z</time><name>PT8387</name></trkpt>
<trkpt lat="53.209277" lon="-2.037827"><ele>256</ele><time>2020-08-19T14:08:59Z</time><name>PT8388</name></trkpt>
<trkpt lat="53.209280" lon="-2.037845"><ele>256</ele><time>2020-08-19T14:08:59Z</time><name>PT8389</name></trkpt>
<trkpt lat="53.209281" lon="-2.037865"><ele>256</ele><time>2020-08-19T14:09:01Z</time><name>PT8390</name></trkpt>
<trkpt lat="53.209284" lon="-2.037884"><ele>256</ele><time>2020-08-19T14:09:02Z</time><name>PT8391</name></trkpt>
<trkpt lat="53.209287" lon="-2.037900"><ele>256</ele><time>2020-08-19T14:09:02Z</time><name>PT8392</name></trkpt>
<trkpt lat="53.209289" lon="-2.037918"><ele>256</ele><time>2020-08-19T14:09:04Z</time><name>PT8393</name></trkpt>
<trkpt lat="53.209292" lon="-2.037933"><ele>256</ele><time>2020-08-19T14:09:05Z</time><name>PT8394</name></trkpt>
<trkpt lat="53.209294" lon="-2.037946"><ele>256</ele><time>2020-08-19T14:09:05Z</time><name>PT8395</name></trkpt>
<trkpt lat="53.209295" lon="-2.037968"><ele>256</ele><time>2020-08-19T14:09:07Z</time><name>PT8396</name></trkpt>
<trkpt lat="53.209298" lon="-2.037982"><ele>256</ele><time>2020-08-19T14:09:08Z</time><name>PT8397</name></trkpt>
<trkpt lat="53.209301" lon="-2.037998"><ele>256</ele><time>2020-08-19T14:09:08Z</time><name>PT8398</name></trkpt>
<trkpt lat="53.209301" lon="-2.038018"><ele>255</ele><time>2020-08-19T14:09:09Z</time><name>PT8399</name></trkpt>
<trkpt lat="53.209303" lon="-2.038041"><ele>255</ele><time>2020-08-19T14:09:11Z</time><name>PT8400</name></trkpt>
<trkpt lat="53.209305" lon="-2.038063"><ele>255</ele><time>2020-08-19T14:09:11Z</time><name>PT8401</name></trkpt>
<trkpt lat="53.209304" lon="-2.038075"><ele>255</ele><time>2020-08-19T14:09:12Z</time><name>PT8402</name></trkpt>
<trkpt lat="53.209301" lon="-2.038096"><ele>255</ele><time>2020-08-19T14:09:14Z</time><name>PT8403</name></trkpt>
<trkpt lat="53.209300" lon="-2.038125"><ele>255</ele><time>2020-08-19T14:09:14Z</time><name>PT8404</name></trkpt>
<trkpt lat="53.209302" lon="-2.038166"><ele>256</ele><time>2020-08-19T14:09:16Z</time><name>PT8405</name></trkpt>
<trkpt lat="53.209301" lon="-2.038194"><ele>256</ele><time>2020-08-19T14:09:17Z</time><name>PT8406</name></trkpt>
<trkpt lat="53.209302" lon="-2.038209"><ele>257</ele><time>2020-08-19T14:09:17Z</time><name>PT8407</name></trkpt>
<trkpt lat="53.209304" lon="-2.038216"><ele>257</ele><time>2020-08-19T14:09:19Z</time><name>PT8408</name></trkpt>
<trkpt lat="53.209309" lon="-2.038231"><ele>257</ele><time>2020-08-19T14:09:20Z</time><name>PT8409</name></trkpt>
<trkpt lat="53.209310" lon="-2.038262"><ele>257</ele><time>2020-08-19T14:09:20Z</time><name>PT8410</name></trkpt>
<trkpt lat="53.209308" lon="-2.038298"><ele>257</ele><time>2020-08-19T14:09:21Z</time><name>PT8411</name></trkpt>
<trkpt lat="53.209312" lon="-2.038332"><ele>258</ele><time>2020-08-19T14:09:23Z</time><name>PT8412</name></trkpt>
<trkpt lat="53.209316" lon="-2.038355"><ele>259</ele><time>2020-08-19T14:09:23Z</time><name>PT8413</name></trkpt>
<trkpt lat="53.209313" lon="-2.038370"><ele>259</ele><time>2020-08-19T14:09:25Z</time><name>PT8414</name></trkpt>
<trkpt lat="53.209313" lon="-2.038387"><ele>259</ele><time>2020-08-19T14:09:26Z</time><name>PT8415</name></trkpt>
<trkpt lat="53.209310" lon="-2.038413"><ele>258</ele><time>2020-08-19T14:09:26Z</time><name>PT8416</name></trkpt>
<trkpt lat="53.209307" lon="-2.038442"><ele>258</ele><time>2020-08-19T14:09:27Z</time><name>PT8417</name></trkpt>
<trkpt lat="53.209304" lon="-2.038465"><ele>257</ele><time>2020-08-19T14:09:29Z</time><name>PT8418</name></trkpt>
<trkpt lat="53.209306" lon="-2.038481"><ele>258</ele><time>2020-08-19T14:09:29Z</time><name>PT8419</name></trkpt>
<trkpt lat="53.209304" lon="-2.038497"><ele>258</ele><time>2020-08-19T14:09:31Z</time><name>PT8420</name></trkpt>
<trkpt lat="53.209300" lon="-2.038515"><ele>258</ele><time>2020-08-19T14:09:32Z</time><name>PT8421</name></trkpt>
<trkpt lat="53.209298" lon="-2.038540"><ele>257</ele><time>2020-08-19T14:09:32Z</time><name>PT8422</name></trkpt>
<trkpt lat="53.209298" lon="-2.038575"><ele>258</ele><time>2020-08-19T14:09:34Z</time><name>PT8423</name></trkpt>
<trkpt lat="53.209294" lon="-2.038602"><ele>259</ele><time>2020-08-19T14:09:35Z</time><name>PT8424</name></trkpt>
<trkpt lat="53.209288" lon="-2.038621"><ele>259</ele><time>2020-08-19T14:09:35Z</time><name>PT8425</name></trkpt>
<trkpt lat="53.209284" lon="-2.038632"><ele>260</ele><time>2020-08-19T14:09:37Z</time><name>PT8426</name></trkpt>
<trkpt lat="53.209282" lon="-2.038647"><ele>260</ele><time>2020-08-19T14:09:38Z</time><name>PT8427</name></trkpt>
<trkpt lat="53.209280" lon="-2.038668"><ele>260</ele><time>2020-08-19T14:09:38Z</time><name>PT8428</name></trkpt>
<trkpt lat="53.209275" lon="-2.038689"><ele>261</ele><time>2020-08-19T14:09:40Z</time><name>PT8429</name></trkpt>
<trkpt lat="53.209266" lon="-2.038705"><ele>261</ele><time>2020-08-19T14:09:41Z</time><name>PT8430</name></trkpt>
<trkpt lat="53.209261" lon="-2.038720"><ele>260</ele><time>2020-08-19T14:09:41Z</time><name>PT8431</name></trkpt>
<trkpt lat="53.209255" lon="-2.038737"><ele>260</ele><time>2020-08-19T14:09:42Z</time><name>PT8432</name></trkpt>
<trkpt lat="53.209250" lon="-2.038753"><ele>259</ele><time>2020-08-19T14:09:44Z</time><name>PT8433</name></trkpt>
<trkpt lat="53.209247" lon="-2.038769"><ele>259</ele><time>2020-08-19T14:09:44Z</time><name>PT8434</name></trkpt>
<trkpt lat="53.209242" lon="-2.038778"><ele>259</ele><time>2020-08-19T14:09:46Z</time><name>PT8435</name></trkpt>
<trkpt lat="53.209241" lon="-2.038780"><ele>259</ele><time>2020-08-19T14:09:47Z</time><name>PT8436</name></trkpt>
<trkpt lat="53.209242" lon="-2.038783"><ele>259</ele><time>2020-08-19T14:09:47Z</time><name>PT8437</name></trkpt>
<trkpt lat="53.209242" lon="-2.038778"><ele>259</ele><time>2020-08-19T14:09:49Z</time><name>PT8438</name></trkpt>
<trkpt lat="53.209237" lon="-2.038781"><ele>259</ele><time>2020-08-19T14:09:51Z</time><name>PT8439</name></trkpt>
<trkpt lat="53.209234" lon="-2.038792"><ele>259</ele><time>2020-08-19T14:09:53Z</time><name>PT8440</name></trkpt>
<trkpt lat="53.209226" lon="-2.038813"><ele>259</ele><time>2020-08-19T14:09:53Z</time><name>PT8441</name></trkpt>
<trkpt lat="53.209218" lon="-2.038826"><ele>259</ele><time>2020-08-19T14:09:55Z</time><name>PT8442</name></trkpt>
<trkpt lat="53.209211" lon="-2.038844"><ele>258</ele><time>2020-08-19T14:09:56Z</time><name>PT8443</name></trkpt>
<trkpt lat="53.209206" lon="-2.038874"><ele>259</ele><time>2020-08-19T14:09:56Z</time><name>PT8444</name></trkpt>
<trkpt lat="53.209201" lon="-2.038902"><ele>260</ele><time>2020-08-19T14:09:57Z</time><name>PT8445</name></trkpt>
<trkpt lat="53.209191" lon="-2.038921"><ele>260</ele><time>2020-08-19T14:09:59Z</time><name>PT8446</name></trkpt>
<trkpt lat="53.209184" lon="-2.038941"><ele>260</ele><time>2020-08-19T14:09:59Z</time><name>PT8447</name></trkpt>
<trkpt lat="53.209178" lon="-2.038956"><ele>260</ele><time>2020-08-19T14:10:01Z</time><name>PT8448</name></trkpt>
<trkpt lat="53.209165" lon="-2.038968"><ele>259</ele><time>2020-08-19T14:10:02Z</time><name>PT8449</name></trkpt>
<trkpt lat="53.209160" lon="-2.038991"><ele>258</ele><time>2020-08-19T14:10:02Z</time><name>PT8450</name></trkpt>
<trkpt lat="53.209150" lon="-2.039015"><ele>258</ele><time>2020-08-19T14:10:04Z</time><name>PT8451</name></trkpt>
<trkpt lat="53.209134" lon="-2.039039"><ele>258</ele><time>2020-08-19T14:10:05Z</time><name>PT8452</name></trkpt>
<trkpt lat="53.209123" lon="-2.039069"><ele>258</ele><time>2020-08-19T14:10:05Z</time><name>PT8453</name></trkpt>
<trkpt lat="53.209116" lon="-2.039093"><ele>257</ele><time>2020-08-19T14:10:06Z</time><name>PT8454</name></trkpt>
<trkpt lat="53.209109" lon="-2.039094"><ele>256</ele><time>2020-08-19T14:10:08Z</time><name>PT8455</name></trkpt>
<trkpt lat="53.209107" lon="-2.039099"><ele>256</ele><time>2020-08-19T14:10:08Z</time><name>PT8456</name></trkpt>
<trkpt lat="53.209105" lon="-2.039112"><ele>255</ele><time>2020-08-19T14:10:10Z</time><name>PT8457</name></trkpt>
<trkpt lat="53.209104" lon="-2.039146"><ele>254</ele><time>2020-08-19T14:10:11Z</time><name>PT8458</name></trkpt>
<trkpt lat="53.209097" lon="-2.039181"><ele>254</ele><time>2020-08-19T14:10:11Z</time><name>PT8459</name></trkpt>
<trkpt lat="53.209088" lon="-2.039210"><ele>254</ele><time>2020-08-19T14:10:13Z</time><name>PT8460</name></trkpt>
<trkpt lat="53.209088" lon="-2.039234"><ele>256</ele><time>2020-08-19T14:10:14Z</time><name>PT8461</name></trkpt>
<trkpt lat="53.209086" lon="-2.039242"><ele>255</ele><time>2020-08-19T14:10:14Z</time><name>PT8462</name></trkpt>
<trkpt lat="53.209088" lon="-2.039246"><ele>255</ele><time>2020-08-19T14:10:15Z</time><name>PT8463</name></trkpt>
<trkpt lat="53.209090" lon="-2.039255"><ele>255</ele><time>2020-08-19T14:10:17Z</time><name>PT8464</name></trkpt>
<trkpt lat="53.209081" lon="-2.039273"><ele>255</ele><time>2020-08-19T14:10:17Z</time><name>PT8465</name></trkpt>
<trkpt lat="53.209070" lon="-2.039300"><ele>255</ele><time>2020-08-19T14:10:19Z</time><name>PT8466</name></trkpt>
<trkpt lat="53.209059" lon="-2.039327"><ele>256</ele><time>2020-08-19T14:10:20Z</time><name>PT8467</name></trkpt>
<trkpt lat="53.209053" lon="-2.039352"><ele>256</ele><time>2020-08-19T14:10:20Z</time><name>PT8468</name></trkpt>
<trkpt lat="53.209052" lon="-2.039367"><ele>256</ele><time>2020-08-19T14:10:22Z</time><name>PT8469</name></trkpt>
<trkpt lat="53.209048" lon="-2.039374"><ele>256</ele><time>2020-08-19T14:10:23Z</time><name>PT8470</name></trkpt>
<trkpt lat="53.209045" lon="-2.039387"><ele>256</ele><time>2020-08-19T14:10:23Z</time><name>PT8471</name></trkpt>
<trkpt lat="53.209049" lon="-2.039411"><ele>257</ele><time>2020-08-19T14:10:25Z</time><name>PT8472</name></trkpt>
<trkpt lat="53.209048" lon="-2.039437"><ele>259</ele><time>2020-08-19T14:10:26Z</time><name>PT8473</name></trkpt>
<trkpt lat="53.209043" lon="-2.039460"><ele>259</ele><time>2020-08-19T14:10:26Z</time><name>PT8474</name></trkpt>
<trkpt lat="53.209034" lon="-2.039480"><ele>259</ele><time>2020-08-19T14:10:27Z</time><name>PT8475</name></trkpt>
<trkpt lat="53.209028" lon="-2.039493"><ele>259</ele><time>2020-08-19T14:10:29Z</time><name>PT8476</name></trkpt>
<trkpt lat="53.209030" lon="-2.039500"><ele>259</ele><time>2020-08-19T14:10:29Z</time><name>PT8477</name></trkpt>
<trkpt lat="53.209027" lon="-2.039511"><ele>259</ele><time>2020-08-19T14:10:31Z</time><name>PT8478</name></trkpt>
<trkpt lat="53.209026" lon="-2.039535"><ele>259</ele><time>2020-08-19T14:10:32Z</time><name>PT8479</name></trkpt>
<trkpt lat="53.209021" lon="-2.039567"><ele>259</ele><time>2020-08-19T14:10:32Z</time><name>PT8480</name></trkpt>
<trkpt lat="53.209018" lon="-2.039599"><ele>259</ele><time>2020-08-19T14:10:34Z</time><name>PT8481</name></trkpt>
<trkpt lat="53.209015" lon="-2.039631"><ele>261</ele><time>2020-08-19T14:10:35Z</time><name>PT8482</name></trkpt>
<trkpt lat="53.209007" lon="-2.039646"><ele>261</ele><time>2020-08-19T14:10:35Z</time><name>PT8483</name></trkpt>
<trkpt lat="53.208999" lon="-2.039659"><ele>261</ele><time>2020-08-19T14:10:37Z</time><name>PT8484</name></trkpt>
<trkpt lat="53.208994" lon="-2.039673"><ele>261</ele><time>2020-08-19T14:10:38Z</time><name>PT8485</name></trkpt>
<trkpt lat="53.208992" lon="-2.039698"><ele>260</ele><time>2020-08-19T14:10:38Z</time><name>PT8486</name></trkpt>
<trkpt lat="53.208987" lon="-2.039736"><ele>261</ele><time>2020-08-19T14:10:40Z</time><name>PT8487</name></trkpt>
<trkpt lat="53.208985" lon="-2.039777"><ele>262</ele><time>2020-08-19T14:10:41Z</time><name>PT8488</name></trkpt>
<trkpt lat="53.208979" lon="-2.039813"><ele>262</ele><time>2020-08-19T14:10:41Z</time><name>PT8489</name></trkpt>
<trkpt lat="53.208975" lon="-2.039842"><ele>263</ele><time>2020-08-19T14:10:42Z</time><name>PT8490</name></trkpt>
<trkpt lat="53.208972" lon="-2.039864"><ele>263</ele><time>2020-08-19T14:10:44Z</time><name>PT8491</name></trkpt>
<trkpt lat="53.208969" lon="-2.039875"><ele>262</ele><time>2020-08-19T14:10:44Z</time><name>PT8492</name></trkpt>
<trkpt lat="53.208961" lon="-2.039892"><ele>261</ele><time>2020-08-19T14:10:45Z</time><name>PT8493</name></trkpt>
<trkpt lat="53.208954" lon="-2.039919"><ele>261</ele><time>2020-08-19T14:10:47Z</time><name>PT8494</name></trkpt>
<trkpt lat="53.208951" lon="-2.039943"><ele>260</ele><time>2020-08-19T14:10:47Z</time><name>PT8495</name></trkpt>
<trkpt lat="53.208945" lon="-2.039956"><ele>259</ele><time>2020-08-19T14:10:48Z</time><name>PT8496</name></trkpt>
<trkpt lat="53.208944" lon="-2.039966"><ele>259</ele><time>2020-08-19T14:10:50Z</time><name>PT8497</name></trkpt>
<trkpt lat="53.208944" lon="-2.039970"><ele>260</ele><time>2020-08-19T14:10:50Z</time><name>PT8498</name></trkpt>
<trkpt lat="53.208945" lon="-2.039972"><ele>260</ele><time>2020-08-19T14:10:52Z</time><name>PT8499</name></trkpt>
<trkpt lat="53.208955" lon="-2.039983"><ele>261</ele><time>2020-08-19T14:10:53Z</time><name>PT8500</name></trkpt>
<trkpt lat="53.208968" lon="-2.039995"><ele>263</ele><time>2020-08-19T14:10:53Z</time><name>PT8501</name></trkpt>
<trkpt lat="53.208963" lon="-2.040024"><ele>263</ele><time>2020-08-19T14:10:56Z</time><name>PT8502</name></trkpt>
<trkpt lat="53.208959" lon="-2.040040"><ele>262</ele><time>2020-08-19T14:10:58Z</time><name>PT8503</name></trkpt>
<trkpt lat="53.208958" lon="-2.040055"><ele>261</ele><time>2020-08-19T14:10:59Z</time><name>PT8504</name></trkpt>
<trkpt lat="53.208953" lon="-2.040072"><ele>261</ele><time>2020-08-19T14:10:59Z</time><name>PT8505</name></trkpt>
<trkpt lat="53.208949" lon="-2.040087"><ele>261</ele><time>2020-08-19T14:11:00Z</time><name>PT8506</name></trkpt>
<trkpt lat="53.208959" lon="-2.040114"><ele>260</ele><time>2020-08-19T14:11:02Z</time><name>PT8507</name></trkpt>
<trkpt lat="53.208964" lon="-2.040138"><ele>259</ele><time>2020-08-19T14:11:02Z</time><name>PT8508</name></trkpt>
<trkpt lat="53.208961" lon="-2.040162"><ele>259</ele><time>2020-08-19T14:11:03Z</time><name>PT8509</name></trkpt>
<trkpt lat="53.208963" lon="-2.040179"><ele>259</ele><time>2020-08-19T14:11:05Z</time><name>PT8510</name></trkpt>
<trkpt lat="53.208965" lon="-2.040195"><ele>259</ele><time>2020-08-19T14:11:05Z</time><name>PT8511</name></trkpt>
<trkpt lat="53.208965" lon="-2.040207"><ele>259</ele><time>2020-08-19T14:11:07Z</time><name>PT8512</name></trkpt>
<trkpt lat="53.208966" lon="-2.040218"><ele>259</ele><time>2020-08-19T14:11:08Z</time><name>PT8513</name></trkpt>
<trkpt lat="53.208966" lon="-2.040239"><ele>259</ele><time>2020-08-19T14:11:08Z</time><name>PT8514</name></trkpt>
<trkpt lat="53.208962" lon="-2.040274"><ele>258</ele><time>2020-08-19T14:11:10Z</time><name>PT8515</name></trkpt>
<trkpt lat="53.208961" lon="-2.040311"><ele>259</ele><time>2020-08-19T14:11:11Z</time><name>PT8516</name></trkpt>
<trkpt lat="53.208960" lon="-2.040338"><ele>260</ele><time>2020-08-19T14:11:11Z</time><name>PT8517</name></trkpt>
<trkpt lat="53.208957" lon="-2.040358"><ele>260</ele><time>2020-08-19T14:11:13Z</time><name>PT8518</name></trkpt>
<trkpt lat="53.208954" lon="-2.040375"><ele>260</ele><time>2020-08-19T14:11:14Z</time><name>PT8519</name></trkpt>
<trkpt lat="53.208947" lon="-2.040387"><ele>260</ele><time>2020-08-19T14:11:14Z</time><name>PT8520</name></trkpt>
<trkpt lat="53.208940" lon="-2.040400"><ele>259</ele><time>2020-08-19T14:11:16Z</time><name>PT8521</name></trkpt>
<trkpt lat="53.208928" lon="-2.040422"><ele>257</ele><time>2020-08-19T14:11:17Z</time><name>PT8522</name></trkpt>
<trkpt lat="53.208923" lon="-2.040450"><ele>257</ele><time>2020-08-19T14:11:17Z</time><name>PT8523</name></trkpt>
<trkpt lat="53.208916" lon="-2.040468"><ele>257</ele><time>2020-08-19T14:11:19Z</time><name>PT8524</name></trkpt>
<trkpt lat="53.208913" lon="-2.040481"><ele>257</ele><time>2020-08-19T14:11:20Z</time><name>PT8525</name></trkpt>
<trkpt lat="53.208906" lon="-2.040481"><ele>257</ele><time>2020-08-19T14:11:20Z</time><name>PT8526</name></trkpt>
<trkpt lat="53.208905" lon="-2.040490"><ele>257</ele><time>2020-08-19T14:11:22Z</time><name>PT8527</name></trkpt>
<trkpt lat="53.208899" lon="-2.040514"><ele>256</ele><time>2020-08-19T14:11:23Z</time><name>PT8528</name></trkpt>
<trkpt lat="53.208892" lon="-2.040550"><ele>257</ele><time>2020-08-19T14:11:23Z</time><name>PT8529</name></trkpt>
<trkpt lat="53.208878" lon="-2.040577"><ele>257</ele><time>2020-08-19T14:11:25Z</time><name>PT8530</name></trkpt>
<trkpt lat="53.208875" lon="-2.040590"><ele>256</ele><time>2020-08-19T14:11:26Z</time><name>PT8531</name></trkpt>
<trkpt lat="53.208875" lon="-2.040596"><ele>256</ele><time>2020-08-19T14:11:26Z</time><name>PT8532</name></trkpt>
<trkpt lat="53.208874" lon="-2.040605"><ele>256</ele><time>2020-08-19T14:11:27Z</time><name>PT8533</name></trkpt>
<trkpt lat="53.208871" lon="-2.040616"><ele>255</ele><time>2020-08-19T14:11:29Z</time><name>PT8534</name></trkpt>
<trkpt lat="53.208864" lon="-2.040646"><ele>254</ele><time>2020-08-19T14:11:29Z</time><name>PT8535</name></trkpt>
<trkpt lat="53.208855" lon="-2.040678"><ele>252</ele><time>2020-08-19T14:11:31Z</time><name>PT8536</name></trkpt>
<trkpt lat="53.208845" lon="-2.040711"><ele>252</ele><time>2020-08-19T14:11:32Z</time><name>PT8537</name></trkpt>
<trkpt lat="53.208837" lon="-2.040740"><ele>252</ele><time>2020-08-19T14:11:32Z</time><name>PT8538</name></trkpt>
<trkpt lat="53.208832" lon="-2.040757"><ele>252</ele><time>2020-08-19T14:11:34Z</time><name>PT8539</name></trkpt>
<trkpt lat="53.208829" lon="-2.040768"><ele>252</ele><time>2020-08-19T14:11:35Z</time><name>PT8540</name></trkpt>
<trkpt lat="53.208827" lon="-2.040774"><ele>252</ele><time>2020-08-19T14:11:35Z</time><name>PT8541</name></trkpt>
<trkpt lat="53.208827" lon="-2.040791"><ele>252</ele><time>2020-08-19T14:11:37Z</time><name>PT8542</name></trkpt>
<trkpt lat="53.208828" lon="-2.040827"><ele>253</ele><time>2020-08-19T14:11:38Z</time><name>PT8543</name></trkpt>
<trkpt lat="53.208828" lon="-2.040865"><ele>255</ele><time>2020-08-19T14:11:38Z</time><name>PT8544</name></trkpt>
<trkpt lat="53.208823" lon="-2.040888"><ele>256</ele><time>2020-08-19T14:11:40Z</time><name>PT8545</name></trkpt>
<trkpt lat="53.208821" lon="-2.040905"><ele>257</ele><time>2020-08-19T14:11:41Z</time><name>PT8546</name></trkpt>
<trkpt lat="53.208821" lon="-2.040914"><ele>257</ele><time>2020-08-19T14:11:41Z</time><name>PT8547</name></trkpt>
<trkpt lat="53.208822" lon="-2.040921"><ele>257</ele><time>2020-08-19T14:11:43Z</time><name>PT8548</name></trkpt>
<trkpt lat="53.208818" lon="-2.040944"><ele>256</ele><time>2020-08-19T14:11:44Z</time><name>PT8549</name></trkpt>
<trkpt lat="53.208811" lon="-2.040972"><ele>256</ele><time>2020-08-19T14:11:44Z</time><name>PT8550</name></trkpt>
<trkpt lat="53.208805" lon="-2.041002"><ele>256</ele><time>2020-08-19T14:11:46Z</time><name>PT8551</name></trkpt>
<trkpt lat="53.208803" lon="-2.041028"><ele>257</ele><time>2020-08-19T14:11:47Z</time><name>PT8552</name></trkpt>
<trkpt lat="53.208800" lon="-2.041042"><ele>257</ele><time>2020-08-19T14:11:47Z</time><name>PT8553</name></trkpt>
<trkpt lat="53.208795" lon="-2.041050"><ele>257</ele><time>2020-08-19T14:11:49Z</time><name>PT8554</name></trkpt>
<trkpt lat="53.208791" lon="-2.041060"><ele>257</ele><time>2020-08-19T14:11:50Z</time><name>PT8555</name></trkpt>
<trkpt lat="53.208785" lon="-2.041079"><ele>255</ele><time>2020-08-19T14:11:50Z</time><name>PT8556</name></trkpt>
<trkpt lat="53.208787" lon="-2.041104"><ele>257</ele><time>2020-08-19T14:11:51Z</time><name>PT8557</name></trkpt>
<trkpt lat="53.208778" lon="-2.041134"><ele>256</ele><time>2020-08-19T14:11:53Z</time><name>PT8558</name></trkpt>
<trkpt lat="53.208774" lon="-2.041160"><ele>256</ele><time>2020-08-19T14:11:53Z</time><name>PT8559</name></trkpt>
<trkpt lat="53.208769" lon="-2.041172"><ele>256</ele><time>2020-08-19T14:11:54Z</time><name>PT8560</name></trkpt>
<trkpt lat="53.208770" lon="-2.041184"><ele>256</ele><time>2020-08-19T14:11:56Z</time><name>PT8561</name></trkpt>
<trkpt lat="53.208770" lon="-2.041194"><ele>255</ele><time>2020-08-19T14:11:56Z</time><name>PT8562</name></trkpt>
<trkpt lat="53.208777" lon="-2.041216"><ele>255</ele><time>2020-08-19T14:11:58Z</time><name>PT8563</name></trkpt>
<trkpt lat="53.208774" lon="-2.041246"><ele>254</ele><time>2020-08-19T14:11:59Z</time><name>PT8564</name></trkpt>
<trkpt lat="53.208772" lon="-2.041277"><ele>254</ele><time>2020-08-19T14:11:59Z</time><name>PT8565</name></trkpt>
<trkpt lat="53.208773" lon="-2.041295"><ele>254</ele><time>2020-08-19T14:12:01Z</time><name>PT8566</name></trkpt>
<trkpt lat="53.208767" lon="-2.041309"><ele>253</ele><time>2020-08-19T14:12:02Z</time><name>PT8567</name></trkpt>
<trkpt lat="53.208765" lon="-2.041322"><ele>253</ele><time>2020-08-19T14:12:02Z</time><name>PT8568</name></trkpt>
<trkpt lat="53.208765" lon="-2.041351"><ele>252</ele><time>2020-08-19T14:12:03Z</time><name>PT8569</name></trkpt>
<trkpt lat="53.208763" lon="-2.041387"><ele>253</ele><time>2020-08-19T14:12:05Z</time><name>PT8570</name></trkpt>
<trkpt lat="53.208766" lon="-2.041401"><ele>253</ele><time>2020-08-19T14:12:05Z</time><name>PT8571</name></trkpt>
<trkpt lat="53.208764" lon="-2.041414"><ele>254</ele><time>2020-08-19T14:12:06Z</time><name>PT8572</name></trkpt>
<trkpt lat="53.208763" lon="-2.041424"><ele>255</ele><time>2020-08-19T14:12:08Z</time><name>PT8573</name></trkpt>
<trkpt lat="53.208764" lon="-2.041441"><ele>255</ele><time>2020-08-19T14:12:08Z</time><name>PT8574</name></trkpt>
<trkpt lat="53.208767" lon="-2.041453"><ele>255</ele><time>2020-08-19T14:12:10Z</time><name>PT8575</name></trkpt>
<trkpt lat="53.208770" lon="-2.041471"><ele>256</ele><time>2020-08-19T14:12:11Z</time><name>PT8576</name></trkpt>
<trkpt lat="53.208774" lon="-2.041500"><ele>255</ele><time>2020-08-19T14:12:11Z</time><name>PT8577</name></trkpt>
<trkpt lat="53.208778" lon="-2.041521"><ele>255</ele><time>2020-08-19T14:12:12Z</time><name>PT8578</name></trkpt>
<trkpt lat="53.208785" lon="-2.041549"><ele>254</ele><time>2020-08-19T14:12:14Z</time><name>PT8579</name></trkpt>
<trkpt lat="53.208786" lon="-2.041575"><ele>254</ele><time>2020-08-19T14:12:14Z</time><name>PT8580</name></trkpt>
<trkpt lat="53.208790" lon="-2.041594"><ele>254</ele><time>2020-08-19T14:12:15Z</time><name>PT8581</name></trkpt>
<trkpt lat="53.208796" lon="-2.041619"><ele>254</ele><time>2020-08-19T14:12:17Z</time><name>PT8582</name></trkpt>
<trkpt lat="53.208802" lon="-2.041630"><ele>254</ele><time>2020-08-19T14:12:17Z</time><name>PT8583</name></trkpt>
<trkpt lat="53.208803" lon="-2.041647"><ele>254</ele><time>2020-08-19T14:12:18Z</time><name>PT8584</name></trkpt>
<trkpt lat="53.208809" lon="-2.041658"><ele>254</ele><time>2020-08-19T14:12:20Z</time><name>PT8585</name></trkpt>
<trkpt lat="53.208815" lon="-2.041658"><ele>254</ele><time>2020-08-19T14:12:20Z</time><name>PT8586</name></trkpt>
<trkpt lat="53.208823" lon="-2.041660"><ele>255</ele><time>2020-08-19T14:12:22Z</time><name>PT8587</name></trkpt>
<trkpt lat="53.208830" lon="-2.041668"><ele>255</ele><time>2020-08-19T14:12:23Z</time><name>PT8588</name></trkpt>
<trkpt lat="53.208845" lon="-2.041681"><ele>256</ele><time>2020-08-19T14:12:23Z</time><name>PT8589</name></trkpt>
<trkpt lat="53.208851" lon="-2.041693"><ele>257</ele><time>2020-08-19T14:12:25Z</time><name>PT8590</name></trkpt>
<trkpt lat="53.208862" lon="-2.041702"><ele>257</ele><time>2020-08-19T14:12:26Z</time><name>PT8591</name></trkpt>
<trkpt lat="53.208870" lon="-2.041713"><ele>256</ele><time>2020-08-19T14:12:26Z</time><name>PT8592</name></trkpt>
<trkpt lat="53.208879" lon="-2.041724"><ele>256</ele><time>2020-08-19T14:12:28Z</time><name>PT8593</name></trkpt>
<trkpt lat="53.208879" lon="-2.041744"><ele>257</ele><time>2020-08-19T14:12:29Z</time><name>PT8594</name></trkpt>
<trkpt lat="53.208879" lon="-2.041755"><ele>256</ele><time>2020-08-19T14:12:29Z</time><name>PT8595</name></trkpt></trkseg></trk></gpx>